<?xml version="1.0" encoding="UTF-8" standalone="no" ?>
<gpx xmlns="http://www.topografix.com/GPX/1/1" xmlns:xsi="http://www.w3.org/2001/XMLSchema-instance" xsi:schemaLocation="http://www.topografix.com/GPX/1/1 http://www.topografix.com/GPX/1/1/gpx.xsd" version="1.1" creator="VisuGPX - https://www.visugpx.com">
  <metadata>
    <name>cancon boudy paillole castelnaud</name>
    <desc><![CDATA[super circuit avec un peu de denivelé peu de route]]></desc>
  </metadata>
  <trk>
    <name><![CDATA[Cycling]]></name>
    <trkseg>
      <trkpt lat="44.53633" lon="0.62468">
        <ele>163.4</ele>
        <time>2017-01-29T07:40:54.000Z</time>
      </trkpt>
      <trkpt lat="44.53633" lon="0.62467">
        <ele>163.4</ele>
        <time>2017-01-29T07:40:55.000Z</time>
      </trkpt>
      <trkpt lat="44.53633" lon="0.62467">
        <ele>163.4</ele>
        <time>2017-01-29T07:40:56.000Z</time>
      </trkpt>
      <trkpt lat="44.53633" lon="0.62468">
        <ele>163.4</ele>
        <time>2017-01-29T07:40:58.000Z</time>
      </trkpt>
      <trkpt lat="44.53633" lon="0.62468">
        <ele>163.4</ele>
        <time>2017-01-29T07:40:59.000Z</time>
      </trkpt>
      <trkpt lat="44.53633" lon="0.62468">
        <ele>163.4</ele>
        <time>2017-01-29T07:41:00.000Z</time>
      </trkpt>
      <trkpt lat="44.53632" lon="0.62469">
        <ele>163.4</ele>
        <time>2017-01-29T07:41:01.000Z</time>
      </trkpt>
      <trkpt lat="44.53632" lon="0.62469">
        <ele>163.4</ele>
        <time>2017-01-29T07:41:02.000Z</time>
      </trkpt>
      <trkpt lat="44.53632" lon="0.62469">
        <ele>163.4</ele>
        <time>2017-01-29T07:41:03.000Z</time>
      </trkpt>
      <trkpt lat="44.53631" lon="0.62469">
        <ele>163.4</ele>
        <time>2017-01-29T07:41:04.000Z</time>
      </trkpt>
      <trkpt lat="44.53631" lon="0.62469">
        <ele>163.5</ele>
        <time>2017-01-29T07:41:05.000Z</time>
      </trkpt>
      <trkpt lat="44.53631" lon="0.62469">
        <ele>163.5</ele>
        <time>2017-01-29T07:41:06.000Z</time>
      </trkpt>
      <trkpt lat="44.53632" lon="0.62468">
        <ele>163.5</ele>
        <time>2017-01-29T07:41:07.000Z</time>
      </trkpt>
      <trkpt lat="44.53632" lon="0.62467">
        <ele>163.6</ele>
        <time>2017-01-29T07:41:08.000Z</time>
      </trkpt>
      <trkpt lat="44.53632" lon="0.62466">
        <ele>163.6</ele>
        <time>2017-01-29T07:41:09.000Z</time>
      </trkpt>
      <trkpt lat="44.53632" lon="0.62465">
        <ele>163.7</ele>
        <time>2017-01-29T07:41:10.000Z</time>
      </trkpt>
      <trkpt lat="44.53631" lon="0.62465">
        <ele>163.8</ele>
        <time>2017-01-29T07:41:11.000Z</time>
      </trkpt>
      <trkpt lat="44.53631" lon="0.62465">
        <ele>163.8</ele>
        <time>2017-01-29T07:41:12.000Z</time>
      </trkpt>
      <trkpt lat="44.5363" lon="0.62465">
        <ele>163.8</ele>
        <time>2017-01-29T07:41:13.000Z</time>
      </trkpt>
      <trkpt lat="44.5363" lon="0.62466">
        <ele>163.8</ele>
        <time>2017-01-29T07:41:14.000Z</time>
      </trkpt>
      <trkpt lat="44.53631" lon="0.62466">
        <ele>163.7</ele>
        <time>2017-01-29T07:41:15.000Z</time>
      </trkpt>
      <trkpt lat="44.53631" lon="0.62467">
        <ele>163.6</ele>
        <time>2017-01-29T07:41:16.000Z</time>
      </trkpt>
      <trkpt lat="44.53632" lon="0.62467">
        <ele>163.6</ele>
        <time>2017-01-29T07:41:17.000Z</time>
      </trkpt>
      <trkpt lat="44.53632" lon="0.62467">
        <ele>163.6</ele>
        <time>2017-01-29T07:41:18.000Z</time>
      </trkpt>
      <trkpt lat="44.53632" lon="0.62466">
        <ele>163.6</ele>
        <time>2017-01-29T07:41:19.000Z</time>
      </trkpt>
      <trkpt lat="44.53632" lon="0.62466">
        <ele>163.6</ele>
        <time>2017-01-29T07:41:20.000Z</time>
      </trkpt>
      <trkpt lat="44.53632" lon="0.62466">
        <ele>163.6</ele>
        <time>2017-01-29T07:41:21.000Z</time>
      </trkpt>
      <trkpt lat="44.53632" lon="0.62466">
        <ele>163.6</ele>
        <time>2017-01-29T07:41:22.000Z</time>
      </trkpt>
      <trkpt lat="44.53632" lon="0.62466">
        <ele>163.6</ele>
        <time>2017-01-29T07:41:23.000Z</time>
      </trkpt>
      <trkpt lat="44.53632" lon="0.62466">
        <ele>163.6</ele>
        <time>2017-01-29T07:41:24.000Z</time>
      </trkpt>
      <trkpt lat="44.53633" lon="0.62466">
        <ele>163.6</ele>
        <time>2017-01-29T07:41:25.000Z</time>
      </trkpt>
      <trkpt lat="44.53633" lon="0.62465">
        <ele>163.6</ele>
        <time>2017-01-29T07:41:26.000Z</time>
      </trkpt>
      <trkpt lat="44.53633" lon="0.62465">
        <ele>163.6</ele>
        <time>2017-01-29T07:41:27.000Z</time>
      </trkpt>
      <trkpt lat="44.53633" lon="0.62465">
        <ele>163.6</ele>
        <time>2017-01-29T07:41:28.000Z</time>
      </trkpt>
      <trkpt lat="44.53633" lon="0.62465">
        <ele>163.6</ele>
        <time>2017-01-29T07:41:29.000Z</time>
      </trkpt>
      <trkpt lat="44.53633" lon="0.62465">
        <ele>163.6</ele>
        <time>2017-01-29T07:41:30.000Z</time>
      </trkpt>
      <trkpt lat="44.53633" lon="0.62465">
        <ele>163.6</ele>
        <time>2017-01-29T07:41:31.000Z</time>
      </trkpt>
      <trkpt lat="44.53633" lon="0.62465">
        <ele>163.6</ele>
        <time>2017-01-29T07:41:32.000Z</time>
      </trkpt>
      <trkpt lat="44.53633" lon="0.62465">
        <ele>163.6</ele>
        <time>2017-01-29T07:41:33.000Z</time>
      </trkpt>
      <trkpt lat="44.53633" lon="0.62465">
        <ele>163.6</ele>
        <time>2017-01-29T07:41:34.000Z</time>
      </trkpt>
      <trkpt lat="44.53633" lon="0.62465">
        <ele>163.6</ele>
        <time>2017-01-29T07:41:35.000Z</time>
      </trkpt>
      <trkpt lat="44.53633" lon="0.62465">
        <ele>163.6</ele>
        <time>2017-01-29T07:41:36.000Z</time>
      </trkpt>
      <trkpt lat="44.53633" lon="0.62465">
        <ele>163.6</ele>
        <time>2017-01-29T07:41:37.000Z</time>
      </trkpt>
      <trkpt lat="44.53633" lon="0.62465">
        <ele>163.6</ele>
        <time>2017-01-29T07:41:38.000Z</time>
      </trkpt>
      <trkpt lat="44.53633" lon="0.62465">
        <ele>163.6</ele>
        <time>2017-01-29T07:41:39.000Z</time>
      </trkpt>
      <trkpt lat="44.53633" lon="0.62465">
        <ele>163.6</ele>
        <time>2017-01-29T07:41:40.000Z</time>
      </trkpt>
      <trkpt lat="44.53633" lon="0.62465">
        <ele>163.6</ele>
        <time>2017-01-29T07:41:41.000Z</time>
      </trkpt>
      <trkpt lat="44.53633" lon="0.62465">
        <ele>163.6</ele>
        <time>2017-01-29T07:41:42.000Z</time>
      </trkpt>
      <trkpt lat="44.53633" lon="0.62465">
        <ele>163.6</ele>
        <time>2017-01-29T07:41:43.000Z</time>
      </trkpt>
      <trkpt lat="44.53633" lon="0.62465">
        <ele>163.6</ele>
        <time>2017-01-29T07:41:44.000Z</time>
      </trkpt>
      <trkpt lat="44.53634" lon="0.62466">
        <ele>163.5</ele>
        <time>2017-01-29T07:41:45.000Z</time>
      </trkpt>
      <trkpt lat="44.53636" lon="0.62466">
        <ele>163.3</ele>
        <time>2017-01-29T07:41:46.000Z</time>
      </trkpt>
      <trkpt lat="44.53637" lon="0.62468">
        <ele>163</ele>
        <time>2017-01-29T07:41:47.000Z</time>
      </trkpt>
      <trkpt lat="44.53637" lon="0.6247">
        <ele>162.8</ele>
        <time>2017-01-29T07:41:48.000Z</time>
      </trkpt>
      <trkpt lat="44.53636" lon="0.62473">
        <ele>162.8</ele>
        <time>2017-01-29T07:41:49.000Z</time>
      </trkpt>
      <trkpt lat="44.53633" lon="0.62475">
        <ele>162.9</ele>
        <time>2017-01-29T07:41:50.000Z</time>
      </trkpt>
      <trkpt lat="44.53631" lon="0.62477">
        <ele>163</ele>
        <time>2017-01-29T07:41:51.000Z</time>
      </trkpt>
      <trkpt lat="44.53629" lon="0.62479">
        <ele>163.1</ele>
        <time>2017-01-29T07:41:52.000Z</time>
      </trkpt>
      <trkpt lat="44.53628" lon="0.6248">
        <ele>163</ele>
        <time>2017-01-29T07:41:53.000Z</time>
      </trkpt>
      <trkpt lat="44.53627" lon="0.62482">
        <ele>163</ele>
        <time>2017-01-29T07:41:54.000Z</time>
      </trkpt>
      <trkpt lat="44.53627" lon="0.62484">
        <ele>162.9</ele>
        <time>2017-01-29T07:41:55.000Z</time>
      </trkpt>
      <trkpt lat="44.53626" lon="0.62486">
        <ele>162.8</ele>
        <time>2017-01-29T07:41:56.000Z</time>
      </trkpt>
      <trkpt lat="44.53626" lon="0.62487">
        <ele>162.8</ele>
        <time>2017-01-29T07:41:57.000Z</time>
      </trkpt>
      <trkpt lat="44.53624" lon="0.62488">
        <ele>162.9</ele>
        <time>2017-01-29T07:41:58.000Z</time>
      </trkpt>
      <trkpt lat="44.53622" lon="0.62488">
        <ele>163</ele>
        <time>2017-01-29T07:41:59.000Z</time>
      </trkpt>
      <trkpt lat="44.53621" lon="0.62489">
        <ele>163.2</ele>
        <time>2017-01-29T07:42:00.000Z</time>
      </trkpt>
      <trkpt lat="44.53619" lon="0.62489">
        <ele>163.3</ele>
        <time>2017-01-29T07:42:01.000Z</time>
      </trkpt>
      <trkpt lat="44.53618" lon="0.6249">
        <ele>163.3</ele>
        <time>2017-01-29T07:42:02.000Z</time>
      </trkpt>
      <trkpt lat="44.53618" lon="0.62492">
        <ele>163.2</ele>
        <time>2017-01-29T07:42:03.000Z</time>
      </trkpt>
      <trkpt lat="44.53619" lon="0.62493">
        <ele>163</ele>
        <time>2017-01-29T07:42:04.000Z</time>
      </trkpt>
      <trkpt lat="44.53622" lon="0.62494">
        <ele>162.7</ele>
        <time>2017-01-29T07:42:05.000Z</time>
      </trkpt>
      <trkpt lat="44.53624" lon="0.62496">
        <ele>162.4</ele>
        <time>2017-01-29T07:42:06.000Z</time>
      </trkpt>
      <trkpt lat="44.53627" lon="0.62496">
        <ele>162</ele>
        <time>2017-01-29T07:42:07.000Z</time>
      </trkpt>
      <trkpt lat="44.5363" lon="0.62497">
        <ele>161.7</ele>
        <time>2017-01-29T07:42:08.000Z</time>
      </trkpt>
      <trkpt lat="44.53632" lon="0.62497">
        <ele>161.5</ele>
        <time>2017-01-29T07:42:09.000Z</time>
      </trkpt>
      <trkpt lat="44.53635" lon="0.62498">
        <ele>161.2</ele>
        <time>2017-01-29T07:42:10.000Z</time>
      </trkpt>
      <trkpt lat="44.53637" lon="0.62498">
        <ele>161</ele>
        <time>2017-01-29T07:42:11.000Z</time>
      </trkpt>
      <trkpt lat="44.5364" lon="0.62499">
        <ele>160.6</ele>
        <time>2017-01-29T07:42:12.000Z</time>
      </trkpt>
      <trkpt lat="44.53643" lon="0.62501">
        <ele>160.2</ele>
        <time>2017-01-29T07:42:13.000Z</time>
      </trkpt>
      <trkpt lat="44.53646" lon="0.62505">
        <ele>159.9</ele>
        <time>2017-01-29T07:42:14.000Z</time>
      </trkpt>
      <trkpt lat="44.53648" lon="0.62509">
        <ele>159.7</ele>
        <time>2017-01-29T07:42:15.000Z</time>
      </trkpt>
      <trkpt lat="44.53649" lon="0.62515">
        <ele>159.5</ele>
        <time>2017-01-29T07:42:16.000Z</time>
      </trkpt>
      <trkpt lat="44.53649" lon="0.62521">
        <ele>159.4</ele>
        <time>2017-01-29T07:42:17.000Z</time>
      </trkpt>
      <trkpt lat="44.53649" lon="0.62527">
        <ele>159.3</ele>
        <time>2017-01-29T07:42:18.000Z</time>
      </trkpt>
      <trkpt lat="44.53648" lon="0.62533">
        <ele>159.2</ele>
        <time>2017-01-29T07:42:19.000Z</time>
      </trkpt>
      <trkpt lat="44.53648" lon="0.62539">
        <ele>159.2</ele>
        <time>2017-01-29T07:42:20.000Z</time>
      </trkpt>
      <trkpt lat="44.53647" lon="0.62545">
        <ele>159.1</ele>
        <time>2017-01-29T07:42:21.000Z</time>
      </trkpt>
      <trkpt lat="44.53647" lon="0.6255">
        <ele>159</ele>
        <time>2017-01-29T07:42:22.000Z</time>
      </trkpt>
      <trkpt lat="44.53647" lon="0.62556">
        <ele>158.9</ele>
        <time>2017-01-29T07:42:23.000Z</time>
      </trkpt>
      <trkpt lat="44.53648" lon="0.62561">
        <ele>158.7</ele>
        <time>2017-01-29T07:42:24.000Z</time>
      </trkpt>
      <trkpt lat="44.5365" lon="0.62565">
        <ele>158.5</ele>
        <time>2017-01-29T07:42:25.000Z</time>
      </trkpt>
      <trkpt lat="44.53651" lon="0.62569">
        <ele>158.4</ele>
        <time>2017-01-29T07:42:26.000Z</time>
      </trkpt>
      <trkpt lat="44.53652" lon="0.62571">
        <ele>158.2</ele>
        <time>2017-01-29T07:42:27.000Z</time>
      </trkpt>
      <trkpt lat="44.53653" lon="0.62572">
        <ele>158.1</ele>
        <time>2017-01-29T07:42:28.000Z</time>
      </trkpt>
      <trkpt lat="44.53655" lon="0.62572">
        <ele>158</ele>
        <time>2017-01-29T07:42:29.000Z</time>
      </trkpt>
      <trkpt lat="44.53657" lon="0.62573">
        <ele>157.9</ele>
        <time>2017-01-29T07:42:30.000Z</time>
      </trkpt>
      <trkpt lat="44.53659" lon="0.62573">
        <ele>157.7</ele>
        <time>2017-01-29T07:42:31.000Z</time>
      </trkpt>
      <trkpt lat="44.53662" lon="0.62574">
        <ele>157.5</ele>
        <time>2017-01-29T07:42:32.000Z</time>
      </trkpt>
      <trkpt lat="44.53666" lon="0.62576">
        <ele>157.2</ele>
        <time>2017-01-29T07:42:33.000Z</time>
      </trkpt>
      <trkpt lat="44.53669" lon="0.6258">
        <ele>156.8</ele>
        <time>2017-01-29T07:42:34.000Z</time>
      </trkpt>
      <trkpt lat="44.53673" lon="0.62585">
        <ele>156.4</ele>
        <time>2017-01-29T07:42:35.000Z</time>
      </trkpt>
      <trkpt lat="44.53677" lon="0.62591">
        <ele>156.1</ele>
        <time>2017-01-29T07:42:36.000Z</time>
      </trkpt>
      <trkpt lat="44.53681" lon="0.62598">
        <ele>155.8</ele>
        <time>2017-01-29T07:42:37.000Z</time>
      </trkpt>
      <trkpt lat="44.53684" lon="0.62605">
        <ele>155.5</ele>
        <time>2017-01-29T07:42:38.000Z</time>
      </trkpt>
      <trkpt lat="44.53688" lon="0.62612">
        <ele>155.2</ele>
        <time>2017-01-29T07:42:39.000Z</time>
      </trkpt>
      <trkpt lat="44.53691" lon="0.62619">
        <ele>154.9</ele>
        <time>2017-01-29T07:42:40.000Z</time>
      </trkpt>
      <trkpt lat="44.53695" lon="0.62625">
        <ele>154.6</ele>
        <time>2017-01-29T07:42:41.000Z</time>
      </trkpt>
      <trkpt lat="44.537" lon="0.6263">
        <ele>154.2</ele>
        <time>2017-01-29T07:42:42.000Z</time>
      </trkpt>
      <trkpt lat="44.53705" lon="0.62633">
        <ele>153.8</ele>
        <time>2017-01-29T07:42:43.000Z</time>
      </trkpt>
      <trkpt lat="44.5371" lon="0.62636">
        <ele>153.4</ele>
        <time>2017-01-29T07:42:44.000Z</time>
      </trkpt>
      <trkpt lat="44.53715" lon="0.62638">
        <ele>152.9</ele>
        <time>2017-01-29T07:42:45.000Z</time>
      </trkpt>
      <trkpt lat="44.53721" lon="0.62639">
        <ele>152.4</ele>
        <time>2017-01-29T07:42:46.000Z</time>
      </trkpt>
      <trkpt lat="44.53727" lon="0.6264">
        <ele>151.9</ele>
        <time>2017-01-29T07:42:47.000Z</time>
      </trkpt>
      <trkpt lat="44.53733" lon="0.62642">
        <ele>151.4</ele>
        <time>2017-01-29T07:42:48.000Z</time>
      </trkpt>
      <trkpt lat="44.5374" lon="0.62643">
        <ele>150.9</ele>
        <time>2017-01-29T07:42:49.000Z</time>
      </trkpt>
      <trkpt lat="44.53746" lon="0.62643">
        <ele>150.3</ele>
        <time>2017-01-29T07:42:50.000Z</time>
      </trkpt>
      <trkpt lat="44.53752" lon="0.62644">
        <ele>149.8</ele>
        <time>2017-01-29T07:42:51.000Z</time>
      </trkpt>
      <trkpt lat="44.53759" lon="0.62645">
        <ele>149.4</ele>
        <time>2017-01-29T07:42:52.000Z</time>
      </trkpt>
      <trkpt lat="44.53765" lon="0.62645">
        <ele>149</ele>
        <time>2017-01-29T07:42:53.000Z</time>
      </trkpt>
      <trkpt lat="44.53771" lon="0.62646">
        <ele>148.6</ele>
        <time>2017-01-29T07:42:54.000Z</time>
      </trkpt>
      <trkpt lat="44.53776" lon="0.62646">
        <ele>148.3</ele>
        <time>2017-01-29T07:42:55.000Z</time>
      </trkpt>
      <trkpt lat="44.53781" lon="0.62646">
        <ele>148</ele>
        <time>2017-01-29T07:42:56.000Z</time>
      </trkpt>
      <trkpt lat="44.53785" lon="0.62645">
        <ele>147.7</ele>
        <time>2017-01-29T07:42:57.000Z</time>
      </trkpt>
      <trkpt lat="44.53789" lon="0.62644">
        <ele>147.4</ele>
        <time>2017-01-29T07:42:58.000Z</time>
      </trkpt>
      <trkpt lat="44.53794" lon="0.62643">
        <ele>147.1</ele>
        <time>2017-01-29T07:42:59.000Z</time>
      </trkpt>
      <trkpt lat="44.538" lon="0.62641">
        <ele>146.8</ele>
        <time>2017-01-29T07:43:00.000Z</time>
      </trkpt>
      <trkpt lat="44.53806" lon="0.6264">
        <ele>146.4</ele>
        <time>2017-01-29T07:43:01.000Z</time>
      </trkpt>
      <trkpt lat="44.53812" lon="0.62639">
        <ele>146</ele>
        <time>2017-01-29T07:43:02.000Z</time>
      </trkpt>
      <trkpt lat="44.53819" lon="0.62637">
        <ele>145.6</ele>
        <time>2017-01-29T07:43:03.000Z</time>
      </trkpt>
      <trkpt lat="44.53825" lon="0.62636">
        <ele>145.2</ele>
        <time>2017-01-29T07:43:04.000Z</time>
      </trkpt>
      <trkpt lat="44.53832" lon="0.62635">
        <ele>144.8</ele>
        <time>2017-01-29T07:43:05.000Z</time>
      </trkpt>
      <trkpt lat="44.53839" lon="0.62634">
        <ele>144.4</ele>
        <time>2017-01-29T07:43:06.000Z</time>
      </trkpt>
      <trkpt lat="44.53846" lon="0.62632">
        <ele>144</ele>
        <time>2017-01-29T07:43:07.000Z</time>
      </trkpt>
      <trkpt lat="44.53853" lon="0.62631">
        <ele>143.6</ele>
        <time>2017-01-29T07:43:08.000Z</time>
      </trkpt>
      <trkpt lat="44.5386" lon="0.6263">
        <ele>143.3</ele>
        <time>2017-01-29T07:43:09.000Z</time>
      </trkpt>
      <trkpt lat="44.53867" lon="0.62628">
        <ele>142.9</ele>
        <time>2017-01-29T07:43:10.000Z</time>
      </trkpt>
      <trkpt lat="44.53874" lon="0.62627">
        <ele>142.5</ele>
        <time>2017-01-29T07:43:11.000Z</time>
      </trkpt>
      <trkpt lat="44.53881" lon="0.62626">
        <ele>142.1</ele>
        <time>2017-01-29T07:43:12.000Z</time>
      </trkpt>
      <trkpt lat="44.53888" lon="0.62624">
        <ele>141.7</ele>
        <time>2017-01-29T07:43:13.000Z</time>
      </trkpt>
      <trkpt lat="44.53895" lon="0.62623">
        <ele>141.4</ele>
        <time>2017-01-29T07:43:14.000Z</time>
      </trkpt>
      <trkpt lat="44.53902" lon="0.62622">
        <ele>141.1</ele>
        <time>2017-01-29T07:43:15.000Z</time>
      </trkpt>
      <trkpt lat="44.53908" lon="0.6262">
        <ele>140.7</ele>
        <time>2017-01-29T07:43:16.000Z</time>
      </trkpt>
      <trkpt lat="44.53915" lon="0.62619">
        <ele>140.4</ele>
        <time>2017-01-29T07:43:17.000Z</time>
      </trkpt>
      <trkpt lat="44.53922" lon="0.62618">
        <ele>140.3</ele>
        <time>2017-01-29T07:43:18.000Z</time>
      </trkpt>
      <trkpt lat="44.53928" lon="0.62617">
        <ele>140.4</ele>
        <time>2017-01-29T07:43:19.000Z</time>
      </trkpt>
      <trkpt lat="44.53934" lon="0.62616">
        <ele>140.5</ele>
        <time>2017-01-29T07:43:20.000Z</time>
      </trkpt>
      <trkpt lat="44.53941" lon="0.62615">
        <ele>140.5</ele>
        <time>2017-01-29T07:43:21.000Z</time>
      </trkpt>
      <trkpt lat="44.53947" lon="0.62613">
        <ele>140.6</ele>
        <time>2017-01-29T07:43:22.000Z</time>
      </trkpt>
      <trkpt lat="44.53954" lon="0.62612">
        <ele>140.6</ele>
        <time>2017-01-29T07:43:23.000Z</time>
      </trkpt>
      <trkpt lat="44.5396" lon="0.62611">
        <ele>140.7</ele>
        <time>2017-01-29T07:43:24.000Z</time>
      </trkpt>
      <trkpt lat="44.53966" lon="0.6261">
        <ele>140.7</ele>
        <time>2017-01-29T07:43:25.000Z</time>
      </trkpt>
      <trkpt lat="44.53973" lon="0.62609">
        <ele>140.8</ele>
        <time>2017-01-29T07:43:26.000Z</time>
      </trkpt>
      <trkpt lat="44.53979" lon="0.62608">
        <ele>140.8</ele>
        <time>2017-01-29T07:43:27.000Z</time>
      </trkpt>
      <trkpt lat="44.53985" lon="0.62606">
        <ele>140.9</ele>
        <time>2017-01-29T07:43:28.000Z</time>
      </trkpt>
      <trkpt lat="44.53989" lon="0.62606">
        <ele>140.9</ele>
        <time>2017-01-29T07:43:29.000Z</time>
      </trkpt>
      <trkpt lat="44.53991" lon="0.62605">
        <ele>141</ele>
        <time>2017-01-29T07:43:30.000Z</time>
      </trkpt>
      <trkpt lat="44.53993" lon="0.62606">
        <ele>140.9</ele>
        <time>2017-01-29T07:43:31.000Z</time>
      </trkpt>
      <trkpt lat="44.53995" lon="0.62607">
        <ele>140.9</ele>
        <time>2017-01-29T07:43:32.000Z</time>
      </trkpt>
      <trkpt lat="44.53997" lon="0.62608">
        <ele>140.8</ele>
        <time>2017-01-29T07:43:33.000Z</time>
      </trkpt>
      <trkpt lat="44.53998" lon="0.6261">
        <ele>140.7</ele>
        <time>2017-01-29T07:43:34.000Z</time>
      </trkpt>
      <trkpt lat="44.54" lon="0.62611">
        <ele>140.7</ele>
        <time>2017-01-29T07:43:35.000Z</time>
      </trkpt>
      <trkpt lat="44.54001" lon="0.62613">
        <ele>140.6</ele>
        <time>2017-01-29T07:43:36.000Z</time>
      </trkpt>
      <trkpt lat="44.54003" lon="0.62615">
        <ele>140.5</ele>
        <time>2017-01-29T07:43:37.000Z</time>
      </trkpt>
      <trkpt lat="44.54004" lon="0.62617">
        <ele>140.4</ele>
        <time>2017-01-29T07:43:38.000Z</time>
      </trkpt>
      <trkpt lat="44.54006" lon="0.62621">
        <ele>140.2</ele>
        <time>2017-01-29T07:43:39.000Z</time>
      </trkpt>
      <trkpt lat="44.54007" lon="0.62625">
        <ele>140</ele>
        <time>2017-01-29T07:43:40.000Z</time>
      </trkpt>
      <trkpt lat="44.54008" lon="0.62629">
        <ele>139.8</ele>
        <time>2017-01-29T07:43:41.000Z</time>
      </trkpt>
      <trkpt lat="44.54009" lon="0.62634">
        <ele>139.5</ele>
        <time>2017-01-29T07:43:42.000Z</time>
      </trkpt>
      <trkpt lat="44.5401" lon="0.62639">
        <ele>139.3</ele>
        <time>2017-01-29T07:43:43.000Z</time>
      </trkpt>
      <trkpt lat="44.5401" lon="0.62645">
        <ele>139</ele>
        <time>2017-01-29T07:43:44.000Z</time>
      </trkpt>
      <trkpt lat="44.5401" lon="0.6265">
        <ele>138.7</ele>
        <time>2017-01-29T07:43:45.000Z</time>
      </trkpt>
      <trkpt lat="44.5401" lon="0.62656">
        <ele>138.4</ele>
        <time>2017-01-29T07:43:46.000Z</time>
      </trkpt>
      <trkpt lat="44.5401" lon="0.62662">
        <ele>138.1</ele>
        <time>2017-01-29T07:43:47.000Z</time>
      </trkpt>
      <trkpt lat="44.5401" lon="0.62667">
        <ele>137.9</ele>
        <time>2017-01-29T07:43:48.000Z</time>
      </trkpt>
      <trkpt lat="44.5401" lon="0.62673">
        <ele>137.8</ele>
        <time>2017-01-29T07:43:49.000Z</time>
      </trkpt>
      <trkpt lat="44.54011" lon="0.62679">
        <ele>137.7</ele>
        <time>2017-01-29T07:43:50.000Z</time>
      </trkpt>
      <trkpt lat="44.54012" lon="0.62684">
        <ele>137.6</ele>
        <time>2017-01-29T07:43:51.000Z</time>
      </trkpt>
      <trkpt lat="44.54014" lon="0.62689">
        <ele>137.5</ele>
        <time>2017-01-29T07:43:52.000Z</time>
      </trkpt>
      <trkpt lat="44.54016" lon="0.62694">
        <ele>137.4</ele>
        <time>2017-01-29T07:43:53.000Z</time>
      </trkpt>
      <trkpt lat="44.54018" lon="0.627">
        <ele>137.3</ele>
        <time>2017-01-29T07:43:54.000Z</time>
      </trkpt>
      <trkpt lat="44.54019" lon="0.62705">
        <ele>137.2</ele>
        <time>2017-01-29T07:43:55.000Z</time>
      </trkpt>
      <trkpt lat="44.54021" lon="0.6271">
        <ele>137.1</ele>
        <time>2017-01-29T07:43:56.000Z</time>
      </trkpt>
      <trkpt lat="44.54023" lon="0.62715">
        <ele>137</ele>
        <time>2017-01-29T07:43:57.000Z</time>
      </trkpt>
      <trkpt lat="44.54026" lon="0.62719">
        <ele>136.9</ele>
        <time>2017-01-29T07:43:58.000Z</time>
      </trkpt>
      <trkpt lat="44.54028" lon="0.62722">
        <ele>136.8</ele>
        <time>2017-01-29T07:43:59.000Z</time>
      </trkpt>
      <trkpt lat="44.54032" lon="0.62723">
        <ele>136.7</ele>
        <time>2017-01-29T07:44:00.000Z</time>
      </trkpt>
      <trkpt lat="44.54036" lon="0.62724">
        <ele>136.6</ele>
        <time>2017-01-29T07:44:01.000Z</time>
      </trkpt>
      <trkpt lat="44.5404" lon="0.62724">
        <ele>136.5</ele>
        <time>2017-01-29T07:44:02.000Z</time>
      </trkpt>
      <trkpt lat="44.54043" lon="0.62725">
        <ele>136.4</ele>
        <time>2017-01-29T07:44:03.000Z</time>
      </trkpt>
      <trkpt lat="44.54047" lon="0.62725">
        <ele>136.3</ele>
        <time>2017-01-29T07:44:04.000Z</time>
      </trkpt>
      <trkpt lat="44.54051" lon="0.62725">
        <ele>136.3</ele>
        <time>2017-01-29T07:44:05.000Z</time>
      </trkpt>
      <trkpt lat="44.54054" lon="0.62726">
        <ele>136.2</ele>
        <time>2017-01-29T07:44:06.000Z</time>
      </trkpt>
      <trkpt lat="44.54058" lon="0.62726">
        <ele>136.1</ele>
        <time>2017-01-29T07:44:07.000Z</time>
      </trkpt>
      <trkpt lat="44.54062" lon="0.62726">
        <ele>136</ele>
        <time>2017-01-29T07:44:08.000Z</time>
      </trkpt>
      <trkpt lat="44.54065" lon="0.62726">
        <ele>135.9</ele>
        <time>2017-01-29T07:44:09.000Z</time>
      </trkpt>
      <trkpt lat="44.54069" lon="0.62726">
        <ele>135.9</ele>
        <time>2017-01-29T07:44:10.000Z</time>
      </trkpt>
      <trkpt lat="44.54073" lon="0.62727">
        <ele>135.8</ele>
        <time>2017-01-29T07:44:11.000Z</time>
      </trkpt>
      <trkpt lat="44.54078" lon="0.62728">
        <ele>135.7</ele>
        <time>2017-01-29T07:44:12.000Z</time>
      </trkpt>
      <trkpt lat="44.54082" lon="0.62729">
        <ele>135.5</ele>
        <time>2017-01-29T07:44:13.000Z</time>
      </trkpt>
      <trkpt lat="44.54087" lon="0.6273">
        <ele>135.6</ele>
        <time>2017-01-29T07:44:14.000Z</time>
      </trkpt>
      <trkpt lat="44.54093" lon="0.6273">
        <ele>135.7</ele>
        <time>2017-01-29T07:44:15.000Z</time>
      </trkpt>
      <trkpt lat="44.54098" lon="0.62731">
        <ele>135.8</ele>
        <time>2017-01-29T07:44:16.000Z</time>
      </trkpt>
      <trkpt lat="44.54102" lon="0.6273">
        <ele>136</ele>
        <time>2017-01-29T07:44:17.000Z</time>
      </trkpt>
      <trkpt lat="44.54107" lon="0.62728">
        <ele>136.2</ele>
        <time>2017-01-29T07:44:18.000Z</time>
      </trkpt>
      <trkpt lat="44.54111" lon="0.62726">
        <ele>136.4</ele>
        <time>2017-01-29T07:44:19.000Z</time>
      </trkpt>
      <trkpt lat="44.54115" lon="0.62723">
        <ele>136.5</ele>
        <time>2017-01-29T07:44:20.000Z</time>
      </trkpt>
      <trkpt lat="44.54119" lon="0.6272">
        <ele>136.7</ele>
        <time>2017-01-29T07:44:21.000Z</time>
      </trkpt>
      <trkpt lat="44.54123" lon="0.62717">
        <ele>136.9</ele>
        <time>2017-01-29T07:44:22.000Z</time>
      </trkpt>
      <trkpt lat="44.54127" lon="0.62714">
        <ele>137.1</ele>
        <time>2017-01-29T07:44:23.000Z</time>
      </trkpt>
      <trkpt lat="44.5413" lon="0.62711">
        <ele>137.3</ele>
        <time>2017-01-29T07:44:24.000Z</time>
      </trkpt>
      <trkpt lat="44.54134" lon="0.62708">
        <ele>137.5</ele>
        <time>2017-01-29T07:44:25.000Z</time>
      </trkpt>
      <trkpt lat="44.54137" lon="0.62705">
        <ele>137.7</ele>
        <time>2017-01-29T07:44:26.000Z</time>
      </trkpt>
      <trkpt lat="44.5414" lon="0.62702">
        <ele>137.9</ele>
        <time>2017-01-29T07:44:27.000Z</time>
      </trkpt>
      <trkpt lat="44.54142" lon="0.62699">
        <ele>138.1</ele>
        <time>2017-01-29T07:44:28.000Z</time>
      </trkpt>
      <trkpt lat="44.54145" lon="0.62697">
        <ele>138.2</ele>
        <time>2017-01-29T07:44:29.000Z</time>
      </trkpt>
      <trkpt lat="44.54147" lon="0.62695">
        <ele>138.4</ele>
        <time>2017-01-29T07:44:30.000Z</time>
      </trkpt>
      <trkpt lat="44.5415" lon="0.62693">
        <ele>138.5</ele>
        <time>2017-01-29T07:44:31.000Z</time>
      </trkpt>
      <trkpt lat="44.54152" lon="0.62691">
        <ele>138.6</ele>
        <time>2017-01-29T07:44:32.000Z</time>
      </trkpt>
      <trkpt lat="44.54154" lon="0.6269">
        <ele>138.8</ele>
        <time>2017-01-29T07:44:33.000Z</time>
      </trkpt>
      <trkpt lat="44.54156" lon="0.62688">
        <ele>138.9</ele>
        <time>2017-01-29T07:44:34.000Z</time>
      </trkpt>
      <trkpt lat="44.54158" lon="0.62686">
        <ele>139</ele>
        <time>2017-01-29T07:44:35.000Z</time>
      </trkpt>
      <trkpt lat="44.54161" lon="0.62684">
        <ele>139.2</ele>
        <time>2017-01-29T07:44:36.000Z</time>
      </trkpt>
      <trkpt lat="44.54163" lon="0.62684">
        <ele>139.3</ele>
        <time>2017-01-29T07:44:37.000Z</time>
      </trkpt>
      <trkpt lat="44.54165" lon="0.62685">
        <ele>139.3</ele>
        <time>2017-01-29T07:44:38.000Z</time>
      </trkpt>
      <trkpt lat="44.54166" lon="0.62686">
        <ele>139.3</ele>
        <time>2017-01-29T07:44:39.000Z</time>
      </trkpt>
      <trkpt lat="44.54168" lon="0.62689">
        <ele>139.3</ele>
        <time>2017-01-29T07:44:40.000Z</time>
      </trkpt>
      <trkpt lat="44.54168" lon="0.62691">
        <ele>139.2</ele>
        <time>2017-01-29T07:44:41.000Z</time>
      </trkpt>
      <trkpt lat="44.54169" lon="0.62694">
        <ele>139.2</ele>
        <time>2017-01-29T07:44:42.000Z</time>
      </trkpt>
      <trkpt lat="44.5417" lon="0.62697">
        <ele>139.1</ele>
        <time>2017-01-29T07:44:43.000Z</time>
      </trkpt>
      <trkpt lat="44.54171" lon="0.627">
        <ele>139.1</ele>
        <time>2017-01-29T07:44:44.000Z</time>
      </trkpt>
      <trkpt lat="44.54172" lon="0.62702">
        <ele>139</ele>
        <time>2017-01-29T07:44:45.000Z</time>
      </trkpt>
      <trkpt lat="44.54173" lon="0.62705">
        <ele>139</ele>
        <time>2017-01-29T07:44:46.000Z</time>
      </trkpt>
      <trkpt lat="44.54173" lon="0.62708">
        <ele>139</ele>
        <time>2017-01-29T07:44:47.000Z</time>
      </trkpt>
      <trkpt lat="44.54174" lon="0.62711">
        <ele>138.9</ele>
        <time>2017-01-29T07:44:48.000Z</time>
      </trkpt>
      <trkpt lat="44.54175" lon="0.62714">
        <ele>138.9</ele>
        <time>2017-01-29T07:44:49.000Z</time>
      </trkpt>
      <trkpt lat="44.54176" lon="0.62717">
        <ele>138.8</ele>
        <time>2017-01-29T07:44:50.000Z</time>
      </trkpt>
      <trkpt lat="44.54177" lon="0.6272">
        <ele>138.8</ele>
        <time>2017-01-29T07:44:51.000Z</time>
      </trkpt>
      <trkpt lat="44.54178" lon="0.62724">
        <ele>138.7</ele>
        <time>2017-01-29T07:44:52.000Z</time>
      </trkpt>
      <trkpt lat="44.54179" lon="0.62727">
        <ele>138.7</ele>
        <time>2017-01-29T07:44:53.000Z</time>
      </trkpt>
      <trkpt lat="44.5418" lon="0.6273">
        <ele>138.6</ele>
        <time>2017-01-29T07:44:54.000Z</time>
      </trkpt>
      <trkpt lat="44.54181" lon="0.62734">
        <ele>138.6</ele>
        <time>2017-01-29T07:44:55.000Z</time>
      </trkpt>
      <trkpt lat="44.54182" lon="0.62737">
        <ele>138.6</ele>
        <time>2017-01-29T07:44:56.000Z</time>
      </trkpt>
      <trkpt lat="44.54184" lon="0.62741">
        <ele>138.5</ele>
        <time>2017-01-29T07:44:57.000Z</time>
      </trkpt>
      <trkpt lat="44.54185" lon="0.62744">
        <ele>138.5</ele>
        <time>2017-01-29T07:44:58.000Z</time>
      </trkpt>
      <trkpt lat="44.54186" lon="0.62748">
        <ele>138.5</ele>
        <time>2017-01-29T07:44:59.000Z</time>
      </trkpt>
      <trkpt lat="44.54187" lon="0.62751">
        <ele>138.5</ele>
        <time>2017-01-29T07:45:00.000Z</time>
      </trkpt>
      <trkpt lat="44.54189" lon="0.62754">
        <ele>138.5</ele>
        <time>2017-01-29T07:45:01.000Z</time>
      </trkpt>
      <trkpt lat="44.54191" lon="0.62758">
        <ele>138.5</ele>
        <time>2017-01-29T07:45:02.000Z</time>
      </trkpt>
      <trkpt lat="44.54192" lon="0.62761">
        <ele>138.5</ele>
        <time>2017-01-29T07:45:03.000Z</time>
      </trkpt>
      <trkpt lat="44.54194" lon="0.62765">
        <ele>138.6</ele>
        <time>2017-01-29T07:45:04.000Z</time>
      </trkpt>
      <trkpt lat="44.54196" lon="0.62768">
        <ele>138.6</ele>
        <time>2017-01-29T07:45:05.000Z</time>
      </trkpt>
      <trkpt lat="44.54199" lon="0.62772">
        <ele>138.7</ele>
        <time>2017-01-29T07:45:06.000Z</time>
      </trkpt>
      <trkpt lat="44.54201" lon="0.62775">
        <ele>138.7</ele>
        <time>2017-01-29T07:45:07.000Z</time>
      </trkpt>
      <trkpt lat="44.54203" lon="0.62778">
        <ele>138.8</ele>
        <time>2017-01-29T07:45:08.000Z</time>
      </trkpt>
      <trkpt lat="44.54206" lon="0.62782">
        <ele>138.9</ele>
        <time>2017-01-29T07:45:09.000Z</time>
      </trkpt>
      <trkpt lat="44.54208" lon="0.62785">
        <ele>138.9</ele>
        <time>2017-01-29T07:45:10.000Z</time>
      </trkpt>
      <trkpt lat="44.54211" lon="0.62787">
        <ele>139</ele>
        <time>2017-01-29T07:45:11.000Z</time>
      </trkpt>
      <trkpt lat="44.54213" lon="0.6279">
        <ele>139.1</ele>
        <time>2017-01-29T07:45:12.000Z</time>
      </trkpt>
      <trkpt lat="44.54216" lon="0.62793">
        <ele>139.2</ele>
        <time>2017-01-29T07:45:13.000Z</time>
      </trkpt>
      <trkpt lat="44.54219" lon="0.62795">
        <ele>139.3</ele>
        <time>2017-01-29T07:45:14.000Z</time>
      </trkpt>
      <trkpt lat="44.54222" lon="0.62798">
        <ele>139.5</ele>
        <time>2017-01-29T07:45:15.000Z</time>
      </trkpt>
      <trkpt lat="44.54225" lon="0.628">
        <ele>139.6</ele>
        <time>2017-01-29T07:45:16.000Z</time>
      </trkpt>
      <trkpt lat="44.54228" lon="0.62802">
        <ele>139.7</ele>
        <time>2017-01-29T07:45:17.000Z</time>
      </trkpt>
      <trkpt lat="44.54231" lon="0.62805">
        <ele>139.8</ele>
        <time>2017-01-29T07:45:18.000Z</time>
      </trkpt>
      <trkpt lat="44.54234" lon="0.62807">
        <ele>139.9</ele>
        <time>2017-01-29T07:45:19.000Z</time>
      </trkpt>
      <trkpt lat="44.54237" lon="0.6281">
        <ele>140</ele>
        <time>2017-01-29T07:45:20.000Z</time>
      </trkpt>
      <trkpt lat="44.5424" lon="0.62812">
        <ele>140.1</ele>
        <time>2017-01-29T07:45:21.000Z</time>
      </trkpt>
      <trkpt lat="44.54243" lon="0.62814">
        <ele>140.2</ele>
        <time>2017-01-29T07:45:22.000Z</time>
      </trkpt>
      <trkpt lat="44.54245" lon="0.62816">
        <ele>140.3</ele>
        <time>2017-01-29T07:45:23.000Z</time>
      </trkpt>
      <trkpt lat="44.54248" lon="0.62819">
        <ele>140.4</ele>
        <time>2017-01-29T07:45:24.000Z</time>
      </trkpt>
      <trkpt lat="44.54251" lon="0.62821">
        <ele>140.5</ele>
        <time>2017-01-29T07:45:25.000Z</time>
      </trkpt>
      <trkpt lat="44.54253" lon="0.62823">
        <ele>140.6</ele>
        <time>2017-01-29T07:45:26.000Z</time>
      </trkpt>
      <trkpt lat="44.54256" lon="0.62825">
        <ele>140.7</ele>
        <time>2017-01-29T07:45:27.000Z</time>
      </trkpt>
      <trkpt lat="44.54258" lon="0.62826">
        <ele>140.7</ele>
        <time>2017-01-29T07:45:28.000Z</time>
      </trkpt>
      <trkpt lat="44.54261" lon="0.62828">
        <ele>140.8</ele>
        <time>2017-01-29T07:45:29.000Z</time>
      </trkpt>
      <trkpt lat="44.54263" lon="0.6283">
        <ele>140.9</ele>
        <time>2017-01-29T07:45:30.000Z</time>
      </trkpt>
      <trkpt lat="44.54265" lon="0.62832">
        <ele>141</ele>
        <time>2017-01-29T07:45:31.000Z</time>
      </trkpt>
      <trkpt lat="44.54268" lon="0.62833">
        <ele>141.1</ele>
        <time>2017-01-29T07:45:32.000Z</time>
      </trkpt>
      <trkpt lat="44.5427" lon="0.62835">
        <ele>141.1</ele>
        <time>2017-01-29T07:45:33.000Z</time>
      </trkpt>
      <trkpt lat="44.54272" lon="0.62837">
        <ele>141.2</ele>
        <time>2017-01-29T07:45:34.000Z</time>
      </trkpt>
      <trkpt lat="44.54274" lon="0.62839">
        <ele>141.2</ele>
        <time>2017-01-29T07:45:35.000Z</time>
      </trkpt>
      <trkpt lat="44.54277" lon="0.6284">
        <ele>141.3</ele>
        <time>2017-01-29T07:45:36.000Z</time>
      </trkpt>
      <trkpt lat="44.54279" lon="0.62842">
        <ele>141.3</ele>
        <time>2017-01-29T07:45:37.000Z</time>
      </trkpt>
      <trkpt lat="44.54281" lon="0.62844">
        <ele>141.4</ele>
        <time>2017-01-29T07:45:38.000Z</time>
      </trkpt>
      <trkpt lat="44.54283" lon="0.62845">
        <ele>141.4</ele>
        <time>2017-01-29T07:45:39.000Z</time>
      </trkpt>
      <trkpt lat="44.54285" lon="0.62847">
        <ele>141.5</ele>
        <time>2017-01-29T07:45:40.000Z</time>
      </trkpt>
      <trkpt lat="44.54287" lon="0.62849">
        <ele>141.5</ele>
        <time>2017-01-29T07:45:41.000Z</time>
      </trkpt>
      <trkpt lat="44.5429" lon="0.6285">
        <ele>141.6</ele>
        <time>2017-01-29T07:45:42.000Z</time>
      </trkpt>
      <trkpt lat="44.54292" lon="0.62852">
        <ele>141.6</ele>
        <time>2017-01-29T07:45:43.000Z</time>
      </trkpt>
      <trkpt lat="44.54294" lon="0.62854">
        <ele>141.6</ele>
        <time>2017-01-29T07:45:44.000Z</time>
      </trkpt>
      <trkpt lat="44.54296" lon="0.62856">
        <ele>141.7</ele>
        <time>2017-01-29T07:45:45.000Z</time>
      </trkpt>
      <trkpt lat="44.54298" lon="0.62857">
        <ele>141.7</ele>
        <time>2017-01-29T07:45:46.000Z</time>
      </trkpt>
      <trkpt lat="44.543" lon="0.62859">
        <ele>141.7</ele>
        <time>2017-01-29T07:45:47.000Z</time>
      </trkpt>
      <trkpt lat="44.54302" lon="0.62861">
        <ele>141.7</ele>
        <time>2017-01-29T07:45:48.000Z</time>
      </trkpt>
      <trkpt lat="44.54305" lon="0.62863">
        <ele>141.7</ele>
        <time>2017-01-29T07:45:49.000Z</time>
      </trkpt>
      <trkpt lat="44.54307" lon="0.62865">
        <ele>141.8</ele>
        <time>2017-01-29T07:45:50.000Z</time>
      </trkpt>
      <trkpt lat="44.54309" lon="0.62867">
        <ele>141.8</ele>
        <time>2017-01-29T07:45:51.000Z</time>
      </trkpt>
      <trkpt lat="44.54312" lon="0.62869">
        <ele>141.8</ele>
        <time>2017-01-29T07:45:52.000Z</time>
      </trkpt>
      <trkpt lat="44.54314" lon="0.62872">
        <ele>141.8</ele>
        <time>2017-01-29T07:45:53.000Z</time>
      </trkpt>
      <trkpt lat="44.54317" lon="0.62874">
        <ele>141.7</ele>
        <time>2017-01-29T07:45:54.000Z</time>
      </trkpt>
      <trkpt lat="44.5432" lon="0.62877">
        <ele>141.7</ele>
        <time>2017-01-29T07:45:55.000Z</time>
      </trkpt>
      <trkpt lat="44.54322" lon="0.6288">
        <ele>141.7</ele>
        <time>2017-01-29T07:45:56.000Z</time>
      </trkpt>
      <trkpt lat="44.54325" lon="0.62883">
        <ele>141.7</ele>
        <time>2017-01-29T07:45:57.000Z</time>
      </trkpt>
      <trkpt lat="44.54328" lon="0.62885">
        <ele>141.6</ele>
        <time>2017-01-29T07:45:58.000Z</time>
      </trkpt>
      <trkpt lat="44.54331" lon="0.62888">
        <ele>141.6</ele>
        <time>2017-01-29T07:45:59.000Z</time>
      </trkpt>
      <trkpt lat="44.54333" lon="0.62891">
        <ele>141.5</ele>
        <time>2017-01-29T07:46:00.000Z</time>
      </trkpt>
      <trkpt lat="44.54336" lon="0.62894">
        <ele>141.3</ele>
        <time>2017-01-29T07:46:01.000Z</time>
      </trkpt>
      <trkpt lat="44.54338" lon="0.62897">
        <ele>141</ele>
        <time>2017-01-29T07:46:02.000Z</time>
      </trkpt>
      <trkpt lat="44.54341" lon="0.629">
        <ele>140.7</ele>
        <time>2017-01-29T07:46:03.000Z</time>
      </trkpt>
      <trkpt lat="44.54344" lon="0.62903">
        <ele>140.4</ele>
        <time>2017-01-29T07:46:04.000Z</time>
      </trkpt>
      <trkpt lat="44.54346" lon="0.62906">
        <ele>140.1</ele>
        <time>2017-01-29T07:46:05.000Z</time>
      </trkpt>
      <trkpt lat="44.54349" lon="0.62909">
        <ele>139.9</ele>
        <time>2017-01-29T07:46:06.000Z</time>
      </trkpt>
      <trkpt lat="44.54352" lon="0.62913">
        <ele>139.5</ele>
        <time>2017-01-29T07:46:07.000Z</time>
      </trkpt>
      <trkpt lat="44.54355" lon="0.62917">
        <ele>139.2</ele>
        <time>2017-01-29T07:46:08.000Z</time>
      </trkpt>
      <trkpt lat="44.54359" lon="0.62921">
        <ele>138.8</ele>
        <time>2017-01-29T07:46:09.000Z</time>
      </trkpt>
      <trkpt lat="44.54363" lon="0.62926">
        <ele>138.3</ele>
        <time>2017-01-29T07:46:10.000Z</time>
      </trkpt>
      <trkpt lat="44.54367" lon="0.62931">
        <ele>137.7</ele>
        <time>2017-01-29T07:46:11.000Z</time>
      </trkpt>
      <trkpt lat="44.54372" lon="0.62936">
        <ele>137.2</ele>
        <time>2017-01-29T07:46:12.000Z</time>
      </trkpt>
      <trkpt lat="44.54377" lon="0.62942">
        <ele>136.6</ele>
        <time>2017-01-29T07:46:13.000Z</time>
      </trkpt>
      <trkpt lat="44.54382" lon="0.62948">
        <ele>136</ele>
        <time>2017-01-29T07:46:14.000Z</time>
      </trkpt>
      <trkpt lat="44.54388" lon="0.62955">
        <ele>135.3</ele>
        <time>2017-01-29T07:46:15.000Z</time>
      </trkpt>
      <trkpt lat="44.54393" lon="0.62962">
        <ele>134.6</ele>
        <time>2017-01-29T07:46:16.000Z</time>
      </trkpt>
      <trkpt lat="44.54399" lon="0.62968">
        <ele>133.9</ele>
        <time>2017-01-29T07:46:17.000Z</time>
      </trkpt>
      <trkpt lat="44.54404" lon="0.62975">
        <ele>133.2</ele>
        <time>2017-01-29T07:46:18.000Z</time>
      </trkpt>
      <trkpt lat="44.5441" lon="0.62983">
        <ele>132.5</ele>
        <time>2017-01-29T07:46:19.000Z</time>
      </trkpt>
      <trkpt lat="44.54416" lon="0.6299">
        <ele>131.8</ele>
        <time>2017-01-29T07:46:20.000Z</time>
      </trkpt>
      <trkpt lat="44.54421" lon="0.62997">
        <ele>131.2</ele>
        <time>2017-01-29T07:46:21.000Z</time>
      </trkpt>
      <trkpt lat="44.54427" lon="0.63004">
        <ele>130.9</ele>
        <time>2017-01-29T07:46:22.000Z</time>
      </trkpt>
      <trkpt lat="44.54432" lon="0.63011">
        <ele>130.8</ele>
        <time>2017-01-29T07:46:23.000Z</time>
      </trkpt>
      <trkpt lat="44.54438" lon="0.63018">
        <ele>130.6</ele>
        <time>2017-01-29T07:46:24.000Z</time>
      </trkpt>
      <trkpt lat="44.54443" lon="0.63025">
        <ele>130.5</ele>
        <time>2017-01-29T07:46:25.000Z</time>
      </trkpt>
      <trkpt lat="44.54447" lon="0.63032">
        <ele>130.4</ele>
        <time>2017-01-29T07:46:26.000Z</time>
      </trkpt>
      <trkpt lat="44.54452" lon="0.63038">
        <ele>130.3</ele>
        <time>2017-01-29T07:46:27.000Z</time>
      </trkpt>
      <trkpt lat="44.54456" lon="0.63045">
        <ele>130.2</ele>
        <time>2017-01-29T07:46:28.000Z</time>
      </trkpt>
      <trkpt lat="44.5446" lon="0.63051">
        <ele>130.1</ele>
        <time>2017-01-29T07:46:29.000Z</time>
      </trkpt>
      <trkpt lat="44.54463" lon="0.63058">
        <ele>130</ele>
        <time>2017-01-29T07:46:30.000Z</time>
      </trkpt>
      <trkpt lat="44.54467" lon="0.63064">
        <ele>129.9</ele>
        <time>2017-01-29T07:46:31.000Z</time>
      </trkpt>
      <trkpt lat="44.5447" lon="0.63069">
        <ele>129.9</ele>
        <time>2017-01-29T07:46:32.000Z</time>
      </trkpt>
      <trkpt lat="44.54473" lon="0.63075">
        <ele>129.8</ele>
        <time>2017-01-29T07:46:33.000Z</time>
      </trkpt>
      <trkpt lat="44.54476" lon="0.6308">
        <ele>129.8</ele>
        <time>2017-01-29T07:46:34.000Z</time>
      </trkpt>
      <trkpt lat="44.54479" lon="0.63085">
        <ele>129.7</ele>
        <time>2017-01-29T07:46:35.000Z</time>
      </trkpt>
      <trkpt lat="44.54482" lon="0.6309">
        <ele>129.5</ele>
        <time>2017-01-29T07:46:36.000Z</time>
      </trkpt>
      <trkpt lat="44.54484" lon="0.63095">
        <ele>129.4</ele>
        <time>2017-01-29T07:46:37.000Z</time>
      </trkpt>
      <trkpt lat="44.54487" lon="0.631">
        <ele>129.2</ele>
        <time>2017-01-29T07:46:38.000Z</time>
      </trkpt>
      <trkpt lat="44.5449" lon="0.63105">
        <ele>129.1</ele>
        <time>2017-01-29T07:46:39.000Z</time>
      </trkpt>
      <trkpt lat="44.54493" lon="0.63111">
        <ele>128.9</ele>
        <time>2017-01-29T07:46:40.000Z</time>
      </trkpt>
      <trkpt lat="44.54497" lon="0.63116">
        <ele>128.8</ele>
        <time>2017-01-29T07:46:41.000Z</time>
      </trkpt>
      <trkpt lat="44.545" lon="0.63122">
        <ele>128.6</ele>
        <time>2017-01-29T07:46:42.000Z</time>
      </trkpt>
      <trkpt lat="44.54503" lon="0.63128">
        <ele>128.5</ele>
        <time>2017-01-29T07:46:43.000Z</time>
      </trkpt>
      <trkpt lat="44.54506" lon="0.63133">
        <ele>128.5</ele>
        <time>2017-01-29T07:46:44.000Z</time>
      </trkpt>
      <trkpt lat="44.5451" lon="0.63139">
        <ele>128.5</ele>
        <time>2017-01-29T07:46:45.000Z</time>
      </trkpt>
      <trkpt lat="44.54513" lon="0.63144">
        <ele>128.5</ele>
        <time>2017-01-29T07:46:46.000Z</time>
      </trkpt>
      <trkpt lat="44.54517" lon="0.63149">
        <ele>128.6</ele>
        <time>2017-01-29T07:46:47.000Z</time>
      </trkpt>
      <trkpt lat="44.5452" lon="0.63153">
        <ele>128.6</ele>
        <time>2017-01-29T07:46:48.000Z</time>
      </trkpt>
      <trkpt lat="44.54522" lon="0.63158">
        <ele>128.6</ele>
        <time>2017-01-29T07:46:49.000Z</time>
      </trkpt>
      <trkpt lat="44.54523" lon="0.63163">
        <ele>128.5</ele>
        <time>2017-01-29T07:46:50.000Z</time>
      </trkpt>
      <trkpt lat="44.54521" lon="0.63168">
        <ele>128.3</ele>
        <time>2017-01-29T07:46:51.000Z</time>
      </trkpt>
      <trkpt lat="44.54519" lon="0.63172">
        <ele>128.1</ele>
        <time>2017-01-29T07:46:52.000Z</time>
      </trkpt>
      <trkpt lat="44.54516" lon="0.63176">
        <ele>127.9</ele>
        <time>2017-01-29T07:46:53.000Z</time>
      </trkpt>
      <trkpt lat="44.54514" lon="0.63179">
        <ele>127.7</ele>
        <time>2017-01-29T07:46:54.000Z</time>
      </trkpt>
      <trkpt lat="44.54511" lon="0.63183">
        <ele>127.5</ele>
        <time>2017-01-29T07:46:55.000Z</time>
      </trkpt>
      <trkpt lat="44.54509" lon="0.63186">
        <ele>127.3</ele>
        <time>2017-01-29T07:46:56.000Z</time>
      </trkpt>
      <trkpt lat="44.54506" lon="0.63189">
        <ele>127.1</ele>
        <time>2017-01-29T07:46:57.000Z</time>
      </trkpt>
      <trkpt lat="44.54504" lon="0.63192">
        <ele>126.9</ele>
        <time>2017-01-29T07:46:58.000Z</time>
      </trkpt>
      <trkpt lat="44.54501" lon="0.63196">
        <ele>126.7</ele>
        <time>2017-01-29T07:46:59.000Z</time>
      </trkpt>
      <trkpt lat="44.54499" lon="0.632">
        <ele>126.6</ele>
        <time>2017-01-29T07:47:00.000Z</time>
      </trkpt>
      <trkpt lat="44.54497" lon="0.63204">
        <ele>126.5</ele>
        <time>2017-01-29T07:47:01.000Z</time>
      </trkpt>
      <trkpt lat="44.54495" lon="0.63208">
        <ele>126.4</ele>
        <time>2017-01-29T07:47:02.000Z</time>
      </trkpt>
      <trkpt lat="44.54492" lon="0.63212">
        <ele>126.3</ele>
        <time>2017-01-29T07:47:03.000Z</time>
      </trkpt>
      <trkpt lat="44.5449" lon="0.63216">
        <ele>126.2</ele>
        <time>2017-01-29T07:47:04.000Z</time>
      </trkpt>
      <trkpt lat="44.54487" lon="0.63219">
        <ele>126.1</ele>
        <time>2017-01-29T07:47:05.000Z</time>
      </trkpt>
      <trkpt lat="44.54484" lon="0.63223">
        <ele>126</ele>
        <time>2017-01-29T07:47:06.000Z</time>
      </trkpt>
      <trkpt lat="44.54482" lon="0.63226">
        <ele>125.9</ele>
        <time>2017-01-29T07:47:07.000Z</time>
      </trkpt>
      <trkpt lat="44.54479" lon="0.6323">
        <ele>125.8</ele>
        <time>2017-01-29T07:47:08.000Z</time>
      </trkpt>
      <trkpt lat="44.54476" lon="0.63233">
        <ele>125.7</ele>
        <time>2017-01-29T07:47:09.000Z</time>
      </trkpt>
      <trkpt lat="44.54474" lon="0.63236">
        <ele>125.6</ele>
        <time>2017-01-29T07:47:10.000Z</time>
      </trkpt>
      <trkpt lat="44.54471" lon="0.63239">
        <ele>125.5</ele>
        <time>2017-01-29T07:47:11.000Z</time>
      </trkpt>
      <trkpt lat="44.54469" lon="0.63242">
        <ele>125.4</ele>
        <time>2017-01-29T07:47:12.000Z</time>
      </trkpt>
      <trkpt lat="44.54466" lon="0.63245">
        <ele>125.3</ele>
        <time>2017-01-29T07:47:13.000Z</time>
      </trkpt>
      <trkpt lat="44.54463" lon="0.63249">
        <ele>125.1</ele>
        <time>2017-01-29T07:47:14.000Z</time>
      </trkpt>
      <trkpt lat="44.54461" lon="0.63252">
        <ele>125.1</ele>
        <time>2017-01-29T07:47:15.000Z</time>
      </trkpt>
      <trkpt lat="44.54458" lon="0.63256">
        <ele>125</ele>
        <time>2017-01-29T07:47:16.000Z</time>
      </trkpt>
      <trkpt lat="44.54456" lon="0.6326">
        <ele>125</ele>
        <time>2017-01-29T07:47:17.000Z</time>
      </trkpt>
      <trkpt lat="44.54453" lon="0.63263">
        <ele>124.9</ele>
        <time>2017-01-29T07:47:18.000Z</time>
      </trkpt>
      <trkpt lat="44.5445" lon="0.63267">
        <ele>124.8</ele>
        <time>2017-01-29T07:47:19.000Z</time>
      </trkpt>
      <trkpt lat="44.54447" lon="0.63271">
        <ele>124.8</ele>
        <time>2017-01-29T07:47:20.000Z</time>
      </trkpt>
      <trkpt lat="44.54444" lon="0.63275">
        <ele>124.7</ele>
        <time>2017-01-29T07:47:21.000Z</time>
      </trkpt>
      <trkpt lat="44.54441" lon="0.6328">
        <ele>124.5</ele>
        <time>2017-01-29T07:47:22.000Z</time>
      </trkpt>
      <trkpt lat="44.54438" lon="0.63284">
        <ele>124.4</ele>
        <time>2017-01-29T07:47:23.000Z</time>
      </trkpt>
      <trkpt lat="44.54435" lon="0.63288">
        <ele>124.3</ele>
        <time>2017-01-29T07:47:24.000Z</time>
      </trkpt>
      <trkpt lat="44.54432" lon="0.63292">
        <ele>124.1</ele>
        <time>2017-01-29T07:47:25.000Z</time>
      </trkpt>
      <trkpt lat="44.54429" lon="0.63297">
        <ele>124</ele>
        <time>2017-01-29T07:47:26.000Z</time>
      </trkpt>
      <trkpt lat="44.54426" lon="0.63301">
        <ele>123.8</ele>
        <time>2017-01-29T07:47:27.000Z</time>
      </trkpt>
      <trkpt lat="44.54422" lon="0.63305">
        <ele>123.6</ele>
        <time>2017-01-29T07:47:28.000Z</time>
      </trkpt>
      <trkpt lat="44.54419" lon="0.6331">
        <ele>123.4</ele>
        <time>2017-01-29T07:47:29.000Z</time>
      </trkpt>
      <trkpt lat="44.54416" lon="0.63314">
        <ele>123.2</ele>
        <time>2017-01-29T07:47:30.000Z</time>
      </trkpt>
      <trkpt lat="44.54413" lon="0.63318">
        <ele>123.1</ele>
        <time>2017-01-29T07:47:31.000Z</time>
      </trkpt>
      <trkpt lat="44.54409" lon="0.63322">
        <ele>123</ele>
        <time>2017-01-29T07:47:32.000Z</time>
      </trkpt>
      <trkpt lat="44.54406" lon="0.63327">
        <ele>122.8</ele>
        <time>2017-01-29T07:47:33.000Z</time>
      </trkpt>
      <trkpt lat="44.54403" lon="0.63331">
        <ele>122.7</ele>
        <time>2017-01-29T07:47:34.000Z</time>
      </trkpt>
      <trkpt lat="44.544" lon="0.63335">
        <ele>122.6</ele>
        <time>2017-01-29T07:47:35.000Z</time>
      </trkpt>
      <trkpt lat="44.54396" lon="0.6334">
        <ele>122.5</ele>
        <time>2017-01-29T07:47:36.000Z</time>
      </trkpt>
      <trkpt lat="44.54393" lon="0.63344">
        <ele>122.4</ele>
        <time>2017-01-29T07:47:37.000Z</time>
      </trkpt>
      <trkpt lat="44.5439" lon="0.63349">
        <ele>122.4</ele>
        <time>2017-01-29T07:47:38.000Z</time>
      </trkpt>
      <trkpt lat="44.54387" lon="0.63354">
        <ele>122.3</ele>
        <time>2017-01-29T07:47:39.000Z</time>
      </trkpt>
      <trkpt lat="44.54384" lon="0.63359">
        <ele>122.2</ele>
        <time>2017-01-29T07:47:40.000Z</time>
      </trkpt>
      <trkpt lat="44.54381" lon="0.63364">
        <ele>122.1</ele>
        <time>2017-01-29T07:47:41.000Z</time>
      </trkpt>
      <trkpt lat="44.54378" lon="0.63369">
        <ele>122.1</ele>
        <time>2017-01-29T07:47:42.000Z</time>
      </trkpt>
      <trkpt lat="44.54376" lon="0.63374">
        <ele>122</ele>
        <time>2017-01-29T07:47:43.000Z</time>
      </trkpt>
      <trkpt lat="44.54374" lon="0.63379">
        <ele>122</ele>
        <time>2017-01-29T07:47:44.000Z</time>
      </trkpt>
      <trkpt lat="44.54373" lon="0.63384">
        <ele>121.9</ele>
        <time>2017-01-29T07:47:45.000Z</time>
      </trkpt>
      <trkpt lat="44.54371" lon="0.63389">
        <ele>121.9</ele>
        <time>2017-01-29T07:47:46.000Z</time>
      </trkpt>
      <trkpt lat="44.5437" lon="0.63394">
        <ele>121.9</ele>
        <time>2017-01-29T07:47:47.000Z</time>
      </trkpt>
      <trkpt lat="44.54369" lon="0.63399">
        <ele>121.9</ele>
        <time>2017-01-29T07:47:48.000Z</time>
      </trkpt>
      <trkpt lat="44.54368" lon="0.63405">
        <ele>121.8</ele>
        <time>2017-01-29T07:47:49.000Z</time>
      </trkpt>
      <trkpt lat="44.54368" lon="0.6341">
        <ele>121.8</ele>
        <time>2017-01-29T07:47:50.000Z</time>
      </trkpt>
      <trkpt lat="44.54367" lon="0.63416">
        <ele>121.8</ele>
        <time>2017-01-29T07:47:51.000Z</time>
      </trkpt>
      <trkpt lat="44.54367" lon="0.63422">
        <ele>121.7</ele>
        <time>2017-01-29T07:47:52.000Z</time>
      </trkpt>
      <trkpt lat="44.54366" lon="0.63428">
        <ele>121.6</ele>
        <time>2017-01-29T07:47:53.000Z</time>
      </trkpt>
      <trkpt lat="44.54366" lon="0.63434">
        <ele>121.5</ele>
        <time>2017-01-29T07:47:54.000Z</time>
      </trkpt>
      <trkpt lat="44.54365" lon="0.6344">
        <ele>121.4</ele>
        <time>2017-01-29T07:47:55.000Z</time>
      </trkpt>
      <trkpt lat="44.54364" lon="0.63446">
        <ele>121.3</ele>
        <time>2017-01-29T07:47:56.000Z</time>
      </trkpt>
      <trkpt lat="44.54363" lon="0.63452">
        <ele>121.2</ele>
        <time>2017-01-29T07:47:57.000Z</time>
      </trkpt>
      <trkpt lat="44.54362" lon="0.63458">
        <ele>121</ele>
        <time>2017-01-29T07:47:58.000Z</time>
      </trkpt>
      <trkpt lat="44.54361" lon="0.63465">
        <ele>120.9</ele>
        <time>2017-01-29T07:47:59.000Z</time>
      </trkpt>
      <trkpt lat="44.5436" lon="0.63471">
        <ele>120.8</ele>
        <time>2017-01-29T07:48:00.000Z</time>
      </trkpt>
      <trkpt lat="44.54359" lon="0.63477">
        <ele>120.6</ele>
        <time>2017-01-29T07:48:01.000Z</time>
      </trkpt>
      <trkpt lat="44.54357" lon="0.63483">
        <ele>120.4</ele>
        <time>2017-01-29T07:48:02.000Z</time>
      </trkpt>
      <trkpt lat="44.54356" lon="0.63489">
        <ele>120.3</ele>
        <time>2017-01-29T07:48:03.000Z</time>
      </trkpt>
      <trkpt lat="44.54354" lon="0.63495">
        <ele>120.1</ele>
        <time>2017-01-29T07:48:04.000Z</time>
      </trkpt>
      <trkpt lat="44.54353" lon="0.63501">
        <ele>119.9</ele>
        <time>2017-01-29T07:48:05.000Z</time>
      </trkpt>
      <trkpt lat="44.54351" lon="0.63507">
        <ele>119.7</ele>
        <time>2017-01-29T07:48:06.000Z</time>
      </trkpt>
      <trkpt lat="44.5435" lon="0.63513">
        <ele>119.5</ele>
        <time>2017-01-29T07:48:07.000Z</time>
      </trkpt>
      <trkpt lat="44.54349" lon="0.63519">
        <ele>119.3</ele>
        <time>2017-01-29T07:48:08.000Z</time>
      </trkpt>
      <trkpt lat="44.54347" lon="0.63525">
        <ele>119.1</ele>
        <time>2017-01-29T07:48:09.000Z</time>
      </trkpt>
      <trkpt lat="44.54346" lon="0.63531">
        <ele>118.9</ele>
        <time>2017-01-29T07:48:10.000Z</time>
      </trkpt>
      <trkpt lat="44.54345" lon="0.63537">
        <ele>118.7</ele>
        <time>2017-01-29T07:48:11.000Z</time>
      </trkpt>
      <trkpt lat="44.54344" lon="0.63543">
        <ele>118.5</ele>
        <time>2017-01-29T07:48:12.000Z</time>
      </trkpt>
      <trkpt lat="44.54342" lon="0.6355">
        <ele>118.3</ele>
        <time>2017-01-29T07:48:13.000Z</time>
      </trkpt>
      <trkpt lat="44.54341" lon="0.63556">
        <ele>118.1</ele>
        <time>2017-01-29T07:48:14.000Z</time>
      </trkpt>
      <trkpt lat="44.54339" lon="0.63563">
        <ele>117.8</ele>
        <time>2017-01-29T07:48:15.000Z</time>
      </trkpt>
      <trkpt lat="44.54338" lon="0.63569">
        <ele>117.6</ele>
        <time>2017-01-29T07:48:16.000Z</time>
      </trkpt>
      <trkpt lat="44.54336" lon="0.63576">
        <ele>117.4</ele>
        <time>2017-01-29T07:48:17.000Z</time>
      </trkpt>
      <trkpt lat="44.54335" lon="0.63582">
        <ele>117.1</ele>
        <time>2017-01-29T07:48:18.000Z</time>
      </trkpt>
      <trkpt lat="44.54333" lon="0.63589">
        <ele>117.1</ele>
        <time>2017-01-29T07:48:19.000Z</time>
      </trkpt>
      <trkpt lat="44.54332" lon="0.63596">
        <ele>117.2</ele>
        <time>2017-01-29T07:48:20.000Z</time>
      </trkpt>
      <trkpt lat="44.54331" lon="0.63602">
        <ele>117.2</ele>
        <time>2017-01-29T07:48:21.000Z</time>
      </trkpt>
      <trkpt lat="44.54329" lon="0.63609">
        <ele>117.3</ele>
        <time>2017-01-29T07:48:22.000Z</time>
      </trkpt>
      <trkpt lat="44.54328" lon="0.63615">
        <ele>117.4</ele>
        <time>2017-01-29T07:48:23.000Z</time>
      </trkpt>
      <trkpt lat="44.54326" lon="0.63622">
        <ele>117.4</ele>
        <time>2017-01-29T07:48:24.000Z</time>
      </trkpt>
      <trkpt lat="44.54325" lon="0.63629">
        <ele>117.5</ele>
        <time>2017-01-29T07:48:25.000Z</time>
      </trkpt>
      <trkpt lat="44.54323" lon="0.63635">
        <ele>117.5</ele>
        <time>2017-01-29T07:48:26.000Z</time>
      </trkpt>
      <trkpt lat="44.54322" lon="0.63642">
        <ele>117.5</ele>
        <time>2017-01-29T07:48:27.000Z</time>
      </trkpt>
      <trkpt lat="44.5432" lon="0.63648">
        <ele>117.6</ele>
        <time>2017-01-29T07:48:28.000Z</time>
      </trkpt>
      <trkpt lat="44.54319" lon="0.63655">
        <ele>117.6</ele>
        <time>2017-01-29T07:48:29.000Z</time>
      </trkpt>
      <trkpt lat="44.54317" lon="0.63661">
        <ele>117.6</ele>
        <time>2017-01-29T07:48:30.000Z</time>
      </trkpt>
      <trkpt lat="44.54316" lon="0.63667">
        <ele>117.6</ele>
        <time>2017-01-29T07:48:31.000Z</time>
      </trkpt>
      <trkpt lat="44.54315" lon="0.63674">
        <ele>117.5</ele>
        <time>2017-01-29T07:48:32.000Z</time>
      </trkpt>
      <trkpt lat="44.54313" lon="0.6368">
        <ele>117.5</ele>
        <time>2017-01-29T07:48:33.000Z</time>
      </trkpt>
      <trkpt lat="44.54312" lon="0.63686">
        <ele>117.4</ele>
        <time>2017-01-29T07:48:34.000Z</time>
      </trkpt>
      <trkpt lat="44.5431" lon="0.63692">
        <ele>117.4</ele>
        <time>2017-01-29T07:48:35.000Z</time>
      </trkpt>
      <trkpt lat="44.54309" lon="0.63699">
        <ele>117.3</ele>
        <time>2017-01-29T07:48:36.000Z</time>
      </trkpt>
      <trkpt lat="44.54308" lon="0.63705">
        <ele>117.2</ele>
        <time>2017-01-29T07:48:37.000Z</time>
      </trkpt>
      <trkpt lat="44.54307" lon="0.6371">
        <ele>117.2</ele>
        <time>2017-01-29T07:48:38.000Z</time>
      </trkpt>
      <trkpt lat="44.54305" lon="0.63716">
        <ele>117.1</ele>
        <time>2017-01-29T07:48:39.000Z</time>
      </trkpt>
      <trkpt lat="44.54304" lon="0.63722">
        <ele>117.1</ele>
        <time>2017-01-29T07:48:40.000Z</time>
      </trkpt>
      <trkpt lat="44.54303" lon="0.63728">
        <ele>117</ele>
        <time>2017-01-29T07:48:41.000Z</time>
      </trkpt>
      <trkpt lat="44.54302" lon="0.63734">
        <ele>116.9</ele>
        <time>2017-01-29T07:48:42.000Z</time>
      </trkpt>
      <trkpt lat="44.54301" lon="0.63739">
        <ele>116.9</ele>
        <time>2017-01-29T07:48:43.000Z</time>
      </trkpt>
      <trkpt lat="44.543" lon="0.63745">
        <ele>116.8</ele>
        <time>2017-01-29T07:48:44.000Z</time>
      </trkpt>
      <trkpt lat="44.54299" lon="0.63751">
        <ele>116.7</ele>
        <time>2017-01-29T07:48:45.000Z</time>
      </trkpt>
      <trkpt lat="44.54297" lon="0.63756">
        <ele>116.7</ele>
        <time>2017-01-29T07:48:46.000Z</time>
      </trkpt>
      <trkpt lat="44.54296" lon="0.63762">
        <ele>116.6</ele>
        <time>2017-01-29T07:48:47.000Z</time>
      </trkpt>
      <trkpt lat="44.54295" lon="0.63768">
        <ele>116.5</ele>
        <time>2017-01-29T07:48:48.000Z</time>
      </trkpt>
      <trkpt lat="44.54295" lon="0.63773">
        <ele>116.5</ele>
        <time>2017-01-29T07:48:49.000Z</time>
      </trkpt>
      <trkpt lat="44.54294" lon="0.63779">
        <ele>116.4</ele>
        <time>2017-01-29T07:48:50.000Z</time>
      </trkpt>
      <trkpt lat="44.54295" lon="0.63784">
        <ele>116.4</ele>
        <time>2017-01-29T07:48:51.000Z</time>
      </trkpt>
      <trkpt lat="44.54296" lon="0.63789">
        <ele>116.4</ele>
        <time>2017-01-29T07:48:52.000Z</time>
      </trkpt>
      <trkpt lat="44.54297" lon="0.63794">
        <ele>116.4</ele>
        <time>2017-01-29T07:48:53.000Z</time>
      </trkpt>
      <trkpt lat="44.54299" lon="0.63798">
        <ele>116.4</ele>
        <time>2017-01-29T07:48:54.000Z</time>
      </trkpt>
      <trkpt lat="44.54301" lon="0.63803">
        <ele>116.4</ele>
        <time>2017-01-29T07:48:55.000Z</time>
      </trkpt>
      <trkpt lat="44.54303" lon="0.63807">
        <ele>116.5</ele>
        <time>2017-01-29T07:48:56.000Z</time>
      </trkpt>
      <trkpt lat="44.54305" lon="0.63811">
        <ele>116.5</ele>
        <time>2017-01-29T07:48:57.000Z</time>
      </trkpt>
      <trkpt lat="44.54307" lon="0.63815">
        <ele>116.5</ele>
        <time>2017-01-29T07:48:58.000Z</time>
      </trkpt>
      <trkpt lat="44.54309" lon="0.63819">
        <ele>116.5</ele>
        <time>2017-01-29T07:48:59.000Z</time>
      </trkpt>
      <trkpt lat="44.54311" lon="0.63822">
        <ele>116.5</ele>
        <time>2017-01-29T07:49:00.000Z</time>
      </trkpt>
      <trkpt lat="44.54312" lon="0.63826">
        <ele>116.6</ele>
        <time>2017-01-29T07:49:01.000Z</time>
      </trkpt>
      <trkpt lat="44.54314" lon="0.63829">
        <ele>116.6</ele>
        <time>2017-01-29T07:49:02.000Z</time>
      </trkpt>
      <trkpt lat="44.54316" lon="0.63832">
        <ele>116.6</ele>
        <time>2017-01-29T07:49:03.000Z</time>
      </trkpt>
      <trkpt lat="44.54318" lon="0.63835">
        <ele>116.6</ele>
        <time>2017-01-29T07:49:04.000Z</time>
      </trkpt>
      <trkpt lat="44.54321" lon="0.63838">
        <ele>116.6</ele>
        <time>2017-01-29T07:49:05.000Z</time>
      </trkpt>
      <trkpt lat="44.54323" lon="0.63841">
        <ele>116.6</ele>
        <time>2017-01-29T07:49:06.000Z</time>
      </trkpt>
      <trkpt lat="44.54324" lon="0.63844">
        <ele>116.6</ele>
        <time>2017-01-29T07:49:07.000Z</time>
      </trkpt>
      <trkpt lat="44.54325" lon="0.63846">
        <ele>116.6</ele>
        <time>2017-01-29T07:49:08.000Z</time>
      </trkpt>
      <trkpt lat="44.54326" lon="0.63849">
        <ele>116.6</ele>
        <time>2017-01-29T07:49:09.000Z</time>
      </trkpt>
      <trkpt lat="44.54326" lon="0.63852">
        <ele>116.6</ele>
        <time>2017-01-29T07:49:10.000Z</time>
      </trkpt>
      <trkpt lat="44.54326" lon="0.63854">
        <ele>116.6</ele>
        <time>2017-01-29T07:49:11.000Z</time>
      </trkpt>
      <trkpt lat="44.54325" lon="0.63855">
        <ele>116.5</ele>
        <time>2017-01-29T07:49:12.000Z</time>
      </trkpt>
      <trkpt lat="44.54324" lon="0.63855">
        <ele>116.5</ele>
        <time>2017-01-29T07:49:13.000Z</time>
      </trkpt>
      <trkpt lat="44.54322" lon="0.63854">
        <ele>116.4</ele>
        <time>2017-01-29T07:49:14.000Z</time>
      </trkpt>
      <trkpt lat="44.5432" lon="0.63853">
        <ele>116.4</ele>
        <time>2017-01-29T07:49:15.000Z</time>
      </trkpt>
      <trkpt lat="44.54318" lon="0.63851">
        <ele>116.4</ele>
        <time>2017-01-29T07:49:16.000Z</time>
      </trkpt>
      <trkpt lat="44.54316" lon="0.6385">
        <ele>116.3</ele>
        <time>2017-01-29T07:49:17.000Z</time>
      </trkpt>
      <trkpt lat="44.54314" lon="0.63848">
        <ele>116.3</ele>
        <time>2017-01-29T07:49:18.000Z</time>
      </trkpt>
      <trkpt lat="44.54312" lon="0.63845">
        <ele>116.3</ele>
        <time>2017-01-29T07:49:19.000Z</time>
      </trkpt>
      <trkpt lat="44.5431" lon="0.63842">
        <ele>116.3</ele>
        <time>2017-01-29T07:49:20.000Z</time>
      </trkpt>
      <trkpt lat="44.54309" lon="0.63838">
        <ele>116.3</ele>
        <time>2017-01-29T07:49:21.000Z</time>
      </trkpt>
      <trkpt lat="44.54308" lon="0.63834">
        <ele>116.4</ele>
        <time>2017-01-29T07:49:22.000Z</time>
      </trkpt>
      <trkpt lat="44.54306" lon="0.6383">
        <ele>116.4</ele>
        <time>2017-01-29T07:49:23.000Z</time>
      </trkpt>
      <trkpt lat="44.54305" lon="0.63826">
        <ele>116.4</ele>
        <time>2017-01-29T07:49:24.000Z</time>
      </trkpt>
      <trkpt lat="44.54303" lon="0.63822">
        <ele>116.4</ele>
        <time>2017-01-29T07:49:25.000Z</time>
      </trkpt>
      <trkpt lat="44.54302" lon="0.63817">
        <ele>116.4</ele>
        <time>2017-01-29T07:49:26.000Z</time>
      </trkpt>
      <trkpt lat="44.543" lon="0.63813">
        <ele>116.3</ele>
        <time>2017-01-29T07:49:27.000Z</time>
      </trkpt>
      <trkpt lat="44.54298" lon="0.63808">
        <ele>116.3</ele>
        <time>2017-01-29T07:49:28.000Z</time>
      </trkpt>
      <trkpt lat="44.54296" lon="0.63803">
        <ele>116.3</ele>
        <time>2017-01-29T07:49:29.000Z</time>
      </trkpt>
      <trkpt lat="44.54293" lon="0.63798">
        <ele>116.3</ele>
        <time>2017-01-29T07:49:30.000Z</time>
      </trkpt>
      <trkpt lat="44.54291" lon="0.63793">
        <ele>116.2</ele>
        <time>2017-01-29T07:49:31.000Z</time>
      </trkpt>
      <trkpt lat="44.54288" lon="0.63788">
        <ele>116.2</ele>
        <time>2017-01-29T07:49:32.000Z</time>
      </trkpt>
      <trkpt lat="44.54285" lon="0.63783">
        <ele>116.1</ele>
        <time>2017-01-29T07:49:33.000Z</time>
      </trkpt>
      <trkpt lat="44.54282" lon="0.63779">
        <ele>116</ele>
        <time>2017-01-29T07:49:34.000Z</time>
      </trkpt>
      <trkpt lat="44.54279" lon="0.63774">
        <ele>115.9</ele>
        <time>2017-01-29T07:49:35.000Z</time>
      </trkpt>
      <trkpt lat="44.54275" lon="0.63769">
        <ele>115.8</ele>
        <time>2017-01-29T07:49:36.000Z</time>
      </trkpt>
      <trkpt lat="44.54272" lon="0.63765">
        <ele>115.7</ele>
        <time>2017-01-29T07:49:37.000Z</time>
      </trkpt>
      <trkpt lat="44.54268" lon="0.6376">
        <ele>115.6</ele>
        <time>2017-01-29T07:49:38.000Z</time>
      </trkpt>
      <trkpt lat="44.54265" lon="0.63756">
        <ele>115.5</ele>
        <time>2017-01-29T07:49:39.000Z</time>
      </trkpt>
      <trkpt lat="44.54261" lon="0.63752">
        <ele>115.4</ele>
        <time>2017-01-29T07:49:40.000Z</time>
      </trkpt>
      <trkpt lat="44.54258" lon="0.63748">
        <ele>115.3</ele>
        <time>2017-01-29T07:49:41.000Z</time>
      </trkpt>
      <trkpt lat="44.54254" lon="0.63745">
        <ele>115.2</ele>
        <time>2017-01-29T07:49:42.000Z</time>
      </trkpt>
      <trkpt lat="44.54251" lon="0.63741">
        <ele>115.1</ele>
        <time>2017-01-29T07:49:43.000Z</time>
      </trkpt>
      <trkpt lat="44.54248" lon="0.63738">
        <ele>115.2</ele>
        <time>2017-01-29T07:49:44.000Z</time>
      </trkpt>
      <trkpt lat="44.54244" lon="0.63734">
        <ele>115.3</ele>
        <time>2017-01-29T07:49:45.000Z</time>
      </trkpt>
      <trkpt lat="44.54241" lon="0.63731">
        <ele>115.3</ele>
        <time>2017-01-29T07:49:46.000Z</time>
      </trkpt>
      <trkpt lat="44.54238" lon="0.63728">
        <ele>115.4</ele>
        <time>2017-01-29T07:49:47.000Z</time>
      </trkpt>
      <trkpt lat="44.54234" lon="0.63725">
        <ele>115.5</ele>
        <time>2017-01-29T07:49:48.000Z</time>
      </trkpt>
      <trkpt lat="44.54231" lon="0.63721">
        <ele>115.6</ele>
        <time>2017-01-29T07:49:49.000Z</time>
      </trkpt>
      <trkpt lat="44.54227" lon="0.63719">
        <ele>115.7</ele>
        <time>2017-01-29T07:49:50.000Z</time>
      </trkpt>
      <trkpt lat="44.54223" lon="0.63716">
        <ele>115.7</ele>
        <time>2017-01-29T07:49:51.000Z</time>
      </trkpt>
      <trkpt lat="44.5422" lon="0.63713">
        <ele>115.8</ele>
        <time>2017-01-29T07:49:52.000Z</time>
      </trkpt>
      <trkpt lat="44.54216" lon="0.6371">
        <ele>115.9</ele>
        <time>2017-01-29T07:49:53.000Z</time>
      </trkpt>
      <trkpt lat="44.54213" lon="0.63707">
        <ele>116</ele>
        <time>2017-01-29T07:49:54.000Z</time>
      </trkpt>
      <trkpt lat="44.5421" lon="0.63704">
        <ele>116</ele>
        <time>2017-01-29T07:49:55.000Z</time>
      </trkpt>
      <trkpt lat="44.54207" lon="0.637">
        <ele>116.1</ele>
        <time>2017-01-29T07:49:56.000Z</time>
      </trkpt>
      <trkpt lat="44.54204" lon="0.63697">
        <ele>116.2</ele>
        <time>2017-01-29T07:49:57.000Z</time>
      </trkpt>
      <trkpt lat="44.54201" lon="0.63694">
        <ele>116.3</ele>
        <time>2017-01-29T07:49:58.000Z</time>
      </trkpt>
      <trkpt lat="44.54198" lon="0.6369">
        <ele>116.3</ele>
        <time>2017-01-29T07:49:59.000Z</time>
      </trkpt>
      <trkpt lat="44.54195" lon="0.63687">
        <ele>116.4</ele>
        <time>2017-01-29T07:50:00.000Z</time>
      </trkpt>
      <trkpt lat="44.54193" lon="0.63683">
        <ele>116.5</ele>
        <time>2017-01-29T07:50:01.000Z</time>
      </trkpt>
      <trkpt lat="44.5419" lon="0.63679">
        <ele>116.6</ele>
        <time>2017-01-29T07:50:02.000Z</time>
      </trkpt>
      <trkpt lat="44.54188" lon="0.63675">
        <ele>116.6</ele>
        <time>2017-01-29T07:50:03.000Z</time>
      </trkpt>
      <trkpt lat="44.54186" lon="0.63671">
        <ele>116.7</ele>
        <time>2017-01-29T07:50:04.000Z</time>
      </trkpt>
      <trkpt lat="44.54184" lon="0.63667">
        <ele>116.8</ele>
        <time>2017-01-29T07:50:05.000Z</time>
      </trkpt>
      <trkpt lat="44.54181" lon="0.63664">
        <ele>117</ele>
        <time>2017-01-29T07:50:06.000Z</time>
      </trkpt>
      <trkpt lat="44.54179" lon="0.63661">
        <ele>117.1</ele>
        <time>2017-01-29T07:50:07.000Z</time>
      </trkpt>
      <trkpt lat="44.54176" lon="0.6366">
        <ele>117.3</ele>
        <time>2017-01-29T07:50:08.000Z</time>
      </trkpt>
      <trkpt lat="44.54174" lon="0.6366">
        <ele>117.3</ele>
        <time>2017-01-29T07:50:09.000Z</time>
      </trkpt>
      <trkpt lat="44.54171" lon="0.63662">
        <ele>117.2</ele>
        <time>2017-01-29T07:50:10.000Z</time>
      </trkpt>
      <trkpt lat="44.54169" lon="0.63666">
        <ele>117</ele>
        <time>2017-01-29T07:50:11.000Z</time>
      </trkpt>
      <trkpt lat="44.54166" lon="0.6367">
        <ele>117</ele>
        <time>2017-01-29T07:50:12.000Z</time>
      </trkpt>
      <trkpt lat="44.54163" lon="0.63674">
        <ele>117</ele>
        <time>2017-01-29T07:50:13.000Z</time>
      </trkpt>
      <trkpt lat="44.54159" lon="0.63678">
        <ele>117.1</ele>
        <time>2017-01-29T07:50:14.000Z</time>
      </trkpt>
      <trkpt lat="44.54155" lon="0.63682">
        <ele>117.1</ele>
        <time>2017-01-29T07:50:15.000Z</time>
      </trkpt>
      <trkpt lat="44.54152" lon="0.63687">
        <ele>117.2</ele>
        <time>2017-01-29T07:50:16.000Z</time>
      </trkpt>
      <trkpt lat="44.54148" lon="0.63691">
        <ele>117.3</ele>
        <time>2017-01-29T07:50:17.000Z</time>
      </trkpt>
      <trkpt lat="44.54144" lon="0.63696">
        <ele>117.4</ele>
        <time>2017-01-29T07:50:18.000Z</time>
      </trkpt>
      <trkpt lat="44.5414" lon="0.637">
        <ele>117.5</ele>
        <time>2017-01-29T07:50:19.000Z</time>
      </trkpt>
      <trkpt lat="44.54136" lon="0.63705">
        <ele>117.6</ele>
        <time>2017-01-29T07:50:20.000Z</time>
      </trkpt>
      <trkpt lat="44.54133" lon="0.63709">
        <ele>117.7</ele>
        <time>2017-01-29T07:50:21.000Z</time>
      </trkpt>
      <trkpt lat="44.54129" lon="0.63714">
        <ele>117.8</ele>
        <time>2017-01-29T07:50:22.000Z</time>
      </trkpt>
      <trkpt lat="44.54126" lon="0.63718">
        <ele>118</ele>
        <time>2017-01-29T07:50:23.000Z</time>
      </trkpt>
      <trkpt lat="44.54123" lon="0.63722">
        <ele>118.1</ele>
        <time>2017-01-29T07:50:24.000Z</time>
      </trkpt>
      <trkpt lat="44.5412" lon="0.63725">
        <ele>118.2</ele>
        <time>2017-01-29T07:50:25.000Z</time>
      </trkpt>
      <trkpt lat="44.54117" lon="0.63728">
        <ele>118.3</ele>
        <time>2017-01-29T07:50:26.000Z</time>
      </trkpt>
      <trkpt lat="44.54115" lon="0.63731">
        <ele>118.4</ele>
        <time>2017-01-29T07:50:27.000Z</time>
      </trkpt>
      <trkpt lat="44.54112" lon="0.63734">
        <ele>118.6</ele>
        <time>2017-01-29T07:50:28.000Z</time>
      </trkpt>
      <trkpt lat="44.54109" lon="0.63737">
        <ele>118.7</ele>
        <time>2017-01-29T07:50:29.000Z</time>
      </trkpt>
      <trkpt lat="44.54107" lon="0.6374">
        <ele>118.8</ele>
        <time>2017-01-29T07:50:30.000Z</time>
      </trkpt>
      <trkpt lat="44.54104" lon="0.63742">
        <ele>119</ele>
        <time>2017-01-29T07:50:31.000Z</time>
      </trkpt>
      <trkpt lat="44.54101" lon="0.63745">
        <ele>119.1</ele>
        <time>2017-01-29T07:50:32.000Z</time>
      </trkpt>
      <trkpt lat="44.54099" lon="0.63747">
        <ele>119.2</ele>
        <time>2017-01-29T07:50:33.000Z</time>
      </trkpt>
      <trkpt lat="44.54096" lon="0.6375">
        <ele>119.4</ele>
        <time>2017-01-29T07:50:34.000Z</time>
      </trkpt>
      <trkpt lat="44.54094" lon="0.63752">
        <ele>119.5</ele>
        <time>2017-01-29T07:50:35.000Z</time>
      </trkpt>
      <trkpt lat="44.54091" lon="0.63754">
        <ele>119.6</ele>
        <time>2017-01-29T07:50:36.000Z</time>
      </trkpt>
      <trkpt lat="44.54089" lon="0.63756">
        <ele>119.7</ele>
        <time>2017-01-29T07:50:37.000Z</time>
      </trkpt>
      <trkpt lat="44.54087" lon="0.63758">
        <ele>119.7</ele>
        <time>2017-01-29T07:50:38.000Z</time>
      </trkpt>
      <trkpt lat="44.54085" lon="0.63759">
        <ele>119.8</ele>
        <time>2017-01-29T07:50:39.000Z</time>
      </trkpt>
      <trkpt lat="44.54083" lon="0.63761">
        <ele>119.9</ele>
        <time>2017-01-29T07:50:40.000Z</time>
      </trkpt>
      <trkpt lat="44.54081" lon="0.63763">
        <ele>120</ele>
        <time>2017-01-29T07:50:41.000Z</time>
      </trkpt>
      <trkpt lat="44.54078" lon="0.63764">
        <ele>120</ele>
        <time>2017-01-29T07:50:42.000Z</time>
      </trkpt>
      <trkpt lat="44.54076" lon="0.63766">
        <ele>120.1</ele>
        <time>2017-01-29T07:50:43.000Z</time>
      </trkpt>
      <trkpt lat="44.54074" lon="0.63768">
        <ele>120.2</ele>
        <time>2017-01-29T07:50:44.000Z</time>
      </trkpt>
      <trkpt lat="44.54072" lon="0.6377">
        <ele>120.3</ele>
        <time>2017-01-29T07:50:45.000Z</time>
      </trkpt>
      <trkpt lat="44.54069" lon="0.63772">
        <ele>120.3</ele>
        <time>2017-01-29T07:50:46.000Z</time>
      </trkpt>
      <trkpt lat="44.54067" lon="0.63774">
        <ele>120.4</ele>
        <time>2017-01-29T07:50:47.000Z</time>
      </trkpt>
      <trkpt lat="44.54065" lon="0.63775">
        <ele>120.5</ele>
        <time>2017-01-29T07:50:48.000Z</time>
      </trkpt>
      <trkpt lat="44.54062" lon="0.63777">
        <ele>120.6</ele>
        <time>2017-01-29T07:50:49.000Z</time>
      </trkpt>
      <trkpt lat="44.5406" lon="0.63778">
        <ele>120.7</ele>
        <time>2017-01-29T07:50:50.000Z</time>
      </trkpt>
      <trkpt lat="44.54057" lon="0.6378">
        <ele>120.8</ele>
        <time>2017-01-29T07:50:51.000Z</time>
      </trkpt>
      <trkpt lat="44.54055" lon="0.63781">
        <ele>120.9</ele>
        <time>2017-01-29T07:50:52.000Z</time>
      </trkpt>
      <trkpt lat="44.54052" lon="0.63781">
        <ele>121</ele>
        <time>2017-01-29T07:50:53.000Z</time>
      </trkpt>
      <trkpt lat="44.5405" lon="0.63782">
        <ele>121.1</ele>
        <time>2017-01-29T07:50:54.000Z</time>
      </trkpt>
      <trkpt lat="44.54047" lon="0.63783">
        <ele>121.2</ele>
        <time>2017-01-29T07:50:55.000Z</time>
      </trkpt>
      <trkpt lat="44.54045" lon="0.63783">
        <ele>121.3</ele>
        <time>2017-01-29T07:50:56.000Z</time>
      </trkpt>
      <trkpt lat="44.54043" lon="0.63785">
        <ele>121.4</ele>
        <time>2017-01-29T07:50:57.000Z</time>
      </trkpt>
      <trkpt lat="44.54043" lon="0.63787">
        <ele>121.5</ele>
        <time>2017-01-29T07:50:58.000Z</time>
      </trkpt>
      <trkpt lat="44.54042" lon="0.63789">
        <ele>121.5</ele>
        <time>2017-01-29T07:50:59.000Z</time>
      </trkpt>
      <trkpt lat="44.54042" lon="0.63793">
        <ele>121.5</ele>
        <time>2017-01-29T07:51:00.000Z</time>
      </trkpt>
      <trkpt lat="44.54042" lon="0.63796">
        <ele>121.5</ele>
        <time>2017-01-29T07:51:01.000Z</time>
      </trkpt>
      <trkpt lat="44.54042" lon="0.638">
        <ele>121.5</ele>
        <time>2017-01-29T07:51:02.000Z</time>
      </trkpt>
      <trkpt lat="44.54043" lon="0.63804">
        <ele>121.4</ele>
        <time>2017-01-29T07:51:03.000Z</time>
      </trkpt>
      <trkpt lat="44.54043" lon="0.63809">
        <ele>121.4</ele>
        <time>2017-01-29T07:51:04.000Z</time>
      </trkpt>
      <trkpt lat="44.54043" lon="0.63813">
        <ele>121.4</ele>
        <time>2017-01-29T07:51:05.000Z</time>
      </trkpt>
      <trkpt lat="44.54043" lon="0.63818">
        <ele>121.4</ele>
        <time>2017-01-29T07:51:06.000Z</time>
      </trkpt>
      <trkpt lat="44.54043" lon="0.63822">
        <ele>121.4</ele>
        <time>2017-01-29T07:51:07.000Z</time>
      </trkpt>
      <trkpt lat="44.54043" lon="0.63827">
        <ele>121.4</ele>
        <time>2017-01-29T07:51:08.000Z</time>
      </trkpt>
      <trkpt lat="44.54043" lon="0.63832">
        <ele>121.4</ele>
        <time>2017-01-29T07:51:09.000Z</time>
      </trkpt>
      <trkpt lat="44.54043" lon="0.63837">
        <ele>121.4</ele>
        <time>2017-01-29T07:51:10.000Z</time>
      </trkpt>
      <trkpt lat="44.54043" lon="0.63842">
        <ele>121.5</ele>
        <time>2017-01-29T07:51:11.000Z</time>
      </trkpt>
      <trkpt lat="44.54043" lon="0.63847">
        <ele>121.5</ele>
        <time>2017-01-29T07:51:12.000Z</time>
      </trkpt>
      <trkpt lat="44.54043" lon="0.63853">
        <ele>121.5</ele>
        <time>2017-01-29T07:51:13.000Z</time>
      </trkpt>
      <trkpt lat="44.54044" lon="0.63858">
        <ele>121.6</ele>
        <time>2017-01-29T07:51:14.000Z</time>
      </trkpt>
      <trkpt lat="44.54044" lon="0.63864">
        <ele>121.6</ele>
        <time>2017-01-29T07:51:15.000Z</time>
      </trkpt>
      <trkpt lat="44.54044" lon="0.63869">
        <ele>121.6</ele>
        <time>2017-01-29T07:51:16.000Z</time>
      </trkpt>
      <trkpt lat="44.54044" lon="0.63875">
        <ele>121.7</ele>
        <time>2017-01-29T07:51:17.000Z</time>
      </trkpt>
      <trkpt lat="44.54044" lon="0.6388">
        <ele>121.7</ele>
        <time>2017-01-29T07:51:18.000Z</time>
      </trkpt>
      <trkpt lat="44.54044" lon="0.63886">
        <ele>121.7</ele>
        <time>2017-01-29T07:51:19.000Z</time>
      </trkpt>
      <trkpt lat="44.54044" lon="0.63892">
        <ele>121.8</ele>
        <time>2017-01-29T07:51:20.000Z</time>
      </trkpt>
      <trkpt lat="44.54044" lon="0.63898">
        <ele>121.8</ele>
        <time>2017-01-29T07:51:21.000Z</time>
      </trkpt>
      <trkpt lat="44.54044" lon="0.63903">
        <ele>121.8</ele>
        <time>2017-01-29T07:51:22.000Z</time>
      </trkpt>
      <trkpt lat="44.54044" lon="0.6391">
        <ele>121.9</ele>
        <time>2017-01-29T07:51:23.000Z</time>
      </trkpt>
      <trkpt lat="44.54044" lon="0.63916">
        <ele>121.9</ele>
        <time>2017-01-29T07:51:24.000Z</time>
      </trkpt>
      <trkpt lat="44.54044" lon="0.63922">
        <ele>121.9</ele>
        <time>2017-01-29T07:51:25.000Z</time>
      </trkpt>
      <trkpt lat="44.54043" lon="0.63927">
        <ele>121.9</ele>
        <time>2017-01-29T07:51:26.000Z</time>
      </trkpt>
      <trkpt lat="44.54042" lon="0.63933">
        <ele>121.9</ele>
        <time>2017-01-29T07:51:27.000Z</time>
      </trkpt>
      <trkpt lat="44.5404" lon="0.63938">
        <ele>121.9</ele>
        <time>2017-01-29T07:51:28.000Z</time>
      </trkpt>
      <trkpt lat="44.54038" lon="0.63943">
        <ele>121.9</ele>
        <time>2017-01-29T07:51:29.000Z</time>
      </trkpt>
      <trkpt lat="44.54037" lon="0.63947">
        <ele>121.9</ele>
        <time>2017-01-29T07:51:30.000Z</time>
      </trkpt>
      <trkpt lat="44.54035" lon="0.63952">
        <ele>121.9</ele>
        <time>2017-01-29T07:51:31.000Z</time>
      </trkpt>
      <trkpt lat="44.54033" lon="0.63957">
        <ele>121.9</ele>
        <time>2017-01-29T07:51:32.000Z</time>
      </trkpt>
      <trkpt lat="44.54031" lon="0.63961">
        <ele>121.9</ele>
        <time>2017-01-29T07:51:33.000Z</time>
      </trkpt>
      <trkpt lat="44.5403" lon="0.63966">
        <ele>121.9</ele>
        <time>2017-01-29T07:51:34.000Z</time>
      </trkpt>
      <trkpt lat="44.54028" lon="0.6397">
        <ele>121.9</ele>
        <time>2017-01-29T07:51:35.000Z</time>
      </trkpt>
      <trkpt lat="44.54026" lon="0.63975">
        <ele>121.9</ele>
        <time>2017-01-29T07:51:36.000Z</time>
      </trkpt>
      <trkpt lat="44.54024" lon="0.63979">
        <ele>121.9</ele>
        <time>2017-01-29T07:51:37.000Z</time>
      </trkpt>
      <trkpt lat="44.54021" lon="0.63983">
        <ele>121.9</ele>
        <time>2017-01-29T07:51:38.000Z</time>
      </trkpt>
      <trkpt lat="44.54019" lon="0.63987">
        <ele>121.9</ele>
        <time>2017-01-29T07:51:39.000Z</time>
      </trkpt>
      <trkpt lat="44.54017" lon="0.63991">
        <ele>121.9</ele>
        <time>2017-01-29T07:51:40.000Z</time>
      </trkpt>
      <trkpt lat="44.54015" lon="0.63995">
        <ele>121.9</ele>
        <time>2017-01-29T07:51:41.000Z</time>
      </trkpt>
      <trkpt lat="44.54012" lon="0.63999">
        <ele>121.9</ele>
        <time>2017-01-29T07:51:42.000Z</time>
      </trkpt>
      <trkpt lat="44.5401" lon="0.64003">
        <ele>121.9</ele>
        <time>2017-01-29T07:51:43.000Z</time>
      </trkpt>
      <trkpt lat="44.54007" lon="0.64006">
        <ele>121.9</ele>
        <time>2017-01-29T07:51:44.000Z</time>
      </trkpt>
      <trkpt lat="44.54005" lon="0.6401">
        <ele>121.9</ele>
        <time>2017-01-29T07:51:45.000Z</time>
      </trkpt>
      <trkpt lat="44.54002" lon="0.64013">
        <ele>122</ele>
        <time>2017-01-29T07:51:46.000Z</time>
      </trkpt>
      <trkpt lat="44.54" lon="0.64016">
        <ele>122</ele>
        <time>2017-01-29T07:51:47.000Z</time>
      </trkpt>
      <trkpt lat="44.53997" lon="0.64019">
        <ele>122.1</ele>
        <time>2017-01-29T07:51:48.000Z</time>
      </trkpt>
      <trkpt lat="44.53994" lon="0.64021">
        <ele>122.1</ele>
        <time>2017-01-29T07:51:49.000Z</time>
      </trkpt>
      <trkpt lat="44.53992" lon="0.64024">
        <ele>122.2</ele>
        <time>2017-01-29T07:51:50.000Z</time>
      </trkpt>
      <trkpt lat="44.53989" lon="0.64026">
        <ele>122.2</ele>
        <time>2017-01-29T07:51:51.000Z</time>
      </trkpt>
      <trkpt lat="44.53987" lon="0.64028">
        <ele>122.3</ele>
        <time>2017-01-29T07:51:52.000Z</time>
      </trkpt>
      <trkpt lat="44.53984" lon="0.6403">
        <ele>122.3</ele>
        <time>2017-01-29T07:51:53.000Z</time>
      </trkpt>
      <trkpt lat="44.53981" lon="0.64031">
        <ele>122.4</ele>
        <time>2017-01-29T07:51:54.000Z</time>
      </trkpt>
      <trkpt lat="44.53979" lon="0.64032">
        <ele>122.4</ele>
        <time>2017-01-29T07:51:55.000Z</time>
      </trkpt>
      <trkpt lat="44.53976" lon="0.64034">
        <ele>122.5</ele>
        <time>2017-01-29T07:51:56.000Z</time>
      </trkpt>
      <trkpt lat="44.53974" lon="0.64034">
        <ele>122.5</ele>
        <time>2017-01-29T07:51:57.000Z</time>
      </trkpt>
      <trkpt lat="44.53971" lon="0.64035">
        <ele>122.6</ele>
        <time>2017-01-29T07:51:58.000Z</time>
      </trkpt>
      <trkpt lat="44.53968" lon="0.64036">
        <ele>122.6</ele>
        <time>2017-01-29T07:51:59.000Z</time>
      </trkpt>
      <trkpt lat="44.53966" lon="0.64036">
        <ele>122.6</ele>
        <time>2017-01-29T07:52:00.000Z</time>
      </trkpt>
      <trkpt lat="44.53963" lon="0.64037">
        <ele>122.7</ele>
        <time>2017-01-29T07:52:01.000Z</time>
      </trkpt>
      <trkpt lat="44.5396" lon="0.64037">
        <ele>122.7</ele>
        <time>2017-01-29T07:52:02.000Z</time>
      </trkpt>
      <trkpt lat="44.53958" lon="0.64038">
        <ele>122.8</ele>
        <time>2017-01-29T07:52:03.000Z</time>
      </trkpt>
      <trkpt lat="44.53955" lon="0.64039">
        <ele>122.8</ele>
        <time>2017-01-29T07:52:04.000Z</time>
      </trkpt>
      <trkpt lat="44.53953" lon="0.6404">
        <ele>122.9</ele>
        <time>2017-01-29T07:52:05.000Z</time>
      </trkpt>
      <trkpt lat="44.53951" lon="0.64042">
        <ele>122.9</ele>
        <time>2017-01-29T07:52:06.000Z</time>
      </trkpt>
      <trkpt lat="44.53948" lon="0.64043">
        <ele>122.9</ele>
        <time>2017-01-29T07:52:07.000Z</time>
      </trkpt>
      <trkpt lat="44.53946" lon="0.64045">
        <ele>122.9</ele>
        <time>2017-01-29T07:52:08.000Z</time>
      </trkpt>
      <trkpt lat="44.53945" lon="0.64047">
        <ele>123</ele>
        <time>2017-01-29T07:52:09.000Z</time>
      </trkpt>
      <trkpt lat="44.53943" lon="0.64049">
        <ele>123</ele>
        <time>2017-01-29T07:52:10.000Z</time>
      </trkpt>
      <trkpt lat="44.53941" lon="0.64051">
        <ele>123</ele>
        <time>2017-01-29T07:52:11.000Z</time>
      </trkpt>
      <trkpt lat="44.53939" lon="0.64053">
        <ele>123</ele>
        <time>2017-01-29T07:52:12.000Z</time>
      </trkpt>
      <trkpt lat="44.53936" lon="0.64055">
        <ele>123</ele>
        <time>2017-01-29T07:52:13.000Z</time>
      </trkpt>
      <trkpt lat="44.53934" lon="0.64058">
        <ele>123</ele>
        <time>2017-01-29T07:52:14.000Z</time>
      </trkpt>
      <trkpt lat="44.53931" lon="0.64059">
        <ele>123.1</ele>
        <time>2017-01-29T07:52:15.000Z</time>
      </trkpt>
      <trkpt lat="44.53928" lon="0.64061">
        <ele>123.1</ele>
        <time>2017-01-29T07:52:16.000Z</time>
      </trkpt>
      <trkpt lat="44.53926" lon="0.64063">
        <ele>123.1</ele>
        <time>2017-01-29T07:52:17.000Z</time>
      </trkpt>
      <trkpt lat="44.53923" lon="0.64064">
        <ele>123.1</ele>
        <time>2017-01-29T07:52:18.000Z</time>
      </trkpt>
      <trkpt lat="44.5392" lon="0.64065">
        <ele>123.2</ele>
        <time>2017-01-29T07:52:19.000Z</time>
      </trkpt>
      <trkpt lat="44.53918" lon="0.64065">
        <ele>123.2</ele>
        <time>2017-01-29T07:52:20.000Z</time>
      </trkpt>
      <trkpt lat="44.53915" lon="0.64066">
        <ele>123.3</ele>
        <time>2017-01-29T07:52:21.000Z</time>
      </trkpt>
      <trkpt lat="44.53912" lon="0.64066">
        <ele>123.3</ele>
        <time>2017-01-29T07:52:22.000Z</time>
      </trkpt>
      <trkpt lat="44.5391" lon="0.64065">
        <ele>123.4</ele>
        <time>2017-01-29T07:52:23.000Z</time>
      </trkpt>
      <trkpt lat="44.53908" lon="0.64065">
        <ele>123.5</ele>
        <time>2017-01-29T07:52:24.000Z</time>
      </trkpt>
      <trkpt lat="44.53905" lon="0.64065">
        <ele>123.5</ele>
        <time>2017-01-29T07:52:25.000Z</time>
      </trkpt>
      <trkpt lat="44.53903" lon="0.64066">
        <ele>123.6</ele>
        <time>2017-01-29T07:52:26.000Z</time>
      </trkpt>
      <trkpt lat="44.53901" lon="0.64066">
        <ele>123.6</ele>
        <time>2017-01-29T07:52:27.000Z</time>
      </trkpt>
      <trkpt lat="44.53899" lon="0.64067">
        <ele>123.7</ele>
        <time>2017-01-29T07:52:28.000Z</time>
      </trkpt>
      <trkpt lat="44.53896" lon="0.64069">
        <ele>123.7</ele>
        <time>2017-01-29T07:52:29.000Z</time>
      </trkpt>
      <trkpt lat="44.53895" lon="0.6407">
        <ele>123.7</ele>
        <time>2017-01-29T07:52:30.000Z</time>
      </trkpt>
      <trkpt lat="44.53893" lon="0.64072">
        <ele>123.7</ele>
        <time>2017-01-29T07:52:31.000Z</time>
      </trkpt>
      <trkpt lat="44.53891" lon="0.64074">
        <ele>123.8</ele>
        <time>2017-01-29T07:52:32.000Z</time>
      </trkpt>
      <trkpt lat="44.53889" lon="0.64077">
        <ele>123.8</ele>
        <time>2017-01-29T07:52:33.000Z</time>
      </trkpt>
      <trkpt lat="44.53887" lon="0.6408">
        <ele>123.8</ele>
        <time>2017-01-29T07:52:34.000Z</time>
      </trkpt>
      <trkpt lat="44.53886" lon="0.64083">
        <ele>123.8</ele>
        <time>2017-01-29T07:52:35.000Z</time>
      </trkpt>
      <trkpt lat="44.53884" lon="0.64086">
        <ele>123.8</ele>
        <time>2017-01-29T07:52:36.000Z</time>
      </trkpt>
      <trkpt lat="44.53882" lon="0.64089">
        <ele>123.9</ele>
        <time>2017-01-29T07:52:37.000Z</time>
      </trkpt>
      <trkpt lat="44.53881" lon="0.64092">
        <ele>124</ele>
        <time>2017-01-29T07:52:38.000Z</time>
      </trkpt>
      <trkpt lat="44.53879" lon="0.64096">
        <ele>124.1</ele>
        <time>2017-01-29T07:52:39.000Z</time>
      </trkpt>
      <trkpt lat="44.53878" lon="0.64099">
        <ele>124.2</ele>
        <time>2017-01-29T07:52:40.000Z</time>
      </trkpt>
      <trkpt lat="44.53876" lon="0.64103">
        <ele>124.3</ele>
        <time>2017-01-29T07:52:41.000Z</time>
      </trkpt>
      <trkpt lat="44.53875" lon="0.64106">
        <ele>124.4</ele>
        <time>2017-01-29T07:52:42.000Z</time>
      </trkpt>
      <trkpt lat="44.53873" lon="0.6411">
        <ele>124.5</ele>
        <time>2017-01-29T07:52:43.000Z</time>
      </trkpt>
      <trkpt lat="44.53871" lon="0.64113">
        <ele>124.6</ele>
        <time>2017-01-29T07:52:44.000Z</time>
      </trkpt>
      <trkpt lat="44.5387" lon="0.64117">
        <ele>124.6</ele>
        <time>2017-01-29T07:52:45.000Z</time>
      </trkpt>
      <trkpt lat="44.53868" lon="0.6412">
        <ele>124.7</ele>
        <time>2017-01-29T07:52:46.000Z</time>
      </trkpt>
      <trkpt lat="44.53867" lon="0.64123">
        <ele>124.8</ele>
        <time>2017-01-29T07:52:47.000Z</time>
      </trkpt>
      <trkpt lat="44.53865" lon="0.64126">
        <ele>124.8</ele>
        <time>2017-01-29T07:52:48.000Z</time>
      </trkpt>
      <trkpt lat="44.53864" lon="0.64129">
        <ele>124.9</ele>
        <time>2017-01-29T07:52:49.000Z</time>
      </trkpt>
      <trkpt lat="44.53862" lon="0.64132">
        <ele>124.9</ele>
        <time>2017-01-29T07:52:50.000Z</time>
      </trkpt>
      <trkpt lat="44.53861" lon="0.64135">
        <ele>125</ele>
        <time>2017-01-29T07:52:51.000Z</time>
      </trkpt>
      <trkpt lat="44.5386" lon="0.64138">
        <ele>125</ele>
        <time>2017-01-29T07:52:52.000Z</time>
      </trkpt>
      <trkpt lat="44.53859" lon="0.64141">
        <ele>125</ele>
        <time>2017-01-29T07:52:53.000Z</time>
      </trkpt>
      <trkpt lat="44.53857" lon="0.64144">
        <ele>125.1</ele>
        <time>2017-01-29T07:52:54.000Z</time>
      </trkpt>
      <trkpt lat="44.53856" lon="0.64148">
        <ele>125.1</ele>
        <time>2017-01-29T07:52:55.000Z</time>
      </trkpt>
      <trkpt lat="44.53854" lon="0.64151">
        <ele>125.1</ele>
        <time>2017-01-29T07:52:56.000Z</time>
      </trkpt>
      <trkpt lat="44.53853" lon="0.64155">
        <ele>125.1</ele>
        <time>2017-01-29T07:52:57.000Z</time>
      </trkpt>
      <trkpt lat="44.53852" lon="0.64159">
        <ele>125.2</ele>
        <time>2017-01-29T07:52:58.000Z</time>
      </trkpt>
      <trkpt lat="44.5385" lon="0.64162">
        <ele>125.2</ele>
        <time>2017-01-29T07:52:59.000Z</time>
      </trkpt>
      <trkpt lat="44.53849" lon="0.64166">
        <ele>125.2</ele>
        <time>2017-01-29T07:53:00.000Z</time>
      </trkpt>
      <trkpt lat="44.53847" lon="0.64169">
        <ele>125.2</ele>
        <time>2017-01-29T07:53:01.000Z</time>
      </trkpt>
      <trkpt lat="44.53847" lon="0.64173">
        <ele>125.2</ele>
        <time>2017-01-29T07:53:02.000Z</time>
      </trkpt>
      <trkpt lat="44.53847" lon="0.64178">
        <ele>125.3</ele>
        <time>2017-01-29T07:53:03.000Z</time>
      </trkpt>
      <trkpt lat="44.53847" lon="0.64181">
        <ele>125.3</ele>
        <time>2017-01-29T07:53:04.000Z</time>
      </trkpt>
      <trkpt lat="44.53846" lon="0.64185">
        <ele>125.4</ele>
        <time>2017-01-29T07:53:05.000Z</time>
      </trkpt>
      <trkpt lat="44.53845" lon="0.64188">
        <ele>125.4</ele>
        <time>2017-01-29T07:53:06.000Z</time>
      </trkpt>
      <trkpt lat="44.53844" lon="0.64191">
        <ele>125.4</ele>
        <time>2017-01-29T07:53:07.000Z</time>
      </trkpt>
      <trkpt lat="44.53843" lon="0.64195">
        <ele>125.4</ele>
        <time>2017-01-29T07:53:08.000Z</time>
      </trkpt>
      <trkpt lat="44.53842" lon="0.64198">
        <ele>125.5</ele>
        <time>2017-01-29T07:53:09.000Z</time>
      </trkpt>
      <trkpt lat="44.53841" lon="0.64202">
        <ele>125.5</ele>
        <time>2017-01-29T07:53:10.000Z</time>
      </trkpt>
      <trkpt lat="44.5384" lon="0.64206">
        <ele>125.5</ele>
        <time>2017-01-29T07:53:11.000Z</time>
      </trkpt>
      <trkpt lat="44.53839" lon="0.6421">
        <ele>125.6</ele>
        <time>2017-01-29T07:53:12.000Z</time>
      </trkpt>
      <trkpt lat="44.53838" lon="0.64213">
        <ele>125.6</ele>
        <time>2017-01-29T07:53:13.000Z</time>
      </trkpt>
      <trkpt lat="44.53837" lon="0.64217">
        <ele>125.6</ele>
        <time>2017-01-29T07:53:14.000Z</time>
      </trkpt>
      <trkpt lat="44.53836" lon="0.6422">
        <ele>125.7</ele>
        <time>2017-01-29T07:53:15.000Z</time>
      </trkpt>
      <trkpt lat="44.53835" lon="0.64223">
        <ele>125.7</ele>
        <time>2017-01-29T07:53:16.000Z</time>
      </trkpt>
      <trkpt lat="44.53835" lon="0.64226">
        <ele>125.7</ele>
        <time>2017-01-29T07:53:17.000Z</time>
      </trkpt>
      <trkpt lat="44.53834" lon="0.64229">
        <ele>125.8</ele>
        <time>2017-01-29T07:53:18.000Z</time>
      </trkpt>
      <trkpt lat="44.53833" lon="0.64232">
        <ele>125.8</ele>
        <time>2017-01-29T07:53:19.000Z</time>
      </trkpt>
      <trkpt lat="44.53832" lon="0.64235">
        <ele>125.9</ele>
        <time>2017-01-29T07:53:20.000Z</time>
      </trkpt>
      <trkpt lat="44.53832" lon="0.64238">
        <ele>125.9</ele>
        <time>2017-01-29T07:53:21.000Z</time>
      </trkpt>
      <trkpt lat="44.53831" lon="0.64241">
        <ele>126</ele>
        <time>2017-01-29T07:53:22.000Z</time>
      </trkpt>
      <trkpt lat="44.5383" lon="0.64244">
        <ele>126.1</ele>
        <time>2017-01-29T07:53:23.000Z</time>
      </trkpt>
      <trkpt lat="44.5383" lon="0.64247">
        <ele>126.1</ele>
        <time>2017-01-29T07:53:24.000Z</time>
      </trkpt>
      <trkpt lat="44.53829" lon="0.6425">
        <ele>126.2</ele>
        <time>2017-01-29T07:53:25.000Z</time>
      </trkpt>
      <trkpt lat="44.53828" lon="0.64253">
        <ele>126.4</ele>
        <time>2017-01-29T07:53:26.000Z</time>
      </trkpt>
      <trkpt lat="44.53828" lon="0.64257">
        <ele>126.7</ele>
        <time>2017-01-29T07:53:27.000Z</time>
      </trkpt>
      <trkpt lat="44.53827" lon="0.6426">
        <ele>126.9</ele>
        <time>2017-01-29T07:53:28.000Z</time>
      </trkpt>
      <trkpt lat="44.53826" lon="0.64264">
        <ele>127.1</ele>
        <time>2017-01-29T07:53:29.000Z</time>
      </trkpt>
      <trkpt lat="44.53826" lon="0.64267">
        <ele>127.4</ele>
        <time>2017-01-29T07:53:30.000Z</time>
      </trkpt>
      <trkpt lat="44.53825" lon="0.64271">
        <ele>127.6</ele>
        <time>2017-01-29T07:53:31.000Z</time>
      </trkpt>
      <trkpt lat="44.53824" lon="0.64274">
        <ele>127.8</ele>
        <time>2017-01-29T07:53:32.000Z</time>
      </trkpt>
      <trkpt lat="44.53823" lon="0.64278">
        <ele>128</ele>
        <time>2017-01-29T07:53:33.000Z</time>
      </trkpt>
      <trkpt lat="44.53823" lon="0.64281">
        <ele>128.2</ele>
        <time>2017-01-29T07:53:34.000Z</time>
      </trkpt>
      <trkpt lat="44.53822" lon="0.64284">
        <ele>128.4</ele>
        <time>2017-01-29T07:53:35.000Z</time>
      </trkpt>
      <trkpt lat="44.53822" lon="0.64288">
        <ele>128.6</ele>
        <time>2017-01-29T07:53:36.000Z</time>
      </trkpt>
      <trkpt lat="44.53823" lon="0.64292">
        <ele>128.8</ele>
        <time>2017-01-29T07:53:37.000Z</time>
      </trkpt>
      <trkpt lat="44.53823" lon="0.64295">
        <ele>129</ele>
        <time>2017-01-29T07:53:38.000Z</time>
      </trkpt>
      <trkpt lat="44.53824" lon="0.64298">
        <ele>129.1</ele>
        <time>2017-01-29T07:53:39.000Z</time>
      </trkpt>
      <trkpt lat="44.53826" lon="0.64301">
        <ele>129.2</ele>
        <time>2017-01-29T07:53:40.000Z</time>
      </trkpt>
      <trkpt lat="44.53828" lon="0.64304">
        <ele>129.4</ele>
        <time>2017-01-29T07:53:41.000Z</time>
      </trkpt>
      <trkpt lat="44.53829" lon="0.64306">
        <ele>129.5</ele>
        <time>2017-01-29T07:53:42.000Z</time>
      </trkpt>
      <trkpt lat="44.53831" lon="0.64309">
        <ele>129.6</ele>
        <time>2017-01-29T07:53:43.000Z</time>
      </trkpt>
      <trkpt lat="44.53833" lon="0.64311">
        <ele>129.7</ele>
        <time>2017-01-29T07:53:44.000Z</time>
      </trkpt>
      <trkpt lat="44.53835" lon="0.64314">
        <ele>129.8</ele>
        <time>2017-01-29T07:53:45.000Z</time>
      </trkpt>
      <trkpt lat="44.53836" lon="0.64317">
        <ele>130</ele>
        <time>2017-01-29T07:53:46.000Z</time>
      </trkpt>
      <trkpt lat="44.53838" lon="0.64319">
        <ele>130.2</ele>
        <time>2017-01-29T07:53:47.000Z</time>
      </trkpt>
      <trkpt lat="44.5384" lon="0.64322">
        <ele>130.3</ele>
        <time>2017-01-29T07:53:48.000Z</time>
      </trkpt>
      <trkpt lat="44.53842" lon="0.64324">
        <ele>130.5</ele>
        <time>2017-01-29T07:53:49.000Z</time>
      </trkpt>
      <trkpt lat="44.53844" lon="0.64327">
        <ele>130.6</ele>
        <time>2017-01-29T07:53:50.000Z</time>
      </trkpt>
      <trkpt lat="44.53845" lon="0.64329">
        <ele>130.7</ele>
        <time>2017-01-29T07:53:51.000Z</time>
      </trkpt>
      <trkpt lat="44.53847" lon="0.64331">
        <ele>130.9</ele>
        <time>2017-01-29T07:53:52.000Z</time>
      </trkpt>
      <trkpt lat="44.53849" lon="0.64334">
        <ele>131</ele>
        <time>2017-01-29T07:53:53.000Z</time>
      </trkpt>
      <trkpt lat="44.53851" lon="0.64336">
        <ele>131.1</ele>
        <time>2017-01-29T07:53:54.000Z</time>
      </trkpt>
      <trkpt lat="44.53852" lon="0.64339">
        <ele>131.1</ele>
        <time>2017-01-29T07:53:55.000Z</time>
      </trkpt>
      <trkpt lat="44.53854" lon="0.64341">
        <ele>131.2</ele>
        <time>2017-01-29T07:53:56.000Z</time>
      </trkpt>
      <trkpt lat="44.53855" lon="0.64343">
        <ele>131.3</ele>
        <time>2017-01-29T07:53:57.000Z</time>
      </trkpt>
      <trkpt lat="44.53857" lon="0.64345">
        <ele>131.3</ele>
        <time>2017-01-29T07:53:58.000Z</time>
      </trkpt>
      <trkpt lat="44.53858" lon="0.64347">
        <ele>131.4</ele>
        <time>2017-01-29T07:53:59.000Z</time>
      </trkpt>
      <trkpt lat="44.5386" lon="0.64349">
        <ele>131.4</ele>
        <time>2017-01-29T07:54:00.000Z</time>
      </trkpt>
      <trkpt lat="44.53861" lon="0.64351">
        <ele>131.4</ele>
        <time>2017-01-29T07:54:01.000Z</time>
      </trkpt>
      <trkpt lat="44.53862" lon="0.64353">
        <ele>131.5</ele>
        <time>2017-01-29T07:54:02.000Z</time>
      </trkpt>
      <trkpt lat="44.53864" lon="0.64354">
        <ele>131.5</ele>
        <time>2017-01-29T07:54:03.000Z</time>
      </trkpt>
      <trkpt lat="44.53865" lon="0.64356">
        <ele>131.5</ele>
        <time>2017-01-29T07:54:04.000Z</time>
      </trkpt>
      <trkpt lat="44.53866" lon="0.64358">
        <ele>131.5</ele>
        <time>2017-01-29T07:54:05.000Z</time>
      </trkpt>
      <trkpt lat="44.53868" lon="0.6436">
        <ele>131.6</ele>
        <time>2017-01-29T07:54:06.000Z</time>
      </trkpt>
      <trkpt lat="44.53869" lon="0.64362">
        <ele>131.6</ele>
        <time>2017-01-29T07:54:07.000Z</time>
      </trkpt>
      <trkpt lat="44.5387" lon="0.64364">
        <ele>131.6</ele>
        <time>2017-01-29T07:54:08.000Z</time>
      </trkpt>
      <trkpt lat="44.53871" lon="0.64366">
        <ele>131.6</ele>
        <time>2017-01-29T07:54:09.000Z</time>
      </trkpt>
      <trkpt lat="44.53872" lon="0.64368">
        <ele>131.7</ele>
        <time>2017-01-29T07:54:10.000Z</time>
      </trkpt>
      <trkpt lat="44.53872" lon="0.6437">
        <ele>131.7</ele>
        <time>2017-01-29T07:54:11.000Z</time>
      </trkpt>
      <trkpt lat="44.53872" lon="0.64373">
        <ele>131.8</ele>
        <time>2017-01-29T07:54:12.000Z</time>
      </trkpt>
      <trkpt lat="44.53871" lon="0.64375">
        <ele>131.8</ele>
        <time>2017-01-29T07:54:13.000Z</time>
      </trkpt>
      <trkpt lat="44.5387" lon="0.64376">
        <ele>131.9</ele>
        <time>2017-01-29T07:54:14.000Z</time>
      </trkpt>
      <trkpt lat="44.53869" lon="0.64377">
        <ele>131.9</ele>
        <time>2017-01-29T07:54:15.000Z</time>
      </trkpt>
      <trkpt lat="44.53868" lon="0.64379">
        <ele>132</ele>
        <time>2017-01-29T07:54:16.000Z</time>
      </trkpt>
      <trkpt lat="44.53866" lon="0.6438">
        <ele>132</ele>
        <time>2017-01-29T07:54:17.000Z</time>
      </trkpt>
      <trkpt lat="44.53865" lon="0.64382">
        <ele>132.1</ele>
        <time>2017-01-29T07:54:18.000Z</time>
      </trkpt>
      <trkpt lat="44.53864" lon="0.64384">
        <ele>132.1</ele>
        <time>2017-01-29T07:54:19.000Z</time>
      </trkpt>
      <trkpt lat="44.53863" lon="0.64385">
        <ele>132.2</ele>
        <time>2017-01-29T07:54:20.000Z</time>
      </trkpt>
      <trkpt lat="44.53862" lon="0.64387">
        <ele>132.3</ele>
        <time>2017-01-29T07:54:21.000Z</time>
      </trkpt>
      <trkpt lat="44.5386" lon="0.64389">
        <ele>132.4</ele>
        <time>2017-01-29T07:54:22.000Z</time>
      </trkpt>
      <trkpt lat="44.53859" lon="0.64391">
        <ele>132.4</ele>
        <time>2017-01-29T07:54:23.000Z</time>
      </trkpt>
      <trkpt lat="44.53858" lon="0.64392">
        <ele>132.5</ele>
        <time>2017-01-29T07:54:24.000Z</time>
      </trkpt>
      <trkpt lat="44.53856" lon="0.64394">
        <ele>132.6</ele>
        <time>2017-01-29T07:54:25.000Z</time>
      </trkpt>
      <trkpt lat="44.53855" lon="0.64395">
        <ele>132.7</ele>
        <time>2017-01-29T07:54:26.000Z</time>
      </trkpt>
      <trkpt lat="44.53853" lon="0.64397">
        <ele>132.7</ele>
        <time>2017-01-29T07:54:27.000Z</time>
      </trkpt>
      <trkpt lat="44.53852" lon="0.64399">
        <ele>132.8</ele>
        <time>2017-01-29T07:54:28.000Z</time>
      </trkpt>
      <trkpt lat="44.5385" lon="0.64401">
        <ele>132.9</ele>
        <time>2017-01-29T07:54:29.000Z</time>
      </trkpt>
      <trkpt lat="44.53849" lon="0.64403">
        <ele>133</ele>
        <time>2017-01-29T07:54:30.000Z</time>
      </trkpt>
      <trkpt lat="44.53848" lon="0.64405">
        <ele>133.1</ele>
        <time>2017-01-29T07:54:31.000Z</time>
      </trkpt>
      <trkpt lat="44.53846" lon="0.64407">
        <ele>133.2</ele>
        <time>2017-01-29T07:54:32.000Z</time>
      </trkpt>
      <trkpt lat="44.53845" lon="0.6441">
        <ele>133.4</ele>
        <time>2017-01-29T07:54:33.000Z</time>
      </trkpt>
      <trkpt lat="44.53844" lon="0.64412">
        <ele>133.5</ele>
        <time>2017-01-29T07:54:34.000Z</time>
      </trkpt>
      <trkpt lat="44.53842" lon="0.64414">
        <ele>133.6</ele>
        <time>2017-01-29T07:54:35.000Z</time>
      </trkpt>
      <trkpt lat="44.53841" lon="0.64417">
        <ele>133.7</ele>
        <time>2017-01-29T07:54:36.000Z</time>
      </trkpt>
      <trkpt lat="44.5384" lon="0.64419">
        <ele>133.7</ele>
        <time>2017-01-29T07:54:37.000Z</time>
      </trkpt>
      <trkpt lat="44.53838" lon="0.64421">
        <ele>133.7</ele>
        <time>2017-01-29T07:54:38.000Z</time>
      </trkpt>
      <trkpt lat="44.53836" lon="0.64423">
        <ele>133.7</ele>
        <time>2017-01-29T07:54:39.000Z</time>
      </trkpt>
      <trkpt lat="44.53835" lon="0.64425">
        <ele>133.8</ele>
        <time>2017-01-29T07:54:40.000Z</time>
      </trkpt>
      <trkpt lat="44.53833" lon="0.64426">
        <ele>133.8</ele>
        <time>2017-01-29T07:54:41.000Z</time>
      </trkpt>
      <trkpt lat="44.53831" lon="0.64428">
        <ele>133.8</ele>
        <time>2017-01-29T07:54:42.000Z</time>
      </trkpt>
      <trkpt lat="44.53829" lon="0.64429">
        <ele>133.9</ele>
        <time>2017-01-29T07:54:43.000Z</time>
      </trkpt>
      <trkpt lat="44.53826" lon="0.6443">
        <ele>133.9</ele>
        <time>2017-01-29T07:54:44.000Z</time>
      </trkpt>
      <trkpt lat="44.53824" lon="0.64432">
        <ele>134</ele>
        <time>2017-01-29T07:54:45.000Z</time>
      </trkpt>
      <trkpt lat="44.53822" lon="0.64433">
        <ele>134.1</ele>
        <time>2017-01-29T07:54:46.000Z</time>
      </trkpt>
      <trkpt lat="44.5382" lon="0.64434">
        <ele>134.1</ele>
        <time>2017-01-29T07:54:47.000Z</time>
      </trkpt>
      <trkpt lat="44.53818" lon="0.64435">
        <ele>134.2</ele>
        <time>2017-01-29T07:54:48.000Z</time>
      </trkpt>
      <trkpt lat="44.53815" lon="0.64436">
        <ele>134.3</ele>
        <time>2017-01-29T07:54:49.000Z</time>
      </trkpt>
      <trkpt lat="44.53813" lon="0.64438">
        <ele>134.4</ele>
        <time>2017-01-29T07:54:50.000Z</time>
      </trkpt>
      <trkpt lat="44.53811" lon="0.64439">
        <ele>134.5</ele>
        <time>2017-01-29T07:54:51.000Z</time>
      </trkpt>
      <trkpt lat="44.53809" lon="0.6444">
        <ele>134.6</ele>
        <time>2017-01-29T07:54:52.000Z</time>
      </trkpt>
      <trkpt lat="44.53807" lon="0.64441">
        <ele>134.7</ele>
        <time>2017-01-29T07:54:53.000Z</time>
      </trkpt>
      <trkpt lat="44.53805" lon="0.64443">
        <ele>134.8</ele>
        <time>2017-01-29T07:54:54.000Z</time>
      </trkpt>
      <trkpt lat="44.53803" lon="0.64444">
        <ele>134.9</ele>
        <time>2017-01-29T07:54:55.000Z</time>
      </trkpt>
      <trkpt lat="44.538" lon="0.64445">
        <ele>135.1</ele>
        <time>2017-01-29T07:54:56.000Z</time>
      </trkpt>
      <trkpt lat="44.53798" lon="0.64447">
        <ele>135.2</ele>
        <time>2017-01-29T07:54:57.000Z</time>
      </trkpt>
      <trkpt lat="44.53796" lon="0.64448">
        <ele>135.3</ele>
        <time>2017-01-29T07:54:58.000Z</time>
      </trkpt>
      <trkpt lat="44.53794" lon="0.64449">
        <ele>135.4</ele>
        <time>2017-01-29T07:54:59.000Z</time>
      </trkpt>
      <trkpt lat="44.53792" lon="0.64451">
        <ele>135.6</ele>
        <time>2017-01-29T07:55:00.000Z</time>
      </trkpt>
      <trkpt lat="44.5379" lon="0.64452">
        <ele>135.7</ele>
        <time>2017-01-29T07:55:01.000Z</time>
      </trkpt>
      <trkpt lat="44.53788" lon="0.64453">
        <ele>135.9</ele>
        <time>2017-01-29T07:55:02.000Z</time>
      </trkpt>
      <trkpt lat="44.53786" lon="0.64454">
        <ele>136</ele>
        <time>2017-01-29T07:55:03.000Z</time>
      </trkpt>
      <trkpt lat="44.53784" lon="0.64456">
        <ele>136.2</ele>
        <time>2017-01-29T07:55:04.000Z</time>
      </trkpt>
      <trkpt lat="44.53782" lon="0.64457">
        <ele>136.4</ele>
        <time>2017-01-29T07:55:05.000Z</time>
      </trkpt>
      <trkpt lat="44.53779" lon="0.64458">
        <ele>136.5</ele>
        <time>2017-01-29T07:55:06.000Z</time>
      </trkpt>
      <trkpt lat="44.53777" lon="0.64459">
        <ele>136.7</ele>
        <time>2017-01-29T07:55:07.000Z</time>
      </trkpt>
      <trkpt lat="44.53775" lon="0.64461">
        <ele>136.9</ele>
        <time>2017-01-29T07:55:08.000Z</time>
      </trkpt>
      <trkpt lat="44.53773" lon="0.64462">
        <ele>137.1</ele>
        <time>2017-01-29T07:55:09.000Z</time>
      </trkpt>
      <trkpt lat="44.53771" lon="0.64463">
        <ele>137.3</ele>
        <time>2017-01-29T07:55:10.000Z</time>
      </trkpt>
      <trkpt lat="44.53769" lon="0.64465">
        <ele>137.5</ele>
        <time>2017-01-29T07:55:11.000Z</time>
      </trkpt>
      <trkpt lat="44.53767" lon="0.64466">
        <ele>137.7</ele>
        <time>2017-01-29T07:55:12.000Z</time>
      </trkpt>
      <trkpt lat="44.53765" lon="0.64467">
        <ele>137.9</ele>
        <time>2017-01-29T07:55:13.000Z</time>
      </trkpt>
      <trkpt lat="44.53763" lon="0.64469">
        <ele>138.1</ele>
        <time>2017-01-29T07:55:14.000Z</time>
      </trkpt>
      <trkpt lat="44.53761" lon="0.6447">
        <ele>138.3</ele>
        <time>2017-01-29T07:55:15.000Z</time>
      </trkpt>
      <trkpt lat="44.53759" lon="0.64472">
        <ele>138.6</ele>
        <time>2017-01-29T07:55:16.000Z</time>
      </trkpt>
      <trkpt lat="44.53757" lon="0.64473">
        <ele>138.8</ele>
        <time>2017-01-29T07:55:17.000Z</time>
      </trkpt>
      <trkpt lat="44.53755" lon="0.64474">
        <ele>139.1</ele>
        <time>2017-01-29T07:55:18.000Z</time>
      </trkpt>
      <trkpt lat="44.53753" lon="0.64476">
        <ele>139.3</ele>
        <time>2017-01-29T07:55:19.000Z</time>
      </trkpt>
      <trkpt lat="44.53751" lon="0.64477">
        <ele>139.6</ele>
        <time>2017-01-29T07:55:20.000Z</time>
      </trkpt>
      <trkpt lat="44.53749" lon="0.64479">
        <ele>139.8</ele>
        <time>2017-01-29T07:55:21.000Z</time>
      </trkpt>
      <trkpt lat="44.53747" lon="0.6448">
        <ele>140.1</ele>
        <time>2017-01-29T07:55:22.000Z</time>
      </trkpt>
      <trkpt lat="44.53744" lon="0.64481">
        <ele>140.4</ele>
        <time>2017-01-29T07:55:23.000Z</time>
      </trkpt>
      <trkpt lat="44.53742" lon="0.64483">
        <ele>140.6</ele>
        <time>2017-01-29T07:55:24.000Z</time>
      </trkpt>
      <trkpt lat="44.5374" lon="0.64484">
        <ele>140.9</ele>
        <time>2017-01-29T07:55:25.000Z</time>
      </trkpt>
      <trkpt lat="44.53738" lon="0.64486">
        <ele>141.2</ele>
        <time>2017-01-29T07:55:26.000Z</time>
      </trkpt>
      <trkpt lat="44.53736" lon="0.64487">
        <ele>141.5</ele>
        <time>2017-01-29T07:55:27.000Z</time>
      </trkpt>
      <trkpt lat="44.53734" lon="0.64489">
        <ele>141.7</ele>
        <time>2017-01-29T07:55:28.000Z</time>
      </trkpt>
      <trkpt lat="44.53732" lon="0.6449">
        <ele>142</ele>
        <time>2017-01-29T07:55:29.000Z</time>
      </trkpt>
      <trkpt lat="44.5373" lon="0.64492">
        <ele>142.2</ele>
        <time>2017-01-29T07:55:30.000Z</time>
      </trkpt>
      <trkpt lat="44.53728" lon="0.64493">
        <ele>142.5</ele>
        <time>2017-01-29T07:55:31.000Z</time>
      </trkpt>
      <trkpt lat="44.53726" lon="0.64495">
        <ele>142.7</ele>
        <time>2017-01-29T07:55:32.000Z</time>
      </trkpt>
      <trkpt lat="44.53724" lon="0.64496">
        <ele>143</ele>
        <time>2017-01-29T07:55:33.000Z</time>
      </trkpt>
      <trkpt lat="44.53722" lon="0.64498">
        <ele>143.2</ele>
        <time>2017-01-29T07:55:34.000Z</time>
      </trkpt>
      <trkpt lat="44.5372" lon="0.64499">
        <ele>143.5</ele>
        <time>2017-01-29T07:55:35.000Z</time>
      </trkpt>
      <trkpt lat="44.53718" lon="0.64501">
        <ele>143.7</ele>
        <time>2017-01-29T07:55:36.000Z</time>
      </trkpt>
      <trkpt lat="44.53716" lon="0.64502">
        <ele>143.9</ele>
        <time>2017-01-29T07:55:37.000Z</time>
      </trkpt>
      <trkpt lat="44.53714" lon="0.64504">
        <ele>144</ele>
        <time>2017-01-29T07:55:38.000Z</time>
      </trkpt>
      <trkpt lat="44.53712" lon="0.64505">
        <ele>144.2</ele>
        <time>2017-01-29T07:55:39.000Z</time>
      </trkpt>
      <trkpt lat="44.5371" lon="0.64507">
        <ele>144.4</ele>
        <time>2017-01-29T07:55:40.000Z</time>
      </trkpt>
      <trkpt lat="44.53708" lon="0.64508">
        <ele>144.5</ele>
        <time>2017-01-29T07:55:41.000Z</time>
      </trkpt>
      <trkpt lat="44.53706" lon="0.6451">
        <ele>144.7</ele>
        <time>2017-01-29T07:55:42.000Z</time>
      </trkpt>
      <trkpt lat="44.53704" lon="0.64511">
        <ele>144.8</ele>
        <time>2017-01-29T07:55:43.000Z</time>
      </trkpt>
      <trkpt lat="44.53702" lon="0.64513">
        <ele>144.9</ele>
        <time>2017-01-29T07:55:44.000Z</time>
      </trkpt>
      <trkpt lat="44.537" lon="0.64514">
        <ele>145.1</ele>
        <time>2017-01-29T07:55:45.000Z</time>
      </trkpt>
      <trkpt lat="44.53698" lon="0.64516">
        <ele>145.2</ele>
        <time>2017-01-29T07:55:46.000Z</time>
      </trkpt>
      <trkpt lat="44.53696" lon="0.64517">
        <ele>145.3</ele>
        <time>2017-01-29T07:55:47.000Z</time>
      </trkpt>
      <trkpt lat="44.53694" lon="0.64518">
        <ele>145.5</ele>
        <time>2017-01-29T07:55:48.000Z</time>
      </trkpt>
      <trkpt lat="44.53693" lon="0.6452">
        <ele>145.6</ele>
        <time>2017-01-29T07:55:49.000Z</time>
      </trkpt>
      <trkpt lat="44.53691" lon="0.64521">
        <ele>145.7</ele>
        <time>2017-01-29T07:55:50.000Z</time>
      </trkpt>
      <trkpt lat="44.53689" lon="0.64523">
        <ele>145.8</ele>
        <time>2017-01-29T07:55:51.000Z</time>
      </trkpt>
      <trkpt lat="44.53687" lon="0.64524">
        <ele>145.9</ele>
        <time>2017-01-29T07:55:52.000Z</time>
      </trkpt>
      <trkpt lat="44.53685" lon="0.64525">
        <ele>146</ele>
        <time>2017-01-29T07:55:53.000Z</time>
      </trkpt>
      <trkpt lat="44.53683" lon="0.64527">
        <ele>146.1</ele>
        <time>2017-01-29T07:55:54.000Z</time>
      </trkpt>
      <trkpt lat="44.53681" lon="0.64528">
        <ele>146.1</ele>
        <time>2017-01-29T07:55:55.000Z</time>
      </trkpt>
      <trkpt lat="44.53679" lon="0.64529">
        <ele>146.2</ele>
        <time>2017-01-29T07:55:56.000Z</time>
      </trkpt>
      <trkpt lat="44.53677" lon="0.6453">
        <ele>146.3</ele>
        <time>2017-01-29T07:55:57.000Z</time>
      </trkpt>
      <trkpt lat="44.53675" lon="0.64532">
        <ele>146.4</ele>
        <time>2017-01-29T07:55:58.000Z</time>
      </trkpt>
      <trkpt lat="44.53673" lon="0.64533">
        <ele>146.4</ele>
        <time>2017-01-29T07:55:59.000Z</time>
      </trkpt>
      <trkpt lat="44.53672" lon="0.64534">
        <ele>146.5</ele>
        <time>2017-01-29T07:56:00.000Z</time>
      </trkpt>
      <trkpt lat="44.5367" lon="0.64535">
        <ele>146.6</ele>
        <time>2017-01-29T07:56:01.000Z</time>
      </trkpt>
      <trkpt lat="44.53668" lon="0.64536">
        <ele>146.6</ele>
        <time>2017-01-29T07:56:02.000Z</time>
      </trkpt>
      <trkpt lat="44.53666" lon="0.64537">
        <ele>146.6</ele>
        <time>2017-01-29T07:56:03.000Z</time>
      </trkpt>
      <trkpt lat="44.53664" lon="0.64538">
        <ele>146.5</ele>
        <time>2017-01-29T07:56:04.000Z</time>
      </trkpt>
      <trkpt lat="44.53663" lon="0.64539">
        <ele>146.4</ele>
        <time>2017-01-29T07:56:05.000Z</time>
      </trkpt>
      <trkpt lat="44.53661" lon="0.6454">
        <ele>146.2</ele>
        <time>2017-01-29T07:56:06.000Z</time>
      </trkpt>
      <trkpt lat="44.53659" lon="0.64541">
        <ele>146.1</ele>
        <time>2017-01-29T07:56:07.000Z</time>
      </trkpt>
      <trkpt lat="44.53658" lon="0.64541">
        <ele>146</ele>
        <time>2017-01-29T07:56:08.000Z</time>
      </trkpt>
      <trkpt lat="44.53656" lon="0.64542">
        <ele>145.9</ele>
        <time>2017-01-29T07:56:09.000Z</time>
      </trkpt>
      <trkpt lat="44.53654" lon="0.64542">
        <ele>145.8</ele>
        <time>2017-01-29T07:56:10.000Z</time>
      </trkpt>
      <trkpt lat="44.53652" lon="0.64542">
        <ele>145.7</ele>
        <time>2017-01-29T07:56:11.000Z</time>
      </trkpt>
      <trkpt lat="44.5365" lon="0.64543">
        <ele>145.6</ele>
        <time>2017-01-29T07:56:12.000Z</time>
      </trkpt>
      <trkpt lat="44.53648" lon="0.64543">
        <ele>145.5</ele>
        <time>2017-01-29T07:56:13.000Z</time>
      </trkpt>
      <trkpt lat="44.53646" lon="0.64543">
        <ele>145.3</ele>
        <time>2017-01-29T07:56:14.000Z</time>
      </trkpt>
      <trkpt lat="44.53644" lon="0.64544">
        <ele>145.2</ele>
        <time>2017-01-29T07:56:15.000Z</time>
      </trkpt>
      <trkpt lat="44.53643" lon="0.64544">
        <ele>145.1</ele>
        <time>2017-01-29T07:56:16.000Z</time>
      </trkpt>
      <trkpt lat="44.53641" lon="0.64544">
        <ele>145.1</ele>
        <time>2017-01-29T07:56:17.000Z</time>
      </trkpt>
      <trkpt lat="44.5364" lon="0.64545">
        <ele>145</ele>
        <time>2017-01-29T07:56:18.000Z</time>
      </trkpt>
      <trkpt lat="44.53639" lon="0.64547">
        <ele>144.8</ele>
        <time>2017-01-29T07:56:19.000Z</time>
      </trkpt>
      <trkpt lat="44.53639" lon="0.6455">
        <ele>144.7</ele>
        <time>2017-01-29T07:56:20.000Z</time>
      </trkpt>
      <trkpt lat="44.53638" lon="0.64554">
        <ele>144.6</ele>
        <time>2017-01-29T07:56:21.000Z</time>
      </trkpt>
      <trkpt lat="44.53639" lon="0.64557">
        <ele>144.5</ele>
        <time>2017-01-29T07:56:22.000Z</time>
      </trkpt>
      <trkpt lat="44.53639" lon="0.64561">
        <ele>144.4</ele>
        <time>2017-01-29T07:56:23.000Z</time>
      </trkpt>
      <trkpt lat="44.5364" lon="0.64564">
        <ele>144.3</ele>
        <time>2017-01-29T07:56:24.000Z</time>
      </trkpt>
      <trkpt lat="44.5364" lon="0.64567">
        <ele>144.2</ele>
        <time>2017-01-29T07:56:25.000Z</time>
      </trkpt>
      <trkpt lat="44.53641" lon="0.64571">
        <ele>144.1</ele>
        <time>2017-01-29T07:56:26.000Z</time>
      </trkpt>
      <trkpt lat="44.53641" lon="0.64574">
        <ele>144.1</ele>
        <time>2017-01-29T07:56:27.000Z</time>
      </trkpt>
      <trkpt lat="44.53641" lon="0.64578">
        <ele>144</ele>
        <time>2017-01-29T07:56:28.000Z</time>
      </trkpt>
      <trkpt lat="44.53641" lon="0.64581">
        <ele>143.9</ele>
        <time>2017-01-29T07:56:29.000Z</time>
      </trkpt>
      <trkpt lat="44.53642" lon="0.64584">
        <ele>143.8</ele>
        <time>2017-01-29T07:56:30.000Z</time>
      </trkpt>
      <trkpt lat="44.53642" lon="0.64588">
        <ele>143.8</ele>
        <time>2017-01-29T07:56:31.000Z</time>
      </trkpt>
      <trkpt lat="44.53642" lon="0.64591">
        <ele>143.8</ele>
        <time>2017-01-29T07:56:32.000Z</time>
      </trkpt>
      <trkpt lat="44.53642" lon="0.64595">
        <ele>143.7</ele>
        <time>2017-01-29T07:56:33.000Z</time>
      </trkpt>
      <trkpt lat="44.53642" lon="0.64598">
        <ele>143.7</ele>
        <time>2017-01-29T07:56:34.000Z</time>
      </trkpt>
      <trkpt lat="44.53643" lon="0.64602">
        <ele>143.7</ele>
        <time>2017-01-29T07:56:35.000Z</time>
      </trkpt>
      <trkpt lat="44.53643" lon="0.64606">
        <ele>143.7</ele>
        <time>2017-01-29T07:56:36.000Z</time>
      </trkpt>
      <trkpt lat="44.53643" lon="0.6461">
        <ele>143.7</ele>
        <time>2017-01-29T07:56:37.000Z</time>
      </trkpt>
      <trkpt lat="44.53643" lon="0.64613">
        <ele>143.7</ele>
        <time>2017-01-29T07:56:38.000Z</time>
      </trkpt>
      <trkpt lat="44.53644" lon="0.64617">
        <ele>143.7</ele>
        <time>2017-01-29T07:56:39.000Z</time>
      </trkpt>
      <trkpt lat="44.53644" lon="0.64621">
        <ele>143.7</ele>
        <time>2017-01-29T07:56:40.000Z</time>
      </trkpt>
      <trkpt lat="44.53644" lon="0.64626">
        <ele>143.7</ele>
        <time>2017-01-29T07:56:41.000Z</time>
      </trkpt>
      <trkpt lat="44.53645" lon="0.6463">
        <ele>143.6</ele>
        <time>2017-01-29T07:56:42.000Z</time>
      </trkpt>
      <trkpt lat="44.53645" lon="0.64634">
        <ele>143.6</ele>
        <time>2017-01-29T07:56:43.000Z</time>
      </trkpt>
      <trkpt lat="44.53645" lon="0.64638">
        <ele>143.6</ele>
        <time>2017-01-29T07:56:44.000Z</time>
      </trkpt>
      <trkpt lat="44.53645" lon="0.64642">
        <ele>143.6</ele>
        <time>2017-01-29T07:56:45.000Z</time>
      </trkpt>
      <trkpt lat="44.53646" lon="0.64646">
        <ele>143.6</ele>
        <time>2017-01-29T07:56:46.000Z</time>
      </trkpt>
      <trkpt lat="44.53646" lon="0.6465">
        <ele>143.6</ele>
        <time>2017-01-29T07:56:47.000Z</time>
      </trkpt>
      <trkpt lat="44.53646" lon="0.64655">
        <ele>143.6</ele>
        <time>2017-01-29T07:56:48.000Z</time>
      </trkpt>
      <trkpt lat="44.53647" lon="0.64659">
        <ele>143.6</ele>
        <time>2017-01-29T07:56:49.000Z</time>
      </trkpt>
      <trkpt lat="44.53647" lon="0.64663">
        <ele>143.6</ele>
        <time>2017-01-29T07:56:50.000Z</time>
      </trkpt>
      <trkpt lat="44.53647" lon="0.64667">
        <ele>143.6</ele>
        <time>2017-01-29T07:56:51.000Z</time>
      </trkpt>
      <trkpt lat="44.53647" lon="0.64671">
        <ele>143.7</ele>
        <time>2017-01-29T07:56:52.000Z</time>
      </trkpt>
      <trkpt lat="44.53647" lon="0.64676">
        <ele>143.8</ele>
        <time>2017-01-29T07:56:53.000Z</time>
      </trkpt>
      <trkpt lat="44.53648" lon="0.6468">
        <ele>144</ele>
        <time>2017-01-29T07:56:54.000Z</time>
      </trkpt>
      <trkpt lat="44.53648" lon="0.64684">
        <ele>144.1</ele>
        <time>2017-01-29T07:56:55.000Z</time>
      </trkpt>
      <trkpt lat="44.53648" lon="0.64688">
        <ele>144.2</ele>
        <time>2017-01-29T07:56:56.000Z</time>
      </trkpt>
      <trkpt lat="44.53648" lon="0.64692">
        <ele>144.3</ele>
        <time>2017-01-29T07:56:57.000Z</time>
      </trkpt>
      <trkpt lat="44.53648" lon="0.64696">
        <ele>144.4</ele>
        <time>2017-01-29T07:56:58.000Z</time>
      </trkpt>
      <trkpt lat="44.53648" lon="0.647">
        <ele>144.5</ele>
        <time>2017-01-29T07:56:59.000Z</time>
      </trkpt>
      <trkpt lat="44.53648" lon="0.64704">
        <ele>144.7</ele>
        <time>2017-01-29T07:57:00.000Z</time>
      </trkpt>
      <trkpt lat="44.53648" lon="0.64708">
        <ele>144.8</ele>
        <time>2017-01-29T07:57:01.000Z</time>
      </trkpt>
      <trkpt lat="44.53648" lon="0.64712">
        <ele>144.9</ele>
        <time>2017-01-29T07:57:02.000Z</time>
      </trkpt>
      <trkpt lat="44.53648" lon="0.64716">
        <ele>145</ele>
        <time>2017-01-29T07:57:03.000Z</time>
      </trkpt>
      <trkpt lat="44.53648" lon="0.64719">
        <ele>145.1</ele>
        <time>2017-01-29T07:57:04.000Z</time>
      </trkpt>
      <trkpt lat="44.53648" lon="0.64723">
        <ele>145.1</ele>
        <time>2017-01-29T07:57:05.000Z</time>
      </trkpt>
      <trkpt lat="44.53648" lon="0.64727">
        <ele>145.2</ele>
        <time>2017-01-29T07:57:06.000Z</time>
      </trkpt>
      <trkpt lat="44.53647" lon="0.64731">
        <ele>145.3</ele>
        <time>2017-01-29T07:57:07.000Z</time>
      </trkpt>
      <trkpt lat="44.53647" lon="0.64735">
        <ele>145.4</ele>
        <time>2017-01-29T07:57:08.000Z</time>
      </trkpt>
      <trkpt lat="44.53647" lon="0.64739">
        <ele>145.5</ele>
        <time>2017-01-29T07:57:09.000Z</time>
      </trkpt>
      <trkpt lat="44.53647" lon="0.64743">
        <ele>145.6</ele>
        <time>2017-01-29T07:57:10.000Z</time>
      </trkpt>
      <trkpt lat="44.53646" lon="0.64747">
        <ele>145.7</ele>
        <time>2017-01-29T07:57:11.000Z</time>
      </trkpt>
      <trkpt lat="44.53646" lon="0.64751">
        <ele>145.8</ele>
        <time>2017-01-29T07:57:12.000Z</time>
      </trkpt>
      <trkpt lat="44.53646" lon="0.64756">
        <ele>145.9</ele>
        <time>2017-01-29T07:57:13.000Z</time>
      </trkpt>
      <trkpt lat="44.53645" lon="0.6476">
        <ele>146</ele>
        <time>2017-01-29T07:57:14.000Z</time>
      </trkpt>
      <trkpt lat="44.53645" lon="0.64764">
        <ele>146</ele>
        <time>2017-01-29T07:57:15.000Z</time>
      </trkpt>
      <trkpt lat="44.53645" lon="0.64769">
        <ele>146.1</ele>
        <time>2017-01-29T07:57:16.000Z</time>
      </trkpt>
      <trkpt lat="44.53644" lon="0.64773">
        <ele>146.2</ele>
        <time>2017-01-29T07:57:17.000Z</time>
      </trkpt>
      <trkpt lat="44.53644" lon="0.64777">
        <ele>146.3</ele>
        <time>2017-01-29T07:57:18.000Z</time>
      </trkpt>
      <trkpt lat="44.53643" lon="0.64782">
        <ele>146.3</ele>
        <time>2017-01-29T07:57:19.000Z</time>
      </trkpt>
      <trkpt lat="44.53643" lon="0.64786">
        <ele>146.4</ele>
        <time>2017-01-29T07:57:20.000Z</time>
      </trkpt>
      <trkpt lat="44.53642" lon="0.6479">
        <ele>146.5</ele>
        <time>2017-01-29T07:57:21.000Z</time>
      </trkpt>
      <trkpt lat="44.53642" lon="0.64795">
        <ele>146.6</ele>
        <time>2017-01-29T07:57:22.000Z</time>
      </trkpt>
      <trkpt lat="44.53641" lon="0.64799">
        <ele>146.6</ele>
        <time>2017-01-29T07:57:23.000Z</time>
      </trkpt>
      <trkpt lat="44.5364" lon="0.64803">
        <ele>146.7</ele>
        <time>2017-01-29T07:57:24.000Z</time>
      </trkpt>
      <trkpt lat="44.5364" lon="0.64808">
        <ele>146.8</ele>
        <time>2017-01-29T07:57:25.000Z</time>
      </trkpt>
      <trkpt lat="44.53639" lon="0.64812">
        <ele>146.8</ele>
        <time>2017-01-29T07:57:26.000Z</time>
      </trkpt>
      <trkpt lat="44.53639" lon="0.64816">
        <ele>146.9</ele>
        <time>2017-01-29T07:57:27.000Z</time>
      </trkpt>
      <trkpt lat="44.53638" lon="0.6482">
        <ele>147</ele>
        <time>2017-01-29T07:57:28.000Z</time>
      </trkpt>
      <trkpt lat="44.53638" lon="0.64824">
        <ele>147</ele>
        <time>2017-01-29T07:57:29.000Z</time>
      </trkpt>
      <trkpt lat="44.53637" lon="0.64828">
        <ele>147.1</ele>
        <time>2017-01-29T07:57:30.000Z</time>
      </trkpt>
      <trkpt lat="44.53636" lon="0.64833">
        <ele>147.2</ele>
        <time>2017-01-29T07:57:31.000Z</time>
      </trkpt>
      <trkpt lat="44.53636" lon="0.64837">
        <ele>147.2</ele>
        <time>2017-01-29T07:57:32.000Z</time>
      </trkpt>
      <trkpt lat="44.53635" lon="0.64841">
        <ele>147.2</ele>
        <time>2017-01-29T07:57:33.000Z</time>
      </trkpt>
      <trkpt lat="44.53635" lon="0.64845">
        <ele>147.2</ele>
        <time>2017-01-29T07:57:34.000Z</time>
      </trkpt>
      <trkpt lat="44.53634" lon="0.64849">
        <ele>147.2</ele>
        <time>2017-01-29T07:57:35.000Z</time>
      </trkpt>
      <trkpt lat="44.53634" lon="0.64853">
        <ele>147.2</ele>
        <time>2017-01-29T07:57:36.000Z</time>
      </trkpt>
      <trkpt lat="44.53633" lon="0.64857">
        <ele>147.2</ele>
        <time>2017-01-29T07:57:37.000Z</time>
      </trkpt>
      <trkpt lat="44.53633" lon="0.64861">
        <ele>147.2</ele>
        <time>2017-01-29T07:57:38.000Z</time>
      </trkpt>
      <trkpt lat="44.53632" lon="0.64865">
        <ele>147.2</ele>
        <time>2017-01-29T07:57:39.000Z</time>
      </trkpt>
      <trkpt lat="44.53632" lon="0.6487">
        <ele>147.3</ele>
        <time>2017-01-29T07:57:40.000Z</time>
      </trkpt>
      <trkpt lat="44.53631" lon="0.64874">
        <ele>147.3</ele>
        <time>2017-01-29T07:57:41.000Z</time>
      </trkpt>
      <trkpt lat="44.53631" lon="0.64878">
        <ele>147.3</ele>
        <time>2017-01-29T07:57:42.000Z</time>
      </trkpt>
      <trkpt lat="44.5363" lon="0.64883">
        <ele>147.3</ele>
        <time>2017-01-29T07:57:43.000Z</time>
      </trkpt>
      <trkpt lat="44.5363" lon="0.64887">
        <ele>147.4</ele>
        <time>2017-01-29T07:57:44.000Z</time>
      </trkpt>
      <trkpt lat="44.5363" lon="0.64891">
        <ele>147.4</ele>
        <time>2017-01-29T07:57:45.000Z</time>
      </trkpt>
      <trkpt lat="44.53629" lon="0.64895">
        <ele>147.4</ele>
        <time>2017-01-29T07:57:46.000Z</time>
      </trkpt>
      <trkpt lat="44.53628" lon="0.64899">
        <ele>147.4</ele>
        <time>2017-01-29T07:57:47.000Z</time>
      </trkpt>
      <trkpt lat="44.53628" lon="0.64903">
        <ele>147.4</ele>
        <time>2017-01-29T07:57:48.000Z</time>
      </trkpt>
      <trkpt lat="44.53627" lon="0.64907">
        <ele>147.5</ele>
        <time>2017-01-29T07:57:49.000Z</time>
      </trkpt>
      <trkpt lat="44.53626" lon="0.6491">
        <ele>147.5</ele>
        <time>2017-01-29T07:57:50.000Z</time>
      </trkpt>
      <trkpt lat="44.53626" lon="0.64914">
        <ele>147.5</ele>
        <time>2017-01-29T07:57:51.000Z</time>
      </trkpt>
      <trkpt lat="44.53625" lon="0.64918">
        <ele>147.5</ele>
        <time>2017-01-29T07:57:52.000Z</time>
      </trkpt>
      <trkpt lat="44.53624" lon="0.64922">
        <ele>147.4</ele>
        <time>2017-01-29T07:57:53.000Z</time>
      </trkpt>
      <trkpt lat="44.53624" lon="0.64926">
        <ele>147.4</ele>
        <time>2017-01-29T07:57:54.000Z</time>
      </trkpt>
      <trkpt lat="44.53623" lon="0.6493">
        <ele>147.4</ele>
        <time>2017-01-29T07:57:55.000Z</time>
      </trkpt>
      <trkpt lat="44.53622" lon="0.64934">
        <ele>147.3</ele>
        <time>2017-01-29T07:57:56.000Z</time>
      </trkpt>
      <trkpt lat="44.53621" lon="0.64938">
        <ele>147.3</ele>
        <time>2017-01-29T07:57:57.000Z</time>
      </trkpt>
      <trkpt lat="44.5362" lon="0.64942">
        <ele>147.2</ele>
        <time>2017-01-29T07:57:58.000Z</time>
      </trkpt>
      <trkpt lat="44.53619" lon="0.64946">
        <ele>147.2</ele>
        <time>2017-01-29T07:57:59.000Z</time>
      </trkpt>
      <trkpt lat="44.53618" lon="0.6495">
        <ele>147.2</ele>
        <time>2017-01-29T07:58:00.000Z</time>
      </trkpt>
      <trkpt lat="44.53617" lon="0.64954">
        <ele>147.1</ele>
        <time>2017-01-29T07:58:01.000Z</time>
      </trkpt>
      <trkpt lat="44.53616" lon="0.64958">
        <ele>147.1</ele>
        <time>2017-01-29T07:58:02.000Z</time>
      </trkpt>
      <trkpt lat="44.53615" lon="0.64962">
        <ele>147.1</ele>
        <time>2017-01-29T07:58:03.000Z</time>
      </trkpt>
      <trkpt lat="44.53615" lon="0.64966">
        <ele>147.1</ele>
        <time>2017-01-29T07:58:04.000Z</time>
      </trkpt>
      <trkpt lat="44.53614" lon="0.6497">
        <ele>147</ele>
        <time>2017-01-29T07:58:05.000Z</time>
      </trkpt>
      <trkpt lat="44.53614" lon="0.64974">
        <ele>147</ele>
        <time>2017-01-29T07:58:06.000Z</time>
      </trkpt>
      <trkpt lat="44.53614" lon="0.64978">
        <ele>147</ele>
        <time>2017-01-29T07:58:07.000Z</time>
      </trkpt>
      <trkpt lat="44.53614" lon="0.64982">
        <ele>147</ele>
        <time>2017-01-29T07:58:08.000Z</time>
      </trkpt>
      <trkpt lat="44.53615" lon="0.64986">
        <ele>147</ele>
        <time>2017-01-29T07:58:09.000Z</time>
      </trkpt>
      <trkpt lat="44.53616" lon="0.64989">
        <ele>147</ele>
        <time>2017-01-29T07:58:10.000Z</time>
      </trkpt>
      <trkpt lat="44.53617" lon="0.64993">
        <ele>147</ele>
        <time>2017-01-29T07:58:11.000Z</time>
      </trkpt>
      <trkpt lat="44.53618" lon="0.64997">
        <ele>147</ele>
        <time>2017-01-29T07:58:12.000Z</time>
      </trkpt>
      <trkpt lat="44.53619" lon="0.65002">
        <ele>147</ele>
        <time>2017-01-29T07:58:13.000Z</time>
      </trkpt>
      <trkpt lat="44.5362" lon="0.65006">
        <ele>146.8</ele>
        <time>2017-01-29T07:58:14.000Z</time>
      </trkpt>
      <trkpt lat="44.53621" lon="0.6501">
        <ele>146.7</ele>
        <time>2017-01-29T07:58:15.000Z</time>
      </trkpt>
      <trkpt lat="44.53622" lon="0.65014">
        <ele>146.6</ele>
        <time>2017-01-29T07:58:16.000Z</time>
      </trkpt>
      <trkpt lat="44.53623" lon="0.65019">
        <ele>146.5</ele>
        <time>2017-01-29T07:58:17.000Z</time>
      </trkpt>
      <trkpt lat="44.53624" lon="0.65023">
        <ele>146.3</ele>
        <time>2017-01-29T07:58:18.000Z</time>
      </trkpt>
      <trkpt lat="44.53626" lon="0.65028">
        <ele>146.2</ele>
        <time>2017-01-29T07:58:19.000Z</time>
      </trkpt>
      <trkpt lat="44.53627" lon="0.65032">
        <ele>146</ele>
        <time>2017-01-29T07:58:20.000Z</time>
      </trkpt>
      <trkpt lat="44.53628" lon="0.65037">
        <ele>145.8</ele>
        <time>2017-01-29T07:58:21.000Z</time>
      </trkpt>
      <trkpt lat="44.53629" lon="0.65042">
        <ele>145.7</ele>
        <time>2017-01-29T07:58:22.000Z</time>
      </trkpt>
      <trkpt lat="44.5363" lon="0.65047">
        <ele>145.5</ele>
        <time>2017-01-29T07:58:23.000Z</time>
      </trkpt>
      <trkpt lat="44.53631" lon="0.65052">
        <ele>145.3</ele>
        <time>2017-01-29T07:58:24.000Z</time>
      </trkpt>
      <trkpt lat="44.53632" lon="0.65057">
        <ele>145.1</ele>
        <time>2017-01-29T07:58:25.000Z</time>
      </trkpt>
      <trkpt lat="44.53633" lon="0.65062">
        <ele>144.9</ele>
        <time>2017-01-29T07:58:26.000Z</time>
      </trkpt>
      <trkpt lat="44.53634" lon="0.65066">
        <ele>144.8</ele>
        <time>2017-01-29T07:58:27.000Z</time>
      </trkpt>
      <trkpt lat="44.53635" lon="0.65071">
        <ele>144.6</ele>
        <time>2017-01-29T07:58:28.000Z</time>
      </trkpt>
      <trkpt lat="44.53636" lon="0.65075">
        <ele>144.4</ele>
        <time>2017-01-29T07:58:29.000Z</time>
      </trkpt>
      <trkpt lat="44.53637" lon="0.65079">
        <ele>144.2</ele>
        <time>2017-01-29T07:58:30.000Z</time>
      </trkpt>
      <trkpt lat="44.53638" lon="0.65084">
        <ele>144</ele>
        <time>2017-01-29T07:58:31.000Z</time>
      </trkpt>
      <trkpt lat="44.53639" lon="0.65088">
        <ele>144.2</ele>
        <time>2017-01-29T07:58:32.000Z</time>
      </trkpt>
      <trkpt lat="44.53641" lon="0.65093">
        <ele>144.3</ele>
        <time>2017-01-29T07:58:33.000Z</time>
      </trkpt>
      <trkpt lat="44.53642" lon="0.65097">
        <ele>144.5</ele>
        <time>2017-01-29T07:58:34.000Z</time>
      </trkpt>
      <trkpt lat="44.53643" lon="0.65101">
        <ele>144.6</ele>
        <time>2017-01-29T07:58:35.000Z</time>
      </trkpt>
      <trkpt lat="44.53644" lon="0.65106">
        <ele>144.8</ele>
        <time>2017-01-29T07:58:36.000Z</time>
      </trkpt>
      <trkpt lat="44.53645" lon="0.65111">
        <ele>145</ele>
        <time>2017-01-29T07:58:37.000Z</time>
      </trkpt>
      <trkpt lat="44.53646" lon="0.65115">
        <ele>145.2</ele>
        <time>2017-01-29T07:58:38.000Z</time>
      </trkpt>
      <trkpt lat="44.53647" lon="0.6512">
        <ele>145.4</ele>
        <time>2017-01-29T07:58:39.000Z</time>
      </trkpt>
      <trkpt lat="44.53647" lon="0.65125">
        <ele>145.6</ele>
        <time>2017-01-29T07:58:40.000Z</time>
      </trkpt>
      <trkpt lat="44.53648" lon="0.6513">
        <ele>145.8</ele>
        <time>2017-01-29T07:58:41.000Z</time>
      </trkpt>
      <trkpt lat="44.53648" lon="0.65135">
        <ele>146.1</ele>
        <time>2017-01-29T07:58:42.000Z</time>
      </trkpt>
      <trkpt lat="44.53649" lon="0.6514">
        <ele>146.3</ele>
        <time>2017-01-29T07:58:43.000Z</time>
      </trkpt>
      <trkpt lat="44.53649" lon="0.65145">
        <ele>146.5</ele>
        <time>2017-01-29T07:58:44.000Z</time>
      </trkpt>
      <trkpt lat="44.5365" lon="0.6515">
        <ele>146.8</ele>
        <time>2017-01-29T07:58:45.000Z</time>
      </trkpt>
      <trkpt lat="44.5365" lon="0.65155">
        <ele>147</ele>
        <time>2017-01-29T07:58:46.000Z</time>
      </trkpt>
      <trkpt lat="44.53651" lon="0.65159">
        <ele>147.3</ele>
        <time>2017-01-29T07:58:47.000Z</time>
      </trkpt>
      <trkpt lat="44.53652" lon="0.65164">
        <ele>147.5</ele>
        <time>2017-01-29T07:58:48.000Z</time>
      </trkpt>
      <trkpt lat="44.53653" lon="0.65169">
        <ele>147.7</ele>
        <time>2017-01-29T07:58:49.000Z</time>
      </trkpt>
      <trkpt lat="44.53654" lon="0.65173">
        <ele>147.8</ele>
        <time>2017-01-29T07:58:50.000Z</time>
      </trkpt>
      <trkpt lat="44.53655" lon="0.65178">
        <ele>147.9</ele>
        <time>2017-01-29T07:58:51.000Z</time>
      </trkpt>
      <trkpt lat="44.53656" lon="0.65182">
        <ele>148</ele>
        <time>2017-01-29T07:58:52.000Z</time>
      </trkpt>
      <trkpt lat="44.53658" lon="0.65187">
        <ele>148.2</ele>
        <time>2017-01-29T07:58:53.000Z</time>
      </trkpt>
      <trkpt lat="44.53659" lon="0.65191">
        <ele>148.3</ele>
        <time>2017-01-29T07:58:54.000Z</time>
      </trkpt>
      <trkpt lat="44.5366" lon="0.65195">
        <ele>148.4</ele>
        <time>2017-01-29T07:58:55.000Z</time>
      </trkpt>
      <trkpt lat="44.53661" lon="0.65199">
        <ele>148.5</ele>
        <time>2017-01-29T07:58:56.000Z</time>
      </trkpt>
      <trkpt lat="44.53662" lon="0.65203">
        <ele>148.7</ele>
        <time>2017-01-29T07:58:57.000Z</time>
      </trkpt>
      <trkpt lat="44.53664" lon="0.65207">
        <ele>148.8</ele>
        <time>2017-01-29T07:58:58.000Z</time>
      </trkpt>
      <trkpt lat="44.53665" lon="0.65212">
        <ele>149</ele>
        <time>2017-01-29T07:58:59.000Z</time>
      </trkpt>
      <trkpt lat="44.53666" lon="0.65216">
        <ele>149.2</ele>
        <time>2017-01-29T07:59:00.000Z</time>
      </trkpt>
      <trkpt lat="44.53668" lon="0.6522">
        <ele>149.3</ele>
        <time>2017-01-29T07:59:01.000Z</time>
      </trkpt>
      <trkpt lat="44.53669" lon="0.65225">
        <ele>149.5</ele>
        <time>2017-01-29T07:59:02.000Z</time>
      </trkpt>
      <trkpt lat="44.53671" lon="0.65229">
        <ele>149.7</ele>
        <time>2017-01-29T07:59:03.000Z</time>
      </trkpt>
      <trkpt lat="44.53672" lon="0.65233">
        <ele>149.9</ele>
        <time>2017-01-29T07:59:04.000Z</time>
      </trkpt>
      <trkpt lat="44.53674" lon="0.65238">
        <ele>150.1</ele>
        <time>2017-01-29T07:59:05.000Z</time>
      </trkpt>
      <trkpt lat="44.53676" lon="0.65242">
        <ele>150.4</ele>
        <time>2017-01-29T07:59:06.000Z</time>
      </trkpt>
      <trkpt lat="44.53678" lon="0.65246">
        <ele>150.6</ele>
        <time>2017-01-29T07:59:07.000Z</time>
      </trkpt>
      <trkpt lat="44.5368" lon="0.65251">
        <ele>150.8</ele>
        <time>2017-01-29T07:59:08.000Z</time>
      </trkpt>
      <trkpt lat="44.53682" lon="0.65255">
        <ele>151</ele>
        <time>2017-01-29T07:59:09.000Z</time>
      </trkpt>
      <trkpt lat="44.53684" lon="0.65259">
        <ele>151.2</ele>
        <time>2017-01-29T07:59:10.000Z</time>
      </trkpt>
      <trkpt lat="44.53685" lon="0.65262">
        <ele>151.3</ele>
        <time>2017-01-29T07:59:11.000Z</time>
      </trkpt>
      <trkpt lat="44.53687" lon="0.65266">
        <ele>151.5</ele>
        <time>2017-01-29T07:59:12.000Z</time>
      </trkpt>
      <trkpt lat="44.53689" lon="0.65269">
        <ele>151.7</ele>
        <time>2017-01-29T07:59:13.000Z</time>
      </trkpt>
      <trkpt lat="44.53691" lon="0.65273">
        <ele>151.9</ele>
        <time>2017-01-29T07:59:14.000Z</time>
      </trkpt>
      <trkpt lat="44.53693" lon="0.65276">
        <ele>152.1</ele>
        <time>2017-01-29T07:59:15.000Z</time>
      </trkpt>
      <trkpt lat="44.53694" lon="0.6528">
        <ele>152.3</ele>
        <time>2017-01-29T07:59:16.000Z</time>
      </trkpt>
      <trkpt lat="44.53696" lon="0.65283">
        <ele>152.4</ele>
        <time>2017-01-29T07:59:17.000Z</time>
      </trkpt>
      <trkpt lat="44.53698" lon="0.65287">
        <ele>152.6</ele>
        <time>2017-01-29T07:59:18.000Z</time>
      </trkpt>
      <trkpt lat="44.53699" lon="0.6529">
        <ele>152.8</ele>
        <time>2017-01-29T07:59:19.000Z</time>
      </trkpt>
      <trkpt lat="44.53701" lon="0.65294">
        <ele>153</ele>
        <time>2017-01-29T07:59:20.000Z</time>
      </trkpt>
      <trkpt lat="44.53702" lon="0.65298">
        <ele>153.2</ele>
        <time>2017-01-29T07:59:21.000Z</time>
      </trkpt>
      <trkpt lat="44.53704" lon="0.65301">
        <ele>153.4</ele>
        <time>2017-01-29T07:59:22.000Z</time>
      </trkpt>
      <trkpt lat="44.53705" lon="0.65305">
        <ele>153.6</ele>
        <time>2017-01-29T07:59:23.000Z</time>
      </trkpt>
      <trkpt lat="44.53706" lon="0.65309">
        <ele>153.7</ele>
        <time>2017-01-29T07:59:24.000Z</time>
      </trkpt>
      <trkpt lat="44.53707" lon="0.65313">
        <ele>153.9</ele>
        <time>2017-01-29T07:59:25.000Z</time>
      </trkpt>
      <trkpt lat="44.53708" lon="0.65316">
        <ele>154</ele>
        <time>2017-01-29T07:59:26.000Z</time>
      </trkpt>
      <trkpt lat="44.53708" lon="0.6532">
        <ele>154.2</ele>
        <time>2017-01-29T07:59:27.000Z</time>
      </trkpt>
      <trkpt lat="44.53709" lon="0.65324">
        <ele>154.3</ele>
        <time>2017-01-29T07:59:28.000Z</time>
      </trkpt>
      <trkpt lat="44.5371" lon="0.65328">
        <ele>154.5</ele>
        <time>2017-01-29T07:59:29.000Z</time>
      </trkpt>
      <trkpt lat="44.53711" lon="0.65332">
        <ele>154.7</ele>
        <time>2017-01-29T07:59:30.000Z</time>
      </trkpt>
      <trkpt lat="44.53712" lon="0.65336">
        <ele>154.6</ele>
        <time>2017-01-29T07:59:31.000Z</time>
      </trkpt>
      <trkpt lat="44.53713" lon="0.6534">
        <ele>154.5</ele>
        <time>2017-01-29T07:59:32.000Z</time>
      </trkpt>
      <trkpt lat="44.53714" lon="0.65344">
        <ele>154.3</ele>
        <time>2017-01-29T07:59:33.000Z</time>
      </trkpt>
      <trkpt lat="44.53715" lon="0.65349">
        <ele>154.2</ele>
        <time>2017-01-29T07:59:34.000Z</time>
      </trkpt>
      <trkpt lat="44.53716" lon="0.65353">
        <ele>154</ele>
        <time>2017-01-29T07:59:35.000Z</time>
      </trkpt>
      <trkpt lat="44.53718" lon="0.65357">
        <ele>153.9</ele>
        <time>2017-01-29T07:59:36.000Z</time>
      </trkpt>
      <trkpt lat="44.53719" lon="0.65361">
        <ele>153.7</ele>
        <time>2017-01-29T07:59:37.000Z</time>
      </trkpt>
      <trkpt lat="44.5372" lon="0.65365">
        <ele>153.6</ele>
        <time>2017-01-29T07:59:38.000Z</time>
      </trkpt>
      <trkpt lat="44.53721" lon="0.65369">
        <ele>153.4</ele>
        <time>2017-01-29T07:59:39.000Z</time>
      </trkpt>
      <trkpt lat="44.53722" lon="0.65373">
        <ele>153.3</ele>
        <time>2017-01-29T07:59:40.000Z</time>
      </trkpt>
      <trkpt lat="44.53723" lon="0.65377">
        <ele>153.1</ele>
        <time>2017-01-29T07:59:41.000Z</time>
      </trkpt>
      <trkpt lat="44.53724" lon="0.65382">
        <ele>152.9</ele>
        <time>2017-01-29T07:59:42.000Z</time>
      </trkpt>
      <trkpt lat="44.53725" lon="0.65386">
        <ele>152.7</ele>
        <time>2017-01-29T07:59:43.000Z</time>
      </trkpt>
      <trkpt lat="44.53726" lon="0.6539">
        <ele>152.6</ele>
        <time>2017-01-29T07:59:44.000Z</time>
      </trkpt>
      <trkpt lat="44.53726" lon="0.65394">
        <ele>152.4</ele>
        <time>2017-01-29T07:59:45.000Z</time>
      </trkpt>
      <trkpt lat="44.53727" lon="0.65398">
        <ele>152.2</ele>
        <time>2017-01-29T07:59:46.000Z</time>
      </trkpt>
      <trkpt lat="44.53728" lon="0.65402">
        <ele>152</ele>
        <time>2017-01-29T07:59:47.000Z</time>
      </trkpt>
      <trkpt lat="44.53729" lon="0.65406">
        <ele>151.9</ele>
        <time>2017-01-29T07:59:48.000Z</time>
      </trkpt>
      <trkpt lat="44.53729" lon="0.6541">
        <ele>151.7</ele>
        <time>2017-01-29T07:59:49.000Z</time>
      </trkpt>
      <trkpt lat="44.5373" lon="0.65414">
        <ele>151.5</ele>
        <time>2017-01-29T07:59:50.000Z</time>
      </trkpt>
      <trkpt lat="44.53731" lon="0.65418">
        <ele>151.3</ele>
        <time>2017-01-29T07:59:51.000Z</time>
      </trkpt>
      <trkpt lat="44.53731" lon="0.65422">
        <ele>151.1</ele>
        <time>2017-01-29T07:59:52.000Z</time>
      </trkpt>
      <trkpt lat="44.53732" lon="0.65426">
        <ele>150.8</ele>
        <time>2017-01-29T07:59:53.000Z</time>
      </trkpt>
      <trkpt lat="44.53732" lon="0.6543">
        <ele>150.6</ele>
        <time>2017-01-29T07:59:54.000Z</time>
      </trkpt>
      <trkpt lat="44.53732" lon="0.65434">
        <ele>150.3</ele>
        <time>2017-01-29T07:59:55.000Z</time>
      </trkpt>
      <trkpt lat="44.53732" lon="0.65439">
        <ele>150</ele>
        <time>2017-01-29T07:59:56.000Z</time>
      </trkpt>
      <trkpt lat="44.53732" lon="0.65444">
        <ele>149.7</ele>
        <time>2017-01-29T07:59:57.000Z</time>
      </trkpt>
      <trkpt lat="44.53732" lon="0.65449">
        <ele>149.3</ele>
        <time>2017-01-29T07:59:58.000Z</time>
      </trkpt>
      <trkpt lat="44.53732" lon="0.65455">
        <ele>148.9</ele>
        <time>2017-01-29T07:59:59.000Z</time>
      </trkpt>
      <trkpt lat="44.53731" lon="0.65461">
        <ele>148.5</ele>
        <time>2017-01-29T08:00:00.000Z</time>
      </trkpt>
      <trkpt lat="44.53731" lon="0.65467">
        <ele>148</ele>
        <time>2017-01-29T08:00:01.000Z</time>
      </trkpt>
      <trkpt lat="44.5373" lon="0.65474">
        <ele>147.5</ele>
        <time>2017-01-29T08:00:02.000Z</time>
      </trkpt>
      <trkpt lat="44.53729" lon="0.65481">
        <ele>147</ele>
        <time>2017-01-29T08:00:03.000Z</time>
      </trkpt>
      <trkpt lat="44.53729" lon="0.65488">
        <ele>146.5</ele>
        <time>2017-01-29T08:00:04.000Z</time>
      </trkpt>
      <trkpt lat="44.53728" lon="0.65495">
        <ele>146</ele>
        <time>2017-01-29T08:00:05.000Z</time>
      </trkpt>
      <trkpt lat="44.53728" lon="0.65503">
        <ele>145.6</ele>
        <time>2017-01-29T08:00:06.000Z</time>
      </trkpt>
      <trkpt lat="44.53728" lon="0.6551">
        <ele>145.4</ele>
        <time>2017-01-29T08:00:07.000Z</time>
      </trkpt>
      <trkpt lat="44.53728" lon="0.65518">
        <ele>145.1</ele>
        <time>2017-01-29T08:00:08.000Z</time>
      </trkpt>
      <trkpt lat="44.53728" lon="0.65526">
        <ele>144.9</ele>
        <time>2017-01-29T08:00:09.000Z</time>
      </trkpt>
      <trkpt lat="44.53729" lon="0.65534">
        <ele>144.7</ele>
        <time>2017-01-29T08:00:10.000Z</time>
      </trkpt>
      <trkpt lat="44.53729" lon="0.65542">
        <ele>144.5</ele>
        <time>2017-01-29T08:00:11.000Z</time>
      </trkpt>
      <trkpt lat="44.53729" lon="0.65551">
        <ele>144.2</ele>
        <time>2017-01-29T08:00:12.000Z</time>
      </trkpt>
      <trkpt lat="44.5373" lon="0.65559">
        <ele>144</ele>
        <time>2017-01-29T08:00:13.000Z</time>
      </trkpt>
      <trkpt lat="44.5373" lon="0.65567">
        <ele>143.8</ele>
        <time>2017-01-29T08:00:14.000Z</time>
      </trkpt>
      <trkpt lat="44.5373" lon="0.65575">
        <ele>143.5</ele>
        <time>2017-01-29T08:00:15.000Z</time>
      </trkpt>
      <trkpt lat="44.5373" lon="0.65583">
        <ele>143.3</ele>
        <time>2017-01-29T08:00:16.000Z</time>
      </trkpt>
      <trkpt lat="44.5373" lon="0.6559">
        <ele>142.9</ele>
        <time>2017-01-29T08:00:17.000Z</time>
      </trkpt>
      <trkpt lat="44.53731" lon="0.65598">
        <ele>142.5</ele>
        <time>2017-01-29T08:00:18.000Z</time>
      </trkpt>
      <trkpt lat="44.53731" lon="0.65605">
        <ele>142.1</ele>
        <time>2017-01-29T08:00:19.000Z</time>
      </trkpt>
      <trkpt lat="44.53731" lon="0.65613">
        <ele>141.7</ele>
        <time>2017-01-29T08:00:20.000Z</time>
      </trkpt>
      <trkpt lat="44.53732" lon="0.65621">
        <ele>141.3</ele>
        <time>2017-01-29T08:00:21.000Z</time>
      </trkpt>
      <trkpt lat="44.53732" lon="0.6563">
        <ele>140.8</ele>
        <time>2017-01-29T08:00:22.000Z</time>
      </trkpt>
      <trkpt lat="44.53733" lon="0.65639">
        <ele>140.3</ele>
        <time>2017-01-29T08:00:23.000Z</time>
      </trkpt>
      <trkpt lat="44.53734" lon="0.65649">
        <ele>139.8</ele>
        <time>2017-01-29T08:00:24.000Z</time>
      </trkpt>
      <trkpt lat="44.53734" lon="0.65659">
        <ele>139.3</ele>
        <time>2017-01-29T08:00:25.000Z</time>
      </trkpt>
      <trkpt lat="44.53735" lon="0.65668">
        <ele>138.8</ele>
        <time>2017-01-29T08:00:26.000Z</time>
      </trkpt>
      <trkpt lat="44.53735" lon="0.65678">
        <ele>138.4</ele>
        <time>2017-01-29T08:00:27.000Z</time>
      </trkpt>
      <trkpt lat="44.53735" lon="0.65688">
        <ele>138.1</ele>
        <time>2017-01-29T08:00:28.000Z</time>
      </trkpt>
      <trkpt lat="44.53736" lon="0.65697">
        <ele>137.8</ele>
        <time>2017-01-29T08:00:29.000Z</time>
      </trkpt>
      <trkpt lat="44.53736" lon="0.65707">
        <ele>137.5</ele>
        <time>2017-01-29T08:00:30.000Z</time>
      </trkpt>
      <trkpt lat="44.53737" lon="0.65718">
        <ele>137.1</ele>
        <time>2017-01-29T08:00:31.000Z</time>
      </trkpt>
      <trkpt lat="44.53738" lon="0.65728">
        <ele>136.7</ele>
        <time>2017-01-29T08:00:32.000Z</time>
      </trkpt>
      <trkpt lat="44.53738" lon="0.65739">
        <ele>136.4</ele>
        <time>2017-01-29T08:00:33.000Z</time>
      </trkpt>
      <trkpt lat="44.53737" lon="0.65749">
        <ele>136</ele>
        <time>2017-01-29T08:00:34.000Z</time>
      </trkpt>
      <trkpt lat="44.53736" lon="0.65759">
        <ele>135.6</ele>
        <time>2017-01-29T08:00:35.000Z</time>
      </trkpt>
      <trkpt lat="44.53735" lon="0.65768">
        <ele>135.3</ele>
        <time>2017-01-29T08:00:36.000Z</time>
      </trkpt>
      <trkpt lat="44.53734" lon="0.65776">
        <ele>134.9</ele>
        <time>2017-01-29T08:00:37.000Z</time>
      </trkpt>
      <trkpt lat="44.53733" lon="0.65785">
        <ele>134.6</ele>
        <time>2017-01-29T08:00:38.000Z</time>
      </trkpt>
      <trkpt lat="44.53733" lon="0.65793">
        <ele>134.2</ele>
        <time>2017-01-29T08:00:39.000Z</time>
      </trkpt>
      <trkpt lat="44.53733" lon="0.65802">
        <ele>133.9</ele>
        <time>2017-01-29T08:00:40.000Z</time>
      </trkpt>
      <trkpt lat="44.53734" lon="0.6581">
        <ele>133.5</ele>
        <time>2017-01-29T08:00:41.000Z</time>
      </trkpt>
      <trkpt lat="44.53735" lon="0.65818">
        <ele>133.2</ele>
        <time>2017-01-29T08:00:42.000Z</time>
      </trkpt>
      <trkpt lat="44.53736" lon="0.65825">
        <ele>132.8</ele>
        <time>2017-01-29T08:00:43.000Z</time>
      </trkpt>
      <trkpt lat="44.53738" lon="0.65833">
        <ele>132.5</ele>
        <time>2017-01-29T08:00:44.000Z</time>
      </trkpt>
      <trkpt lat="44.53739" lon="0.65841">
        <ele>132.3</ele>
        <time>2017-01-29T08:00:45.000Z</time>
      </trkpt>
      <trkpt lat="44.5374" lon="0.65849">
        <ele>132.1</ele>
        <time>2017-01-29T08:00:46.000Z</time>
      </trkpt>
      <trkpt lat="44.53741" lon="0.65857">
        <ele>132</ele>
        <time>2017-01-29T08:00:47.000Z</time>
      </trkpt>
      <trkpt lat="44.53742" lon="0.65865">
        <ele>131.8</ele>
        <time>2017-01-29T08:00:48.000Z</time>
      </trkpt>
      <trkpt lat="44.53742" lon="0.65874">
        <ele>131.7</ele>
        <time>2017-01-29T08:00:49.000Z</time>
      </trkpt>
      <trkpt lat="44.53743" lon="0.65883">
        <ele>131.6</ele>
        <time>2017-01-29T08:00:50.000Z</time>
      </trkpt>
      <trkpt lat="44.53744" lon="0.65892">
        <ele>131.4</ele>
        <time>2017-01-29T08:00:51.000Z</time>
      </trkpt>
      <trkpt lat="44.53744" lon="0.65901">
        <ele>131.3</ele>
        <time>2017-01-29T08:00:52.000Z</time>
      </trkpt>
      <trkpt lat="44.53745" lon="0.6591">
        <ele>131.1</ele>
        <time>2017-01-29T08:00:53.000Z</time>
      </trkpt>
      <trkpt lat="44.53746" lon="0.65919">
        <ele>131</ele>
        <time>2017-01-29T08:00:54.000Z</time>
      </trkpt>
      <trkpt lat="44.53747" lon="0.65928">
        <ele>130.6</ele>
        <time>2017-01-29T08:00:55.000Z</time>
      </trkpt>
      <trkpt lat="44.53748" lon="0.65937">
        <ele>130.3</ele>
        <time>2017-01-29T08:00:56.000Z</time>
      </trkpt>
      <trkpt lat="44.53749" lon="0.65946">
        <ele>130</ele>
        <time>2017-01-29T08:00:57.000Z</time>
      </trkpt>
      <trkpt lat="44.5375" lon="0.65955">
        <ele>129.6</ele>
        <time>2017-01-29T08:00:58.000Z</time>
      </trkpt>
      <trkpt lat="44.53751" lon="0.65963">
        <ele>129.2</ele>
        <time>2017-01-29T08:00:59.000Z</time>
      </trkpt>
      <trkpt lat="44.53752" lon="0.65971">
        <ele>128.9</ele>
        <time>2017-01-29T08:01:00.000Z</time>
      </trkpt>
      <trkpt lat="44.53754" lon="0.65979">
        <ele>128.5</ele>
        <time>2017-01-29T08:01:01.000Z</time>
      </trkpt>
      <trkpt lat="44.53755" lon="0.65987">
        <ele>128.2</ele>
        <time>2017-01-29T08:01:02.000Z</time>
      </trkpt>
      <trkpt lat="44.53756" lon="0.65995">
        <ele>127.9</ele>
        <time>2017-01-29T08:01:03.000Z</time>
      </trkpt>
      <trkpt lat="44.53757" lon="0.66003">
        <ele>127.6</ele>
        <time>2017-01-29T08:01:04.000Z</time>
      </trkpt>
      <trkpt lat="44.53759" lon="0.6601">
        <ele>127.4</ele>
        <time>2017-01-29T08:01:05.000Z</time>
      </trkpt>
      <trkpt lat="44.5376" lon="0.66018">
        <ele>127.2</ele>
        <time>2017-01-29T08:01:06.000Z</time>
      </trkpt>
      <trkpt lat="44.53762" lon="0.66025">
        <ele>127</ele>
        <time>2017-01-29T08:01:07.000Z</time>
      </trkpt>
      <trkpt lat="44.53764" lon="0.66032">
        <ele>126.8</ele>
        <time>2017-01-29T08:01:08.000Z</time>
      </trkpt>
      <trkpt lat="44.53765" lon="0.66038">
        <ele>126.6</ele>
        <time>2017-01-29T08:01:09.000Z</time>
      </trkpt>
      <trkpt lat="44.53767" lon="0.66044">
        <ele>126.5</ele>
        <time>2017-01-29T08:01:10.000Z</time>
      </trkpt>
      <trkpt lat="44.53768" lon="0.6605">
        <ele>126.3</ele>
        <time>2017-01-29T08:01:11.000Z</time>
      </trkpt>
      <trkpt lat="44.5377" lon="0.66055">
        <ele>126.2</ele>
        <time>2017-01-29T08:01:12.000Z</time>
      </trkpt>
      <trkpt lat="44.53771" lon="0.6606">
        <ele>126.1</ele>
        <time>2017-01-29T08:01:13.000Z</time>
      </trkpt>
      <trkpt lat="44.53772" lon="0.66064">
        <ele>126</ele>
        <time>2017-01-29T08:01:14.000Z</time>
      </trkpt>
      <trkpt lat="44.53773" lon="0.66068">
        <ele>125.9</ele>
        <time>2017-01-29T08:01:15.000Z</time>
      </trkpt>
      <trkpt lat="44.53774" lon="0.66072">
        <ele>125.9</ele>
        <time>2017-01-29T08:01:16.000Z</time>
      </trkpt>
      <trkpt lat="44.53775" lon="0.66076">
        <ele>125.8</ele>
        <time>2017-01-29T08:01:17.000Z</time>
      </trkpt>
      <trkpt lat="44.53776" lon="0.6608">
        <ele>125.7</ele>
        <time>2017-01-29T08:01:18.000Z</time>
      </trkpt>
      <trkpt lat="44.53777" lon="0.66085">
        <ele>125.7</ele>
        <time>2017-01-29T08:01:19.000Z</time>
      </trkpt>
      <trkpt lat="44.53778" lon="0.66089">
        <ele>125.8</ele>
        <time>2017-01-29T08:01:20.000Z</time>
      </trkpt>
      <trkpt lat="44.53779" lon="0.66094">
        <ele>125.9</ele>
        <time>2017-01-29T08:01:21.000Z</time>
      </trkpt>
      <trkpt lat="44.53781" lon="0.66098">
        <ele>126</ele>
        <time>2017-01-29T08:01:22.000Z</time>
      </trkpt>
      <trkpt lat="44.53782" lon="0.66103">
        <ele>126.1</ele>
        <time>2017-01-29T08:01:23.000Z</time>
      </trkpt>
      <trkpt lat="44.53783" lon="0.66108">
        <ele>126.2</ele>
        <time>2017-01-29T08:01:24.000Z</time>
      </trkpt>
      <trkpt lat="44.53784" lon="0.66112">
        <ele>126.3</ele>
        <time>2017-01-29T08:01:25.000Z</time>
      </trkpt>
      <trkpt lat="44.53785" lon="0.66117">
        <ele>126.4</ele>
        <time>2017-01-29T08:01:26.000Z</time>
      </trkpt>
      <trkpt lat="44.53786" lon="0.66121">
        <ele>126.6</ele>
        <time>2017-01-29T08:01:27.000Z</time>
      </trkpt>
      <trkpt lat="44.53787" lon="0.66126">
        <ele>126.7</ele>
        <time>2017-01-29T08:01:28.000Z</time>
      </trkpt>
      <trkpt lat="44.53788" lon="0.6613">
        <ele>126.8</ele>
        <time>2017-01-29T08:01:29.000Z</time>
      </trkpt>
      <trkpt lat="44.53789" lon="0.66135">
        <ele>127</ele>
        <time>2017-01-29T08:01:30.000Z</time>
      </trkpt>
      <trkpt lat="44.5379" lon="0.66139">
        <ele>127.1</ele>
        <time>2017-01-29T08:01:31.000Z</time>
      </trkpt>
      <trkpt lat="44.53791" lon="0.66143">
        <ele>127.3</ele>
        <time>2017-01-29T08:01:32.000Z</time>
      </trkpt>
      <trkpt lat="44.53792" lon="0.66147">
        <ele>127.4</ele>
        <time>2017-01-29T08:01:33.000Z</time>
      </trkpt>
      <trkpt lat="44.53792" lon="0.66152">
        <ele>127.6</ele>
        <time>2017-01-29T08:01:34.000Z</time>
      </trkpt>
      <trkpt lat="44.53793" lon="0.66156">
        <ele>127.7</ele>
        <time>2017-01-29T08:01:35.000Z</time>
      </trkpt>
      <trkpt lat="44.53794" lon="0.6616">
        <ele>127.9</ele>
        <time>2017-01-29T08:01:36.000Z</time>
      </trkpt>
      <trkpt lat="44.53795" lon="0.66164">
        <ele>128.1</ele>
        <time>2017-01-29T08:01:37.000Z</time>
      </trkpt>
      <trkpt lat="44.53796" lon="0.66168">
        <ele>128.1</ele>
        <time>2017-01-29T08:01:38.000Z</time>
      </trkpt>
      <trkpt lat="44.53796" lon="0.66172">
        <ele>127.9</ele>
        <time>2017-01-29T08:01:39.000Z</time>
      </trkpt>
      <trkpt lat="44.53797" lon="0.66176">
        <ele>127.8</ele>
        <time>2017-01-29T08:01:40.000Z</time>
      </trkpt>
      <trkpt lat="44.53798" lon="0.6618">
        <ele>127.6</ele>
        <time>2017-01-29T08:01:41.000Z</time>
      </trkpt>
      <trkpt lat="44.53798" lon="0.66184">
        <ele>127.4</ele>
        <time>2017-01-29T08:01:42.000Z</time>
      </trkpt>
      <trkpt lat="44.53799" lon="0.66189">
        <ele>127.2</ele>
        <time>2017-01-29T08:01:43.000Z</time>
      </trkpt>
      <trkpt lat="44.53799" lon="0.66193">
        <ele>127.1</ele>
        <time>2017-01-29T08:01:44.000Z</time>
      </trkpt>
      <trkpt lat="44.538" lon="0.66197">
        <ele>126.9</ele>
        <time>2017-01-29T08:01:45.000Z</time>
      </trkpt>
      <trkpt lat="44.538" lon="0.66201">
        <ele>126.7</ele>
        <time>2017-01-29T08:01:46.000Z</time>
      </trkpt>
      <trkpt lat="44.53801" lon="0.66206">
        <ele>126.5</ele>
        <time>2017-01-29T08:01:47.000Z</time>
      </trkpt>
      <trkpt lat="44.53801" lon="0.6621">
        <ele>126.3</ele>
        <time>2017-01-29T08:01:48.000Z</time>
      </trkpt>
      <trkpt lat="44.53802" lon="0.66214">
        <ele>126</ele>
        <time>2017-01-29T08:01:49.000Z</time>
      </trkpt>
      <trkpt lat="44.53802" lon="0.66219">
        <ele>125.8</ele>
        <time>2017-01-29T08:01:50.000Z</time>
      </trkpt>
      <trkpt lat="44.53803" lon="0.66224">
        <ele>125.6</ele>
        <time>2017-01-29T08:01:51.000Z</time>
      </trkpt>
      <trkpt lat="44.53803" lon="0.66229">
        <ele>125.4</ele>
        <time>2017-01-29T08:01:52.000Z</time>
      </trkpt>
      <trkpt lat="44.53804" lon="0.66234">
        <ele>125.1</ele>
        <time>2017-01-29T08:01:53.000Z</time>
      </trkpt>
      <trkpt lat="44.53806" lon="0.6624">
        <ele>124.9</ele>
        <time>2017-01-29T08:01:54.000Z</time>
      </trkpt>
      <trkpt lat="44.53807" lon="0.66246">
        <ele>124.6</ele>
        <time>2017-01-29T08:01:55.000Z</time>
      </trkpt>
      <trkpt lat="44.53809" lon="0.66252">
        <ele>124.3</ele>
        <time>2017-01-29T08:01:56.000Z</time>
      </trkpt>
      <trkpt lat="44.5381" lon="0.66258">
        <ele>123.7</ele>
        <time>2017-01-29T08:01:57.000Z</time>
      </trkpt>
      <trkpt lat="44.53812" lon="0.66266">
        <ele>123.2</ele>
        <time>2017-01-29T08:01:58.000Z</time>
      </trkpt>
      <trkpt lat="44.53814" lon="0.66274">
        <ele>122.6</ele>
        <time>2017-01-29T08:01:59.000Z</time>
      </trkpt>
      <trkpt lat="44.53817" lon="0.66282">
        <ele>121.9</ele>
        <time>2017-01-29T08:02:00.000Z</time>
      </trkpt>
      <trkpt lat="44.53819" lon="0.66291">
        <ele>121.2</ele>
        <time>2017-01-29T08:02:01.000Z</time>
      </trkpt>
      <trkpt lat="44.53822" lon="0.66301">
        <ele>120.4</ele>
        <time>2017-01-29T08:02:02.000Z</time>
      </trkpt>
      <trkpt lat="44.53825" lon="0.66311">
        <ele>119.6</ele>
        <time>2017-01-29T08:02:03.000Z</time>
      </trkpt>
      <trkpt lat="44.53828" lon="0.66322">
        <ele>118.8</ele>
        <time>2017-01-29T08:02:04.000Z</time>
      </trkpt>
      <trkpt lat="44.53831" lon="0.66332">
        <ele>118</ele>
        <time>2017-01-29T08:02:05.000Z</time>
      </trkpt>
      <trkpt lat="44.53834" lon="0.66343">
        <ele>117.5</ele>
        <time>2017-01-29T08:02:06.000Z</time>
      </trkpt>
      <trkpt lat="44.53838" lon="0.66354">
        <ele>116.8</ele>
        <time>2017-01-29T08:02:07.000Z</time>
      </trkpt>
      <trkpt lat="44.53841" lon="0.66365">
        <ele>116.1</ele>
        <time>2017-01-29T08:02:08.000Z</time>
      </trkpt>
      <trkpt lat="44.53845" lon="0.66375">
        <ele>115.4</ele>
        <time>2017-01-29T08:02:09.000Z</time>
      </trkpt>
      <trkpt lat="44.53849" lon="0.66386">
        <ele>114.8</ele>
        <time>2017-01-29T08:02:10.000Z</time>
      </trkpt>
      <trkpt lat="44.53853" lon="0.66396">
        <ele>114.3</ele>
        <time>2017-01-29T08:02:11.000Z</time>
      </trkpt>
      <trkpt lat="44.53858" lon="0.66405">
        <ele>113.8</ele>
        <time>2017-01-29T08:02:12.000Z</time>
      </trkpt>
      <trkpt lat="44.53862" lon="0.66415">
        <ele>113.4</ele>
        <time>2017-01-29T08:02:13.000Z</time>
      </trkpt>
      <trkpt lat="44.53867" lon="0.66424">
        <ele>113.1</ele>
        <time>2017-01-29T08:02:14.000Z</time>
      </trkpt>
      <trkpt lat="44.53871" lon="0.66433">
        <ele>112.9</ele>
        <time>2017-01-29T08:02:15.000Z</time>
      </trkpt>
      <trkpt lat="44.53875" lon="0.66442">
        <ele>112.7</ele>
        <time>2017-01-29T08:02:16.000Z</time>
      </trkpt>
      <trkpt lat="44.53879" lon="0.6645">
        <ele>112.6</ele>
        <time>2017-01-29T08:02:17.000Z</time>
      </trkpt>
      <trkpt lat="44.53883" lon="0.66459">
        <ele>112.5</ele>
        <time>2017-01-29T08:02:18.000Z</time>
      </trkpt>
      <trkpt lat="44.53886" lon="0.66467">
        <ele>112.5</ele>
        <time>2017-01-29T08:02:19.000Z</time>
      </trkpt>
      <trkpt lat="44.5389" lon="0.66475">
        <ele>112.4</ele>
        <time>2017-01-29T08:02:20.000Z</time>
      </trkpt>
      <trkpt lat="44.53893" lon="0.66483">
        <ele>112.5</ele>
        <time>2017-01-29T08:02:21.000Z</time>
      </trkpt>
      <trkpt lat="44.53897" lon="0.66491">
        <ele>112.5</ele>
        <time>2017-01-29T08:02:22.000Z</time>
      </trkpt>
      <trkpt lat="44.539" lon="0.66499">
        <ele>112.6</ele>
        <time>2017-01-29T08:02:23.000Z</time>
      </trkpt>
      <trkpt lat="44.53903" lon="0.66507">
        <ele>112.6</ele>
        <time>2017-01-29T08:02:24.000Z</time>
      </trkpt>
      <trkpt lat="44.53905" lon="0.66515">
        <ele>112.5</ele>
        <time>2017-01-29T08:02:25.000Z</time>
      </trkpt>
      <trkpt lat="44.53906" lon="0.66524">
        <ele>112.4</ele>
        <time>2017-01-29T08:02:26.000Z</time>
      </trkpt>
      <trkpt lat="44.53906" lon="0.66532">
        <ele>112.2</ele>
        <time>2017-01-29T08:02:27.000Z</time>
      </trkpt>
      <trkpt lat="44.53905" lon="0.66541">
        <ele>112</ele>
        <time>2017-01-29T08:02:28.000Z</time>
      </trkpt>
      <trkpt lat="44.53904" lon="0.6655">
        <ele>111.8</ele>
        <time>2017-01-29T08:02:29.000Z</time>
      </trkpt>
      <trkpt lat="44.53903" lon="0.66558">
        <ele>111.6</ele>
        <time>2017-01-29T08:02:30.000Z</time>
      </trkpt>
      <trkpt lat="44.53903" lon="0.66567">
        <ele>111.5</ele>
        <time>2017-01-29T08:02:31.000Z</time>
      </trkpt>
      <trkpt lat="44.53902" lon="0.66575">
        <ele>111.3</ele>
        <time>2017-01-29T08:02:32.000Z</time>
      </trkpt>
      <trkpt lat="44.53902" lon="0.66584">
        <ele>111.1</ele>
        <time>2017-01-29T08:02:33.000Z</time>
      </trkpt>
      <trkpt lat="44.53902" lon="0.66592">
        <ele>110.5</ele>
        <time>2017-01-29T08:02:34.000Z</time>
      </trkpt>
      <trkpt lat="44.53902" lon="0.666">
        <ele>109.9</ele>
        <time>2017-01-29T08:02:35.000Z</time>
      </trkpt>
      <trkpt lat="44.53902" lon="0.66609">
        <ele>109.3</ele>
        <time>2017-01-29T08:02:36.000Z</time>
      </trkpt>
      <trkpt lat="44.53902" lon="0.66619">
        <ele>108.6</ele>
        <time>2017-01-29T08:02:37.000Z</time>
      </trkpt>
      <trkpt lat="44.53903" lon="0.66629">
        <ele>107.9</ele>
        <time>2017-01-29T08:02:38.000Z</time>
      </trkpt>
      <trkpt lat="44.53904" lon="0.6664">
        <ele>107.1</ele>
        <time>2017-01-29T08:02:39.000Z</time>
      </trkpt>
      <trkpt lat="44.53906" lon="0.66652">
        <ele>106.4</ele>
        <time>2017-01-29T08:02:40.000Z</time>
      </trkpt>
      <trkpt lat="44.53909" lon="0.66665">
        <ele>105.7</ele>
        <time>2017-01-29T08:02:41.000Z</time>
      </trkpt>
      <trkpt lat="44.53911" lon="0.66677">
        <ele>104.9</ele>
        <time>2017-01-29T08:02:42.000Z</time>
      </trkpt>
      <trkpt lat="44.5391" lon="0.66689">
        <ele>104.1</ele>
        <time>2017-01-29T08:02:43.000Z</time>
      </trkpt>
      <trkpt lat="44.53908" lon="0.667">
        <ele>103.2</ele>
        <time>2017-01-29T08:02:44.000Z</time>
      </trkpt>
      <trkpt lat="44.53904" lon="0.66712">
        <ele>102.4</ele>
        <time>2017-01-29T08:02:45.000Z</time>
      </trkpt>
      <trkpt lat="44.539" lon="0.66723">
        <ele>101.6</ele>
        <time>2017-01-29T08:02:46.000Z</time>
      </trkpt>
      <trkpt lat="44.53896" lon="0.66733">
        <ele>101</ele>
        <time>2017-01-29T08:02:47.000Z</time>
      </trkpt>
      <trkpt lat="44.53893" lon="0.66743">
        <ele>100.4</ele>
        <time>2017-01-29T08:02:48.000Z</time>
      </trkpt>
      <trkpt lat="44.53891" lon="0.66752">
        <ele>99.9</ele>
        <time>2017-01-29T08:02:49.000Z</time>
      </trkpt>
      <trkpt lat="44.53892" lon="0.66761">
        <ele>99.7</ele>
        <time>2017-01-29T08:02:50.000Z</time>
      </trkpt>
      <trkpt lat="44.53894" lon="0.66769">
        <ele>99.5</ele>
        <time>2017-01-29T08:02:51.000Z</time>
      </trkpt>
      <trkpt lat="44.53897" lon="0.66777">
        <ele>99.3</ele>
        <time>2017-01-29T08:02:52.000Z</time>
      </trkpt>
      <trkpt lat="44.53901" lon="0.66784">
        <ele>99</ele>
        <time>2017-01-29T08:02:53.000Z</time>
      </trkpt>
      <trkpt lat="44.53903" lon="0.66792">
        <ele>98.7</ele>
        <time>2017-01-29T08:02:54.000Z</time>
      </trkpt>
      <trkpt lat="44.53903" lon="0.66799">
        <ele>98.5</ele>
        <time>2017-01-29T08:02:55.000Z</time>
      </trkpt>
      <trkpt lat="44.53901" lon="0.66807">
        <ele>98.4</ele>
        <time>2017-01-29T08:02:56.000Z</time>
      </trkpt>
      <trkpt lat="44.53898" lon="0.66814">
        <ele>98.2</ele>
        <time>2017-01-29T08:02:57.000Z</time>
      </trkpt>
      <trkpt lat="44.53894" lon="0.66822">
        <ele>98.1</ele>
        <time>2017-01-29T08:02:58.000Z</time>
      </trkpt>
      <trkpt lat="44.53891" lon="0.66831">
        <ele>98</ele>
        <time>2017-01-29T08:02:59.000Z</time>
      </trkpt>
      <trkpt lat="44.53888" lon="0.66839">
        <ele>98</ele>
        <time>2017-01-29T08:03:00.000Z</time>
      </trkpt>
      <trkpt lat="44.53885" lon="0.66848">
        <ele>98</ele>
        <time>2017-01-29T08:03:01.000Z</time>
      </trkpt>
      <trkpt lat="44.53882" lon="0.66856">
        <ele>98.1</ele>
        <time>2017-01-29T08:03:02.000Z</time>
      </trkpt>
      <trkpt lat="44.53881" lon="0.66864">
        <ele>98.1</ele>
        <time>2017-01-29T08:03:03.000Z</time>
      </trkpt>
      <trkpt lat="44.5388" lon="0.66872">
        <ele>98</ele>
        <time>2017-01-29T08:03:04.000Z</time>
      </trkpt>
      <trkpt lat="44.53881" lon="0.6688">
        <ele>98</ele>
        <time>2017-01-29T08:03:05.000Z</time>
      </trkpt>
      <trkpt lat="44.53881" lon="0.66887">
        <ele>97.9</ele>
        <time>2017-01-29T08:03:06.000Z</time>
      </trkpt>
      <trkpt lat="44.53882" lon="0.66893">
        <ele>97.8</ele>
        <time>2017-01-29T08:03:07.000Z</time>
      </trkpt>
      <trkpt lat="44.53883" lon="0.669">
        <ele>97.7</ele>
        <time>2017-01-29T08:03:08.000Z</time>
      </trkpt>
      <trkpt lat="44.53885" lon="0.66906">
        <ele>97.6</ele>
        <time>2017-01-29T08:03:09.000Z</time>
      </trkpt>
      <trkpt lat="44.53886" lon="0.66914">
        <ele>97.5</ele>
        <time>2017-01-29T08:03:10.000Z</time>
      </trkpt>
      <trkpt lat="44.53888" lon="0.66921">
        <ele>97.6</ele>
        <time>2017-01-29T08:03:11.000Z</time>
      </trkpt>
      <trkpt lat="44.5389" lon="0.66928">
        <ele>98</ele>
        <time>2017-01-29T08:03:12.000Z</time>
      </trkpt>
      <trkpt lat="44.53892" lon="0.66935">
        <ele>98.3</ele>
        <time>2017-01-29T08:03:13.000Z</time>
      </trkpt>
      <trkpt lat="44.53894" lon="0.6694">
        <ele>98.5</ele>
        <time>2017-01-29T08:03:14.000Z</time>
      </trkpt>
      <trkpt lat="44.53895" lon="0.66944">
        <ele>98.7</ele>
        <time>2017-01-29T08:03:15.000Z</time>
      </trkpt>
      <trkpt lat="44.53896" lon="0.66945">
        <ele>98.8</ele>
        <time>2017-01-29T08:03:16.000Z</time>
      </trkpt>
      <trkpt lat="44.53897" lon="0.66946">
        <ele>98.8</ele>
        <time>2017-01-29T08:03:17.000Z</time>
      </trkpt>
      <trkpt lat="44.53898" lon="0.66947">
        <ele>98.8</ele>
        <time>2017-01-29T08:03:18.000Z</time>
      </trkpt>
      <trkpt lat="44.53899" lon="0.66949">
        <ele>98.9</ele>
        <time>2017-01-29T08:03:19.000Z</time>
      </trkpt>
      <trkpt lat="44.539" lon="0.66951">
        <ele>99</ele>
        <time>2017-01-29T08:03:20.000Z</time>
      </trkpt>
      <trkpt lat="44.53899" lon="0.66952">
        <ele>99.1</ele>
        <time>2017-01-29T08:03:21.000Z</time>
      </trkpt>
      <trkpt lat="44.53897" lon="0.66953">
        <ele>99.2</ele>
        <time>2017-01-29T08:03:22.000Z</time>
      </trkpt>
      <trkpt lat="44.53896" lon="0.66953">
        <ele>99.3</ele>
        <time>2017-01-29T08:03:23.000Z</time>
      </trkpt>
      <trkpt lat="44.53895" lon="0.66953">
        <ele>99.3</ele>
        <time>2017-01-29T08:03:24.000Z</time>
      </trkpt>
      <trkpt lat="44.53894" lon="0.66953">
        <ele>99.3</ele>
        <time>2017-01-29T08:03:25.000Z</time>
      </trkpt>
      <trkpt lat="44.53894" lon="0.66953">
        <ele>99.3</ele>
        <time>2017-01-29T08:03:26.000Z</time>
      </trkpt>
      <trkpt lat="44.53894" lon="0.66953">
        <ele>99.3</ele>
        <time>2017-01-29T08:03:27.000Z</time>
      </trkpt>
      <trkpt lat="44.53894" lon="0.66953">
        <ele>99.3</ele>
        <time>2017-01-29T08:03:28.000Z</time>
      </trkpt>
      <trkpt lat="44.53894" lon="0.66952">
        <ele>99.3</ele>
        <time>2017-01-29T08:03:29.000Z</time>
      </trkpt>
      <trkpt lat="44.53894" lon="0.66952">
        <ele>99.3</ele>
        <time>2017-01-29T08:03:30.000Z</time>
      </trkpt>
      <trkpt lat="44.53894" lon="0.66952">
        <ele>99.3</ele>
        <time>2017-01-29T08:03:31.000Z</time>
      </trkpt>
      <trkpt lat="44.53894" lon="0.66953">
        <ele>99.3</ele>
        <time>2017-01-29T08:03:32.000Z</time>
      </trkpt>
      <trkpt lat="44.53894" lon="0.66953">
        <ele>99.3</ele>
        <time>2017-01-29T08:03:33.000Z</time>
      </trkpt>
      <trkpt lat="44.53894" lon="0.66953">
        <ele>99.3</ele>
        <time>2017-01-29T08:03:34.000Z</time>
      </trkpt>
      <trkpt lat="44.53894" lon="0.66953">
        <ele>99.3</ele>
        <time>2017-01-29T08:03:35.000Z</time>
      </trkpt>
      <trkpt lat="44.53894" lon="0.66953">
        <ele>99.3</ele>
        <time>2017-01-29T08:03:36.000Z</time>
      </trkpt>
      <trkpt lat="44.53894" lon="0.66953">
        <ele>99.3</ele>
        <time>2017-01-29T08:03:37.000Z</time>
      </trkpt>
      <trkpt lat="44.53894" lon="0.66953">
        <ele>99.3</ele>
        <time>2017-01-29T08:03:38.000Z</time>
      </trkpt>
      <trkpt lat="44.53894" lon="0.66953">
        <ele>99.3</ele>
        <time>2017-01-29T08:03:39.000Z</time>
      </trkpt>
      <trkpt lat="44.53894" lon="0.66953">
        <ele>99.3</ele>
        <time>2017-01-29T08:03:40.000Z</time>
      </trkpt>
      <trkpt lat="44.53894" lon="0.66953">
        <ele>99.3</ele>
        <time>2017-01-29T08:03:41.000Z</time>
      </trkpt>
      <trkpt lat="44.53894" lon="0.66953">
        <ele>99.3</ele>
        <time>2017-01-29T08:03:42.000Z</time>
      </trkpt>
      <trkpt lat="44.53894" lon="0.66953">
        <ele>99.3</ele>
        <time>2017-01-29T08:03:43.000Z</time>
      </trkpt>
      <trkpt lat="44.53894" lon="0.66953">
        <ele>99.3</ele>
        <time>2017-01-29T08:03:44.000Z</time>
      </trkpt>
      <trkpt lat="44.53894" lon="0.66953">
        <ele>99.3</ele>
        <time>2017-01-29T08:03:45.000Z</time>
      </trkpt>
      <trkpt lat="44.53894" lon="0.66953">
        <ele>99.3</ele>
        <time>2017-01-29T08:03:46.000Z</time>
      </trkpt>
      <trkpt lat="44.53894" lon="0.66953">
        <ele>99.3</ele>
        <time>2017-01-29T08:03:47.000Z</time>
      </trkpt>
      <trkpt lat="44.53894" lon="0.66953">
        <ele>99.3</ele>
        <time>2017-01-29T08:03:48.000Z</time>
      </trkpt>
      <trkpt lat="44.53894" lon="0.66953">
        <ele>99.3</ele>
        <time>2017-01-29T08:03:49.000Z</time>
      </trkpt>
      <trkpt lat="44.53894" lon="0.66953">
        <ele>99.3</ele>
        <time>2017-01-29T08:03:50.000Z</time>
      </trkpt>
      <trkpt lat="44.53894" lon="0.66953">
        <ele>99.3</ele>
        <time>2017-01-29T08:03:51.000Z</time>
      </trkpt>
      <trkpt lat="44.53894" lon="0.66953">
        <ele>99.3</ele>
        <time>2017-01-29T08:03:52.000Z</time>
      </trkpt>
      <trkpt lat="44.53894" lon="0.66953">
        <ele>99.3</ele>
        <time>2017-01-29T08:03:53.000Z</time>
      </trkpt>
      <trkpt lat="44.53894" lon="0.66953">
        <ele>99.3</ele>
        <time>2017-01-29T08:03:54.000Z</time>
      </trkpt>
      <trkpt lat="44.53894" lon="0.66953">
        <ele>99.3</ele>
        <time>2017-01-29T08:03:55.000Z</time>
      </trkpt>
      <trkpt lat="44.53894" lon="0.66953">
        <ele>99.3</ele>
        <time>2017-01-29T08:03:56.000Z</time>
      </trkpt>
      <trkpt lat="44.53894" lon="0.66953">
        <ele>99.3</ele>
        <time>2017-01-29T08:03:57.000Z</time>
      </trkpt>
      <trkpt lat="44.53894" lon="0.66953">
        <ele>99.3</ele>
        <time>2017-01-29T08:03:58.000Z</time>
      </trkpt>
      <trkpt lat="44.53894" lon="0.66953">
        <ele>99.3</ele>
        <time>2017-01-29T08:03:59.000Z</time>
      </trkpt>
      <trkpt lat="44.53894" lon="0.66953">
        <ele>99.3</ele>
        <time>2017-01-29T08:04:00.000Z</time>
      </trkpt>
      <trkpt lat="44.53894" lon="0.66953">
        <ele>99.3</ele>
        <time>2017-01-29T08:04:01.000Z</time>
      </trkpt>
      <trkpt lat="44.53894" lon="0.66953">
        <ele>99.3</ele>
        <time>2017-01-29T08:04:02.000Z</time>
      </trkpt>
      <trkpt lat="44.53894" lon="0.66953">
        <ele>99.3</ele>
        <time>2017-01-29T08:04:03.000Z</time>
      </trkpt>
      <trkpt lat="44.53894" lon="0.66953">
        <ele>99.3</ele>
        <time>2017-01-29T08:04:04.000Z</time>
      </trkpt>
      <trkpt lat="44.53894" lon="0.66953">
        <ele>99.3</ele>
        <time>2017-01-29T08:04:05.000Z</time>
      </trkpt>
      <trkpt lat="44.53894" lon="0.66953">
        <ele>99.3</ele>
        <time>2017-01-29T08:04:06.000Z</time>
      </trkpt>
      <trkpt lat="44.53894" lon="0.66953">
        <ele>99.3</ele>
        <time>2017-01-29T08:04:07.000Z</time>
      </trkpt>
      <trkpt lat="44.53894" lon="0.66953">
        <ele>99.3</ele>
        <time>2017-01-29T08:04:08.000Z</time>
      </trkpt>
      <trkpt lat="44.53894" lon="0.66953">
        <ele>99.3</ele>
        <time>2017-01-29T08:04:09.000Z</time>
      </trkpt>
      <trkpt lat="44.53894" lon="0.66953">
        <ele>99.3</ele>
        <time>2017-01-29T08:04:10.000Z</time>
      </trkpt>
      <trkpt lat="44.53894" lon="0.66952">
        <ele>99.3</ele>
        <time>2017-01-29T08:04:11.000Z</time>
      </trkpt>
      <trkpt lat="44.53894" lon="0.66952">
        <ele>99.3</ele>
        <time>2017-01-29T08:04:12.000Z</time>
      </trkpt>
      <trkpt lat="44.53894" lon="0.66952">
        <ele>99.3</ele>
        <time>2017-01-29T08:04:13.000Z</time>
      </trkpt>
      <trkpt lat="44.53894" lon="0.66952">
        <ele>99.3</ele>
        <time>2017-01-29T08:04:14.000Z</time>
      </trkpt>
      <trkpt lat="44.53895" lon="0.66951">
        <ele>99.2</ele>
        <time>2017-01-29T08:04:15.000Z</time>
      </trkpt>
      <trkpt lat="44.53896" lon="0.66949">
        <ele>99</ele>
        <time>2017-01-29T08:04:16.000Z</time>
      </trkpt>
      <trkpt lat="44.53898" lon="0.66948">
        <ele>98.9</ele>
        <time>2017-01-29T08:04:17.000Z</time>
      </trkpt>
      <trkpt lat="44.539" lon="0.66949">
        <ele>98.9</ele>
        <time>2017-01-29T08:04:18.000Z</time>
      </trkpt>
      <trkpt lat="44.539" lon="0.66952">
        <ele>99.1</ele>
        <time>2017-01-29T08:04:19.000Z</time>
      </trkpt>
      <trkpt lat="44.53901" lon="0.66955">
        <ele>99.2</ele>
        <time>2017-01-29T08:04:20.000Z</time>
      </trkpt>
      <trkpt lat="44.539" lon="0.66957">
        <ele>99.4</ele>
        <time>2017-01-29T08:04:21.000Z</time>
      </trkpt>
      <trkpt lat="44.539" lon="0.6696">
        <ele>99.6</ele>
        <time>2017-01-29T08:04:22.000Z</time>
      </trkpt>
      <trkpt lat="44.53901" lon="0.66962">
        <ele>99.7</ele>
        <time>2017-01-29T08:04:23.000Z</time>
      </trkpt>
      <trkpt lat="44.53901" lon="0.66964">
        <ele>99.8</ele>
        <time>2017-01-29T08:04:24.000Z</time>
      </trkpt>
      <trkpt lat="44.53901" lon="0.66966">
        <ele>100</ele>
        <time>2017-01-29T08:04:25.000Z</time>
      </trkpt>
      <trkpt lat="44.53901" lon="0.66969">
        <ele>100.1</ele>
        <time>2017-01-29T08:04:26.000Z</time>
      </trkpt>
      <trkpt lat="44.53902" lon="0.66971">
        <ele>100.3</ele>
        <time>2017-01-29T08:04:27.000Z</time>
      </trkpt>
      <trkpt lat="44.53902" lon="0.66974">
        <ele>100.5</ele>
        <time>2017-01-29T08:04:28.000Z</time>
      </trkpt>
      <trkpt lat="44.53902" lon="0.66977">
        <ele>100.7</ele>
        <time>2017-01-29T08:04:29.000Z</time>
      </trkpt>
      <trkpt lat="44.53902" lon="0.6698">
        <ele>100.9</ele>
        <time>2017-01-29T08:04:30.000Z</time>
      </trkpt>
      <trkpt lat="44.53902" lon="0.66983">
        <ele>101.1</ele>
        <time>2017-01-29T08:04:31.000Z</time>
      </trkpt>
      <trkpt lat="44.53902" lon="0.66986">
        <ele>101.3</ele>
        <time>2017-01-29T08:04:32.000Z</time>
      </trkpt>
      <trkpt lat="44.53903" lon="0.66989">
        <ele>101.5</ele>
        <time>2017-01-29T08:04:33.000Z</time>
      </trkpt>
      <trkpt lat="44.53903" lon="0.66992">
        <ele>101.7</ele>
        <time>2017-01-29T08:04:34.000Z</time>
      </trkpt>
      <trkpt lat="44.53903" lon="0.66996">
        <ele>101.9</ele>
        <time>2017-01-29T08:04:35.000Z</time>
      </trkpt>
      <trkpt lat="44.53903" lon="0.66999">
        <ele>102.1</ele>
        <time>2017-01-29T08:04:36.000Z</time>
      </trkpt>
      <trkpt lat="44.53903" lon="0.67002">
        <ele>102.3</ele>
        <time>2017-01-29T08:04:37.000Z</time>
      </trkpt>
      <trkpt lat="44.53903" lon="0.67005">
        <ele>102.5</ele>
        <time>2017-01-29T08:04:38.000Z</time>
      </trkpt>
      <trkpt lat="44.53903" lon="0.67008">
        <ele>102.7</ele>
        <time>2017-01-29T08:04:39.000Z</time>
      </trkpt>
      <trkpt lat="44.53904" lon="0.67012">
        <ele>102.9</ele>
        <time>2017-01-29T08:04:40.000Z</time>
      </trkpt>
      <trkpt lat="44.53904" lon="0.67015">
        <ele>103.1</ele>
        <time>2017-01-29T08:04:41.000Z</time>
      </trkpt>
      <trkpt lat="44.53904" lon="0.67018">
        <ele>103.4</ele>
        <time>2017-01-29T08:04:42.000Z</time>
      </trkpt>
      <trkpt lat="44.53904" lon="0.67022">
        <ele>103.6</ele>
        <time>2017-01-29T08:04:43.000Z</time>
      </trkpt>
      <trkpt lat="44.53905" lon="0.67025">
        <ele>103.8</ele>
        <time>2017-01-29T08:04:44.000Z</time>
      </trkpt>
      <trkpt lat="44.53905" lon="0.67028">
        <ele>104</ele>
        <time>2017-01-29T08:04:45.000Z</time>
      </trkpt>
      <trkpt lat="44.53906" lon="0.67032">
        <ele>104.3</ele>
        <time>2017-01-29T08:04:46.000Z</time>
      </trkpt>
      <trkpt lat="44.53906" lon="0.67035">
        <ele>104.5</ele>
        <time>2017-01-29T08:04:47.000Z</time>
      </trkpt>
      <trkpt lat="44.53906" lon="0.67038">
        <ele>104.7</ele>
        <time>2017-01-29T08:04:48.000Z</time>
      </trkpt>
      <trkpt lat="44.53907" lon="0.67042">
        <ele>104.9</ele>
        <time>2017-01-29T08:04:49.000Z</time>
      </trkpt>
      <trkpt lat="44.53907" lon="0.67045">
        <ele>105.2</ele>
        <time>2017-01-29T08:04:50.000Z</time>
      </trkpt>
      <trkpt lat="44.53908" lon="0.67048">
        <ele>105.4</ele>
        <time>2017-01-29T08:04:51.000Z</time>
      </trkpt>
      <trkpt lat="44.53908" lon="0.67051">
        <ele>105.6</ele>
        <time>2017-01-29T08:04:52.000Z</time>
      </trkpt>
      <trkpt lat="44.53909" lon="0.67055">
        <ele>105.8</ele>
        <time>2017-01-29T08:04:53.000Z</time>
      </trkpt>
      <trkpt lat="44.53909" lon="0.67058">
        <ele>106.1</ele>
        <time>2017-01-29T08:04:54.000Z</time>
      </trkpt>
      <trkpt lat="44.53909" lon="0.67061">
        <ele>106.3</ele>
        <time>2017-01-29T08:04:55.000Z</time>
      </trkpt>
      <trkpt lat="44.5391" lon="0.67064">
        <ele>106.5</ele>
        <time>2017-01-29T08:04:56.000Z</time>
      </trkpt>
      <trkpt lat="44.5391" lon="0.67067">
        <ele>106.7</ele>
        <time>2017-01-29T08:04:57.000Z</time>
      </trkpt>
      <trkpt lat="44.53911" lon="0.6707">
        <ele>106.9</ele>
        <time>2017-01-29T08:04:58.000Z</time>
      </trkpt>
      <trkpt lat="44.53911" lon="0.67073">
        <ele>107.2</ele>
        <time>2017-01-29T08:04:59.000Z</time>
      </trkpt>
      <trkpt lat="44.53911" lon="0.67076">
        <ele>107.4</ele>
        <time>2017-01-29T08:05:00.000Z</time>
      </trkpt>
      <trkpt lat="44.53912" lon="0.6708">
        <ele>107.6</ele>
        <time>2017-01-29T08:05:01.000Z</time>
      </trkpt>
      <trkpt lat="44.53912" lon="0.67083">
        <ele>107.9</ele>
        <time>2017-01-29T08:05:02.000Z</time>
      </trkpt>
      <trkpt lat="44.53913" lon="0.67086">
        <ele>107.8</ele>
        <time>2017-01-29T08:05:03.000Z</time>
      </trkpt>
      <trkpt lat="44.53913" lon="0.67089">
        <ele>107.8</ele>
        <time>2017-01-29T08:05:04.000Z</time>
      </trkpt>
      <trkpt lat="44.53914" lon="0.67093">
        <ele>107.7</ele>
        <time>2017-01-29T08:05:05.000Z</time>
      </trkpt>
      <trkpt lat="44.53914" lon="0.67096">
        <ele>107.6</ele>
        <time>2017-01-29T08:05:06.000Z</time>
      </trkpt>
      <trkpt lat="44.53915" lon="0.67099">
        <ele>107.6</ele>
        <time>2017-01-29T08:05:07.000Z</time>
      </trkpt>
      <trkpt lat="44.53915" lon="0.67103">
        <ele>107.5</ele>
        <time>2017-01-29T08:05:08.000Z</time>
      </trkpt>
      <trkpt lat="44.53916" lon="0.67106">
        <ele>107.4</ele>
        <time>2017-01-29T08:05:09.000Z</time>
      </trkpt>
      <trkpt lat="44.53916" lon="0.6711">
        <ele>107.4</ele>
        <time>2017-01-29T08:05:10.000Z</time>
      </trkpt>
      <trkpt lat="44.53917" lon="0.67113">
        <ele>107.3</ele>
        <time>2017-01-29T08:05:11.000Z</time>
      </trkpt>
      <trkpt lat="44.53917" lon="0.67117">
        <ele>107.2</ele>
        <time>2017-01-29T08:05:12.000Z</time>
      </trkpt>
      <trkpt lat="44.53918" lon="0.67121">
        <ele>107</ele>
        <time>2017-01-29T08:05:13.000Z</time>
      </trkpt>
      <trkpt lat="44.53918" lon="0.67125">
        <ele>106.9</ele>
        <time>2017-01-29T08:05:14.000Z</time>
      </trkpt>
      <trkpt lat="44.53919" lon="0.67129">
        <ele>106.8</ele>
        <time>2017-01-29T08:05:15.000Z</time>
      </trkpt>
      <trkpt lat="44.53919" lon="0.67134">
        <ele>106.6</ele>
        <time>2017-01-29T08:05:16.000Z</time>
      </trkpt>
      <trkpt lat="44.5392" lon="0.67138">
        <ele>106.5</ele>
        <time>2017-01-29T08:05:17.000Z</time>
      </trkpt>
      <trkpt lat="44.5392" lon="0.67143">
        <ele>106.3</ele>
        <time>2017-01-29T08:05:18.000Z</time>
      </trkpt>
      <trkpt lat="44.5392" lon="0.67148">
        <ele>106.2</ele>
        <time>2017-01-29T08:05:19.000Z</time>
      </trkpt>
      <trkpt lat="44.53921" lon="0.67153">
        <ele>106</ele>
        <time>2017-01-29T08:05:20.000Z</time>
      </trkpt>
      <trkpt lat="44.53921" lon="0.67158">
        <ele>105.9</ele>
        <time>2017-01-29T08:05:21.000Z</time>
      </trkpt>
      <trkpt lat="44.53921" lon="0.67163">
        <ele>105.8</ele>
        <time>2017-01-29T08:05:22.000Z</time>
      </trkpt>
      <trkpt lat="44.53921" lon="0.67168">
        <ele>105.6</ele>
        <time>2017-01-29T08:05:23.000Z</time>
      </trkpt>
      <trkpt lat="44.53921" lon="0.67174">
        <ele>105.5</ele>
        <time>2017-01-29T08:05:24.000Z</time>
      </trkpt>
      <trkpt lat="44.53921" lon="0.67179">
        <ele>105.3</ele>
        <time>2017-01-29T08:05:25.000Z</time>
      </trkpt>
      <trkpt lat="44.53922" lon="0.67185">
        <ele>105.2</ele>
        <time>2017-01-29T08:05:26.000Z</time>
      </trkpt>
      <trkpt lat="44.53922" lon="0.67191">
        <ele>105</ele>
        <time>2017-01-29T08:05:27.000Z</time>
      </trkpt>
      <trkpt lat="44.53922" lon="0.67197">
        <ele>104.9</ele>
        <time>2017-01-29T08:05:28.000Z</time>
      </trkpt>
      <trkpt lat="44.53922" lon="0.67204">
        <ele>104.7</ele>
        <time>2017-01-29T08:05:29.000Z</time>
      </trkpt>
      <trkpt lat="44.53922" lon="0.6721">
        <ele>104.5</ele>
        <time>2017-01-29T08:05:30.000Z</time>
      </trkpt>
      <trkpt lat="44.53922" lon="0.67216">
        <ele>104.4</ele>
        <time>2017-01-29T08:05:31.000Z</time>
      </trkpt>
      <trkpt lat="44.53922" lon="0.67223">
        <ele>104.2</ele>
        <time>2017-01-29T08:05:32.000Z</time>
      </trkpt>
      <trkpt lat="44.53922" lon="0.67229">
        <ele>104.1</ele>
        <time>2017-01-29T08:05:33.000Z</time>
      </trkpt>
      <trkpt lat="44.53921" lon="0.67235">
        <ele>103.9</ele>
        <time>2017-01-29T08:05:34.000Z</time>
      </trkpt>
      <trkpt lat="44.53921" lon="0.67241">
        <ele>103.8</ele>
        <time>2017-01-29T08:05:35.000Z</time>
      </trkpt>
      <trkpt lat="44.5392" lon="0.67248">
        <ele>103.7</ele>
        <time>2017-01-29T08:05:36.000Z</time>
      </trkpt>
      <trkpt lat="44.5392" lon="0.67254">
        <ele>103.6</ele>
        <time>2017-01-29T08:05:37.000Z</time>
      </trkpt>
      <trkpt lat="44.53919" lon="0.67261">
        <ele>103.4</ele>
        <time>2017-01-29T08:05:38.000Z</time>
      </trkpt>
      <trkpt lat="44.53919" lon="0.67268">
        <ele>103.1</ele>
        <time>2017-01-29T08:05:39.000Z</time>
      </trkpt>
      <trkpt lat="44.53919" lon="0.67276">
        <ele>102.9</ele>
        <time>2017-01-29T08:05:40.000Z</time>
      </trkpt>
      <trkpt lat="44.53919" lon="0.67283">
        <ele>102.6</ele>
        <time>2017-01-29T08:05:41.000Z</time>
      </trkpt>
      <trkpt lat="44.53918" lon="0.67291">
        <ele>102.4</ele>
        <time>2017-01-29T08:05:42.000Z</time>
      </trkpt>
      <trkpt lat="44.53918" lon="0.67299">
        <ele>102.1</ele>
        <time>2017-01-29T08:05:43.000Z</time>
      </trkpt>
      <trkpt lat="44.53918" lon="0.67307">
        <ele>101.9</ele>
        <time>2017-01-29T08:05:44.000Z</time>
      </trkpt>
      <trkpt lat="44.53917" lon="0.67314">
        <ele>101.6</ele>
        <time>2017-01-29T08:05:45.000Z</time>
      </trkpt>
      <trkpt lat="44.53917" lon="0.67322">
        <ele>101.4</ele>
        <time>2017-01-29T08:05:46.000Z</time>
      </trkpt>
      <trkpt lat="44.53916" lon="0.67329">
        <ele>101.2</ele>
        <time>2017-01-29T08:05:47.000Z</time>
      </trkpt>
      <trkpt lat="44.53916" lon="0.67336">
        <ele>101</ele>
        <time>2017-01-29T08:05:48.000Z</time>
      </trkpt>
      <trkpt lat="44.53915" lon="0.67343">
        <ele>101</ele>
        <time>2017-01-29T08:05:49.000Z</time>
      </trkpt>
      <trkpt lat="44.53914" lon="0.67351">
        <ele>100.9</ele>
        <time>2017-01-29T08:05:50.000Z</time>
      </trkpt>
      <trkpt lat="44.53914" lon="0.67358">
        <ele>100.8</ele>
        <time>2017-01-29T08:05:51.000Z</time>
      </trkpt>
      <trkpt lat="44.53913" lon="0.67366">
        <ele>100.8</ele>
        <time>2017-01-29T08:05:52.000Z</time>
      </trkpt>
      <trkpt lat="44.53912" lon="0.67374">
        <ele>100.8</ele>
        <time>2017-01-29T08:05:53.000Z</time>
      </trkpt>
      <trkpt lat="44.53912" lon="0.67382">
        <ele>100.7</ele>
        <time>2017-01-29T08:05:54.000Z</time>
      </trkpt>
      <trkpt lat="44.53911" lon="0.6739">
        <ele>100.7</ele>
        <time>2017-01-29T08:05:55.000Z</time>
      </trkpt>
      <trkpt lat="44.5391" lon="0.67398">
        <ele>100.6</ele>
        <time>2017-01-29T08:05:56.000Z</time>
      </trkpt>
      <trkpt lat="44.5391" lon="0.67406">
        <ele>100.6</ele>
        <time>2017-01-29T08:05:57.000Z</time>
      </trkpt>
      <trkpt lat="44.53909" lon="0.67414">
        <ele>100.6</ele>
        <time>2017-01-29T08:05:58.000Z</time>
      </trkpt>
      <trkpt lat="44.53909" lon="0.67421">
        <ele>100.6</ele>
        <time>2017-01-29T08:05:59.000Z</time>
      </trkpt>
      <trkpt lat="44.53909" lon="0.67429">
        <ele>100.5</ele>
        <time>2017-01-29T08:06:00.000Z</time>
      </trkpt>
      <trkpt lat="44.53909" lon="0.67436">
        <ele>100.5</ele>
        <time>2017-01-29T08:06:01.000Z</time>
      </trkpt>
      <trkpt lat="44.53909" lon="0.67443">
        <ele>100.5</ele>
        <time>2017-01-29T08:06:02.000Z</time>
      </trkpt>
      <trkpt lat="44.53909" lon="0.6745">
        <ele>100.4</ele>
        <time>2017-01-29T08:06:03.000Z</time>
      </trkpt>
      <trkpt lat="44.53909" lon="0.67456">
        <ele>100.4</ele>
        <time>2017-01-29T08:06:04.000Z</time>
      </trkpt>
      <trkpt lat="44.53908" lon="0.67462">
        <ele>100.5</ele>
        <time>2017-01-29T08:06:05.000Z</time>
      </trkpt>
      <trkpt lat="44.53907" lon="0.67467">
        <ele>100.5</ele>
        <time>2017-01-29T08:06:06.000Z</time>
      </trkpt>
      <trkpt lat="44.53907" lon="0.67473">
        <ele>100.5</ele>
        <time>2017-01-29T08:06:07.000Z</time>
      </trkpt>
      <trkpt lat="44.53907" lon="0.67478">
        <ele>100.5</ele>
        <time>2017-01-29T08:06:08.000Z</time>
      </trkpt>
      <trkpt lat="44.53907" lon="0.67484">
        <ele>100.4</ele>
        <time>2017-01-29T08:06:09.000Z</time>
      </trkpt>
      <trkpt lat="44.53906" lon="0.67489">
        <ele>100.4</ele>
        <time>2017-01-29T08:06:10.000Z</time>
      </trkpt>
      <trkpt lat="44.53906" lon="0.67495">
        <ele>100.4</ele>
        <time>2017-01-29T08:06:11.000Z</time>
      </trkpt>
      <trkpt lat="44.53906" lon="0.675">
        <ele>100.4</ele>
        <time>2017-01-29T08:06:12.000Z</time>
      </trkpt>
      <trkpt lat="44.53905" lon="0.67506">
        <ele>100.4</ele>
        <time>2017-01-29T08:06:13.000Z</time>
      </trkpt>
      <trkpt lat="44.53905" lon="0.67511">
        <ele>100.5</ele>
        <time>2017-01-29T08:06:14.000Z</time>
      </trkpt>
      <trkpt lat="44.53904" lon="0.67516">
        <ele>100.5</ele>
        <time>2017-01-29T08:06:15.000Z</time>
      </trkpt>
      <trkpt lat="44.53903" lon="0.67522">
        <ele>100.6</ele>
        <time>2017-01-29T08:06:16.000Z</time>
      </trkpt>
      <trkpt lat="44.53902" lon="0.67527">
        <ele>100.6</ele>
        <time>2017-01-29T08:06:17.000Z</time>
      </trkpt>
      <trkpt lat="44.53901" lon="0.67532">
        <ele>100.7</ele>
        <time>2017-01-29T08:06:18.000Z</time>
      </trkpt>
      <trkpt lat="44.539" lon="0.67537">
        <ele>100.7</ele>
        <time>2017-01-29T08:06:19.000Z</time>
      </trkpt>
      <trkpt lat="44.53899" lon="0.67542">
        <ele>100.7</ele>
        <time>2017-01-29T08:06:20.000Z</time>
      </trkpt>
      <trkpt lat="44.53898" lon="0.67547">
        <ele>100.7</ele>
        <time>2017-01-29T08:06:21.000Z</time>
      </trkpt>
      <trkpt lat="44.53896" lon="0.67552">
        <ele>100.7</ele>
        <time>2017-01-29T08:06:22.000Z</time>
      </trkpt>
      <trkpt lat="44.53895" lon="0.67557">
        <ele>100.8</ele>
        <time>2017-01-29T08:06:23.000Z</time>
      </trkpt>
      <trkpt lat="44.53893" lon="0.67563">
        <ele>100.7</ele>
        <time>2017-01-29T08:06:24.000Z</time>
      </trkpt>
      <trkpt lat="44.53891" lon="0.67569">
        <ele>100.7</ele>
        <time>2017-01-29T08:06:25.000Z</time>
      </trkpt>
      <trkpt lat="44.5389" lon="0.67575">
        <ele>100.7</ele>
        <time>2017-01-29T08:06:26.000Z</time>
      </trkpt>
      <trkpt lat="44.53888" lon="0.67581">
        <ele>100.7</ele>
        <time>2017-01-29T08:06:27.000Z</time>
      </trkpt>
      <trkpt lat="44.53886" lon="0.67587">
        <ele>100.5</ele>
        <time>2017-01-29T08:06:28.000Z</time>
      </trkpt>
      <trkpt lat="44.53884" lon="0.67594">
        <ele>100.1</ele>
        <time>2017-01-29T08:06:29.000Z</time>
      </trkpt>
      <trkpt lat="44.53882" lon="0.67601">
        <ele>99.8</ele>
        <time>2017-01-29T08:06:30.000Z</time>
      </trkpt>
      <trkpt lat="44.5388" lon="0.67609">
        <ele>99.4</ele>
        <time>2017-01-29T08:06:31.000Z</time>
      </trkpt>
      <trkpt lat="44.53879" lon="0.67617">
        <ele>99.1</ele>
        <time>2017-01-29T08:06:32.000Z</time>
      </trkpt>
      <trkpt lat="44.53877" lon="0.67626">
        <ele>98.7</ele>
        <time>2017-01-29T08:06:33.000Z</time>
      </trkpt>
      <trkpt lat="44.53877" lon="0.67636">
        <ele>98.3</ele>
        <time>2017-01-29T08:06:34.000Z</time>
      </trkpt>
      <trkpt lat="44.53878" lon="0.67646">
        <ele>97.8</ele>
        <time>2017-01-29T08:06:35.000Z</time>
      </trkpt>
      <trkpt lat="44.5388" lon="0.67656">
        <ele>97.4</ele>
        <time>2017-01-29T08:06:36.000Z</time>
      </trkpt>
      <trkpt lat="44.53882" lon="0.67667">
        <ele>96.8</ele>
        <time>2017-01-29T08:06:37.000Z</time>
      </trkpt>
      <trkpt lat="44.53884" lon="0.67677">
        <ele>96.7</ele>
        <time>2017-01-29T08:06:38.000Z</time>
      </trkpt>
      <trkpt lat="44.53885" lon="0.67686">
        <ele>96.6</ele>
        <time>2017-01-29T08:06:39.000Z</time>
      </trkpt>
      <trkpt lat="44.53886" lon="0.67695">
        <ele>96.4</ele>
        <time>2017-01-29T08:06:40.000Z</time>
      </trkpt>
      <trkpt lat="44.53886" lon="0.67703">
        <ele>96.3</ele>
        <time>2017-01-29T08:06:41.000Z</time>
      </trkpt>
      <trkpt lat="44.53886" lon="0.67711">
        <ele>96.3</ele>
        <time>2017-01-29T08:06:42.000Z</time>
      </trkpt>
      <trkpt lat="44.53885" lon="0.67719">
        <ele>96.2</ele>
        <time>2017-01-29T08:06:43.000Z</time>
      </trkpt>
      <trkpt lat="44.53884" lon="0.67727">
        <ele>96.2</ele>
        <time>2017-01-29T08:06:44.000Z</time>
      </trkpt>
      <trkpt lat="44.53883" lon="0.67734">
        <ele>96.2</ele>
        <time>2017-01-29T08:06:45.000Z</time>
      </trkpt>
      <trkpt lat="44.53881" lon="0.67741">
        <ele>96.2</ele>
        <time>2017-01-29T08:06:46.000Z</time>
      </trkpt>
      <trkpt lat="44.5388" lon="0.67747">
        <ele>96.2</ele>
        <time>2017-01-29T08:06:47.000Z</time>
      </trkpt>
      <trkpt lat="44.5388" lon="0.67752">
        <ele>96.2</ele>
        <time>2017-01-29T08:06:48.000Z</time>
      </trkpt>
      <trkpt lat="44.53879" lon="0.67755">
        <ele>96.2</ele>
        <time>2017-01-29T08:06:49.000Z</time>
      </trkpt>
      <trkpt lat="44.53878" lon="0.67758">
        <ele>96.2</ele>
        <time>2017-01-29T08:06:50.000Z</time>
      </trkpt>
      <trkpt lat="44.53877" lon="0.67761">
        <ele>96.2</ele>
        <time>2017-01-29T08:06:51.000Z</time>
      </trkpt>
      <trkpt lat="44.53877" lon="0.67764">
        <ele>96.2</ele>
        <time>2017-01-29T08:06:52.000Z</time>
      </trkpt>
      <trkpt lat="44.53876" lon="0.67768">
        <ele>96.2</ele>
        <time>2017-01-29T08:06:53.000Z</time>
      </trkpt>
      <trkpt lat="44.53876" lon="0.67772">
        <ele>96.2</ele>
        <time>2017-01-29T08:06:54.000Z</time>
      </trkpt>
      <trkpt lat="44.53876" lon="0.67776">
        <ele>96.1</ele>
        <time>2017-01-29T08:06:55.000Z</time>
      </trkpt>
      <trkpt lat="44.53877" lon="0.6778">
        <ele>96</ele>
        <time>2017-01-29T08:06:56.000Z</time>
      </trkpt>
      <trkpt lat="44.53878" lon="0.67784">
        <ele>95.9</ele>
        <time>2017-01-29T08:06:57.000Z</time>
      </trkpt>
      <trkpt lat="44.53879" lon="0.67789">
        <ele>95.8</ele>
        <time>2017-01-29T08:06:58.000Z</time>
      </trkpt>
      <trkpt lat="44.5388" lon="0.67793">
        <ele>95.6</ele>
        <time>2017-01-29T08:06:59.000Z</time>
      </trkpt>
      <trkpt lat="44.53882" lon="0.67797">
        <ele>95.5</ele>
        <time>2017-01-29T08:07:00.000Z</time>
      </trkpt>
      <trkpt lat="44.53883" lon="0.67802">
        <ele>95.3</ele>
        <time>2017-01-29T08:07:01.000Z</time>
      </trkpt>
      <trkpt lat="44.53884" lon="0.67806">
        <ele>95.1</ele>
        <time>2017-01-29T08:07:02.000Z</time>
      </trkpt>
      <trkpt lat="44.53886" lon="0.67811">
        <ele>95</ele>
        <time>2017-01-29T08:07:03.000Z</time>
      </trkpt>
      <trkpt lat="44.53887" lon="0.67816">
        <ele>94.8</ele>
        <time>2017-01-29T08:07:04.000Z</time>
      </trkpt>
      <trkpt lat="44.53888" lon="0.67821">
        <ele>94.6</ele>
        <time>2017-01-29T08:07:05.000Z</time>
      </trkpt>
      <trkpt lat="44.53889" lon="0.67826">
        <ele>94.4</ele>
        <time>2017-01-29T08:07:06.000Z</time>
      </trkpt>
      <trkpt lat="44.53891" lon="0.67831">
        <ele>94.2</ele>
        <time>2017-01-29T08:07:07.000Z</time>
      </trkpt>
      <trkpt lat="44.53892" lon="0.67836">
        <ele>94.2</ele>
        <time>2017-01-29T08:07:08.000Z</time>
      </trkpt>
      <trkpt lat="44.53893" lon="0.67841">
        <ele>94.2</ele>
        <time>2017-01-29T08:07:09.000Z</time>
      </trkpt>
      <trkpt lat="44.53894" lon="0.67846">
        <ele>94.3</ele>
        <time>2017-01-29T08:07:10.000Z</time>
      </trkpt>
      <trkpt lat="44.53895" lon="0.67851">
        <ele>94.4</ele>
        <time>2017-01-29T08:07:11.000Z</time>
      </trkpt>
      <trkpt lat="44.53896" lon="0.67856">
        <ele>94.5</ele>
        <time>2017-01-29T08:07:12.000Z</time>
      </trkpt>
      <trkpt lat="44.53897" lon="0.67861">
        <ele>94.6</ele>
        <time>2017-01-29T08:07:13.000Z</time>
      </trkpt>
      <trkpt lat="44.53898" lon="0.67866">
        <ele>94.7</ele>
        <time>2017-01-29T08:07:14.000Z</time>
      </trkpt>
      <trkpt lat="44.53899" lon="0.67871">
        <ele>94.8</ele>
        <time>2017-01-29T08:07:15.000Z</time>
      </trkpt>
      <trkpt lat="44.539" lon="0.67876">
        <ele>94.9</ele>
        <time>2017-01-29T08:07:16.000Z</time>
      </trkpt>
      <trkpt lat="44.53901" lon="0.67881">
        <ele>95.1</ele>
        <time>2017-01-29T08:07:17.000Z</time>
      </trkpt>
      <trkpt lat="44.53903" lon="0.67886">
        <ele>95.2</ele>
        <time>2017-01-29T08:07:18.000Z</time>
      </trkpt>
      <trkpt lat="44.53904" lon="0.67891">
        <ele>95.3</ele>
        <time>2017-01-29T08:07:19.000Z</time>
      </trkpt>
      <trkpt lat="44.53905" lon="0.67896">
        <ele>95.5</ele>
        <time>2017-01-29T08:07:20.000Z</time>
      </trkpt>
      <trkpt lat="44.53906" lon="0.67901">
        <ele>95.6</ele>
        <time>2017-01-29T08:07:21.000Z</time>
      </trkpt>
      <trkpt lat="44.53907" lon="0.67906">
        <ele>95.8</ele>
        <time>2017-01-29T08:07:22.000Z</time>
      </trkpt>
      <trkpt lat="44.53908" lon="0.67911">
        <ele>96</ele>
        <time>2017-01-29T08:07:23.000Z</time>
      </trkpt>
      <trkpt lat="44.53909" lon="0.67916">
        <ele>96.1</ele>
        <time>2017-01-29T08:07:24.000Z</time>
      </trkpt>
      <trkpt lat="44.53909" lon="0.67921">
        <ele>96.3</ele>
        <time>2017-01-29T08:07:25.000Z</time>
      </trkpt>
      <trkpt lat="44.5391" lon="0.67926">
        <ele>96.5</ele>
        <time>2017-01-29T08:07:26.000Z</time>
      </trkpt>
      <trkpt lat="44.53911" lon="0.67931">
        <ele>96.6</ele>
        <time>2017-01-29T08:07:27.000Z</time>
      </trkpt>
      <trkpt lat="44.53911" lon="0.67936">
        <ele>96.8</ele>
        <time>2017-01-29T08:07:28.000Z</time>
      </trkpt>
      <trkpt lat="44.53912" lon="0.67941">
        <ele>97</ele>
        <time>2017-01-29T08:07:29.000Z</time>
      </trkpt>
      <trkpt lat="44.53913" lon="0.67945">
        <ele>97.1</ele>
        <time>2017-01-29T08:07:30.000Z</time>
      </trkpt>
      <trkpt lat="44.53914" lon="0.6795">
        <ele>97.3</ele>
        <time>2017-01-29T08:07:31.000Z</time>
      </trkpt>
      <trkpt lat="44.53915" lon="0.67955">
        <ele>97.4</ele>
        <time>2017-01-29T08:07:32.000Z</time>
      </trkpt>
      <trkpt lat="44.53915" lon="0.6796">
        <ele>97.6</ele>
        <time>2017-01-29T08:07:33.000Z</time>
      </trkpt>
      <trkpt lat="44.53916" lon="0.67964">
        <ele>97.7</ele>
        <time>2017-01-29T08:07:34.000Z</time>
      </trkpt>
      <trkpt lat="44.53917" lon="0.67969">
        <ele>97.9</ele>
        <time>2017-01-29T08:07:35.000Z</time>
      </trkpt>
      <trkpt lat="44.53918" lon="0.67974">
        <ele>98.1</ele>
        <time>2017-01-29T08:07:36.000Z</time>
      </trkpt>
      <trkpt lat="44.53918" lon="0.67979">
        <ele>98.2</ele>
        <time>2017-01-29T08:07:37.000Z</time>
      </trkpt>
      <trkpt lat="44.53919" lon="0.67984">
        <ele>98.4</ele>
        <time>2017-01-29T08:07:38.000Z</time>
      </trkpt>
      <trkpt lat="44.53919" lon="0.67989">
        <ele>98.5</ele>
        <time>2017-01-29T08:07:39.000Z</time>
      </trkpt>
      <trkpt lat="44.5392" lon="0.67994">
        <ele>98.7</ele>
        <time>2017-01-29T08:07:40.000Z</time>
      </trkpt>
      <trkpt lat="44.5392" lon="0.67999">
        <ele>98.9</ele>
        <time>2017-01-29T08:07:41.000Z</time>
      </trkpt>
      <trkpt lat="44.53921" lon="0.68004">
        <ele>99</ele>
        <time>2017-01-29T08:07:42.000Z</time>
      </trkpt>
      <trkpt lat="44.53921" lon="0.68009">
        <ele>99.1</ele>
        <time>2017-01-29T08:07:43.000Z</time>
      </trkpt>
      <trkpt lat="44.53922" lon="0.68015">
        <ele>99.2</ele>
        <time>2017-01-29T08:07:44.000Z</time>
      </trkpt>
      <trkpt lat="44.53922" lon="0.6802">
        <ele>99.3</ele>
        <time>2017-01-29T08:07:45.000Z</time>
      </trkpt>
      <trkpt lat="44.53923" lon="0.68025">
        <ele>99.4</ele>
        <time>2017-01-29T08:07:46.000Z</time>
      </trkpt>
      <trkpt lat="44.53923" lon="0.6803">
        <ele>99.5</ele>
        <time>2017-01-29T08:07:47.000Z</time>
      </trkpt>
      <trkpt lat="44.53924" lon="0.68035">
        <ele>99.6</ele>
        <time>2017-01-29T08:07:48.000Z</time>
      </trkpt>
      <trkpt lat="44.53924" lon="0.6804">
        <ele>99.7</ele>
        <time>2017-01-29T08:07:49.000Z</time>
      </trkpt>
      <trkpt lat="44.53925" lon="0.68045">
        <ele>99.8</ele>
        <time>2017-01-29T08:07:50.000Z</time>
      </trkpt>
      <trkpt lat="44.53925" lon="0.6805">
        <ele>99.9</ele>
        <time>2017-01-29T08:07:51.000Z</time>
      </trkpt>
      <trkpt lat="44.53925" lon="0.68055">
        <ele>100</ele>
        <time>2017-01-29T08:07:52.000Z</time>
      </trkpt>
      <trkpt lat="44.53926" lon="0.6806">
        <ele>100.1</ele>
        <time>2017-01-29T08:07:53.000Z</time>
      </trkpt>
      <trkpt lat="44.53926" lon="0.68065">
        <ele>100.2</ele>
        <time>2017-01-29T08:07:54.000Z</time>
      </trkpt>
      <trkpt lat="44.53926" lon="0.6807">
        <ele>100.3</ele>
        <time>2017-01-29T08:07:55.000Z</time>
      </trkpt>
      <trkpt lat="44.53927" lon="0.68076">
        <ele>100.4</ele>
        <time>2017-01-29T08:07:56.000Z</time>
      </trkpt>
      <trkpt lat="44.53927" lon="0.68081">
        <ele>100.4</ele>
        <time>2017-01-29T08:07:57.000Z</time>
      </trkpt>
      <trkpt lat="44.53927" lon="0.68086">
        <ele>100.5</ele>
        <time>2017-01-29T08:07:58.000Z</time>
      </trkpt>
      <trkpt lat="44.53928" lon="0.68091">
        <ele>100.4</ele>
        <time>2017-01-29T08:07:59.000Z</time>
      </trkpt>
      <trkpt lat="44.53928" lon="0.68096">
        <ele>100.4</ele>
        <time>2017-01-29T08:08:00.000Z</time>
      </trkpt>
      <trkpt lat="44.53928" lon="0.68101">
        <ele>100.4</ele>
        <time>2017-01-29T08:08:01.000Z</time>
      </trkpt>
      <trkpt lat="44.53928" lon="0.68106">
        <ele>100.3</ele>
        <time>2017-01-29T08:08:02.000Z</time>
      </trkpt>
      <trkpt lat="44.53928" lon="0.68111">
        <ele>100.3</ele>
        <time>2017-01-29T08:08:03.000Z</time>
      </trkpt>
      <trkpt lat="44.53929" lon="0.68116">
        <ele>100.3</ele>
        <time>2017-01-29T08:08:04.000Z</time>
      </trkpt>
      <trkpt lat="44.53929" lon="0.68121">
        <ele>100.2</ele>
        <time>2017-01-29T08:08:05.000Z</time>
      </trkpt>
      <trkpt lat="44.53929" lon="0.68126">
        <ele>100.2</ele>
        <time>2017-01-29T08:08:06.000Z</time>
      </trkpt>
      <trkpt lat="44.53929" lon="0.68131">
        <ele>100.2</ele>
        <time>2017-01-29T08:08:07.000Z</time>
      </trkpt>
      <trkpt lat="44.53928" lon="0.68136">
        <ele>100.2</ele>
        <time>2017-01-29T08:08:08.000Z</time>
      </trkpt>
      <trkpt lat="44.53928" lon="0.6814">
        <ele>100.2</ele>
        <time>2017-01-29T08:08:09.000Z</time>
      </trkpt>
      <trkpt lat="44.53928" lon="0.68145">
        <ele>100.1</ele>
        <time>2017-01-29T08:08:10.000Z</time>
      </trkpt>
      <trkpt lat="44.53928" lon="0.6815">
        <ele>100.1</ele>
        <time>2017-01-29T08:08:11.000Z</time>
      </trkpt>
      <trkpt lat="44.53928" lon="0.68155">
        <ele>100.1</ele>
        <time>2017-01-29T08:08:12.000Z</time>
      </trkpt>
      <trkpt lat="44.53928" lon="0.68159">
        <ele>100.1</ele>
        <time>2017-01-29T08:08:13.000Z</time>
      </trkpt>
      <trkpt lat="44.53928" lon="0.68164">
        <ele>100.1</ele>
        <time>2017-01-29T08:08:14.000Z</time>
      </trkpt>
      <trkpt lat="44.53928" lon="0.68168">
        <ele>100.1</ele>
        <time>2017-01-29T08:08:15.000Z</time>
      </trkpt>
      <trkpt lat="44.53928" lon="0.68172">
        <ele>100.1</ele>
        <time>2017-01-29T08:08:16.000Z</time>
      </trkpt>
      <trkpt lat="44.53928" lon="0.68177">
        <ele>100.2</ele>
        <time>2017-01-29T08:08:17.000Z</time>
      </trkpt>
      <trkpt lat="44.53928" lon="0.68181">
        <ele>100.2</ele>
        <time>2017-01-29T08:08:18.000Z</time>
      </trkpt>
      <trkpt lat="44.53927" lon="0.68185">
        <ele>100.3</ele>
        <time>2017-01-29T08:08:19.000Z</time>
      </trkpt>
      <trkpt lat="44.53927" lon="0.68189">
        <ele>100.3</ele>
        <time>2017-01-29T08:08:20.000Z</time>
      </trkpt>
      <trkpt lat="44.53927" lon="0.68193">
        <ele>100.4</ele>
        <time>2017-01-29T08:08:21.000Z</time>
      </trkpt>
      <trkpt lat="44.53927" lon="0.68198">
        <ele>100.4</ele>
        <time>2017-01-29T08:08:22.000Z</time>
      </trkpt>
      <trkpt lat="44.53927" lon="0.68202">
        <ele>100.5</ele>
        <time>2017-01-29T08:08:23.000Z</time>
      </trkpt>
      <trkpt lat="44.53926" lon="0.68206">
        <ele>100.6</ele>
        <time>2017-01-29T08:08:24.000Z</time>
      </trkpt>
      <trkpt lat="44.53926" lon="0.6821">
        <ele>100.6</ele>
        <time>2017-01-29T08:08:25.000Z</time>
      </trkpt>
      <trkpt lat="44.53926" lon="0.68214">
        <ele>100.7</ele>
        <time>2017-01-29T08:08:26.000Z</time>
      </trkpt>
      <trkpt lat="44.53926" lon="0.68218">
        <ele>100.7</ele>
        <time>2017-01-29T08:08:27.000Z</time>
      </trkpt>
      <trkpt lat="44.53925" lon="0.68223">
        <ele>100.8</ele>
        <time>2017-01-29T08:08:28.000Z</time>
      </trkpt>
      <trkpt lat="44.53925" lon="0.68227">
        <ele>100.8</ele>
        <time>2017-01-29T08:08:29.000Z</time>
      </trkpt>
      <trkpt lat="44.53925" lon="0.68231">
        <ele>100.9</ele>
        <time>2017-01-29T08:08:30.000Z</time>
      </trkpt>
      <trkpt lat="44.53925" lon="0.68235">
        <ele>100.9</ele>
        <time>2017-01-29T08:08:31.000Z</time>
      </trkpt>
      <trkpt lat="44.53925" lon="0.68239">
        <ele>101</ele>
        <time>2017-01-29T08:08:32.000Z</time>
      </trkpt>
      <trkpt lat="44.53925" lon="0.68244">
        <ele>101</ele>
        <time>2017-01-29T08:08:33.000Z</time>
      </trkpt>
      <trkpt lat="44.53925" lon="0.68248">
        <ele>101.1</ele>
        <time>2017-01-29T08:08:34.000Z</time>
      </trkpt>
      <trkpt lat="44.53924" lon="0.68252">
        <ele>101.1</ele>
        <time>2017-01-29T08:08:35.000Z</time>
      </trkpt>
      <trkpt lat="44.53924" lon="0.68257">
        <ele>101</ele>
        <time>2017-01-29T08:08:36.000Z</time>
      </trkpt>
      <trkpt lat="44.53924" lon="0.68261">
        <ele>100.9</ele>
        <time>2017-01-29T08:08:37.000Z</time>
      </trkpt>
      <trkpt lat="44.53923" lon="0.68266">
        <ele>100.7</ele>
        <time>2017-01-29T08:08:38.000Z</time>
      </trkpt>
      <trkpt lat="44.53923" lon="0.68271">
        <ele>100.6</ele>
        <time>2017-01-29T08:08:39.000Z</time>
      </trkpt>
      <trkpt lat="44.53923" lon="0.68276">
        <ele>100.4</ele>
        <time>2017-01-29T08:08:40.000Z</time>
      </trkpt>
      <trkpt lat="44.53923" lon="0.68281">
        <ele>100.2</ele>
        <time>2017-01-29T08:08:41.000Z</time>
      </trkpt>
      <trkpt lat="44.53923" lon="0.68286">
        <ele>100.1</ele>
        <time>2017-01-29T08:08:42.000Z</time>
      </trkpt>
      <trkpt lat="44.53923" lon="0.68292">
        <ele>99.9</ele>
        <time>2017-01-29T08:08:43.000Z</time>
      </trkpt>
      <trkpt lat="44.53922" lon="0.68298">
        <ele>99.8</ele>
        <time>2017-01-29T08:08:44.000Z</time>
      </trkpt>
      <trkpt lat="44.53922" lon="0.68303">
        <ele>99.6</ele>
        <time>2017-01-29T08:08:45.000Z</time>
      </trkpt>
      <trkpt lat="44.53921" lon="0.68309">
        <ele>99.5</ele>
        <time>2017-01-29T08:08:46.000Z</time>
      </trkpt>
      <trkpt lat="44.53921" lon="0.68315">
        <ele>99.3</ele>
        <time>2017-01-29T08:08:47.000Z</time>
      </trkpt>
      <trkpt lat="44.5392" lon="0.68321">
        <ele>99.1</ele>
        <time>2017-01-29T08:08:48.000Z</time>
      </trkpt>
      <trkpt lat="44.5392" lon="0.68327">
        <ele>99</ele>
        <time>2017-01-29T08:08:49.000Z</time>
      </trkpt>
      <trkpt lat="44.5392" lon="0.68333">
        <ele>98.8</ele>
        <time>2017-01-29T08:08:50.000Z</time>
      </trkpt>
      <trkpt lat="44.53919" lon="0.68339">
        <ele>98.7</ele>
        <time>2017-01-29T08:08:51.000Z</time>
      </trkpt>
      <trkpt lat="44.53919" lon="0.68345">
        <ele>98.5</ele>
        <time>2017-01-29T08:08:52.000Z</time>
      </trkpt>
      <trkpt lat="44.53919" lon="0.68352">
        <ele>98.4</ele>
        <time>2017-01-29T08:08:53.000Z</time>
      </trkpt>
      <trkpt lat="44.53918" lon="0.68358">
        <ele>98.3</ele>
        <time>2017-01-29T08:08:54.000Z</time>
      </trkpt>
      <trkpt lat="44.53918" lon="0.68365">
        <ele>98.1</ele>
        <time>2017-01-29T08:08:55.000Z</time>
      </trkpt>
      <trkpt lat="44.53918" lon="0.68371">
        <ele>98</ele>
        <time>2017-01-29T08:08:56.000Z</time>
      </trkpt>
      <trkpt lat="44.53918" lon="0.68378">
        <ele>97.9</ele>
        <time>2017-01-29T08:08:57.000Z</time>
      </trkpt>
      <trkpt lat="44.53917" lon="0.68385">
        <ele>97.7</ele>
        <time>2017-01-29T08:08:58.000Z</time>
      </trkpt>
      <trkpt lat="44.53917" lon="0.68391">
        <ele>97.6</ele>
        <time>2017-01-29T08:08:59.000Z</time>
      </trkpt>
      <trkpt lat="44.53917" lon="0.68398">
        <ele>97.5</ele>
        <time>2017-01-29T08:09:00.000Z</time>
      </trkpt>
      <trkpt lat="44.53916" lon="0.68404">
        <ele>97.3</ele>
        <time>2017-01-29T08:09:01.000Z</time>
      </trkpt>
      <trkpt lat="44.53916" lon="0.68411">
        <ele>97.2</ele>
        <time>2017-01-29T08:09:02.000Z</time>
      </trkpt>
      <trkpt lat="44.53916" lon="0.68417">
        <ele>97.1</ele>
        <time>2017-01-29T08:09:03.000Z</time>
      </trkpt>
      <trkpt lat="44.53915" lon="0.68423">
        <ele>97.1</ele>
        <time>2017-01-29T08:09:04.000Z</time>
      </trkpt>
      <trkpt lat="44.53915" lon="0.6843">
        <ele>97.1</ele>
        <time>2017-01-29T08:09:05.000Z</time>
      </trkpt>
      <trkpt lat="44.53915" lon="0.68436">
        <ele>97.1</ele>
        <time>2017-01-29T08:09:06.000Z</time>
      </trkpt>
      <trkpt lat="44.53914" lon="0.68442">
        <ele>97.1</ele>
        <time>2017-01-29T08:09:07.000Z</time>
      </trkpt>
      <trkpt lat="44.53914" lon="0.68448">
        <ele>97.1</ele>
        <time>2017-01-29T08:09:08.000Z</time>
      </trkpt>
      <trkpt lat="44.53914" lon="0.68455">
        <ele>97.1</ele>
        <time>2017-01-29T08:09:09.000Z</time>
      </trkpt>
      <trkpt lat="44.53914" lon="0.68461">
        <ele>97.1</ele>
        <time>2017-01-29T08:09:10.000Z</time>
      </trkpt>
      <trkpt lat="44.53913" lon="0.68467">
        <ele>97.1</ele>
        <time>2017-01-29T08:09:11.000Z</time>
      </trkpt>
      <trkpt lat="44.53913" lon="0.68473">
        <ele>97.1</ele>
        <time>2017-01-29T08:09:12.000Z</time>
      </trkpt>
      <trkpt lat="44.53913" lon="0.68479">
        <ele>97.1</ele>
        <time>2017-01-29T08:09:13.000Z</time>
      </trkpt>
      <trkpt lat="44.53913" lon="0.68485">
        <ele>97.2</ele>
        <time>2017-01-29T08:09:14.000Z</time>
      </trkpt>
      <trkpt lat="44.53912" lon="0.6849">
        <ele>97.2</ele>
        <time>2017-01-29T08:09:15.000Z</time>
      </trkpt>
      <trkpt lat="44.53912" lon="0.68496">
        <ele>97.2</ele>
        <time>2017-01-29T08:09:16.000Z</time>
      </trkpt>
      <trkpt lat="44.53911" lon="0.68502">
        <ele>97.2</ele>
        <time>2017-01-29T08:09:17.000Z</time>
      </trkpt>
      <trkpt lat="44.53911" lon="0.68508">
        <ele>97.4</ele>
        <time>2017-01-29T08:09:18.000Z</time>
      </trkpt>
      <trkpt lat="44.53911" lon="0.68514">
        <ele>97.5</ele>
        <time>2017-01-29T08:09:19.000Z</time>
      </trkpt>
      <trkpt lat="44.53911" lon="0.68519">
        <ele>97.7</ele>
        <time>2017-01-29T08:09:20.000Z</time>
      </trkpt>
      <trkpt lat="44.53911" lon="0.68525">
        <ele>97.8</ele>
        <time>2017-01-29T08:09:21.000Z</time>
      </trkpt>
      <trkpt lat="44.53911" lon="0.68531">
        <ele>97.9</ele>
        <time>2017-01-29T08:09:22.000Z</time>
      </trkpt>
      <trkpt lat="44.5391" lon="0.68536">
        <ele>98.1</ele>
        <time>2017-01-29T08:09:23.000Z</time>
      </trkpt>
      <trkpt lat="44.53907" lon="0.6854">
        <ele>98.3</ele>
        <time>2017-01-29T08:09:24.000Z</time>
      </trkpt>
      <trkpt lat="44.53904" lon="0.68543">
        <ele>98.5</ele>
        <time>2017-01-29T08:09:25.000Z</time>
      </trkpt>
      <trkpt lat="44.539" lon="0.68544">
        <ele>98.6</ele>
        <time>2017-01-29T08:09:26.000Z</time>
      </trkpt>
      <trkpt lat="44.53896" lon="0.68543">
        <ele>98.8</ele>
        <time>2017-01-29T08:09:27.000Z</time>
      </trkpt>
      <trkpt lat="44.53892" lon="0.68543">
        <ele>98.9</ele>
        <time>2017-01-29T08:09:28.000Z</time>
      </trkpt>
      <trkpt lat="44.53887" lon="0.68542">
        <ele>99.1</ele>
        <time>2017-01-29T08:09:29.000Z</time>
      </trkpt>
      <trkpt lat="44.53883" lon="0.68541">
        <ele>99.2</ele>
        <time>2017-01-29T08:09:30.000Z</time>
      </trkpt>
      <trkpt lat="44.53879" lon="0.6854">
        <ele>99.3</ele>
        <time>2017-01-29T08:09:31.000Z</time>
      </trkpt>
      <trkpt lat="44.53874" lon="0.6854">
        <ele>99.5</ele>
        <time>2017-01-29T08:09:32.000Z</time>
      </trkpt>
      <trkpt lat="44.5387" lon="0.6854">
        <ele>99.6</ele>
        <time>2017-01-29T08:09:33.000Z</time>
      </trkpt>
      <trkpt lat="44.53867" lon="0.68541">
        <ele>99.8</ele>
        <time>2017-01-29T08:09:34.000Z</time>
      </trkpt>
      <trkpt lat="44.53863" lon="0.68544">
        <ele>100</ele>
        <time>2017-01-29T08:09:35.000Z</time>
      </trkpt>
      <trkpt lat="44.53861" lon="0.68548">
        <ele>100.2</ele>
        <time>2017-01-29T08:09:36.000Z</time>
      </trkpt>
      <trkpt lat="44.53859" lon="0.68553">
        <ele>100.3</ele>
        <time>2017-01-29T08:09:37.000Z</time>
      </trkpt>
      <trkpt lat="44.53857" lon="0.68557">
        <ele>100.5</ele>
        <time>2017-01-29T08:09:38.000Z</time>
      </trkpt>
      <trkpt lat="44.53856" lon="0.68562">
        <ele>100.7</ele>
        <time>2017-01-29T08:09:39.000Z</time>
      </trkpt>
      <trkpt lat="44.53854" lon="0.68567">
        <ele>100.9</ele>
        <time>2017-01-29T08:09:40.000Z</time>
      </trkpt>
      <trkpt lat="44.53851" lon="0.68571">
        <ele>101.1</ele>
        <time>2017-01-29T08:09:41.000Z</time>
      </trkpt>
      <trkpt lat="44.53848" lon="0.68575">
        <ele>101.3</ele>
        <time>2017-01-29T08:09:42.000Z</time>
      </trkpt>
      <trkpt lat="44.53845" lon="0.68578">
        <ele>101.5</ele>
        <time>2017-01-29T08:09:43.000Z</time>
      </trkpt>
      <trkpt lat="44.53841" lon="0.68581">
        <ele>101.7</ele>
        <time>2017-01-29T08:09:44.000Z</time>
      </trkpt>
      <trkpt lat="44.53838" lon="0.68584">
        <ele>101.8</ele>
        <time>2017-01-29T08:09:45.000Z</time>
      </trkpt>
      <trkpt lat="44.53834" lon="0.68586">
        <ele>101.9</ele>
        <time>2017-01-29T08:09:46.000Z</time>
      </trkpt>
      <trkpt lat="44.53831" lon="0.68589">
        <ele>102</ele>
        <time>2017-01-29T08:09:47.000Z</time>
      </trkpt>
      <trkpt lat="44.53827" lon="0.68591">
        <ele>102.1</ele>
        <time>2017-01-29T08:09:48.000Z</time>
      </trkpt>
      <trkpt lat="44.53823" lon="0.68593">
        <ele>102.2</ele>
        <time>2017-01-29T08:09:49.000Z</time>
      </trkpt>
      <trkpt lat="44.5382" lon="0.68595">
        <ele>102.3</ele>
        <time>2017-01-29T08:09:50.000Z</time>
      </trkpt>
      <trkpt lat="44.53816" lon="0.68597">
        <ele>102.4</ele>
        <time>2017-01-29T08:09:51.000Z</time>
      </trkpt>
      <trkpt lat="44.53812" lon="0.686">
        <ele>102.5</ele>
        <time>2017-01-29T08:09:52.000Z</time>
      </trkpt>
      <trkpt lat="44.53808" lon="0.68602">
        <ele>102.6</ele>
        <time>2017-01-29T08:09:53.000Z</time>
      </trkpt>
      <trkpt lat="44.53804" lon="0.68604">
        <ele>102.6</ele>
        <time>2017-01-29T08:09:54.000Z</time>
      </trkpt>
      <trkpt lat="44.53801" lon="0.68606">
        <ele>102.7</ele>
        <time>2017-01-29T08:09:55.000Z</time>
      </trkpt>
      <trkpt lat="44.53797" lon="0.68609">
        <ele>102.7</ele>
        <time>2017-01-29T08:09:56.000Z</time>
      </trkpt>
      <trkpt lat="44.53793" lon="0.68611">
        <ele>102.8</ele>
        <time>2017-01-29T08:09:57.000Z</time>
      </trkpt>
      <trkpt lat="44.5379" lon="0.68613">
        <ele>102.8</ele>
        <time>2017-01-29T08:09:58.000Z</time>
      </trkpt>
      <trkpt lat="44.53786" lon="0.68615">
        <ele>102.9</ele>
        <time>2017-01-29T08:09:59.000Z</time>
      </trkpt>
      <trkpt lat="44.53783" lon="0.68618">
        <ele>102.9</ele>
        <time>2017-01-29T08:10:00.000Z</time>
      </trkpt>
      <trkpt lat="44.5378" lon="0.6862">
        <ele>102.9</ele>
        <time>2017-01-29T08:10:01.000Z</time>
      </trkpt>
      <trkpt lat="44.53777" lon="0.68621">
        <ele>103</ele>
        <time>2017-01-29T08:10:02.000Z</time>
      </trkpt>
      <trkpt lat="44.53774" lon="0.68623">
        <ele>103</ele>
        <time>2017-01-29T08:10:03.000Z</time>
      </trkpt>
      <trkpt lat="44.53771" lon="0.68625">
        <ele>103</ele>
        <time>2017-01-29T08:10:04.000Z</time>
      </trkpt>
      <trkpt lat="44.53768" lon="0.68627">
        <ele>103</ele>
        <time>2017-01-29T08:10:05.000Z</time>
      </trkpt>
      <trkpt lat="44.53765" lon="0.68629">
        <ele>103</ele>
        <time>2017-01-29T08:10:06.000Z</time>
      </trkpt>
      <trkpt lat="44.53763" lon="0.6863">
        <ele>103</ele>
        <time>2017-01-29T08:10:07.000Z</time>
      </trkpt>
      <trkpt lat="44.5376" lon="0.68632">
        <ele>103</ele>
        <time>2017-01-29T08:10:08.000Z</time>
      </trkpt>
      <trkpt lat="44.53757" lon="0.68634">
        <ele>103</ele>
        <time>2017-01-29T08:10:09.000Z</time>
      </trkpt>
      <trkpt lat="44.53755" lon="0.68636">
        <ele>103</ele>
        <time>2017-01-29T08:10:10.000Z</time>
      </trkpt>
      <trkpt lat="44.53752" lon="0.68638">
        <ele>103</ele>
        <time>2017-01-29T08:10:11.000Z</time>
      </trkpt>
      <trkpt lat="44.5375" lon="0.6864">
        <ele>103</ele>
        <time>2017-01-29T08:10:12.000Z</time>
      </trkpt>
      <trkpt lat="44.53747" lon="0.68641">
        <ele>103.1</ele>
        <time>2017-01-29T08:10:13.000Z</time>
      </trkpt>
      <trkpt lat="44.53745" lon="0.68643">
        <ele>103.2</ele>
        <time>2017-01-29T08:10:14.000Z</time>
      </trkpt>
      <trkpt lat="44.53742" lon="0.68645">
        <ele>103.2</ele>
        <time>2017-01-29T08:10:15.000Z</time>
      </trkpt>
      <trkpt lat="44.5374" lon="0.68646">
        <ele>103.3</ele>
        <time>2017-01-29T08:10:16.000Z</time>
      </trkpt>
      <trkpt lat="44.53738" lon="0.68648">
        <ele>103.4</ele>
        <time>2017-01-29T08:10:17.000Z</time>
      </trkpt>
      <trkpt lat="44.53736" lon="0.68649">
        <ele>103.4</ele>
        <time>2017-01-29T08:10:18.000Z</time>
      </trkpt>
      <trkpt lat="44.53734" lon="0.68651">
        <ele>103.5</ele>
        <time>2017-01-29T08:10:19.000Z</time>
      </trkpt>
      <trkpt lat="44.53733" lon="0.68653">
        <ele>103.4</ele>
        <time>2017-01-29T08:10:20.000Z</time>
      </trkpt>
      <trkpt lat="44.53733" lon="0.68656">
        <ele>103.3</ele>
        <time>2017-01-29T08:10:21.000Z</time>
      </trkpt>
      <trkpt lat="44.53734" lon="0.68659">
        <ele>103.1</ele>
        <time>2017-01-29T08:10:22.000Z</time>
      </trkpt>
      <trkpt lat="44.53735" lon="0.68662">
        <ele>102.9</ele>
        <time>2017-01-29T08:10:23.000Z</time>
      </trkpt>
      <trkpt lat="44.53736" lon="0.68666">
        <ele>102.7</ele>
        <time>2017-01-29T08:10:24.000Z</time>
      </trkpt>
      <trkpt lat="44.53737" lon="0.6867">
        <ele>102.5</ele>
        <time>2017-01-29T08:10:25.000Z</time>
      </trkpt>
      <trkpt lat="44.53738" lon="0.68675">
        <ele>102.4</ele>
        <time>2017-01-29T08:10:26.000Z</time>
      </trkpt>
      <trkpt lat="44.53738" lon="0.6868">
        <ele>102.4</ele>
        <time>2017-01-29T08:10:27.000Z</time>
      </trkpt>
      <trkpt lat="44.53736" lon="0.68685">
        <ele>102.4</ele>
        <time>2017-01-29T08:10:28.000Z</time>
      </trkpt>
      <trkpt lat="44.53733" lon="0.68687">
        <ele>102.5</ele>
        <time>2017-01-29T08:10:29.000Z</time>
      </trkpt>
      <trkpt lat="44.5373" lon="0.68688">
        <ele>102.6</ele>
        <time>2017-01-29T08:10:30.000Z</time>
      </trkpt>
      <trkpt lat="44.53726" lon="0.68689">
        <ele>102.7</ele>
        <time>2017-01-29T08:10:31.000Z</time>
      </trkpt>
      <trkpt lat="44.53722" lon="0.68689">
        <ele>102.9</ele>
        <time>2017-01-29T08:10:32.000Z</time>
      </trkpt>
      <trkpt lat="44.53719" lon="0.6869">
        <ele>103</ele>
        <time>2017-01-29T08:10:33.000Z</time>
      </trkpt>
      <trkpt lat="44.53716" lon="0.68691">
        <ele>103.1</ele>
        <time>2017-01-29T08:10:34.000Z</time>
      </trkpt>
      <trkpt lat="44.53712" lon="0.68692">
        <ele>103.2</ele>
        <time>2017-01-29T08:10:35.000Z</time>
      </trkpt>
      <trkpt lat="44.53709" lon="0.68693">
        <ele>103.4</ele>
        <time>2017-01-29T08:10:36.000Z</time>
      </trkpt>
      <trkpt lat="44.53706" lon="0.68694">
        <ele>103.5</ele>
        <time>2017-01-29T08:10:37.000Z</time>
      </trkpt>
      <trkpt lat="44.53702" lon="0.68694">
        <ele>103.6</ele>
        <time>2017-01-29T08:10:38.000Z</time>
      </trkpt>
      <trkpt lat="44.53699" lon="0.68695">
        <ele>103.7</ele>
        <time>2017-01-29T08:10:39.000Z</time>
      </trkpt>
      <trkpt lat="44.53695" lon="0.68696">
        <ele>103.8</ele>
        <time>2017-01-29T08:10:40.000Z</time>
      </trkpt>
      <trkpt lat="44.53692" lon="0.68697">
        <ele>103.9</ele>
        <time>2017-01-29T08:10:41.000Z</time>
      </trkpt>
      <trkpt lat="44.53689" lon="0.68697">
        <ele>104</ele>
        <time>2017-01-29T08:10:42.000Z</time>
      </trkpt>
      <trkpt lat="44.53686" lon="0.68698">
        <ele>104.1</ele>
        <time>2017-01-29T08:10:43.000Z</time>
      </trkpt>
      <trkpt lat="44.53683" lon="0.68699">
        <ele>104.2</ele>
        <time>2017-01-29T08:10:44.000Z</time>
      </trkpt>
      <trkpt lat="44.5368" lon="0.68699">
        <ele>104.3</ele>
        <time>2017-01-29T08:10:45.000Z</time>
      </trkpt>
      <trkpt lat="44.53677" lon="0.687">
        <ele>104.4</ele>
        <time>2017-01-29T08:10:46.000Z</time>
      </trkpt>
      <trkpt lat="44.53674" lon="0.68701">
        <ele>104.5</ele>
        <time>2017-01-29T08:10:47.000Z</time>
      </trkpt>
      <trkpt lat="44.53671" lon="0.68702">
        <ele>104.6</ele>
        <time>2017-01-29T08:10:48.000Z</time>
      </trkpt>
      <trkpt lat="44.53668" lon="0.68702">
        <ele>104.7</ele>
        <time>2017-01-29T08:10:49.000Z</time>
      </trkpt>
      <trkpt lat="44.53664" lon="0.68703">
        <ele>104.8</ele>
        <time>2017-01-29T08:10:50.000Z</time>
      </trkpt>
      <trkpt lat="44.5366" lon="0.68704">
        <ele>104.9</ele>
        <time>2017-01-29T08:10:51.000Z</time>
      </trkpt>
      <trkpt lat="44.53657" lon="0.68704">
        <ele>105.1</ele>
        <time>2017-01-29T08:10:52.000Z</time>
      </trkpt>
      <trkpt lat="44.53653" lon="0.68705">
        <ele>105.2</ele>
        <time>2017-01-29T08:10:53.000Z</time>
      </trkpt>
      <trkpt lat="44.53649" lon="0.68705">
        <ele>105.4</ele>
        <time>2017-01-29T08:10:54.000Z</time>
      </trkpt>
      <trkpt lat="44.53645" lon="0.68706">
        <ele>105.5</ele>
        <time>2017-01-29T08:10:55.000Z</time>
      </trkpt>
      <trkpt lat="44.53642" lon="0.68706">
        <ele>105.6</ele>
        <time>2017-01-29T08:10:56.000Z</time>
      </trkpt>
      <trkpt lat="44.53638" lon="0.68706">
        <ele>105.8</ele>
        <time>2017-01-29T08:10:57.000Z</time>
      </trkpt>
      <trkpt lat="44.53634" lon="0.68706">
        <ele>106</ele>
        <time>2017-01-29T08:10:58.000Z</time>
      </trkpt>
      <trkpt lat="44.53631" lon="0.68706">
        <ele>106.1</ele>
        <time>2017-01-29T08:10:59.000Z</time>
      </trkpt>
      <trkpt lat="44.53627" lon="0.68706">
        <ele>106.3</ele>
        <time>2017-01-29T08:11:00.000Z</time>
      </trkpt>
      <trkpt lat="44.53623" lon="0.68705">
        <ele>106.4</ele>
        <time>2017-01-29T08:11:01.000Z</time>
      </trkpt>
      <trkpt lat="44.5362" lon="0.68705">
        <ele>106.6</ele>
        <time>2017-01-29T08:11:02.000Z</time>
      </trkpt>
      <trkpt lat="44.53616" lon="0.68705">
        <ele>106.8</ele>
        <time>2017-01-29T08:11:03.000Z</time>
      </trkpt>
      <trkpt lat="44.53613" lon="0.68705">
        <ele>106.9</ele>
        <time>2017-01-29T08:11:04.000Z</time>
      </trkpt>
      <trkpt lat="44.5361" lon="0.68706">
        <ele>107</ele>
        <time>2017-01-29T08:11:05.000Z</time>
      </trkpt>
      <trkpt lat="44.53606" lon="0.68706">
        <ele>107.1</ele>
        <time>2017-01-29T08:11:06.000Z</time>
      </trkpt>
      <trkpt lat="44.53603" lon="0.68707">
        <ele>107.2</ele>
        <time>2017-01-29T08:11:07.000Z</time>
      </trkpt>
      <trkpt lat="44.536" lon="0.68708">
        <ele>107.3</ele>
        <time>2017-01-29T08:11:08.000Z</time>
      </trkpt>
      <trkpt lat="44.53597" lon="0.68709">
        <ele>107.4</ele>
        <time>2017-01-29T08:11:09.000Z</time>
      </trkpt>
      <trkpt lat="44.53594" lon="0.6871">
        <ele>107.5</ele>
        <time>2017-01-29T08:11:10.000Z</time>
      </trkpt>
      <trkpt lat="44.53591" lon="0.68711">
        <ele>107.6</ele>
        <time>2017-01-29T08:11:11.000Z</time>
      </trkpt>
      <trkpt lat="44.53588" lon="0.68712">
        <ele>107.7</ele>
        <time>2017-01-29T08:11:12.000Z</time>
      </trkpt>
      <trkpt lat="44.53585" lon="0.68713">
        <ele>107.7</ele>
        <time>2017-01-29T08:11:13.000Z</time>
      </trkpt>
      <trkpt lat="44.53582" lon="0.68714">
        <ele>107.9</ele>
        <time>2017-01-29T08:11:14.000Z</time>
      </trkpt>
      <trkpt lat="44.53579" lon="0.68715">
        <ele>108.2</ele>
        <time>2017-01-29T08:11:15.000Z</time>
      </trkpt>
      <trkpt lat="44.53577" lon="0.68716">
        <ele>108.4</ele>
        <time>2017-01-29T08:11:16.000Z</time>
      </trkpt>
      <trkpt lat="44.53574" lon="0.68717">
        <ele>108.6</ele>
        <time>2017-01-29T08:11:17.000Z</time>
      </trkpt>
      <trkpt lat="44.53572" lon="0.68718">
        <ele>108.8</ele>
        <time>2017-01-29T08:11:18.000Z</time>
      </trkpt>
      <trkpt lat="44.53569" lon="0.68719">
        <ele>109</ele>
        <time>2017-01-29T08:11:19.000Z</time>
      </trkpt>
      <trkpt lat="44.53567" lon="0.6872">
        <ele>109.2</ele>
        <time>2017-01-29T08:11:20.000Z</time>
      </trkpt>
      <trkpt lat="44.53564" lon="0.68722">
        <ele>109.5</ele>
        <time>2017-01-29T08:11:21.000Z</time>
      </trkpt>
      <trkpt lat="44.53561" lon="0.68723">
        <ele>109.7</ele>
        <time>2017-01-29T08:11:22.000Z</time>
      </trkpt>
      <trkpt lat="44.53559" lon="0.68724">
        <ele>109.9</ele>
        <time>2017-01-29T08:11:23.000Z</time>
      </trkpt>
      <trkpt lat="44.53556" lon="0.68726">
        <ele>110.1</ele>
        <time>2017-01-29T08:11:24.000Z</time>
      </trkpt>
      <trkpt lat="44.53554" lon="0.68727">
        <ele>110.3</ele>
        <time>2017-01-29T08:11:25.000Z</time>
      </trkpt>
      <trkpt lat="44.53551" lon="0.68728">
        <ele>110.6</ele>
        <time>2017-01-29T08:11:26.000Z</time>
      </trkpt>
      <trkpt lat="44.53548" lon="0.68729">
        <ele>110.8</ele>
        <time>2017-01-29T08:11:27.000Z</time>
      </trkpt>
      <trkpt lat="44.53546" lon="0.6873">
        <ele>111</ele>
        <time>2017-01-29T08:11:28.000Z</time>
      </trkpt>
      <trkpt lat="44.53543" lon="0.68732">
        <ele>111.2</ele>
        <time>2017-01-29T08:11:29.000Z</time>
      </trkpt>
      <trkpt lat="44.53541" lon="0.68733">
        <ele>111.4</ele>
        <time>2017-01-29T08:11:30.000Z</time>
      </trkpt>
      <trkpt lat="44.53538" lon="0.68734">
        <ele>111.6</ele>
        <time>2017-01-29T08:11:31.000Z</time>
      </trkpt>
      <trkpt lat="44.53536" lon="0.68735">
        <ele>111.8</ele>
        <time>2017-01-29T08:11:32.000Z</time>
      </trkpt>
      <trkpt lat="44.53534" lon="0.68737">
        <ele>112</ele>
        <time>2017-01-29T08:11:33.000Z</time>
      </trkpt>
      <trkpt lat="44.53531" lon="0.68738">
        <ele>112.2</ele>
        <time>2017-01-29T08:11:34.000Z</time>
      </trkpt>
      <trkpt lat="44.53529" lon="0.6874">
        <ele>112.4</ele>
        <time>2017-01-29T08:11:35.000Z</time>
      </trkpt>
      <trkpt lat="44.53527" lon="0.68741">
        <ele>112.6</ele>
        <time>2017-01-29T08:11:36.000Z</time>
      </trkpt>
      <trkpt lat="44.53524" lon="0.68743">
        <ele>112.8</ele>
        <time>2017-01-29T08:11:37.000Z</time>
      </trkpt>
      <trkpt lat="44.53522" lon="0.68744">
        <ele>113</ele>
        <time>2017-01-29T08:11:38.000Z</time>
      </trkpt>
      <trkpt lat="44.53519" lon="0.68745">
        <ele>113.2</ele>
        <time>2017-01-29T08:11:39.000Z</time>
      </trkpt>
      <trkpt lat="44.53517" lon="0.68746">
        <ele>113.4</ele>
        <time>2017-01-29T08:11:40.000Z</time>
      </trkpt>
      <trkpt lat="44.53514" lon="0.68746">
        <ele>113.7</ele>
        <time>2017-01-29T08:11:41.000Z</time>
      </trkpt>
      <trkpt lat="44.53512" lon="0.68746">
        <ele>113.9</ele>
        <time>2017-01-29T08:11:42.000Z</time>
      </trkpt>
      <trkpt lat="44.53509" lon="0.68746">
        <ele>114.2</ele>
        <time>2017-01-29T08:11:43.000Z</time>
      </trkpt>
      <trkpt lat="44.53507" lon="0.68745">
        <ele>114.5</ele>
        <time>2017-01-29T08:11:44.000Z</time>
      </trkpt>
      <trkpt lat="44.53504" lon="0.68743">
        <ele>114.9</ele>
        <time>2017-01-29T08:11:45.000Z</time>
      </trkpt>
      <trkpt lat="44.53502" lon="0.68741">
        <ele>115.2</ele>
        <time>2017-01-29T08:11:46.000Z</time>
      </trkpt>
      <trkpt lat="44.535" lon="0.68739">
        <ele>115.6</ele>
        <time>2017-01-29T08:11:47.000Z</time>
      </trkpt>
      <trkpt lat="44.53498" lon="0.68736">
        <ele>116</ele>
        <time>2017-01-29T08:11:48.000Z</time>
      </trkpt>
      <trkpt lat="44.53495" lon="0.68733">
        <ele>116.5</ele>
        <time>2017-01-29T08:11:49.000Z</time>
      </trkpt>
      <trkpt lat="44.53493" lon="0.68731">
        <ele>116.9</ele>
        <time>2017-01-29T08:11:50.000Z</time>
      </trkpt>
      <trkpt lat="44.53491" lon="0.68728">
        <ele>117.3</ele>
        <time>2017-01-29T08:11:51.000Z</time>
      </trkpt>
      <trkpt lat="44.53489" lon="0.68725">
        <ele>117.7</ele>
        <time>2017-01-29T08:11:52.000Z</time>
      </trkpt>
      <trkpt lat="44.53487" lon="0.68722">
        <ele>118.1</ele>
        <time>2017-01-29T08:11:53.000Z</time>
      </trkpt>
      <trkpt lat="44.53486" lon="0.68719">
        <ele>118.4</ele>
        <time>2017-01-29T08:11:54.000Z</time>
      </trkpt>
      <trkpt lat="44.53484" lon="0.68716">
        <ele>118.8</ele>
        <time>2017-01-29T08:11:55.000Z</time>
      </trkpt>
      <trkpt lat="44.53482" lon="0.68714">
        <ele>119.1</ele>
        <time>2017-01-29T08:11:56.000Z</time>
      </trkpt>
      <trkpt lat="44.5348" lon="0.68712">
        <ele>119.4</ele>
        <time>2017-01-29T08:11:57.000Z</time>
      </trkpt>
      <trkpt lat="44.53478" lon="0.68709">
        <ele>119.7</ele>
        <time>2017-01-29T08:11:58.000Z</time>
      </trkpt>
      <trkpt lat="44.53477" lon="0.68707">
        <ele>120</ele>
        <time>2017-01-29T08:11:59.000Z</time>
      </trkpt>
      <trkpt lat="44.53475" lon="0.68704">
        <ele>120.3</ele>
        <time>2017-01-29T08:12:00.000Z</time>
      </trkpt>
      <trkpt lat="44.53473" lon="0.68702">
        <ele>120.6</ele>
        <time>2017-01-29T08:12:01.000Z</time>
      </trkpt>
      <trkpt lat="44.53472" lon="0.68699">
        <ele>120.8</ele>
        <time>2017-01-29T08:12:02.000Z</time>
      </trkpt>
      <trkpt lat="44.5347" lon="0.68697">
        <ele>121.1</ele>
        <time>2017-01-29T08:12:03.000Z</time>
      </trkpt>
      <trkpt lat="44.53468" lon="0.68694">
        <ele>121.4</ele>
        <time>2017-01-29T08:12:04.000Z</time>
      </trkpt>
      <trkpt lat="44.53467" lon="0.68691">
        <ele>121.6</ele>
        <time>2017-01-29T08:12:05.000Z</time>
      </trkpt>
      <trkpt lat="44.53465" lon="0.68688">
        <ele>121.9</ele>
        <time>2017-01-29T08:12:06.000Z</time>
      </trkpt>
      <trkpt lat="44.53463" lon="0.68686">
        <ele>122.1</ele>
        <time>2017-01-29T08:12:07.000Z</time>
      </trkpt>
      <trkpt lat="44.53461" lon="0.68683">
        <ele>122.4</ele>
        <time>2017-01-29T08:12:08.000Z</time>
      </trkpt>
      <trkpt lat="44.53459" lon="0.6868">
        <ele>122.7</ele>
        <time>2017-01-29T08:12:09.000Z</time>
      </trkpt>
      <trkpt lat="44.53457" lon="0.68678">
        <ele>123</ele>
        <time>2017-01-29T08:12:10.000Z</time>
      </trkpt>
      <trkpt lat="44.53455" lon="0.68676">
        <ele>123.2</ele>
        <time>2017-01-29T08:12:11.000Z</time>
      </trkpt>
      <trkpt lat="44.53452" lon="0.68675">
        <ele>123.5</ele>
        <time>2017-01-29T08:12:12.000Z</time>
      </trkpt>
      <trkpt lat="44.5345" lon="0.68673">
        <ele>123.8</ele>
        <time>2017-01-29T08:12:13.000Z</time>
      </trkpt>
      <trkpt lat="44.53447" lon="0.68673">
        <ele>124</ele>
        <time>2017-01-29T08:12:14.000Z</time>
      </trkpt>
      <trkpt lat="44.53445" lon="0.68672">
        <ele>124.3</ele>
        <time>2017-01-29T08:12:15.000Z</time>
      </trkpt>
      <trkpt lat="44.53442" lon="0.68673">
        <ele>124.5</ele>
        <time>2017-01-29T08:12:16.000Z</time>
      </trkpt>
      <trkpt lat="44.5344" lon="0.68673">
        <ele>124.7</ele>
        <time>2017-01-29T08:12:17.000Z</time>
      </trkpt>
      <trkpt lat="44.53438" lon="0.68674">
        <ele>124.9</ele>
        <time>2017-01-29T08:12:18.000Z</time>
      </trkpt>
      <trkpt lat="44.53436" lon="0.68675">
        <ele>125.1</ele>
        <time>2017-01-29T08:12:19.000Z</time>
      </trkpt>
      <trkpt lat="44.53435" lon="0.68676">
        <ele>125.3</ele>
        <time>2017-01-29T08:12:20.000Z</time>
      </trkpt>
      <trkpt lat="44.53433" lon="0.68677">
        <ele>125.5</ele>
        <time>2017-01-29T08:12:21.000Z</time>
      </trkpt>
      <trkpt lat="44.53431" lon="0.68678">
        <ele>125.6</ele>
        <time>2017-01-29T08:12:22.000Z</time>
      </trkpt>
      <trkpt lat="44.53429" lon="0.68679">
        <ele>125.8</ele>
        <time>2017-01-29T08:12:23.000Z</time>
      </trkpt>
      <trkpt lat="44.53428" lon="0.68681">
        <ele>126</ele>
        <time>2017-01-29T08:12:24.000Z</time>
      </trkpt>
      <trkpt lat="44.53426" lon="0.68682">
        <ele>126.2</ele>
        <time>2017-01-29T08:12:25.000Z</time>
      </trkpt>
      <trkpt lat="44.53425" lon="0.68683">
        <ele>126.3</ele>
        <time>2017-01-29T08:12:26.000Z</time>
      </trkpt>
      <trkpt lat="44.53423" lon="0.68685">
        <ele>126.5</ele>
        <time>2017-01-29T08:12:27.000Z</time>
      </trkpt>
      <trkpt lat="44.53422" lon="0.68686">
        <ele>126.7</ele>
        <time>2017-01-29T08:12:28.000Z</time>
      </trkpt>
      <trkpt lat="44.5342" lon="0.68687">
        <ele>126.9</ele>
        <time>2017-01-29T08:12:29.000Z</time>
      </trkpt>
      <trkpt lat="44.53419" lon="0.68689">
        <ele>127</ele>
        <time>2017-01-29T08:12:30.000Z</time>
      </trkpt>
      <trkpt lat="44.53417" lon="0.6869">
        <ele>127.2</ele>
        <time>2017-01-29T08:12:31.000Z</time>
      </trkpt>
      <trkpt lat="44.53416" lon="0.68691">
        <ele>127.4</ele>
        <time>2017-01-29T08:12:32.000Z</time>
      </trkpt>
      <trkpt lat="44.53414" lon="0.68693">
        <ele>127.5</ele>
        <time>2017-01-29T08:12:33.000Z</time>
      </trkpt>
      <trkpt lat="44.53413" lon="0.68694">
        <ele>127.6</ele>
        <time>2017-01-29T08:12:34.000Z</time>
      </trkpt>
      <trkpt lat="44.53411" lon="0.68695">
        <ele>127.8</ele>
        <time>2017-01-29T08:12:35.000Z</time>
      </trkpt>
      <trkpt lat="44.5341" lon="0.68696">
        <ele>127.9</ele>
        <time>2017-01-29T08:12:36.000Z</time>
      </trkpt>
      <trkpt lat="44.53408" lon="0.68698">
        <ele>128</ele>
        <time>2017-01-29T08:12:37.000Z</time>
      </trkpt>
      <trkpt lat="44.53406" lon="0.68699">
        <ele>128.2</ele>
        <time>2017-01-29T08:12:38.000Z</time>
      </trkpt>
      <trkpt lat="44.53405" lon="0.687">
        <ele>128.3</ele>
        <time>2017-01-29T08:12:39.000Z</time>
      </trkpt>
      <trkpt lat="44.53403" lon="0.68701">
        <ele>128.5</ele>
        <time>2017-01-29T08:12:40.000Z</time>
      </trkpt>
      <trkpt lat="44.53401" lon="0.68703">
        <ele>128.6</ele>
        <time>2017-01-29T08:12:41.000Z</time>
      </trkpt>
      <trkpt lat="44.534" lon="0.68704">
        <ele>128.8</ele>
        <time>2017-01-29T08:12:42.000Z</time>
      </trkpt>
      <trkpt lat="44.53398" lon="0.68705">
        <ele>128.9</ele>
        <time>2017-01-29T08:12:43.000Z</time>
      </trkpt>
      <trkpt lat="44.53396" lon="0.68707">
        <ele>129.1</ele>
        <time>2017-01-29T08:12:44.000Z</time>
      </trkpt>
      <trkpt lat="44.53395" lon="0.68708">
        <ele>129.2</ele>
        <time>2017-01-29T08:12:45.000Z</time>
      </trkpt>
      <trkpt lat="44.53393" lon="0.6871">
        <ele>129.4</ele>
        <time>2017-01-29T08:12:46.000Z</time>
      </trkpt>
      <trkpt lat="44.53392" lon="0.68711">
        <ele>129.5</ele>
        <time>2017-01-29T08:12:47.000Z</time>
      </trkpt>
      <trkpt lat="44.5339" lon="0.68712">
        <ele>129.6</ele>
        <time>2017-01-29T08:12:48.000Z</time>
      </trkpt>
      <trkpt lat="44.53389" lon="0.68714">
        <ele>129.8</ele>
        <time>2017-01-29T08:12:49.000Z</time>
      </trkpt>
      <trkpt lat="44.53387" lon="0.68715">
        <ele>129.9</ele>
        <time>2017-01-29T08:12:50.000Z</time>
      </trkpt>
      <trkpt lat="44.53386" lon="0.68716">
        <ele>130.1</ele>
        <time>2017-01-29T08:12:51.000Z</time>
      </trkpt>
      <trkpt lat="44.53384" lon="0.68718">
        <ele>130.2</ele>
        <time>2017-01-29T08:12:52.000Z</time>
      </trkpt>
      <trkpt lat="44.53383" lon="0.68719">
        <ele>130.3</ele>
        <time>2017-01-29T08:12:53.000Z</time>
      </trkpt>
      <trkpt lat="44.53382" lon="0.68721">
        <ele>130.4</ele>
        <time>2017-01-29T08:12:54.000Z</time>
      </trkpt>
      <trkpt lat="44.53382" lon="0.68724">
        <ele>130.5</ele>
        <time>2017-01-29T08:12:55.000Z</time>
      </trkpt>
      <trkpt lat="44.53381" lon="0.68726">
        <ele>130.6</ele>
        <time>2017-01-29T08:12:56.000Z</time>
      </trkpt>
      <trkpt lat="44.53381" lon="0.68729">
        <ele>130.7</ele>
        <time>2017-01-29T08:12:57.000Z</time>
      </trkpt>
      <trkpt lat="44.5338" lon="0.68732">
        <ele>130.8</ele>
        <time>2017-01-29T08:12:58.000Z</time>
      </trkpt>
      <trkpt lat="44.5338" lon="0.68735">
        <ele>130.8</ele>
        <time>2017-01-29T08:12:59.000Z</time>
      </trkpt>
      <trkpt lat="44.5338" lon="0.68739">
        <ele>130.9</ele>
        <time>2017-01-29T08:13:00.000Z</time>
      </trkpt>
      <trkpt lat="44.53379" lon="0.68742">
        <ele>131</ele>
        <time>2017-01-29T08:13:01.000Z</time>
      </trkpt>
      <trkpt lat="44.53379" lon="0.68745">
        <ele>131.1</ele>
        <time>2017-01-29T08:13:02.000Z</time>
      </trkpt>
      <trkpt lat="44.53379" lon="0.68748">
        <ele>131.2</ele>
        <time>2017-01-29T08:13:03.000Z</time>
      </trkpt>
      <trkpt lat="44.53378" lon="0.68751">
        <ele>131.3</ele>
        <time>2017-01-29T08:13:04.000Z</time>
      </trkpt>
      <trkpt lat="44.53377" lon="0.68754">
        <ele>131.4</ele>
        <time>2017-01-29T08:13:05.000Z</time>
      </trkpt>
      <trkpt lat="44.53377" lon="0.68757">
        <ele>131.5</ele>
        <time>2017-01-29T08:13:06.000Z</time>
      </trkpt>
      <trkpt lat="44.53376" lon="0.6876">
        <ele>131.7</ele>
        <time>2017-01-29T08:13:07.000Z</time>
      </trkpt>
      <trkpt lat="44.53375" lon="0.68763">
        <ele>131.8</ele>
        <time>2017-01-29T08:13:08.000Z</time>
      </trkpt>
      <trkpt lat="44.53374" lon="0.68766">
        <ele>131.9</ele>
        <time>2017-01-29T08:13:09.000Z</time>
      </trkpt>
      <trkpt lat="44.53373" lon="0.68768">
        <ele>132.1</ele>
        <time>2017-01-29T08:13:10.000Z</time>
      </trkpt>
      <trkpt lat="44.53372" lon="0.68771">
        <ele>132.2</ele>
        <time>2017-01-29T08:13:11.000Z</time>
      </trkpt>
      <trkpt lat="44.53372" lon="0.68774">
        <ele>132.3</ele>
        <time>2017-01-29T08:13:12.000Z</time>
      </trkpt>
      <trkpt lat="44.53371" lon="0.68776">
        <ele>132.4</ele>
        <time>2017-01-29T08:13:13.000Z</time>
      </trkpt>
      <trkpt lat="44.5337" lon="0.68779">
        <ele>132.5</ele>
        <time>2017-01-29T08:13:14.000Z</time>
      </trkpt>
      <trkpt lat="44.53369" lon="0.68782">
        <ele>132.6</ele>
        <time>2017-01-29T08:13:15.000Z</time>
      </trkpt>
      <trkpt lat="44.53369" lon="0.68785">
        <ele>132.7</ele>
        <time>2017-01-29T08:13:16.000Z</time>
      </trkpt>
      <trkpt lat="44.53368" lon="0.68787">
        <ele>132.9</ele>
        <time>2017-01-29T08:13:17.000Z</time>
      </trkpt>
      <trkpt lat="44.53367" lon="0.6879">
        <ele>133</ele>
        <time>2017-01-29T08:13:18.000Z</time>
      </trkpt>
      <trkpt lat="44.53365" lon="0.68793">
        <ele>133.1</ele>
        <time>2017-01-29T08:13:19.000Z</time>
      </trkpt>
      <trkpt lat="44.53364" lon="0.68796">
        <ele>133.2</ele>
        <time>2017-01-29T08:13:20.000Z</time>
      </trkpt>
      <trkpt lat="44.53363" lon="0.68799">
        <ele>133.3</ele>
        <time>2017-01-29T08:13:21.000Z</time>
      </trkpt>
      <trkpt lat="44.53363" lon="0.68801">
        <ele>133.4</ele>
        <time>2017-01-29T08:13:22.000Z</time>
      </trkpt>
      <trkpt lat="44.53362" lon="0.68804">
        <ele>133.5</ele>
        <time>2017-01-29T08:13:23.000Z</time>
      </trkpt>
      <trkpt lat="44.53362" lon="0.68806">
        <ele>133.5</ele>
        <time>2017-01-29T08:13:24.000Z</time>
      </trkpt>
      <trkpt lat="44.53361" lon="0.68809">
        <ele>133.6</ele>
        <time>2017-01-29T08:13:25.000Z</time>
      </trkpt>
      <trkpt lat="44.5336" lon="0.68813">
        <ele>133.7</ele>
        <time>2017-01-29T08:13:26.000Z</time>
      </trkpt>
      <trkpt lat="44.53358" lon="0.68817">
        <ele>133.9</ele>
        <time>2017-01-29T08:13:27.000Z</time>
      </trkpt>
      <trkpt lat="44.53356" lon="0.68821">
        <ele>134</ele>
        <time>2017-01-29T08:13:28.000Z</time>
      </trkpt>
      <trkpt lat="44.53355" lon="0.68825">
        <ele>134.1</ele>
        <time>2017-01-29T08:13:29.000Z</time>
      </trkpt>
      <trkpt lat="44.53353" lon="0.68828">
        <ele>134.2</ele>
        <time>2017-01-29T08:13:30.000Z</time>
      </trkpt>
      <trkpt lat="44.53352" lon="0.68831">
        <ele>134.3</ele>
        <time>2017-01-29T08:13:31.000Z</time>
      </trkpt>
      <trkpt lat="44.5335" lon="0.68834">
        <ele>134.4</ele>
        <time>2017-01-29T08:13:32.000Z</time>
      </trkpt>
      <trkpt lat="44.53349" lon="0.68837">
        <ele>134.4</ele>
        <time>2017-01-29T08:13:33.000Z</time>
      </trkpt>
      <trkpt lat="44.53348" lon="0.6884">
        <ele>134.3</ele>
        <time>2017-01-29T08:13:34.000Z</time>
      </trkpt>
      <trkpt lat="44.53346" lon="0.68843">
        <ele>134.3</ele>
        <time>2017-01-29T08:13:35.000Z</time>
      </trkpt>
      <trkpt lat="44.53345" lon="0.68846">
        <ele>134.3</ele>
        <time>2017-01-29T08:13:36.000Z</time>
      </trkpt>
      <trkpt lat="44.53343" lon="0.68849">
        <ele>134.3</ele>
        <time>2017-01-29T08:13:37.000Z</time>
      </trkpt>
      <trkpt lat="44.53341" lon="0.68852">
        <ele>134.3</ele>
        <time>2017-01-29T08:13:38.000Z</time>
      </trkpt>
      <trkpt lat="44.5334" lon="0.68855">
        <ele>134.2</ele>
        <time>2017-01-29T08:13:39.000Z</time>
      </trkpt>
      <trkpt lat="44.53338" lon="0.68859">
        <ele>134.2</ele>
        <time>2017-01-29T08:13:40.000Z</time>
      </trkpt>
      <trkpt lat="44.53336" lon="0.68862">
        <ele>134.2</ele>
        <time>2017-01-29T08:13:41.000Z</time>
      </trkpt>
      <trkpt lat="44.53334" lon="0.68865">
        <ele>134.2</ele>
        <time>2017-01-29T08:13:42.000Z</time>
      </trkpt>
      <trkpt lat="44.53332" lon="0.68868">
        <ele>134.2</ele>
        <time>2017-01-29T08:13:43.000Z</time>
      </trkpt>
      <trkpt lat="44.5333" lon="0.68872">
        <ele>134.1</ele>
        <time>2017-01-29T08:13:44.000Z</time>
      </trkpt>
      <trkpt lat="44.53328" lon="0.68875">
        <ele>134.1</ele>
        <time>2017-01-29T08:13:45.000Z</time>
      </trkpt>
      <trkpt lat="44.53326" lon="0.68878">
        <ele>134</ele>
        <time>2017-01-29T08:13:46.000Z</time>
      </trkpt>
      <trkpt lat="44.53324" lon="0.6888">
        <ele>134</ele>
        <time>2017-01-29T08:13:47.000Z</time>
      </trkpt>
      <trkpt lat="44.53322" lon="0.68883">
        <ele>133.9</ele>
        <time>2017-01-29T08:13:48.000Z</time>
      </trkpt>
      <trkpt lat="44.5332" lon="0.68886">
        <ele>133.9</ele>
        <time>2017-01-29T08:13:49.000Z</time>
      </trkpt>
      <trkpt lat="44.53318" lon="0.68889">
        <ele>133.8</ele>
        <time>2017-01-29T08:13:50.000Z</time>
      </trkpt>
      <trkpt lat="44.53316" lon="0.68891">
        <ele>133.7</ele>
        <time>2017-01-29T08:13:51.000Z</time>
      </trkpt>
      <trkpt lat="44.53314" lon="0.68894">
        <ele>133.7</ele>
        <time>2017-01-29T08:13:52.000Z</time>
      </trkpt>
      <trkpt lat="44.53312" lon="0.68896">
        <ele>133.6</ele>
        <time>2017-01-29T08:13:53.000Z</time>
      </trkpt>
      <trkpt lat="44.5331" lon="0.68898">
        <ele>133.6</ele>
        <time>2017-01-29T08:13:54.000Z</time>
      </trkpt>
      <trkpt lat="44.53308" lon="0.68901">
        <ele>133.5</ele>
        <time>2017-01-29T08:13:55.000Z</time>
      </trkpt>
      <trkpt lat="44.53306" lon="0.68903">
        <ele>133.4</ele>
        <time>2017-01-29T08:13:56.000Z</time>
      </trkpt>
      <trkpt lat="44.53304" lon="0.68906">
        <ele>133.4</ele>
        <time>2017-01-29T08:13:57.000Z</time>
      </trkpt>
      <trkpt lat="44.53302" lon="0.68909">
        <ele>133.3</ele>
        <time>2017-01-29T08:13:58.000Z</time>
      </trkpt>
      <trkpt lat="44.533" lon="0.68911">
        <ele>133.2</ele>
        <time>2017-01-29T08:13:59.000Z</time>
      </trkpt>
      <trkpt lat="44.53298" lon="0.68914">
        <ele>133.1</ele>
        <time>2017-01-29T08:14:00.000Z</time>
      </trkpt>
      <trkpt lat="44.53297" lon="0.68917">
        <ele>133</ele>
        <time>2017-01-29T08:14:01.000Z</time>
      </trkpt>
      <trkpt lat="44.53295" lon="0.6892">
        <ele>133</ele>
        <time>2017-01-29T08:14:02.000Z</time>
      </trkpt>
      <trkpt lat="44.53293" lon="0.68923">
        <ele>133</ele>
        <time>2017-01-29T08:14:03.000Z</time>
      </trkpt>
      <trkpt lat="44.53292" lon="0.68926">
        <ele>133.1</ele>
        <time>2017-01-29T08:14:04.000Z</time>
      </trkpt>
      <trkpt lat="44.5329" lon="0.68928">
        <ele>133.1</ele>
        <time>2017-01-29T08:14:05.000Z</time>
      </trkpt>
      <trkpt lat="44.53289" lon="0.68931">
        <ele>133.1</ele>
        <time>2017-01-29T08:14:06.000Z</time>
      </trkpt>
      <trkpt lat="44.53288" lon="0.68934">
        <ele>133.1</ele>
        <time>2017-01-29T08:14:07.000Z</time>
      </trkpt>
      <trkpt lat="44.53286" lon="0.68937">
        <ele>133.1</ele>
        <time>2017-01-29T08:14:08.000Z</time>
      </trkpt>
      <trkpt lat="44.53285" lon="0.6894">
        <ele>133.1</ele>
        <time>2017-01-29T08:14:09.000Z</time>
      </trkpt>
      <trkpt lat="44.53283" lon="0.68942">
        <ele>133.1</ele>
        <time>2017-01-29T08:14:10.000Z</time>
      </trkpt>
      <trkpt lat="44.53282" lon="0.68945">
        <ele>133.1</ele>
        <time>2017-01-29T08:14:11.000Z</time>
      </trkpt>
      <trkpt lat="44.5328" lon="0.68948">
        <ele>133.1</ele>
        <time>2017-01-29T08:14:12.000Z</time>
      </trkpt>
      <trkpt lat="44.53278" lon="0.68952">
        <ele>133.1</ele>
        <time>2017-01-29T08:14:13.000Z</time>
      </trkpt>
      <trkpt lat="44.53277" lon="0.68955">
        <ele>133.1</ele>
        <time>2017-01-29T08:14:14.000Z</time>
      </trkpt>
      <trkpt lat="44.53275" lon="0.68958">
        <ele>133.1</ele>
        <time>2017-01-29T08:14:15.000Z</time>
      </trkpt>
      <trkpt lat="44.53274" lon="0.68961">
        <ele>133.1</ele>
        <time>2017-01-29T08:14:16.000Z</time>
      </trkpt>
      <trkpt lat="44.53272" lon="0.68964">
        <ele>133.1</ele>
        <time>2017-01-29T08:14:17.000Z</time>
      </trkpt>
      <trkpt lat="44.53271" lon="0.68967">
        <ele>133.1</ele>
        <time>2017-01-29T08:14:18.000Z</time>
      </trkpt>
      <trkpt lat="44.53269" lon="0.6897">
        <ele>133.1</ele>
        <time>2017-01-29T08:14:19.000Z</time>
      </trkpt>
      <trkpt lat="44.53267" lon="0.68973">
        <ele>133.1</ele>
        <time>2017-01-29T08:14:20.000Z</time>
      </trkpt>
      <trkpt lat="44.53266" lon="0.68975">
        <ele>133.1</ele>
        <time>2017-01-29T08:14:21.000Z</time>
      </trkpt>
      <trkpt lat="44.53264" lon="0.68978">
        <ele>133.1</ele>
        <time>2017-01-29T08:14:22.000Z</time>
      </trkpt>
      <trkpt lat="44.53262" lon="0.6898">
        <ele>133.1</ele>
        <time>2017-01-29T08:14:23.000Z</time>
      </trkpt>
      <trkpt lat="44.5326" lon="0.68982">
        <ele>133.1</ele>
        <time>2017-01-29T08:14:24.000Z</time>
      </trkpt>
      <trkpt lat="44.53258" lon="0.68983">
        <ele>133.1</ele>
        <time>2017-01-29T08:14:25.000Z</time>
      </trkpt>
      <trkpt lat="44.53256" lon="0.68984">
        <ele>133.1</ele>
        <time>2017-01-29T08:14:26.000Z</time>
      </trkpt>
      <trkpt lat="44.53253" lon="0.68985">
        <ele>133</ele>
        <time>2017-01-29T08:14:27.000Z</time>
      </trkpt>
      <trkpt lat="44.53251" lon="0.68985">
        <ele>133</ele>
        <time>2017-01-29T08:14:28.000Z</time>
      </trkpt>
      <trkpt lat="44.53248" lon="0.68985">
        <ele>132.9</ele>
        <time>2017-01-29T08:14:29.000Z</time>
      </trkpt>
      <trkpt lat="44.53245" lon="0.68984">
        <ele>132.9</ele>
        <time>2017-01-29T08:14:30.000Z</time>
      </trkpt>
      <trkpt lat="44.53242" lon="0.68984">
        <ele>132.8</ele>
        <time>2017-01-29T08:14:31.000Z</time>
      </trkpt>
      <trkpt lat="44.53239" lon="0.68983">
        <ele>132.7</ele>
        <time>2017-01-29T08:14:32.000Z</time>
      </trkpt>
      <trkpt lat="44.53237" lon="0.68982">
        <ele>132.6</ele>
        <time>2017-01-29T08:14:33.000Z</time>
      </trkpt>
      <trkpt lat="44.53234" lon="0.68981">
        <ele>132.6</ele>
        <time>2017-01-29T08:14:34.000Z</time>
      </trkpt>
      <trkpt lat="44.53231" lon="0.6898">
        <ele>132.5</ele>
        <time>2017-01-29T08:14:35.000Z</time>
      </trkpt>
      <trkpt lat="44.53228" lon="0.68978">
        <ele>132.4</ele>
        <time>2017-01-29T08:14:36.000Z</time>
      </trkpt>
      <trkpt lat="44.53226" lon="0.68977">
        <ele>132.4</ele>
        <time>2017-01-29T08:14:37.000Z</time>
      </trkpt>
      <trkpt lat="44.53223" lon="0.68976">
        <ele>132.3</ele>
        <time>2017-01-29T08:14:38.000Z</time>
      </trkpt>
      <trkpt lat="44.53221" lon="0.68974">
        <ele>132.3</ele>
        <time>2017-01-29T08:14:39.000Z</time>
      </trkpt>
      <trkpt lat="44.53218" lon="0.68973">
        <ele>132.2</ele>
        <time>2017-01-29T08:14:40.000Z</time>
      </trkpt>
      <trkpt lat="44.53216" lon="0.68971">
        <ele>132.2</ele>
        <time>2017-01-29T08:14:41.000Z</time>
      </trkpt>
      <trkpt lat="44.53213" lon="0.68969">
        <ele>132.2</ele>
        <time>2017-01-29T08:14:42.000Z</time>
      </trkpt>
      <trkpt lat="44.53211" lon="0.68968">
        <ele>132.1</ele>
        <time>2017-01-29T08:14:43.000Z</time>
      </trkpt>
      <trkpt lat="44.53208" lon="0.68966">
        <ele>132.1</ele>
        <time>2017-01-29T08:14:44.000Z</time>
      </trkpt>
      <trkpt lat="44.53206" lon="0.68965">
        <ele>132.1</ele>
        <time>2017-01-29T08:14:45.000Z</time>
      </trkpt>
      <trkpt lat="44.53203" lon="0.68963">
        <ele>132.1</ele>
        <time>2017-01-29T08:14:46.000Z</time>
      </trkpt>
      <trkpt lat="44.53201" lon="0.68962">
        <ele>132</ele>
        <time>2017-01-29T08:14:47.000Z</time>
      </trkpt>
      <trkpt lat="44.53199" lon="0.6896">
        <ele>132</ele>
        <time>2017-01-29T08:14:48.000Z</time>
      </trkpt>
      <trkpt lat="44.53196" lon="0.68959">
        <ele>132</ele>
        <time>2017-01-29T08:14:49.000Z</time>
      </trkpt>
      <trkpt lat="44.53194" lon="0.68957">
        <ele>132</ele>
        <time>2017-01-29T08:14:50.000Z</time>
      </trkpt>
      <trkpt lat="44.53192" lon="0.68956">
        <ele>132</ele>
        <time>2017-01-29T08:14:51.000Z</time>
      </trkpt>
      <trkpt lat="44.53189" lon="0.68955">
        <ele>132</ele>
        <time>2017-01-29T08:14:52.000Z</time>
      </trkpt>
      <trkpt lat="44.53187" lon="0.68953">
        <ele>132</ele>
        <time>2017-01-29T08:14:53.000Z</time>
      </trkpt>
      <trkpt lat="44.53185" lon="0.68952">
        <ele>132</ele>
        <time>2017-01-29T08:14:54.000Z</time>
      </trkpt>
      <trkpt lat="44.53183" lon="0.68951">
        <ele>132</ele>
        <time>2017-01-29T08:14:55.000Z</time>
      </trkpt>
      <trkpt lat="44.5318" lon="0.68949">
        <ele>132</ele>
        <time>2017-01-29T08:14:56.000Z</time>
      </trkpt>
      <trkpt lat="44.53178" lon="0.68947">
        <ele>132.1</ele>
        <time>2017-01-29T08:14:57.000Z</time>
      </trkpt>
      <trkpt lat="44.53176" lon="0.68945">
        <ele>132.1</ele>
        <time>2017-01-29T08:14:58.000Z</time>
      </trkpt>
      <trkpt lat="44.53174" lon="0.68943">
        <ele>132.1</ele>
        <time>2017-01-29T08:14:59.000Z</time>
      </trkpt>
      <trkpt lat="44.53172" lon="0.68941">
        <ele>132.2</ele>
        <time>2017-01-29T08:15:00.000Z</time>
      </trkpt>
      <trkpt lat="44.5317" lon="0.68938">
        <ele>132.3</ele>
        <time>2017-01-29T08:15:01.000Z</time>
      </trkpt>
      <trkpt lat="44.53168" lon="0.68935">
        <ele>132.3</ele>
        <time>2017-01-29T08:15:02.000Z</time>
      </trkpt>
      <trkpt lat="44.53166" lon="0.68933">
        <ele>132.4</ele>
        <time>2017-01-29T08:15:03.000Z</time>
      </trkpt>
      <trkpt lat="44.53165" lon="0.6893">
        <ele>132.5</ele>
        <time>2017-01-29T08:15:04.000Z</time>
      </trkpt>
      <trkpt lat="44.53163" lon="0.68927">
        <ele>132.5</ele>
        <time>2017-01-29T08:15:05.000Z</time>
      </trkpt>
      <trkpt lat="44.53161" lon="0.68924">
        <ele>132.6</ele>
        <time>2017-01-29T08:15:06.000Z</time>
      </trkpt>
      <trkpt lat="44.5316" lon="0.68921">
        <ele>132.7</ele>
        <time>2017-01-29T08:15:07.000Z</time>
      </trkpt>
      <trkpt lat="44.53158" lon="0.68919">
        <ele>132.7</ele>
        <time>2017-01-29T08:15:08.000Z</time>
      </trkpt>
      <trkpt lat="44.53156" lon="0.68916">
        <ele>132.8</ele>
        <time>2017-01-29T08:15:09.000Z</time>
      </trkpt>
      <trkpt lat="44.53155" lon="0.68914">
        <ele>132.8</ele>
        <time>2017-01-29T08:15:10.000Z</time>
      </trkpt>
      <trkpt lat="44.53153" lon="0.68912">
        <ele>132.8</ele>
        <time>2017-01-29T08:15:11.000Z</time>
      </trkpt>
      <trkpt lat="44.53151" lon="0.6891">
        <ele>132.8</ele>
        <time>2017-01-29T08:15:12.000Z</time>
      </trkpt>
      <trkpt lat="44.53149" lon="0.68908">
        <ele>132.8</ele>
        <time>2017-01-29T08:15:13.000Z</time>
      </trkpt>
      <trkpt lat="44.53148" lon="0.68906">
        <ele>132.9</ele>
        <time>2017-01-29T08:15:14.000Z</time>
      </trkpt>
      <trkpt lat="44.53145" lon="0.68904">
        <ele>132.9</ele>
        <time>2017-01-29T08:15:15.000Z</time>
      </trkpt>
      <trkpt lat="44.53143" lon="0.68902">
        <ele>132.9</ele>
        <time>2017-01-29T08:15:16.000Z</time>
      </trkpt>
      <trkpt lat="44.53141" lon="0.689">
        <ele>132.9</ele>
        <time>2017-01-29T08:15:17.000Z</time>
      </trkpt>
      <trkpt lat="44.5314" lon="0.68898">
        <ele>133</ele>
        <time>2017-01-29T08:15:18.000Z</time>
      </trkpt>
      <trkpt lat="44.53138" lon="0.68895">
        <ele>133</ele>
        <time>2017-01-29T08:15:19.000Z</time>
      </trkpt>
      <trkpt lat="44.53136" lon="0.68893">
        <ele>133</ele>
        <time>2017-01-29T08:15:20.000Z</time>
      </trkpt>
      <trkpt lat="44.53135" lon="0.6889">
        <ele>133.1</ele>
        <time>2017-01-29T08:15:21.000Z</time>
      </trkpt>
      <trkpt lat="44.53134" lon="0.68888">
        <ele>133.2</ele>
        <time>2017-01-29T08:15:22.000Z</time>
      </trkpt>
      <trkpt lat="44.53133" lon="0.68884">
        <ele>133.3</ele>
        <time>2017-01-29T08:15:23.000Z</time>
      </trkpt>
      <trkpt lat="44.53132" lon="0.68881">
        <ele>133.4</ele>
        <time>2017-01-29T08:15:24.000Z</time>
      </trkpt>
      <trkpt lat="44.5313" lon="0.68878">
        <ele>133.4</ele>
        <time>2017-01-29T08:15:25.000Z</time>
      </trkpt>
      <trkpt lat="44.53129" lon="0.68876">
        <ele>133.5</ele>
        <time>2017-01-29T08:15:26.000Z</time>
      </trkpt>
      <trkpt lat="44.53127" lon="0.68873">
        <ele>133.6</ele>
        <time>2017-01-29T08:15:27.000Z</time>
      </trkpt>
      <trkpt lat="44.53126" lon="0.68871">
        <ele>133.7</ele>
        <time>2017-01-29T08:15:28.000Z</time>
      </trkpt>
      <trkpt lat="44.53124" lon="0.68869">
        <ele>133.7</ele>
        <time>2017-01-29T08:15:29.000Z</time>
      </trkpt>
      <trkpt lat="44.53122" lon="0.68866">
        <ele>133.8</ele>
        <time>2017-01-29T08:15:30.000Z</time>
      </trkpt>
      <trkpt lat="44.5312" lon="0.68864">
        <ele>133.9</ele>
        <time>2017-01-29T08:15:31.000Z</time>
      </trkpt>
      <trkpt lat="44.53119" lon="0.68862">
        <ele>133.9</ele>
        <time>2017-01-29T08:15:32.000Z</time>
      </trkpt>
      <trkpt lat="44.53117" lon="0.68859">
        <ele>134</ele>
        <time>2017-01-29T08:15:33.000Z</time>
      </trkpt>
      <trkpt lat="44.53116" lon="0.68856">
        <ele>134.1</ele>
        <time>2017-01-29T08:15:34.000Z</time>
      </trkpt>
      <trkpt lat="44.53114" lon="0.68854">
        <ele>134.2</ele>
        <time>2017-01-29T08:15:35.000Z</time>
      </trkpt>
      <trkpt lat="44.53113" lon="0.68851">
        <ele>134.3</ele>
        <time>2017-01-29T08:15:36.000Z</time>
      </trkpt>
      <trkpt lat="44.53112" lon="0.68848">
        <ele>134.4</ele>
        <time>2017-01-29T08:15:37.000Z</time>
      </trkpt>
      <trkpt lat="44.5311" lon="0.68846">
        <ele>134.5</ele>
        <time>2017-01-29T08:15:38.000Z</time>
      </trkpt>
      <trkpt lat="44.53109" lon="0.68843">
        <ele>134.6</ele>
        <time>2017-01-29T08:15:39.000Z</time>
      </trkpt>
      <trkpt lat="44.53108" lon="0.6884">
        <ele>134.7</ele>
        <time>2017-01-29T08:15:40.000Z</time>
      </trkpt>
      <trkpt lat="44.53106" lon="0.68838">
        <ele>134.8</ele>
        <time>2017-01-29T08:15:41.000Z</time>
      </trkpt>
      <trkpt lat="44.53105" lon="0.68836">
        <ele>134.9</ele>
        <time>2017-01-29T08:15:42.000Z</time>
      </trkpt>
      <trkpt lat="44.53103" lon="0.68833">
        <ele>135</ele>
        <time>2017-01-29T08:15:43.000Z</time>
      </trkpt>
      <trkpt lat="44.53102" lon="0.68831">
        <ele>135</ele>
        <time>2017-01-29T08:15:44.000Z</time>
      </trkpt>
      <trkpt lat="44.531" lon="0.68829">
        <ele>135</ele>
        <time>2017-01-29T08:15:45.000Z</time>
      </trkpt>
      <trkpt lat="44.53098" lon="0.68827">
        <ele>135.1</ele>
        <time>2017-01-29T08:15:46.000Z</time>
      </trkpt>
      <trkpt lat="44.53096" lon="0.68825">
        <ele>135.1</ele>
        <time>2017-01-29T08:15:47.000Z</time>
      </trkpt>
      <trkpt lat="44.53095" lon="0.68823">
        <ele>135.1</ele>
        <time>2017-01-29T08:15:48.000Z</time>
      </trkpt>
      <trkpt lat="44.53093" lon="0.68821">
        <ele>135.1</ele>
        <time>2017-01-29T08:15:49.000Z</time>
      </trkpt>
      <trkpt lat="44.53091" lon="0.68818">
        <ele>135.2</ele>
        <time>2017-01-29T08:15:50.000Z</time>
      </trkpt>
      <trkpt lat="44.53089" lon="0.68816">
        <ele>135.2</ele>
        <time>2017-01-29T08:15:51.000Z</time>
      </trkpt>
      <trkpt lat="44.53088" lon="0.68814">
        <ele>135.2</ele>
        <time>2017-01-29T08:15:52.000Z</time>
      </trkpt>
      <trkpt lat="44.53086" lon="0.68811">
        <ele>135.3</ele>
        <time>2017-01-29T08:15:53.000Z</time>
      </trkpt>
      <trkpt lat="44.53085" lon="0.68809">
        <ele>135.3</ele>
        <time>2017-01-29T08:15:54.000Z</time>
      </trkpt>
      <trkpt lat="44.53083" lon="0.68807">
        <ele>135.3</ele>
        <time>2017-01-29T08:15:55.000Z</time>
      </trkpt>
      <trkpt lat="44.53082" lon="0.68806">
        <ele>135.3</ele>
        <time>2017-01-29T08:15:56.000Z</time>
      </trkpt>
      <trkpt lat="44.5308" lon="0.68804">
        <ele>135.3</ele>
        <time>2017-01-29T08:15:57.000Z</time>
      </trkpt>
      <trkpt lat="44.53078" lon="0.68803">
        <ele>135.3</ele>
        <time>2017-01-29T08:15:58.000Z</time>
      </trkpt>
      <trkpt lat="44.53077" lon="0.68802">
        <ele>135.2</ele>
        <time>2017-01-29T08:15:59.000Z</time>
      </trkpt>
      <trkpt lat="44.53075" lon="0.68801">
        <ele>135.2</ele>
        <time>2017-01-29T08:16:00.000Z</time>
      </trkpt>
      <trkpt lat="44.53074" lon="0.688">
        <ele>135.2</ele>
        <time>2017-01-29T08:16:01.000Z</time>
      </trkpt>
      <trkpt lat="44.53072" lon="0.68799">
        <ele>135.2</ele>
        <time>2017-01-29T08:16:02.000Z</time>
      </trkpt>
      <trkpt lat="44.5307" lon="0.68798">
        <ele>135.1</ele>
        <time>2017-01-29T08:16:03.000Z</time>
      </trkpt>
      <trkpt lat="44.53068" lon="0.68797">
        <ele>135.1</ele>
        <time>2017-01-29T08:16:04.000Z</time>
      </trkpt>
      <trkpt lat="44.53067" lon="0.68796">
        <ele>135.1</ele>
        <time>2017-01-29T08:16:05.000Z</time>
      </trkpt>
      <trkpt lat="44.53065" lon="0.68794">
        <ele>135.1</ele>
        <time>2017-01-29T08:16:06.000Z</time>
      </trkpt>
      <trkpt lat="44.53063" lon="0.68792">
        <ele>135.1</ele>
        <time>2017-01-29T08:16:07.000Z</time>
      </trkpt>
      <trkpt lat="44.53061" lon="0.68789">
        <ele>135.1</ele>
        <time>2017-01-29T08:16:08.000Z</time>
      </trkpt>
      <trkpt lat="44.53059" lon="0.68787">
        <ele>135.2</ele>
        <time>2017-01-29T08:16:09.000Z</time>
      </trkpt>
      <trkpt lat="44.53057" lon="0.68785">
        <ele>135.2</ele>
        <time>2017-01-29T08:16:10.000Z</time>
      </trkpt>
      <trkpt lat="44.53056" lon="0.68782">
        <ele>135.2</ele>
        <time>2017-01-29T08:16:11.000Z</time>
      </trkpt>
      <trkpt lat="44.53054" lon="0.6878">
        <ele>135.3</ele>
        <time>2017-01-29T08:16:12.000Z</time>
      </trkpt>
      <trkpt lat="44.53052" lon="0.68778">
        <ele>135.3</ele>
        <time>2017-01-29T08:16:13.000Z</time>
      </trkpt>
      <trkpt lat="44.5305" lon="0.68776">
        <ele>135.3</ele>
        <time>2017-01-29T08:16:14.000Z</time>
      </trkpt>
      <trkpt lat="44.53048" lon="0.68774">
        <ele>135.3</ele>
        <time>2017-01-29T08:16:15.000Z</time>
      </trkpt>
      <trkpt lat="44.53046" lon="0.68772">
        <ele>135.4</ele>
        <time>2017-01-29T08:16:16.000Z</time>
      </trkpt>
      <trkpt lat="44.53044" lon="0.6877">
        <ele>135.4</ele>
        <time>2017-01-29T08:16:17.000Z</time>
      </trkpt>
      <trkpt lat="44.53042" lon="0.68769">
        <ele>135.4</ele>
        <time>2017-01-29T08:16:18.000Z</time>
      </trkpt>
      <trkpt lat="44.5304" lon="0.68767">
        <ele>135.5</ele>
        <time>2017-01-29T08:16:19.000Z</time>
      </trkpt>
      <trkpt lat="44.53038" lon="0.68765">
        <ele>135.5</ele>
        <time>2017-01-29T08:16:20.000Z</time>
      </trkpt>
      <trkpt lat="44.53036" lon="0.68763">
        <ele>135.6</ele>
        <time>2017-01-29T08:16:21.000Z</time>
      </trkpt>
      <trkpt lat="44.53034" lon="0.68762">
        <ele>135.6</ele>
        <time>2017-01-29T08:16:22.000Z</time>
      </trkpt>
      <trkpt lat="44.53032" lon="0.6876">
        <ele>135.7</ele>
        <time>2017-01-29T08:16:23.000Z</time>
      </trkpt>
      <trkpt lat="44.5303" lon="0.68758">
        <ele>135.7</ele>
        <time>2017-01-29T08:16:24.000Z</time>
      </trkpt>
      <trkpt lat="44.53029" lon="0.68756">
        <ele>135.8</ele>
        <time>2017-01-29T08:16:25.000Z</time>
      </trkpt>
      <trkpt lat="44.53027" lon="0.68754">
        <ele>135.8</ele>
        <time>2017-01-29T08:16:26.000Z</time>
      </trkpt>
      <trkpt lat="44.53025" lon="0.68753">
        <ele>135.9</ele>
        <time>2017-01-29T08:16:27.000Z</time>
      </trkpt>
      <trkpt lat="44.53023" lon="0.68751">
        <ele>136</ele>
        <time>2017-01-29T08:16:28.000Z</time>
      </trkpt>
      <trkpt lat="44.53021" lon="0.68749">
        <ele>136</ele>
        <time>2017-01-29T08:16:29.000Z</time>
      </trkpt>
      <trkpt lat="44.53019" lon="0.68747">
        <ele>136</ele>
        <time>2017-01-29T08:16:30.000Z</time>
      </trkpt>
      <trkpt lat="44.53018" lon="0.68745">
        <ele>136</ele>
        <time>2017-01-29T08:16:31.000Z</time>
      </trkpt>
      <trkpt lat="44.53016" lon="0.68743">
        <ele>136</ele>
        <time>2017-01-29T08:16:32.000Z</time>
      </trkpt>
      <trkpt lat="44.53014" lon="0.68741">
        <ele>136</ele>
        <time>2017-01-29T08:16:33.000Z</time>
      </trkpt>
      <trkpt lat="44.53012" lon="0.6874">
        <ele>136</ele>
        <time>2017-01-29T08:16:34.000Z</time>
      </trkpt>
      <trkpt lat="44.5301" lon="0.68738">
        <ele>136</ele>
        <time>2017-01-29T08:16:35.000Z</time>
      </trkpt>
      <trkpt lat="44.53008" lon="0.68736">
        <ele>136</ele>
        <time>2017-01-29T08:16:36.000Z</time>
      </trkpt>
      <trkpt lat="44.53006" lon="0.68734">
        <ele>136</ele>
        <time>2017-01-29T08:16:37.000Z</time>
      </trkpt>
      <trkpt lat="44.53004" lon="0.68732">
        <ele>136</ele>
        <time>2017-01-29T08:16:38.000Z</time>
      </trkpt>
      <trkpt lat="44.53002" lon="0.6873">
        <ele>136</ele>
        <time>2017-01-29T08:16:39.000Z</time>
      </trkpt>
      <trkpt lat="44.53" lon="0.68729">
        <ele>136</ele>
        <time>2017-01-29T08:16:40.000Z</time>
      </trkpt>
      <trkpt lat="44.52998" lon="0.68727">
        <ele>136</ele>
        <time>2017-01-29T08:16:41.000Z</time>
      </trkpt>
      <trkpt lat="44.52996" lon="0.68725">
        <ele>136.1</ele>
        <time>2017-01-29T08:16:42.000Z</time>
      </trkpt>
      <trkpt lat="44.52994" lon="0.68723">
        <ele>136.1</ele>
        <time>2017-01-29T08:16:43.000Z</time>
      </trkpt>
      <trkpt lat="44.52992" lon="0.68722">
        <ele>136.2</ele>
        <time>2017-01-29T08:16:44.000Z</time>
      </trkpt>
      <trkpt lat="44.5299" lon="0.6872">
        <ele>136.2</ele>
        <time>2017-01-29T08:16:45.000Z</time>
      </trkpt>
      <trkpt lat="44.52988" lon="0.68718">
        <ele>136.2</ele>
        <time>2017-01-29T08:16:46.000Z</time>
      </trkpt>
      <trkpt lat="44.52986" lon="0.68716">
        <ele>136.3</ele>
        <time>2017-01-29T08:16:47.000Z</time>
      </trkpt>
      <trkpt lat="44.52984" lon="0.68714">
        <ele>136.3</ele>
        <time>2017-01-29T08:16:48.000Z</time>
      </trkpt>
      <trkpt lat="44.52982" lon="0.68712">
        <ele>136.3</ele>
        <time>2017-01-29T08:16:49.000Z</time>
      </trkpt>
      <trkpt lat="44.5298" lon="0.6871">
        <ele>136.4</ele>
        <time>2017-01-29T08:16:50.000Z</time>
      </trkpt>
      <trkpt lat="44.52978" lon="0.68708">
        <ele>136.4</ele>
        <time>2017-01-29T08:16:51.000Z</time>
      </trkpt>
      <trkpt lat="44.52976" lon="0.68705">
        <ele>136.4</ele>
        <time>2017-01-29T08:16:52.000Z</time>
      </trkpt>
      <trkpt lat="44.52974" lon="0.68703">
        <ele>136.4</ele>
        <time>2017-01-29T08:16:53.000Z</time>
      </trkpt>
      <trkpt lat="44.52972" lon="0.68702">
        <ele>136.5</ele>
        <time>2017-01-29T08:16:54.000Z</time>
      </trkpt>
      <trkpt lat="44.5297" lon="0.687">
        <ele>136.5</ele>
        <time>2017-01-29T08:16:55.000Z</time>
      </trkpt>
      <trkpt lat="44.52968" lon="0.68699">
        <ele>136.5</ele>
        <time>2017-01-29T08:16:56.000Z</time>
      </trkpt>
      <trkpt lat="44.52966" lon="0.68698">
        <ele>136.6</ele>
        <time>2017-01-29T08:16:57.000Z</time>
      </trkpt>
      <trkpt lat="44.52964" lon="0.68697">
        <ele>136.6</ele>
        <time>2017-01-29T08:16:58.000Z</time>
      </trkpt>
      <trkpt lat="44.52961" lon="0.68696">
        <ele>136.6</ele>
        <time>2017-01-29T08:16:59.000Z</time>
      </trkpt>
      <trkpt lat="44.52959" lon="0.68696">
        <ele>136.7</ele>
        <time>2017-01-29T08:17:00.000Z</time>
      </trkpt>
      <trkpt lat="44.52957" lon="0.68695">
        <ele>136.7</ele>
        <time>2017-01-29T08:17:01.000Z</time>
      </trkpt>
      <trkpt lat="44.52954" lon="0.68694">
        <ele>136.7</ele>
        <time>2017-01-29T08:17:02.000Z</time>
      </trkpt>
      <trkpt lat="44.52952" lon="0.68694">
        <ele>136.8</ele>
        <time>2017-01-29T08:17:03.000Z</time>
      </trkpt>
      <trkpt lat="44.5295" lon="0.68694">
        <ele>136.8</ele>
        <time>2017-01-29T08:17:04.000Z</time>
      </trkpt>
      <trkpt lat="44.52947" lon="0.68694">
        <ele>136.8</ele>
        <time>2017-01-29T08:17:05.000Z</time>
      </trkpt>
      <trkpt lat="44.52945" lon="0.68694">
        <ele>136.9</ele>
        <time>2017-01-29T08:17:06.000Z</time>
      </trkpt>
      <trkpt lat="44.52942" lon="0.68695">
        <ele>136.9</ele>
        <time>2017-01-29T08:17:07.000Z</time>
      </trkpt>
      <trkpt lat="44.5294" lon="0.68695">
        <ele>137</ele>
        <time>2017-01-29T08:17:08.000Z</time>
      </trkpt>
      <trkpt lat="44.52937" lon="0.68695">
        <ele>137</ele>
        <time>2017-01-29T08:17:09.000Z</time>
      </trkpt>
      <trkpt lat="44.52935" lon="0.68695">
        <ele>137</ele>
        <time>2017-01-29T08:17:10.000Z</time>
      </trkpt>
      <trkpt lat="44.52933" lon="0.68696">
        <ele>137.1</ele>
        <time>2017-01-29T08:17:11.000Z</time>
      </trkpt>
      <trkpt lat="44.5293" lon="0.68696">
        <ele>137.1</ele>
        <time>2017-01-29T08:17:12.000Z</time>
      </trkpt>
      <trkpt lat="44.52928" lon="0.68696">
        <ele>137.2</ele>
        <time>2017-01-29T08:17:13.000Z</time>
      </trkpt>
      <trkpt lat="44.52925" lon="0.68696">
        <ele>137.2</ele>
        <time>2017-01-29T08:17:14.000Z</time>
      </trkpt>
      <trkpt lat="44.52923" lon="0.68695">
        <ele>137.3</ele>
        <time>2017-01-29T08:17:15.000Z</time>
      </trkpt>
      <trkpt lat="44.5292" lon="0.68695">
        <ele>137.3</ele>
        <time>2017-01-29T08:17:16.000Z</time>
      </trkpt>
      <trkpt lat="44.52917" lon="0.68695">
        <ele>137.3</ele>
        <time>2017-01-29T08:17:17.000Z</time>
      </trkpt>
      <trkpt lat="44.52915" lon="0.68695">
        <ele>137.5</ele>
        <time>2017-01-29T08:17:18.000Z</time>
      </trkpt>
      <trkpt lat="44.52912" lon="0.68695">
        <ele>137.6</ele>
        <time>2017-01-29T08:17:19.000Z</time>
      </trkpt>
      <trkpt lat="44.5291" lon="0.68695">
        <ele>137.8</ele>
        <time>2017-01-29T08:17:20.000Z</time>
      </trkpt>
      <trkpt lat="44.52907" lon="0.68695">
        <ele>138</ele>
        <time>2017-01-29T08:17:21.000Z</time>
      </trkpt>
      <trkpt lat="44.52905" lon="0.68694">
        <ele>138.2</ele>
        <time>2017-01-29T08:17:22.000Z</time>
      </trkpt>
      <trkpt lat="44.52903" lon="0.68694">
        <ele>138.3</ele>
        <time>2017-01-29T08:17:23.000Z</time>
      </trkpt>
      <trkpt lat="44.529" lon="0.68694">
        <ele>138.5</ele>
        <time>2017-01-29T08:17:24.000Z</time>
      </trkpt>
      <trkpt lat="44.52898" lon="0.68693">
        <ele>138.7</ele>
        <time>2017-01-29T08:17:25.000Z</time>
      </trkpt>
      <trkpt lat="44.52896" lon="0.68693">
        <ele>138.8</ele>
        <time>2017-01-29T08:17:26.000Z</time>
      </trkpt>
      <trkpt lat="44.52893" lon="0.68693">
        <ele>139</ele>
        <time>2017-01-29T08:17:27.000Z</time>
      </trkpt>
      <trkpt lat="44.52891" lon="0.68692">
        <ele>139.2</ele>
        <time>2017-01-29T08:17:28.000Z</time>
      </trkpt>
      <trkpt lat="44.52888" lon="0.68692">
        <ele>139.3</ele>
        <time>2017-01-29T08:17:29.000Z</time>
      </trkpt>
      <trkpt lat="44.52886" lon="0.68691">
        <ele>139.5</ele>
        <time>2017-01-29T08:17:30.000Z</time>
      </trkpt>
      <trkpt lat="44.52884" lon="0.68691">
        <ele>139.7</ele>
        <time>2017-01-29T08:17:31.000Z</time>
      </trkpt>
      <trkpt lat="44.52881" lon="0.68691">
        <ele>139.8</ele>
        <time>2017-01-29T08:17:32.000Z</time>
      </trkpt>
      <trkpt lat="44.52879" lon="0.6869">
        <ele>140</ele>
        <time>2017-01-29T08:17:33.000Z</time>
      </trkpt>
      <trkpt lat="44.52876" lon="0.6869">
        <ele>140.2</ele>
        <time>2017-01-29T08:17:34.000Z</time>
      </trkpt>
      <trkpt lat="44.52874" lon="0.6869">
        <ele>140.4</ele>
        <time>2017-01-29T08:17:35.000Z</time>
      </trkpt>
      <trkpt lat="44.52871" lon="0.68689">
        <ele>140.5</ele>
        <time>2017-01-29T08:17:36.000Z</time>
      </trkpt>
      <trkpt lat="44.52869" lon="0.68689">
        <ele>140.7</ele>
        <time>2017-01-29T08:17:37.000Z</time>
      </trkpt>
      <trkpt lat="44.52866" lon="0.68689">
        <ele>140.9</ele>
        <time>2017-01-29T08:17:38.000Z</time>
      </trkpt>
      <trkpt lat="44.52864" lon="0.68689">
        <ele>141.1</ele>
        <time>2017-01-29T08:17:39.000Z</time>
      </trkpt>
      <trkpt lat="44.52861" lon="0.68689">
        <ele>141.3</ele>
        <time>2017-01-29T08:17:40.000Z</time>
      </trkpt>
      <trkpt lat="44.52859" lon="0.68689">
        <ele>141.4</ele>
        <time>2017-01-29T08:17:41.000Z</time>
      </trkpt>
      <trkpt lat="44.52856" lon="0.68689">
        <ele>141.6</ele>
        <time>2017-01-29T08:17:42.000Z</time>
      </trkpt>
      <trkpt lat="44.52854" lon="0.68689">
        <ele>141.8</ele>
        <time>2017-01-29T08:17:43.000Z</time>
      </trkpt>
      <trkpt lat="44.52852" lon="0.6869">
        <ele>142</ele>
        <time>2017-01-29T08:17:44.000Z</time>
      </trkpt>
      <trkpt lat="44.52849" lon="0.6869">
        <ele>142.1</ele>
        <time>2017-01-29T08:17:45.000Z</time>
      </trkpt>
      <trkpt lat="44.52847" lon="0.6869">
        <ele>142.3</ele>
        <time>2017-01-29T08:17:46.000Z</time>
      </trkpt>
      <trkpt lat="44.52845" lon="0.6869">
        <ele>142.5</ele>
        <time>2017-01-29T08:17:47.000Z</time>
      </trkpt>
      <trkpt lat="44.52842" lon="0.6869">
        <ele>142.6</ele>
        <time>2017-01-29T08:17:48.000Z</time>
      </trkpt>
      <trkpt lat="44.5284" lon="0.68689">
        <ele>142.8</ele>
        <time>2017-01-29T08:17:49.000Z</time>
      </trkpt>
      <trkpt lat="44.52837" lon="0.68689">
        <ele>143</ele>
        <time>2017-01-29T08:17:50.000Z</time>
      </trkpt>
      <trkpt lat="44.52835" lon="0.68689">
        <ele>143.1</ele>
        <time>2017-01-29T08:17:51.000Z</time>
      </trkpt>
      <trkpt lat="44.52833" lon="0.68689">
        <ele>143.3</ele>
        <time>2017-01-29T08:17:52.000Z</time>
      </trkpt>
      <trkpt lat="44.5283" lon="0.68689">
        <ele>143.5</ele>
        <time>2017-01-29T08:17:53.000Z</time>
      </trkpt>
      <trkpt lat="44.52828" lon="0.68689">
        <ele>143.6</ele>
        <time>2017-01-29T08:17:54.000Z</time>
      </trkpt>
      <trkpt lat="44.52826" lon="0.68689">
        <ele>143.7</ele>
        <time>2017-01-29T08:17:55.000Z</time>
      </trkpt>
      <trkpt lat="44.52824" lon="0.68689">
        <ele>143.9</ele>
        <time>2017-01-29T08:17:56.000Z</time>
      </trkpt>
      <trkpt lat="44.52822" lon="0.68688">
        <ele>144</ele>
        <time>2017-01-29T08:17:57.000Z</time>
      </trkpt>
      <trkpt lat="44.5282" lon="0.68687">
        <ele>144.1</ele>
        <time>2017-01-29T08:17:58.000Z</time>
      </trkpt>
      <trkpt lat="44.52818" lon="0.68687">
        <ele>144.2</ele>
        <time>2017-01-29T08:17:59.000Z</time>
      </trkpt>
      <trkpt lat="44.52816" lon="0.68686">
        <ele>144.3</ele>
        <time>2017-01-29T08:18:00.000Z</time>
      </trkpt>
      <trkpt lat="44.52814" lon="0.68686">
        <ele>144.4</ele>
        <time>2017-01-29T08:18:01.000Z</time>
      </trkpt>
      <trkpt lat="44.52812" lon="0.68686">
        <ele>144.6</ele>
        <time>2017-01-29T08:18:02.000Z</time>
      </trkpt>
      <trkpt lat="44.5281" lon="0.68685">
        <ele>144.7</ele>
        <time>2017-01-29T08:18:03.000Z</time>
      </trkpt>
      <trkpt lat="44.52808" lon="0.68685">
        <ele>144.8</ele>
        <time>2017-01-29T08:18:04.000Z</time>
      </trkpt>
      <trkpt lat="44.52806" lon="0.68685">
        <ele>144.9</ele>
        <time>2017-01-29T08:18:05.000Z</time>
      </trkpt>
      <trkpt lat="44.52804" lon="0.68685">
        <ele>145.1</ele>
        <time>2017-01-29T08:18:06.000Z</time>
      </trkpt>
      <trkpt lat="44.52801" lon="0.68685">
        <ele>145.2</ele>
        <time>2017-01-29T08:18:07.000Z</time>
      </trkpt>
      <trkpt lat="44.52799" lon="0.68684">
        <ele>145.4</ele>
        <time>2017-01-29T08:18:08.000Z</time>
      </trkpt>
      <trkpt lat="44.52796" lon="0.68684">
        <ele>145.5</ele>
        <time>2017-01-29T08:18:09.000Z</time>
      </trkpt>
      <trkpt lat="44.52794" lon="0.68684">
        <ele>145.7</ele>
        <time>2017-01-29T08:18:10.000Z</time>
      </trkpt>
      <trkpt lat="44.52791" lon="0.68684">
        <ele>145.8</ele>
        <time>2017-01-29T08:18:11.000Z</time>
      </trkpt>
      <trkpt lat="44.52788" lon="0.68684">
        <ele>146</ele>
        <time>2017-01-29T08:18:12.000Z</time>
      </trkpt>
      <trkpt lat="44.52785" lon="0.68683">
        <ele>146.2</ele>
        <time>2017-01-29T08:18:13.000Z</time>
      </trkpt>
      <trkpt lat="44.52782" lon="0.68683">
        <ele>146.4</ele>
        <time>2017-01-29T08:18:14.000Z</time>
      </trkpt>
      <trkpt lat="44.52779" lon="0.68683">
        <ele>146.6</ele>
        <time>2017-01-29T08:18:15.000Z</time>
      </trkpt>
      <trkpt lat="44.52775" lon="0.68683">
        <ele>146.8</ele>
        <time>2017-01-29T08:18:16.000Z</time>
      </trkpt>
      <trkpt lat="44.52772" lon="0.68682">
        <ele>147</ele>
        <time>2017-01-29T08:18:17.000Z</time>
      </trkpt>
      <trkpt lat="44.52769" lon="0.68682">
        <ele>147.2</ele>
        <time>2017-01-29T08:18:18.000Z</time>
      </trkpt>
      <trkpt lat="44.52766" lon="0.68682">
        <ele>147.4</ele>
        <time>2017-01-29T08:18:19.000Z</time>
      </trkpt>
      <trkpt lat="44.52763" lon="0.68681">
        <ele>147.6</ele>
        <time>2017-01-29T08:18:20.000Z</time>
      </trkpt>
      <trkpt lat="44.5276" lon="0.68681">
        <ele>147.7</ele>
        <time>2017-01-29T08:18:21.000Z</time>
      </trkpt>
      <trkpt lat="44.52757" lon="0.68681">
        <ele>147.9</ele>
        <time>2017-01-29T08:18:22.000Z</time>
      </trkpt>
      <trkpt lat="44.52754" lon="0.6868">
        <ele>148.1</ele>
        <time>2017-01-29T08:18:23.000Z</time>
      </trkpt>
      <trkpt lat="44.52752" lon="0.6868">
        <ele>148.2</ele>
        <time>2017-01-29T08:18:24.000Z</time>
      </trkpt>
      <trkpt lat="44.52749" lon="0.68679">
        <ele>148.3</ele>
        <time>2017-01-29T08:18:25.000Z</time>
      </trkpt>
      <trkpt lat="44.52746" lon="0.68679">
        <ele>148.3</ele>
        <time>2017-01-29T08:18:26.000Z</time>
      </trkpt>
      <trkpt lat="44.52743" lon="0.68679">
        <ele>148.4</ele>
        <time>2017-01-29T08:18:27.000Z</time>
      </trkpt>
      <trkpt lat="44.5274" lon="0.68678">
        <ele>148.4</ele>
        <time>2017-01-29T08:18:28.000Z</time>
      </trkpt>
      <trkpt lat="44.52737" lon="0.68678">
        <ele>148.4</ele>
        <time>2017-01-29T08:18:29.000Z</time>
      </trkpt>
      <trkpt lat="44.52734" lon="0.68677">
        <ele>148.4</ele>
        <time>2017-01-29T08:18:30.000Z</time>
      </trkpt>
      <trkpt lat="44.52731" lon="0.68677">
        <ele>148.4</ele>
        <time>2017-01-29T08:18:31.000Z</time>
      </trkpt>
      <trkpt lat="44.52728" lon="0.68676">
        <ele>148.5</ele>
        <time>2017-01-29T08:18:32.000Z</time>
      </trkpt>
      <trkpt lat="44.52725" lon="0.68676">
        <ele>148.5</ele>
        <time>2017-01-29T08:18:33.000Z</time>
      </trkpt>
      <trkpt lat="44.52722" lon="0.68676">
        <ele>148.5</ele>
        <time>2017-01-29T08:18:34.000Z</time>
      </trkpt>
      <trkpt lat="44.52719" lon="0.68675">
        <ele>148.5</ele>
        <time>2017-01-29T08:18:35.000Z</time>
      </trkpt>
      <trkpt lat="44.52716" lon="0.68675">
        <ele>148.6</ele>
        <time>2017-01-29T08:18:36.000Z</time>
      </trkpt>
      <trkpt lat="44.52713" lon="0.68674">
        <ele>148.6</ele>
        <time>2017-01-29T08:18:37.000Z</time>
      </trkpt>
      <trkpt lat="44.52711" lon="0.68674">
        <ele>148.6</ele>
        <time>2017-01-29T08:18:38.000Z</time>
      </trkpt>
      <trkpt lat="44.52708" lon="0.68673">
        <ele>148.6</ele>
        <time>2017-01-29T08:18:39.000Z</time>
      </trkpt>
      <trkpt lat="44.52705" lon="0.68673">
        <ele>148.7</ele>
        <time>2017-01-29T08:18:40.000Z</time>
      </trkpt>
      <trkpt lat="44.52702" lon="0.68673">
        <ele>148.7</ele>
        <time>2017-01-29T08:18:41.000Z</time>
      </trkpt>
      <trkpt lat="44.52699" lon="0.68672">
        <ele>148.7</ele>
        <time>2017-01-29T08:18:42.000Z</time>
      </trkpt>
      <trkpt lat="44.52697" lon="0.68672">
        <ele>148.7</ele>
        <time>2017-01-29T08:18:43.000Z</time>
      </trkpt>
      <trkpt lat="44.52694" lon="0.68672">
        <ele>148.8</ele>
        <time>2017-01-29T08:18:44.000Z</time>
      </trkpt>
      <trkpt lat="44.52691" lon="0.68671">
        <ele>148.8</ele>
        <time>2017-01-29T08:18:45.000Z</time>
      </trkpt>
      <trkpt lat="44.52689" lon="0.68671">
        <ele>148.8</ele>
        <time>2017-01-29T08:18:46.000Z</time>
      </trkpt>
      <trkpt lat="44.52686" lon="0.6867">
        <ele>148.8</ele>
        <time>2017-01-29T08:18:47.000Z</time>
      </trkpt>
      <trkpt lat="44.52683" lon="0.6867">
        <ele>148.8</ele>
        <time>2017-01-29T08:18:48.000Z</time>
      </trkpt>
      <trkpt lat="44.52681" lon="0.6867">
        <ele>148.9</ele>
        <time>2017-01-29T08:18:49.000Z</time>
      </trkpt>
      <trkpt lat="44.52678" lon="0.68669">
        <ele>148.9</ele>
        <time>2017-01-29T08:18:50.000Z</time>
      </trkpt>
      <trkpt lat="44.52675" lon="0.68669">
        <ele>148.9</ele>
        <time>2017-01-29T08:18:51.000Z</time>
      </trkpt>
      <trkpt lat="44.52673" lon="0.68668">
        <ele>149</ele>
        <time>2017-01-29T08:18:52.000Z</time>
      </trkpt>
      <trkpt lat="44.5267" lon="0.68668">
        <ele>149</ele>
        <time>2017-01-29T08:18:53.000Z</time>
      </trkpt>
      <trkpt lat="44.52667" lon="0.68668">
        <ele>149</ele>
        <time>2017-01-29T08:18:54.000Z</time>
      </trkpt>
      <trkpt lat="44.52665" lon="0.68667">
        <ele>148.9</ele>
        <time>2017-01-29T08:18:55.000Z</time>
      </trkpt>
      <trkpt lat="44.52662" lon="0.68667">
        <ele>148.8</ele>
        <time>2017-01-29T08:18:56.000Z</time>
      </trkpt>
      <trkpt lat="44.52659" lon="0.68666">
        <ele>148.6</ele>
        <time>2017-01-29T08:18:57.000Z</time>
      </trkpt>
      <trkpt lat="44.52657" lon="0.68665">
        <ele>148.4</ele>
        <time>2017-01-29T08:18:58.000Z</time>
      </trkpt>
      <trkpt lat="44.52654" lon="0.68665">
        <ele>148.2</ele>
        <time>2017-01-29T08:18:59.000Z</time>
      </trkpt>
      <trkpt lat="44.52651" lon="0.68664">
        <ele>148.1</ele>
        <time>2017-01-29T08:19:00.000Z</time>
      </trkpt>
      <trkpt lat="44.52648" lon="0.68663">
        <ele>147.9</ele>
        <time>2017-01-29T08:19:01.000Z</time>
      </trkpt>
      <trkpt lat="44.52645" lon="0.68663">
        <ele>147.7</ele>
        <time>2017-01-29T08:19:02.000Z</time>
      </trkpt>
      <trkpt lat="44.52643" lon="0.68663">
        <ele>147.6</ele>
        <time>2017-01-29T08:19:03.000Z</time>
      </trkpt>
      <trkpt lat="44.5264" lon="0.68663">
        <ele>147.5</ele>
        <time>2017-01-29T08:19:04.000Z</time>
      </trkpt>
      <trkpt lat="44.52637" lon="0.68664">
        <ele>147.4</ele>
        <time>2017-01-29T08:19:05.000Z</time>
      </trkpt>
      <trkpt lat="44.52634" lon="0.68665">
        <ele>147.3</ele>
        <time>2017-01-29T08:19:06.000Z</time>
      </trkpt>
      <trkpt lat="44.52631" lon="0.68665">
        <ele>147.2</ele>
        <time>2017-01-29T08:19:07.000Z</time>
      </trkpt>
      <trkpt lat="44.52627" lon="0.68666">
        <ele>147.1</ele>
        <time>2017-01-29T08:19:08.000Z</time>
      </trkpt>
      <trkpt lat="44.52624" lon="0.68667">
        <ele>146.9</ele>
        <time>2017-01-29T08:19:09.000Z</time>
      </trkpt>
      <trkpt lat="44.52621" lon="0.68667">
        <ele>146.8</ele>
        <time>2017-01-29T08:19:10.000Z</time>
      </trkpt>
      <trkpt lat="44.52617" lon="0.68668">
        <ele>146.7</ele>
        <time>2017-01-29T08:19:11.000Z</time>
      </trkpt>
      <trkpt lat="44.52614" lon="0.68669">
        <ele>146.5</ele>
        <time>2017-01-29T08:19:12.000Z</time>
      </trkpt>
      <trkpt lat="44.5261" lon="0.6867">
        <ele>146.4</ele>
        <time>2017-01-29T08:19:13.000Z</time>
      </trkpt>
      <trkpt lat="44.52607" lon="0.68671">
        <ele>146.2</ele>
        <time>2017-01-29T08:19:14.000Z</time>
      </trkpt>
      <trkpt lat="44.52603" lon="0.68671">
        <ele>146.1</ele>
        <time>2017-01-29T08:19:15.000Z</time>
      </trkpt>
      <trkpt lat="44.526" lon="0.68672">
        <ele>145.9</ele>
        <time>2017-01-29T08:19:16.000Z</time>
      </trkpt>
      <trkpt lat="44.52596" lon="0.68673">
        <ele>145.8</ele>
        <time>2017-01-29T08:19:17.000Z</time>
      </trkpt>
      <trkpt lat="44.52593" lon="0.68674">
        <ele>145.6</ele>
        <time>2017-01-29T08:19:18.000Z</time>
      </trkpt>
      <trkpt lat="44.52589" lon="0.68675">
        <ele>145.5</ele>
        <time>2017-01-29T08:19:19.000Z</time>
      </trkpt>
      <trkpt lat="44.52585" lon="0.68676">
        <ele>145.3</ele>
        <time>2017-01-29T08:19:20.000Z</time>
      </trkpt>
      <trkpt lat="44.52582" lon="0.68677">
        <ele>145.2</ele>
        <time>2017-01-29T08:19:21.000Z</time>
      </trkpt>
      <trkpt lat="44.52578" lon="0.68678">
        <ele>145.2</ele>
        <time>2017-01-29T08:19:22.000Z</time>
      </trkpt>
      <trkpt lat="44.52574" lon="0.68679">
        <ele>145.2</ele>
        <time>2017-01-29T08:19:23.000Z</time>
      </trkpt>
      <trkpt lat="44.52571" lon="0.6868">
        <ele>145.2</ele>
        <time>2017-01-29T08:19:24.000Z</time>
      </trkpt>
      <trkpt lat="44.52567" lon="0.6868">
        <ele>145.2</ele>
        <time>2017-01-29T08:19:25.000Z</time>
      </trkpt>
      <trkpt lat="44.52564" lon="0.68681">
        <ele>145.2</ele>
        <time>2017-01-29T08:19:26.000Z</time>
      </trkpt>
      <trkpt lat="44.5256" lon="0.68681">
        <ele>145.2</ele>
        <time>2017-01-29T08:19:27.000Z</time>
      </trkpt>
      <trkpt lat="44.52557" lon="0.68682">
        <ele>145.1</ele>
        <time>2017-01-29T08:19:28.000Z</time>
      </trkpt>
      <trkpt lat="44.52553" lon="0.68683">
        <ele>145.1</ele>
        <time>2017-01-29T08:19:29.000Z</time>
      </trkpt>
      <trkpt lat="44.52549" lon="0.68684">
        <ele>145.1</ele>
        <time>2017-01-29T08:19:30.000Z</time>
      </trkpt>
      <trkpt lat="44.52546" lon="0.68684">
        <ele>145</ele>
        <time>2017-01-29T08:19:31.000Z</time>
      </trkpt>
      <trkpt lat="44.52542" lon="0.68685">
        <ele>145</ele>
        <time>2017-01-29T08:19:32.000Z</time>
      </trkpt>
      <trkpt lat="44.52538" lon="0.68687">
        <ele>145</ele>
        <time>2017-01-29T08:19:33.000Z</time>
      </trkpt>
      <trkpt lat="44.52535" lon="0.68688">
        <ele>144.9</ele>
        <time>2017-01-29T08:19:34.000Z</time>
      </trkpt>
      <trkpt lat="44.52532" lon="0.6869">
        <ele>144.9</ele>
        <time>2017-01-29T08:19:35.000Z</time>
      </trkpt>
      <trkpt lat="44.52529" lon="0.68691">
        <ele>144.8</ele>
        <time>2017-01-29T08:19:36.000Z</time>
      </trkpt>
      <trkpt lat="44.52526" lon="0.68693">
        <ele>144.8</ele>
        <time>2017-01-29T08:19:37.000Z</time>
      </trkpt>
      <trkpt lat="44.52523" lon="0.68694">
        <ele>144.7</ele>
        <time>2017-01-29T08:19:38.000Z</time>
      </trkpt>
      <trkpt lat="44.5252" lon="0.68695">
        <ele>144.6</ele>
        <time>2017-01-29T08:19:39.000Z</time>
      </trkpt>
      <trkpt lat="44.52517" lon="0.68696">
        <ele>144.6</ele>
        <time>2017-01-29T08:19:40.000Z</time>
      </trkpt>
      <trkpt lat="44.52514" lon="0.68697">
        <ele>144.5</ele>
        <time>2017-01-29T08:19:41.000Z</time>
      </trkpt>
      <trkpt lat="44.52511" lon="0.68697">
        <ele>144.5</ele>
        <time>2017-01-29T08:19:42.000Z</time>
      </trkpt>
      <trkpt lat="44.52509" lon="0.68697">
        <ele>144.4</ele>
        <time>2017-01-29T08:19:43.000Z</time>
      </trkpt>
      <trkpt lat="44.52506" lon="0.68697">
        <ele>144.4</ele>
        <time>2017-01-29T08:19:44.000Z</time>
      </trkpt>
      <trkpt lat="44.52503" lon="0.68697">
        <ele>144.3</ele>
        <time>2017-01-29T08:19:45.000Z</time>
      </trkpt>
      <trkpt lat="44.525" lon="0.68697">
        <ele>144.3</ele>
        <time>2017-01-29T08:19:46.000Z</time>
      </trkpt>
      <trkpt lat="44.52497" lon="0.68696">
        <ele>144.2</ele>
        <time>2017-01-29T08:19:47.000Z</time>
      </trkpt>
      <trkpt lat="44.52494" lon="0.68696">
        <ele>144.2</ele>
        <time>2017-01-29T08:19:48.000Z</time>
      </trkpt>
      <trkpt lat="44.52491" lon="0.68696">
        <ele>144.1</ele>
        <time>2017-01-29T08:19:49.000Z</time>
      </trkpt>
      <trkpt lat="44.52488" lon="0.68696">
        <ele>144.1</ele>
        <time>2017-01-29T08:19:50.000Z</time>
      </trkpt>
      <trkpt lat="44.52485" lon="0.68696">
        <ele>144</ele>
        <time>2017-01-29T08:19:51.000Z</time>
      </trkpt>
      <trkpt lat="44.52482" lon="0.68697">
        <ele>143.9</ele>
        <time>2017-01-29T08:19:52.000Z</time>
      </trkpt>
      <trkpt lat="44.52478" lon="0.68697">
        <ele>143.8</ele>
        <time>2017-01-29T08:19:53.000Z</time>
      </trkpt>
      <trkpt lat="44.52475" lon="0.68698">
        <ele>143.8</ele>
        <time>2017-01-29T08:19:54.000Z</time>
      </trkpt>
      <trkpt lat="44.52472" lon="0.68699">
        <ele>143.7</ele>
        <time>2017-01-29T08:19:55.000Z</time>
      </trkpt>
      <trkpt lat="44.52469" lon="0.68699">
        <ele>143.6</ele>
        <time>2017-01-29T08:19:56.000Z</time>
      </trkpt>
      <trkpt lat="44.52465" lon="0.687">
        <ele>143.5</ele>
        <time>2017-01-29T08:19:57.000Z</time>
      </trkpt>
      <trkpt lat="44.52462" lon="0.687">
        <ele>143.5</ele>
        <time>2017-01-29T08:19:58.000Z</time>
      </trkpt>
      <trkpt lat="44.52458" lon="0.68701">
        <ele>143.4</ele>
        <time>2017-01-29T08:19:59.000Z</time>
      </trkpt>
      <trkpt lat="44.52455" lon="0.68703">
        <ele>143.3</ele>
        <time>2017-01-29T08:20:00.000Z</time>
      </trkpt>
      <trkpt lat="44.52452" lon="0.68706">
        <ele>143.2</ele>
        <time>2017-01-29T08:20:01.000Z</time>
      </trkpt>
      <trkpt lat="44.52449" lon="0.68709">
        <ele>143.1</ele>
        <time>2017-01-29T08:20:02.000Z</time>
      </trkpt>
      <trkpt lat="44.52447" lon="0.68713">
        <ele>143</ele>
        <time>2017-01-29T08:20:03.000Z</time>
      </trkpt>
      <trkpt lat="44.52446" lon="0.68716">
        <ele>142.9</ele>
        <time>2017-01-29T08:20:04.000Z</time>
      </trkpt>
      <trkpt lat="44.52446" lon="0.6872">
        <ele>142.8</ele>
        <time>2017-01-29T08:20:05.000Z</time>
      </trkpt>
      <trkpt lat="44.52446" lon="0.68723">
        <ele>142.8</ele>
        <time>2017-01-29T08:20:06.000Z</time>
      </trkpt>
      <trkpt lat="44.52446" lon="0.68727">
        <ele>142.7</ele>
        <time>2017-01-29T08:20:07.000Z</time>
      </trkpt>
      <trkpt lat="44.52446" lon="0.68731">
        <ele>142.7</ele>
        <time>2017-01-29T08:20:08.000Z</time>
      </trkpt>
      <trkpt lat="44.52446" lon="0.68734">
        <ele>142.6</ele>
        <time>2017-01-29T08:20:09.000Z</time>
      </trkpt>
      <trkpt lat="44.52446" lon="0.68738">
        <ele>142.5</ele>
        <time>2017-01-29T08:20:10.000Z</time>
      </trkpt>
      <trkpt lat="44.52446" lon="0.68742">
        <ele>142.5</ele>
        <time>2017-01-29T08:20:11.000Z</time>
      </trkpt>
      <trkpt lat="44.52445" lon="0.68746">
        <ele>142.4</ele>
        <time>2017-01-29T08:20:12.000Z</time>
      </trkpt>
      <trkpt lat="44.52445" lon="0.68751">
        <ele>142.3</ele>
        <time>2017-01-29T08:20:13.000Z</time>
      </trkpt>
      <trkpt lat="44.52444" lon="0.68755">
        <ele>142.1</ele>
        <time>2017-01-29T08:20:14.000Z</time>
      </trkpt>
      <trkpt lat="44.52443" lon="0.6876">
        <ele>141.8</ele>
        <time>2017-01-29T08:20:15.000Z</time>
      </trkpt>
      <trkpt lat="44.52443" lon="0.68765">
        <ele>141.6</ele>
        <time>2017-01-29T08:20:16.000Z</time>
      </trkpt>
      <trkpt lat="44.52442" lon="0.6877">
        <ele>141.3</ele>
        <time>2017-01-29T08:20:17.000Z</time>
      </trkpt>
      <trkpt lat="44.52441" lon="0.68776">
        <ele>141</ele>
        <time>2017-01-29T08:20:18.000Z</time>
      </trkpt>
      <trkpt lat="44.52441" lon="0.68782">
        <ele>140.8</ele>
        <time>2017-01-29T08:20:19.000Z</time>
      </trkpt>
      <trkpt lat="44.5244" lon="0.68787">
        <ele>140.5</ele>
        <time>2017-01-29T08:20:20.000Z</time>
      </trkpt>
      <trkpt lat="44.52439" lon="0.68793">
        <ele>140.2</ele>
        <time>2017-01-29T08:20:21.000Z</time>
      </trkpt>
      <trkpt lat="44.52438" lon="0.68799">
        <ele>140</ele>
        <time>2017-01-29T08:20:22.000Z</time>
      </trkpt>
      <trkpt lat="44.52437" lon="0.68805">
        <ele>139.8</ele>
        <time>2017-01-29T08:20:23.000Z</time>
      </trkpt>
      <trkpt lat="44.52437" lon="0.68811">
        <ele>139.5</ele>
        <time>2017-01-29T08:20:24.000Z</time>
      </trkpt>
      <trkpt lat="44.52436" lon="0.68817">
        <ele>139.3</ele>
        <time>2017-01-29T08:20:25.000Z</time>
      </trkpt>
      <trkpt lat="44.52435" lon="0.68822">
        <ele>139.2</ele>
        <time>2017-01-29T08:20:26.000Z</time>
      </trkpt>
      <trkpt lat="44.52434" lon="0.68828">
        <ele>139</ele>
        <time>2017-01-29T08:20:27.000Z</time>
      </trkpt>
      <trkpt lat="44.52433" lon="0.68833">
        <ele>138.8</ele>
        <time>2017-01-29T08:20:28.000Z</time>
      </trkpt>
      <trkpt lat="44.52433" lon="0.68838">
        <ele>138.8</ele>
        <time>2017-01-29T08:20:29.000Z</time>
      </trkpt>
      <trkpt lat="44.52432" lon="0.68843">
        <ele>138.9</ele>
        <time>2017-01-29T08:20:30.000Z</time>
      </trkpt>
      <trkpt lat="44.52432" lon="0.68848">
        <ele>138.9</ele>
        <time>2017-01-29T08:20:31.000Z</time>
      </trkpt>
      <trkpt lat="44.52432" lon="0.68853">
        <ele>138.9</ele>
        <time>2017-01-29T08:20:32.000Z</time>
      </trkpt>
      <trkpt lat="44.52432" lon="0.68858">
        <ele>138.8</ele>
        <time>2017-01-29T08:20:33.000Z</time>
      </trkpt>
      <trkpt lat="44.52433" lon="0.68863">
        <ele>138.8</ele>
        <time>2017-01-29T08:20:34.000Z</time>
      </trkpt>
      <trkpt lat="44.52434" lon="0.68869">
        <ele>138.7</ele>
        <time>2017-01-29T08:20:35.000Z</time>
      </trkpt>
      <trkpt lat="44.52435" lon="0.68873">
        <ele>138.6</ele>
        <time>2017-01-29T08:20:36.000Z</time>
      </trkpt>
      <trkpt lat="44.52437" lon="0.68878">
        <ele>138.4</ele>
        <time>2017-01-29T08:20:37.000Z</time>
      </trkpt>
      <trkpt lat="44.5244" lon="0.68883">
        <ele>138.2</ele>
        <time>2017-01-29T08:20:38.000Z</time>
      </trkpt>
      <trkpt lat="44.52442" lon="0.68887">
        <ele>138</ele>
        <time>2017-01-29T08:20:39.000Z</time>
      </trkpt>
      <trkpt lat="44.52445" lon="0.68891">
        <ele>137.7</ele>
        <time>2017-01-29T08:20:40.000Z</time>
      </trkpt>
      <trkpt lat="44.52448" lon="0.68895">
        <ele>137.5</ele>
        <time>2017-01-29T08:20:41.000Z</time>
      </trkpt>
      <trkpt lat="44.52451" lon="0.68898">
        <ele>137.2</ele>
        <time>2017-01-29T08:20:42.000Z</time>
      </trkpt>
      <trkpt lat="44.52454" lon="0.68902">
        <ele>136.9</ele>
        <time>2017-01-29T08:20:43.000Z</time>
      </trkpt>
      <trkpt lat="44.52457" lon="0.68906">
        <ele>136.6</ele>
        <time>2017-01-29T08:20:44.000Z</time>
      </trkpt>
      <trkpt lat="44.5246" lon="0.68911">
        <ele>136.4</ele>
        <time>2017-01-29T08:20:45.000Z</time>
      </trkpt>
      <trkpt lat="44.52463" lon="0.68915">
        <ele>136.2</ele>
        <time>2017-01-29T08:20:46.000Z</time>
      </trkpt>
      <trkpt lat="44.52465" lon="0.6892">
        <ele>135.9</ele>
        <time>2017-01-29T08:20:47.000Z</time>
      </trkpt>
      <trkpt lat="44.52467" lon="0.68924">
        <ele>135.5</ele>
        <time>2017-01-29T08:20:48.000Z</time>
      </trkpt>
      <trkpt lat="44.52469" lon="0.68929">
        <ele>135.2</ele>
        <time>2017-01-29T08:20:49.000Z</time>
      </trkpt>
      <trkpt lat="44.52471" lon="0.68934">
        <ele>134.9</ele>
        <time>2017-01-29T08:20:50.000Z</time>
      </trkpt>
      <trkpt lat="44.52473" lon="0.68939">
        <ele>134.7</ele>
        <time>2017-01-29T08:20:51.000Z</time>
      </trkpt>
      <trkpt lat="44.52474" lon="0.68944">
        <ele>134.4</ele>
        <time>2017-01-29T08:20:52.000Z</time>
      </trkpt>
      <trkpt lat="44.52476" lon="0.68949">
        <ele>134.1</ele>
        <time>2017-01-29T08:20:53.000Z</time>
      </trkpt>
      <trkpt lat="44.52477" lon="0.68954">
        <ele>133.9</ele>
        <time>2017-01-29T08:20:54.000Z</time>
      </trkpt>
      <trkpt lat="44.52479" lon="0.68958">
        <ele>133.6</ele>
        <time>2017-01-29T08:20:55.000Z</time>
      </trkpt>
      <trkpt lat="44.52481" lon="0.68962">
        <ele>133.4</ele>
        <time>2017-01-29T08:20:56.000Z</time>
      </trkpt>
      <trkpt lat="44.52482" lon="0.68967">
        <ele>133.2</ele>
        <time>2017-01-29T08:20:57.000Z</time>
      </trkpt>
      <trkpt lat="44.52483" lon="0.68971">
        <ele>133</ele>
        <time>2017-01-29T08:20:58.000Z</time>
      </trkpt>
      <trkpt lat="44.52484" lon="0.68976">
        <ele>132.8</ele>
        <time>2017-01-29T08:20:59.000Z</time>
      </trkpt>
      <trkpt lat="44.52484" lon="0.68982">
        <ele>132.6</ele>
        <time>2017-01-29T08:21:00.000Z</time>
      </trkpt>
      <trkpt lat="44.52485" lon="0.68988">
        <ele>132.4</ele>
        <time>2017-01-29T08:21:01.000Z</time>
      </trkpt>
      <trkpt lat="44.52486" lon="0.68994">
        <ele>132.2</ele>
        <time>2017-01-29T08:21:02.000Z</time>
      </trkpt>
      <trkpt lat="44.52488" lon="0.69001">
        <ele>131.8</ele>
        <time>2017-01-29T08:21:03.000Z</time>
      </trkpt>
      <trkpt lat="44.5249" lon="0.69008">
        <ele>131.2</ele>
        <time>2017-01-29T08:21:04.000Z</time>
      </trkpt>
      <trkpt lat="44.52492" lon="0.69016">
        <ele>130.6</ele>
        <time>2017-01-29T08:21:05.000Z</time>
      </trkpt>
      <trkpt lat="44.52494" lon="0.69025">
        <ele>130</ele>
        <time>2017-01-29T08:21:06.000Z</time>
      </trkpt>
      <trkpt lat="44.52495" lon="0.69035">
        <ele>129.3</ele>
        <time>2017-01-29T08:21:07.000Z</time>
      </trkpt>
      <trkpt lat="44.52496" lon="0.69045">
        <ele>128.6</ele>
        <time>2017-01-29T08:21:08.000Z</time>
      </trkpt>
      <trkpt lat="44.52498" lon="0.69055">
        <ele>127.9</ele>
        <time>2017-01-29T08:21:09.000Z</time>
      </trkpt>
      <trkpt lat="44.52501" lon="0.69065">
        <ele>127.1</ele>
        <time>2017-01-29T08:21:10.000Z</time>
      </trkpt>
      <trkpt lat="44.52504" lon="0.69074">
        <ele>126.2</ele>
        <time>2017-01-29T08:21:11.000Z</time>
      </trkpt>
      <trkpt lat="44.52509" lon="0.69084">
        <ele>125.4</ele>
        <time>2017-01-29T08:21:12.000Z</time>
      </trkpt>
      <trkpt lat="44.52513" lon="0.69094">
        <ele>124.6</ele>
        <time>2017-01-29T08:21:13.000Z</time>
      </trkpt>
      <trkpt lat="44.52518" lon="0.69104">
        <ele>123.9</ele>
        <time>2017-01-29T08:21:14.000Z</time>
      </trkpt>
      <trkpt lat="44.52523" lon="0.69114">
        <ele>123.2</ele>
        <time>2017-01-29T08:21:15.000Z</time>
      </trkpt>
      <trkpt lat="44.52527" lon="0.69125">
        <ele>122.5</ele>
        <time>2017-01-29T08:21:16.000Z</time>
      </trkpt>
      <trkpt lat="44.52532" lon="0.69136">
        <ele>121.9</ele>
        <time>2017-01-29T08:21:17.000Z</time>
      </trkpt>
      <trkpt lat="44.52537" lon="0.69146">
        <ele>121.3</ele>
        <time>2017-01-29T08:21:18.000Z</time>
      </trkpt>
      <trkpt lat="44.52542" lon="0.69157">
        <ele>120.8</ele>
        <time>2017-01-29T08:21:19.000Z</time>
      </trkpt>
      <trkpt lat="44.52547" lon="0.69168">
        <ele>120.3</ele>
        <time>2017-01-29T08:21:20.000Z</time>
      </trkpt>
      <trkpt lat="44.52552" lon="0.69177">
        <ele>120</ele>
        <time>2017-01-29T08:21:21.000Z</time>
      </trkpt>
      <trkpt lat="44.52558" lon="0.69186">
        <ele>119.6</ele>
        <time>2017-01-29T08:21:22.000Z</time>
      </trkpt>
      <trkpt lat="44.52564" lon="0.69195">
        <ele>119.3</ele>
        <time>2017-01-29T08:21:23.000Z</time>
      </trkpt>
      <trkpt lat="44.52569" lon="0.69203">
        <ele>119</ele>
        <time>2017-01-29T08:21:24.000Z</time>
      </trkpt>
      <trkpt lat="44.52574" lon="0.69211">
        <ele>118.7</ele>
        <time>2017-01-29T08:21:25.000Z</time>
      </trkpt>
      <trkpt lat="44.52579" lon="0.69218">
        <ele>118.5</ele>
        <time>2017-01-29T08:21:26.000Z</time>
      </trkpt>
      <trkpt lat="44.52582" lon="0.69226">
        <ele>118.3</ele>
        <time>2017-01-29T08:21:27.000Z</time>
      </trkpt>
      <trkpt lat="44.52586" lon="0.69233">
        <ele>118.3</ele>
        <time>2017-01-29T08:21:28.000Z</time>
      </trkpt>
      <trkpt lat="44.5259" lon="0.6924">
        <ele>118.3</ele>
        <time>2017-01-29T08:21:29.000Z</time>
      </trkpt>
      <trkpt lat="44.52593" lon="0.69246">
        <ele>118.4</ele>
        <time>2017-01-29T08:21:30.000Z</time>
      </trkpt>
      <trkpt lat="44.52597" lon="0.69252">
        <ele>118.6</ele>
        <time>2017-01-29T08:21:31.000Z</time>
      </trkpt>
      <trkpt lat="44.52601" lon="0.69258">
        <ele>119.1</ele>
        <time>2017-01-29T08:21:32.000Z</time>
      </trkpt>
      <trkpt lat="44.52605" lon="0.69263">
        <ele>119.6</ele>
        <time>2017-01-29T08:21:33.000Z</time>
      </trkpt>
      <trkpt lat="44.52609" lon="0.69269">
        <ele>120.1</ele>
        <time>2017-01-29T08:21:34.000Z</time>
      </trkpt>
      <trkpt lat="44.52612" lon="0.69275">
        <ele>120.7</ele>
        <time>2017-01-29T08:21:35.000Z</time>
      </trkpt>
      <trkpt lat="44.52615" lon="0.69282">
        <ele>121.2</ele>
        <time>2017-01-29T08:21:36.000Z</time>
      </trkpt>
      <trkpt lat="44.52617" lon="0.69288">
        <ele>121.7</ele>
        <time>2017-01-29T08:21:37.000Z</time>
      </trkpt>
      <trkpt lat="44.5262" lon="0.69295">
        <ele>122.2</ele>
        <time>2017-01-29T08:21:38.000Z</time>
      </trkpt>
      <trkpt lat="44.52621" lon="0.69301">
        <ele>122.7</ele>
        <time>2017-01-29T08:21:39.000Z</time>
      </trkpt>
      <trkpt lat="44.52623" lon="0.69306">
        <ele>123.1</ele>
        <time>2017-01-29T08:21:40.000Z</time>
      </trkpt>
      <trkpt lat="44.52625" lon="0.69311">
        <ele>123.5</ele>
        <time>2017-01-29T08:21:41.000Z</time>
      </trkpt>
      <trkpt lat="44.52626" lon="0.69315">
        <ele>123.8</ele>
        <time>2017-01-29T08:21:42.000Z</time>
      </trkpt>
      <trkpt lat="44.52627" lon="0.6932">
        <ele>124.2</ele>
        <time>2017-01-29T08:21:43.000Z</time>
      </trkpt>
      <trkpt lat="44.52628" lon="0.69324">
        <ele>124.6</ele>
        <time>2017-01-29T08:21:44.000Z</time>
      </trkpt>
      <trkpt lat="44.5263" lon="0.69329">
        <ele>124.9</ele>
        <time>2017-01-29T08:21:45.000Z</time>
      </trkpt>
      <trkpt lat="44.52631" lon="0.69333">
        <ele>125.3</ele>
        <time>2017-01-29T08:21:46.000Z</time>
      </trkpt>
      <trkpt lat="44.52632" lon="0.69337">
        <ele>125.6</ele>
        <time>2017-01-29T08:21:47.000Z</time>
      </trkpt>
      <trkpt lat="44.52633" lon="0.69341">
        <ele>126</ele>
        <time>2017-01-29T08:21:48.000Z</time>
      </trkpt>
      <trkpt lat="44.52634" lon="0.69345">
        <ele>126.4</ele>
        <time>2017-01-29T08:21:49.000Z</time>
      </trkpt>
      <trkpt lat="44.52636" lon="0.69349">
        <ele>126.7</ele>
        <time>2017-01-29T08:21:50.000Z</time>
      </trkpt>
      <trkpt lat="44.52637" lon="0.69352">
        <ele>127.1</ele>
        <time>2017-01-29T08:21:51.000Z</time>
      </trkpt>
      <trkpt lat="44.52638" lon="0.69356">
        <ele>127.4</ele>
        <time>2017-01-29T08:21:52.000Z</time>
      </trkpt>
      <trkpt lat="44.52639" lon="0.69359">
        <ele>127.7</ele>
        <time>2017-01-29T08:21:53.000Z</time>
      </trkpt>
      <trkpt lat="44.5264" lon="0.69362">
        <ele>128.1</ele>
        <time>2017-01-29T08:21:54.000Z</time>
      </trkpt>
      <trkpt lat="44.52641" lon="0.69366">
        <ele>128.4</ele>
        <time>2017-01-29T08:21:55.000Z</time>
      </trkpt>
      <trkpt lat="44.52642" lon="0.69369">
        <ele>128.7</ele>
        <time>2017-01-29T08:21:56.000Z</time>
      </trkpt>
      <trkpt lat="44.52643" lon="0.69372">
        <ele>129</ele>
        <time>2017-01-29T08:21:57.000Z</time>
      </trkpt>
      <trkpt lat="44.52644" lon="0.69375">
        <ele>129.3</ele>
        <time>2017-01-29T08:21:58.000Z</time>
      </trkpt>
      <trkpt lat="44.52645" lon="0.69378">
        <ele>129.6</ele>
        <time>2017-01-29T08:21:59.000Z</time>
      </trkpt>
      <trkpt lat="44.52646" lon="0.6938">
        <ele>129.8</ele>
        <time>2017-01-29T08:22:00.000Z</time>
      </trkpt>
      <trkpt lat="44.52646" lon="0.69382">
        <ele>130</ele>
        <time>2017-01-29T08:22:01.000Z</time>
      </trkpt>
      <trkpt lat="44.52647" lon="0.69384">
        <ele>130.2</ele>
        <time>2017-01-29T08:22:02.000Z</time>
      </trkpt>
      <trkpt lat="44.52647" lon="0.69386">
        <ele>130.3</ele>
        <time>2017-01-29T08:22:03.000Z</time>
      </trkpt>
      <trkpt lat="44.52648" lon="0.69387">
        <ele>130.5</ele>
        <time>2017-01-29T08:22:04.000Z</time>
      </trkpt>
      <trkpt lat="44.52648" lon="0.69389">
        <ele>130.6</ele>
        <time>2017-01-29T08:22:05.000Z</time>
      </trkpt>
      <trkpt lat="44.52649" lon="0.69391">
        <ele>130.8</ele>
        <time>2017-01-29T08:22:06.000Z</time>
      </trkpt>
      <trkpt lat="44.52649" lon="0.69392">
        <ele>130.9</ele>
        <time>2017-01-29T08:22:07.000Z</time>
      </trkpt>
      <trkpt lat="44.52649" lon="0.69394">
        <ele>131.1</ele>
        <time>2017-01-29T08:22:08.000Z</time>
      </trkpt>
      <trkpt lat="44.52649" lon="0.69395">
        <ele>131.2</ele>
        <time>2017-01-29T08:22:09.000Z</time>
      </trkpt>
      <trkpt lat="44.52649" lon="0.69397">
        <ele>131.3</ele>
        <time>2017-01-29T08:22:10.000Z</time>
      </trkpt>
      <trkpt lat="44.52649" lon="0.69398">
        <ele>131.4</ele>
        <time>2017-01-29T08:22:11.000Z</time>
      </trkpt>
      <trkpt lat="44.52649" lon="0.69398">
        <ele>131.5</ele>
        <time>2017-01-29T08:22:12.000Z</time>
      </trkpt>
      <trkpt lat="44.52649" lon="0.69399">
        <ele>131.5</ele>
        <time>2017-01-29T08:22:13.000Z</time>
      </trkpt>
      <trkpt lat="44.52649" lon="0.69399">
        <ele>131.5</ele>
        <time>2017-01-29T08:22:14.000Z</time>
      </trkpt>
      <trkpt lat="44.52649" lon="0.69399">
        <ele>131.5</ele>
        <time>2017-01-29T08:22:15.000Z</time>
      </trkpt>
      <trkpt lat="44.52649" lon="0.69399">
        <ele>131.5</ele>
        <time>2017-01-29T08:22:16.000Z</time>
      </trkpt>
      <trkpt lat="44.52649" lon="0.69399">
        <ele>131.5</ele>
        <time>2017-01-29T08:22:17.000Z</time>
      </trkpt>
      <trkpt lat="44.52649" lon="0.69399">
        <ele>131.5</ele>
        <time>2017-01-29T08:22:18.000Z</time>
      </trkpt>
      <trkpt lat="44.52649" lon="0.69399">
        <ele>131.5</ele>
        <time>2017-01-29T08:22:19.000Z</time>
      </trkpt>
      <trkpt lat="44.52649" lon="0.69399">
        <ele>131.5</ele>
        <time>2017-01-29T08:22:20.000Z</time>
      </trkpt>
      <trkpt lat="44.52649" lon="0.69399">
        <ele>131.5</ele>
        <time>2017-01-29T08:22:21.000Z</time>
      </trkpt>
      <trkpt lat="44.52649" lon="0.69399">
        <ele>131.5</ele>
        <time>2017-01-29T08:22:22.000Z</time>
      </trkpt>
      <trkpt lat="44.52649" lon="0.69399">
        <ele>131.5</ele>
        <time>2017-01-29T08:22:23.000Z</time>
      </trkpt>
      <trkpt lat="44.52649" lon="0.69399">
        <ele>131.5</ele>
        <time>2017-01-29T08:22:24.000Z</time>
      </trkpt>
      <trkpt lat="44.52649" lon="0.69399">
        <ele>131.5</ele>
        <time>2017-01-29T08:22:25.000Z</time>
      </trkpt>
      <trkpt lat="44.52649" lon="0.69399">
        <ele>131.5</ele>
        <time>2017-01-29T08:22:26.000Z</time>
      </trkpt>
      <trkpt lat="44.52649" lon="0.69399">
        <ele>131.5</ele>
        <time>2017-01-29T08:22:27.000Z</time>
      </trkpt>
      <trkpt lat="44.52649" lon="0.69399">
        <ele>131.5</ele>
        <time>2017-01-29T08:22:28.000Z</time>
      </trkpt>
      <trkpt lat="44.52649" lon="0.69399">
        <ele>131.5</ele>
        <time>2017-01-29T08:22:29.000Z</time>
      </trkpt>
      <trkpt lat="44.52649" lon="0.69399">
        <ele>131.5</ele>
        <time>2017-01-29T08:22:30.000Z</time>
      </trkpt>
      <trkpt lat="44.52649" lon="0.694">
        <ele>131.6</ele>
        <time>2017-01-29T08:22:31.000Z</time>
      </trkpt>
      <trkpt lat="44.52649" lon="0.694">
        <ele>131.6</ele>
        <time>2017-01-29T08:22:32.000Z</time>
      </trkpt>
      <trkpt lat="44.52649" lon="0.69401">
        <ele>131.7</ele>
        <time>2017-01-29T08:22:33.000Z</time>
      </trkpt>
      <trkpt lat="44.52649" lon="0.69402">
        <ele>131.8</ele>
        <time>2017-01-29T08:22:34.000Z</time>
      </trkpt>
      <trkpt lat="44.52649" lon="0.69403">
        <ele>131.8</ele>
        <time>2017-01-29T08:22:35.000Z</time>
      </trkpt>
      <trkpt lat="44.5265" lon="0.69404">
        <ele>131.9</ele>
        <time>2017-01-29T08:22:36.000Z</time>
      </trkpt>
      <trkpt lat="44.5265" lon="0.69406">
        <ele>132.1</ele>
        <time>2017-01-29T08:22:37.000Z</time>
      </trkpt>
      <trkpt lat="44.5265" lon="0.6941">
        <ele>132.5</ele>
        <time>2017-01-29T08:22:38.000Z</time>
      </trkpt>
      <trkpt lat="44.52651" lon="0.69414">
        <ele>132.9</ele>
        <time>2017-01-29T08:22:39.000Z</time>
      </trkpt>
      <trkpt lat="44.52652" lon="0.69418">
        <ele>133.1</ele>
        <time>2017-01-29T08:22:40.000Z</time>
      </trkpt>
      <trkpt lat="44.52652" lon="0.69421">
        <ele>133.1</ele>
        <time>2017-01-29T08:22:41.000Z</time>
      </trkpt>
      <trkpt lat="44.52653" lon="0.69423">
        <ele>133.1</ele>
        <time>2017-01-29T08:22:42.000Z</time>
      </trkpt>
      <trkpt lat="44.52654" lon="0.69426">
        <ele>133.1</ele>
        <time>2017-01-29T08:22:43.000Z</time>
      </trkpt>
      <trkpt lat="44.52655" lon="0.6943">
        <ele>133.1</ele>
        <time>2017-01-29T08:22:44.000Z</time>
      </trkpt>
      <trkpt lat="44.52656" lon="0.69435">
        <ele>133.2</ele>
        <time>2017-01-29T08:22:45.000Z</time>
      </trkpt>
      <trkpt lat="44.52658" lon="0.69441">
        <ele>133.2</ele>
        <time>2017-01-29T08:22:46.000Z</time>
      </trkpt>
      <trkpt lat="44.5266" lon="0.69448">
        <ele>133.2</ele>
        <time>2017-01-29T08:22:47.000Z</time>
      </trkpt>
      <trkpt lat="44.52661" lon="0.69455">
        <ele>133.3</ele>
        <time>2017-01-29T08:22:48.000Z</time>
      </trkpt>
      <trkpt lat="44.52663" lon="0.69462">
        <ele>133.3</ele>
        <time>2017-01-29T08:22:49.000Z</time>
      </trkpt>
      <trkpt lat="44.52664" lon="0.6947">
        <ele>133.2</ele>
        <time>2017-01-29T08:22:50.000Z</time>
      </trkpt>
      <trkpt lat="44.52666" lon="0.69479">
        <ele>133.2</ele>
        <time>2017-01-29T08:22:51.000Z</time>
      </trkpt>
      <trkpt lat="44.52668" lon="0.6949">
        <ele>133</ele>
        <time>2017-01-29T08:22:52.000Z</time>
      </trkpt>
      <trkpt lat="44.52669" lon="0.69502">
        <ele>132.6</ele>
        <time>2017-01-29T08:22:53.000Z</time>
      </trkpt>
      <trkpt lat="44.52672" lon="0.69514">
        <ele>131.7</ele>
        <time>2017-01-29T08:22:54.000Z</time>
      </trkpt>
      <trkpt lat="44.52674" lon="0.69524">
        <ele>130.9</ele>
        <time>2017-01-29T08:22:55.000Z</time>
      </trkpt>
      <trkpt lat="44.52677" lon="0.69534">
        <ele>130.1</ele>
        <time>2017-01-29T08:22:56.000Z</time>
      </trkpt>
      <trkpt lat="44.52679" lon="0.69543">
        <ele>129.5</ele>
        <time>2017-01-29T08:22:57.000Z</time>
      </trkpt>
      <trkpt lat="44.5268" lon="0.69553">
        <ele>128.8</ele>
        <time>2017-01-29T08:22:58.000Z</time>
      </trkpt>
      <trkpt lat="44.52681" lon="0.69564">
        <ele>128.3</ele>
        <time>2017-01-29T08:22:59.000Z</time>
      </trkpt>
      <trkpt lat="44.52682" lon="0.69575">
        <ele>127.7</ele>
        <time>2017-01-29T08:23:00.000Z</time>
      </trkpt>
      <trkpt lat="44.52683" lon="0.69586">
        <ele>127</ele>
        <time>2017-01-29T08:23:01.000Z</time>
      </trkpt>
      <trkpt lat="44.52684" lon="0.69597">
        <ele>126.1</ele>
        <time>2017-01-29T08:23:02.000Z</time>
      </trkpt>
      <trkpt lat="44.52685" lon="0.69608">
        <ele>125.1</ele>
        <time>2017-01-29T08:23:03.000Z</time>
      </trkpt>
      <trkpt lat="44.52686" lon="0.69619">
        <ele>124.2</ele>
        <time>2017-01-29T08:23:04.000Z</time>
      </trkpt>
      <trkpt lat="44.52687" lon="0.69629">
        <ele>123.3</ele>
        <time>2017-01-29T08:23:05.000Z</time>
      </trkpt>
      <trkpt lat="44.52689" lon="0.69639">
        <ele>122.4</ele>
        <time>2017-01-29T08:23:06.000Z</time>
      </trkpt>
      <trkpt lat="44.5269" lon="0.69649">
        <ele>121.6</ele>
        <time>2017-01-29T08:23:07.000Z</time>
      </trkpt>
      <trkpt lat="44.52692" lon="0.69658">
        <ele>120.7</ele>
        <time>2017-01-29T08:23:08.000Z</time>
      </trkpt>
      <trkpt lat="44.52694" lon="0.69667">
        <ele>120</ele>
        <time>2017-01-29T08:23:09.000Z</time>
      </trkpt>
      <trkpt lat="44.52697" lon="0.69675">
        <ele>119.4</ele>
        <time>2017-01-29T08:23:10.000Z</time>
      </trkpt>
      <trkpt lat="44.52699" lon="0.69684">
        <ele>118.9</ele>
        <time>2017-01-29T08:23:11.000Z</time>
      </trkpt>
      <trkpt lat="44.52701" lon="0.69691">
        <ele>118.4</ele>
        <time>2017-01-29T08:23:12.000Z</time>
      </trkpt>
      <trkpt lat="44.52703" lon="0.69699">
        <ele>117.9</ele>
        <time>2017-01-29T08:23:13.000Z</time>
      </trkpt>
      <trkpt lat="44.52705" lon="0.69707">
        <ele>117.4</ele>
        <time>2017-01-29T08:23:14.000Z</time>
      </trkpt>
      <trkpt lat="44.52706" lon="0.69715">
        <ele>116.9</ele>
        <time>2017-01-29T08:23:15.000Z</time>
      </trkpt>
      <trkpt lat="44.52708" lon="0.69723">
        <ele>116.5</ele>
        <time>2017-01-29T08:23:16.000Z</time>
      </trkpt>
      <trkpt lat="44.5271" lon="0.69731">
        <ele>116</ele>
        <time>2017-01-29T08:23:17.000Z</time>
      </trkpt>
      <trkpt lat="44.52712" lon="0.69739">
        <ele>115.5</ele>
        <time>2017-01-29T08:23:18.000Z</time>
      </trkpt>
      <trkpt lat="44.52714" lon="0.69747">
        <ele>115</ele>
        <time>2017-01-29T08:23:19.000Z</time>
      </trkpt>
      <trkpt lat="44.52716" lon="0.69754">
        <ele>114.7</ele>
        <time>2017-01-29T08:23:20.000Z</time>
      </trkpt>
      <trkpt lat="44.52718" lon="0.6976">
        <ele>114.5</ele>
        <time>2017-01-29T08:23:21.000Z</time>
      </trkpt>
      <trkpt lat="44.52719" lon="0.69766">
        <ele>114.4</ele>
        <time>2017-01-29T08:23:22.000Z</time>
      </trkpt>
      <trkpt lat="44.5272" lon="0.6977">
        <ele>114.2</ele>
        <time>2017-01-29T08:23:23.000Z</time>
      </trkpt>
      <trkpt lat="44.52719" lon="0.69774">
        <ele>114.2</ele>
        <time>2017-01-29T08:23:24.000Z</time>
      </trkpt>
      <trkpt lat="44.52717" lon="0.69777">
        <ele>114.1</ele>
        <time>2017-01-29T08:23:25.000Z</time>
      </trkpt>
      <trkpt lat="44.52715" lon="0.69778">
        <ele>114.2</ele>
        <time>2017-01-29T08:23:26.000Z</time>
      </trkpt>
      <trkpt lat="44.52713" lon="0.69778">
        <ele>114.2</ele>
        <time>2017-01-29T08:23:27.000Z</time>
      </trkpt>
      <trkpt lat="44.52711" lon="0.69778">
        <ele>114.3</ele>
        <time>2017-01-29T08:23:28.000Z</time>
      </trkpt>
      <trkpt lat="44.52708" lon="0.69779">
        <ele>114.3</ele>
        <time>2017-01-29T08:23:29.000Z</time>
      </trkpt>
      <trkpt lat="44.52705" lon="0.6978">
        <ele>114.4</ele>
        <time>2017-01-29T08:23:30.000Z</time>
      </trkpt>
      <trkpt lat="44.52702" lon="0.69781">
        <ele>114.4</ele>
        <time>2017-01-29T08:23:31.000Z</time>
      </trkpt>
      <trkpt lat="44.52698" lon="0.69783">
        <ele>114.5</ele>
        <time>2017-01-29T08:23:32.000Z</time>
      </trkpt>
      <trkpt lat="44.52695" lon="0.69784">
        <ele>114.5</ele>
        <time>2017-01-29T08:23:33.000Z</time>
      </trkpt>
      <trkpt lat="44.52692" lon="0.69786">
        <ele>114.5</ele>
        <time>2017-01-29T08:23:34.000Z</time>
      </trkpt>
      <trkpt lat="44.52689" lon="0.69787">
        <ele>114.6</ele>
        <time>2017-01-29T08:23:35.000Z</time>
      </trkpt>
      <trkpt lat="44.52686" lon="0.69788">
        <ele>114.6</ele>
        <time>2017-01-29T08:23:36.000Z</time>
      </trkpt>
      <trkpt lat="44.52683" lon="0.69789">
        <ele>114.7</ele>
        <time>2017-01-29T08:23:37.000Z</time>
      </trkpt>
      <trkpt lat="44.52681" lon="0.69791">
        <ele>114.7</ele>
        <time>2017-01-29T08:23:38.000Z</time>
      </trkpt>
      <trkpt lat="44.52679" lon="0.69792">
        <ele>114.7</ele>
        <time>2017-01-29T08:23:39.000Z</time>
      </trkpt>
      <trkpt lat="44.52677" lon="0.69794">
        <ele>114.7</ele>
        <time>2017-01-29T08:23:40.000Z</time>
      </trkpt>
      <trkpt lat="44.52675" lon="0.69797">
        <ele>114.7</ele>
        <time>2017-01-29T08:23:41.000Z</time>
      </trkpt>
      <trkpt lat="44.52674" lon="0.698">
        <ele>114.6</ele>
        <time>2017-01-29T08:23:42.000Z</time>
      </trkpt>
      <trkpt lat="44.52674" lon="0.69803">
        <ele>114.5</ele>
        <time>2017-01-29T08:23:43.000Z</time>
      </trkpt>
      <trkpt lat="44.52674" lon="0.69808">
        <ele>114.4</ele>
        <time>2017-01-29T08:23:44.000Z</time>
      </trkpt>
      <trkpt lat="44.52675" lon="0.69813">
        <ele>114.3</ele>
        <time>2017-01-29T08:23:45.000Z</time>
      </trkpt>
      <trkpt lat="44.52676" lon="0.69818">
        <ele>114.1</ele>
        <time>2017-01-29T08:23:46.000Z</time>
      </trkpt>
      <trkpt lat="44.52678" lon="0.69823">
        <ele>114</ele>
        <time>2017-01-29T08:23:47.000Z</time>
      </trkpt>
      <trkpt lat="44.52679" lon="0.69829">
        <ele>113.8</ele>
        <time>2017-01-29T08:23:48.000Z</time>
      </trkpt>
      <trkpt lat="44.5268" lon="0.69835">
        <ele>113.7</ele>
        <time>2017-01-29T08:23:49.000Z</time>
      </trkpt>
      <trkpt lat="44.52681" lon="0.69841">
        <ele>113.7</ele>
        <time>2017-01-29T08:23:50.000Z</time>
      </trkpt>
      <trkpt lat="44.52682" lon="0.69846">
        <ele>113.6</ele>
        <time>2017-01-29T08:23:51.000Z</time>
      </trkpt>
      <trkpt lat="44.52683" lon="0.69852">
        <ele>113.6</ele>
        <time>2017-01-29T08:23:52.000Z</time>
      </trkpt>
      <trkpt lat="44.52685" lon="0.69858">
        <ele>113.6</ele>
        <time>2017-01-29T08:23:53.000Z</time>
      </trkpt>
      <trkpt lat="44.52686" lon="0.69864">
        <ele>113.5</ele>
        <time>2017-01-29T08:23:54.000Z</time>
      </trkpt>
      <trkpt lat="44.52687" lon="0.6987">
        <ele>113.5</ele>
        <time>2017-01-29T08:23:55.000Z</time>
      </trkpt>
      <trkpt lat="44.52689" lon="0.69876">
        <ele>113.5</ele>
        <time>2017-01-29T08:23:56.000Z</time>
      </trkpt>
      <trkpt lat="44.5269" lon="0.69881">
        <ele>113.4</ele>
        <time>2017-01-29T08:23:57.000Z</time>
      </trkpt>
      <trkpt lat="44.52692" lon="0.69887">
        <ele>113.4</ele>
        <time>2017-01-29T08:23:58.000Z</time>
      </trkpt>
      <trkpt lat="44.52693" lon="0.69893">
        <ele>113.4</ele>
        <time>2017-01-29T08:23:59.000Z</time>
      </trkpt>
      <trkpt lat="44.52695" lon="0.69899">
        <ele>113.3</ele>
        <time>2017-01-29T08:24:00.000Z</time>
      </trkpt>
      <trkpt lat="44.52697" lon="0.69905">
        <ele>113.3</ele>
        <time>2017-01-29T08:24:01.000Z</time>
      </trkpt>
      <trkpt lat="44.52699" lon="0.69911">
        <ele>113.2</ele>
        <time>2017-01-29T08:24:02.000Z</time>
      </trkpt>
      <trkpt lat="44.527" lon="0.69917">
        <ele>113.2</ele>
        <time>2017-01-29T08:24:03.000Z</time>
      </trkpt>
      <trkpt lat="44.52702" lon="0.69922">
        <ele>113.3</ele>
        <time>2017-01-29T08:24:04.000Z</time>
      </trkpt>
      <trkpt lat="44.52703" lon="0.69928">
        <ele>113.3</ele>
        <time>2017-01-29T08:24:05.000Z</time>
      </trkpt>
      <trkpt lat="44.52704" lon="0.69934">
        <ele>113.4</ele>
        <time>2017-01-29T08:24:06.000Z</time>
      </trkpt>
      <trkpt lat="44.52705" lon="0.6994">
        <ele>113.5</ele>
        <time>2017-01-29T08:24:07.000Z</time>
      </trkpt>
      <trkpt lat="44.52705" lon="0.69945">
        <ele>113.6</ele>
        <time>2017-01-29T08:24:08.000Z</time>
      </trkpt>
      <trkpt lat="44.52705" lon="0.69951">
        <ele>113.7</ele>
        <time>2017-01-29T08:24:09.000Z</time>
      </trkpt>
      <trkpt lat="44.52705" lon="0.69956">
        <ele>113.8</ele>
        <time>2017-01-29T08:24:10.000Z</time>
      </trkpt>
      <trkpt lat="44.52705" lon="0.69962">
        <ele>113.9</ele>
        <time>2017-01-29T08:24:11.000Z</time>
      </trkpt>
      <trkpt lat="44.52705" lon="0.69967">
        <ele>114</ele>
        <time>2017-01-29T08:24:12.000Z</time>
      </trkpt>
      <trkpt lat="44.52704" lon="0.69972">
        <ele>114.1</ele>
        <time>2017-01-29T08:24:13.000Z</time>
      </trkpt>
      <trkpt lat="44.52704" lon="0.69978">
        <ele>114.2</ele>
        <time>2017-01-29T08:24:14.000Z</time>
      </trkpt>
      <trkpt lat="44.52704" lon="0.69983">
        <ele>114.3</ele>
        <time>2017-01-29T08:24:15.000Z</time>
      </trkpt>
      <trkpt lat="44.52703" lon="0.69988">
        <ele>114.3</ele>
        <time>2017-01-29T08:24:16.000Z</time>
      </trkpt>
      <trkpt lat="44.52703" lon="0.69993">
        <ele>114.4</ele>
        <time>2017-01-29T08:24:17.000Z</time>
      </trkpt>
      <trkpt lat="44.52702" lon="0.69998">
        <ele>114.5</ele>
        <time>2017-01-29T08:24:18.000Z</time>
      </trkpt>
      <trkpt lat="44.52702" lon="0.70002">
        <ele>114.7</ele>
        <time>2017-01-29T08:24:19.000Z</time>
      </trkpt>
      <trkpt lat="44.52701" lon="0.70007">
        <ele>114.9</ele>
        <time>2017-01-29T08:24:20.000Z</time>
      </trkpt>
      <trkpt lat="44.52701" lon="0.70012">
        <ele>115.1</ele>
        <time>2017-01-29T08:24:21.000Z</time>
      </trkpt>
      <trkpt lat="44.527" lon="0.70017">
        <ele>115.4</ele>
        <time>2017-01-29T08:24:22.000Z</time>
      </trkpt>
      <trkpt lat="44.527" lon="0.70022">
        <ele>115.6</ele>
        <time>2017-01-29T08:24:23.000Z</time>
      </trkpt>
      <trkpt lat="44.52699" lon="0.70026">
        <ele>115.8</ele>
        <time>2017-01-29T08:24:24.000Z</time>
      </trkpt>
      <trkpt lat="44.52699" lon="0.70031">
        <ele>116</ele>
        <time>2017-01-29T08:24:25.000Z</time>
      </trkpt>
      <trkpt lat="44.52698" lon="0.70036">
        <ele>116.2</ele>
        <time>2017-01-29T08:24:26.000Z</time>
      </trkpt>
      <trkpt lat="44.52698" lon="0.70041">
        <ele>116.5</ele>
        <time>2017-01-29T08:24:27.000Z</time>
      </trkpt>
      <trkpt lat="44.52697" lon="0.70045">
        <ele>116.7</ele>
        <time>2017-01-29T08:24:28.000Z</time>
      </trkpt>
      <trkpt lat="44.52697" lon="0.7005">
        <ele>116.9</ele>
        <time>2017-01-29T08:24:29.000Z</time>
      </trkpt>
      <trkpt lat="44.52696" lon="0.70055">
        <ele>117.1</ele>
        <time>2017-01-29T08:24:30.000Z</time>
      </trkpt>
      <trkpt lat="44.52696" lon="0.7006">
        <ele>117.3</ele>
        <time>2017-01-29T08:24:31.000Z</time>
      </trkpt>
      <trkpt lat="44.52695" lon="0.70065">
        <ele>117.5</ele>
        <time>2017-01-29T08:24:32.000Z</time>
      </trkpt>
      <trkpt lat="44.52695" lon="0.7007">
        <ele>117.7</ele>
        <time>2017-01-29T08:24:33.000Z</time>
      </trkpt>
      <trkpt lat="44.52694" lon="0.70074">
        <ele>117.9</ele>
        <time>2017-01-29T08:24:34.000Z</time>
      </trkpt>
      <trkpt lat="44.52694" lon="0.70079">
        <ele>118.1</ele>
        <time>2017-01-29T08:24:35.000Z</time>
      </trkpt>
      <trkpt lat="44.52693" lon="0.70083">
        <ele>118.3</ele>
        <time>2017-01-29T08:24:36.000Z</time>
      </trkpt>
      <trkpt lat="44.52693" lon="0.70087">
        <ele>118.6</ele>
        <time>2017-01-29T08:24:37.000Z</time>
      </trkpt>
      <trkpt lat="44.52692" lon="0.70091">
        <ele>118.9</ele>
        <time>2017-01-29T08:24:38.000Z</time>
      </trkpt>
      <trkpt lat="44.52692" lon="0.70095">
        <ele>119.2</ele>
        <time>2017-01-29T08:24:39.000Z</time>
      </trkpt>
      <trkpt lat="44.52691" lon="0.70099">
        <ele>119.5</ele>
        <time>2017-01-29T08:24:40.000Z</time>
      </trkpt>
      <trkpt lat="44.52691" lon="0.70102">
        <ele>119.7</ele>
        <time>2017-01-29T08:24:41.000Z</time>
      </trkpt>
      <trkpt lat="44.52691" lon="0.70106">
        <ele>120</ele>
        <time>2017-01-29T08:24:42.000Z</time>
      </trkpt>
      <trkpt lat="44.5269" lon="0.70109">
        <ele>120.3</ele>
        <time>2017-01-29T08:24:43.000Z</time>
      </trkpt>
      <trkpt lat="44.5269" lon="0.70112">
        <ele>120.5</ele>
        <time>2017-01-29T08:24:44.000Z</time>
      </trkpt>
      <trkpt lat="44.52689" lon="0.70116">
        <ele>120.8</ele>
        <time>2017-01-29T08:24:45.000Z</time>
      </trkpt>
      <trkpt lat="44.52689" lon="0.70119">
        <ele>121.1</ele>
        <time>2017-01-29T08:24:46.000Z</time>
      </trkpt>
      <trkpt lat="44.52689" lon="0.70123">
        <ele>121.3</ele>
        <time>2017-01-29T08:24:47.000Z</time>
      </trkpt>
      <trkpt lat="44.52688" lon="0.70126">
        <ele>121.6</ele>
        <time>2017-01-29T08:24:48.000Z</time>
      </trkpt>
      <trkpt lat="44.52688" lon="0.70129">
        <ele>121.8</ele>
        <time>2017-01-29T08:24:49.000Z</time>
      </trkpt>
      <trkpt lat="44.52688" lon="0.70133">
        <ele>122.1</ele>
        <time>2017-01-29T08:24:50.000Z</time>
      </trkpt>
      <trkpt lat="44.52688" lon="0.70136">
        <ele>122.4</ele>
        <time>2017-01-29T08:24:51.000Z</time>
      </trkpt>
      <trkpt lat="44.52687" lon="0.7014">
        <ele>122.6</ele>
        <time>2017-01-29T08:24:52.000Z</time>
      </trkpt>
      <trkpt lat="44.52687" lon="0.70143">
        <ele>122.9</ele>
        <time>2017-01-29T08:24:53.000Z</time>
      </trkpt>
      <trkpt lat="44.52687" lon="0.70146">
        <ele>123.2</ele>
        <time>2017-01-29T08:24:54.000Z</time>
      </trkpt>
      <trkpt lat="44.52687" lon="0.7015">
        <ele>123.4</ele>
        <time>2017-01-29T08:24:55.000Z</time>
      </trkpt>
      <trkpt lat="44.52687" lon="0.70153">
        <ele>123.6</ele>
        <time>2017-01-29T08:24:56.000Z</time>
      </trkpt>
      <trkpt lat="44.52688" lon="0.70156">
        <ele>123.9</ele>
        <time>2017-01-29T08:24:57.000Z</time>
      </trkpt>
      <trkpt lat="44.52688" lon="0.70158">
        <ele>124.1</ele>
        <time>2017-01-29T08:24:58.000Z</time>
      </trkpt>
      <trkpt lat="44.52688" lon="0.70161">
        <ele>124.3</ele>
        <time>2017-01-29T08:24:59.000Z</time>
      </trkpt>
      <trkpt lat="44.52689" lon="0.70163">
        <ele>124.5</ele>
        <time>2017-01-29T08:25:00.000Z</time>
      </trkpt>
      <trkpt lat="44.5269" lon="0.70166">
        <ele>124.6</ele>
        <time>2017-01-29T08:25:01.000Z</time>
      </trkpt>
      <trkpt lat="44.52691" lon="0.70168">
        <ele>124.8</ele>
        <time>2017-01-29T08:25:02.000Z</time>
      </trkpt>
      <trkpt lat="44.52692" lon="0.7017">
        <ele>124.8</ele>
        <time>2017-01-29T08:25:03.000Z</time>
      </trkpt>
      <trkpt lat="44.52693" lon="0.70172">
        <ele>124.9</ele>
        <time>2017-01-29T08:25:04.000Z</time>
      </trkpt>
      <trkpt lat="44.52694" lon="0.70174">
        <ele>125</ele>
        <time>2017-01-29T08:25:05.000Z</time>
      </trkpt>
      <trkpt lat="44.52696" lon="0.70175">
        <ele>125</ele>
        <time>2017-01-29T08:25:06.000Z</time>
      </trkpt>
      <trkpt lat="44.52697" lon="0.70177">
        <ele>125.1</ele>
        <time>2017-01-29T08:25:07.000Z</time>
      </trkpt>
      <trkpt lat="44.52699" lon="0.70179">
        <ele>125.1</ele>
        <time>2017-01-29T08:25:08.000Z</time>
      </trkpt>
      <trkpt lat="44.527" lon="0.70181">
        <ele>125.2</ele>
        <time>2017-01-29T08:25:09.000Z</time>
      </trkpt>
      <trkpt lat="44.52702" lon="0.70183">
        <ele>125.2</ele>
        <time>2017-01-29T08:25:10.000Z</time>
      </trkpt>
      <trkpt lat="44.52703" lon="0.70185">
        <ele>125.3</ele>
        <time>2017-01-29T08:25:11.000Z</time>
      </trkpt>
      <trkpt lat="44.52704" lon="0.70187">
        <ele>125.3</ele>
        <time>2017-01-29T08:25:12.000Z</time>
      </trkpt>
      <trkpt lat="44.52706" lon="0.70189">
        <ele>125.4</ele>
        <time>2017-01-29T08:25:13.000Z</time>
      </trkpt>
      <trkpt lat="44.52707" lon="0.70191">
        <ele>125.4</ele>
        <time>2017-01-29T08:25:14.000Z</time>
      </trkpt>
      <trkpt lat="44.52708" lon="0.70193">
        <ele>125.5</ele>
        <time>2017-01-29T08:25:15.000Z</time>
      </trkpt>
      <trkpt lat="44.52709" lon="0.70195">
        <ele>125.5</ele>
        <time>2017-01-29T08:25:16.000Z</time>
      </trkpt>
      <trkpt lat="44.5271" lon="0.70198">
        <ele>125.6</ele>
        <time>2017-01-29T08:25:17.000Z</time>
      </trkpt>
      <trkpt lat="44.52711" lon="0.702">
        <ele>125.6</ele>
        <time>2017-01-29T08:25:18.000Z</time>
      </trkpt>
      <trkpt lat="44.52712" lon="0.70202">
        <ele>125.7</ele>
        <time>2017-01-29T08:25:19.000Z</time>
      </trkpt>
      <trkpt lat="44.52713" lon="0.70204">
        <ele>125.7</ele>
        <time>2017-01-29T08:25:20.000Z</time>
      </trkpt>
      <trkpt lat="44.52714" lon="0.70206">
        <ele>125.7</ele>
        <time>2017-01-29T08:25:21.000Z</time>
      </trkpt>
      <trkpt lat="44.52715" lon="0.70208">
        <ele>125.8</ele>
        <time>2017-01-29T08:25:22.000Z</time>
      </trkpt>
      <trkpt lat="44.52716" lon="0.7021">
        <ele>125.8</ele>
        <time>2017-01-29T08:25:23.000Z</time>
      </trkpt>
      <trkpt lat="44.52717" lon="0.70212">
        <ele>125.8</ele>
        <time>2017-01-29T08:25:24.000Z</time>
      </trkpt>
      <trkpt lat="44.52718" lon="0.70214">
        <ele>125.9</ele>
        <time>2017-01-29T08:25:25.000Z</time>
      </trkpt>
      <trkpt lat="44.52718" lon="0.70217">
        <ele>125.9</ele>
        <time>2017-01-29T08:25:26.000Z</time>
      </trkpt>
      <trkpt lat="44.52719" lon="0.7022">
        <ele>126</ele>
        <time>2017-01-29T08:25:27.000Z</time>
      </trkpt>
      <trkpt lat="44.52718" lon="0.70222">
        <ele>126.1</ele>
        <time>2017-01-29T08:25:28.000Z</time>
      </trkpt>
      <trkpt lat="44.52716" lon="0.70225">
        <ele>126.2</ele>
        <time>2017-01-29T08:25:29.000Z</time>
      </trkpt>
      <trkpt lat="44.52715" lon="0.70227">
        <ele>126.4</ele>
        <time>2017-01-29T08:25:30.000Z</time>
      </trkpt>
      <trkpt lat="44.52713" lon="0.70228">
        <ele>126.5</ele>
        <time>2017-01-29T08:25:31.000Z</time>
      </trkpt>
      <trkpt lat="44.52711" lon="0.70229">
        <ele>126.6</ele>
        <time>2017-01-29T08:25:32.000Z</time>
      </trkpt>
      <trkpt lat="44.52709" lon="0.70229">
        <ele>126.7</ele>
        <time>2017-01-29T08:25:33.000Z</time>
      </trkpt>
      <trkpt lat="44.52707" lon="0.7023">
        <ele>126.9</ele>
        <time>2017-01-29T08:25:34.000Z</time>
      </trkpt>
      <trkpt lat="44.52705" lon="0.70231">
        <ele>127</ele>
        <time>2017-01-29T08:25:35.000Z</time>
      </trkpt>
      <trkpt lat="44.52703" lon="0.70232">
        <ele>127.1</ele>
        <time>2017-01-29T08:25:36.000Z</time>
      </trkpt>
      <trkpt lat="44.52701" lon="0.70233">
        <ele>127.3</ele>
        <time>2017-01-29T08:25:37.000Z</time>
      </trkpt>
      <trkpt lat="44.52699" lon="0.70234">
        <ele>127.4</ele>
        <time>2017-01-29T08:25:38.000Z</time>
      </trkpt>
      <trkpt lat="44.52696" lon="0.70235">
        <ele>127.6</ele>
        <time>2017-01-29T08:25:39.000Z</time>
      </trkpt>
      <trkpt lat="44.52694" lon="0.70236">
        <ele>127.7</ele>
        <time>2017-01-29T08:25:40.000Z</time>
      </trkpt>
      <trkpt lat="44.52692" lon="0.70237">
        <ele>127.9</ele>
        <time>2017-01-29T08:25:41.000Z</time>
      </trkpt>
      <trkpt lat="44.52689" lon="0.70238">
        <ele>128.1</ele>
        <time>2017-01-29T08:25:42.000Z</time>
      </trkpt>
      <trkpt lat="44.52687" lon="0.70239">
        <ele>128.2</ele>
        <time>2017-01-29T08:25:43.000Z</time>
      </trkpt>
      <trkpt lat="44.52685" lon="0.70239">
        <ele>128.4</ele>
        <time>2017-01-29T08:25:44.000Z</time>
      </trkpt>
      <trkpt lat="44.52682" lon="0.7024">
        <ele>128.5</ele>
        <time>2017-01-29T08:25:45.000Z</time>
      </trkpt>
      <trkpt lat="44.5268" lon="0.70241">
        <ele>128.7</ele>
        <time>2017-01-29T08:25:46.000Z</time>
      </trkpt>
      <trkpt lat="44.52678" lon="0.70241">
        <ele>128.8</ele>
        <time>2017-01-29T08:25:47.000Z</time>
      </trkpt>
      <trkpt lat="44.52676" lon="0.70242">
        <ele>129</ele>
        <time>2017-01-29T08:25:48.000Z</time>
      </trkpt>
      <trkpt lat="44.52674" lon="0.70242">
        <ele>129.1</ele>
        <time>2017-01-29T08:25:49.000Z</time>
      </trkpt>
      <trkpt lat="44.52673" lon="0.70243">
        <ele>129.2</ele>
        <time>2017-01-29T08:25:50.000Z</time>
      </trkpt>
      <trkpt lat="44.52671" lon="0.70243">
        <ele>129.4</ele>
        <time>2017-01-29T08:25:51.000Z</time>
      </trkpt>
      <trkpt lat="44.52669" lon="0.70244">
        <ele>129.5</ele>
        <time>2017-01-29T08:25:52.000Z</time>
      </trkpt>
      <trkpt lat="44.52667" lon="0.70244">
        <ele>129.6</ele>
        <time>2017-01-29T08:25:53.000Z</time>
      </trkpt>
      <trkpt lat="44.52666" lon="0.70245">
        <ele>129.7</ele>
        <time>2017-01-29T08:25:54.000Z</time>
      </trkpt>
      <trkpt lat="44.52664" lon="0.70245">
        <ele>129.8</ele>
        <time>2017-01-29T08:25:55.000Z</time>
      </trkpt>
      <trkpt lat="44.52662" lon="0.70246">
        <ele>129.8</ele>
        <time>2017-01-29T08:25:56.000Z</time>
      </trkpt>
      <trkpt lat="44.5266" lon="0.70246">
        <ele>129.9</ele>
        <time>2017-01-29T08:25:57.000Z</time>
      </trkpt>
      <trkpt lat="44.52659" lon="0.70247">
        <ele>130</ele>
        <time>2017-01-29T08:25:58.000Z</time>
      </trkpt>
      <trkpt lat="44.52657" lon="0.70247">
        <ele>130.1</ele>
        <time>2017-01-29T08:25:59.000Z</time>
      </trkpt>
      <trkpt lat="44.52655" lon="0.70248">
        <ele>130.2</ele>
        <time>2017-01-29T08:26:00.000Z</time>
      </trkpt>
      <trkpt lat="44.52653" lon="0.70248">
        <ele>130.2</ele>
        <time>2017-01-29T08:26:01.000Z</time>
      </trkpt>
      <trkpt lat="44.52651" lon="0.70249">
        <ele>130.3</ele>
        <time>2017-01-29T08:26:02.000Z</time>
      </trkpt>
      <trkpt lat="44.52649" lon="0.7025">
        <ele>130.4</ele>
        <time>2017-01-29T08:26:03.000Z</time>
      </trkpt>
      <trkpt lat="44.52647" lon="0.7025">
        <ele>130.5</ele>
        <time>2017-01-29T08:26:04.000Z</time>
      </trkpt>
      <trkpt lat="44.52646" lon="0.70251">
        <ele>130.5</ele>
        <time>2017-01-29T08:26:05.000Z</time>
      </trkpt>
      <trkpt lat="44.52644" lon="0.70251">
        <ele>130.6</ele>
        <time>2017-01-29T08:26:06.000Z</time>
      </trkpt>
      <trkpt lat="44.52642" lon="0.70252">
        <ele>130.6</ele>
        <time>2017-01-29T08:26:07.000Z</time>
      </trkpt>
      <trkpt lat="44.5264" lon="0.70252">
        <ele>130.7</ele>
        <time>2017-01-29T08:26:08.000Z</time>
      </trkpt>
      <trkpt lat="44.52638" lon="0.70253">
        <ele>130.7</ele>
        <time>2017-01-29T08:26:09.000Z</time>
      </trkpt>
      <trkpt lat="44.52636" lon="0.70253">
        <ele>130.7</ele>
        <time>2017-01-29T08:26:10.000Z</time>
      </trkpt>
      <trkpt lat="44.52634" lon="0.70253">
        <ele>130.8</ele>
        <time>2017-01-29T08:26:11.000Z</time>
      </trkpt>
      <trkpt lat="44.52632" lon="0.70254">
        <ele>130.8</ele>
        <time>2017-01-29T08:26:12.000Z</time>
      </trkpt>
      <trkpt lat="44.5263" lon="0.70254">
        <ele>130.9</ele>
        <time>2017-01-29T08:26:13.000Z</time>
      </trkpt>
      <trkpt lat="44.52628" lon="0.70254">
        <ele>130.9</ele>
        <time>2017-01-29T08:26:14.000Z</time>
      </trkpt>
      <trkpt lat="44.52626" lon="0.70254">
        <ele>130.9</ele>
        <time>2017-01-29T08:26:15.000Z</time>
      </trkpt>
      <trkpt lat="44.52625" lon="0.70254">
        <ele>131</ele>
        <time>2017-01-29T08:26:16.000Z</time>
      </trkpt>
      <trkpt lat="44.52623" lon="0.70254">
        <ele>131</ele>
        <time>2017-01-29T08:26:17.000Z</time>
      </trkpt>
      <trkpt lat="44.52621" lon="0.70254">
        <ele>131.1</ele>
        <time>2017-01-29T08:26:18.000Z</time>
      </trkpt>
      <trkpt lat="44.52619" lon="0.70254">
        <ele>131.1</ele>
        <time>2017-01-29T08:26:19.000Z</time>
      </trkpt>
      <trkpt lat="44.52618" lon="0.70253">
        <ele>131.1</ele>
        <time>2017-01-29T08:26:20.000Z</time>
      </trkpt>
      <trkpt lat="44.52616" lon="0.70253">
        <ele>131.2</ele>
        <time>2017-01-29T08:26:21.000Z</time>
      </trkpt>
      <trkpt lat="44.52614" lon="0.70253">
        <ele>131.2</ele>
        <time>2017-01-29T08:26:22.000Z</time>
      </trkpt>
      <trkpt lat="44.52612" lon="0.70253">
        <ele>131.3</ele>
        <time>2017-01-29T08:26:23.000Z</time>
      </trkpt>
      <trkpt lat="44.5261" lon="0.70253">
        <ele>131.3</ele>
        <time>2017-01-29T08:26:24.000Z</time>
      </trkpt>
      <trkpt lat="44.52608" lon="0.70253">
        <ele>131.4</ele>
        <time>2017-01-29T08:26:25.000Z</time>
      </trkpt>
      <trkpt lat="44.52607" lon="0.70253">
        <ele>131.4</ele>
        <time>2017-01-29T08:26:26.000Z</time>
      </trkpt>
      <trkpt lat="44.52605" lon="0.70253">
        <ele>131.5</ele>
        <time>2017-01-29T08:26:27.000Z</time>
      </trkpt>
      <trkpt lat="44.52603" lon="0.70252">
        <ele>131.5</ele>
        <time>2017-01-29T08:26:28.000Z</time>
      </trkpt>
      <trkpt lat="44.52601" lon="0.70252">
        <ele>131.5</ele>
        <time>2017-01-29T08:26:29.000Z</time>
      </trkpt>
      <trkpt lat="44.52599" lon="0.70252">
        <ele>131.6</ele>
        <time>2017-01-29T08:26:30.000Z</time>
      </trkpt>
      <trkpt lat="44.52597" lon="0.70252">
        <ele>131.6</ele>
        <time>2017-01-29T08:26:31.000Z</time>
      </trkpt>
      <trkpt lat="44.52596" lon="0.70252">
        <ele>131.7</ele>
        <time>2017-01-29T08:26:32.000Z</time>
      </trkpt>
      <trkpt lat="44.52594" lon="0.70252">
        <ele>131.7</ele>
        <time>2017-01-29T08:26:33.000Z</time>
      </trkpt>
      <trkpt lat="44.52592" lon="0.70252">
        <ele>131.8</ele>
        <time>2017-01-29T08:26:34.000Z</time>
      </trkpt>
      <trkpt lat="44.5259" lon="0.70252">
        <ele>131.8</ele>
        <time>2017-01-29T08:26:35.000Z</time>
      </trkpt>
      <trkpt lat="44.52588" lon="0.70252">
        <ele>131.8</ele>
        <time>2017-01-29T08:26:36.000Z</time>
      </trkpt>
      <trkpt lat="44.52586" lon="0.70252">
        <ele>131.9</ele>
        <time>2017-01-29T08:26:37.000Z</time>
      </trkpt>
      <trkpt lat="44.52584" lon="0.70252">
        <ele>131.9</ele>
        <time>2017-01-29T08:26:38.000Z</time>
      </trkpt>
      <trkpt lat="44.52582" lon="0.70252">
        <ele>132.1</ele>
        <time>2017-01-29T08:26:39.000Z</time>
      </trkpt>
      <trkpt lat="44.5258" lon="0.70252">
        <ele>132.4</ele>
        <time>2017-01-29T08:26:40.000Z</time>
      </trkpt>
      <trkpt lat="44.52578" lon="0.70252">
        <ele>132.7</ele>
        <time>2017-01-29T08:26:41.000Z</time>
      </trkpt>
      <trkpt lat="44.52576" lon="0.70251">
        <ele>133</ele>
        <time>2017-01-29T08:26:42.000Z</time>
      </trkpt>
      <trkpt lat="44.52574" lon="0.70251">
        <ele>133.3</ele>
        <time>2017-01-29T08:26:43.000Z</time>
      </trkpt>
      <trkpt lat="44.52572" lon="0.70251">
        <ele>133.6</ele>
        <time>2017-01-29T08:26:44.000Z</time>
      </trkpt>
      <trkpt lat="44.5257" lon="0.70251">
        <ele>133.9</ele>
        <time>2017-01-29T08:26:45.000Z</time>
      </trkpt>
      <trkpt lat="44.52568" lon="0.70251">
        <ele>134.2</ele>
        <time>2017-01-29T08:26:46.000Z</time>
      </trkpt>
      <trkpt lat="44.52566" lon="0.70251">
        <ele>134.5</ele>
        <time>2017-01-29T08:26:47.000Z</time>
      </trkpt>
      <trkpt lat="44.52564" lon="0.70251">
        <ele>134.8</ele>
        <time>2017-01-29T08:26:48.000Z</time>
      </trkpt>
      <trkpt lat="44.52562" lon="0.70251">
        <ele>135.1</ele>
        <time>2017-01-29T08:26:49.000Z</time>
      </trkpt>
      <trkpt lat="44.52559" lon="0.70251">
        <ele>135.4</ele>
        <time>2017-01-29T08:26:50.000Z</time>
      </trkpt>
      <trkpt lat="44.52557" lon="0.70251">
        <ele>135.8</ele>
        <time>2017-01-29T08:26:51.000Z</time>
      </trkpt>
      <trkpt lat="44.52555" lon="0.7025">
        <ele>136.1</ele>
        <time>2017-01-29T08:26:52.000Z</time>
      </trkpt>
      <trkpt lat="44.52553" lon="0.7025">
        <ele>136.4</ele>
        <time>2017-01-29T08:26:53.000Z</time>
      </trkpt>
      <trkpt lat="44.52551" lon="0.7025">
        <ele>136.7</ele>
        <time>2017-01-29T08:26:54.000Z</time>
      </trkpt>
      <trkpt lat="44.52549" lon="0.7025">
        <ele>137</ele>
        <time>2017-01-29T08:26:55.000Z</time>
      </trkpt>
      <trkpt lat="44.52546" lon="0.70249">
        <ele>137.3</ele>
        <time>2017-01-29T08:26:56.000Z</time>
      </trkpt>
      <trkpt lat="44.52544" lon="0.70249">
        <ele>137.6</ele>
        <time>2017-01-29T08:26:57.000Z</time>
      </trkpt>
      <trkpt lat="44.52542" lon="0.70249">
        <ele>137.9</ele>
        <time>2017-01-29T08:26:58.000Z</time>
      </trkpt>
      <trkpt lat="44.5254" lon="0.70248">
        <ele>138.1</ele>
        <time>2017-01-29T08:26:59.000Z</time>
      </trkpt>
      <trkpt lat="44.52538" lon="0.70248">
        <ele>138.4</ele>
        <time>2017-01-29T08:27:00.000Z</time>
      </trkpt>
      <trkpt lat="44.52536" lon="0.70248">
        <ele>138.7</ele>
        <time>2017-01-29T08:27:01.000Z</time>
      </trkpt>
      <trkpt lat="44.52534" lon="0.70247">
        <ele>139</ele>
        <time>2017-01-29T08:27:02.000Z</time>
      </trkpt>
      <trkpt lat="44.52532" lon="0.70247">
        <ele>139.3</ele>
        <time>2017-01-29T08:27:03.000Z</time>
      </trkpt>
      <trkpt lat="44.5253" lon="0.70246">
        <ele>139.5</ele>
        <time>2017-01-29T08:27:04.000Z</time>
      </trkpt>
      <trkpt lat="44.52528" lon="0.70246">
        <ele>139.8</ele>
        <time>2017-01-29T08:27:05.000Z</time>
      </trkpt>
      <trkpt lat="44.52526" lon="0.70246">
        <ele>140.1</ele>
        <time>2017-01-29T08:27:06.000Z</time>
      </trkpt>
      <trkpt lat="44.52524" lon="0.70246">
        <ele>140.3</ele>
        <time>2017-01-29T08:27:07.000Z</time>
      </trkpt>
      <trkpt lat="44.52522" lon="0.70245">
        <ele>140.6</ele>
        <time>2017-01-29T08:27:08.000Z</time>
      </trkpt>
      <trkpt lat="44.5252" lon="0.70245">
        <ele>140.9</ele>
        <time>2017-01-29T08:27:09.000Z</time>
      </trkpt>
      <trkpt lat="44.52518" lon="0.70245">
        <ele>141.1</ele>
        <time>2017-01-29T08:27:10.000Z</time>
      </trkpt>
      <trkpt lat="44.52516" lon="0.70244">
        <ele>141.4</ele>
        <time>2017-01-29T08:27:11.000Z</time>
      </trkpt>
      <trkpt lat="44.52514" lon="0.70244">
        <ele>141.7</ele>
        <time>2017-01-29T08:27:12.000Z</time>
      </trkpt>
      <trkpt lat="44.52513" lon="0.70244">
        <ele>141.9</ele>
        <time>2017-01-29T08:27:13.000Z</time>
      </trkpt>
      <trkpt lat="44.52511" lon="0.70244">
        <ele>142.2</ele>
        <time>2017-01-29T08:27:14.000Z</time>
      </trkpt>
      <trkpt lat="44.52508" lon="0.70243">
        <ele>142.5</ele>
        <time>2017-01-29T08:27:15.000Z</time>
      </trkpt>
      <trkpt lat="44.52506" lon="0.70243">
        <ele>142.8</ele>
        <time>2017-01-29T08:27:16.000Z</time>
      </trkpt>
      <trkpt lat="44.52504" lon="0.70243">
        <ele>143.1</ele>
        <time>2017-01-29T08:27:17.000Z</time>
      </trkpt>
      <trkpt lat="44.52502" lon="0.70243">
        <ele>143.4</ele>
        <time>2017-01-29T08:27:18.000Z</time>
      </trkpt>
      <trkpt lat="44.525" lon="0.70243">
        <ele>143.6</ele>
        <time>2017-01-29T08:27:19.000Z</time>
      </trkpt>
      <trkpt lat="44.52498" lon="0.70242">
        <ele>143.6</ele>
        <time>2017-01-29T08:27:20.000Z</time>
      </trkpt>
      <trkpt lat="44.52496" lon="0.70242">
        <ele>143.6</ele>
        <time>2017-01-29T08:27:21.000Z</time>
      </trkpt>
      <trkpt lat="44.52493" lon="0.70242">
        <ele>143.5</ele>
        <time>2017-01-29T08:27:22.000Z</time>
      </trkpt>
      <trkpt lat="44.52491" lon="0.70242">
        <ele>143.5</ele>
        <time>2017-01-29T08:27:23.000Z</time>
      </trkpt>
      <trkpt lat="44.52489" lon="0.70242">
        <ele>143.5</ele>
        <time>2017-01-29T08:27:24.000Z</time>
      </trkpt>
      <trkpt lat="44.52487" lon="0.70242">
        <ele>143.4</ele>
        <time>2017-01-29T08:27:25.000Z</time>
      </trkpt>
      <trkpt lat="44.52484" lon="0.70242">
        <ele>143.4</ele>
        <time>2017-01-29T08:27:26.000Z</time>
      </trkpt>
      <trkpt lat="44.52482" lon="0.70242">
        <ele>143.4</ele>
        <time>2017-01-29T08:27:27.000Z</time>
      </trkpt>
      <trkpt lat="44.5248" lon="0.70242">
        <ele>143.3</ele>
        <time>2017-01-29T08:27:28.000Z</time>
      </trkpt>
      <trkpt lat="44.52478" lon="0.70242">
        <ele>143.3</ele>
        <time>2017-01-29T08:27:29.000Z</time>
      </trkpt>
      <trkpt lat="44.52475" lon="0.70242">
        <ele>143.3</ele>
        <time>2017-01-29T08:27:30.000Z</time>
      </trkpt>
      <trkpt lat="44.52473" lon="0.70242">
        <ele>143.3</ele>
        <time>2017-01-29T08:27:31.000Z</time>
      </trkpt>
      <trkpt lat="44.52471" lon="0.70242">
        <ele>143.2</ele>
        <time>2017-01-29T08:27:32.000Z</time>
      </trkpt>
      <trkpt lat="44.52469" lon="0.70242">
        <ele>143.2</ele>
        <time>2017-01-29T08:27:33.000Z</time>
      </trkpt>
      <trkpt lat="44.52467" lon="0.70242">
        <ele>143.2</ele>
        <time>2017-01-29T08:27:34.000Z</time>
      </trkpt>
      <trkpt lat="44.52464" lon="0.70242">
        <ele>143.2</ele>
        <time>2017-01-29T08:27:35.000Z</time>
      </trkpt>
      <trkpt lat="44.52462" lon="0.70242">
        <ele>143.2</ele>
        <time>2017-01-29T08:27:36.000Z</time>
      </trkpt>
      <trkpt lat="44.5246" lon="0.70242">
        <ele>143.1</ele>
        <time>2017-01-29T08:27:37.000Z</time>
      </trkpt>
      <trkpt lat="44.52458" lon="0.70242">
        <ele>143.1</ele>
        <time>2017-01-29T08:27:38.000Z</time>
      </trkpt>
      <trkpt lat="44.52456" lon="0.70242">
        <ele>143.1</ele>
        <time>2017-01-29T08:27:39.000Z</time>
      </trkpt>
      <trkpt lat="44.52454" lon="0.70242">
        <ele>143</ele>
        <time>2017-01-29T08:27:40.000Z</time>
      </trkpt>
      <trkpt lat="44.52452" lon="0.70241">
        <ele>143</ele>
        <time>2017-01-29T08:27:41.000Z</time>
      </trkpt>
      <trkpt lat="44.5245" lon="0.70241">
        <ele>143</ele>
        <time>2017-01-29T08:27:42.000Z</time>
      </trkpt>
      <trkpt lat="44.52448" lon="0.70241">
        <ele>142.9</ele>
        <time>2017-01-29T08:27:43.000Z</time>
      </trkpt>
      <trkpt lat="44.52446" lon="0.70241">
        <ele>142.9</ele>
        <time>2017-01-29T08:27:44.000Z</time>
      </trkpt>
      <trkpt lat="44.52444" lon="0.70241">
        <ele>142.9</ele>
        <time>2017-01-29T08:27:45.000Z</time>
      </trkpt>
      <trkpt lat="44.52443" lon="0.70241">
        <ele>142.9</ele>
        <time>2017-01-29T08:27:46.000Z</time>
      </trkpt>
      <trkpt lat="44.52441" lon="0.70242">
        <ele>142.9</ele>
        <time>2017-01-29T08:27:47.000Z</time>
      </trkpt>
      <trkpt lat="44.5244" lon="0.70242">
        <ele>142.9</ele>
        <time>2017-01-29T08:27:48.000Z</time>
      </trkpt>
      <trkpt lat="44.52438" lon="0.70243">
        <ele>142.9</ele>
        <time>2017-01-29T08:27:49.000Z</time>
      </trkpt>
      <trkpt lat="44.52437" lon="0.70244">
        <ele>142.9</ele>
        <time>2017-01-29T08:27:50.000Z</time>
      </trkpt>
      <trkpt lat="44.52435" lon="0.70244">
        <ele>143</ele>
        <time>2017-01-29T08:27:51.000Z</time>
      </trkpt>
      <trkpt lat="44.52433" lon="0.70245">
        <ele>143</ele>
        <time>2017-01-29T08:27:52.000Z</time>
      </trkpt>
      <trkpt lat="44.52432" lon="0.70246">
        <ele>143</ele>
        <time>2017-01-29T08:27:53.000Z</time>
      </trkpt>
      <trkpt lat="44.5243" lon="0.70246">
        <ele>143</ele>
        <time>2017-01-29T08:27:54.000Z</time>
      </trkpt>
      <trkpt lat="44.52428" lon="0.70247">
        <ele>143</ele>
        <time>2017-01-29T08:27:55.000Z</time>
      </trkpt>
      <trkpt lat="44.52426" lon="0.70248">
        <ele>143</ele>
        <time>2017-01-29T08:27:56.000Z</time>
      </trkpt>
      <trkpt lat="44.52424" lon="0.70248">
        <ele>143</ele>
        <time>2017-01-29T08:27:57.000Z</time>
      </trkpt>
      <trkpt lat="44.52422" lon="0.70248">
        <ele>143</ele>
        <time>2017-01-29T08:27:58.000Z</time>
      </trkpt>
      <trkpt lat="44.5242" lon="0.70249">
        <ele>143</ele>
        <time>2017-01-29T08:27:59.000Z</time>
      </trkpt>
      <trkpt lat="44.52417" lon="0.70249">
        <ele>142.9</ele>
        <time>2017-01-29T08:28:00.000Z</time>
      </trkpt>
      <trkpt lat="44.52415" lon="0.70249">
        <ele>143</ele>
        <time>2017-01-29T08:28:01.000Z</time>
      </trkpt>
      <trkpt lat="44.52412" lon="0.70249">
        <ele>143.2</ele>
        <time>2017-01-29T08:28:02.000Z</time>
      </trkpt>
      <trkpt lat="44.5241" lon="0.70249">
        <ele>143.3</ele>
        <time>2017-01-29T08:28:03.000Z</time>
      </trkpt>
      <trkpt lat="44.52408" lon="0.70249">
        <ele>143.4</ele>
        <time>2017-01-29T08:28:04.000Z</time>
      </trkpt>
      <trkpt lat="44.52405" lon="0.70249">
        <ele>143.5</ele>
        <time>2017-01-29T08:28:05.000Z</time>
      </trkpt>
      <trkpt lat="44.52403" lon="0.70249">
        <ele>143.6</ele>
        <time>2017-01-29T08:28:06.000Z</time>
      </trkpt>
      <trkpt lat="44.52401" lon="0.7025">
        <ele>143.7</ele>
        <time>2017-01-29T08:28:07.000Z</time>
      </trkpt>
      <trkpt lat="44.52399" lon="0.7025">
        <ele>143.9</ele>
        <time>2017-01-29T08:28:08.000Z</time>
      </trkpt>
      <trkpt lat="44.52396" lon="0.7025">
        <ele>144</ele>
        <time>2017-01-29T08:28:09.000Z</time>
      </trkpt>
      <trkpt lat="44.52394" lon="0.7025">
        <ele>144.1</ele>
        <time>2017-01-29T08:28:10.000Z</time>
      </trkpt>
      <trkpt lat="44.52391" lon="0.7025">
        <ele>144.2</ele>
        <time>2017-01-29T08:28:11.000Z</time>
      </trkpt>
      <trkpt lat="44.52389" lon="0.7025">
        <ele>144.3</ele>
        <time>2017-01-29T08:28:12.000Z</time>
      </trkpt>
      <trkpt lat="44.52386" lon="0.7025">
        <ele>144.4</ele>
        <time>2017-01-29T08:28:13.000Z</time>
      </trkpt>
      <trkpt lat="44.52384" lon="0.7025">
        <ele>144.6</ele>
        <time>2017-01-29T08:28:14.000Z</time>
      </trkpt>
      <trkpt lat="44.52381" lon="0.7025">
        <ele>144.7</ele>
        <time>2017-01-29T08:28:15.000Z</time>
      </trkpt>
      <trkpt lat="44.52379" lon="0.7025">
        <ele>144.8</ele>
        <time>2017-01-29T08:28:16.000Z</time>
      </trkpt>
      <trkpt lat="44.52377" lon="0.7025">
        <ele>144.9</ele>
        <time>2017-01-29T08:28:17.000Z</time>
      </trkpt>
      <trkpt lat="44.52374" lon="0.7025">
        <ele>145</ele>
        <time>2017-01-29T08:28:18.000Z</time>
      </trkpt>
      <trkpt lat="44.52372" lon="0.7025">
        <ele>145.1</ele>
        <time>2017-01-29T08:28:19.000Z</time>
      </trkpt>
      <trkpt lat="44.5237" lon="0.7025">
        <ele>145.3</ele>
        <time>2017-01-29T08:28:20.000Z</time>
      </trkpt>
      <trkpt lat="44.52367" lon="0.7025">
        <ele>145.4</ele>
        <time>2017-01-29T08:28:21.000Z</time>
      </trkpt>
      <trkpt lat="44.52365" lon="0.7025">
        <ele>145.5</ele>
        <time>2017-01-29T08:28:22.000Z</time>
      </trkpt>
      <trkpt lat="44.52363" lon="0.7025">
        <ele>145.6</ele>
        <time>2017-01-29T08:28:23.000Z</time>
      </trkpt>
      <trkpt lat="44.52361" lon="0.7025">
        <ele>145.7</ele>
        <time>2017-01-29T08:28:24.000Z</time>
      </trkpt>
      <trkpt lat="44.52359" lon="0.7025">
        <ele>145.8</ele>
        <time>2017-01-29T08:28:25.000Z</time>
      </trkpt>
      <trkpt lat="44.52357" lon="0.7025">
        <ele>145.9</ele>
        <time>2017-01-29T08:28:26.000Z</time>
      </trkpt>
      <trkpt lat="44.52355" lon="0.7025">
        <ele>146</ele>
        <time>2017-01-29T08:28:27.000Z</time>
      </trkpt>
      <trkpt lat="44.52353" lon="0.7025">
        <ele>146.1</ele>
        <time>2017-01-29T08:28:28.000Z</time>
      </trkpt>
      <trkpt lat="44.52351" lon="0.7025">
        <ele>146.2</ele>
        <time>2017-01-29T08:28:29.000Z</time>
      </trkpt>
      <trkpt lat="44.52349" lon="0.70251">
        <ele>146.3</ele>
        <time>2017-01-29T08:28:30.000Z</time>
      </trkpt>
      <trkpt lat="44.52347" lon="0.70251">
        <ele>146.3</ele>
        <time>2017-01-29T08:28:31.000Z</time>
      </trkpt>
      <trkpt lat="44.52345" lon="0.70251">
        <ele>146.4</ele>
        <time>2017-01-29T08:28:32.000Z</time>
      </trkpt>
      <trkpt lat="44.52343" lon="0.70252">
        <ele>146.5</ele>
        <time>2017-01-29T08:28:33.000Z</time>
      </trkpt>
      <trkpt lat="44.52341" lon="0.70252">
        <ele>146.6</ele>
        <time>2017-01-29T08:28:34.000Z</time>
      </trkpt>
      <trkpt lat="44.52339" lon="0.70253">
        <ele>146.7</ele>
        <time>2017-01-29T08:28:35.000Z</time>
      </trkpt>
      <trkpt lat="44.52337" lon="0.70253">
        <ele>146.7</ele>
        <time>2017-01-29T08:28:36.000Z</time>
      </trkpt>
      <trkpt lat="44.52335" lon="0.70254">
        <ele>146.8</ele>
        <time>2017-01-29T08:28:37.000Z</time>
      </trkpt>
      <trkpt lat="44.52333" lon="0.70254">
        <ele>146.9</ele>
        <time>2017-01-29T08:28:38.000Z</time>
      </trkpt>
      <trkpt lat="44.52332" lon="0.70255">
        <ele>146.9</ele>
        <time>2017-01-29T08:28:39.000Z</time>
      </trkpt>
      <trkpt lat="44.5233" lon="0.70255">
        <ele>146.9</ele>
        <time>2017-01-29T08:28:40.000Z</time>
      </trkpt>
      <trkpt lat="44.52328" lon="0.70256">
        <ele>146.9</ele>
        <time>2017-01-29T08:28:41.000Z</time>
      </trkpt>
      <trkpt lat="44.52326" lon="0.70256">
        <ele>146.8</ele>
        <time>2017-01-29T08:28:42.000Z</time>
      </trkpt>
      <trkpt lat="44.52324" lon="0.70257">
        <ele>146.8</ele>
        <time>2017-01-29T08:28:43.000Z</time>
      </trkpt>
      <trkpt lat="44.52322" lon="0.70257">
        <ele>146.8</ele>
        <time>2017-01-29T08:28:44.000Z</time>
      </trkpt>
      <trkpt lat="44.52321" lon="0.70258">
        <ele>146.8</ele>
        <time>2017-01-29T08:28:45.000Z</time>
      </trkpt>
      <trkpt lat="44.52319" lon="0.70258">
        <ele>146.8</ele>
        <time>2017-01-29T08:28:46.000Z</time>
      </trkpt>
      <trkpt lat="44.52317" lon="0.70258">
        <ele>146.7</ele>
        <time>2017-01-29T08:28:47.000Z</time>
      </trkpt>
      <trkpt lat="44.52315" lon="0.70259">
        <ele>146.7</ele>
        <time>2017-01-29T08:28:48.000Z</time>
      </trkpt>
      <trkpt lat="44.52313" lon="0.70259">
        <ele>146.7</ele>
        <time>2017-01-29T08:28:49.000Z</time>
      </trkpt>
      <trkpt lat="44.52311" lon="0.70259">
        <ele>146.7</ele>
        <time>2017-01-29T08:28:50.000Z</time>
      </trkpt>
      <trkpt lat="44.5231" lon="0.7026">
        <ele>146.7</ele>
        <time>2017-01-29T08:28:51.000Z</time>
      </trkpt>
      <trkpt lat="44.52308" lon="0.7026">
        <ele>146.6</ele>
        <time>2017-01-29T08:28:52.000Z</time>
      </trkpt>
      <trkpt lat="44.52306" lon="0.7026">
        <ele>146.6</ele>
        <time>2017-01-29T08:28:53.000Z</time>
      </trkpt>
      <trkpt lat="44.52304" lon="0.70261">
        <ele>146.6</ele>
        <time>2017-01-29T08:28:54.000Z</time>
      </trkpt>
      <trkpt lat="44.52303" lon="0.70261">
        <ele>146.6</ele>
        <time>2017-01-29T08:28:55.000Z</time>
      </trkpt>
      <trkpt lat="44.52301" lon="0.70262">
        <ele>146.6</ele>
        <time>2017-01-29T08:28:56.000Z</time>
      </trkpt>
      <trkpt lat="44.523" lon="0.70262">
        <ele>146.5</ele>
        <time>2017-01-29T08:28:57.000Z</time>
      </trkpt>
      <trkpt lat="44.52298" lon="0.70263">
        <ele>146.5</ele>
        <time>2017-01-29T08:28:58.000Z</time>
      </trkpt>
      <trkpt lat="44.52296" lon="0.70264">
        <ele>146.4</ele>
        <time>2017-01-29T08:28:59.000Z</time>
      </trkpt>
      <trkpt lat="44.52294" lon="0.70265">
        <ele>146.4</ele>
        <time>2017-01-29T08:29:00.000Z</time>
      </trkpt>
      <trkpt lat="44.52291" lon="0.70267">
        <ele>146.3</ele>
        <time>2017-01-29T08:29:01.000Z</time>
      </trkpt>
      <trkpt lat="44.52287" lon="0.70269">
        <ele>146.1</ele>
        <time>2017-01-29T08:29:02.000Z</time>
      </trkpt>
      <trkpt lat="44.52283" lon="0.70272">
        <ele>146</ele>
        <time>2017-01-29T08:29:03.000Z</time>
      </trkpt>
      <trkpt lat="44.5228" lon="0.70274">
        <ele>145.8</ele>
        <time>2017-01-29T08:29:04.000Z</time>
      </trkpt>
      <trkpt lat="44.52276" lon="0.70277">
        <ele>145.7</ele>
        <time>2017-01-29T08:29:05.000Z</time>
      </trkpt>
      <trkpt lat="44.52273" lon="0.70279">
        <ele>145.5</ele>
        <time>2017-01-29T08:29:06.000Z</time>
      </trkpt>
      <trkpt lat="44.5227" lon="0.70281">
        <ele>145.4</ele>
        <time>2017-01-29T08:29:07.000Z</time>
      </trkpt>
      <trkpt lat="44.52267" lon="0.70283">
        <ele>145.3</ele>
        <time>2017-01-29T08:29:08.000Z</time>
      </trkpt>
      <trkpt lat="44.52264" lon="0.70285">
        <ele>145.1</ele>
        <time>2017-01-29T08:29:09.000Z</time>
      </trkpt>
      <trkpt lat="44.52261" lon="0.70286">
        <ele>145</ele>
        <time>2017-01-29T08:29:10.000Z</time>
      </trkpt>
      <trkpt lat="44.52259" lon="0.70287">
        <ele>144.9</ele>
        <time>2017-01-29T08:29:11.000Z</time>
      </trkpt>
      <trkpt lat="44.52257" lon="0.70288">
        <ele>144.8</ele>
        <time>2017-01-29T08:29:12.000Z</time>
      </trkpt>
      <trkpt lat="44.52254" lon="0.70289">
        <ele>144.7</ele>
        <time>2017-01-29T08:29:13.000Z</time>
      </trkpt>
      <trkpt lat="44.52252" lon="0.7029">
        <ele>144.6</ele>
        <time>2017-01-29T08:29:14.000Z</time>
      </trkpt>
      <trkpt lat="44.5225" lon="0.70291">
        <ele>144.6</ele>
        <time>2017-01-29T08:29:15.000Z</time>
      </trkpt>
      <trkpt lat="44.52248" lon="0.70291">
        <ele>144.7</ele>
        <time>2017-01-29T08:29:16.000Z</time>
      </trkpt>
      <trkpt lat="44.52246" lon="0.70292">
        <ele>144.8</ele>
        <time>2017-01-29T08:29:17.000Z</time>
      </trkpt>
      <trkpt lat="44.52244" lon="0.70293">
        <ele>144.9</ele>
        <time>2017-01-29T08:29:18.000Z</time>
      </trkpt>
      <trkpt lat="44.52242" lon="0.70294">
        <ele>145</ele>
        <time>2017-01-29T08:29:19.000Z</time>
      </trkpt>
      <trkpt lat="44.5224" lon="0.70294">
        <ele>145.1</ele>
        <time>2017-01-29T08:29:20.000Z</time>
      </trkpt>
      <trkpt lat="44.52238" lon="0.70295">
        <ele>145.2</ele>
        <time>2017-01-29T08:29:21.000Z</time>
      </trkpt>
      <trkpt lat="44.52236" lon="0.70296">
        <ele>145.3</ele>
        <time>2017-01-29T08:29:22.000Z</time>
      </trkpt>
      <trkpt lat="44.52234" lon="0.70297">
        <ele>145.4</ele>
        <time>2017-01-29T08:29:23.000Z</time>
      </trkpt>
      <trkpt lat="44.52232" lon="0.70297">
        <ele>145.5</ele>
        <time>2017-01-29T08:29:24.000Z</time>
      </trkpt>
      <trkpt lat="44.5223" lon="0.70298">
        <ele>145.6</ele>
        <time>2017-01-29T08:29:25.000Z</time>
      </trkpt>
      <trkpt lat="44.52228" lon="0.70299">
        <ele>145.7</ele>
        <time>2017-01-29T08:29:26.000Z</time>
      </trkpt>
      <trkpt lat="44.52226" lon="0.703">
        <ele>145.8</ele>
        <time>2017-01-29T08:29:27.000Z</time>
      </trkpt>
      <trkpt lat="44.52225" lon="0.703">
        <ele>145.9</ele>
        <time>2017-01-29T08:29:28.000Z</time>
      </trkpt>
      <trkpt lat="44.52223" lon="0.70301">
        <ele>146.1</ele>
        <time>2017-01-29T08:29:29.000Z</time>
      </trkpt>
      <trkpt lat="44.52221" lon="0.70302">
        <ele>146.2</ele>
        <time>2017-01-29T08:29:30.000Z</time>
      </trkpt>
      <trkpt lat="44.52219" lon="0.70303">
        <ele>146.3</ele>
        <time>2017-01-29T08:29:31.000Z</time>
      </trkpt>
      <trkpt lat="44.52217" lon="0.70303">
        <ele>146.4</ele>
        <time>2017-01-29T08:29:32.000Z</time>
      </trkpt>
      <trkpt lat="44.52215" lon="0.70304">
        <ele>146.5</ele>
        <time>2017-01-29T08:29:33.000Z</time>
      </trkpt>
      <trkpt lat="44.52213" lon="0.70305">
        <ele>146.7</ele>
        <time>2017-01-29T08:29:34.000Z</time>
      </trkpt>
      <trkpt lat="44.52211" lon="0.70306">
        <ele>146.8</ele>
        <time>2017-01-29T08:29:35.000Z</time>
      </trkpt>
      <trkpt lat="44.52209" lon="0.70306">
        <ele>146.9</ele>
        <time>2017-01-29T08:29:36.000Z</time>
      </trkpt>
      <trkpt lat="44.52207" lon="0.70307">
        <ele>147</ele>
        <time>2017-01-29T08:29:37.000Z</time>
      </trkpt>
      <trkpt lat="44.52205" lon="0.70308">
        <ele>147.2</ele>
        <time>2017-01-29T08:29:38.000Z</time>
      </trkpt>
      <trkpt lat="44.52203" lon="0.70309">
        <ele>147.3</ele>
        <time>2017-01-29T08:29:39.000Z</time>
      </trkpt>
      <trkpt lat="44.52202" lon="0.70309">
        <ele>147.4</ele>
        <time>2017-01-29T08:29:40.000Z</time>
      </trkpt>
      <trkpt lat="44.522" lon="0.7031">
        <ele>147.5</ele>
        <time>2017-01-29T08:29:41.000Z</time>
      </trkpt>
      <trkpt lat="44.52198" lon="0.70311">
        <ele>147.7</ele>
        <time>2017-01-29T08:29:42.000Z</time>
      </trkpt>
      <trkpt lat="44.52196" lon="0.70312">
        <ele>147.8</ele>
        <time>2017-01-29T08:29:43.000Z</time>
      </trkpt>
      <trkpt lat="44.52194" lon="0.70313">
        <ele>147.9</ele>
        <time>2017-01-29T08:29:44.000Z</time>
      </trkpt>
      <trkpt lat="44.52192" lon="0.70313">
        <ele>148.1</ele>
        <time>2017-01-29T08:29:45.000Z</time>
      </trkpt>
      <trkpt lat="44.5219" lon="0.70314">
        <ele>148.2</ele>
        <time>2017-01-29T08:29:46.000Z</time>
      </trkpt>
      <trkpt lat="44.52189" lon="0.70315">
        <ele>148.3</ele>
        <time>2017-01-29T08:29:47.000Z</time>
      </trkpt>
      <trkpt lat="44.52187" lon="0.70316">
        <ele>148.5</ele>
        <time>2017-01-29T08:29:48.000Z</time>
      </trkpt>
      <trkpt lat="44.52185" lon="0.70317">
        <ele>148.6</ele>
        <time>2017-01-29T08:29:49.000Z</time>
      </trkpt>
      <trkpt lat="44.52183" lon="0.70317">
        <ele>148.7</ele>
        <time>2017-01-29T08:29:50.000Z</time>
      </trkpt>
      <trkpt lat="44.52182" lon="0.70318">
        <ele>148.9</ele>
        <time>2017-01-29T08:29:51.000Z</time>
      </trkpt>
      <trkpt lat="44.5218" lon="0.70319">
        <ele>149</ele>
        <time>2017-01-29T08:29:52.000Z</time>
      </trkpt>
      <trkpt lat="44.52178" lon="0.7032">
        <ele>149.2</ele>
        <time>2017-01-29T08:29:53.000Z</time>
      </trkpt>
      <trkpt lat="44.52176" lon="0.70321">
        <ele>149.3</ele>
        <time>2017-01-29T08:29:54.000Z</time>
      </trkpt>
      <trkpt lat="44.52175" lon="0.70322">
        <ele>149.4</ele>
        <time>2017-01-29T08:29:55.000Z</time>
      </trkpt>
      <trkpt lat="44.52173" lon="0.70322">
        <ele>149.6</ele>
        <time>2017-01-29T08:29:56.000Z</time>
      </trkpt>
      <trkpt lat="44.52171" lon="0.70323">
        <ele>149.7</ele>
        <time>2017-01-29T08:29:57.000Z</time>
      </trkpt>
      <trkpt lat="44.52169" lon="0.70324">
        <ele>149.9</ele>
        <time>2017-01-29T08:29:58.000Z</time>
      </trkpt>
      <trkpt lat="44.52167" lon="0.70324">
        <ele>150</ele>
        <time>2017-01-29T08:29:59.000Z</time>
      </trkpt>
      <trkpt lat="44.52166" lon="0.70325">
        <ele>150.2</ele>
        <time>2017-01-29T08:30:00.000Z</time>
      </trkpt>
      <trkpt lat="44.52164" lon="0.70325">
        <ele>150.3</ele>
        <time>2017-01-29T08:30:01.000Z</time>
      </trkpt>
      <trkpt lat="44.52162" lon="0.70326">
        <ele>150.4</ele>
        <time>2017-01-29T08:30:02.000Z</time>
      </trkpt>
      <trkpt lat="44.5216" lon="0.70326">
        <ele>150.5</ele>
        <time>2017-01-29T08:30:03.000Z</time>
      </trkpt>
      <trkpt lat="44.52158" lon="0.70327">
        <ele>150.6</ele>
        <time>2017-01-29T08:30:04.000Z</time>
      </trkpt>
      <trkpt lat="44.52156" lon="0.70327">
        <ele>150.7</ele>
        <time>2017-01-29T08:30:05.000Z</time>
      </trkpt>
      <trkpt lat="44.52155" lon="0.70327">
        <ele>150.8</ele>
        <time>2017-01-29T08:30:06.000Z</time>
      </trkpt>
      <trkpt lat="44.52153" lon="0.70328">
        <ele>151</ele>
        <time>2017-01-29T08:30:07.000Z</time>
      </trkpt>
      <trkpt lat="44.52151" lon="0.70328">
        <ele>151.1</ele>
        <time>2017-01-29T08:30:08.000Z</time>
      </trkpt>
      <trkpt lat="44.52149" lon="0.70328">
        <ele>151.2</ele>
        <time>2017-01-29T08:30:09.000Z</time>
      </trkpt>
      <trkpt lat="44.52147" lon="0.70329">
        <ele>151.3</ele>
        <time>2017-01-29T08:30:10.000Z</time>
      </trkpt>
      <trkpt lat="44.52145" lon="0.70329">
        <ele>151.4</ele>
        <time>2017-01-29T08:30:11.000Z</time>
      </trkpt>
      <trkpt lat="44.52143" lon="0.70329">
        <ele>151.5</ele>
        <time>2017-01-29T08:30:12.000Z</time>
      </trkpt>
      <trkpt lat="44.52142" lon="0.7033">
        <ele>151.6</ele>
        <time>2017-01-29T08:30:13.000Z</time>
      </trkpt>
      <trkpt lat="44.5214" lon="0.7033">
        <ele>151.7</ele>
        <time>2017-01-29T08:30:14.000Z</time>
      </trkpt>
      <trkpt lat="44.52138" lon="0.7033">
        <ele>151.8</ele>
        <time>2017-01-29T08:30:15.000Z</time>
      </trkpt>
      <trkpt lat="44.52136" lon="0.7033">
        <ele>151.9</ele>
        <time>2017-01-29T08:30:16.000Z</time>
      </trkpt>
      <trkpt lat="44.52134" lon="0.70331">
        <ele>152</ele>
        <time>2017-01-29T08:30:17.000Z</time>
      </trkpt>
      <trkpt lat="44.52132" lon="0.70331">
        <ele>152.1</ele>
        <time>2017-01-29T08:30:18.000Z</time>
      </trkpt>
      <trkpt lat="44.52131" lon="0.70331">
        <ele>152.2</ele>
        <time>2017-01-29T08:30:19.000Z</time>
      </trkpt>
      <trkpt lat="44.52129" lon="0.70331">
        <ele>152.3</ele>
        <time>2017-01-29T08:30:20.000Z</time>
      </trkpt>
      <trkpt lat="44.52127" lon="0.70332">
        <ele>152.4</ele>
        <time>2017-01-29T08:30:21.000Z</time>
      </trkpt>
      <trkpt lat="44.52125" lon="0.70332">
        <ele>152.5</ele>
        <time>2017-01-29T08:30:22.000Z</time>
      </trkpt>
      <trkpt lat="44.52124" lon="0.70332">
        <ele>152.6</ele>
        <time>2017-01-29T08:30:23.000Z</time>
      </trkpt>
      <trkpt lat="44.52122" lon="0.70332">
        <ele>152.7</ele>
        <time>2017-01-29T08:30:24.000Z</time>
      </trkpt>
      <trkpt lat="44.5212" lon="0.70332">
        <ele>152.8</ele>
        <time>2017-01-29T08:30:25.000Z</time>
      </trkpt>
      <trkpt lat="44.52119" lon="0.70333">
        <ele>152.9</ele>
        <time>2017-01-29T08:30:26.000Z</time>
      </trkpt>
      <trkpt lat="44.52117" lon="0.70333">
        <ele>153</ele>
        <time>2017-01-29T08:30:27.000Z</time>
      </trkpt>
      <trkpt lat="44.52115" lon="0.70333">
        <ele>153.1</ele>
        <time>2017-01-29T08:30:28.000Z</time>
      </trkpt>
      <trkpt lat="44.52114" lon="0.70333">
        <ele>153.2</ele>
        <time>2017-01-29T08:30:29.000Z</time>
      </trkpt>
      <trkpt lat="44.52112" lon="0.70333">
        <ele>153.3</ele>
        <time>2017-01-29T08:30:30.000Z</time>
      </trkpt>
      <trkpt lat="44.5211" lon="0.70333">
        <ele>153.4</ele>
        <time>2017-01-29T08:30:31.000Z</time>
      </trkpt>
      <trkpt lat="44.52109" lon="0.70333">
        <ele>153.5</ele>
        <time>2017-01-29T08:30:32.000Z</time>
      </trkpt>
      <trkpt lat="44.52107" lon="0.70333">
        <ele>153.6</ele>
        <time>2017-01-29T08:30:33.000Z</time>
      </trkpt>
      <trkpt lat="44.52105" lon="0.70333">
        <ele>153.7</ele>
        <time>2017-01-29T08:30:34.000Z</time>
      </trkpt>
      <trkpt lat="44.52104" lon="0.70333">
        <ele>153.8</ele>
        <time>2017-01-29T08:30:35.000Z</time>
      </trkpt>
      <trkpt lat="44.52102" lon="0.70333">
        <ele>153.9</ele>
        <time>2017-01-29T08:30:36.000Z</time>
      </trkpt>
      <trkpt lat="44.521" lon="0.70333">
        <ele>154</ele>
        <time>2017-01-29T08:30:37.000Z</time>
      </trkpt>
      <trkpt lat="44.52099" lon="0.70333">
        <ele>154.1</ele>
        <time>2017-01-29T08:30:38.000Z</time>
      </trkpt>
      <trkpt lat="44.52097" lon="0.70333">
        <ele>154.2</ele>
        <time>2017-01-29T08:30:39.000Z</time>
      </trkpt>
      <trkpt lat="44.52095" lon="0.70332">
        <ele>154.3</ele>
        <time>2017-01-29T08:30:40.000Z</time>
      </trkpt>
      <trkpt lat="44.52093" lon="0.70332">
        <ele>154.5</ele>
        <time>2017-01-29T08:30:41.000Z</time>
      </trkpt>
      <trkpt lat="44.52092" lon="0.70332">
        <ele>154.6</ele>
        <time>2017-01-29T08:30:42.000Z</time>
      </trkpt>
      <trkpt lat="44.5209" lon="0.70332">
        <ele>154.7</ele>
        <time>2017-01-29T08:30:43.000Z</time>
      </trkpt>
      <trkpt lat="44.52088" lon="0.70332">
        <ele>154.8</ele>
        <time>2017-01-29T08:30:44.000Z</time>
      </trkpt>
      <trkpt lat="44.52087" lon="0.70332">
        <ele>154.9</ele>
        <time>2017-01-29T08:30:45.000Z</time>
      </trkpt>
      <trkpt lat="44.52085" lon="0.70331">
        <ele>155</ele>
        <time>2017-01-29T08:30:46.000Z</time>
      </trkpt>
      <trkpt lat="44.52083" lon="0.70331">
        <ele>155.1</ele>
        <time>2017-01-29T08:30:47.000Z</time>
      </trkpt>
      <trkpt lat="44.52082" lon="0.70331">
        <ele>155.4</ele>
        <time>2017-01-29T08:30:48.000Z</time>
      </trkpt>
      <trkpt lat="44.5208" lon="0.70331">
        <ele>155.7</ele>
        <time>2017-01-29T08:30:49.000Z</time>
      </trkpt>
      <trkpt lat="44.52079" lon="0.7033">
        <ele>155.9</ele>
        <time>2017-01-29T08:30:50.000Z</time>
      </trkpt>
      <trkpt lat="44.52077" lon="0.7033">
        <ele>156.2</ele>
        <time>2017-01-29T08:30:51.000Z</time>
      </trkpt>
      <trkpt lat="44.52075" lon="0.7033">
        <ele>156.4</ele>
        <time>2017-01-29T08:30:52.000Z</time>
      </trkpt>
      <trkpt lat="44.52074" lon="0.7033">
        <ele>156.7</ele>
        <time>2017-01-29T08:30:53.000Z</time>
      </trkpt>
      <trkpt lat="44.52072" lon="0.7033">
        <ele>156.9</ele>
        <time>2017-01-29T08:30:54.000Z</time>
      </trkpt>
      <trkpt lat="44.5207" lon="0.70329">
        <ele>157.2</ele>
        <time>2017-01-29T08:30:55.000Z</time>
      </trkpt>
      <trkpt lat="44.52069" lon="0.70329">
        <ele>157.4</ele>
        <time>2017-01-29T08:30:56.000Z</time>
      </trkpt>
      <trkpt lat="44.52067" lon="0.70329">
        <ele>157.7</ele>
        <time>2017-01-29T08:30:57.000Z</time>
      </trkpt>
      <trkpt lat="44.52066" lon="0.70329">
        <ele>157.9</ele>
        <time>2017-01-29T08:30:58.000Z</time>
      </trkpt>
      <trkpt lat="44.52064" lon="0.70329">
        <ele>158.2</ele>
        <time>2017-01-29T08:30:59.000Z</time>
      </trkpt>
      <trkpt lat="44.52063" lon="0.70328">
        <ele>158.4</ele>
        <time>2017-01-29T08:31:00.000Z</time>
      </trkpt>
      <trkpt lat="44.52061" lon="0.70328">
        <ele>158.6</ele>
        <time>2017-01-29T08:31:01.000Z</time>
      </trkpt>
      <trkpt lat="44.5206" lon="0.70328">
        <ele>158.9</ele>
        <time>2017-01-29T08:31:02.000Z</time>
      </trkpt>
      <trkpt lat="44.52058" lon="0.70328">
        <ele>159.1</ele>
        <time>2017-01-29T08:31:03.000Z</time>
      </trkpt>
      <trkpt lat="44.52057" lon="0.70328">
        <ele>159.4</ele>
        <time>2017-01-29T08:31:04.000Z</time>
      </trkpt>
      <trkpt lat="44.52055" lon="0.70327">
        <ele>159.6</ele>
        <time>2017-01-29T08:31:05.000Z</time>
      </trkpt>
      <trkpt lat="44.52054" lon="0.70327">
        <ele>159.8</ele>
        <time>2017-01-29T08:31:06.000Z</time>
      </trkpt>
      <trkpt lat="44.52052" lon="0.70327">
        <ele>160.1</ele>
        <time>2017-01-29T08:31:07.000Z</time>
      </trkpt>
      <trkpt lat="44.5205" lon="0.70327">
        <ele>160.3</ele>
        <time>2017-01-29T08:31:08.000Z</time>
      </trkpt>
      <trkpt lat="44.52049" lon="0.70327">
        <ele>160.5</ele>
        <time>2017-01-29T08:31:09.000Z</time>
      </trkpt>
      <trkpt lat="44.52047" lon="0.70326">
        <ele>160.7</ele>
        <time>2017-01-29T08:31:10.000Z</time>
      </trkpt>
      <trkpt lat="44.52046" lon="0.70326">
        <ele>161</ele>
        <time>2017-01-29T08:31:11.000Z</time>
      </trkpt>
      <trkpt lat="44.52044" lon="0.70326">
        <ele>161.2</ele>
        <time>2017-01-29T08:31:12.000Z</time>
      </trkpt>
      <trkpt lat="44.52043" lon="0.70326">
        <ele>161.5</ele>
        <time>2017-01-29T08:31:13.000Z</time>
      </trkpt>
      <trkpt lat="44.52041" lon="0.70326">
        <ele>161.7</ele>
        <time>2017-01-29T08:31:14.000Z</time>
      </trkpt>
      <trkpt lat="44.52039" lon="0.70326">
        <ele>161.9</ele>
        <time>2017-01-29T08:31:15.000Z</time>
      </trkpt>
      <trkpt lat="44.52038" lon="0.70325">
        <ele>162.2</ele>
        <time>2017-01-29T08:31:16.000Z</time>
      </trkpt>
      <trkpt lat="44.52036" lon="0.70325">
        <ele>162.4</ele>
        <time>2017-01-29T08:31:17.000Z</time>
      </trkpt>
      <trkpt lat="44.52035" lon="0.70325">
        <ele>162.6</ele>
        <time>2017-01-29T08:31:18.000Z</time>
      </trkpt>
      <trkpt lat="44.52033" lon="0.70325">
        <ele>162.9</ele>
        <time>2017-01-29T08:31:19.000Z</time>
      </trkpt>
      <trkpt lat="44.52032" lon="0.70325">
        <ele>163.1</ele>
        <time>2017-01-29T08:31:20.000Z</time>
      </trkpt>
      <trkpt lat="44.5203" lon="0.70325">
        <ele>163.3</ele>
        <time>2017-01-29T08:31:21.000Z</time>
      </trkpt>
      <trkpt lat="44.52028" lon="0.70325">
        <ele>163.5</ele>
        <time>2017-01-29T08:31:22.000Z</time>
      </trkpt>
      <trkpt lat="44.52027" lon="0.70325">
        <ele>163.8</ele>
        <time>2017-01-29T08:31:23.000Z</time>
      </trkpt>
      <trkpt lat="44.52025" lon="0.70325">
        <ele>164</ele>
        <time>2017-01-29T08:31:24.000Z</time>
      </trkpt>
      <trkpt lat="44.52024" lon="0.70324">
        <ele>164.2</ele>
        <time>2017-01-29T08:31:25.000Z</time>
      </trkpt>
      <trkpt lat="44.52022" lon="0.70324">
        <ele>164.4</ele>
        <time>2017-01-29T08:31:26.000Z</time>
      </trkpt>
      <trkpt lat="44.52021" lon="0.70324">
        <ele>164.6</ele>
        <time>2017-01-29T08:31:27.000Z</time>
      </trkpt>
      <trkpt lat="44.52019" lon="0.70324">
        <ele>164.9</ele>
        <time>2017-01-29T08:31:28.000Z</time>
      </trkpt>
      <trkpt lat="44.52018" lon="0.70324">
        <ele>165.1</ele>
        <time>2017-01-29T08:31:29.000Z</time>
      </trkpt>
      <trkpt lat="44.52017" lon="0.70324">
        <ele>165.3</ele>
        <time>2017-01-29T08:31:30.000Z</time>
      </trkpt>
      <trkpt lat="44.52015" lon="0.70324">
        <ele>165.5</ele>
        <time>2017-01-29T08:31:31.000Z</time>
      </trkpt>
      <trkpt lat="44.52014" lon="0.70324">
        <ele>165.6</ele>
        <time>2017-01-29T08:31:32.000Z</time>
      </trkpt>
      <trkpt lat="44.52013" lon="0.70324">
        <ele>165.9</ele>
        <time>2017-01-29T08:31:33.000Z</time>
      </trkpt>
      <trkpt lat="44.52011" lon="0.70324">
        <ele>166</ele>
        <time>2017-01-29T08:31:34.000Z</time>
      </trkpt>
      <trkpt lat="44.5201" lon="0.70324">
        <ele>166.2</ele>
        <time>2017-01-29T08:31:35.000Z</time>
      </trkpt>
      <trkpt lat="44.52009" lon="0.70324">
        <ele>166.4</ele>
        <time>2017-01-29T08:31:36.000Z</time>
      </trkpt>
      <trkpt lat="44.52007" lon="0.70324">
        <ele>166.6</ele>
        <time>2017-01-29T08:31:37.000Z</time>
      </trkpt>
      <trkpt lat="44.52006" lon="0.70324">
        <ele>166.8</ele>
        <time>2017-01-29T08:31:38.000Z</time>
      </trkpt>
      <trkpt lat="44.52005" lon="0.70324">
        <ele>167</ele>
        <time>2017-01-29T08:31:39.000Z</time>
      </trkpt>
      <trkpt lat="44.52004" lon="0.70324">
        <ele>167.1</ele>
        <time>2017-01-29T08:31:40.000Z</time>
      </trkpt>
      <trkpt lat="44.52002" lon="0.70324">
        <ele>167.3</ele>
        <time>2017-01-29T08:31:41.000Z</time>
      </trkpt>
      <trkpt lat="44.52001" lon="0.70324">
        <ele>167.5</ele>
        <time>2017-01-29T08:31:42.000Z</time>
      </trkpt>
      <trkpt lat="44.52" lon="0.70324">
        <ele>167.7</ele>
        <time>2017-01-29T08:31:43.000Z</time>
      </trkpt>
      <trkpt lat="44.51999" lon="0.70324">
        <ele>168</ele>
        <time>2017-01-29T08:31:44.000Z</time>
      </trkpt>
      <trkpt lat="44.51997" lon="0.70324">
        <ele>168.4</ele>
        <time>2017-01-29T08:31:45.000Z</time>
      </trkpt>
      <trkpt lat="44.51996" lon="0.70324">
        <ele>168.7</ele>
        <time>2017-01-29T08:31:46.000Z</time>
      </trkpt>
      <trkpt lat="44.51995" lon="0.70324">
        <ele>169</ele>
        <time>2017-01-29T08:31:47.000Z</time>
      </trkpt>
      <trkpt lat="44.51994" lon="0.70324">
        <ele>169.3</ele>
        <time>2017-01-29T08:31:48.000Z</time>
      </trkpt>
      <trkpt lat="44.51992" lon="0.70324">
        <ele>169.7</ele>
        <time>2017-01-29T08:31:49.000Z</time>
      </trkpt>
      <trkpt lat="44.51991" lon="0.70324">
        <ele>170</ele>
        <time>2017-01-29T08:31:50.000Z</time>
      </trkpt>
      <trkpt lat="44.5199" lon="0.70324">
        <ele>170.4</ele>
        <time>2017-01-29T08:31:51.000Z</time>
      </trkpt>
      <trkpt lat="44.51988" lon="0.70324">
        <ele>170.7</ele>
        <time>2017-01-29T08:31:52.000Z</time>
      </trkpt>
      <trkpt lat="44.51987" lon="0.70325">
        <ele>171.1</ele>
        <time>2017-01-29T08:31:53.000Z</time>
      </trkpt>
      <trkpt lat="44.51986" lon="0.70325">
        <ele>171.4</ele>
        <time>2017-01-29T08:31:54.000Z</time>
      </trkpt>
      <trkpt lat="44.51984" lon="0.70326">
        <ele>171.8</ele>
        <time>2017-01-29T08:31:55.000Z</time>
      </trkpt>
      <trkpt lat="44.51983" lon="0.70326">
        <ele>172.2</ele>
        <time>2017-01-29T08:31:56.000Z</time>
      </trkpt>
      <trkpt lat="44.51982" lon="0.70327">
        <ele>172.5</ele>
        <time>2017-01-29T08:31:57.000Z</time>
      </trkpt>
      <trkpt lat="44.5198" lon="0.70327">
        <ele>172.9</ele>
        <time>2017-01-29T08:31:58.000Z</time>
      </trkpt>
      <trkpt lat="44.51979" lon="0.70328">
        <ele>173.3</ele>
        <time>2017-01-29T08:31:59.000Z</time>
      </trkpt>
      <trkpt lat="44.51978" lon="0.70329">
        <ele>173.7</ele>
        <time>2017-01-29T08:32:00.000Z</time>
      </trkpt>
      <trkpt lat="44.51977" lon="0.7033">
        <ele>174</ele>
        <time>2017-01-29T08:32:01.000Z</time>
      </trkpt>
      <trkpt lat="44.51975" lon="0.70331">
        <ele>174.4</ele>
        <time>2017-01-29T08:32:02.000Z</time>
      </trkpt>
      <trkpt lat="44.51974" lon="0.70332">
        <ele>174.8</ele>
        <time>2017-01-29T08:32:03.000Z</time>
      </trkpt>
      <trkpt lat="44.51973" lon="0.70334">
        <ele>175.2</ele>
        <time>2017-01-29T08:32:04.000Z</time>
      </trkpt>
      <trkpt lat="44.51972" lon="0.70335">
        <ele>175.5</ele>
        <time>2017-01-29T08:32:05.000Z</time>
      </trkpt>
      <trkpt lat="44.5197" lon="0.70336">
        <ele>175.8</ele>
        <time>2017-01-29T08:32:06.000Z</time>
      </trkpt>
      <trkpt lat="44.51969" lon="0.70338">
        <ele>176.1</ele>
        <time>2017-01-29T08:32:07.000Z</time>
      </trkpt>
      <trkpt lat="44.51968" lon="0.7034">
        <ele>176.3</ele>
        <time>2017-01-29T08:32:08.000Z</time>
      </trkpt>
      <trkpt lat="44.51967" lon="0.70341">
        <ele>176.6</ele>
        <time>2017-01-29T08:32:09.000Z</time>
      </trkpt>
      <trkpt lat="44.51966" lon="0.70343">
        <ele>176.9</ele>
        <time>2017-01-29T08:32:10.000Z</time>
      </trkpt>
      <trkpt lat="44.51964" lon="0.70345">
        <ele>177.1</ele>
        <time>2017-01-29T08:32:11.000Z</time>
      </trkpt>
      <trkpt lat="44.51963" lon="0.70347">
        <ele>177.4</ele>
        <time>2017-01-29T08:32:12.000Z</time>
      </trkpt>
      <trkpt lat="44.51963" lon="0.70349">
        <ele>177.6</ele>
        <time>2017-01-29T08:32:13.000Z</time>
      </trkpt>
      <trkpt lat="44.51962" lon="0.70351">
        <ele>177.8</ele>
        <time>2017-01-29T08:32:14.000Z</time>
      </trkpt>
      <trkpt lat="44.51961" lon="0.70353">
        <ele>177.9</ele>
        <time>2017-01-29T08:32:15.000Z</time>
      </trkpt>
      <trkpt lat="44.5196" lon="0.70355">
        <ele>178</ele>
        <time>2017-01-29T08:32:16.000Z</time>
      </trkpt>
      <trkpt lat="44.5196" lon="0.70357">
        <ele>178.1</ele>
        <time>2017-01-29T08:32:17.000Z</time>
      </trkpt>
      <trkpt lat="44.5196" lon="0.70359">
        <ele>178.2</ele>
        <time>2017-01-29T08:32:18.000Z</time>
      </trkpt>
      <trkpt lat="44.51959" lon="0.70362">
        <ele>178.2</ele>
        <time>2017-01-29T08:32:19.000Z</time>
      </trkpt>
      <trkpt lat="44.51959" lon="0.70364">
        <ele>178.2</ele>
        <time>2017-01-29T08:32:20.000Z</time>
      </trkpt>
      <trkpt lat="44.51959" lon="0.70366">
        <ele>178.3</ele>
        <time>2017-01-29T08:32:21.000Z</time>
      </trkpt>
      <trkpt lat="44.51958" lon="0.70369">
        <ele>178.5</ele>
        <time>2017-01-29T08:32:22.000Z</time>
      </trkpt>
      <trkpt lat="44.51957" lon="0.70372">
        <ele>178.7</ele>
        <time>2017-01-29T08:32:23.000Z</time>
      </trkpt>
      <trkpt lat="44.51956" lon="0.70375">
        <ele>178.9</ele>
        <time>2017-01-29T08:32:24.000Z</time>
      </trkpt>
      <trkpt lat="44.51955" lon="0.70378">
        <ele>179.2</ele>
        <time>2017-01-29T08:32:25.000Z</time>
      </trkpt>
      <trkpt lat="44.51954" lon="0.7038">
        <ele>179.4</ele>
        <time>2017-01-29T08:32:26.000Z</time>
      </trkpt>
      <trkpt lat="44.51954" lon="0.70383">
        <ele>179.6</ele>
        <time>2017-01-29T08:32:27.000Z</time>
      </trkpt>
      <trkpt lat="44.51953" lon="0.70386">
        <ele>179.8</ele>
        <time>2017-01-29T08:32:28.000Z</time>
      </trkpt>
      <trkpt lat="44.51952" lon="0.70389">
        <ele>180</ele>
        <time>2017-01-29T08:32:29.000Z</time>
      </trkpt>
      <trkpt lat="44.51952" lon="0.70391">
        <ele>180.1</ele>
        <time>2017-01-29T08:32:30.000Z</time>
      </trkpt>
      <trkpt lat="44.51951" lon="0.70394">
        <ele>180.3</ele>
        <time>2017-01-29T08:32:31.000Z</time>
      </trkpt>
      <trkpt lat="44.51951" lon="0.70396">
        <ele>180.4</ele>
        <time>2017-01-29T08:32:32.000Z</time>
      </trkpt>
      <trkpt lat="44.5195" lon="0.70398">
        <ele>180.5</ele>
        <time>2017-01-29T08:32:33.000Z</time>
      </trkpt>
      <trkpt lat="44.5195" lon="0.704">
        <ele>180.6</ele>
        <time>2017-01-29T08:32:34.000Z</time>
      </trkpt>
      <trkpt lat="44.5195" lon="0.70402">
        <ele>180.7</ele>
        <time>2017-01-29T08:32:35.000Z</time>
      </trkpt>
      <trkpt lat="44.51949" lon="0.70404">
        <ele>180.8</ele>
        <time>2017-01-29T08:32:36.000Z</time>
      </trkpt>
      <trkpt lat="44.51949" lon="0.70406">
        <ele>180.8</ele>
        <time>2017-01-29T08:32:37.000Z</time>
      </trkpt>
      <trkpt lat="44.51949" lon="0.70408">
        <ele>180.9</ele>
        <time>2017-01-29T08:32:38.000Z</time>
      </trkpt>
      <trkpt lat="44.51949" lon="0.7041">
        <ele>181</ele>
        <time>2017-01-29T08:32:39.000Z</time>
      </trkpt>
      <trkpt lat="44.51948" lon="0.70413">
        <ele>181.1</ele>
        <time>2017-01-29T08:32:40.000Z</time>
      </trkpt>
      <trkpt lat="44.51948" lon="0.70415">
        <ele>181.1</ele>
        <time>2017-01-29T08:32:41.000Z</time>
      </trkpt>
      <trkpt lat="44.51948" lon="0.70417">
        <ele>181.2</ele>
        <time>2017-01-29T08:32:42.000Z</time>
      </trkpt>
      <trkpt lat="44.51947" lon="0.70419">
        <ele>181.2</ele>
        <time>2017-01-29T08:32:43.000Z</time>
      </trkpt>
      <trkpt lat="44.51947" lon="0.70421">
        <ele>181.2</ele>
        <time>2017-01-29T08:32:44.000Z</time>
      </trkpt>
      <trkpt lat="44.51947" lon="0.70424">
        <ele>181.2</ele>
        <time>2017-01-29T08:32:45.000Z</time>
      </trkpt>
      <trkpt lat="44.51947" lon="0.70426">
        <ele>181.2</ele>
        <time>2017-01-29T08:32:46.000Z</time>
      </trkpt>
      <trkpt lat="44.51946" lon="0.70428">
        <ele>181.3</ele>
        <time>2017-01-29T08:32:47.000Z</time>
      </trkpt>
      <trkpt lat="44.51946" lon="0.70431">
        <ele>181.3</ele>
        <time>2017-01-29T08:32:48.000Z</time>
      </trkpt>
      <trkpt lat="44.51946" lon="0.70433">
        <ele>181.3</ele>
        <time>2017-01-29T08:32:49.000Z</time>
      </trkpt>
      <trkpt lat="44.51945" lon="0.70436">
        <ele>181.3</ele>
        <time>2017-01-29T08:32:50.000Z</time>
      </trkpt>
      <trkpt lat="44.51945" lon="0.70439">
        <ele>181.3</ele>
        <time>2017-01-29T08:32:51.000Z</time>
      </trkpt>
      <trkpt lat="44.51945" lon="0.70441">
        <ele>181.3</ele>
        <time>2017-01-29T08:32:52.000Z</time>
      </trkpt>
      <trkpt lat="44.51945" lon="0.70444">
        <ele>181.2</ele>
        <time>2017-01-29T08:32:53.000Z</time>
      </trkpt>
      <trkpt lat="44.51944" lon="0.70447">
        <ele>181.2</ele>
        <time>2017-01-29T08:32:54.000Z</time>
      </trkpt>
      <trkpt lat="44.51944" lon="0.7045">
        <ele>181.2</ele>
        <time>2017-01-29T08:32:55.000Z</time>
      </trkpt>
      <trkpt lat="44.51944" lon="0.70453">
        <ele>181.2</ele>
        <time>2017-01-29T08:32:56.000Z</time>
      </trkpt>
      <trkpt lat="44.51944" lon="0.70456">
        <ele>181.1</ele>
        <time>2017-01-29T08:32:57.000Z</time>
      </trkpt>
      <trkpt lat="44.51943" lon="0.70459">
        <ele>181.1</ele>
        <time>2017-01-29T08:32:58.000Z</time>
      </trkpt>
      <trkpt lat="44.51943" lon="0.70462">
        <ele>181.1</ele>
        <time>2017-01-29T08:32:59.000Z</time>
      </trkpt>
      <trkpt lat="44.51942" lon="0.70465">
        <ele>181.1</ele>
        <time>2017-01-29T08:33:00.000Z</time>
      </trkpt>
      <trkpt lat="44.51942" lon="0.70468">
        <ele>181.2</ele>
        <time>2017-01-29T08:33:01.000Z</time>
      </trkpt>
      <trkpt lat="44.51941" lon="0.70471">
        <ele>181.3</ele>
        <time>2017-01-29T08:33:02.000Z</time>
      </trkpt>
      <trkpt lat="44.51941" lon="0.70474">
        <ele>181.4</ele>
        <time>2017-01-29T08:33:03.000Z</time>
      </trkpt>
      <trkpt lat="44.5194" lon="0.70477">
        <ele>181.5</ele>
        <time>2017-01-29T08:33:04.000Z</time>
      </trkpt>
      <trkpt lat="44.5194" lon="0.7048">
        <ele>181.6</ele>
        <time>2017-01-29T08:33:05.000Z</time>
      </trkpt>
      <trkpt lat="44.51939" lon="0.70483">
        <ele>181.7</ele>
        <time>2017-01-29T08:33:06.000Z</time>
      </trkpt>
      <trkpt lat="44.51938" lon="0.70486">
        <ele>181.8</ele>
        <time>2017-01-29T08:33:07.000Z</time>
      </trkpt>
      <trkpt lat="44.51938" lon="0.70489">
        <ele>181.9</ele>
        <time>2017-01-29T08:33:08.000Z</time>
      </trkpt>
      <trkpt lat="44.51937" lon="0.70492">
        <ele>182.1</ele>
        <time>2017-01-29T08:33:09.000Z</time>
      </trkpt>
      <trkpt lat="44.51936" lon="0.70494">
        <ele>182.2</ele>
        <time>2017-01-29T08:33:10.000Z</time>
      </trkpt>
      <trkpt lat="44.51935" lon="0.70497">
        <ele>182.4</ele>
        <time>2017-01-29T08:33:11.000Z</time>
      </trkpt>
      <trkpt lat="44.51935" lon="0.705">
        <ele>182.5</ele>
        <time>2017-01-29T08:33:12.000Z</time>
      </trkpt>
      <trkpt lat="44.51934" lon="0.70503">
        <ele>182.4</ele>
        <time>2017-01-29T08:33:13.000Z</time>
      </trkpt>
      <trkpt lat="44.51934" lon="0.70506">
        <ele>182.2</ele>
        <time>2017-01-29T08:33:14.000Z</time>
      </trkpt>
      <trkpt lat="44.51933" lon="0.70509">
        <ele>182</ele>
        <time>2017-01-29T08:33:15.000Z</time>
      </trkpt>
      <trkpt lat="44.51932" lon="0.70512">
        <ele>181.8</ele>
        <time>2017-01-29T08:33:16.000Z</time>
      </trkpt>
      <trkpt lat="44.51932" lon="0.70515">
        <ele>181.6</ele>
        <time>2017-01-29T08:33:17.000Z</time>
      </trkpt>
      <trkpt lat="44.51931" lon="0.70518">
        <ele>181.3</ele>
        <time>2017-01-29T08:33:18.000Z</time>
      </trkpt>
      <trkpt lat="44.51931" lon="0.70522">
        <ele>181</ele>
        <time>2017-01-29T08:33:19.000Z</time>
      </trkpt>
      <trkpt lat="44.5193" lon="0.70525">
        <ele>180.7</ele>
        <time>2017-01-29T08:33:20.000Z</time>
      </trkpt>
      <trkpt lat="44.5193" lon="0.70529">
        <ele>180.4</ele>
        <time>2017-01-29T08:33:21.000Z</time>
      </trkpt>
      <trkpt lat="44.51929" lon="0.70532">
        <ele>180.1</ele>
        <time>2017-01-29T08:33:22.000Z</time>
      </trkpt>
      <trkpt lat="44.51929" lon="0.70536">
        <ele>179.7</ele>
        <time>2017-01-29T08:33:23.000Z</time>
      </trkpt>
      <trkpt lat="44.51928" lon="0.70539">
        <ele>179.4</ele>
        <time>2017-01-29T08:33:24.000Z</time>
      </trkpt>
      <trkpt lat="44.51928" lon="0.70542">
        <ele>179.1</ele>
        <time>2017-01-29T08:33:25.000Z</time>
      </trkpt>
      <trkpt lat="44.51928" lon="0.70546">
        <ele>178.7</ele>
        <time>2017-01-29T08:33:26.000Z</time>
      </trkpt>
      <trkpt lat="44.51927" lon="0.70549">
        <ele>178.3</ele>
        <time>2017-01-29T08:33:27.000Z</time>
      </trkpt>
      <trkpt lat="44.51927" lon="0.70552">
        <ele>178</ele>
        <time>2017-01-29T08:33:28.000Z</time>
      </trkpt>
      <trkpt lat="44.51926" lon="0.70555">
        <ele>177.7</ele>
        <time>2017-01-29T08:33:29.000Z</time>
      </trkpt>
      <trkpt lat="44.51926" lon="0.70558">
        <ele>177.4</ele>
        <time>2017-01-29T08:33:30.000Z</time>
      </trkpt>
      <trkpt lat="44.51925" lon="0.70561">
        <ele>177.1</ele>
        <time>2017-01-29T08:33:31.000Z</time>
      </trkpt>
      <trkpt lat="44.51925" lon="0.70565">
        <ele>176.8</ele>
        <time>2017-01-29T08:33:32.000Z</time>
      </trkpt>
      <trkpt lat="44.51924" lon="0.70569">
        <ele>176.5</ele>
        <time>2017-01-29T08:33:33.000Z</time>
      </trkpt>
      <trkpt lat="44.51922" lon="0.70573">
        <ele>176.2</ele>
        <time>2017-01-29T08:33:34.000Z</time>
      </trkpt>
      <trkpt lat="44.51921" lon="0.70578">
        <ele>175.9</ele>
        <time>2017-01-29T08:33:35.000Z</time>
      </trkpt>
      <trkpt lat="44.51919" lon="0.70582">
        <ele>175.5</ele>
        <time>2017-01-29T08:33:36.000Z</time>
      </trkpt>
      <trkpt lat="44.51918" lon="0.70587">
        <ele>175.3</ele>
        <time>2017-01-29T08:33:37.000Z</time>
      </trkpt>
      <trkpt lat="44.51916" lon="0.70592">
        <ele>175.1</ele>
        <time>2017-01-29T08:33:38.000Z</time>
      </trkpt>
      <trkpt lat="44.51914" lon="0.70597">
        <ele>175</ele>
        <time>2017-01-29T08:33:39.000Z</time>
      </trkpt>
      <trkpt lat="44.51912" lon="0.70601">
        <ele>174.9</ele>
        <time>2017-01-29T08:33:40.000Z</time>
      </trkpt>
      <trkpt lat="44.51911" lon="0.70606">
        <ele>174.8</ele>
        <time>2017-01-29T08:33:41.000Z</time>
      </trkpt>
      <trkpt lat="44.51909" lon="0.7061">
        <ele>174.7</ele>
        <time>2017-01-29T08:33:42.000Z</time>
      </trkpt>
      <trkpt lat="44.51908" lon="0.70615">
        <ele>174.5</ele>
        <time>2017-01-29T08:33:43.000Z</time>
      </trkpt>
      <trkpt lat="44.51906" lon="0.70619">
        <ele>174.3</ele>
        <time>2017-01-29T08:33:44.000Z</time>
      </trkpt>
      <trkpt lat="44.51905" lon="0.70624">
        <ele>174.1</ele>
        <time>2017-01-29T08:33:45.000Z</time>
      </trkpt>
      <trkpt lat="44.51903" lon="0.70628">
        <ele>173.8</ele>
        <time>2017-01-29T08:33:46.000Z</time>
      </trkpt>
      <trkpt lat="44.51902" lon="0.70634">
        <ele>173.5</ele>
        <time>2017-01-29T08:33:47.000Z</time>
      </trkpt>
      <trkpt lat="44.519" lon="0.70639">
        <ele>173.2</ele>
        <time>2017-01-29T08:33:48.000Z</time>
      </trkpt>
      <trkpt lat="44.51899" lon="0.70644">
        <ele>172.9</ele>
        <time>2017-01-29T08:33:49.000Z</time>
      </trkpt>
      <trkpt lat="44.51897" lon="0.70649">
        <ele>172.5</ele>
        <time>2017-01-29T08:33:50.000Z</time>
      </trkpt>
      <trkpt lat="44.51896" lon="0.70653">
        <ele>172.2</ele>
        <time>2017-01-29T08:33:51.000Z</time>
      </trkpt>
      <trkpt lat="44.51895" lon="0.70658">
        <ele>171.9</ele>
        <time>2017-01-29T08:33:52.000Z</time>
      </trkpt>
      <trkpt lat="44.51894" lon="0.70662">
        <ele>171.6</ele>
        <time>2017-01-29T08:33:53.000Z</time>
      </trkpt>
      <trkpt lat="44.51892" lon="0.70666">
        <ele>171.4</ele>
        <time>2017-01-29T08:33:54.000Z</time>
      </trkpt>
      <trkpt lat="44.51891" lon="0.70669">
        <ele>171.4</ele>
        <time>2017-01-29T08:33:55.000Z</time>
      </trkpt>
      <trkpt lat="44.5189" lon="0.70673">
        <ele>171.5</ele>
        <time>2017-01-29T08:33:56.000Z</time>
      </trkpt>
      <trkpt lat="44.51888" lon="0.70676">
        <ele>171.6</ele>
        <time>2017-01-29T08:33:57.000Z</time>
      </trkpt>
      <trkpt lat="44.51887" lon="0.70678">
        <ele>171.8</ele>
        <time>2017-01-29T08:33:58.000Z</time>
      </trkpt>
      <trkpt lat="44.51885" lon="0.70681">
        <ele>172</ele>
        <time>2017-01-29T08:33:59.000Z</time>
      </trkpt>
      <trkpt lat="44.51883" lon="0.70683">
        <ele>172.2</ele>
        <time>2017-01-29T08:34:00.000Z</time>
      </trkpt>
      <trkpt lat="44.51881" lon="0.70685">
        <ele>172.4</ele>
        <time>2017-01-29T08:34:01.000Z</time>
      </trkpt>
      <trkpt lat="44.51879" lon="0.70687">
        <ele>172.7</ele>
        <time>2017-01-29T08:34:02.000Z</time>
      </trkpt>
      <trkpt lat="44.51877" lon="0.70689">
        <ele>173</ele>
        <time>2017-01-29T08:34:03.000Z</time>
      </trkpt>
      <trkpt lat="44.51875" lon="0.70691">
        <ele>173.2</ele>
        <time>2017-01-29T08:34:04.000Z</time>
      </trkpt>
      <trkpt lat="44.51873" lon="0.70692">
        <ele>173.5</ele>
        <time>2017-01-29T08:34:05.000Z</time>
      </trkpt>
      <trkpt lat="44.51871" lon="0.70694">
        <ele>173.7</ele>
        <time>2017-01-29T08:34:06.000Z</time>
      </trkpt>
      <trkpt lat="44.51869" lon="0.70696">
        <ele>174</ele>
        <time>2017-01-29T08:34:07.000Z</time>
      </trkpt>
      <trkpt lat="44.51867" lon="0.70697">
        <ele>174.2</ele>
        <time>2017-01-29T08:34:08.000Z</time>
      </trkpt>
      <trkpt lat="44.51865" lon="0.70699">
        <ele>174.4</ele>
        <time>2017-01-29T08:34:09.000Z</time>
      </trkpt>
      <trkpt lat="44.51863" lon="0.70702">
        <ele>174.5</ele>
        <time>2017-01-29T08:34:10.000Z</time>
      </trkpt>
      <trkpt lat="44.51862" lon="0.70704">
        <ele>174.6</ele>
        <time>2017-01-29T08:34:11.000Z</time>
      </trkpt>
      <trkpt lat="44.5186" lon="0.70707">
        <ele>174.7</ele>
        <time>2017-01-29T08:34:12.000Z</time>
      </trkpt>
      <trkpt lat="44.51858" lon="0.7071">
        <ele>174.7</ele>
        <time>2017-01-29T08:34:13.000Z</time>
      </trkpt>
      <trkpt lat="44.51857" lon="0.70713">
        <ele>174.6</ele>
        <time>2017-01-29T08:34:14.000Z</time>
      </trkpt>
      <trkpt lat="44.51855" lon="0.70717">
        <ele>174.5</ele>
        <time>2017-01-29T08:34:15.000Z</time>
      </trkpt>
      <trkpt lat="44.51854" lon="0.7072">
        <ele>174.4</ele>
        <time>2017-01-29T08:34:16.000Z</time>
      </trkpt>
      <trkpt lat="44.51853" lon="0.70724">
        <ele>174.3</ele>
        <time>2017-01-29T08:34:17.000Z</time>
      </trkpt>
      <trkpt lat="44.51851" lon="0.70727">
        <ele>174.2</ele>
        <time>2017-01-29T08:34:18.000Z</time>
      </trkpt>
      <trkpt lat="44.5185" lon="0.7073">
        <ele>174</ele>
        <time>2017-01-29T08:34:19.000Z</time>
      </trkpt>
      <trkpt lat="44.51848" lon="0.70734">
        <ele>173.9</ele>
        <time>2017-01-29T08:34:20.000Z</time>
      </trkpt>
      <trkpt lat="44.51846" lon="0.70736">
        <ele>173.9</ele>
        <time>2017-01-29T08:34:21.000Z</time>
      </trkpt>
      <trkpt lat="44.51845" lon="0.70739">
        <ele>173.8</ele>
        <time>2017-01-29T08:34:22.000Z</time>
      </trkpt>
      <trkpt lat="44.51843" lon="0.70741">
        <ele>173.8</ele>
        <time>2017-01-29T08:34:23.000Z</time>
      </trkpt>
      <trkpt lat="44.51841" lon="0.70743">
        <ele>173.8</ele>
        <time>2017-01-29T08:34:24.000Z</time>
      </trkpt>
      <trkpt lat="44.5184" lon="0.70745">
        <ele>173.8</ele>
        <time>2017-01-29T08:34:25.000Z</time>
      </trkpt>
      <trkpt lat="44.51838" lon="0.70747">
        <ele>173.7</ele>
        <time>2017-01-29T08:34:26.000Z</time>
      </trkpt>
      <trkpt lat="44.51837" lon="0.70749">
        <ele>173.6</ele>
        <time>2017-01-29T08:34:27.000Z</time>
      </trkpt>
      <trkpt lat="44.51837" lon="0.70751">
        <ele>173.5</ele>
        <time>2017-01-29T08:34:28.000Z</time>
      </trkpt>
      <trkpt lat="44.51836" lon="0.70753">
        <ele>173.4</ele>
        <time>2017-01-29T08:34:29.000Z</time>
      </trkpt>
      <trkpt lat="44.51834" lon="0.70756">
        <ele>173.3</ele>
        <time>2017-01-29T08:34:30.000Z</time>
      </trkpt>
      <trkpt lat="44.51833" lon="0.70758">
        <ele>173.2</ele>
        <time>2017-01-29T08:34:31.000Z</time>
      </trkpt>
      <trkpt lat="44.5183" lon="0.70761">
        <ele>172.8</ele>
        <time>2017-01-29T08:34:32.000Z</time>
      </trkpt>
      <trkpt lat="44.51827" lon="0.70763">
        <ele>172.5</ele>
        <time>2017-01-29T08:34:33.000Z</time>
      </trkpt>
      <trkpt lat="44.51824" lon="0.70765">
        <ele>172.2</ele>
        <time>2017-01-29T08:34:34.000Z</time>
      </trkpt>
      <trkpt lat="44.51821" lon="0.70765">
        <ele>172.1</ele>
        <time>2017-01-29T08:34:35.000Z</time>
      </trkpt>
      <trkpt lat="44.51818" lon="0.70763">
        <ele>172.1</ele>
        <time>2017-01-29T08:34:36.000Z</time>
      </trkpt>
      <trkpt lat="44.51816" lon="0.70761">
        <ele>172.3</ele>
        <time>2017-01-29T08:34:37.000Z</time>
      </trkpt>
      <trkpt lat="44.51815" lon="0.70759">
        <ele>172.5</ele>
        <time>2017-01-29T08:34:38.000Z</time>
      </trkpt>
      <trkpt lat="44.51813" lon="0.70756">
        <ele>172.6</ele>
        <time>2017-01-29T08:34:39.000Z</time>
      </trkpt>
      <trkpt lat="44.51812" lon="0.70754">
        <ele>172.8</ele>
        <time>2017-01-29T08:34:40.000Z</time>
      </trkpt>
      <trkpt lat="44.5181" lon="0.70752">
        <ele>172.9</ele>
        <time>2017-01-29T08:34:41.000Z</time>
      </trkpt>
      <trkpt lat="44.51809" lon="0.70751">
        <ele>173.1</ele>
        <time>2017-01-29T08:34:42.000Z</time>
      </trkpt>
      <trkpt lat="44.51808" lon="0.70749">
        <ele>173.2</ele>
        <time>2017-01-29T08:34:43.000Z</time>
      </trkpt>
      <trkpt lat="44.51806" lon="0.70747">
        <ele>173.4</ele>
        <time>2017-01-29T08:34:44.000Z</time>
      </trkpt>
      <trkpt lat="44.51805" lon="0.70746">
        <ele>173.6</ele>
        <time>2017-01-29T08:34:45.000Z</time>
      </trkpt>
      <trkpt lat="44.51803" lon="0.70744">
        <ele>173.8</ele>
        <time>2017-01-29T08:34:46.000Z</time>
      </trkpt>
      <trkpt lat="44.51802" lon="0.70743">
        <ele>173.9</ele>
        <time>2017-01-29T08:34:47.000Z</time>
      </trkpt>
      <trkpt lat="44.518" lon="0.70741">
        <ele>174.1</ele>
        <time>2017-01-29T08:34:48.000Z</time>
      </trkpt>
      <trkpt lat="44.51799" lon="0.7074">
        <ele>174.2</ele>
        <time>2017-01-29T08:34:49.000Z</time>
      </trkpt>
      <trkpt lat="44.51797" lon="0.70739">
        <ele>174.4</ele>
        <time>2017-01-29T08:34:50.000Z</time>
      </trkpt>
      <trkpt lat="44.51795" lon="0.70737">
        <ele>174.5</ele>
        <time>2017-01-29T08:34:51.000Z</time>
      </trkpt>
      <trkpt lat="44.51794" lon="0.70736">
        <ele>174.6</ele>
        <time>2017-01-29T08:34:52.000Z</time>
      </trkpt>
      <trkpt lat="44.51792" lon="0.70735">
        <ele>174.8</ele>
        <time>2017-01-29T08:34:53.000Z</time>
      </trkpt>
      <trkpt lat="44.51791" lon="0.70734">
        <ele>175</ele>
        <time>2017-01-29T08:34:54.000Z</time>
      </trkpt>
      <trkpt lat="44.51789" lon="0.70732">
        <ele>175.1</ele>
        <time>2017-01-29T08:34:55.000Z</time>
      </trkpt>
      <trkpt lat="44.51788" lon="0.7073">
        <ele>175.4</ele>
        <time>2017-01-29T08:34:56.000Z</time>
      </trkpt>
      <trkpt lat="44.51787" lon="0.70729">
        <ele>175.6</ele>
        <time>2017-01-29T08:34:57.000Z</time>
      </trkpt>
      <trkpt lat="44.51785" lon="0.70727">
        <ele>175.8</ele>
        <time>2017-01-29T08:34:58.000Z</time>
      </trkpt>
      <trkpt lat="44.51784" lon="0.70726">
        <ele>176</ele>
        <time>2017-01-29T08:34:59.000Z</time>
      </trkpt>
      <trkpt lat="44.51782" lon="0.70724">
        <ele>176.2</ele>
        <time>2017-01-29T08:35:00.000Z</time>
      </trkpt>
      <trkpt lat="44.5178" lon="0.70723">
        <ele>176.4</ele>
        <time>2017-01-29T08:35:01.000Z</time>
      </trkpt>
      <trkpt lat="44.51779" lon="0.70722">
        <ele>176.6</ele>
        <time>2017-01-29T08:35:02.000Z</time>
      </trkpt>
      <trkpt lat="44.51777" lon="0.7072">
        <ele>176.7</ele>
        <time>2017-01-29T08:35:03.000Z</time>
      </trkpt>
      <trkpt lat="44.51776" lon="0.70719">
        <ele>176.9</ele>
        <time>2017-01-29T08:35:04.000Z</time>
      </trkpt>
      <trkpt lat="44.51775" lon="0.70718">
        <ele>177.1</ele>
        <time>2017-01-29T08:35:05.000Z</time>
      </trkpt>
      <trkpt lat="44.51773" lon="0.70717">
        <ele>177.3</ele>
        <time>2017-01-29T08:35:06.000Z</time>
      </trkpt>
      <trkpt lat="44.51772" lon="0.70715">
        <ele>177.5</ele>
        <time>2017-01-29T08:35:07.000Z</time>
      </trkpt>
      <trkpt lat="44.51771" lon="0.70714">
        <ele>177.7</ele>
        <time>2017-01-29T08:35:08.000Z</time>
      </trkpt>
      <trkpt lat="44.5177" lon="0.70713">
        <ele>177.9</ele>
        <time>2017-01-29T08:35:09.000Z</time>
      </trkpt>
      <trkpt lat="44.51769" lon="0.70712">
        <ele>178</ele>
        <time>2017-01-29T08:35:10.000Z</time>
      </trkpt>
      <trkpt lat="44.51767" lon="0.70711">
        <ele>178.2</ele>
        <time>2017-01-29T08:35:11.000Z</time>
      </trkpt>
      <trkpt lat="44.51766" lon="0.70709">
        <ele>178.5</ele>
        <time>2017-01-29T08:35:12.000Z</time>
      </trkpt>
      <trkpt lat="44.51765" lon="0.70708">
        <ele>178.6</ele>
        <time>2017-01-29T08:35:13.000Z</time>
      </trkpt>
      <trkpt lat="44.51764" lon="0.70707">
        <ele>178.9</ele>
        <time>2017-01-29T08:35:14.000Z</time>
      </trkpt>
      <trkpt lat="44.51762" lon="0.70706">
        <ele>179.1</ele>
        <time>2017-01-29T08:35:15.000Z</time>
      </trkpt>
      <trkpt lat="44.51761" lon="0.70704">
        <ele>179.3</ele>
        <time>2017-01-29T08:35:16.000Z</time>
      </trkpt>
      <trkpt lat="44.5176" lon="0.70703">
        <ele>179.5</ele>
        <time>2017-01-29T08:35:17.000Z</time>
      </trkpt>
      <trkpt lat="44.51758" lon="0.70702">
        <ele>179.7</ele>
        <time>2017-01-29T08:35:18.000Z</time>
      </trkpt>
      <trkpt lat="44.51757" lon="0.707">
        <ele>179.9</ele>
        <time>2017-01-29T08:35:19.000Z</time>
      </trkpt>
      <trkpt lat="44.51755" lon="0.70699">
        <ele>180.2</ele>
        <time>2017-01-29T08:35:20.000Z</time>
      </trkpt>
      <trkpt lat="44.51754" lon="0.70698">
        <ele>180.4</ele>
        <time>2017-01-29T08:35:21.000Z</time>
      </trkpt>
      <trkpt lat="44.51753" lon="0.70696">
        <ele>180.6</ele>
        <time>2017-01-29T08:35:22.000Z</time>
      </trkpt>
      <trkpt lat="44.51751" lon="0.70695">
        <ele>180.9</ele>
        <time>2017-01-29T08:35:23.000Z</time>
      </trkpt>
      <trkpt lat="44.5175" lon="0.70694">
        <ele>181.1</ele>
        <time>2017-01-29T08:35:24.000Z</time>
      </trkpt>
      <trkpt lat="44.51749" lon="0.70692">
        <ele>181.3</ele>
        <time>2017-01-29T08:35:25.000Z</time>
      </trkpt>
      <trkpt lat="44.51747" lon="0.70691">
        <ele>181.5</ele>
        <time>2017-01-29T08:35:26.000Z</time>
      </trkpt>
      <trkpt lat="44.51746" lon="0.7069">
        <ele>181.7</ele>
        <time>2017-01-29T08:35:27.000Z</time>
      </trkpt>
      <trkpt lat="44.51745" lon="0.70688">
        <ele>181.9</ele>
        <time>2017-01-29T08:35:28.000Z</time>
      </trkpt>
      <trkpt lat="44.51743" lon="0.70687">
        <ele>182.1</ele>
        <time>2017-01-29T08:35:29.000Z</time>
      </trkpt>
      <trkpt lat="44.51742" lon="0.70686">
        <ele>182.3</ele>
        <time>2017-01-29T08:35:30.000Z</time>
      </trkpt>
      <trkpt lat="44.51741" lon="0.70684">
        <ele>182.4</ele>
        <time>2017-01-29T08:35:31.000Z</time>
      </trkpt>
      <trkpt lat="44.51739" lon="0.70683">
        <ele>182.6</ele>
        <time>2017-01-29T08:35:32.000Z</time>
      </trkpt>
      <trkpt lat="44.51738" lon="0.70682">
        <ele>182.8</ele>
        <time>2017-01-29T08:35:33.000Z</time>
      </trkpt>
      <trkpt lat="44.51737" lon="0.70681">
        <ele>182.9</ele>
        <time>2017-01-29T08:35:34.000Z</time>
      </trkpt>
      <trkpt lat="44.51735" lon="0.70679">
        <ele>183.1</ele>
        <time>2017-01-29T08:35:35.000Z</time>
      </trkpt>
      <trkpt lat="44.51734" lon="0.70678">
        <ele>183.2</ele>
        <time>2017-01-29T08:35:36.000Z</time>
      </trkpt>
      <trkpt lat="44.51732" lon="0.70677">
        <ele>183.4</ele>
        <time>2017-01-29T08:35:37.000Z</time>
      </trkpt>
      <trkpt lat="44.51731" lon="0.70676">
        <ele>183.5</ele>
        <time>2017-01-29T08:35:38.000Z</time>
      </trkpt>
      <trkpt lat="44.5173" lon="0.70675">
        <ele>183.6</ele>
        <time>2017-01-29T08:35:39.000Z</time>
      </trkpt>
      <trkpt lat="44.51728" lon="0.70674">
        <ele>183.7</ele>
        <time>2017-01-29T08:35:40.000Z</time>
      </trkpt>
      <trkpt lat="44.51727" lon="0.70673">
        <ele>183.8</ele>
        <time>2017-01-29T08:35:41.000Z</time>
      </trkpt>
      <trkpt lat="44.51725" lon="0.70672">
        <ele>183.9</ele>
        <time>2017-01-29T08:35:42.000Z</time>
      </trkpt>
      <trkpt lat="44.51724" lon="0.70671">
        <ele>184</ele>
        <time>2017-01-29T08:35:43.000Z</time>
      </trkpt>
      <trkpt lat="44.51722" lon="0.7067">
        <ele>184.1</ele>
        <time>2017-01-29T08:35:44.000Z</time>
      </trkpt>
      <trkpt lat="44.51721" lon="0.70669">
        <ele>184.3</ele>
        <time>2017-01-29T08:35:45.000Z</time>
      </trkpt>
      <trkpt lat="44.5172" lon="0.70668">
        <ele>184.4</ele>
        <time>2017-01-29T08:35:46.000Z</time>
      </trkpt>
      <trkpt lat="44.51718" lon="0.70667">
        <ele>184.5</ele>
        <time>2017-01-29T08:35:47.000Z</time>
      </trkpt>
      <trkpt lat="44.51717" lon="0.70665">
        <ele>184.7</ele>
        <time>2017-01-29T08:35:48.000Z</time>
      </trkpt>
      <trkpt lat="44.51716" lon="0.70664">
        <ele>184.8</ele>
        <time>2017-01-29T08:35:49.000Z</time>
      </trkpt>
      <trkpt lat="44.51714" lon="0.70663">
        <ele>185</ele>
        <time>2017-01-29T08:35:50.000Z</time>
      </trkpt>
      <trkpt lat="44.51713" lon="0.70662">
        <ele>185.1</ele>
        <time>2017-01-29T08:35:51.000Z</time>
      </trkpt>
      <trkpt lat="44.51712" lon="0.70661">
        <ele>185.3</ele>
        <time>2017-01-29T08:35:52.000Z</time>
      </trkpt>
      <trkpt lat="44.51711" lon="0.7066">
        <ele>185.4</ele>
        <time>2017-01-29T08:35:53.000Z</time>
      </trkpt>
      <trkpt lat="44.51709" lon="0.70658">
        <ele>185.6</ele>
        <time>2017-01-29T08:35:54.000Z</time>
      </trkpt>
      <trkpt lat="44.51708" lon="0.70657">
        <ele>185.8</ele>
        <time>2017-01-29T08:35:55.000Z</time>
      </trkpt>
      <trkpt lat="44.51707" lon="0.70656">
        <ele>185.9</ele>
        <time>2017-01-29T08:35:56.000Z</time>
      </trkpt>
      <trkpt lat="44.51705" lon="0.70655">
        <ele>186.1</ele>
        <time>2017-01-29T08:35:57.000Z</time>
      </trkpt>
      <trkpt lat="44.51704" lon="0.70653">
        <ele>186.3</ele>
        <time>2017-01-29T08:35:58.000Z</time>
      </trkpt>
      <trkpt lat="44.51703" lon="0.70652">
        <ele>186.4</ele>
        <time>2017-01-29T08:35:59.000Z</time>
      </trkpt>
      <trkpt lat="44.51702" lon="0.70651">
        <ele>186.6</ele>
        <time>2017-01-29T08:36:00.000Z</time>
      </trkpt>
      <trkpt lat="44.517" lon="0.7065">
        <ele>186.8</ele>
        <time>2017-01-29T08:36:01.000Z</time>
      </trkpt>
      <trkpt lat="44.51699" lon="0.70648">
        <ele>186.9</ele>
        <time>2017-01-29T08:36:02.000Z</time>
      </trkpt>
      <trkpt lat="44.51698" lon="0.70647">
        <ele>187.1</ele>
        <time>2017-01-29T08:36:03.000Z</time>
      </trkpt>
      <trkpt lat="44.51696" lon="0.70646">
        <ele>187.2</ele>
        <time>2017-01-29T08:36:04.000Z</time>
      </trkpt>
      <trkpt lat="44.51695" lon="0.70645">
        <ele>187.4</ele>
        <time>2017-01-29T08:36:05.000Z</time>
      </trkpt>
      <trkpt lat="44.51694" lon="0.70643">
        <ele>187.6</ele>
        <time>2017-01-29T08:36:06.000Z</time>
      </trkpt>
      <trkpt lat="44.51692" lon="0.70642">
        <ele>187.7</ele>
        <time>2017-01-29T08:36:07.000Z</time>
      </trkpt>
      <trkpt lat="44.51691" lon="0.70641">
        <ele>187.9</ele>
        <time>2017-01-29T08:36:08.000Z</time>
      </trkpt>
      <trkpt lat="44.5169" lon="0.7064">
        <ele>188.1</ele>
        <time>2017-01-29T08:36:09.000Z</time>
      </trkpt>
      <trkpt lat="44.51689" lon="0.70638">
        <ele>188.2</ele>
        <time>2017-01-29T08:36:10.000Z</time>
      </trkpt>
      <trkpt lat="44.51688" lon="0.70637">
        <ele>188.4</ele>
        <time>2017-01-29T08:36:11.000Z</time>
      </trkpt>
      <trkpt lat="44.51687" lon="0.70636">
        <ele>188.6</ele>
        <time>2017-01-29T08:36:12.000Z</time>
      </trkpt>
      <trkpt lat="44.51685" lon="0.70635">
        <ele>188.8</ele>
        <time>2017-01-29T08:36:13.000Z</time>
      </trkpt>
      <trkpt lat="44.51684" lon="0.70633">
        <ele>188.9</ele>
        <time>2017-01-29T08:36:14.000Z</time>
      </trkpt>
      <trkpt lat="44.51683" lon="0.70632">
        <ele>189.1</ele>
        <time>2017-01-29T08:36:15.000Z</time>
      </trkpt>
      <trkpt lat="44.51682" lon="0.70631">
        <ele>189.3</ele>
        <time>2017-01-29T08:36:16.000Z</time>
      </trkpt>
      <trkpt lat="44.51681" lon="0.7063">
        <ele>189.4</ele>
        <time>2017-01-29T08:36:17.000Z</time>
      </trkpt>
      <trkpt lat="44.51679" lon="0.70628">
        <ele>189.6</ele>
        <time>2017-01-29T08:36:18.000Z</time>
      </trkpt>
      <trkpt lat="44.51678" lon="0.70627">
        <ele>189.7</ele>
        <time>2017-01-29T08:36:19.000Z</time>
      </trkpt>
      <trkpt lat="44.51677" lon="0.70626">
        <ele>189.9</ele>
        <time>2017-01-29T08:36:20.000Z</time>
      </trkpt>
      <trkpt lat="44.51676" lon="0.70625">
        <ele>190</ele>
        <time>2017-01-29T08:36:21.000Z</time>
      </trkpt>
      <trkpt lat="44.51674" lon="0.70623">
        <ele>190.2</ele>
        <time>2017-01-29T08:36:22.000Z</time>
      </trkpt>
      <trkpt lat="44.51673" lon="0.70622">
        <ele>190.4</ele>
        <time>2017-01-29T08:36:23.000Z</time>
      </trkpt>
      <trkpt lat="44.51672" lon="0.70621">
        <ele>190.5</ele>
        <time>2017-01-29T08:36:24.000Z</time>
      </trkpt>
      <trkpt lat="44.51671" lon="0.7062">
        <ele>190.7</ele>
        <time>2017-01-29T08:36:25.000Z</time>
      </trkpt>
      <trkpt lat="44.5167" lon="0.70619">
        <ele>190.8</ele>
        <time>2017-01-29T08:36:26.000Z</time>
      </trkpt>
      <trkpt lat="44.51668" lon="0.70617">
        <ele>191</ele>
        <time>2017-01-29T08:36:27.000Z</time>
      </trkpt>
      <trkpt lat="44.51667" lon="0.70616">
        <ele>191.1</ele>
        <time>2017-01-29T08:36:28.000Z</time>
      </trkpt>
      <trkpt lat="44.51666" lon="0.70615">
        <ele>191.3</ele>
        <time>2017-01-29T08:36:29.000Z</time>
      </trkpt>
      <trkpt lat="44.51665" lon="0.70614">
        <ele>191.5</ele>
        <time>2017-01-29T08:36:30.000Z</time>
      </trkpt>
      <trkpt lat="44.51664" lon="0.70612">
        <ele>191.7</ele>
        <time>2017-01-29T08:36:31.000Z</time>
      </trkpt>
      <trkpt lat="44.51663" lon="0.70611">
        <ele>191.9</ele>
        <time>2017-01-29T08:36:32.000Z</time>
      </trkpt>
      <trkpt lat="44.51661" lon="0.7061">
        <ele>192</ele>
        <time>2017-01-29T08:36:33.000Z</time>
      </trkpt>
      <trkpt lat="44.5166" lon="0.70609">
        <ele>192.2</ele>
        <time>2017-01-29T08:36:34.000Z</time>
      </trkpt>
      <trkpt lat="44.51659" lon="0.70607">
        <ele>192.4</ele>
        <time>2017-01-29T08:36:35.000Z</time>
      </trkpt>
      <trkpt lat="44.51658" lon="0.70606">
        <ele>192.6</ele>
        <time>2017-01-29T08:36:36.000Z</time>
      </trkpt>
      <trkpt lat="44.51656" lon="0.70605">
        <ele>192.7</ele>
        <time>2017-01-29T08:36:37.000Z</time>
      </trkpt>
      <trkpt lat="44.51655" lon="0.70604">
        <ele>192.9</ele>
        <time>2017-01-29T08:36:38.000Z</time>
      </trkpt>
      <trkpt lat="44.51654" lon="0.70602">
        <ele>193.1</ele>
        <time>2017-01-29T08:36:39.000Z</time>
      </trkpt>
      <trkpt lat="44.51653" lon="0.70601">
        <ele>193.3</ele>
        <time>2017-01-29T08:36:40.000Z</time>
      </trkpt>
      <trkpt lat="44.51651" lon="0.706">
        <ele>193.4</ele>
        <time>2017-01-29T08:36:41.000Z</time>
      </trkpt>
      <trkpt lat="44.5165" lon="0.70598">
        <ele>193.6</ele>
        <time>2017-01-29T08:36:42.000Z</time>
      </trkpt>
      <trkpt lat="44.51649" lon="0.70597">
        <ele>193.8</ele>
        <time>2017-01-29T08:36:43.000Z</time>
      </trkpt>
      <trkpt lat="44.51647" lon="0.70596">
        <ele>194</ele>
        <time>2017-01-29T08:36:44.000Z</time>
      </trkpt>
      <trkpt lat="44.51646" lon="0.70594">
        <ele>194.1</ele>
        <time>2017-01-29T08:36:45.000Z</time>
      </trkpt>
      <trkpt lat="44.51645" lon="0.70593">
        <ele>194.3</ele>
        <time>2017-01-29T08:36:46.000Z</time>
      </trkpt>
      <trkpt lat="44.51643" lon="0.70592">
        <ele>194.5</ele>
        <time>2017-01-29T08:36:47.000Z</time>
      </trkpt>
      <trkpt lat="44.51642" lon="0.7059">
        <ele>194.6</ele>
        <time>2017-01-29T08:36:48.000Z</time>
      </trkpt>
      <trkpt lat="44.51641" lon="0.70589">
        <ele>194.8</ele>
        <time>2017-01-29T08:36:49.000Z</time>
      </trkpt>
      <trkpt lat="44.5164" lon="0.70588">
        <ele>194.9</ele>
        <time>2017-01-29T08:36:50.000Z</time>
      </trkpt>
      <trkpt lat="44.51638" lon="0.70587">
        <ele>195.1</ele>
        <time>2017-01-29T08:36:51.000Z</time>
      </trkpt>
      <trkpt lat="44.51637" lon="0.70586">
        <ele>195.2</ele>
        <time>2017-01-29T08:36:52.000Z</time>
      </trkpt>
      <trkpt lat="44.51636" lon="0.70585">
        <ele>195.3</ele>
        <time>2017-01-29T08:36:53.000Z</time>
      </trkpt>
      <trkpt lat="44.51635" lon="0.70583">
        <ele>195.5</ele>
        <time>2017-01-29T08:36:54.000Z</time>
      </trkpt>
      <trkpt lat="44.51634" lon="0.70582">
        <ele>195.5</ele>
        <time>2017-01-29T08:36:55.000Z</time>
      </trkpt>
      <trkpt lat="44.51633" lon="0.70581">
        <ele>195.5</ele>
        <time>2017-01-29T08:36:56.000Z</time>
      </trkpt>
      <trkpt lat="44.51632" lon="0.7058">
        <ele>195.5</ele>
        <time>2017-01-29T08:36:57.000Z</time>
      </trkpt>
      <trkpt lat="44.5163" lon="0.70578">
        <ele>195.6</ele>
        <time>2017-01-29T08:36:58.000Z</time>
      </trkpt>
      <trkpt lat="44.51629" lon="0.70577">
        <ele>195.6</ele>
        <time>2017-01-29T08:36:59.000Z</time>
      </trkpt>
      <trkpt lat="44.51627" lon="0.70576">
        <ele>195.6</ele>
        <time>2017-01-29T08:37:00.000Z</time>
      </trkpt>
      <trkpt lat="44.51626" lon="0.70574">
        <ele>195.6</ele>
        <time>2017-01-29T08:37:01.000Z</time>
      </trkpt>
      <trkpt lat="44.51625" lon="0.70573">
        <ele>195.6</ele>
        <time>2017-01-29T08:37:02.000Z</time>
      </trkpt>
      <trkpt lat="44.51623" lon="0.70572">
        <ele>195.6</ele>
        <time>2017-01-29T08:37:03.000Z</time>
      </trkpt>
      <trkpt lat="44.51622" lon="0.7057">
        <ele>195.6</ele>
        <time>2017-01-29T08:37:04.000Z</time>
      </trkpt>
      <trkpt lat="44.51621" lon="0.70569">
        <ele>195.6</ele>
        <time>2017-01-29T08:37:05.000Z</time>
      </trkpt>
      <trkpt lat="44.5162" lon="0.70568">
        <ele>195.6</ele>
        <time>2017-01-29T08:37:06.000Z</time>
      </trkpt>
      <trkpt lat="44.51619" lon="0.70567">
        <ele>195.6</ele>
        <time>2017-01-29T08:37:07.000Z</time>
      </trkpt>
      <trkpt lat="44.51617" lon="0.70566">
        <ele>195.6</ele>
        <time>2017-01-29T08:37:08.000Z</time>
      </trkpt>
      <trkpt lat="44.51616" lon="0.70564">
        <ele>195.6</ele>
        <time>2017-01-29T08:37:09.000Z</time>
      </trkpt>
      <trkpt lat="44.51615" lon="0.70563">
        <ele>195.6</ele>
        <time>2017-01-29T08:37:10.000Z</time>
      </trkpt>
      <trkpt lat="44.51614" lon="0.70562">
        <ele>195.6</ele>
        <time>2017-01-29T08:37:11.000Z</time>
      </trkpt>
      <trkpt lat="44.51613" lon="0.7056">
        <ele>195.7</ele>
        <time>2017-01-29T08:37:12.000Z</time>
      </trkpt>
      <trkpt lat="44.51612" lon="0.70559">
        <ele>195.7</ele>
        <time>2017-01-29T08:37:13.000Z</time>
      </trkpt>
      <trkpt lat="44.51611" lon="0.70558">
        <ele>195.7</ele>
        <time>2017-01-29T08:37:14.000Z</time>
      </trkpt>
      <trkpt lat="44.5161" lon="0.70556">
        <ele>195.6</ele>
        <time>2017-01-29T08:37:15.000Z</time>
      </trkpt>
      <trkpt lat="44.51609" lon="0.70555">
        <ele>195.6</ele>
        <time>2017-01-29T08:37:16.000Z</time>
      </trkpt>
      <trkpt lat="44.51607" lon="0.70554">
        <ele>195.6</ele>
        <time>2017-01-29T08:37:17.000Z</time>
      </trkpt>
      <trkpt lat="44.51606" lon="0.70553">
        <ele>195.6</ele>
        <time>2017-01-29T08:37:18.000Z</time>
      </trkpt>
      <trkpt lat="44.51605" lon="0.70552">
        <ele>195.6</ele>
        <time>2017-01-29T08:37:19.000Z</time>
      </trkpt>
      <trkpt lat="44.51604" lon="0.70551">
        <ele>195.6</ele>
        <time>2017-01-29T08:37:20.000Z</time>
      </trkpt>
      <trkpt lat="44.51603" lon="0.7055">
        <ele>195.5</ele>
        <time>2017-01-29T08:37:21.000Z</time>
      </trkpt>
      <trkpt lat="44.51601" lon="0.70549">
        <ele>195.5</ele>
        <time>2017-01-29T08:37:22.000Z</time>
      </trkpt>
      <trkpt lat="44.516" lon="0.70548">
        <ele>195.4</ele>
        <time>2017-01-29T08:37:23.000Z</time>
      </trkpt>
      <trkpt lat="44.51599" lon="0.70547">
        <ele>195.4</ele>
        <time>2017-01-29T08:37:24.000Z</time>
      </trkpt>
      <trkpt lat="44.51598" lon="0.70546">
        <ele>195.3</ele>
        <time>2017-01-29T08:37:25.000Z</time>
      </trkpt>
      <trkpt lat="44.51596" lon="0.70545">
        <ele>195.3</ele>
        <time>2017-01-29T08:37:26.000Z</time>
      </trkpt>
      <trkpt lat="44.51595" lon="0.70544">
        <ele>195.2</ele>
        <time>2017-01-29T08:37:27.000Z</time>
      </trkpt>
      <trkpt lat="44.51593" lon="0.70544">
        <ele>195.1</ele>
        <time>2017-01-29T08:37:28.000Z</time>
      </trkpt>
      <trkpt lat="44.51591" lon="0.70543">
        <ele>195</ele>
        <time>2017-01-29T08:37:29.000Z</time>
      </trkpt>
      <trkpt lat="44.51589" lon="0.70543">
        <ele>194.9</ele>
        <time>2017-01-29T08:37:30.000Z</time>
      </trkpt>
      <trkpt lat="44.51588" lon="0.70543">
        <ele>194.7</ele>
        <time>2017-01-29T08:37:31.000Z</time>
      </trkpt>
      <trkpt lat="44.51586" lon="0.70544">
        <ele>194.6</ele>
        <time>2017-01-29T08:37:32.000Z</time>
      </trkpt>
      <trkpt lat="44.51584" lon="0.70545">
        <ele>194.4</ele>
        <time>2017-01-29T08:37:33.000Z</time>
      </trkpt>
      <trkpt lat="44.51582" lon="0.70546">
        <ele>194.3</ele>
        <time>2017-01-29T08:37:34.000Z</time>
      </trkpt>
      <trkpt lat="44.5158" lon="0.70547">
        <ele>194.2</ele>
        <time>2017-01-29T08:37:35.000Z</time>
      </trkpt>
      <trkpt lat="44.51579" lon="0.70548">
        <ele>194.1</ele>
        <time>2017-01-29T08:37:36.000Z</time>
      </trkpt>
      <trkpt lat="44.51577" lon="0.70549">
        <ele>194</ele>
        <time>2017-01-29T08:37:37.000Z</time>
      </trkpt>
      <trkpt lat="44.51575" lon="0.7055">
        <ele>193.8</ele>
        <time>2017-01-29T08:37:38.000Z</time>
      </trkpt>
      <trkpt lat="44.51573" lon="0.70551">
        <ele>193.7</ele>
        <time>2017-01-29T08:37:39.000Z</time>
      </trkpt>
      <trkpt lat="44.51571" lon="0.70552">
        <ele>193.6</ele>
        <time>2017-01-29T08:37:40.000Z</time>
      </trkpt>
      <trkpt lat="44.51569" lon="0.70554">
        <ele>193.5</ele>
        <time>2017-01-29T08:37:41.000Z</time>
      </trkpt>
      <trkpt lat="44.51567" lon="0.70555">
        <ele>193.4</ele>
        <time>2017-01-29T08:37:42.000Z</time>
      </trkpt>
      <trkpt lat="44.51564" lon="0.70556">
        <ele>193.3</ele>
        <time>2017-01-29T08:37:43.000Z</time>
      </trkpt>
      <trkpt lat="44.51562" lon="0.70557">
        <ele>193.2</ele>
        <time>2017-01-29T08:37:44.000Z</time>
      </trkpt>
      <trkpt lat="44.5156" lon="0.70559">
        <ele>193.1</ele>
        <time>2017-01-29T08:37:45.000Z</time>
      </trkpt>
      <trkpt lat="44.51558" lon="0.7056">
        <ele>193.1</ele>
        <time>2017-01-29T08:37:46.000Z</time>
      </trkpt>
      <trkpt lat="44.51555" lon="0.70561">
        <ele>193</ele>
        <time>2017-01-29T08:37:47.000Z</time>
      </trkpt>
      <trkpt lat="44.51553" lon="0.70562">
        <ele>192.9</ele>
        <time>2017-01-29T08:37:48.000Z</time>
      </trkpt>
      <trkpt lat="44.51551" lon="0.70563">
        <ele>192.9</ele>
        <time>2017-01-29T08:37:49.000Z</time>
      </trkpt>
      <trkpt lat="44.51548" lon="0.70564">
        <ele>192.8</ele>
        <time>2017-01-29T08:37:50.000Z</time>
      </trkpt>
      <trkpt lat="44.51546" lon="0.70565">
        <ele>192.8</ele>
        <time>2017-01-29T08:37:51.000Z</time>
      </trkpt>
      <trkpt lat="44.51544" lon="0.70566">
        <ele>192.7</ele>
        <time>2017-01-29T08:37:52.000Z</time>
      </trkpt>
      <trkpt lat="44.51541" lon="0.70568">
        <ele>192.7</ele>
        <time>2017-01-29T08:37:53.000Z</time>
      </trkpt>
      <trkpt lat="44.51539" lon="0.70569">
        <ele>192.7</ele>
        <time>2017-01-29T08:37:54.000Z</time>
      </trkpt>
      <trkpt lat="44.51536" lon="0.7057">
        <ele>192.7</ele>
        <time>2017-01-29T08:37:55.000Z</time>
      </trkpt>
      <trkpt lat="44.51533" lon="0.70571">
        <ele>192.6</ele>
        <time>2017-01-29T08:37:56.000Z</time>
      </trkpt>
      <trkpt lat="44.51531" lon="0.70572">
        <ele>192.6</ele>
        <time>2017-01-29T08:37:57.000Z</time>
      </trkpt>
      <trkpt lat="44.51528" lon="0.70573">
        <ele>192.6</ele>
        <time>2017-01-29T08:37:58.000Z</time>
      </trkpt>
      <trkpt lat="44.51525" lon="0.70574">
        <ele>192.6</ele>
        <time>2017-01-29T08:37:59.000Z</time>
      </trkpt>
      <trkpt lat="44.51522" lon="0.70574">
        <ele>192.6</ele>
        <time>2017-01-29T08:38:00.000Z</time>
      </trkpt>
      <trkpt lat="44.5152" lon="0.70575">
        <ele>192.6</ele>
        <time>2017-01-29T08:38:01.000Z</time>
      </trkpt>
      <trkpt lat="44.51516" lon="0.70576">
        <ele>192.6</ele>
        <time>2017-01-29T08:38:02.000Z</time>
      </trkpt>
      <trkpt lat="44.51513" lon="0.70577">
        <ele>192.6</ele>
        <time>2017-01-29T08:38:03.000Z</time>
      </trkpt>
      <trkpt lat="44.5151" lon="0.70578">
        <ele>192.7</ele>
        <time>2017-01-29T08:38:04.000Z</time>
      </trkpt>
      <trkpt lat="44.51507" lon="0.70579">
        <ele>192.7</ele>
        <time>2017-01-29T08:38:05.000Z</time>
      </trkpt>
      <trkpt lat="44.51504" lon="0.7058">
        <ele>192.8</ele>
        <time>2017-01-29T08:38:06.000Z</time>
      </trkpt>
      <trkpt lat="44.515" lon="0.70582">
        <ele>192.9</ele>
        <time>2017-01-29T08:38:07.000Z</time>
      </trkpt>
      <trkpt lat="44.51497" lon="0.70583">
        <ele>193</ele>
        <time>2017-01-29T08:38:08.000Z</time>
      </trkpt>
      <trkpt lat="44.51493" lon="0.70585">
        <ele>192.7</ele>
        <time>2017-01-29T08:38:09.000Z</time>
      </trkpt>
      <trkpt lat="44.51489" lon="0.70587">
        <ele>192.5</ele>
        <time>2017-01-29T08:38:10.000Z</time>
      </trkpt>
      <trkpt lat="44.51485" lon="0.70588">
        <ele>192.3</ele>
        <time>2017-01-29T08:38:11.000Z</time>
      </trkpt>
      <trkpt lat="44.51481" lon="0.70588">
        <ele>192.1</ele>
        <time>2017-01-29T08:38:12.000Z</time>
      </trkpt>
      <trkpt lat="44.51478" lon="0.70589">
        <ele>192</ele>
        <time>2017-01-29T08:38:13.000Z</time>
      </trkpt>
      <trkpt lat="44.51475" lon="0.70589">
        <ele>192</ele>
        <time>2017-01-29T08:38:14.000Z</time>
      </trkpt>
      <trkpt lat="44.51472" lon="0.70589">
        <ele>191.9</ele>
        <time>2017-01-29T08:38:15.000Z</time>
      </trkpt>
      <trkpt lat="44.51469" lon="0.7059">
        <ele>191.9</ele>
        <time>2017-01-29T08:38:16.000Z</time>
      </trkpt>
      <trkpt lat="44.51466" lon="0.7059">
        <ele>191.8</ele>
        <time>2017-01-29T08:38:17.000Z</time>
      </trkpt>
      <trkpt lat="44.51463" lon="0.7059">
        <ele>191.7</ele>
        <time>2017-01-29T08:38:18.000Z</time>
      </trkpt>
      <trkpt lat="44.5146" lon="0.70591">
        <ele>191.6</ele>
        <time>2017-01-29T08:38:19.000Z</time>
      </trkpt>
      <trkpt lat="44.51457" lon="0.70591">
        <ele>191.5</ele>
        <time>2017-01-29T08:38:20.000Z</time>
      </trkpt>
      <trkpt lat="44.51454" lon="0.70592">
        <ele>191.4</ele>
        <time>2017-01-29T08:38:21.000Z</time>
      </trkpt>
      <trkpt lat="44.51451" lon="0.70592">
        <ele>191.4</ele>
        <time>2017-01-29T08:38:22.000Z</time>
      </trkpt>
      <trkpt lat="44.51448" lon="0.70593">
        <ele>191.3</ele>
        <time>2017-01-29T08:38:23.000Z</time>
      </trkpt>
      <trkpt lat="44.51445" lon="0.70593">
        <ele>191.2</ele>
        <time>2017-01-29T08:38:24.000Z</time>
      </trkpt>
      <trkpt lat="44.51442" lon="0.70594">
        <ele>191.1</ele>
        <time>2017-01-29T08:38:25.000Z</time>
      </trkpt>
      <trkpt lat="44.51439" lon="0.70594">
        <ele>191.1</ele>
        <time>2017-01-29T08:38:26.000Z</time>
      </trkpt>
      <trkpt lat="44.51436" lon="0.70594">
        <ele>191</ele>
        <time>2017-01-29T08:38:27.000Z</time>
      </trkpt>
      <trkpt lat="44.51432" lon="0.70595">
        <ele>190.9</ele>
        <time>2017-01-29T08:38:28.000Z</time>
      </trkpt>
      <trkpt lat="44.51429" lon="0.70595">
        <ele>190.8</ele>
        <time>2017-01-29T08:38:29.000Z</time>
      </trkpt>
      <trkpt lat="44.51426" lon="0.70596">
        <ele>190.7</ele>
        <time>2017-01-29T08:38:30.000Z</time>
      </trkpt>
      <trkpt lat="44.51423" lon="0.70597">
        <ele>190.6</ele>
        <time>2017-01-29T08:38:31.000Z</time>
      </trkpt>
      <trkpt lat="44.5142" lon="0.70597">
        <ele>190.5</ele>
        <time>2017-01-29T08:38:32.000Z</time>
      </trkpt>
      <trkpt lat="44.51416" lon="0.70598">
        <ele>190.5</ele>
        <time>2017-01-29T08:38:33.000Z</time>
      </trkpt>
      <trkpt lat="44.51413" lon="0.70598">
        <ele>190.8</ele>
        <time>2017-01-29T08:38:34.000Z</time>
      </trkpt>
      <trkpt lat="44.5141" lon="0.70599">
        <ele>191.2</ele>
        <time>2017-01-29T08:38:35.000Z</time>
      </trkpt>
      <trkpt lat="44.51406" lon="0.70599">
        <ele>191.6</ele>
        <time>2017-01-29T08:38:36.000Z</time>
      </trkpt>
      <trkpt lat="44.51403" lon="0.70599">
        <ele>192</ele>
        <time>2017-01-29T08:38:37.000Z</time>
      </trkpt>
      <trkpt lat="44.514" lon="0.70599">
        <ele>192.4</ele>
        <time>2017-01-29T08:38:38.000Z</time>
      </trkpt>
      <trkpt lat="44.51396" lon="0.70599">
        <ele>192.8</ele>
        <time>2017-01-29T08:38:39.000Z</time>
      </trkpt>
      <trkpt lat="44.51393" lon="0.70599">
        <ele>193.3</ele>
        <time>2017-01-29T08:38:40.000Z</time>
      </trkpt>
      <trkpt lat="44.5139" lon="0.70598">
        <ele>193.7</ele>
        <time>2017-01-29T08:38:41.000Z</time>
      </trkpt>
      <trkpt lat="44.51387" lon="0.70598">
        <ele>194.1</ele>
        <time>2017-01-29T08:38:42.000Z</time>
      </trkpt>
      <trkpt lat="44.51384" lon="0.70598">
        <ele>194.5</ele>
        <time>2017-01-29T08:38:43.000Z</time>
      </trkpt>
      <trkpt lat="44.51381" lon="0.70597">
        <ele>194.9</ele>
        <time>2017-01-29T08:38:44.000Z</time>
      </trkpt>
      <trkpt lat="44.51378" lon="0.70597">
        <ele>195.3</ele>
        <time>2017-01-29T08:38:45.000Z</time>
      </trkpt>
      <trkpt lat="44.51375" lon="0.70597">
        <ele>195.7</ele>
        <time>2017-01-29T08:38:46.000Z</time>
      </trkpt>
      <trkpt lat="44.51372" lon="0.70597">
        <ele>196</ele>
        <time>2017-01-29T08:38:47.000Z</time>
      </trkpt>
      <trkpt lat="44.51369" lon="0.70596">
        <ele>196.4</ele>
        <time>2017-01-29T08:38:48.000Z</time>
      </trkpt>
      <trkpt lat="44.51366" lon="0.70596">
        <ele>196.8</ele>
        <time>2017-01-29T08:38:49.000Z</time>
      </trkpt>
      <trkpt lat="44.51363" lon="0.70596">
        <ele>197.2</ele>
        <time>2017-01-29T08:38:50.000Z</time>
      </trkpt>
      <trkpt lat="44.51361" lon="0.70596">
        <ele>197.5</ele>
        <time>2017-01-29T08:38:51.000Z</time>
      </trkpt>
      <trkpt lat="44.51358" lon="0.70595">
        <ele>197.9</ele>
        <time>2017-01-29T08:38:52.000Z</time>
      </trkpt>
      <trkpt lat="44.51355" lon="0.70595">
        <ele>198.2</ele>
        <time>2017-01-29T08:38:53.000Z</time>
      </trkpt>
      <trkpt lat="44.51352" lon="0.70595">
        <ele>198.5</ele>
        <time>2017-01-29T08:38:54.000Z</time>
      </trkpt>
      <trkpt lat="44.5135" lon="0.70595">
        <ele>198.9</ele>
        <time>2017-01-29T08:38:55.000Z</time>
      </trkpt>
      <trkpt lat="44.51347" lon="0.70595">
        <ele>199.2</ele>
        <time>2017-01-29T08:38:56.000Z</time>
      </trkpt>
      <trkpt lat="44.51344" lon="0.70595">
        <ele>199.6</ele>
        <time>2017-01-29T08:38:57.000Z</time>
      </trkpt>
      <trkpt lat="44.51341" lon="0.70595">
        <ele>199.9</ele>
        <time>2017-01-29T08:38:58.000Z</time>
      </trkpt>
      <trkpt lat="44.51338" lon="0.70594">
        <ele>200.3</ele>
        <time>2017-01-29T08:38:59.000Z</time>
      </trkpt>
      <trkpt lat="44.51336" lon="0.70594">
        <ele>200.7</ele>
        <time>2017-01-29T08:39:00.000Z</time>
      </trkpt>
      <trkpt lat="44.51333" lon="0.70593">
        <ele>201.1</ele>
        <time>2017-01-29T08:39:01.000Z</time>
      </trkpt>
      <trkpt lat="44.5133" lon="0.70593">
        <ele>201.4</ele>
        <time>2017-01-29T08:39:02.000Z</time>
      </trkpt>
      <trkpt lat="44.51327" lon="0.70592">
        <ele>201.7</ele>
        <time>2017-01-29T08:39:03.000Z</time>
      </trkpt>
      <trkpt lat="44.51324" lon="0.70592">
        <ele>202</ele>
        <time>2017-01-29T08:39:04.000Z</time>
      </trkpt>
      <trkpt lat="44.51321" lon="0.70592">
        <ele>202.3</ele>
        <time>2017-01-29T08:39:05.000Z</time>
      </trkpt>
      <trkpt lat="44.51319" lon="0.70591">
        <ele>202.5</ele>
        <time>2017-01-29T08:39:06.000Z</time>
      </trkpt>
      <trkpt lat="44.51316" lon="0.70591">
        <ele>202.8</ele>
        <time>2017-01-29T08:39:07.000Z</time>
      </trkpt>
      <trkpt lat="44.51313" lon="0.70591">
        <ele>203</ele>
        <time>2017-01-29T08:39:08.000Z</time>
      </trkpt>
      <trkpt lat="44.51311" lon="0.7059">
        <ele>203.3</ele>
        <time>2017-01-29T08:39:09.000Z</time>
      </trkpt>
      <trkpt lat="44.51308" lon="0.7059">
        <ele>203.6</ele>
        <time>2017-01-29T08:39:10.000Z</time>
      </trkpt>
      <trkpt lat="44.51305" lon="0.7059">
        <ele>203.8</ele>
        <time>2017-01-29T08:39:11.000Z</time>
      </trkpt>
      <trkpt lat="44.51303" lon="0.70589">
        <ele>204.1</ele>
        <time>2017-01-29T08:39:12.000Z</time>
      </trkpt>
      <trkpt lat="44.513" lon="0.70589">
        <ele>204.4</ele>
        <time>2017-01-29T08:39:13.000Z</time>
      </trkpt>
      <trkpt lat="44.51297" lon="0.70588">
        <ele>204.7</ele>
        <time>2017-01-29T08:39:14.000Z</time>
      </trkpt>
      <trkpt lat="44.51295" lon="0.70588">
        <ele>204.9</ele>
        <time>2017-01-29T08:39:15.000Z</time>
      </trkpt>
      <trkpt lat="44.51292" lon="0.70587">
        <ele>205.2</ele>
        <time>2017-01-29T08:39:16.000Z</time>
      </trkpt>
      <trkpt lat="44.51289" lon="0.70587">
        <ele>205.5</ele>
        <time>2017-01-29T08:39:17.000Z</time>
      </trkpt>
      <trkpt lat="44.51287" lon="0.70586">
        <ele>205.7</ele>
        <time>2017-01-29T08:39:18.000Z</time>
      </trkpt>
      <trkpt lat="44.51284" lon="0.70586">
        <ele>206</ele>
        <time>2017-01-29T08:39:19.000Z</time>
      </trkpt>
      <trkpt lat="44.51281" lon="0.70585">
        <ele>206.2</ele>
        <time>2017-01-29T08:39:20.000Z</time>
      </trkpt>
      <trkpt lat="44.51279" lon="0.70585">
        <ele>206.5</ele>
        <time>2017-01-29T08:39:21.000Z</time>
      </trkpt>
      <trkpt lat="44.51276" lon="0.70584">
        <ele>206.8</ele>
        <time>2017-01-29T08:39:22.000Z</time>
      </trkpt>
      <trkpt lat="44.51274" lon="0.70584">
        <ele>207</ele>
        <time>2017-01-29T08:39:23.000Z</time>
      </trkpt>
      <trkpt lat="44.51271" lon="0.70583">
        <ele>207.2</ele>
        <time>2017-01-29T08:39:24.000Z</time>
      </trkpt>
      <trkpt lat="44.51269" lon="0.70583">
        <ele>207.4</ele>
        <time>2017-01-29T08:39:25.000Z</time>
      </trkpt>
      <trkpt lat="44.51266" lon="0.70582">
        <ele>207.6</ele>
        <time>2017-01-29T08:39:26.000Z</time>
      </trkpt>
      <trkpt lat="44.51264" lon="0.70582">
        <ele>207.8</ele>
        <time>2017-01-29T08:39:27.000Z</time>
      </trkpt>
      <trkpt lat="44.51262" lon="0.70582">
        <ele>207.9</ele>
        <time>2017-01-29T08:39:28.000Z</time>
      </trkpt>
      <trkpt lat="44.5126" lon="0.70581">
        <ele>208.1</ele>
        <time>2017-01-29T08:39:29.000Z</time>
      </trkpt>
      <trkpt lat="44.51257" lon="0.70581">
        <ele>208.3</ele>
        <time>2017-01-29T08:39:30.000Z</time>
      </trkpt>
      <trkpt lat="44.51255" lon="0.7058">
        <ele>208.5</ele>
        <time>2017-01-29T08:39:31.000Z</time>
      </trkpt>
      <trkpt lat="44.51253" lon="0.7058">
        <ele>208.6</ele>
        <time>2017-01-29T08:39:32.000Z</time>
      </trkpt>
      <trkpt lat="44.51251" lon="0.70579">
        <ele>208.8</ele>
        <time>2017-01-29T08:39:33.000Z</time>
      </trkpt>
      <trkpt lat="44.51248" lon="0.70579">
        <ele>208.9</ele>
        <time>2017-01-29T08:39:34.000Z</time>
      </trkpt>
      <trkpt lat="44.51246" lon="0.70578">
        <ele>208.9</ele>
        <time>2017-01-29T08:39:35.000Z</time>
      </trkpt>
      <trkpt lat="44.51243" lon="0.70578">
        <ele>209</ele>
        <time>2017-01-29T08:39:36.000Z</time>
      </trkpt>
      <trkpt lat="44.51241" lon="0.70577">
        <ele>209</ele>
        <time>2017-01-29T08:39:37.000Z</time>
      </trkpt>
      <trkpt lat="44.51238" lon="0.70576">
        <ele>209</ele>
        <time>2017-01-29T08:39:38.000Z</time>
      </trkpt>
      <trkpt lat="44.51236" lon="0.70576">
        <ele>209</ele>
        <time>2017-01-29T08:39:39.000Z</time>
      </trkpt>
      <trkpt lat="44.51234" lon="0.70576">
        <ele>209.1</ele>
        <time>2017-01-29T08:39:40.000Z</time>
      </trkpt>
      <trkpt lat="44.51231" lon="0.70575">
        <ele>209.1</ele>
        <time>2017-01-29T08:39:41.000Z</time>
      </trkpt>
      <trkpt lat="44.51229" lon="0.70575">
        <ele>209.1</ele>
        <time>2017-01-29T08:39:42.000Z</time>
      </trkpt>
      <trkpt lat="44.51227" lon="0.70575">
        <ele>209.2</ele>
        <time>2017-01-29T08:39:43.000Z</time>
      </trkpt>
      <trkpt lat="44.51225" lon="0.70575">
        <ele>209.2</ele>
        <time>2017-01-29T08:39:44.000Z</time>
      </trkpt>
      <trkpt lat="44.51223" lon="0.70574">
        <ele>209.2</ele>
        <time>2017-01-29T08:39:45.000Z</time>
      </trkpt>
      <trkpt lat="44.51222" lon="0.70574">
        <ele>209.2</ele>
        <time>2017-01-29T08:39:46.000Z</time>
      </trkpt>
      <trkpt lat="44.51221" lon="0.70573">
        <ele>209.2</ele>
        <time>2017-01-29T08:39:47.000Z</time>
      </trkpt>
      <trkpt lat="44.51221" lon="0.70573">
        <ele>209.2</ele>
        <time>2017-01-29T08:39:48.000Z</time>
      </trkpt>
      <trkpt lat="44.51221" lon="0.70573">
        <ele>209.2</ele>
        <time>2017-01-29T08:39:49.000Z</time>
      </trkpt>
      <trkpt lat="44.51221" lon="0.70573">
        <ele>209.2</ele>
        <time>2017-01-29T08:39:50.000Z</time>
      </trkpt>
      <trkpt lat="44.51221" lon="0.70573">
        <ele>209.2</ele>
        <time>2017-01-29T08:39:51.000Z</time>
      </trkpt>
      <trkpt lat="44.51221" lon="0.70573">
        <ele>209.2</ele>
        <time>2017-01-29T08:39:52.000Z</time>
      </trkpt>
      <trkpt lat="44.51221" lon="0.70573">
        <ele>209.2</ele>
        <time>2017-01-29T08:39:53.000Z</time>
      </trkpt>
      <trkpt lat="44.51221" lon="0.70573">
        <ele>209.2</ele>
        <time>2017-01-29T08:39:54.000Z</time>
      </trkpt>
      <trkpt lat="44.51221" lon="0.70573">
        <ele>209.2</ele>
        <time>2017-01-29T08:39:55.000Z</time>
      </trkpt>
      <trkpt lat="44.51221" lon="0.70573">
        <ele>209.2</ele>
        <time>2017-01-29T08:39:56.000Z</time>
      </trkpt>
      <trkpt lat="44.51221" lon="0.70573">
        <ele>209.2</ele>
        <time>2017-01-29T08:39:57.000Z</time>
      </trkpt>
      <trkpt lat="44.51221" lon="0.70573">
        <ele>209.2</ele>
        <time>2017-01-29T08:39:58.000Z</time>
      </trkpt>
      <trkpt lat="44.51221" lon="0.70573">
        <ele>209.2</ele>
        <time>2017-01-29T08:39:59.000Z</time>
      </trkpt>
      <trkpt lat="44.51221" lon="0.70573">
        <ele>209.2</ele>
        <time>2017-01-29T08:40:00.000Z</time>
      </trkpt>
      <trkpt lat="44.51221" lon="0.70573">
        <ele>209.2</ele>
        <time>2017-01-29T08:40:01.000Z</time>
      </trkpt>
      <trkpt lat="44.51221" lon="0.70573">
        <ele>209.2</ele>
        <time>2017-01-29T08:40:02.000Z</time>
      </trkpt>
      <trkpt lat="44.5122" lon="0.70573">
        <ele>209.2</ele>
        <time>2017-01-29T08:40:03.000Z</time>
      </trkpt>
      <trkpt lat="44.5122" lon="0.70573">
        <ele>209.2</ele>
        <time>2017-01-29T08:40:04.000Z</time>
      </trkpt>
      <trkpt lat="44.5122" lon="0.70573">
        <ele>209.2</ele>
        <time>2017-01-29T08:40:05.000Z</time>
      </trkpt>
      <trkpt lat="44.5122" lon="0.70573">
        <ele>209.2</ele>
        <time>2017-01-29T08:40:06.000Z</time>
      </trkpt>
      <trkpt lat="44.5122" lon="0.70573">
        <ele>209.2</ele>
        <time>2017-01-29T08:40:07.000Z</time>
      </trkpt>
      <trkpt lat="44.51219" lon="0.70573">
        <ele>209.3</ele>
        <time>2017-01-29T08:40:08.000Z</time>
      </trkpt>
      <trkpt lat="44.51217" lon="0.70573">
        <ele>209.3</ele>
        <time>2017-01-29T08:40:09.000Z</time>
      </trkpt>
      <trkpt lat="44.51216" lon="0.70572">
        <ele>209.3</ele>
        <time>2017-01-29T08:40:10.000Z</time>
      </trkpt>
      <trkpt lat="44.51213" lon="0.70572">
        <ele>209.3</ele>
        <time>2017-01-29T08:40:11.000Z</time>
      </trkpt>
      <trkpt lat="44.51211" lon="0.70571">
        <ele>209.4</ele>
        <time>2017-01-29T08:40:12.000Z</time>
      </trkpt>
      <trkpt lat="44.51209" lon="0.70571">
        <ele>209.4</ele>
        <time>2017-01-29T08:40:13.000Z</time>
      </trkpt>
      <trkpt lat="44.51206" lon="0.70571">
        <ele>209.5</ele>
        <time>2017-01-29T08:40:14.000Z</time>
      </trkpt>
      <trkpt lat="44.51204" lon="0.7057">
        <ele>209.5</ele>
        <time>2017-01-29T08:40:15.000Z</time>
      </trkpt>
      <trkpt lat="44.51202" lon="0.7057">
        <ele>209.5</ele>
        <time>2017-01-29T08:40:16.000Z</time>
      </trkpt>
      <trkpt lat="44.512" lon="0.70569">
        <ele>209.6</ele>
        <time>2017-01-29T08:40:17.000Z</time>
      </trkpt>
      <trkpt lat="44.51198" lon="0.70569">
        <ele>209.6</ele>
        <time>2017-01-29T08:40:18.000Z</time>
      </trkpt>
      <trkpt lat="44.51195" lon="0.70568">
        <ele>209.7</ele>
        <time>2017-01-29T08:40:19.000Z</time>
      </trkpt>
      <trkpt lat="44.51192" lon="0.70568">
        <ele>209.7</ele>
        <time>2017-01-29T08:40:20.000Z</time>
      </trkpt>
      <trkpt lat="44.5119" lon="0.70567">
        <ele>209.8</ele>
        <time>2017-01-29T08:40:21.000Z</time>
      </trkpt>
      <trkpt lat="44.51187" lon="0.70567">
        <ele>209.8</ele>
        <time>2017-01-29T08:40:22.000Z</time>
      </trkpt>
      <trkpt lat="44.51185" lon="0.70566">
        <ele>209.9</ele>
        <time>2017-01-29T08:40:23.000Z</time>
      </trkpt>
      <trkpt lat="44.51183" lon="0.70566">
        <ele>209.9</ele>
        <time>2017-01-29T08:40:24.000Z</time>
      </trkpt>
      <trkpt lat="44.51181" lon="0.70566">
        <ele>209.9</ele>
        <time>2017-01-29T08:40:25.000Z</time>
      </trkpt>
      <trkpt lat="44.51178" lon="0.70566">
        <ele>210</ele>
        <time>2017-01-29T08:40:26.000Z</time>
      </trkpt>
      <trkpt lat="44.51176" lon="0.70566">
        <ele>210</ele>
        <time>2017-01-29T08:40:27.000Z</time>
      </trkpt>
      <trkpt lat="44.51172" lon="0.70565">
        <ele>210.1</ele>
        <time>2017-01-29T08:40:28.000Z</time>
      </trkpt>
      <trkpt lat="44.51169" lon="0.70565">
        <ele>210.2</ele>
        <time>2017-01-29T08:40:29.000Z</time>
      </trkpt>
      <trkpt lat="44.51166" lon="0.70564">
        <ele>210.3</ele>
        <time>2017-01-29T08:40:30.000Z</time>
      </trkpt>
      <trkpt lat="44.51162" lon="0.70563">
        <ele>210.3</ele>
        <time>2017-01-29T08:40:31.000Z</time>
      </trkpt>
      <trkpt lat="44.51158" lon="0.70562">
        <ele>210.4</ele>
        <time>2017-01-29T08:40:32.000Z</time>
      </trkpt>
      <trkpt lat="44.51155" lon="0.70562">
        <ele>210.5</ele>
        <time>2017-01-29T08:40:33.000Z</time>
      </trkpt>
      <trkpt lat="44.51151" lon="0.70561">
        <ele>210.6</ele>
        <time>2017-01-29T08:40:34.000Z</time>
      </trkpt>
      <trkpt lat="44.51147" lon="0.70561">
        <ele>210.6</ele>
        <time>2017-01-29T08:40:35.000Z</time>
      </trkpt>
      <trkpt lat="44.51142" lon="0.70561">
        <ele>210.7</ele>
        <time>2017-01-29T08:40:36.000Z</time>
      </trkpt>
      <trkpt lat="44.51138" lon="0.70561">
        <ele>210.8</ele>
        <time>2017-01-29T08:40:37.000Z</time>
      </trkpt>
      <trkpt lat="44.51134" lon="0.70561">
        <ele>210.9</ele>
        <time>2017-01-29T08:40:38.000Z</time>
      </trkpt>
      <trkpt lat="44.5113" lon="0.70561">
        <ele>211</ele>
        <time>2017-01-29T08:40:39.000Z</time>
      </trkpt>
      <trkpt lat="44.51125" lon="0.70561">
        <ele>211</ele>
        <time>2017-01-29T08:40:40.000Z</time>
      </trkpt>
      <trkpt lat="44.51121" lon="0.70561">
        <ele>211.1</ele>
        <time>2017-01-29T08:40:41.000Z</time>
      </trkpt>
      <trkpt lat="44.51117" lon="0.70561">
        <ele>211.2</ele>
        <time>2017-01-29T08:40:42.000Z</time>
      </trkpt>
      <trkpt lat="44.51112" lon="0.70561">
        <ele>211.3</ele>
        <time>2017-01-29T08:40:43.000Z</time>
      </trkpt>
      <trkpt lat="44.51108" lon="0.70561">
        <ele>211.4</ele>
        <time>2017-01-29T08:40:44.000Z</time>
      </trkpt>
      <trkpt lat="44.51104" lon="0.70561">
        <ele>211.4</ele>
        <time>2017-01-29T08:40:45.000Z</time>
      </trkpt>
      <trkpt lat="44.51099" lon="0.70561">
        <ele>211.5</ele>
        <time>2017-01-29T08:40:46.000Z</time>
      </trkpt>
      <trkpt lat="44.51095" lon="0.70562">
        <ele>211.6</ele>
        <time>2017-01-29T08:40:47.000Z</time>
      </trkpt>
      <trkpt lat="44.51091" lon="0.70562">
        <ele>211.6</ele>
        <time>2017-01-29T08:40:48.000Z</time>
      </trkpt>
      <trkpt lat="44.51087" lon="0.70563">
        <ele>211.7</ele>
        <time>2017-01-29T08:40:49.000Z</time>
      </trkpt>
      <trkpt lat="44.51083" lon="0.70564">
        <ele>211.7</ele>
        <time>2017-01-29T08:40:50.000Z</time>
      </trkpt>
      <trkpt lat="44.51079" lon="0.70565">
        <ele>211.6</ele>
        <time>2017-01-29T08:40:51.000Z</time>
      </trkpt>
      <trkpt lat="44.51075" lon="0.70566">
        <ele>211.6</ele>
        <time>2017-01-29T08:40:52.000Z</time>
      </trkpt>
      <trkpt lat="44.51071" lon="0.70567">
        <ele>211.5</ele>
        <time>2017-01-29T08:40:53.000Z</time>
      </trkpt>
      <trkpt lat="44.51067" lon="0.70568">
        <ele>211.4</ele>
        <time>2017-01-29T08:40:54.000Z</time>
      </trkpt>
      <trkpt lat="44.51063" lon="0.70569">
        <ele>211.3</ele>
        <time>2017-01-29T08:40:55.000Z</time>
      </trkpt>
      <trkpt lat="44.51059" lon="0.70571">
        <ele>211.3</ele>
        <time>2017-01-29T08:40:56.000Z</time>
      </trkpt>
      <trkpt lat="44.51055" lon="0.70572">
        <ele>211.2</ele>
        <time>2017-01-29T08:40:57.000Z</time>
      </trkpt>
      <trkpt lat="44.51051" lon="0.70573">
        <ele>211.2</ele>
        <time>2017-01-29T08:40:58.000Z</time>
      </trkpt>
      <trkpt lat="44.51046" lon="0.70575">
        <ele>211.1</ele>
        <time>2017-01-29T08:40:59.000Z</time>
      </trkpt>
      <trkpt lat="44.51042" lon="0.70576">
        <ele>211.1</ele>
        <time>2017-01-29T08:41:00.000Z</time>
      </trkpt>
      <trkpt lat="44.51038" lon="0.70578">
        <ele>211.1</ele>
        <time>2017-01-29T08:41:01.000Z</time>
      </trkpt>
      <trkpt lat="44.51034" lon="0.7058">
        <ele>211</ele>
        <time>2017-01-29T08:41:02.000Z</time>
      </trkpt>
      <trkpt lat="44.5103" lon="0.70581">
        <ele>211</ele>
        <time>2017-01-29T08:41:03.000Z</time>
      </trkpt>
      <trkpt lat="44.51026" lon="0.70583">
        <ele>211</ele>
        <time>2017-01-29T08:41:04.000Z</time>
      </trkpt>
      <trkpt lat="44.51022" lon="0.70585">
        <ele>211</ele>
        <time>2017-01-29T08:41:05.000Z</time>
      </trkpt>
      <trkpt lat="44.51018" lon="0.70586">
        <ele>211</ele>
        <time>2017-01-29T08:41:06.000Z</time>
      </trkpt>
      <trkpt lat="44.51014" lon="0.70588">
        <ele>211</ele>
        <time>2017-01-29T08:41:07.000Z</time>
      </trkpt>
      <trkpt lat="44.5101" lon="0.70589">
        <ele>211</ele>
        <time>2017-01-29T08:41:08.000Z</time>
      </trkpt>
      <trkpt lat="44.51006" lon="0.70591">
        <ele>211</ele>
        <time>2017-01-29T08:41:09.000Z</time>
      </trkpt>
      <trkpt lat="44.51002" lon="0.70593">
        <ele>211</ele>
        <time>2017-01-29T08:41:10.000Z</time>
      </trkpt>
      <trkpt lat="44.50998" lon="0.70594">
        <ele>211</ele>
        <time>2017-01-29T08:41:11.000Z</time>
      </trkpt>
      <trkpt lat="44.50993" lon="0.70596">
        <ele>211.1</ele>
        <time>2017-01-29T08:41:12.000Z</time>
      </trkpt>
      <trkpt lat="44.50989" lon="0.70598">
        <ele>211.2</ele>
        <time>2017-01-29T08:41:13.000Z</time>
      </trkpt>
      <trkpt lat="44.50985" lon="0.70599">
        <ele>211.3</ele>
        <time>2017-01-29T08:41:14.000Z</time>
      </trkpt>
      <trkpt lat="44.50981" lon="0.70601">
        <ele>211.3</ele>
        <time>2017-01-29T08:41:15.000Z</time>
      </trkpt>
      <trkpt lat="44.50976" lon="0.70603">
        <ele>211.4</ele>
        <time>2017-01-29T08:41:16.000Z</time>
      </trkpt>
      <trkpt lat="44.50972" lon="0.70605">
        <ele>211.5</ele>
        <time>2017-01-29T08:41:17.000Z</time>
      </trkpt>
      <trkpt lat="44.50968" lon="0.70606">
        <ele>211.6</ele>
        <time>2017-01-29T08:41:18.000Z</time>
      </trkpt>
      <trkpt lat="44.50963" lon="0.70608">
        <ele>211.7</ele>
        <time>2017-01-29T08:41:19.000Z</time>
      </trkpt>
      <trkpt lat="44.50959" lon="0.7061">
        <ele>211.8</ele>
        <time>2017-01-29T08:41:20.000Z</time>
      </trkpt>
      <trkpt lat="44.50954" lon="0.70611">
        <ele>211.9</ele>
        <time>2017-01-29T08:41:21.000Z</time>
      </trkpt>
      <trkpt lat="44.5095" lon="0.70613">
        <ele>212</ele>
        <time>2017-01-29T08:41:22.000Z</time>
      </trkpt>
      <trkpt lat="44.50945" lon="0.70615">
        <ele>212.1</ele>
        <time>2017-01-29T08:41:23.000Z</time>
      </trkpt>
      <trkpt lat="44.50941" lon="0.70616">
        <ele>212.3</ele>
        <time>2017-01-29T08:41:24.000Z</time>
      </trkpt>
      <trkpt lat="44.50937" lon="0.70618">
        <ele>212.4</ele>
        <time>2017-01-29T08:41:25.000Z</time>
      </trkpt>
      <trkpt lat="44.50932" lon="0.7062">
        <ele>212.5</ele>
        <time>2017-01-29T08:41:26.000Z</time>
      </trkpt>
      <trkpt lat="44.50928" lon="0.70621">
        <ele>212.7</ele>
        <time>2017-01-29T08:41:27.000Z</time>
      </trkpt>
      <trkpt lat="44.50924" lon="0.70623">
        <ele>212.8</ele>
        <time>2017-01-29T08:41:28.000Z</time>
      </trkpt>
      <trkpt lat="44.50919" lon="0.70625">
        <ele>212.9</ele>
        <time>2017-01-29T08:41:29.000Z</time>
      </trkpt>
      <trkpt lat="44.50915" lon="0.70626">
        <ele>213.1</ele>
        <time>2017-01-29T08:41:30.000Z</time>
      </trkpt>
      <trkpt lat="44.50911" lon="0.70628">
        <ele>213.4</ele>
        <time>2017-01-29T08:41:31.000Z</time>
      </trkpt>
      <trkpt lat="44.50907" lon="0.7063">
        <ele>213.6</ele>
        <time>2017-01-29T08:41:32.000Z</time>
      </trkpt>
      <trkpt lat="44.50903" lon="0.70631">
        <ele>213.9</ele>
        <time>2017-01-29T08:41:33.000Z</time>
      </trkpt>
      <trkpt lat="44.50899" lon="0.70633">
        <ele>214.1</ele>
        <time>2017-01-29T08:41:34.000Z</time>
      </trkpt>
      <trkpt lat="44.50895" lon="0.70635">
        <ele>214.3</ele>
        <time>2017-01-29T08:41:35.000Z</time>
      </trkpt>
      <trkpt lat="44.50891" lon="0.70636">
        <ele>214.5</ele>
        <time>2017-01-29T08:41:36.000Z</time>
      </trkpt>
      <trkpt lat="44.50887" lon="0.70638">
        <ele>214.7</ele>
        <time>2017-01-29T08:41:37.000Z</time>
      </trkpt>
      <trkpt lat="44.50883" lon="0.70639">
        <ele>215</ele>
        <time>2017-01-29T08:41:38.000Z</time>
      </trkpt>
      <trkpt lat="44.50879" lon="0.70641">
        <ele>215.2</ele>
        <time>2017-01-29T08:41:39.000Z</time>
      </trkpt>
      <trkpt lat="44.50875" lon="0.70643">
        <ele>215.3</ele>
        <time>2017-01-29T08:41:40.000Z</time>
      </trkpt>
      <trkpt lat="44.50871" lon="0.70644">
        <ele>215.5</ele>
        <time>2017-01-29T08:41:41.000Z</time>
      </trkpt>
      <trkpt lat="44.50867" lon="0.70646">
        <ele>215.7</ele>
        <time>2017-01-29T08:41:42.000Z</time>
      </trkpt>
      <trkpt lat="44.50863" lon="0.70648">
        <ele>215.9</ele>
        <time>2017-01-29T08:41:43.000Z</time>
      </trkpt>
      <trkpt lat="44.50859" lon="0.70649">
        <ele>216.1</ele>
        <time>2017-01-29T08:41:44.000Z</time>
      </trkpt>
      <trkpt lat="44.50856" lon="0.70651">
        <ele>216.2</ele>
        <time>2017-01-29T08:41:45.000Z</time>
      </trkpt>
      <trkpt lat="44.50852" lon="0.70653">
        <ele>216.4</ele>
        <time>2017-01-29T08:41:46.000Z</time>
      </trkpt>
      <trkpt lat="44.50848" lon="0.70654">
        <ele>216.5</ele>
        <time>2017-01-29T08:41:47.000Z</time>
      </trkpt>
      <trkpt lat="44.50844" lon="0.70656">
        <ele>216.7</ele>
        <time>2017-01-29T08:41:48.000Z</time>
      </trkpt>
      <trkpt lat="44.50841" lon="0.70657">
        <ele>216.8</ele>
        <time>2017-01-29T08:41:49.000Z</time>
      </trkpt>
      <trkpt lat="44.50837" lon="0.70659">
        <ele>217</ele>
        <time>2017-01-29T08:41:50.000Z</time>
      </trkpt>
      <trkpt lat="44.50833" lon="0.7066">
        <ele>217.1</ele>
        <time>2017-01-29T08:41:51.000Z</time>
      </trkpt>
      <trkpt lat="44.5083" lon="0.70662">
        <ele>217</ele>
        <time>2017-01-29T08:41:52.000Z</time>
      </trkpt>
      <trkpt lat="44.50826" lon="0.70663">
        <ele>216.9</ele>
        <time>2017-01-29T08:41:53.000Z</time>
      </trkpt>
      <trkpt lat="44.50822" lon="0.70665">
        <ele>216.9</ele>
        <time>2017-01-29T08:41:54.000Z</time>
      </trkpt>
      <trkpt lat="44.50818" lon="0.70666">
        <ele>216.8</ele>
        <time>2017-01-29T08:41:55.000Z</time>
      </trkpt>
      <trkpt lat="44.50815" lon="0.70668">
        <ele>216.7</ele>
        <time>2017-01-29T08:41:56.000Z</time>
      </trkpt>
      <trkpt lat="44.50811" lon="0.70669">
        <ele>216.7</ele>
        <time>2017-01-29T08:41:57.000Z</time>
      </trkpt>
      <trkpt lat="44.50806" lon="0.70671">
        <ele>216.6</ele>
        <time>2017-01-29T08:41:58.000Z</time>
      </trkpt>
      <trkpt lat="44.50802" lon="0.70673">
        <ele>216.5</ele>
        <time>2017-01-29T08:41:59.000Z</time>
      </trkpt>
      <trkpt lat="44.50798" lon="0.70674">
        <ele>216.4</ele>
        <time>2017-01-29T08:42:00.000Z</time>
      </trkpt>
      <trkpt lat="44.50794" lon="0.70676">
        <ele>216.3</ele>
        <time>2017-01-29T08:42:01.000Z</time>
      </trkpt>
      <trkpt lat="44.5079" lon="0.70678">
        <ele>216.3</ele>
        <time>2017-01-29T08:42:02.000Z</time>
      </trkpt>
      <trkpt lat="44.50785" lon="0.7068">
        <ele>216.2</ele>
        <time>2017-01-29T08:42:03.000Z</time>
      </trkpt>
      <trkpt lat="44.50781" lon="0.70682">
        <ele>216.2</ele>
        <time>2017-01-29T08:42:04.000Z</time>
      </trkpt>
      <trkpt lat="44.50777" lon="0.70684">
        <ele>216.1</ele>
        <time>2017-01-29T08:42:05.000Z</time>
      </trkpt>
      <trkpt lat="44.50773" lon="0.70686">
        <ele>216.1</ele>
        <time>2017-01-29T08:42:06.000Z</time>
      </trkpt>
      <trkpt lat="44.50769" lon="0.70688">
        <ele>216</ele>
        <time>2017-01-29T08:42:07.000Z</time>
      </trkpt>
      <trkpt lat="44.50765" lon="0.7069">
        <ele>216</ele>
        <time>2017-01-29T08:42:08.000Z</time>
      </trkpt>
      <trkpt lat="44.50761" lon="0.70692">
        <ele>216</ele>
        <time>2017-01-29T08:42:09.000Z</time>
      </trkpt>
      <trkpt lat="44.50757" lon="0.70694">
        <ele>216</ele>
        <time>2017-01-29T08:42:10.000Z</time>
      </trkpt>
      <trkpt lat="44.50753" lon="0.70696">
        <ele>216</ele>
        <time>2017-01-29T08:42:11.000Z</time>
      </trkpt>
      <trkpt lat="44.50748" lon="0.70698">
        <ele>215.9</ele>
        <time>2017-01-29T08:42:12.000Z</time>
      </trkpt>
      <trkpt lat="44.50744" lon="0.707">
        <ele>215.6</ele>
        <time>2017-01-29T08:42:13.000Z</time>
      </trkpt>
      <trkpt lat="44.5074" lon="0.70702">
        <ele>215.3</ele>
        <time>2017-01-29T08:42:14.000Z</time>
      </trkpt>
      <trkpt lat="44.50735" lon="0.70704">
        <ele>215</ele>
        <time>2017-01-29T08:42:15.000Z</time>
      </trkpt>
      <trkpt lat="44.50731" lon="0.70706">
        <ele>214.7</ele>
        <time>2017-01-29T08:42:16.000Z</time>
      </trkpt>
      <trkpt lat="44.50726" lon="0.70709">
        <ele>214.4</ele>
        <time>2017-01-29T08:42:17.000Z</time>
      </trkpt>
      <trkpt lat="44.50722" lon="0.70711">
        <ele>214.2</ele>
        <time>2017-01-29T08:42:18.000Z</time>
      </trkpt>
      <trkpt lat="44.50717" lon="0.70713">
        <ele>213.9</ele>
        <time>2017-01-29T08:42:19.000Z</time>
      </trkpt>
      <trkpt lat="44.50712" lon="0.70716">
        <ele>213.7</ele>
        <time>2017-01-29T08:42:20.000Z</time>
      </trkpt>
      <trkpt lat="44.50707" lon="0.70718">
        <ele>213.5</ele>
        <time>2017-01-29T08:42:21.000Z</time>
      </trkpt>
      <trkpt lat="44.50702" lon="0.70721">
        <ele>213.3</ele>
        <time>2017-01-29T08:42:22.000Z</time>
      </trkpt>
      <trkpt lat="44.50697" lon="0.70723">
        <ele>213.1</ele>
        <time>2017-01-29T08:42:23.000Z</time>
      </trkpt>
      <trkpt lat="44.50692" lon="0.70726">
        <ele>212.9</ele>
        <time>2017-01-29T08:42:24.000Z</time>
      </trkpt>
      <trkpt lat="44.50687" lon="0.70728">
        <ele>212.7</ele>
        <time>2017-01-29T08:42:25.000Z</time>
      </trkpt>
      <trkpt lat="44.50682" lon="0.7073">
        <ele>212.6</ele>
        <time>2017-01-29T08:42:26.000Z</time>
      </trkpt>
      <trkpt lat="44.50678" lon="0.70732">
        <ele>212.5</ele>
        <time>2017-01-29T08:42:27.000Z</time>
      </trkpt>
      <trkpt lat="44.50673" lon="0.70734">
        <ele>212.3</ele>
        <time>2017-01-29T08:42:28.000Z</time>
      </trkpt>
      <trkpt lat="44.50668" lon="0.70736">
        <ele>212.2</ele>
        <time>2017-01-29T08:42:29.000Z</time>
      </trkpt>
      <trkpt lat="44.50663" lon="0.70738">
        <ele>212.4</ele>
        <time>2017-01-29T08:42:30.000Z</time>
      </trkpt>
      <trkpt lat="44.50658" lon="0.7074">
        <ele>212.7</ele>
        <time>2017-01-29T08:42:31.000Z</time>
      </trkpt>
      <trkpt lat="44.50653" lon="0.70742">
        <ele>213</ele>
        <time>2017-01-29T08:42:32.000Z</time>
      </trkpt>
      <trkpt lat="44.50648" lon="0.70745">
        <ele>213.3</ele>
        <time>2017-01-29T08:42:33.000Z</time>
      </trkpt>
      <trkpt lat="44.50643" lon="0.70747">
        <ele>213.6</ele>
        <time>2017-01-29T08:42:34.000Z</time>
      </trkpt>
      <trkpt lat="44.50638" lon="0.70749">
        <ele>214</ele>
        <time>2017-01-29T08:42:35.000Z</time>
      </trkpt>
      <trkpt lat="44.50633" lon="0.70752">
        <ele>214.2</ele>
        <time>2017-01-29T08:42:36.000Z</time>
      </trkpt>
      <trkpt lat="44.50628" lon="0.70754">
        <ele>214.4</ele>
        <time>2017-01-29T08:42:37.000Z</time>
      </trkpt>
      <trkpt lat="44.50622" lon="0.70756">
        <ele>214.5</ele>
        <time>2017-01-29T08:42:38.000Z</time>
      </trkpt>
      <trkpt lat="44.50617" lon="0.70758">
        <ele>214.7</ele>
        <time>2017-01-29T08:42:39.000Z</time>
      </trkpt>
      <trkpt lat="44.50611" lon="0.7076">
        <ele>214.8</ele>
        <time>2017-01-29T08:42:40.000Z</time>
      </trkpt>
      <trkpt lat="44.50606" lon="0.70762">
        <ele>214.9</ele>
        <time>2017-01-29T08:42:41.000Z</time>
      </trkpt>
      <trkpt lat="44.506" lon="0.70763">
        <ele>215</ele>
        <time>2017-01-29T08:42:42.000Z</time>
      </trkpt>
      <trkpt lat="44.50595" lon="0.70765">
        <ele>215.2</ele>
        <time>2017-01-29T08:42:43.000Z</time>
      </trkpt>
      <trkpt lat="44.50589" lon="0.70766">
        <ele>215.3</ele>
        <time>2017-01-29T08:42:44.000Z</time>
      </trkpt>
      <trkpt lat="44.50584" lon="0.70767">
        <ele>215.4</ele>
        <time>2017-01-29T08:42:45.000Z</time>
      </trkpt>
      <trkpt lat="44.50578" lon="0.70768">
        <ele>215.4</ele>
        <time>2017-01-29T08:42:46.000Z</time>
      </trkpt>
      <trkpt lat="44.50573" lon="0.70769">
        <ele>215.4</ele>
        <time>2017-01-29T08:42:47.000Z</time>
      </trkpt>
      <trkpt lat="44.50568" lon="0.70769">
        <ele>215.5</ele>
        <time>2017-01-29T08:42:48.000Z</time>
      </trkpt>
      <trkpt lat="44.50563" lon="0.7077">
        <ele>215.5</ele>
        <time>2017-01-29T08:42:49.000Z</time>
      </trkpt>
      <trkpt lat="44.50558" lon="0.7077">
        <ele>215.6</ele>
        <time>2017-01-29T08:42:50.000Z</time>
      </trkpt>
      <trkpt lat="44.50554" lon="0.70771">
        <ele>215.6</ele>
        <time>2017-01-29T08:42:51.000Z</time>
      </trkpt>
      <trkpt lat="44.50549" lon="0.70771">
        <ele>215.7</ele>
        <time>2017-01-29T08:42:52.000Z</time>
      </trkpt>
      <trkpt lat="44.50544" lon="0.70771">
        <ele>215.7</ele>
        <time>2017-01-29T08:42:53.000Z</time>
      </trkpt>
      <trkpt lat="44.5054" lon="0.70771">
        <ele>215.8</ele>
        <time>2017-01-29T08:42:54.000Z</time>
      </trkpt>
      <trkpt lat="44.50535" lon="0.70771">
        <ele>215.8</ele>
        <time>2017-01-29T08:42:55.000Z</time>
      </trkpt>
      <trkpt lat="44.5053" lon="0.70771">
        <ele>215.9</ele>
        <time>2017-01-29T08:42:56.000Z</time>
      </trkpt>
      <trkpt lat="44.50526" lon="0.70771">
        <ele>215.9</ele>
        <time>2017-01-29T08:42:57.000Z</time>
      </trkpt>
      <trkpt lat="44.50521" lon="0.70771">
        <ele>216</ele>
        <time>2017-01-29T08:42:58.000Z</time>
      </trkpt>
      <trkpt lat="44.50516" lon="0.70772">
        <ele>216</ele>
        <time>2017-01-29T08:42:59.000Z</time>
      </trkpt>
      <trkpt lat="44.50511" lon="0.70773">
        <ele>216.1</ele>
        <time>2017-01-29T08:43:00.000Z</time>
      </trkpt>
      <trkpt lat="44.50507" lon="0.70775">
        <ele>216</ele>
        <time>2017-01-29T08:43:01.000Z</time>
      </trkpt>
      <trkpt lat="44.50502" lon="0.70777">
        <ele>216</ele>
        <time>2017-01-29T08:43:02.000Z</time>
      </trkpt>
      <trkpt lat="44.50497" lon="0.7078">
        <ele>215.8</ele>
        <time>2017-01-29T08:43:03.000Z</time>
      </trkpt>
      <trkpt lat="44.50492" lon="0.70782">
        <ele>215.5</ele>
        <time>2017-01-29T08:43:04.000Z</time>
      </trkpt>
      <trkpt lat="44.50487" lon="0.70783">
        <ele>215.2</ele>
        <time>2017-01-29T08:43:05.000Z</time>
      </trkpt>
      <trkpt lat="44.50481" lon="0.70784">
        <ele>214.9</ele>
        <time>2017-01-29T08:43:06.000Z</time>
      </trkpt>
      <trkpt lat="44.50475" lon="0.70786">
        <ele>214.7</ele>
        <time>2017-01-29T08:43:07.000Z</time>
      </trkpt>
      <trkpt lat="44.5047" lon="0.70788">
        <ele>214.4</ele>
        <time>2017-01-29T08:43:08.000Z</time>
      </trkpt>
      <trkpt lat="44.50465" lon="0.70792">
        <ele>214</ele>
        <time>2017-01-29T08:43:09.000Z</time>
      </trkpt>
      <trkpt lat="44.5046" lon="0.70796">
        <ele>213.7</ele>
        <time>2017-01-29T08:43:10.000Z</time>
      </trkpt>
      <trkpt lat="44.50455" lon="0.70799">
        <ele>213.4</ele>
        <time>2017-01-29T08:43:11.000Z</time>
      </trkpt>
      <trkpt lat="44.50449" lon="0.70802">
        <ele>213.1</ele>
        <time>2017-01-29T08:43:12.000Z</time>
      </trkpt>
      <trkpt lat="44.50444" lon="0.70805">
        <ele>212.8</ele>
        <time>2017-01-29T08:43:13.000Z</time>
      </trkpt>
      <trkpt lat="44.50438" lon="0.70808">
        <ele>212.5</ele>
        <time>2017-01-29T08:43:14.000Z</time>
      </trkpt>
      <trkpt lat="44.50433" lon="0.70811">
        <ele>212.2</ele>
        <time>2017-01-29T08:43:15.000Z</time>
      </trkpt>
      <trkpt lat="44.50428" lon="0.70815">
        <ele>211.9</ele>
        <time>2017-01-29T08:43:16.000Z</time>
      </trkpt>
      <trkpt lat="44.50423" lon="0.70819">
        <ele>211.6</ele>
        <time>2017-01-29T08:43:17.000Z</time>
      </trkpt>
      <trkpt lat="44.50419" lon="0.70822">
        <ele>211.3</ele>
        <time>2017-01-29T08:43:18.000Z</time>
      </trkpt>
      <trkpt lat="44.50414" lon="0.70826">
        <ele>210.8</ele>
        <time>2017-01-29T08:43:19.000Z</time>
      </trkpt>
      <trkpt lat="44.50409" lon="0.7083">
        <ele>210.1</ele>
        <time>2017-01-29T08:43:20.000Z</time>
      </trkpt>
      <trkpt lat="44.50405" lon="0.70834">
        <ele>209.3</ele>
        <time>2017-01-29T08:43:21.000Z</time>
      </trkpt>
      <trkpt lat="44.504" lon="0.70839">
        <ele>208.3</ele>
        <time>2017-01-29T08:43:22.000Z</time>
      </trkpt>
      <trkpt lat="44.50396" lon="0.70843">
        <ele>207.4</ele>
        <time>2017-01-29T08:43:23.000Z</time>
      </trkpt>
      <trkpt lat="44.50392" lon="0.70847">
        <ele>206.4</ele>
        <time>2017-01-29T08:43:24.000Z</time>
      </trkpt>
      <trkpt lat="44.50387" lon="0.7085">
        <ele>205.5</ele>
        <time>2017-01-29T08:43:25.000Z</time>
      </trkpt>
      <trkpt lat="44.50383" lon="0.70854">
        <ele>204.6</ele>
        <time>2017-01-29T08:43:26.000Z</time>
      </trkpt>
      <trkpt lat="44.50378" lon="0.70858">
        <ele>203.7</ele>
        <time>2017-01-29T08:43:27.000Z</time>
      </trkpt>
      <trkpt lat="44.50374" lon="0.70861">
        <ele>202.8</ele>
        <time>2017-01-29T08:43:28.000Z</time>
      </trkpt>
      <trkpt lat="44.50369" lon="0.70865">
        <ele>201.9</ele>
        <time>2017-01-29T08:43:29.000Z</time>
      </trkpt>
      <trkpt lat="44.50364" lon="0.7087">
        <ele>200.9</ele>
        <time>2017-01-29T08:43:30.000Z</time>
      </trkpt>
      <trkpt lat="44.50359" lon="0.70875">
        <ele>199.9</ele>
        <time>2017-01-29T08:43:31.000Z</time>
      </trkpt>
      <trkpt lat="44.50353" lon="0.70881">
        <ele>198.8</ele>
        <time>2017-01-29T08:43:32.000Z</time>
      </trkpt>
      <trkpt lat="44.50348" lon="0.70886">
        <ele>197.8</ele>
        <time>2017-01-29T08:43:33.000Z</time>
      </trkpt>
      <trkpt lat="44.50342" lon="0.7089">
        <ele>196.8</ele>
        <time>2017-01-29T08:43:34.000Z</time>
      </trkpt>
      <trkpt lat="44.50336" lon="0.70894">
        <ele>196</ele>
        <time>2017-01-29T08:43:35.000Z</time>
      </trkpt>
      <trkpt lat="44.50331" lon="0.70897">
        <ele>195</ele>
        <time>2017-01-29T08:43:36.000Z</time>
      </trkpt>
      <trkpt lat="44.50327" lon="0.709">
        <ele>194</ele>
        <time>2017-01-29T08:43:37.000Z</time>
      </trkpt>
      <trkpt lat="44.50323" lon="0.70904">
        <ele>192.9</ele>
        <time>2017-01-29T08:43:38.000Z</time>
      </trkpt>
      <trkpt lat="44.50319" lon="0.70908">
        <ele>191.9</ele>
        <time>2017-01-29T08:43:39.000Z</time>
      </trkpt>
      <trkpt lat="44.50315" lon="0.70914">
        <ele>190.8</ele>
        <time>2017-01-29T08:43:40.000Z</time>
      </trkpt>
      <trkpt lat="44.50311" lon="0.70922">
        <ele>189.9</ele>
        <time>2017-01-29T08:43:41.000Z</time>
      </trkpt>
      <trkpt lat="44.50307" lon="0.70929">
        <ele>189</ele>
        <time>2017-01-29T08:43:42.000Z</time>
      </trkpt>
      <trkpt lat="44.50303" lon="0.70937">
        <ele>188.3</ele>
        <time>2017-01-29T08:43:43.000Z</time>
      </trkpt>
      <trkpt lat="44.50299" lon="0.70944">
        <ele>187.5</ele>
        <time>2017-01-29T08:43:44.000Z</time>
      </trkpt>
      <trkpt lat="44.50295" lon="0.70952">
        <ele>186.9</ele>
        <time>2017-01-29T08:43:45.000Z</time>
      </trkpt>
      <trkpt lat="44.50291" lon="0.70959">
        <ele>186.4</ele>
        <time>2017-01-29T08:43:46.000Z</time>
      </trkpt>
      <trkpt lat="44.50287" lon="0.70966">
        <ele>186</ele>
        <time>2017-01-29T08:43:47.000Z</time>
      </trkpt>
      <trkpt lat="44.50283" lon="0.70974">
        <ele>185.6</ele>
        <time>2017-01-29T08:43:48.000Z</time>
      </trkpt>
      <trkpt lat="44.50279" lon="0.70981">
        <ele>185.4</ele>
        <time>2017-01-29T08:43:49.000Z</time>
      </trkpt>
      <trkpt lat="44.50275" lon="0.70989">
        <ele>185.3</ele>
        <time>2017-01-29T08:43:50.000Z</time>
      </trkpt>
      <trkpt lat="44.50271" lon="0.70996">
        <ele>185.1</ele>
        <time>2017-01-29T08:43:51.000Z</time>
      </trkpt>
      <trkpt lat="44.50266" lon="0.71004">
        <ele>184.7</ele>
        <time>2017-01-29T08:43:52.000Z</time>
      </trkpt>
      <trkpt lat="44.50261" lon="0.7101">
        <ele>184</ele>
        <time>2017-01-29T08:43:53.000Z</time>
      </trkpt>
      <trkpt lat="44.50256" lon="0.71017">
        <ele>183.4</ele>
        <time>2017-01-29T08:43:54.000Z</time>
      </trkpt>
      <trkpt lat="44.50251" lon="0.71022">
        <ele>183</ele>
        <time>2017-01-29T08:43:55.000Z</time>
      </trkpt>
      <trkpt lat="44.50246" lon="0.71027">
        <ele>182.2</ele>
        <time>2017-01-29T08:43:56.000Z</time>
      </trkpt>
      <trkpt lat="44.50241" lon="0.71032">
        <ele>181.4</ele>
        <time>2017-01-29T08:43:57.000Z</time>
      </trkpt>
      <trkpt lat="44.50235" lon="0.71037">
        <ele>180.6</ele>
        <time>2017-01-29T08:43:58.000Z</time>
      </trkpt>
      <trkpt lat="44.50229" lon="0.71043">
        <ele>179.7</ele>
        <time>2017-01-29T08:43:59.000Z</time>
      </trkpt>
      <trkpt lat="44.50222" lon="0.71048">
        <ele>178.8</ele>
        <time>2017-01-29T08:44:00.000Z</time>
      </trkpt>
      <trkpt lat="44.50215" lon="0.71054">
        <ele>177.9</ele>
        <time>2017-01-29T08:44:01.000Z</time>
      </trkpt>
      <trkpt lat="44.50207" lon="0.71059">
        <ele>177</ele>
        <time>2017-01-29T08:44:02.000Z</time>
      </trkpt>
      <trkpt lat="44.50199" lon="0.71063">
        <ele>176.1</ele>
        <time>2017-01-29T08:44:03.000Z</time>
      </trkpt>
      <trkpt lat="44.50191" lon="0.71067">
        <ele>175.3</ele>
        <time>2017-01-29T08:44:04.000Z</time>
      </trkpt>
      <trkpt lat="44.50183" lon="0.71069">
        <ele>174.5</ele>
        <time>2017-01-29T08:44:05.000Z</time>
      </trkpt>
      <trkpt lat="44.50176" lon="0.71072">
        <ele>173.9</ele>
        <time>2017-01-29T08:44:06.000Z</time>
      </trkpt>
      <trkpt lat="44.50169" lon="0.71073">
        <ele>173.2</ele>
        <time>2017-01-29T08:44:07.000Z</time>
      </trkpt>
      <trkpt lat="44.50163" lon="0.71074">
        <ele>172.6</ele>
        <time>2017-01-29T08:44:08.000Z</time>
      </trkpt>
      <trkpt lat="44.50157" lon="0.71075">
        <ele>171.8</ele>
        <time>2017-01-29T08:44:09.000Z</time>
      </trkpt>
      <trkpt lat="44.5015" lon="0.71076">
        <ele>171.1</ele>
        <time>2017-01-29T08:44:10.000Z</time>
      </trkpt>
      <trkpt lat="44.50144" lon="0.71076">
        <ele>170.3</ele>
        <time>2017-01-29T08:44:11.000Z</time>
      </trkpt>
      <trkpt lat="44.50137" lon="0.71077">
        <ele>169.5</ele>
        <time>2017-01-29T08:44:12.000Z</time>
      </trkpt>
      <trkpt lat="44.50131" lon="0.71078">
        <ele>168.7</ele>
        <time>2017-01-29T08:44:13.000Z</time>
      </trkpt>
      <trkpt lat="44.50124" lon="0.71078">
        <ele>167.9</ele>
        <time>2017-01-29T08:44:14.000Z</time>
      </trkpt>
      <trkpt lat="44.50116" lon="0.71078">
        <ele>167</ele>
        <time>2017-01-29T08:44:15.000Z</time>
      </trkpt>
      <trkpt lat="44.50109" lon="0.71078">
        <ele>166.2</ele>
        <time>2017-01-29T08:44:16.000Z</time>
      </trkpt>
      <trkpt lat="44.50102" lon="0.71078">
        <ele>165.3</ele>
        <time>2017-01-29T08:44:17.000Z</time>
      </trkpt>
      <trkpt lat="44.50094" lon="0.71077">
        <ele>164.4</ele>
        <time>2017-01-29T08:44:18.000Z</time>
      </trkpt>
      <trkpt lat="44.50087" lon="0.71075">
        <ele>163.6</ele>
        <time>2017-01-29T08:44:19.000Z</time>
      </trkpt>
      <trkpt lat="44.50079" lon="0.71074">
        <ele>162.9</ele>
        <time>2017-01-29T08:44:20.000Z</time>
      </trkpt>
      <trkpt lat="44.50071" lon="0.71073">
        <ele>162.5</ele>
        <time>2017-01-29T08:44:21.000Z</time>
      </trkpt>
      <trkpt lat="44.50063" lon="0.71072">
        <ele>162</ele>
        <time>2017-01-29T08:44:22.000Z</time>
      </trkpt>
      <trkpt lat="44.50055" lon="0.71072">
        <ele>161.5</ele>
        <time>2017-01-29T08:44:23.000Z</time>
      </trkpt>
      <trkpt lat="44.50047" lon="0.71072">
        <ele>161</ele>
        <time>2017-01-29T08:44:24.000Z</time>
      </trkpt>
      <trkpt lat="44.50039" lon="0.71072">
        <ele>160.6</ele>
        <time>2017-01-29T08:44:25.000Z</time>
      </trkpt>
      <trkpt lat="44.50032" lon="0.71072">
        <ele>160.1</ele>
        <time>2017-01-29T08:44:26.000Z</time>
      </trkpt>
      <trkpt lat="44.50025" lon="0.71071">
        <ele>159.7</ele>
        <time>2017-01-29T08:44:27.000Z</time>
      </trkpt>
      <trkpt lat="44.50019" lon="0.71071">
        <ele>159.3</ele>
        <time>2017-01-29T08:44:28.000Z</time>
      </trkpt>
      <trkpt lat="44.50013" lon="0.7107">
        <ele>159</ele>
        <time>2017-01-29T08:44:29.000Z</time>
      </trkpt>
      <trkpt lat="44.50008" lon="0.7107">
        <ele>158.7</ele>
        <time>2017-01-29T08:44:30.000Z</time>
      </trkpt>
      <trkpt lat="44.50004" lon="0.71069">
        <ele>158.4</ele>
        <time>2017-01-29T08:44:31.000Z</time>
      </trkpt>
      <trkpt lat="44.50001" lon="0.71069">
        <ele>158.2</ele>
        <time>2017-01-29T08:44:32.000Z</time>
      </trkpt>
      <trkpt lat="44.49999" lon="0.71069">
        <ele>158.2</ele>
        <time>2017-01-29T08:44:33.000Z</time>
      </trkpt>
      <trkpt lat="44.49997" lon="0.7107">
        <ele>158.2</ele>
        <time>2017-01-29T08:44:34.000Z</time>
      </trkpt>
      <trkpt lat="44.49996" lon="0.7107">
        <ele>158.2</ele>
        <time>2017-01-29T08:44:35.000Z</time>
      </trkpt>
      <trkpt lat="44.49996" lon="0.7107">
        <ele>158.2</ele>
        <time>2017-01-29T08:44:36.000Z</time>
      </trkpt>
      <trkpt lat="44.49996" lon="0.7107">
        <ele>158.2</ele>
        <time>2017-01-29T08:44:37.000Z</time>
      </trkpt>
      <trkpt lat="44.49996" lon="0.7107">
        <ele>158.2</ele>
        <time>2017-01-29T08:44:38.000Z</time>
      </trkpt>
      <trkpt lat="44.49996" lon="0.7107">
        <ele>158.2</ele>
        <time>2017-01-29T08:44:39.000Z</time>
      </trkpt>
      <trkpt lat="44.49996" lon="0.7107">
        <ele>158.2</ele>
        <time>2017-01-29T08:44:40.000Z</time>
      </trkpt>
      <trkpt lat="44.49996" lon="0.7107">
        <ele>158.2</ele>
        <time>2017-01-29T08:44:41.000Z</time>
      </trkpt>
      <trkpt lat="44.49995" lon="0.7107">
        <ele>158.2</ele>
        <time>2017-01-29T08:44:42.000Z</time>
      </trkpt>
      <trkpt lat="44.49995" lon="0.7107">
        <ele>158.2</ele>
        <time>2017-01-29T08:44:43.000Z</time>
      </trkpt>
      <trkpt lat="44.49995" lon="0.7107">
        <ele>158.2</ele>
        <time>2017-01-29T08:44:44.000Z</time>
      </trkpt>
      <trkpt lat="44.49995" lon="0.7107">
        <ele>158.2</ele>
        <time>2017-01-29T08:44:45.000Z</time>
      </trkpt>
      <trkpt lat="44.49995" lon="0.7107">
        <ele>158.2</ele>
        <time>2017-01-29T08:44:46.000Z</time>
      </trkpt>
      <trkpt lat="44.49995" lon="0.7107">
        <ele>158.2</ele>
        <time>2017-01-29T08:44:47.000Z</time>
      </trkpt>
      <trkpt lat="44.49995" lon="0.7107">
        <ele>158.2</ele>
        <time>2017-01-29T08:44:48.000Z</time>
      </trkpt>
      <trkpt lat="44.49995" lon="0.71071">
        <ele>158.2</ele>
        <time>2017-01-29T08:44:49.000Z</time>
      </trkpt>
      <trkpt lat="44.49995" lon="0.71071">
        <ele>158.2</ele>
        <time>2017-01-29T08:44:50.000Z</time>
      </trkpt>
      <trkpt lat="44.49995" lon="0.71071">
        <ele>158.2</ele>
        <time>2017-01-29T08:44:51.000Z</time>
      </trkpt>
      <trkpt lat="44.49995" lon="0.71071">
        <ele>158.2</ele>
        <time>2017-01-29T08:44:52.000Z</time>
      </trkpt>
      <trkpt lat="44.49995" lon="0.71071">
        <ele>158.2</ele>
        <time>2017-01-29T08:44:53.000Z</time>
      </trkpt>
      <trkpt lat="44.49995" lon="0.71071">
        <ele>158.2</ele>
        <time>2017-01-29T08:44:54.000Z</time>
      </trkpt>
      <trkpt lat="44.49995" lon="0.71071">
        <ele>158.2</ele>
        <time>2017-01-29T08:44:55.000Z</time>
      </trkpt>
      <trkpt lat="44.49995" lon="0.71071">
        <ele>158.2</ele>
        <time>2017-01-29T08:44:56.000Z</time>
      </trkpt>
      <trkpt lat="44.49995" lon="0.71071">
        <ele>158.2</ele>
        <time>2017-01-29T08:44:57.000Z</time>
      </trkpt>
      <trkpt lat="44.49995" lon="0.71071">
        <ele>158.2</ele>
        <time>2017-01-29T08:44:58.000Z</time>
      </trkpt>
      <trkpt lat="44.49995" lon="0.71071">
        <ele>158.2</ele>
        <time>2017-01-29T08:44:59.000Z</time>
      </trkpt>
      <trkpt lat="44.49995" lon="0.71071">
        <ele>158.2</ele>
        <time>2017-01-29T08:45:00.000Z</time>
      </trkpt>
      <trkpt lat="44.49995" lon="0.71071">
        <ele>158.2</ele>
        <time>2017-01-29T08:45:01.000Z</time>
      </trkpt>
      <trkpt lat="44.49995" lon="0.71071">
        <ele>158.2</ele>
        <time>2017-01-29T08:45:02.000Z</time>
      </trkpt>
      <trkpt lat="44.49995" lon="0.71071">
        <ele>158.2</ele>
        <time>2017-01-29T08:45:03.000Z</time>
      </trkpt>
      <trkpt lat="44.49995" lon="0.71071">
        <ele>158.2</ele>
        <time>2017-01-29T08:45:04.000Z</time>
      </trkpt>
      <trkpt lat="44.49995" lon="0.71071">
        <ele>158.2</ele>
        <time>2017-01-29T08:45:05.000Z</time>
      </trkpt>
      <trkpt lat="44.49995" lon="0.71071">
        <ele>158.2</ele>
        <time>2017-01-29T08:45:06.000Z</time>
      </trkpt>
      <trkpt lat="44.49995" lon="0.71071">
        <ele>158.2</ele>
        <time>2017-01-29T08:45:07.000Z</time>
      </trkpt>
      <trkpt lat="44.49995" lon="0.71071">
        <ele>158.2</ele>
        <time>2017-01-29T08:45:08.000Z</time>
      </trkpt>
      <trkpt lat="44.49995" lon="0.71071">
        <ele>158.2</ele>
        <time>2017-01-29T08:45:09.000Z</time>
      </trkpt>
      <trkpt lat="44.49995" lon="0.71071">
        <ele>158.2</ele>
        <time>2017-01-29T08:45:10.000Z</time>
      </trkpt>
      <trkpt lat="44.49995" lon="0.71071">
        <ele>158.2</ele>
        <time>2017-01-29T08:45:11.000Z</time>
      </trkpt>
      <trkpt lat="44.49995" lon="0.71071">
        <ele>158.2</ele>
        <time>2017-01-29T08:45:12.000Z</time>
      </trkpt>
      <trkpt lat="44.49995" lon="0.71071">
        <ele>158.2</ele>
        <time>2017-01-29T08:45:13.000Z</time>
      </trkpt>
      <trkpt lat="44.49995" lon="0.71071">
        <ele>158.2</ele>
        <time>2017-01-29T08:45:14.000Z</time>
      </trkpt>
      <trkpt lat="44.49995" lon="0.71071">
        <ele>158.2</ele>
        <time>2017-01-29T08:45:15.000Z</time>
      </trkpt>
      <trkpt lat="44.49995" lon="0.71071">
        <ele>158.2</ele>
        <time>2017-01-29T08:45:16.000Z</time>
      </trkpt>
      <trkpt lat="44.49995" lon="0.71071">
        <ele>158.2</ele>
        <time>2017-01-29T08:45:17.000Z</time>
      </trkpt>
      <trkpt lat="44.49995" lon="0.71071">
        <ele>158.2</ele>
        <time>2017-01-29T08:45:18.000Z</time>
      </trkpt>
      <trkpt lat="44.49995" lon="0.71071">
        <ele>158.2</ele>
        <time>2017-01-29T08:45:19.000Z</time>
      </trkpt>
      <trkpt lat="44.49995" lon="0.71071">
        <ele>158.2</ele>
        <time>2017-01-29T08:45:20.000Z</time>
      </trkpt>
      <trkpt lat="44.49995" lon="0.71071">
        <ele>158.2</ele>
        <time>2017-01-29T08:45:21.000Z</time>
      </trkpt>
      <trkpt lat="44.49995" lon="0.71071">
        <ele>158.2</ele>
        <time>2017-01-29T08:45:22.000Z</time>
      </trkpt>
      <trkpt lat="44.49995" lon="0.71071">
        <ele>158.2</ele>
        <time>2017-01-29T08:45:23.000Z</time>
      </trkpt>
      <trkpt lat="44.49995" lon="0.71071">
        <ele>158.2</ele>
        <time>2017-01-29T08:45:24.000Z</time>
      </trkpt>
      <trkpt lat="44.49995" lon="0.71071">
        <ele>158.2</ele>
        <time>2017-01-29T08:45:25.000Z</time>
      </trkpt>
      <trkpt lat="44.49995" lon="0.71071">
        <ele>158.2</ele>
        <time>2017-01-29T08:45:26.000Z</time>
      </trkpt>
      <trkpt lat="44.49995" lon="0.71071">
        <ele>158.2</ele>
        <time>2017-01-29T08:45:27.000Z</time>
      </trkpt>
      <trkpt lat="44.49995" lon="0.71071">
        <ele>158.2</ele>
        <time>2017-01-29T08:45:28.000Z</time>
      </trkpt>
      <trkpt lat="44.49995" lon="0.71071">
        <ele>158.2</ele>
        <time>2017-01-29T08:45:29.000Z</time>
      </trkpt>
      <trkpt lat="44.49995" lon="0.71071">
        <ele>158.2</ele>
        <time>2017-01-29T08:45:30.000Z</time>
      </trkpt>
      <trkpt lat="44.49995" lon="0.71071">
        <ele>158.2</ele>
        <time>2017-01-29T08:45:31.000Z</time>
      </trkpt>
      <trkpt lat="44.49995" lon="0.71071">
        <ele>158.2</ele>
        <time>2017-01-29T08:45:32.000Z</time>
      </trkpt>
      <trkpt lat="44.49995" lon="0.71071">
        <ele>158.2</ele>
        <time>2017-01-29T08:45:33.000Z</time>
      </trkpt>
      <trkpt lat="44.49995" lon="0.71071">
        <ele>158.2</ele>
        <time>2017-01-29T08:45:34.000Z</time>
      </trkpt>
      <trkpt lat="44.49995" lon="0.71071">
        <ele>158.2</ele>
        <time>2017-01-29T08:45:35.000Z</time>
      </trkpt>
      <trkpt lat="44.49995" lon="0.71071">
        <ele>158.2</ele>
        <time>2017-01-29T08:45:36.000Z</time>
      </trkpt>
      <trkpt lat="44.49995" lon="0.71071">
        <ele>158.2</ele>
        <time>2017-01-29T08:45:37.000Z</time>
      </trkpt>
      <trkpt lat="44.49995" lon="0.71071">
        <ele>158.2</ele>
        <time>2017-01-29T08:45:38.000Z</time>
      </trkpt>
      <trkpt lat="44.49995" lon="0.71071">
        <ele>158.2</ele>
        <time>2017-01-29T08:45:39.000Z</time>
      </trkpt>
      <trkpt lat="44.49995" lon="0.71071">
        <ele>158.2</ele>
        <time>2017-01-29T08:45:40.000Z</time>
      </trkpt>
      <trkpt lat="44.49995" lon="0.71071">
        <ele>158.2</ele>
        <time>2017-01-29T08:45:41.000Z</time>
      </trkpt>
      <trkpt lat="44.49995" lon="0.71071">
        <ele>158.2</ele>
        <time>2017-01-29T08:45:42.000Z</time>
      </trkpt>
      <trkpt lat="44.49995" lon="0.71071">
        <ele>158.2</ele>
        <time>2017-01-29T08:45:43.000Z</time>
      </trkpt>
      <trkpt lat="44.49995" lon="0.71071">
        <ele>158.2</ele>
        <time>2017-01-29T08:45:44.000Z</time>
      </trkpt>
      <trkpt lat="44.49995" lon="0.71071">
        <ele>158.2</ele>
        <time>2017-01-29T08:45:45.000Z</time>
      </trkpt>
      <trkpt lat="44.49995" lon="0.71071">
        <ele>158.2</ele>
        <time>2017-01-29T08:45:46.000Z</time>
      </trkpt>
      <trkpt lat="44.49995" lon="0.71071">
        <ele>158.2</ele>
        <time>2017-01-29T08:45:47.000Z</time>
      </trkpt>
      <trkpt lat="44.49995" lon="0.71071">
        <ele>158.2</ele>
        <time>2017-01-29T08:45:48.000Z</time>
      </trkpt>
      <trkpt lat="44.49995" lon="0.71071">
        <ele>158.2</ele>
        <time>2017-01-29T08:45:49.000Z</time>
      </trkpt>
      <trkpt lat="44.49995" lon="0.71071">
        <ele>158.2</ele>
        <time>2017-01-29T08:45:50.000Z</time>
      </trkpt>
      <trkpt lat="44.49995" lon="0.71071">
        <ele>158.2</ele>
        <time>2017-01-29T08:45:51.000Z</time>
      </trkpt>
      <trkpt lat="44.49995" lon="0.71071">
        <ele>158.2</ele>
        <time>2017-01-29T08:45:52.000Z</time>
      </trkpt>
      <trkpt lat="44.49995" lon="0.71071">
        <ele>158.2</ele>
        <time>2017-01-29T08:45:53.000Z</time>
      </trkpt>
      <trkpt lat="44.49995" lon="0.71071">
        <ele>158.2</ele>
        <time>2017-01-29T08:45:54.000Z</time>
      </trkpt>
      <trkpt lat="44.49995" lon="0.71071">
        <ele>158.2</ele>
        <time>2017-01-29T08:45:55.000Z</time>
      </trkpt>
      <trkpt lat="44.49995" lon="0.71071">
        <ele>158.2</ele>
        <time>2017-01-29T08:45:56.000Z</time>
      </trkpt>
      <trkpt lat="44.49995" lon="0.71071">
        <ele>158.2</ele>
        <time>2017-01-29T08:45:57.000Z</time>
      </trkpt>
      <trkpt lat="44.49995" lon="0.71071">
        <ele>158.2</ele>
        <time>2017-01-29T08:45:58.000Z</time>
      </trkpt>
      <trkpt lat="44.49995" lon="0.71071">
        <ele>158.2</ele>
        <time>2017-01-29T08:45:59.000Z</time>
      </trkpt>
      <trkpt lat="44.49995" lon="0.71071">
        <ele>158.2</ele>
        <time>2017-01-29T08:46:00.000Z</time>
      </trkpt>
      <trkpt lat="44.49995" lon="0.71071">
        <ele>158.2</ele>
        <time>2017-01-29T08:46:01.000Z</time>
      </trkpt>
      <trkpt lat="44.49995" lon="0.71071">
        <ele>158.2</ele>
        <time>2017-01-29T08:46:02.000Z</time>
      </trkpt>
      <trkpt lat="44.49995" lon="0.71071">
        <ele>158.2</ele>
        <time>2017-01-29T08:46:03.000Z</time>
      </trkpt>
      <trkpt lat="44.49995" lon="0.71071">
        <ele>158.2</ele>
        <time>2017-01-29T08:46:04.000Z</time>
      </trkpt>
      <trkpt lat="44.49995" lon="0.71071">
        <ele>158.2</ele>
        <time>2017-01-29T08:46:05.000Z</time>
      </trkpt>
      <trkpt lat="44.49995" lon="0.71071">
        <ele>158.2</ele>
        <time>2017-01-29T08:46:06.000Z</time>
      </trkpt>
      <trkpt lat="44.49995" lon="0.71071">
        <ele>158.2</ele>
        <time>2017-01-29T08:46:07.000Z</time>
      </trkpt>
      <trkpt lat="44.49995" lon="0.71071">
        <ele>158.2</ele>
        <time>2017-01-29T08:46:08.000Z</time>
      </trkpt>
      <trkpt lat="44.49995" lon="0.71071">
        <ele>158.2</ele>
        <time>2017-01-29T08:46:09.000Z</time>
      </trkpt>
      <trkpt lat="44.49995" lon="0.71071">
        <ele>158.2</ele>
        <time>2017-01-29T08:46:10.000Z</time>
      </trkpt>
      <trkpt lat="44.49995" lon="0.71071">
        <ele>158.2</ele>
        <time>2017-01-29T08:46:11.000Z</time>
      </trkpt>
      <trkpt lat="44.49995" lon="0.71071">
        <ele>158.2</ele>
        <time>2017-01-29T08:46:12.000Z</time>
      </trkpt>
      <trkpt lat="44.49995" lon="0.71071">
        <ele>158.2</ele>
        <time>2017-01-29T08:46:13.000Z</time>
      </trkpt>
      <trkpt lat="44.49995" lon="0.71071">
        <ele>158.2</ele>
        <time>2017-01-29T08:46:14.000Z</time>
      </trkpt>
      <trkpt lat="44.49995" lon="0.71071">
        <ele>158.2</ele>
        <time>2017-01-29T08:46:15.000Z</time>
      </trkpt>
      <trkpt lat="44.49995" lon="0.71071">
        <ele>158.2</ele>
        <time>2017-01-29T08:46:16.000Z</time>
      </trkpt>
      <trkpt lat="44.49995" lon="0.71071">
        <ele>158.2</ele>
        <time>2017-01-29T08:46:17.000Z</time>
      </trkpt>
      <trkpt lat="44.49995" lon="0.71071">
        <ele>158.2</ele>
        <time>2017-01-29T08:46:18.000Z</time>
      </trkpt>
      <trkpt lat="44.49995" lon="0.71071">
        <ele>158.2</ele>
        <time>2017-01-29T08:46:19.000Z</time>
      </trkpt>
      <trkpt lat="44.49995" lon="0.71071">
        <ele>158.2</ele>
        <time>2017-01-29T08:46:20.000Z</time>
      </trkpt>
      <trkpt lat="44.49995" lon="0.71071">
        <ele>158.2</ele>
        <time>2017-01-29T08:46:21.000Z</time>
      </trkpt>
      <trkpt lat="44.49995" lon="0.71071">
        <ele>158.2</ele>
        <time>2017-01-29T08:46:22.000Z</time>
      </trkpt>
      <trkpt lat="44.49995" lon="0.71071">
        <ele>158.2</ele>
        <time>2017-01-29T08:46:23.000Z</time>
      </trkpt>
      <trkpt lat="44.49995" lon="0.71071">
        <ele>158.2</ele>
        <time>2017-01-29T08:46:24.000Z</time>
      </trkpt>
      <trkpt lat="44.49995" lon="0.71071">
        <ele>158.2</ele>
        <time>2017-01-29T08:46:25.000Z</time>
      </trkpt>
      <trkpt lat="44.49995" lon="0.71071">
        <ele>158.2</ele>
        <time>2017-01-29T08:46:26.000Z</time>
      </trkpt>
      <trkpt lat="44.49995" lon="0.71071">
        <ele>158.2</ele>
        <time>2017-01-29T08:46:27.000Z</time>
      </trkpt>
      <trkpt lat="44.49995" lon="0.71071">
        <ele>158.2</ele>
        <time>2017-01-29T08:46:28.000Z</time>
      </trkpt>
      <trkpt lat="44.49995" lon="0.71071">
        <ele>158.2</ele>
        <time>2017-01-29T08:46:29.000Z</time>
      </trkpt>
      <trkpt lat="44.49995" lon="0.71071">
        <ele>158.2</ele>
        <time>2017-01-29T08:46:30.000Z</time>
      </trkpt>
      <trkpt lat="44.49995" lon="0.71071">
        <ele>158.2</ele>
        <time>2017-01-29T08:46:31.000Z</time>
      </trkpt>
      <trkpt lat="44.49995" lon="0.71071">
        <ele>158.2</ele>
        <time>2017-01-29T08:46:32.000Z</time>
      </trkpt>
      <trkpt lat="44.49995" lon="0.71071">
        <ele>158.2</ele>
        <time>2017-01-29T08:46:33.000Z</time>
      </trkpt>
      <trkpt lat="44.49995" lon="0.71071">
        <ele>158.2</ele>
        <time>2017-01-29T08:46:34.000Z</time>
      </trkpt>
      <trkpt lat="44.49995" lon="0.71071">
        <ele>158.2</ele>
        <time>2017-01-29T08:46:35.000Z</time>
      </trkpt>
      <trkpt lat="44.49995" lon="0.71071">
        <ele>158.2</ele>
        <time>2017-01-29T08:46:36.000Z</time>
      </trkpt>
      <trkpt lat="44.49995" lon="0.71071">
        <ele>158.2</ele>
        <time>2017-01-29T08:46:37.000Z</time>
      </trkpt>
      <trkpt lat="44.49995" lon="0.71071">
        <ele>158.2</ele>
        <time>2017-01-29T08:46:38.000Z</time>
      </trkpt>
      <trkpt lat="44.49995" lon="0.71071">
        <ele>158.2</ele>
        <time>2017-01-29T08:46:39.000Z</time>
      </trkpt>
      <trkpt lat="44.49995" lon="0.71071">
        <ele>158.2</ele>
        <time>2017-01-29T08:46:40.000Z</time>
      </trkpt>
      <trkpt lat="44.49995" lon="0.71071">
        <ele>158.2</ele>
        <time>2017-01-29T08:46:41.000Z</time>
      </trkpt>
      <trkpt lat="44.49995" lon="0.71071">
        <ele>158.2</ele>
        <time>2017-01-29T08:46:42.000Z</time>
      </trkpt>
      <trkpt lat="44.49995" lon="0.71071">
        <ele>158.2</ele>
        <time>2017-01-29T08:46:43.000Z</time>
      </trkpt>
      <trkpt lat="44.49995" lon="0.71071">
        <ele>158.2</ele>
        <time>2017-01-29T08:46:44.000Z</time>
      </trkpt>
      <trkpt lat="44.49995" lon="0.71071">
        <ele>158.2</ele>
        <time>2017-01-29T08:46:45.000Z</time>
      </trkpt>
      <trkpt lat="44.49995" lon="0.71071">
        <ele>158.2</ele>
        <time>2017-01-29T08:46:46.000Z</time>
      </trkpt>
      <trkpt lat="44.49995" lon="0.71071">
        <ele>158.2</ele>
        <time>2017-01-29T08:46:47.000Z</time>
      </trkpt>
      <trkpt lat="44.49995" lon="0.71071">
        <ele>158.2</ele>
        <time>2017-01-29T08:46:48.000Z</time>
      </trkpt>
      <trkpt lat="44.49995" lon="0.71071">
        <ele>158.2</ele>
        <time>2017-01-29T08:46:49.000Z</time>
      </trkpt>
      <trkpt lat="44.49995" lon="0.71071">
        <ele>158.2</ele>
        <time>2017-01-29T08:46:50.000Z</time>
      </trkpt>
      <trkpt lat="44.49995" lon="0.71071">
        <ele>158.2</ele>
        <time>2017-01-29T08:46:51.000Z</time>
      </trkpt>
      <trkpt lat="44.49995" lon="0.71071">
        <ele>158.2</ele>
        <time>2017-01-29T08:46:52.000Z</time>
      </trkpt>
      <trkpt lat="44.49995" lon="0.71071">
        <ele>158.2</ele>
        <time>2017-01-29T08:46:53.000Z</time>
      </trkpt>
      <trkpt lat="44.49995" lon="0.71071">
        <ele>158.2</ele>
        <time>2017-01-29T08:46:54.000Z</time>
      </trkpt>
      <trkpt lat="44.49995" lon="0.71071">
        <ele>158.2</ele>
        <time>2017-01-29T08:46:55.000Z</time>
      </trkpt>
      <trkpt lat="44.49995" lon="0.71071">
        <ele>158.2</ele>
        <time>2017-01-29T08:46:56.000Z</time>
      </trkpt>
      <trkpt lat="44.49995" lon="0.71071">
        <ele>158.2</ele>
        <time>2017-01-29T08:46:57.000Z</time>
      </trkpt>
      <trkpt lat="44.49995" lon="0.71071">
        <ele>158.2</ele>
        <time>2017-01-29T08:46:58.000Z</time>
      </trkpt>
      <trkpt lat="44.49995" lon="0.71071">
        <ele>158.2</ele>
        <time>2017-01-29T08:46:59.000Z</time>
      </trkpt>
      <trkpt lat="44.49995" lon="0.71071">
        <ele>158.2</ele>
        <time>2017-01-29T08:47:00.000Z</time>
      </trkpt>
      <trkpt lat="44.49995" lon="0.71071">
        <ele>158.2</ele>
        <time>2017-01-29T08:47:01.000Z</time>
      </trkpt>
      <trkpt lat="44.49995" lon="0.71071">
        <ele>158.2</ele>
        <time>2017-01-29T08:47:02.000Z</time>
      </trkpt>
      <trkpt lat="44.49995" lon="0.71071">
        <ele>158.2</ele>
        <time>2017-01-29T08:47:03.000Z</time>
      </trkpt>
      <trkpt lat="44.49995" lon="0.71071">
        <ele>158.2</ele>
        <time>2017-01-29T08:47:04.000Z</time>
      </trkpt>
      <trkpt lat="44.49995" lon="0.71071">
        <ele>158.2</ele>
        <time>2017-01-29T08:47:05.000Z</time>
      </trkpt>
      <trkpt lat="44.49995" lon="0.71071">
        <ele>158.2</ele>
        <time>2017-01-29T08:47:06.000Z</time>
      </trkpt>
      <trkpt lat="44.49995" lon="0.71071">
        <ele>158.2</ele>
        <time>2017-01-29T08:47:07.000Z</time>
      </trkpt>
      <trkpt lat="44.49995" lon="0.71071">
        <ele>158.2</ele>
        <time>2017-01-29T08:47:08.000Z</time>
      </trkpt>
      <trkpt lat="44.49995" lon="0.71071">
        <ele>158.2</ele>
        <time>2017-01-29T08:47:09.000Z</time>
      </trkpt>
      <trkpt lat="44.49995" lon="0.71071">
        <ele>158.2</ele>
        <time>2017-01-29T08:47:10.000Z</time>
      </trkpt>
      <trkpt lat="44.49995" lon="0.71071">
        <ele>158.2</ele>
        <time>2017-01-29T08:47:11.000Z</time>
      </trkpt>
      <trkpt lat="44.49995" lon="0.71071">
        <ele>158.2</ele>
        <time>2017-01-29T08:47:12.000Z</time>
      </trkpt>
      <trkpt lat="44.49995" lon="0.71071">
        <ele>158.2</ele>
        <time>2017-01-29T08:47:13.000Z</time>
      </trkpt>
      <trkpt lat="44.49995" lon="0.71071">
        <ele>158.2</ele>
        <time>2017-01-29T08:47:14.000Z</time>
      </trkpt>
      <trkpt lat="44.49995" lon="0.71071">
        <ele>158.2</ele>
        <time>2017-01-29T08:47:15.000Z</time>
      </trkpt>
      <trkpt lat="44.49995" lon="0.71071">
        <ele>158.2</ele>
        <time>2017-01-29T08:47:16.000Z</time>
      </trkpt>
      <trkpt lat="44.49995" lon="0.71071">
        <ele>158.2</ele>
        <time>2017-01-29T08:47:17.000Z</time>
      </trkpt>
      <trkpt lat="44.49995" lon="0.71071">
        <ele>158.2</ele>
        <time>2017-01-29T08:47:18.000Z</time>
      </trkpt>
      <trkpt lat="44.49995" lon="0.71071">
        <ele>158.2</ele>
        <time>2017-01-29T08:47:19.000Z</time>
      </trkpt>
      <trkpt lat="44.49995" lon="0.71071">
        <ele>158.2</ele>
        <time>2017-01-29T08:47:20.000Z</time>
      </trkpt>
      <trkpt lat="44.49995" lon="0.71071">
        <ele>158.2</ele>
        <time>2017-01-29T08:47:21.000Z</time>
      </trkpt>
      <trkpt lat="44.49995" lon="0.71071">
        <ele>158.2</ele>
        <time>2017-01-29T08:47:22.000Z</time>
      </trkpt>
      <trkpt lat="44.49995" lon="0.71071">
        <ele>158.2</ele>
        <time>2017-01-29T08:47:23.000Z</time>
      </trkpt>
      <trkpt lat="44.49995" lon="0.71071">
        <ele>158.2</ele>
        <time>2017-01-29T08:47:24.000Z</time>
      </trkpt>
      <trkpt lat="44.49995" lon="0.71071">
        <ele>158.2</ele>
        <time>2017-01-29T08:47:25.000Z</time>
      </trkpt>
      <trkpt lat="44.49995" lon="0.71071">
        <ele>158.2</ele>
        <time>2017-01-29T08:47:26.000Z</time>
      </trkpt>
      <trkpt lat="44.49995" lon="0.71071">
        <ele>158.2</ele>
        <time>2017-01-29T08:47:27.000Z</time>
      </trkpt>
      <trkpt lat="44.49995" lon="0.71071">
        <ele>158.2</ele>
        <time>2017-01-29T08:47:28.000Z</time>
      </trkpt>
      <trkpt lat="44.49995" lon="0.71071">
        <ele>158.2</ele>
        <time>2017-01-29T08:47:29.000Z</time>
      </trkpt>
      <trkpt lat="44.49995" lon="0.71071">
        <ele>158.2</ele>
        <time>2017-01-29T08:47:30.000Z</time>
      </trkpt>
      <trkpt lat="44.49995" lon="0.71071">
        <ele>158.2</ele>
        <time>2017-01-29T08:47:31.000Z</time>
      </trkpt>
      <trkpt lat="44.49995" lon="0.71071">
        <ele>158.2</ele>
        <time>2017-01-29T08:47:32.000Z</time>
      </trkpt>
      <trkpt lat="44.49995" lon="0.71071">
        <ele>158.2</ele>
        <time>2017-01-29T08:47:33.000Z</time>
      </trkpt>
      <trkpt lat="44.49995" lon="0.71071">
        <ele>158.2</ele>
        <time>2017-01-29T08:47:34.000Z</time>
      </trkpt>
      <trkpt lat="44.49995" lon="0.71071">
        <ele>158.2</ele>
        <time>2017-01-29T08:47:35.000Z</time>
      </trkpt>
      <trkpt lat="44.49995" lon="0.71071">
        <ele>158.2</ele>
        <time>2017-01-29T08:47:36.000Z</time>
      </trkpt>
      <trkpt lat="44.49995" lon="0.71071">
        <ele>158.2</ele>
        <time>2017-01-29T08:47:37.000Z</time>
      </trkpt>
      <trkpt lat="44.49995" lon="0.71071">
        <ele>158.2</ele>
        <time>2017-01-29T08:47:38.000Z</time>
      </trkpt>
      <trkpt lat="44.49995" lon="0.71071">
        <ele>158.2</ele>
        <time>2017-01-29T08:47:39.000Z</time>
      </trkpt>
      <trkpt lat="44.49995" lon="0.71071">
        <ele>158.2</ele>
        <time>2017-01-29T08:47:40.000Z</time>
      </trkpt>
      <trkpt lat="44.49995" lon="0.71071">
        <ele>158.2</ele>
        <time>2017-01-29T08:47:41.000Z</time>
      </trkpt>
      <trkpt lat="44.49995" lon="0.71071">
        <ele>158.2</ele>
        <time>2017-01-29T08:47:42.000Z</time>
      </trkpt>
      <trkpt lat="44.49995" lon="0.71071">
        <ele>158.2</ele>
        <time>2017-01-29T08:47:43.000Z</time>
      </trkpt>
      <trkpt lat="44.49995" lon="0.71071">
        <ele>158.2</ele>
        <time>2017-01-29T08:47:44.000Z</time>
      </trkpt>
      <trkpt lat="44.49995" lon="0.71071">
        <ele>158.2</ele>
        <time>2017-01-29T08:47:45.000Z</time>
      </trkpt>
      <trkpt lat="44.49995" lon="0.71071">
        <ele>158.2</ele>
        <time>2017-01-29T08:47:46.000Z</time>
      </trkpt>
      <trkpt lat="44.49995" lon="0.71071">
        <ele>158.2</ele>
        <time>2017-01-29T08:47:47.000Z</time>
      </trkpt>
      <trkpt lat="44.49995" lon="0.71071">
        <ele>158.2</ele>
        <time>2017-01-29T08:47:48.000Z</time>
      </trkpt>
      <trkpt lat="44.49995" lon="0.71071">
        <ele>158.2</ele>
        <time>2017-01-29T08:47:49.000Z</time>
      </trkpt>
      <trkpt lat="44.49995" lon="0.71071">
        <ele>158.2</ele>
        <time>2017-01-29T08:47:50.000Z</time>
      </trkpt>
      <trkpt lat="44.49995" lon="0.71071">
        <ele>158.2</ele>
        <time>2017-01-29T08:47:51.000Z</time>
      </trkpt>
      <trkpt lat="44.49995" lon="0.71071">
        <ele>158.2</ele>
        <time>2017-01-29T08:47:52.000Z</time>
      </trkpt>
      <trkpt lat="44.49995" lon="0.71071">
        <ele>158.2</ele>
        <time>2017-01-29T08:47:53.000Z</time>
      </trkpt>
      <trkpt lat="44.49995" lon="0.71071">
        <ele>158.2</ele>
        <time>2017-01-29T08:47:54.000Z</time>
      </trkpt>
      <trkpt lat="44.49995" lon="0.71071">
        <ele>158.2</ele>
        <time>2017-01-29T08:47:55.000Z</time>
      </trkpt>
      <trkpt lat="44.49995" lon="0.71071">
        <ele>158.2</ele>
        <time>2017-01-29T08:47:56.000Z</time>
      </trkpt>
      <trkpt lat="44.49995" lon="0.71071">
        <ele>158.2</ele>
        <time>2017-01-29T08:47:57.000Z</time>
      </trkpt>
      <trkpt lat="44.49995" lon="0.71071">
        <ele>158.2</ele>
        <time>2017-01-29T08:47:58.000Z</time>
      </trkpt>
      <trkpt lat="44.49995" lon="0.71071">
        <ele>158.2</ele>
        <time>2017-01-29T08:47:59.000Z</time>
      </trkpt>
      <trkpt lat="44.49995" lon="0.71071">
        <ele>158.2</ele>
        <time>2017-01-29T08:48:00.000Z</time>
      </trkpt>
      <trkpt lat="44.49995" lon="0.71071">
        <ele>158.2</ele>
        <time>2017-01-29T08:48:01.000Z</time>
      </trkpt>
      <trkpt lat="44.49995" lon="0.71071">
        <ele>158.2</ele>
        <time>2017-01-29T08:48:02.000Z</time>
      </trkpt>
      <trkpt lat="44.49995" lon="0.71071">
        <ele>158.2</ele>
        <time>2017-01-29T08:48:03.000Z</time>
      </trkpt>
      <trkpt lat="44.49995" lon="0.71071">
        <ele>158.2</ele>
        <time>2017-01-29T08:48:04.000Z</time>
      </trkpt>
      <trkpt lat="44.49995" lon="0.71071">
        <ele>158.2</ele>
        <time>2017-01-29T08:48:05.000Z</time>
      </trkpt>
      <trkpt lat="44.49995" lon="0.71071">
        <ele>158.2</ele>
        <time>2017-01-29T08:48:06.000Z</time>
      </trkpt>
      <trkpt lat="44.49995" lon="0.71071">
        <ele>158.2</ele>
        <time>2017-01-29T08:48:07.000Z</time>
      </trkpt>
      <trkpt lat="44.49995" lon="0.71071">
        <ele>158.2</ele>
        <time>2017-01-29T08:48:08.000Z</time>
      </trkpt>
      <trkpt lat="44.49995" lon="0.71071">
        <ele>158.2</ele>
        <time>2017-01-29T08:48:09.000Z</time>
      </trkpt>
      <trkpt lat="44.49994" lon="0.71071">
        <ele>158.2</ele>
        <time>2017-01-29T08:48:10.000Z</time>
      </trkpt>
      <trkpt lat="44.49993" lon="0.71072">
        <ele>158.2</ele>
        <time>2017-01-29T08:48:11.000Z</time>
      </trkpt>
      <trkpt lat="44.4999" lon="0.71072">
        <ele>158.2</ele>
        <time>2017-01-29T08:48:12.000Z</time>
      </trkpt>
      <trkpt lat="44.49987" lon="0.71072">
        <ele>158.2</ele>
        <time>2017-01-29T08:48:13.000Z</time>
      </trkpt>
      <trkpt lat="44.49983" lon="0.71073">
        <ele>158.2</ele>
        <time>2017-01-29T08:48:14.000Z</time>
      </trkpt>
      <trkpt lat="44.4998" lon="0.71073">
        <ele>158.2</ele>
        <time>2017-01-29T08:48:15.000Z</time>
      </trkpt>
      <trkpt lat="44.49976" lon="0.71073">
        <ele>158.2</ele>
        <time>2017-01-29T08:48:16.000Z</time>
      </trkpt>
      <trkpt lat="44.49973" lon="0.71073">
        <ele>158.2</ele>
        <time>2017-01-29T08:48:17.000Z</time>
      </trkpt>
      <trkpt lat="44.4997" lon="0.71072">
        <ele>158.3</ele>
        <time>2017-01-29T08:48:18.000Z</time>
      </trkpt>
      <trkpt lat="44.49967" lon="0.71072">
        <ele>158.3</ele>
        <time>2017-01-29T08:48:19.000Z</time>
      </trkpt>
      <trkpt lat="44.49963" lon="0.71072">
        <ele>158.3</ele>
        <time>2017-01-29T08:48:20.000Z</time>
      </trkpt>
      <trkpt lat="44.4996" lon="0.71072">
        <ele>158.3</ele>
        <time>2017-01-29T08:48:21.000Z</time>
      </trkpt>
      <trkpt lat="44.49956" lon="0.71072">
        <ele>158.3</ele>
        <time>2017-01-29T08:48:22.000Z</time>
      </trkpt>
      <trkpt lat="44.49951" lon="0.71073">
        <ele>158.3</ele>
        <time>2017-01-29T08:48:23.000Z</time>
      </trkpt>
      <trkpt lat="44.49947" lon="0.71073">
        <ele>158.4</ele>
        <time>2017-01-29T08:48:24.000Z</time>
      </trkpt>
      <trkpt lat="44.49943" lon="0.71074">
        <ele>158.4</ele>
        <time>2017-01-29T08:48:25.000Z</time>
      </trkpt>
      <trkpt lat="44.49939" lon="0.71075">
        <ele>158.5</ele>
        <time>2017-01-29T08:48:26.000Z</time>
      </trkpt>
      <trkpt lat="44.49935" lon="0.71075">
        <ele>158.5</ele>
        <time>2017-01-29T08:48:27.000Z</time>
      </trkpt>
      <trkpt lat="44.4993" lon="0.71074">
        <ele>158.5</ele>
        <time>2017-01-29T08:48:28.000Z</time>
      </trkpt>
      <trkpt lat="44.49926" lon="0.71073">
        <ele>158.5</ele>
        <time>2017-01-29T08:48:29.000Z</time>
      </trkpt>
      <trkpt lat="44.49921" lon="0.71072">
        <ele>158.4</ele>
        <time>2017-01-29T08:48:30.000Z</time>
      </trkpt>
      <trkpt lat="44.49917" lon="0.71071">
        <ele>158.4</ele>
        <time>2017-01-29T08:48:31.000Z</time>
      </trkpt>
      <trkpt lat="44.49912" lon="0.71069">
        <ele>158</ele>
        <time>2017-01-29T08:48:32.000Z</time>
      </trkpt>
      <trkpt lat="44.49907" lon="0.71068">
        <ele>157.7</ele>
        <time>2017-01-29T08:48:33.000Z</time>
      </trkpt>
      <trkpt lat="44.49903" lon="0.71066">
        <ele>157.3</ele>
        <time>2017-01-29T08:48:34.000Z</time>
      </trkpt>
      <trkpt lat="44.49898" lon="0.71065">
        <ele>156.9</ele>
        <time>2017-01-29T08:48:35.000Z</time>
      </trkpt>
      <trkpt lat="44.49893" lon="0.71062">
        <ele>156.5</ele>
        <time>2017-01-29T08:48:36.000Z</time>
      </trkpt>
      <trkpt lat="44.49887" lon="0.7106">
        <ele>156.1</ele>
        <time>2017-01-29T08:48:37.000Z</time>
      </trkpt>
      <trkpt lat="44.49882" lon="0.71057">
        <ele>155.6</ele>
        <time>2017-01-29T08:48:38.000Z</time>
      </trkpt>
      <trkpt lat="44.49876" lon="0.71054">
        <ele>155.2</ele>
        <time>2017-01-29T08:48:39.000Z</time>
      </trkpt>
      <trkpt lat="44.4987" lon="0.7105">
        <ele>154.7</ele>
        <time>2017-01-29T08:48:40.000Z</time>
      </trkpt>
      <trkpt lat="44.49865" lon="0.71046">
        <ele>154.3</ele>
        <time>2017-01-29T08:48:41.000Z</time>
      </trkpt>
      <trkpt lat="44.49859" lon="0.71042">
        <ele>153.9</ele>
        <time>2017-01-29T08:48:42.000Z</time>
      </trkpt>
      <trkpt lat="44.49853" lon="0.71038">
        <ele>153.5</ele>
        <time>2017-01-29T08:48:43.000Z</time>
      </trkpt>
      <trkpt lat="44.49847" lon="0.71034">
        <ele>153.1</ele>
        <time>2017-01-29T08:48:44.000Z</time>
      </trkpt>
      <trkpt lat="44.49841" lon="0.7103">
        <ele>152.7</ele>
        <time>2017-01-29T08:48:45.000Z</time>
      </trkpt>
      <trkpt lat="44.49835" lon="0.71026">
        <ele>152.4</ele>
        <time>2017-01-29T08:48:46.000Z</time>
      </trkpt>
      <trkpt lat="44.49829" lon="0.71022">
        <ele>152</ele>
        <time>2017-01-29T08:48:47.000Z</time>
      </trkpt>
      <trkpt lat="44.49822" lon="0.71018">
        <ele>151.7</ele>
        <time>2017-01-29T08:48:48.000Z</time>
      </trkpt>
      <trkpt lat="44.49816" lon="0.71014">
        <ele>151.4</ele>
        <time>2017-01-29T08:48:49.000Z</time>
      </trkpt>
      <trkpt lat="44.4981" lon="0.7101">
        <ele>151.1</ele>
        <time>2017-01-29T08:48:50.000Z</time>
      </trkpt>
      <trkpt lat="44.49804" lon="0.71005">
        <ele>150.9</ele>
        <time>2017-01-29T08:48:51.000Z</time>
      </trkpt>
      <trkpt lat="44.49797" lon="0.71001">
        <ele>150.7</ele>
        <time>2017-01-29T08:48:52.000Z</time>
      </trkpt>
      <trkpt lat="44.49791" lon="0.70996">
        <ele>150.3</ele>
        <time>2017-01-29T08:48:53.000Z</time>
      </trkpt>
      <trkpt lat="44.49785" lon="0.70991">
        <ele>150</ele>
        <time>2017-01-29T08:48:54.000Z</time>
      </trkpt>
      <trkpt lat="44.49779" lon="0.70987">
        <ele>149.8</ele>
        <time>2017-01-29T08:48:55.000Z</time>
      </trkpt>
      <trkpt lat="44.49773" lon="0.70982">
        <ele>149.6</ele>
        <time>2017-01-29T08:48:56.000Z</time>
      </trkpt>
      <trkpt lat="44.49768" lon="0.70978">
        <ele>149.5</ele>
        <time>2017-01-29T08:48:57.000Z</time>
      </trkpt>
      <trkpt lat="44.49762" lon="0.70974">
        <ele>149.4</ele>
        <time>2017-01-29T08:48:58.000Z</time>
      </trkpt>
      <trkpt lat="44.49757" lon="0.70969">
        <ele>149.4</ele>
        <time>2017-01-29T08:48:59.000Z</time>
      </trkpt>
      <trkpt lat="44.49752" lon="0.70965">
        <ele>149.4</ele>
        <time>2017-01-29T08:49:00.000Z</time>
      </trkpt>
      <trkpt lat="44.49746" lon="0.7096">
        <ele>149.5</ele>
        <time>2017-01-29T08:49:01.000Z</time>
      </trkpt>
      <trkpt lat="44.49741" lon="0.70956">
        <ele>149.5</ele>
        <time>2017-01-29T08:49:02.000Z</time>
      </trkpt>
      <trkpt lat="44.49736" lon="0.70951">
        <ele>149.6</ele>
        <time>2017-01-29T08:49:03.000Z</time>
      </trkpt>
      <trkpt lat="44.4973" lon="0.70947">
        <ele>149.7</ele>
        <time>2017-01-29T08:49:04.000Z</time>
      </trkpt>
      <trkpt lat="44.49725" lon="0.70943">
        <ele>149.8</ele>
        <time>2017-01-29T08:49:05.000Z</time>
      </trkpt>
      <trkpt lat="44.49719" lon="0.70938">
        <ele>150</ele>
        <time>2017-01-29T08:49:06.000Z</time>
      </trkpt>
      <trkpt lat="44.49714" lon="0.70934">
        <ele>150.2</ele>
        <time>2017-01-29T08:49:07.000Z</time>
      </trkpt>
      <trkpt lat="44.49709" lon="0.70931">
        <ele>150.4</ele>
        <time>2017-01-29T08:49:08.000Z</time>
      </trkpt>
      <trkpt lat="44.49704" lon="0.70927">
        <ele>150.6</ele>
        <time>2017-01-29T08:49:09.000Z</time>
      </trkpt>
      <trkpt lat="44.49698" lon="0.70924">
        <ele>150.9</ele>
        <time>2017-01-29T08:49:10.000Z</time>
      </trkpt>
      <trkpt lat="44.49693" lon="0.7092">
        <ele>151.2</ele>
        <time>2017-01-29T08:49:11.000Z</time>
      </trkpt>
      <trkpt lat="44.49688" lon="0.70917">
        <ele>151.5</ele>
        <time>2017-01-29T08:49:12.000Z</time>
      </trkpt>
      <trkpt lat="44.49683" lon="0.70913">
        <ele>151.4</ele>
        <time>2017-01-29T08:49:13.000Z</time>
      </trkpt>
      <trkpt lat="44.49678" lon="0.70909">
        <ele>151.3</ele>
        <time>2017-01-29T08:49:14.000Z</time>
      </trkpt>
      <trkpt lat="44.49673" lon="0.70906">
        <ele>151.3</ele>
        <time>2017-01-29T08:49:15.000Z</time>
      </trkpt>
      <trkpt lat="44.49667" lon="0.70902">
        <ele>151.3</ele>
        <time>2017-01-29T08:49:16.000Z</time>
      </trkpt>
      <trkpt lat="44.49662" lon="0.70899">
        <ele>151.1</ele>
        <time>2017-01-29T08:49:17.000Z</time>
      </trkpt>
      <trkpt lat="44.49656" lon="0.70896">
        <ele>150.9</ele>
        <time>2017-01-29T08:49:18.000Z</time>
      </trkpt>
      <trkpt lat="44.49651" lon="0.70893">
        <ele>150.8</ele>
        <time>2017-01-29T08:49:19.000Z</time>
      </trkpt>
      <trkpt lat="44.49645" lon="0.70889">
        <ele>150.7</ele>
        <time>2017-01-29T08:49:20.000Z</time>
      </trkpt>
      <trkpt lat="44.49639" lon="0.70886">
        <ele>150.6</ele>
        <time>2017-01-29T08:49:21.000Z</time>
      </trkpt>
      <trkpt lat="44.49633" lon="0.70883">
        <ele>150.6</ele>
        <time>2017-01-29T08:49:22.000Z</time>
      </trkpt>
      <trkpt lat="44.49627" lon="0.7088">
        <ele>150.7</ele>
        <time>2017-01-29T08:49:23.000Z</time>
      </trkpt>
      <trkpt lat="44.49621" lon="0.70877">
        <ele>150.8</ele>
        <time>2017-01-29T08:49:24.000Z</time>
      </trkpt>
      <trkpt lat="44.49616" lon="0.70874">
        <ele>150.9</ele>
        <time>2017-01-29T08:49:25.000Z</time>
      </trkpt>
      <trkpt lat="44.4961" lon="0.7087">
        <ele>151.1</ele>
        <time>2017-01-29T08:49:26.000Z</time>
      </trkpt>
      <trkpt lat="44.49605" lon="0.70867">
        <ele>151.4</ele>
        <time>2017-01-29T08:49:27.000Z</time>
      </trkpt>
      <trkpt lat="44.496" lon="0.70863">
        <ele>151.7</ele>
        <time>2017-01-29T08:49:28.000Z</time>
      </trkpt>
      <trkpt lat="44.49595" lon="0.7086">
        <ele>152</ele>
        <time>2017-01-29T08:49:29.000Z</time>
      </trkpt>
      <trkpt lat="44.4959" lon="0.70856">
        <ele>152.4</ele>
        <time>2017-01-29T08:49:30.000Z</time>
      </trkpt>
      <trkpt lat="44.49585" lon="0.70852">
        <ele>152.8</ele>
        <time>2017-01-29T08:49:31.000Z</time>
      </trkpt>
      <trkpt lat="44.4958" lon="0.70849">
        <ele>153.1</ele>
        <time>2017-01-29T08:49:32.000Z</time>
      </trkpt>
      <trkpt lat="44.49576" lon="0.70846">
        <ele>153.4</ele>
        <time>2017-01-29T08:49:33.000Z</time>
      </trkpt>
      <trkpt lat="44.49571" lon="0.70843">
        <ele>153.7</ele>
        <time>2017-01-29T08:49:34.000Z</time>
      </trkpt>
      <trkpt lat="44.49566" lon="0.7084">
        <ele>154</ele>
        <time>2017-01-29T08:49:35.000Z</time>
      </trkpt>
      <trkpt lat="44.49561" lon="0.70837">
        <ele>154.3</ele>
        <time>2017-01-29T08:49:36.000Z</time>
      </trkpt>
      <trkpt lat="44.49557" lon="0.70834">
        <ele>154.6</ele>
        <time>2017-01-29T08:49:37.000Z</time>
      </trkpt>
      <trkpt lat="44.49552" lon="0.70831">
        <ele>154.8</ele>
        <time>2017-01-29T08:49:38.000Z</time>
      </trkpt>
      <trkpt lat="44.49548" lon="0.70829">
        <ele>155.1</ele>
        <time>2017-01-29T08:49:39.000Z</time>
      </trkpt>
      <trkpt lat="44.49543" lon="0.70826">
        <ele>155.3</ele>
        <time>2017-01-29T08:49:40.000Z</time>
      </trkpt>
      <trkpt lat="44.49539" lon="0.70822">
        <ele>155.6</ele>
        <time>2017-01-29T08:49:41.000Z</time>
      </trkpt>
      <trkpt lat="44.49536" lon="0.70819">
        <ele>155.9</ele>
        <time>2017-01-29T08:49:42.000Z</time>
      </trkpt>
      <trkpt lat="44.49532" lon="0.70815">
        <ele>156.1</ele>
        <time>2017-01-29T08:49:43.000Z</time>
      </trkpt>
      <trkpt lat="44.49529" lon="0.70811">
        <ele>156.4</ele>
        <time>2017-01-29T08:49:44.000Z</time>
      </trkpt>
      <trkpt lat="44.49527" lon="0.70807">
        <ele>156.6</ele>
        <time>2017-01-29T08:49:45.000Z</time>
      </trkpt>
      <trkpt lat="44.49524" lon="0.70804">
        <ele>156.8</ele>
        <time>2017-01-29T08:49:46.000Z</time>
      </trkpt>
      <trkpt lat="44.49523" lon="0.708">
        <ele>157</ele>
        <time>2017-01-29T08:49:47.000Z</time>
      </trkpt>
      <trkpt lat="44.49521" lon="0.70797">
        <ele>157.2</ele>
        <time>2017-01-29T08:49:48.000Z</time>
      </trkpt>
      <trkpt lat="44.4952" lon="0.70794">
        <ele>157.4</ele>
        <time>2017-01-29T08:49:49.000Z</time>
      </trkpt>
      <trkpt lat="44.49518" lon="0.70791">
        <ele>157.6</ele>
        <time>2017-01-29T08:49:50.000Z</time>
      </trkpt>
      <trkpt lat="44.49516" lon="0.70787">
        <ele>157.8</ele>
        <time>2017-01-29T08:49:51.000Z</time>
      </trkpt>
      <trkpt lat="44.49513" lon="0.70782">
        <ele>158.1</ele>
        <time>2017-01-29T08:49:52.000Z</time>
      </trkpt>
      <trkpt lat="44.4951" lon="0.70778">
        <ele>158.4</ele>
        <time>2017-01-29T08:49:53.000Z</time>
      </trkpt>
      <trkpt lat="44.49507" lon="0.70773">
        <ele>158.7</ele>
        <time>2017-01-29T08:49:54.000Z</time>
      </trkpt>
      <trkpt lat="44.49504" lon="0.70769">
        <ele>159</ele>
        <time>2017-01-29T08:49:55.000Z</time>
      </trkpt>
      <trkpt lat="44.495" lon="0.70764">
        <ele>159.3</ele>
        <time>2017-01-29T08:49:56.000Z</time>
      </trkpt>
      <trkpt lat="44.49496" lon="0.7076">
        <ele>159.4</ele>
        <time>2017-01-29T08:49:57.000Z</time>
      </trkpt>
      <trkpt lat="44.49493" lon="0.70756">
        <ele>159.5</ele>
        <time>2017-01-29T08:49:58.000Z</time>
      </trkpt>
      <trkpt lat="44.49489" lon="0.70752">
        <ele>159.5</ele>
        <time>2017-01-29T08:49:59.000Z</time>
      </trkpt>
      <trkpt lat="44.49485" lon="0.70748">
        <ele>159.4</ele>
        <time>2017-01-29T08:50:00.000Z</time>
      </trkpt>
      <trkpt lat="44.49482" lon="0.70744">
        <ele>159.1</ele>
        <time>2017-01-29T08:50:01.000Z</time>
      </trkpt>
      <trkpt lat="44.49478" lon="0.7074">
        <ele>158.8</ele>
        <time>2017-01-29T08:50:02.000Z</time>
      </trkpt>
      <trkpt lat="44.49474" lon="0.70736">
        <ele>158.5</ele>
        <time>2017-01-29T08:50:03.000Z</time>
      </trkpt>
      <trkpt lat="44.49471" lon="0.70733">
        <ele>158.2</ele>
        <time>2017-01-29T08:50:04.000Z</time>
      </trkpt>
      <trkpt lat="44.49467" lon="0.70729">
        <ele>157.9</ele>
        <time>2017-01-29T08:50:05.000Z</time>
      </trkpt>
      <trkpt lat="44.49463" lon="0.70725">
        <ele>157.6</ele>
        <time>2017-01-29T08:50:06.000Z</time>
      </trkpt>
      <trkpt lat="44.49459" lon="0.7072">
        <ele>157.3</ele>
        <time>2017-01-29T08:50:07.000Z</time>
      </trkpt>
      <trkpt lat="44.49455" lon="0.70715">
        <ele>156.9</ele>
        <time>2017-01-29T08:50:08.000Z</time>
      </trkpt>
      <trkpt lat="44.4945" lon="0.7071">
        <ele>156.5</ele>
        <time>2017-01-29T08:50:09.000Z</time>
      </trkpt>
      <trkpt lat="44.49445" lon="0.70703">
        <ele>156</ele>
        <time>2017-01-29T08:50:10.000Z</time>
      </trkpt>
      <trkpt lat="44.4944" lon="0.70697">
        <ele>155.5</ele>
        <time>2017-01-29T08:50:11.000Z</time>
      </trkpt>
      <trkpt lat="44.49435" lon="0.70689">
        <ele>154.9</ele>
        <time>2017-01-29T08:50:12.000Z</time>
      </trkpt>
      <trkpt lat="44.49429" lon="0.70682">
        <ele>154.3</ele>
        <time>2017-01-29T08:50:13.000Z</time>
      </trkpt>
      <trkpt lat="44.49423" lon="0.70674">
        <ele>153.6</ele>
        <time>2017-01-29T08:50:14.000Z</time>
      </trkpt>
      <trkpt lat="44.49417" lon="0.70665">
        <ele>152.9</ele>
        <time>2017-01-29T08:50:15.000Z</time>
      </trkpt>
      <trkpt lat="44.49411" lon="0.70657">
        <ele>151.3</ele>
        <time>2017-01-29T08:50:16.000Z</time>
      </trkpt>
      <trkpt lat="44.49405" lon="0.70649">
        <ele>149.6</ele>
        <time>2017-01-29T08:50:17.000Z</time>
      </trkpt>
      <trkpt lat="44.49399" lon="0.7064">
        <ele>148</ele>
        <time>2017-01-29T08:50:18.000Z</time>
      </trkpt>
      <trkpt lat="44.49393" lon="0.70631">
        <ele>146.3</ele>
        <time>2017-01-29T08:50:19.000Z</time>
      </trkpt>
      <trkpt lat="44.49387" lon="0.7062">
        <ele>144.6</ele>
        <time>2017-01-29T08:50:20.000Z</time>
      </trkpt>
      <trkpt lat="44.4938" lon="0.70608">
        <ele>142.9</ele>
        <time>2017-01-29T08:50:21.000Z</time>
      </trkpt>
      <trkpt lat="44.49374" lon="0.70596">
        <ele>141.2</ele>
        <time>2017-01-29T08:50:22.000Z</time>
      </trkpt>
      <trkpt lat="44.49367" lon="0.70584">
        <ele>139.5</ele>
        <time>2017-01-29T08:50:23.000Z</time>
      </trkpt>
      <trkpt lat="44.4936" lon="0.70572">
        <ele>137.7</ele>
        <time>2017-01-29T08:50:24.000Z</time>
      </trkpt>
      <trkpt lat="44.49352" lon="0.7056">
        <ele>136</ele>
        <time>2017-01-29T08:50:25.000Z</time>
      </trkpt>
      <trkpt lat="44.49344" lon="0.70548">
        <ele>134.2</ele>
        <time>2017-01-29T08:50:26.000Z</time>
      </trkpt>
      <trkpt lat="44.49337" lon="0.70535">
        <ele>132.5</ele>
        <time>2017-01-29T08:50:27.000Z</time>
      </trkpt>
      <trkpt lat="44.49329" lon="0.70522">
        <ele>130.7</ele>
        <time>2017-01-29T08:50:28.000Z</time>
      </trkpt>
      <trkpt lat="44.49321" lon="0.70509">
        <ele>128.9</ele>
        <time>2017-01-29T08:50:29.000Z</time>
      </trkpt>
      <trkpt lat="44.49315" lon="0.70495">
        <ele>127.2</ele>
        <time>2017-01-29T08:50:30.000Z</time>
      </trkpt>
      <trkpt lat="44.49309" lon="0.70481">
        <ele>125.5</ele>
        <time>2017-01-29T08:50:31.000Z</time>
      </trkpt>
      <trkpt lat="44.49305" lon="0.70466">
        <ele>123.9</ele>
        <time>2017-01-29T08:50:32.000Z</time>
      </trkpt>
      <trkpt lat="44.49301" lon="0.70453">
        <ele>122.6</ele>
        <time>2017-01-29T08:50:33.000Z</time>
      </trkpt>
      <trkpt lat="44.49297" lon="0.70439">
        <ele>121.4</ele>
        <time>2017-01-29T08:50:34.000Z</time>
      </trkpt>
      <trkpt lat="44.49294" lon="0.70427">
        <ele>120.3</ele>
        <time>2017-01-29T08:50:35.000Z</time>
      </trkpt>
      <trkpt lat="44.49291" lon="0.70414">
        <ele>119.3</ele>
        <time>2017-01-29T08:50:36.000Z</time>
      </trkpt>
      <trkpt lat="44.49288" lon="0.70402">
        <ele>118.5</ele>
        <time>2017-01-29T08:50:37.000Z</time>
      </trkpt>
      <trkpt lat="44.49286" lon="0.7039">
        <ele>117.8</ele>
        <time>2017-01-29T08:50:38.000Z</time>
      </trkpt>
      <trkpt lat="44.49283" lon="0.70378">
        <ele>117.1</ele>
        <time>2017-01-29T08:50:39.000Z</time>
      </trkpt>
      <trkpt lat="44.49281" lon="0.70366">
        <ele>116.5</ele>
        <time>2017-01-29T08:50:40.000Z</time>
      </trkpt>
      <trkpt lat="44.49278" lon="0.70355">
        <ele>115.9</ele>
        <time>2017-01-29T08:50:41.000Z</time>
      </trkpt>
      <trkpt lat="44.49276" lon="0.70344">
        <ele>115.3</ele>
        <time>2017-01-29T08:50:42.000Z</time>
      </trkpt>
      <trkpt lat="44.49273" lon="0.70333">
        <ele>114.8</ele>
        <time>2017-01-29T08:50:43.000Z</time>
      </trkpt>
      <trkpt lat="44.4927" lon="0.70323">
        <ele>114.2</ele>
        <time>2017-01-29T08:50:44.000Z</time>
      </trkpt>
      <trkpt lat="44.49268" lon="0.70312">
        <ele>113.6</ele>
        <time>2017-01-29T08:50:45.000Z</time>
      </trkpt>
      <trkpt lat="44.49265" lon="0.70301">
        <ele>113</ele>
        <time>2017-01-29T08:50:46.000Z</time>
      </trkpt>
      <trkpt lat="44.49262" lon="0.70289">
        <ele>112.3</ele>
        <time>2017-01-29T08:50:47.000Z</time>
      </trkpt>
      <trkpt lat="44.49259" lon="0.70278">
        <ele>111.7</ele>
        <time>2017-01-29T08:50:48.000Z</time>
      </trkpt>
      <trkpt lat="44.49257" lon="0.70267">
        <ele>111</ele>
        <time>2017-01-29T08:50:49.000Z</time>
      </trkpt>
      <trkpt lat="44.49254" lon="0.70256">
        <ele>110.4</ele>
        <time>2017-01-29T08:50:50.000Z</time>
      </trkpt>
      <trkpt lat="44.49252" lon="0.70245">
        <ele>109.8</ele>
        <time>2017-01-29T08:50:51.000Z</time>
      </trkpt>
      <trkpt lat="44.49249" lon="0.70234">
        <ele>109.2</ele>
        <time>2017-01-29T08:50:52.000Z</time>
      </trkpt>
      <trkpt lat="44.49247" lon="0.70224">
        <ele>108.6</ele>
        <time>2017-01-29T08:50:53.000Z</time>
      </trkpt>
      <trkpt lat="44.49244" lon="0.70213">
        <ele>108</ele>
        <time>2017-01-29T08:50:54.000Z</time>
      </trkpt>
      <trkpt lat="44.49241" lon="0.70202">
        <ele>107.4</ele>
        <time>2017-01-29T08:50:55.000Z</time>
      </trkpt>
      <trkpt lat="44.49238" lon="0.70193">
        <ele>106.8</ele>
        <time>2017-01-29T08:50:56.000Z</time>
      </trkpt>
      <trkpt lat="44.49235" lon="0.70185">
        <ele>106.3</ele>
        <time>2017-01-29T08:50:57.000Z</time>
      </trkpt>
      <trkpt lat="44.49234" lon="0.70177">
        <ele>105.9</ele>
        <time>2017-01-29T08:50:58.000Z</time>
      </trkpt>
      <trkpt lat="44.49232" lon="0.7017">
        <ele>105.5</ele>
        <time>2017-01-29T08:50:59.000Z</time>
      </trkpt>
      <trkpt lat="44.49232" lon="0.70164">
        <ele>105.2</ele>
        <time>2017-01-29T08:51:00.000Z</time>
      </trkpt>
      <trkpt lat="44.49231" lon="0.70157">
        <ele>104.9</ele>
        <time>2017-01-29T08:51:01.000Z</time>
      </trkpt>
      <trkpt lat="44.49231" lon="0.70149">
        <ele>104.6</ele>
        <time>2017-01-29T08:51:02.000Z</time>
      </trkpt>
      <trkpt lat="44.49231" lon="0.70141">
        <ele>104.3</ele>
        <time>2017-01-29T08:51:03.000Z</time>
      </trkpt>
      <trkpt lat="44.49231" lon="0.70132">
        <ele>104</ele>
        <time>2017-01-29T08:51:04.000Z</time>
      </trkpt>
      <trkpt lat="44.49232" lon="0.70123">
        <ele>103.6</ele>
        <time>2017-01-29T08:51:05.000Z</time>
      </trkpt>
      <trkpt lat="44.49231" lon="0.70113">
        <ele>103.3</ele>
        <time>2017-01-29T08:51:06.000Z</time>
      </trkpt>
      <trkpt lat="44.49231" lon="0.70103">
        <ele>102.8</ele>
        <time>2017-01-29T08:51:07.000Z</time>
      </trkpt>
      <trkpt lat="44.4923" lon="0.70093">
        <ele>102.4</ele>
        <time>2017-01-29T08:51:08.000Z</time>
      </trkpt>
      <trkpt lat="44.49228" lon="0.70083">
        <ele>101.9</ele>
        <time>2017-01-29T08:51:09.000Z</time>
      </trkpt>
      <trkpt lat="44.49226" lon="0.70072">
        <ele>101.4</ele>
        <time>2017-01-29T08:51:10.000Z</time>
      </trkpt>
      <trkpt lat="44.49223" lon="0.70062">
        <ele>100.9</ele>
        <time>2017-01-29T08:51:11.000Z</time>
      </trkpt>
      <trkpt lat="44.4922" lon="0.70052">
        <ele>100.5</ele>
        <time>2017-01-29T08:51:12.000Z</time>
      </trkpt>
      <trkpt lat="44.49217" lon="0.70043">
        <ele>100</ele>
        <time>2017-01-29T08:51:13.000Z</time>
      </trkpt>
      <trkpt lat="44.49213" lon="0.70033">
        <ele>99.6</ele>
        <time>2017-01-29T08:51:14.000Z</time>
      </trkpt>
      <trkpt lat="44.49209" lon="0.70024">
        <ele>99.2</ele>
        <time>2017-01-29T08:51:15.000Z</time>
      </trkpt>
      <trkpt lat="44.49205" lon="0.70016">
        <ele>98.9</ele>
        <time>2017-01-29T08:51:16.000Z</time>
      </trkpt>
      <trkpt lat="44.49201" lon="0.70007">
        <ele>98.6</ele>
        <time>2017-01-29T08:51:17.000Z</time>
      </trkpt>
      <trkpt lat="44.49197" lon="0.69999">
        <ele>98.3</ele>
        <time>2017-01-29T08:51:18.000Z</time>
      </trkpt>
      <trkpt lat="44.49192" lon="0.69991">
        <ele>98</ele>
        <time>2017-01-29T08:51:19.000Z</time>
      </trkpt>
      <trkpt lat="44.49188" lon="0.69984">
        <ele>97.7</ele>
        <time>2017-01-29T08:51:20.000Z</time>
      </trkpt>
      <trkpt lat="44.49184" lon="0.69977">
        <ele>97.4</ele>
        <time>2017-01-29T08:51:21.000Z</time>
      </trkpt>
      <trkpt lat="44.49179" lon="0.6997">
        <ele>97.1</ele>
        <time>2017-01-29T08:51:22.000Z</time>
      </trkpt>
      <trkpt lat="44.49175" lon="0.69963">
        <ele>96.8</ele>
        <time>2017-01-29T08:51:23.000Z</time>
      </trkpt>
      <trkpt lat="44.4917" lon="0.69957">
        <ele>96.5</ele>
        <time>2017-01-29T08:51:24.000Z</time>
      </trkpt>
      <trkpt lat="44.49165" lon="0.69951">
        <ele>96.2</ele>
        <time>2017-01-29T08:51:25.000Z</time>
      </trkpt>
      <trkpt lat="44.4916" lon="0.69946">
        <ele>95.8</ele>
        <time>2017-01-29T08:51:26.000Z</time>
      </trkpt>
      <trkpt lat="44.49155" lon="0.69941">
        <ele>95.5</ele>
        <time>2017-01-29T08:51:27.000Z</time>
      </trkpt>
      <trkpt lat="44.4915" lon="0.69936">
        <ele>95.1</ele>
        <time>2017-01-29T08:51:28.000Z</time>
      </trkpt>
      <trkpt lat="44.49145" lon="0.69932">
        <ele>94.8</ele>
        <time>2017-01-29T08:51:29.000Z</time>
      </trkpt>
      <trkpt lat="44.4914" lon="0.69927">
        <ele>94.4</ele>
        <time>2017-01-29T08:51:30.000Z</time>
      </trkpt>
      <trkpt lat="44.49134" lon="0.69923">
        <ele>94.1</ele>
        <time>2017-01-29T08:51:31.000Z</time>
      </trkpt>
      <trkpt lat="44.49129" lon="0.69918">
        <ele>93.7</ele>
        <time>2017-01-29T08:51:32.000Z</time>
      </trkpt>
      <trkpt lat="44.49125" lon="0.69914">
        <ele>93.5</ele>
        <time>2017-01-29T08:51:33.000Z</time>
      </trkpt>
      <trkpt lat="44.49122" lon="0.6991">
        <ele>93.3</ele>
        <time>2017-01-29T08:51:34.000Z</time>
      </trkpt>
      <trkpt lat="44.49122" lon="0.69907">
        <ele>93.3</ele>
        <time>2017-01-29T08:51:35.000Z</time>
      </trkpt>
      <trkpt lat="44.49122" lon="0.69905">
        <ele>93.3</ele>
        <time>2017-01-29T08:51:36.000Z</time>
      </trkpt>
      <trkpt lat="44.49121" lon="0.69903">
        <ele>93.2</ele>
        <time>2017-01-29T08:51:37.000Z</time>
      </trkpt>
      <trkpt lat="44.4912" lon="0.69903">
        <ele>93.2</ele>
        <time>2017-01-29T08:51:38.000Z</time>
      </trkpt>
      <trkpt lat="44.49119" lon="0.69903">
        <ele>93.1</ele>
        <time>2017-01-29T08:51:39.000Z</time>
      </trkpt>
      <trkpt lat="44.49119" lon="0.69904">
        <ele>93.1</ele>
        <time>2017-01-29T08:51:40.000Z</time>
      </trkpt>
      <trkpt lat="44.49119" lon="0.69906">
        <ele>93.2</ele>
        <time>2017-01-29T08:51:41.000Z</time>
      </trkpt>
      <trkpt lat="44.4912" lon="0.69907">
        <ele>93.2</ele>
        <time>2017-01-29T08:51:42.000Z</time>
      </trkpt>
      <trkpt lat="44.49121" lon="0.69908">
        <ele>93.3</ele>
        <time>2017-01-29T08:51:43.000Z</time>
      </trkpt>
      <trkpt lat="44.49122" lon="0.69908">
        <ele>93.3</ele>
        <time>2017-01-29T08:51:44.000Z</time>
      </trkpt>
      <trkpt lat="44.49123" lon="0.69907">
        <ele>93.3</ele>
        <time>2017-01-29T08:51:45.000Z</time>
      </trkpt>
      <trkpt lat="44.49124" lon="0.69907">
        <ele>93.3</ele>
        <time>2017-01-29T08:51:46.000Z</time>
      </trkpt>
      <trkpt lat="44.49124" lon="0.69907">
        <ele>93.3</ele>
        <time>2017-01-29T08:51:47.000Z</time>
      </trkpt>
      <trkpt lat="44.49124" lon="0.69908">
        <ele>93.3</ele>
        <time>2017-01-29T08:51:48.000Z</time>
      </trkpt>
      <trkpt lat="44.49124" lon="0.69908">
        <ele>93.3</ele>
        <time>2017-01-29T08:51:49.000Z</time>
      </trkpt>
      <trkpt lat="44.49124" lon="0.69908">
        <ele>93.3</ele>
        <time>2017-01-29T08:51:50.000Z</time>
      </trkpt>
      <trkpt lat="44.49124" lon="0.69908">
        <ele>93.3</ele>
        <time>2017-01-29T08:51:51.000Z</time>
      </trkpt>
      <trkpt lat="44.49124" lon="0.69908">
        <ele>93.3</ele>
        <time>2017-01-29T08:51:52.000Z</time>
      </trkpt>
      <trkpt lat="44.49124" lon="0.69908">
        <ele>93.3</ele>
        <time>2017-01-29T08:51:53.000Z</time>
      </trkpt>
      <trkpt lat="44.49124" lon="0.69908">
        <ele>93.3</ele>
        <time>2017-01-29T08:51:54.000Z</time>
      </trkpt>
      <trkpt lat="44.49124" lon="0.69908">
        <ele>93.3</ele>
        <time>2017-01-29T08:51:55.000Z</time>
      </trkpt>
      <trkpt lat="44.49124" lon="0.69908">
        <ele>93.3</ele>
        <time>2017-01-29T08:51:56.000Z</time>
      </trkpt>
      <trkpt lat="44.49124" lon="0.69908">
        <ele>93.3</ele>
        <time>2017-01-29T08:51:57.000Z</time>
      </trkpt>
      <trkpt lat="44.49124" lon="0.69908">
        <ele>93.3</ele>
        <time>2017-01-29T08:51:58.000Z</time>
      </trkpt>
      <trkpt lat="44.49124" lon="0.69908">
        <ele>93.3</ele>
        <time>2017-01-29T08:51:59.000Z</time>
      </trkpt>
      <trkpt lat="44.49124" lon="0.69908">
        <ele>93.3</ele>
        <time>2017-01-29T08:52:00.000Z</time>
      </trkpt>
      <trkpt lat="44.49124" lon="0.69908">
        <ele>93.3</ele>
        <time>2017-01-29T08:52:01.000Z</time>
      </trkpt>
      <trkpt lat="44.49124" lon="0.69908">
        <ele>93.3</ele>
        <time>2017-01-29T08:52:02.000Z</time>
      </trkpt>
      <trkpt lat="44.49124" lon="0.69908">
        <ele>93.3</ele>
        <time>2017-01-29T08:52:03.000Z</time>
      </trkpt>
      <trkpt lat="44.49124" lon="0.69908">
        <ele>93.3</ele>
        <time>2017-01-29T08:52:04.000Z</time>
      </trkpt>
      <trkpt lat="44.49124" lon="0.69908">
        <ele>93.3</ele>
        <time>2017-01-29T08:52:05.000Z</time>
      </trkpt>
      <trkpt lat="44.49124" lon="0.69908">
        <ele>93.3</ele>
        <time>2017-01-29T08:52:06.000Z</time>
      </trkpt>
      <trkpt lat="44.49124" lon="0.69908">
        <ele>93.4</ele>
        <time>2017-01-29T08:52:07.000Z</time>
      </trkpt>
      <trkpt lat="44.49125" lon="0.69908">
        <ele>93.4</ele>
        <time>2017-01-29T08:52:08.000Z</time>
      </trkpt>
      <trkpt lat="44.49125" lon="0.69909">
        <ele>93.4</ele>
        <time>2017-01-29T08:52:09.000Z</time>
      </trkpt>
      <trkpt lat="44.49125" lon="0.69909">
        <ele>93.4</ele>
        <time>2017-01-29T08:52:10.000Z</time>
      </trkpt>
      <trkpt lat="44.49125" lon="0.69909">
        <ele>93.4</ele>
        <time>2017-01-29T08:52:11.000Z</time>
      </trkpt>
      <trkpt lat="44.49125" lon="0.69909">
        <ele>93.4</ele>
        <time>2017-01-29T08:52:12.000Z</time>
      </trkpt>
      <trkpt lat="44.49125" lon="0.69909">
        <ele>93.4</ele>
        <time>2017-01-29T08:52:13.000Z</time>
      </trkpt>
      <trkpt lat="44.49125" lon="0.69909">
        <ele>93.4</ele>
        <time>2017-01-29T08:52:14.000Z</time>
      </trkpt>
      <trkpt lat="44.49125" lon="0.6991">
        <ele>93.4</ele>
        <time>2017-01-29T08:52:15.000Z</time>
      </trkpt>
      <trkpt lat="44.49125" lon="0.6991">
        <ele>93.4</ele>
        <time>2017-01-29T08:52:16.000Z</time>
      </trkpt>
      <trkpt lat="44.49124" lon="0.6991">
        <ele>93.4</ele>
        <time>2017-01-29T08:52:17.000Z</time>
      </trkpt>
      <trkpt lat="44.49124" lon="0.69911">
        <ele>93.4</ele>
        <time>2017-01-29T08:52:18.000Z</time>
      </trkpt>
      <trkpt lat="44.49123" lon="0.69909">
        <ele>93.3</ele>
        <time>2017-01-29T08:52:19.000Z</time>
      </trkpt>
      <trkpt lat="44.49121" lon="0.69908">
        <ele>93.3</ele>
        <time>2017-01-29T08:52:20.000Z</time>
      </trkpt>
      <trkpt lat="44.4912" lon="0.69907">
        <ele>93.2</ele>
        <time>2017-01-29T08:52:21.000Z</time>
      </trkpt>
      <trkpt lat="44.49118" lon="0.69906">
        <ele>93.1</ele>
        <time>2017-01-29T08:52:22.000Z</time>
      </trkpt>
      <trkpt lat="44.49116" lon="0.69906">
        <ele>93.1</ele>
        <time>2017-01-29T08:52:23.000Z</time>
      </trkpt>
      <trkpt lat="44.49114" lon="0.69906">
        <ele>93</ele>
        <time>2017-01-29T08:52:24.000Z</time>
      </trkpt>
      <trkpt lat="44.49112" lon="0.69907">
        <ele>92.9</ele>
        <time>2017-01-29T08:52:25.000Z</time>
      </trkpt>
      <trkpt lat="44.49109" lon="0.69907">
        <ele>92.9</ele>
        <time>2017-01-29T08:52:26.000Z</time>
      </trkpt>
      <trkpt lat="44.49106" lon="0.69908">
        <ele>92.8</ele>
        <time>2017-01-29T08:52:27.000Z</time>
      </trkpt>
      <trkpt lat="44.49103" lon="0.69908">
        <ele>92.7</ele>
        <time>2017-01-29T08:52:28.000Z</time>
      </trkpt>
      <trkpt lat="44.491" lon="0.69909">
        <ele>92.6</ele>
        <time>2017-01-29T08:52:29.000Z</time>
      </trkpt>
      <trkpt lat="44.49097" lon="0.6991">
        <ele>92.5</ele>
        <time>2017-01-29T08:52:30.000Z</time>
      </trkpt>
      <trkpt lat="44.49094" lon="0.69911">
        <ele>92.4</ele>
        <time>2017-01-29T08:52:31.000Z</time>
      </trkpt>
      <trkpt lat="44.4909" lon="0.69912">
        <ele>92.2</ele>
        <time>2017-01-29T08:52:32.000Z</time>
      </trkpt>
      <trkpt lat="44.49087" lon="0.69913">
        <ele>92.1</ele>
        <time>2017-01-29T08:52:33.000Z</time>
      </trkpt>
      <trkpt lat="44.49083" lon="0.69913">
        <ele>92</ele>
        <time>2017-01-29T08:52:34.000Z</time>
      </trkpt>
      <trkpt lat="44.4908" lon="0.69914">
        <ele>92</ele>
        <time>2017-01-29T08:52:35.000Z</time>
      </trkpt>
      <trkpt lat="44.49076" lon="0.69915">
        <ele>92</ele>
        <time>2017-01-29T08:52:36.000Z</time>
      </trkpt>
      <trkpt lat="44.49073" lon="0.69917">
        <ele>92</ele>
        <time>2017-01-29T08:52:37.000Z</time>
      </trkpt>
      <trkpt lat="44.49069" lon="0.69918">
        <ele>92</ele>
        <time>2017-01-29T08:52:38.000Z</time>
      </trkpt>
      <trkpt lat="44.49066" lon="0.69919">
        <ele>92.1</ele>
        <time>2017-01-29T08:52:39.000Z</time>
      </trkpt>
      <trkpt lat="44.49062" lon="0.6992">
        <ele>92.1</ele>
        <time>2017-01-29T08:52:40.000Z</time>
      </trkpt>
      <trkpt lat="44.49059" lon="0.69921">
        <ele>92.2</ele>
        <time>2017-01-29T08:52:41.000Z</time>
      </trkpt>
      <trkpt lat="44.49055" lon="0.69922">
        <ele>92.2</ele>
        <time>2017-01-29T08:52:42.000Z</time>
      </trkpt>
      <trkpt lat="44.49052" lon="0.69923">
        <ele>92.2</ele>
        <time>2017-01-29T08:52:43.000Z</time>
      </trkpt>
      <trkpt lat="44.49049" lon="0.69924">
        <ele>92.3</ele>
        <time>2017-01-29T08:52:44.000Z</time>
      </trkpt>
      <trkpt lat="44.49045" lon="0.69925">
        <ele>92.3</ele>
        <time>2017-01-29T08:52:45.000Z</time>
      </trkpt>
      <trkpt lat="44.49042" lon="0.69926">
        <ele>92.3</ele>
        <time>2017-01-29T08:52:46.000Z</time>
      </trkpt>
      <trkpt lat="44.49039" lon="0.69927">
        <ele>92.4</ele>
        <time>2017-01-29T08:52:47.000Z</time>
      </trkpt>
      <trkpt lat="44.49036" lon="0.69928">
        <ele>92.4</ele>
        <time>2017-01-29T08:52:48.000Z</time>
      </trkpt>
      <trkpt lat="44.49032" lon="0.69929">
        <ele>92.4</ele>
        <time>2017-01-29T08:52:49.000Z</time>
      </trkpt>
      <trkpt lat="44.49029" lon="0.6993">
        <ele>92.4</ele>
        <time>2017-01-29T08:52:50.000Z</time>
      </trkpt>
      <trkpt lat="44.49026" lon="0.69931">
        <ele>92.5</ele>
        <time>2017-01-29T08:52:51.000Z</time>
      </trkpt>
      <trkpt lat="44.49023" lon="0.69932">
        <ele>92.5</ele>
        <time>2017-01-29T08:52:52.000Z</time>
      </trkpt>
      <trkpt lat="44.4902" lon="0.69933">
        <ele>92.5</ele>
        <time>2017-01-29T08:52:53.000Z</time>
      </trkpt>
      <trkpt lat="44.49017" lon="0.69934">
        <ele>92.5</ele>
        <time>2017-01-29T08:52:54.000Z</time>
      </trkpt>
      <trkpt lat="44.49014" lon="0.69935">
        <ele>92.5</ele>
        <time>2017-01-29T08:52:55.000Z</time>
      </trkpt>
      <trkpt lat="44.49011" lon="0.69936">
        <ele>92.5</ele>
        <time>2017-01-29T08:52:56.000Z</time>
      </trkpt>
      <trkpt lat="44.49008" lon="0.69937">
        <ele>92.5</ele>
        <time>2017-01-29T08:52:57.000Z</time>
      </trkpt>
      <trkpt lat="44.49005" lon="0.69938">
        <ele>92.5</ele>
        <time>2017-01-29T08:52:58.000Z</time>
      </trkpt>
      <trkpt lat="44.49002" lon="0.69939">
        <ele>92.5</ele>
        <time>2017-01-29T08:52:59.000Z</time>
      </trkpt>
      <trkpt lat="44.48999" lon="0.6994">
        <ele>92.5</ele>
        <time>2017-01-29T08:53:00.000Z</time>
      </trkpt>
      <trkpt lat="44.48996" lon="0.69941">
        <ele>92.4</ele>
        <time>2017-01-29T08:53:01.000Z</time>
      </trkpt>
      <trkpt lat="44.48993" lon="0.69942">
        <ele>92.4</ele>
        <time>2017-01-29T08:53:02.000Z</time>
      </trkpt>
      <trkpt lat="44.4899" lon="0.69943">
        <ele>92.3</ele>
        <time>2017-01-29T08:53:03.000Z</time>
      </trkpt>
      <trkpt lat="44.48987" lon="0.69944">
        <ele>92.2</ele>
        <time>2017-01-29T08:53:04.000Z</time>
      </trkpt>
      <trkpt lat="44.48984" lon="0.69945">
        <ele>92.2</ele>
        <time>2017-01-29T08:53:05.000Z</time>
      </trkpt>
      <trkpt lat="44.48981" lon="0.69946">
        <ele>92.1</ele>
        <time>2017-01-29T08:53:06.000Z</time>
      </trkpt>
      <trkpt lat="44.48978" lon="0.69947">
        <ele>92</ele>
        <time>2017-01-29T08:53:07.000Z</time>
      </trkpt>
      <trkpt lat="44.48975" lon="0.69948">
        <ele>92</ele>
        <time>2017-01-29T08:53:08.000Z</time>
      </trkpt>
      <trkpt lat="44.48972" lon="0.69949">
        <ele>91.9</ele>
        <time>2017-01-29T08:53:09.000Z</time>
      </trkpt>
      <trkpt lat="44.48969" lon="0.6995">
        <ele>91.8</ele>
        <time>2017-01-29T08:53:10.000Z</time>
      </trkpt>
      <trkpt lat="44.48965" lon="0.69951">
        <ele>91.8</ele>
        <time>2017-01-29T08:53:11.000Z</time>
      </trkpt>
      <trkpt lat="44.48962" lon="0.69952">
        <ele>91.7</ele>
        <time>2017-01-29T08:53:12.000Z</time>
      </trkpt>
      <trkpt lat="44.48959" lon="0.69953">
        <ele>91.6</ele>
        <time>2017-01-29T08:53:13.000Z</time>
      </trkpt>
      <trkpt lat="44.48956" lon="0.69954">
        <ele>91.6</ele>
        <time>2017-01-29T08:53:14.000Z</time>
      </trkpt>
      <trkpt lat="44.48954" lon="0.69955">
        <ele>91.5</ele>
        <time>2017-01-29T08:53:15.000Z</time>
      </trkpt>
      <trkpt lat="44.48951" lon="0.69955">
        <ele>91.4</ele>
        <time>2017-01-29T08:53:16.000Z</time>
      </trkpt>
      <trkpt lat="44.48949" lon="0.69956">
        <ele>91.4</ele>
        <time>2017-01-29T08:53:17.000Z</time>
      </trkpt>
      <trkpt lat="44.48948" lon="0.69957">
        <ele>91.4</ele>
        <time>2017-01-29T08:53:18.000Z</time>
      </trkpt>
      <trkpt lat="44.48947" lon="0.69957">
        <ele>91.4</ele>
        <time>2017-01-29T08:53:19.000Z</time>
      </trkpt>
      <trkpt lat="44.48947" lon="0.69958">
        <ele>91.4</ele>
        <time>2017-01-29T08:53:20.000Z</time>
      </trkpt>
      <trkpt lat="44.48949" lon="0.69958">
        <ele>91.5</ele>
        <time>2017-01-29T08:53:21.000Z</time>
      </trkpt>
      <trkpt lat="44.4895" lon="0.69958">
        <ele>91.5</ele>
        <time>2017-01-29T08:53:22.000Z</time>
      </trkpt>
      <trkpt lat="44.48952" lon="0.69957">
        <ele>91.5</ele>
        <time>2017-01-29T08:53:23.000Z</time>
      </trkpt>
      <trkpt lat="44.48955" lon="0.69956">
        <ele>91.6</ele>
        <time>2017-01-29T08:53:24.000Z</time>
      </trkpt>
      <trkpt lat="44.48958" lon="0.69955">
        <ele>91.6</ele>
        <time>2017-01-29T08:53:25.000Z</time>
      </trkpt>
      <trkpt lat="44.48961" lon="0.69954">
        <ele>91.7</ele>
        <time>2017-01-29T08:53:26.000Z</time>
      </trkpt>
      <trkpt lat="44.48964" lon="0.69953">
        <ele>91.8</ele>
        <time>2017-01-29T08:53:27.000Z</time>
      </trkpt>
      <trkpt lat="44.48968" lon="0.69952">
        <ele>91.8</ele>
        <time>2017-01-29T08:53:28.000Z</time>
      </trkpt>
      <trkpt lat="44.48971" lon="0.69951">
        <ele>91.9</ele>
        <time>2017-01-29T08:53:29.000Z</time>
      </trkpt>
      <trkpt lat="44.48973" lon="0.69949">
        <ele>91.9</ele>
        <time>2017-01-29T08:53:30.000Z</time>
      </trkpt>
      <trkpt lat="44.48974" lon="0.69946">
        <ele>91.9</ele>
        <time>2017-01-29T08:53:31.000Z</time>
      </trkpt>
      <trkpt lat="44.48973" lon="0.69943">
        <ele>91.8</ele>
        <time>2017-01-29T08:53:32.000Z</time>
      </trkpt>
      <trkpt lat="44.48971" lon="0.69943">
        <ele>91.7</ele>
        <time>2017-01-29T08:53:33.000Z</time>
      </trkpt>
      <trkpt lat="44.48968" lon="0.69944">
        <ele>91.6</ele>
        <time>2017-01-29T08:53:34.000Z</time>
      </trkpt>
      <trkpt lat="44.48964" lon="0.69946">
        <ele>91.6</ele>
        <time>2017-01-29T08:53:35.000Z</time>
      </trkpt>
      <trkpt lat="44.48961" lon="0.69947">
        <ele>91.5</ele>
        <time>2017-01-29T08:53:36.000Z</time>
      </trkpt>
      <trkpt lat="44.48957" lon="0.69947">
        <ele>91.4</ele>
        <time>2017-01-29T08:53:37.000Z</time>
      </trkpt>
      <trkpt lat="44.48955" lon="0.69946">
        <ele>91.3</ele>
        <time>2017-01-29T08:53:38.000Z</time>
      </trkpt>
      <trkpt lat="44.48953" lon="0.69945">
        <ele>91.2</ele>
        <time>2017-01-29T08:53:39.000Z</time>
      </trkpt>
      <trkpt lat="44.48951" lon="0.69942">
        <ele>91</ele>
        <time>2017-01-29T08:53:40.000Z</time>
      </trkpt>
      <trkpt lat="44.48949" lon="0.6994">
        <ele>90.9</ele>
        <time>2017-01-29T08:53:41.000Z</time>
      </trkpt>
      <trkpt lat="44.48947" lon="0.69938">
        <ele>90.8</ele>
        <time>2017-01-29T08:53:42.000Z</time>
      </trkpt>
      <trkpt lat="44.48945" lon="0.69936">
        <ele>90.7</ele>
        <time>2017-01-29T08:53:43.000Z</time>
      </trkpt>
      <trkpt lat="44.48944" lon="0.69935">
        <ele>90.5</ele>
        <time>2017-01-29T08:53:44.000Z</time>
      </trkpt>
      <trkpt lat="44.48942" lon="0.69934">
        <ele>90.5</ele>
        <time>2017-01-29T08:53:45.000Z</time>
      </trkpt>
      <trkpt lat="44.4894" lon="0.69933">
        <ele>90.4</ele>
        <time>2017-01-29T08:53:46.000Z</time>
      </trkpt>
      <trkpt lat="44.48937" lon="0.69933">
        <ele>90.3</ele>
        <time>2017-01-29T08:53:47.000Z</time>
      </trkpt>
      <trkpt lat="44.48935" lon="0.69933">
        <ele>90.2</ele>
        <time>2017-01-29T08:53:48.000Z</time>
      </trkpt>
      <trkpt lat="44.48933" lon="0.69933">
        <ele>90.1</ele>
        <time>2017-01-29T08:53:49.000Z</time>
      </trkpt>
      <trkpt lat="44.4893" lon="0.69933">
        <ele>90.1</ele>
        <time>2017-01-29T08:53:50.000Z</time>
      </trkpt>
      <trkpt lat="44.48928" lon="0.69933">
        <ele>90</ele>
        <time>2017-01-29T08:53:51.000Z</time>
      </trkpt>
      <trkpt lat="44.48925" lon="0.69932">
        <ele>89.9</ele>
        <time>2017-01-29T08:53:52.000Z</time>
      </trkpt>
      <trkpt lat="44.48923" lon="0.69932">
        <ele>89.7</ele>
        <time>2017-01-29T08:53:53.000Z</time>
      </trkpt>
      <trkpt lat="44.4892" lon="0.69931">
        <ele>89.6</ele>
        <time>2017-01-29T08:53:54.000Z</time>
      </trkpt>
      <trkpt lat="44.48917" lon="0.69931">
        <ele>89.5</ele>
        <time>2017-01-29T08:53:55.000Z</time>
      </trkpt>
      <trkpt lat="44.48915" lon="0.6993">
        <ele>89.5</ele>
        <time>2017-01-29T08:53:56.000Z</time>
      </trkpt>
      <trkpt lat="44.48912" lon="0.6993">
        <ele>89.4</ele>
        <time>2017-01-29T08:53:57.000Z</time>
      </trkpt>
      <trkpt lat="44.4891" lon="0.6993">
        <ele>89.4</ele>
        <time>2017-01-29T08:53:58.000Z</time>
      </trkpt>
      <trkpt lat="44.48907" lon="0.6993">
        <ele>89.3</ele>
        <time>2017-01-29T08:53:59.000Z</time>
      </trkpt>
      <trkpt lat="44.48905" lon="0.6993">
        <ele>89.3</ele>
        <time>2017-01-29T08:54:00.000Z</time>
      </trkpt>
      <trkpt lat="44.48903" lon="0.6993">
        <ele>89.3</ele>
        <time>2017-01-29T08:54:01.000Z</time>
      </trkpt>
      <trkpt lat="44.489" lon="0.6993">
        <ele>89.2</ele>
        <time>2017-01-29T08:54:02.000Z</time>
      </trkpt>
      <trkpt lat="44.48898" lon="0.6993">
        <ele>89.2</ele>
        <time>2017-01-29T08:54:03.000Z</time>
      </trkpt>
      <trkpt lat="44.48895" lon="0.69931">
        <ele>89.2</ele>
        <time>2017-01-29T08:54:04.000Z</time>
      </trkpt>
      <trkpt lat="44.48893" lon="0.69932">
        <ele>89.2</ele>
        <time>2017-01-29T08:54:05.000Z</time>
      </trkpt>
      <trkpt lat="44.4889" lon="0.69933">
        <ele>89.2</ele>
        <time>2017-01-29T08:54:06.000Z</time>
      </trkpt>
      <trkpt lat="44.48888" lon="0.69934">
        <ele>89.2</ele>
        <time>2017-01-29T08:54:07.000Z</time>
      </trkpt>
      <trkpt lat="44.48885" lon="0.69936">
        <ele>89.2</ele>
        <time>2017-01-29T08:54:08.000Z</time>
      </trkpt>
      <trkpt lat="44.48883" lon="0.69938">
        <ele>89.3</ele>
        <time>2017-01-29T08:54:09.000Z</time>
      </trkpt>
      <trkpt lat="44.48881" lon="0.6994">
        <ele>89.3</ele>
        <time>2017-01-29T08:54:10.000Z</time>
      </trkpt>
      <trkpt lat="44.48879" lon="0.69942">
        <ele>89.3</ele>
        <time>2017-01-29T08:54:11.000Z</time>
      </trkpt>
      <trkpt lat="44.48876" lon="0.69943">
        <ele>89.3</ele>
        <time>2017-01-29T08:54:12.000Z</time>
      </trkpt>
      <trkpt lat="44.48874" lon="0.69945">
        <ele>89.3</ele>
        <time>2017-01-29T08:54:13.000Z</time>
      </trkpt>
      <trkpt lat="44.48872" lon="0.69946">
        <ele>89.3</ele>
        <time>2017-01-29T08:54:14.000Z</time>
      </trkpt>
      <trkpt lat="44.48869" lon="0.69947">
        <ele>89.3</ele>
        <time>2017-01-29T08:54:15.000Z</time>
      </trkpt>
      <trkpt lat="44.48867" lon="0.69947">
        <ele>89.3</ele>
        <time>2017-01-29T08:54:16.000Z</time>
      </trkpt>
      <trkpt lat="44.48864" lon="0.69948">
        <ele>89.3</ele>
        <time>2017-01-29T08:54:17.000Z</time>
      </trkpt>
      <trkpt lat="44.48862" lon="0.69949">
        <ele>89.2</ele>
        <time>2017-01-29T08:54:18.000Z</time>
      </trkpt>
      <trkpt lat="44.48859" lon="0.69949">
        <ele>89.2</ele>
        <time>2017-01-29T08:54:19.000Z</time>
      </trkpt>
      <trkpt lat="44.48857" lon="0.6995">
        <ele>89.2</ele>
        <time>2017-01-29T08:54:20.000Z</time>
      </trkpt>
      <trkpt lat="44.48854" lon="0.6995">
        <ele>89.1</ele>
        <time>2017-01-29T08:54:21.000Z</time>
      </trkpt>
      <trkpt lat="44.48851" lon="0.6995">
        <ele>89.1</ele>
        <time>2017-01-29T08:54:22.000Z</time>
      </trkpt>
      <trkpt lat="44.48849" lon="0.6995">
        <ele>89.1</ele>
        <time>2017-01-29T08:54:23.000Z</time>
      </trkpt>
      <trkpt lat="44.48846" lon="0.6995">
        <ele>89</ele>
        <time>2017-01-29T08:54:24.000Z</time>
      </trkpt>
      <trkpt lat="44.48843" lon="0.6995">
        <ele>89</ele>
        <time>2017-01-29T08:54:25.000Z</time>
      </trkpt>
      <trkpt lat="44.4884" lon="0.69951">
        <ele>88.9</ele>
        <time>2017-01-29T08:54:26.000Z</time>
      </trkpt>
      <trkpt lat="44.48837" lon="0.69951">
        <ele>88.9</ele>
        <time>2017-01-29T08:54:27.000Z</time>
      </trkpt>
      <trkpt lat="44.48834" lon="0.69951">
        <ele>88.8</ele>
        <time>2017-01-29T08:54:28.000Z</time>
      </trkpt>
      <trkpt lat="44.48831" lon="0.69951">
        <ele>88.8</ele>
        <time>2017-01-29T08:54:29.000Z</time>
      </trkpt>
      <trkpt lat="44.48829" lon="0.69951">
        <ele>88.8</ele>
        <time>2017-01-29T08:54:30.000Z</time>
      </trkpt>
      <trkpt lat="44.48826" lon="0.69952">
        <ele>88.8</ele>
        <time>2017-01-29T08:54:31.000Z</time>
      </trkpt>
      <trkpt lat="44.48823" lon="0.69952">
        <ele>88.9</ele>
        <time>2017-01-29T08:54:32.000Z</time>
      </trkpt>
      <trkpt lat="44.4882" lon="0.69952">
        <ele>88.9</ele>
        <time>2017-01-29T08:54:33.000Z</time>
      </trkpt>
      <trkpt lat="44.48817" lon="0.69952">
        <ele>88.8</ele>
        <time>2017-01-29T08:54:34.000Z</time>
      </trkpt>
      <trkpt lat="44.48814" lon="0.69951">
        <ele>88.8</ele>
        <time>2017-01-29T08:54:35.000Z</time>
      </trkpt>
      <trkpt lat="44.48812" lon="0.6995">
        <ele>88.8</ele>
        <time>2017-01-29T08:54:36.000Z</time>
      </trkpt>
      <trkpt lat="44.48809" lon="0.6995">
        <ele>88.8</ele>
        <time>2017-01-29T08:54:37.000Z</time>
      </trkpt>
      <trkpt lat="44.48807" lon="0.69949">
        <ele>88.8</ele>
        <time>2017-01-29T08:54:38.000Z</time>
      </trkpt>
      <trkpt lat="44.48804" lon="0.69949">
        <ele>88.8</ele>
        <time>2017-01-29T08:54:39.000Z</time>
      </trkpt>
      <trkpt lat="44.48801" lon="0.69949">
        <ele>88.8</ele>
        <time>2017-01-29T08:54:40.000Z</time>
      </trkpt>
      <trkpt lat="44.48798" lon="0.69949">
        <ele>88.8</ele>
        <time>2017-01-29T08:54:41.000Z</time>
      </trkpt>
      <trkpt lat="44.48795" lon="0.69949">
        <ele>88.8</ele>
        <time>2017-01-29T08:54:42.000Z</time>
      </trkpt>
      <trkpt lat="44.48792" lon="0.69948">
        <ele>88.8</ele>
        <time>2017-01-29T08:54:43.000Z</time>
      </trkpt>
      <trkpt lat="44.48789" lon="0.69948">
        <ele>88.8</ele>
        <time>2017-01-29T08:54:44.000Z</time>
      </trkpt>
      <trkpt lat="44.48786" lon="0.69948">
        <ele>88.7</ele>
        <time>2017-01-29T08:54:45.000Z</time>
      </trkpt>
      <trkpt lat="44.48783" lon="0.69948">
        <ele>88.7</ele>
        <time>2017-01-29T08:54:46.000Z</time>
      </trkpt>
      <trkpt lat="44.4878" lon="0.69947">
        <ele>88.7</ele>
        <time>2017-01-29T08:54:47.000Z</time>
      </trkpt>
      <trkpt lat="44.48777" lon="0.69947">
        <ele>88.7</ele>
        <time>2017-01-29T08:54:48.000Z</time>
      </trkpt>
      <trkpt lat="44.48775" lon="0.69947">
        <ele>88.7</ele>
        <time>2017-01-29T08:54:49.000Z</time>
      </trkpt>
      <trkpt lat="44.48773" lon="0.69947">
        <ele>88.7</ele>
        <time>2017-01-29T08:54:50.000Z</time>
      </trkpt>
      <trkpt lat="44.48771" lon="0.69946">
        <ele>88.7</ele>
        <time>2017-01-29T08:54:51.000Z</time>
      </trkpt>
      <trkpt lat="44.48769" lon="0.69946">
        <ele>88.7</ele>
        <time>2017-01-29T08:54:52.000Z</time>
      </trkpt>
      <trkpt lat="44.48768" lon="0.69946">
        <ele>88.7</ele>
        <time>2017-01-29T08:54:53.000Z</time>
      </trkpt>
      <trkpt lat="44.48767" lon="0.69945">
        <ele>88.7</ele>
        <time>2017-01-29T08:54:54.000Z</time>
      </trkpt>
      <trkpt lat="44.48766" lon="0.69944">
        <ele>88.7</ele>
        <time>2017-01-29T08:54:55.000Z</time>
      </trkpt>
      <trkpt lat="44.48765" lon="0.69944">
        <ele>88.7</ele>
        <time>2017-01-29T08:54:56.000Z</time>
      </trkpt>
      <trkpt lat="44.48765" lon="0.69944">
        <ele>88.6</ele>
        <time>2017-01-29T08:54:57.000Z</time>
      </trkpt>
      <trkpt lat="44.48765" lon="0.69944">
        <ele>88.6</ele>
        <time>2017-01-29T08:54:58.000Z</time>
      </trkpt>
      <trkpt lat="44.48765" lon="0.69944">
        <ele>88.6</ele>
        <time>2017-01-29T08:54:59.000Z</time>
      </trkpt>
      <trkpt lat="44.48765" lon="0.69944">
        <ele>88.6</ele>
        <time>2017-01-29T08:55:00.000Z</time>
      </trkpt>
      <trkpt lat="44.48765" lon="0.69944">
        <ele>88.6</ele>
        <time>2017-01-29T08:55:01.000Z</time>
      </trkpt>
      <trkpt lat="44.48765" lon="0.69944">
        <ele>88.6</ele>
        <time>2017-01-29T08:55:02.000Z</time>
      </trkpt>
      <trkpt lat="44.48765" lon="0.69944">
        <ele>88.6</ele>
        <time>2017-01-29T08:55:03.000Z</time>
      </trkpt>
      <trkpt lat="44.48765" lon="0.69944">
        <ele>88.6</ele>
        <time>2017-01-29T08:55:04.000Z</time>
      </trkpt>
      <trkpt lat="44.48765" lon="0.69944">
        <ele>88.6</ele>
        <time>2017-01-29T08:55:05.000Z</time>
      </trkpt>
      <trkpt lat="44.48765" lon="0.69944">
        <ele>88.6</ele>
        <time>2017-01-29T08:55:06.000Z</time>
      </trkpt>
      <trkpt lat="44.48765" lon="0.69944">
        <ele>88.6</ele>
        <time>2017-01-29T08:55:07.000Z</time>
      </trkpt>
      <trkpt lat="44.48765" lon="0.69944">
        <ele>88.6</ele>
        <time>2017-01-29T08:55:08.000Z</time>
      </trkpt>
      <trkpt lat="44.48765" lon="0.69944">
        <ele>88.6</ele>
        <time>2017-01-29T08:55:09.000Z</time>
      </trkpt>
      <trkpt lat="44.48765" lon="0.69944">
        <ele>88.6</ele>
        <time>2017-01-29T08:55:10.000Z</time>
      </trkpt>
      <trkpt lat="44.48765" lon="0.69944">
        <ele>88.6</ele>
        <time>2017-01-29T08:55:11.000Z</time>
      </trkpt>
      <trkpt lat="44.48765" lon="0.69944">
        <ele>88.6</ele>
        <time>2017-01-29T08:55:12.000Z</time>
      </trkpt>
      <trkpt lat="44.48765" lon="0.69944">
        <ele>88.6</ele>
        <time>2017-01-29T08:55:13.000Z</time>
      </trkpt>
      <trkpt lat="44.48765" lon="0.69944">
        <ele>88.6</ele>
        <time>2017-01-29T08:55:14.000Z</time>
      </trkpt>
      <trkpt lat="44.48765" lon="0.69944">
        <ele>88.6</ele>
        <time>2017-01-29T08:55:15.000Z</time>
      </trkpt>
      <trkpt lat="44.48765" lon="0.69944">
        <ele>88.6</ele>
        <time>2017-01-29T08:55:16.000Z</time>
      </trkpt>
      <trkpt lat="44.48765" lon="0.69944">
        <ele>88.6</ele>
        <time>2017-01-29T08:55:17.000Z</time>
      </trkpt>
      <trkpt lat="44.48765" lon="0.69944">
        <ele>88.6</ele>
        <time>2017-01-29T08:55:18.000Z</time>
      </trkpt>
      <trkpt lat="44.48765" lon="0.69944">
        <ele>88.6</ele>
        <time>2017-01-29T08:55:19.000Z</time>
      </trkpt>
      <trkpt lat="44.48765" lon="0.69944">
        <ele>88.6</ele>
        <time>2017-01-29T08:55:20.000Z</time>
      </trkpt>
      <trkpt lat="44.48765" lon="0.69944">
        <ele>88.6</ele>
        <time>2017-01-29T08:55:21.000Z</time>
      </trkpt>
      <trkpt lat="44.48765" lon="0.69944">
        <ele>88.6</ele>
        <time>2017-01-29T08:55:22.000Z</time>
      </trkpt>
      <trkpt lat="44.48765" lon="0.69944">
        <ele>88.6</ele>
        <time>2017-01-29T08:55:23.000Z</time>
      </trkpt>
      <trkpt lat="44.48765" lon="0.69944">
        <ele>88.6</ele>
        <time>2017-01-29T08:55:24.000Z</time>
      </trkpt>
      <trkpt lat="44.48765" lon="0.69944">
        <ele>88.6</ele>
        <time>2017-01-29T08:55:25.000Z</time>
      </trkpt>
      <trkpt lat="44.48765" lon="0.69944">
        <ele>88.6</ele>
        <time>2017-01-29T08:55:26.000Z</time>
      </trkpt>
      <trkpt lat="44.48765" lon="0.69944">
        <ele>88.6</ele>
        <time>2017-01-29T08:55:27.000Z</time>
      </trkpt>
      <trkpt lat="44.48765" lon="0.69944">
        <ele>88.6</ele>
        <time>2017-01-29T08:55:28.000Z</time>
      </trkpt>
      <trkpt lat="44.48765" lon="0.69944">
        <ele>88.6</ele>
        <time>2017-01-29T08:55:29.000Z</time>
      </trkpt>
      <trkpt lat="44.48765" lon="0.69944">
        <ele>88.6</ele>
        <time>2017-01-29T08:55:30.000Z</time>
      </trkpt>
      <trkpt lat="44.48765" lon="0.69944">
        <ele>88.6</ele>
        <time>2017-01-29T08:55:31.000Z</time>
      </trkpt>
      <trkpt lat="44.48765" lon="0.69944">
        <ele>88.6</ele>
        <time>2017-01-29T08:55:32.000Z</time>
      </trkpt>
      <trkpt lat="44.48765" lon="0.69944">
        <ele>88.6</ele>
        <time>2017-01-29T08:55:33.000Z</time>
      </trkpt>
      <trkpt lat="44.48765" lon="0.69944">
        <ele>88.6</ele>
        <time>2017-01-29T08:55:34.000Z</time>
      </trkpt>
      <trkpt lat="44.48765" lon="0.69944">
        <ele>88.6</ele>
        <time>2017-01-29T08:55:35.000Z</time>
      </trkpt>
      <trkpt lat="44.48765" lon="0.69944">
        <ele>88.6</ele>
        <time>2017-01-29T08:55:36.000Z</time>
      </trkpt>
      <trkpt lat="44.48765" lon="0.69944">
        <ele>88.6</ele>
        <time>2017-01-29T08:55:37.000Z</time>
      </trkpt>
      <trkpt lat="44.48765" lon="0.69944">
        <ele>88.6</ele>
        <time>2017-01-29T08:55:38.000Z</time>
      </trkpt>
      <trkpt lat="44.48765" lon="0.69944">
        <ele>88.6</ele>
        <time>2017-01-29T08:55:39.000Z</time>
      </trkpt>
      <trkpt lat="44.48765" lon="0.69944">
        <ele>88.6</ele>
        <time>2017-01-29T08:55:40.000Z</time>
      </trkpt>
      <trkpt lat="44.48765" lon="0.69944">
        <ele>88.6</ele>
        <time>2017-01-29T08:55:41.000Z</time>
      </trkpt>
      <trkpt lat="44.48765" lon="0.69944">
        <ele>88.6</ele>
        <time>2017-01-29T08:55:42.000Z</time>
      </trkpt>
      <trkpt lat="44.48765" lon="0.69944">
        <ele>88.6</ele>
        <time>2017-01-29T08:55:43.000Z</time>
      </trkpt>
      <trkpt lat="44.48765" lon="0.69944">
        <ele>88.6</ele>
        <time>2017-01-29T08:55:44.000Z</time>
      </trkpt>
      <trkpt lat="44.48765" lon="0.69944">
        <ele>88.6</ele>
        <time>2017-01-29T08:55:45.000Z</time>
      </trkpt>
      <trkpt lat="44.48765" lon="0.69944">
        <ele>88.6</ele>
        <time>2017-01-29T08:55:46.000Z</time>
      </trkpt>
      <trkpt lat="44.48765" lon="0.69944">
        <ele>88.6</ele>
        <time>2017-01-29T08:55:47.000Z</time>
      </trkpt>
      <trkpt lat="44.48765" lon="0.69944">
        <ele>88.6</ele>
        <time>2017-01-29T08:55:48.000Z</time>
      </trkpt>
      <trkpt lat="44.48765" lon="0.69944">
        <ele>88.6</ele>
        <time>2017-01-29T08:55:49.000Z</time>
      </trkpt>
      <trkpt lat="44.48765" lon="0.69944">
        <ele>88.6</ele>
        <time>2017-01-29T08:55:50.000Z</time>
      </trkpt>
      <trkpt lat="44.48765" lon="0.69944">
        <ele>88.6</ele>
        <time>2017-01-29T08:55:51.000Z</time>
      </trkpt>
      <trkpt lat="44.48765" lon="0.69944">
        <ele>88.6</ele>
        <time>2017-01-29T08:55:52.000Z</time>
      </trkpt>
      <trkpt lat="44.48765" lon="0.69944">
        <ele>88.6</ele>
        <time>2017-01-29T08:55:53.000Z</time>
      </trkpt>
      <trkpt lat="44.48765" lon="0.69944">
        <ele>88.6</ele>
        <time>2017-01-29T08:55:54.000Z</time>
      </trkpt>
      <trkpt lat="44.48765" lon="0.69944">
        <ele>88.6</ele>
        <time>2017-01-29T08:55:55.000Z</time>
      </trkpt>
      <trkpt lat="44.48765" lon="0.69944">
        <ele>88.6</ele>
        <time>2017-01-29T08:55:56.000Z</time>
      </trkpt>
      <trkpt lat="44.48765" lon="0.69944">
        <ele>88.6</ele>
        <time>2017-01-29T08:55:57.000Z</time>
      </trkpt>
      <trkpt lat="44.48765" lon="0.69944">
        <ele>88.6</ele>
        <time>2017-01-29T08:55:58.000Z</time>
      </trkpt>
      <trkpt lat="44.48765" lon="0.69944">
        <ele>88.6</ele>
        <time>2017-01-29T08:55:59.000Z</time>
      </trkpt>
      <trkpt lat="44.48765" lon="0.69944">
        <ele>88.6</ele>
        <time>2017-01-29T08:56:00.000Z</time>
      </trkpt>
      <trkpt lat="44.48765" lon="0.69944">
        <ele>88.6</ele>
        <time>2017-01-29T08:56:01.000Z</time>
      </trkpt>
      <trkpt lat="44.48765" lon="0.69944">
        <ele>88.6</ele>
        <time>2017-01-29T08:56:02.000Z</time>
      </trkpt>
      <trkpt lat="44.48765" lon="0.69944">
        <ele>88.6</ele>
        <time>2017-01-29T08:56:03.000Z</time>
      </trkpt>
      <trkpt lat="44.48765" lon="0.69944">
        <ele>88.6</ele>
        <time>2017-01-29T08:56:04.000Z</time>
      </trkpt>
      <trkpt lat="44.48765" lon="0.69944">
        <ele>88.6</ele>
        <time>2017-01-29T08:56:05.000Z</time>
      </trkpt>
      <trkpt lat="44.48765" lon="0.69944">
        <ele>88.6</ele>
        <time>2017-01-29T08:56:06.000Z</time>
      </trkpt>
      <trkpt lat="44.48765" lon="0.69944">
        <ele>88.6</ele>
        <time>2017-01-29T08:56:07.000Z</time>
      </trkpt>
      <trkpt lat="44.48765" lon="0.69944">
        <ele>88.6</ele>
        <time>2017-01-29T08:56:08.000Z</time>
      </trkpt>
      <trkpt lat="44.48765" lon="0.69944">
        <ele>88.6</ele>
        <time>2017-01-29T08:56:09.000Z</time>
      </trkpt>
      <trkpt lat="44.48765" lon="0.69944">
        <ele>88.6</ele>
        <time>2017-01-29T08:56:10.000Z</time>
      </trkpt>
      <trkpt lat="44.48765" lon="0.69944">
        <ele>88.6</ele>
        <time>2017-01-29T08:56:11.000Z</time>
      </trkpt>
      <trkpt lat="44.48765" lon="0.69944">
        <ele>88.6</ele>
        <time>2017-01-29T08:56:12.000Z</time>
      </trkpt>
      <trkpt lat="44.48765" lon="0.69944">
        <ele>88.6</ele>
        <time>2017-01-29T08:56:13.000Z</time>
      </trkpt>
      <trkpt lat="44.48765" lon="0.69944">
        <ele>88.6</ele>
        <time>2017-01-29T08:56:14.000Z</time>
      </trkpt>
      <trkpt lat="44.48765" lon="0.69944">
        <ele>88.6</ele>
        <time>2017-01-29T08:56:15.000Z</time>
      </trkpt>
      <trkpt lat="44.48765" lon="0.69944">
        <ele>88.6</ele>
        <time>2017-01-29T08:56:16.000Z</time>
      </trkpt>
      <trkpt lat="44.48765" lon="0.69944">
        <ele>88.6</ele>
        <time>2017-01-29T08:56:17.000Z</time>
      </trkpt>
      <trkpt lat="44.48765" lon="0.69944">
        <ele>88.6</ele>
        <time>2017-01-29T08:56:18.000Z</time>
      </trkpt>
      <trkpt lat="44.48765" lon="0.69944">
        <ele>88.6</ele>
        <time>2017-01-29T08:56:19.000Z</time>
      </trkpt>
      <trkpt lat="44.48765" lon="0.69944">
        <ele>88.6</ele>
        <time>2017-01-29T08:56:20.000Z</time>
      </trkpt>
      <trkpt lat="44.48765" lon="0.69944">
        <ele>88.6</ele>
        <time>2017-01-29T08:56:21.000Z</time>
      </trkpt>
      <trkpt lat="44.48765" lon="0.69944">
        <ele>88.6</ele>
        <time>2017-01-29T08:56:22.000Z</time>
      </trkpt>
      <trkpt lat="44.48765" lon="0.69944">
        <ele>88.6</ele>
        <time>2017-01-29T08:56:23.000Z</time>
      </trkpt>
      <trkpt lat="44.48765" lon="0.69944">
        <ele>88.6</ele>
        <time>2017-01-29T08:56:24.000Z</time>
      </trkpt>
      <trkpt lat="44.48765" lon="0.69944">
        <ele>88.6</ele>
        <time>2017-01-29T08:56:25.000Z</time>
      </trkpt>
      <trkpt lat="44.48765" lon="0.69944">
        <ele>88.6</ele>
        <time>2017-01-29T08:56:26.000Z</time>
      </trkpt>
      <trkpt lat="44.48765" lon="0.69944">
        <ele>88.6</ele>
        <time>2017-01-29T08:56:27.000Z</time>
      </trkpt>
      <trkpt lat="44.48765" lon="0.69944">
        <ele>88.6</ele>
        <time>2017-01-29T08:56:28.000Z</time>
      </trkpt>
      <trkpt lat="44.48765" lon="0.69944">
        <ele>88.6</ele>
        <time>2017-01-29T08:56:29.000Z</time>
      </trkpt>
      <trkpt lat="44.48765" lon="0.69944">
        <ele>88.6</ele>
        <time>2017-01-29T08:56:30.000Z</time>
      </trkpt>
      <trkpt lat="44.48765" lon="0.69944">
        <ele>88.6</ele>
        <time>2017-01-29T08:56:31.000Z</time>
      </trkpt>
      <trkpt lat="44.48765" lon="0.69944">
        <ele>88.6</ele>
        <time>2017-01-29T08:56:32.000Z</time>
      </trkpt>
      <trkpt lat="44.48765" lon="0.69944">
        <ele>88.6</ele>
        <time>2017-01-29T08:56:33.000Z</time>
      </trkpt>
      <trkpt lat="44.48765" lon="0.69943">
        <ele>88.6</ele>
        <time>2017-01-29T08:56:34.000Z</time>
      </trkpt>
      <trkpt lat="44.48765" lon="0.69943">
        <ele>88.6</ele>
        <time>2017-01-29T08:56:35.000Z</time>
      </trkpt>
      <trkpt lat="44.48764" lon="0.69943">
        <ele>88.6</ele>
        <time>2017-01-29T08:56:36.000Z</time>
      </trkpt>
      <trkpt lat="44.48764" lon="0.69943">
        <ele>88.6</ele>
        <time>2017-01-29T08:56:37.000Z</time>
      </trkpt>
      <trkpt lat="44.48764" lon="0.69943">
        <ele>88.6</ele>
        <time>2017-01-29T08:56:38.000Z</time>
      </trkpt>
      <trkpt lat="44.48764" lon="0.69942">
        <ele>88.6</ele>
        <time>2017-01-29T08:56:39.000Z</time>
      </trkpt>
      <trkpt lat="44.48763" lon="0.69941">
        <ele>88.6</ele>
        <time>2017-01-29T08:56:40.000Z</time>
      </trkpt>
      <trkpt lat="44.48763" lon="0.6994">
        <ele>88.6</ele>
        <time>2017-01-29T08:56:41.000Z</time>
      </trkpt>
      <trkpt lat="44.48763" lon="0.69939">
        <ele>88.5</ele>
        <time>2017-01-29T08:56:42.000Z</time>
      </trkpt>
      <trkpt lat="44.48763" lon="0.69938">
        <ele>88.5</ele>
        <time>2017-01-29T08:56:43.000Z</time>
      </trkpt>
      <trkpt lat="44.48763" lon="0.69938">
        <ele>88.5</ele>
        <time>2017-01-29T08:56:44.000Z</time>
      </trkpt>
      <trkpt lat="44.48763" lon="0.69938">
        <ele>88.5</ele>
        <time>2017-01-29T08:56:45.000Z</time>
      </trkpt>
      <trkpt lat="44.48763" lon="0.69938">
        <ele>88.5</ele>
        <time>2017-01-29T08:56:46.000Z</time>
      </trkpt>
      <trkpt lat="44.48763" lon="0.69938">
        <ele>88.5</ele>
        <time>2017-01-29T08:56:47.000Z</time>
      </trkpt>
      <trkpt lat="44.48763" lon="0.69938">
        <ele>88.5</ele>
        <time>2017-01-29T08:56:48.000Z</time>
      </trkpt>
      <trkpt lat="44.48763" lon="0.69938">
        <ele>88.5</ele>
        <time>2017-01-29T08:56:49.000Z</time>
      </trkpt>
      <trkpt lat="44.48763" lon="0.69938">
        <ele>88.5</ele>
        <time>2017-01-29T08:56:50.000Z</time>
      </trkpt>
      <trkpt lat="44.48763" lon="0.69938">
        <ele>88.5</ele>
        <time>2017-01-29T08:56:51.000Z</time>
      </trkpt>
      <trkpt lat="44.48763" lon="0.69938">
        <ele>88.5</ele>
        <time>2017-01-29T08:56:52.000Z</time>
      </trkpt>
      <trkpt lat="44.48763" lon="0.69938">
        <ele>88.5</ele>
        <time>2017-01-29T08:56:53.000Z</time>
      </trkpt>
      <trkpt lat="44.48763" lon="0.69938">
        <ele>88.5</ele>
        <time>2017-01-29T08:56:54.000Z</time>
      </trkpt>
      <trkpt lat="44.48763" lon="0.69938">
        <ele>88.5</ele>
        <time>2017-01-29T08:56:55.000Z</time>
      </trkpt>
      <trkpt lat="44.48763" lon="0.69938">
        <ele>88.5</ele>
        <time>2017-01-29T08:56:56.000Z</time>
      </trkpt>
      <trkpt lat="44.48763" lon="0.69938">
        <ele>88.5</ele>
        <time>2017-01-29T08:56:57.000Z</time>
      </trkpt>
      <trkpt lat="44.48763" lon="0.69938">
        <ele>88.5</ele>
        <time>2017-01-29T08:56:58.000Z</time>
      </trkpt>
      <trkpt lat="44.48763" lon="0.69938">
        <ele>88.5</ele>
        <time>2017-01-29T08:56:59.000Z</time>
      </trkpt>
      <trkpt lat="44.48763" lon="0.69938">
        <ele>88.5</ele>
        <time>2017-01-29T08:57:00.000Z</time>
      </trkpt>
      <trkpt lat="44.48763" lon="0.69938">
        <ele>88.5</ele>
        <time>2017-01-29T08:57:01.000Z</time>
      </trkpt>
      <trkpt lat="44.48763" lon="0.69938">
        <ele>88.5</ele>
        <time>2017-01-29T08:57:02.000Z</time>
      </trkpt>
      <trkpt lat="44.48763" lon="0.69938">
        <ele>88.5</ele>
        <time>2017-01-29T08:57:03.000Z</time>
      </trkpt>
      <trkpt lat="44.48763" lon="0.69938">
        <ele>88.5</ele>
        <time>2017-01-29T08:57:04.000Z</time>
      </trkpt>
      <trkpt lat="44.48763" lon="0.69938">
        <ele>88.5</ele>
        <time>2017-01-29T08:57:05.000Z</time>
      </trkpt>
      <trkpt lat="44.48763" lon="0.69938">
        <ele>88.5</ele>
        <time>2017-01-29T08:57:06.000Z</time>
      </trkpt>
      <trkpt lat="44.48763" lon="0.69938">
        <ele>88.5</ele>
        <time>2017-01-29T08:57:07.000Z</time>
      </trkpt>
      <trkpt lat="44.48763" lon="0.69938">
        <ele>88.5</ele>
        <time>2017-01-29T08:57:08.000Z</time>
      </trkpt>
      <trkpt lat="44.48763" lon="0.69938">
        <ele>88.5</ele>
        <time>2017-01-29T08:57:09.000Z</time>
      </trkpt>
      <trkpt lat="44.48763" lon="0.69938">
        <ele>88.5</ele>
        <time>2017-01-29T08:57:10.000Z</time>
      </trkpt>
      <trkpt lat="44.48763" lon="0.69938">
        <ele>88.5</ele>
        <time>2017-01-29T08:57:11.000Z</time>
      </trkpt>
      <trkpt lat="44.48763" lon="0.69938">
        <ele>88.5</ele>
        <time>2017-01-29T08:57:12.000Z</time>
      </trkpt>
      <trkpt lat="44.48763" lon="0.69938">
        <ele>88.5</ele>
        <time>2017-01-29T08:57:13.000Z</time>
      </trkpt>
      <trkpt lat="44.48763" lon="0.69938">
        <ele>88.5</ele>
        <time>2017-01-29T08:57:14.000Z</time>
      </trkpt>
      <trkpt lat="44.48763" lon="0.69938">
        <ele>88.5</ele>
        <time>2017-01-29T08:57:15.000Z</time>
      </trkpt>
      <trkpt lat="44.48763" lon="0.69938">
        <ele>88.5</ele>
        <time>2017-01-29T08:57:16.000Z</time>
      </trkpt>
      <trkpt lat="44.48763" lon="0.69938">
        <ele>88.5</ele>
        <time>2017-01-29T08:57:17.000Z</time>
      </trkpt>
      <trkpt lat="44.48763" lon="0.69938">
        <ele>88.5</ele>
        <time>2017-01-29T08:57:18.000Z</time>
      </trkpt>
      <trkpt lat="44.48763" lon="0.69938">
        <ele>88.5</ele>
        <time>2017-01-29T08:57:19.000Z</time>
      </trkpt>
      <trkpt lat="44.48763" lon="0.69938">
        <ele>88.5</ele>
        <time>2017-01-29T08:57:20.000Z</time>
      </trkpt>
      <trkpt lat="44.48763" lon="0.69938">
        <ele>88.5</ele>
        <time>2017-01-29T08:57:21.000Z</time>
      </trkpt>
      <trkpt lat="44.48763" lon="0.69938">
        <ele>88.5</ele>
        <time>2017-01-29T08:57:22.000Z</time>
      </trkpt>
      <trkpt lat="44.48763" lon="0.69938">
        <ele>88.5</ele>
        <time>2017-01-29T08:57:23.000Z</time>
      </trkpt>
      <trkpt lat="44.48763" lon="0.69938">
        <ele>88.5</ele>
        <time>2017-01-29T08:57:24.000Z</time>
      </trkpt>
      <trkpt lat="44.48763" lon="0.69938">
        <ele>88.5</ele>
        <time>2017-01-29T08:57:25.000Z</time>
      </trkpt>
      <trkpt lat="44.48763" lon="0.69938">
        <ele>88.5</ele>
        <time>2017-01-29T08:57:26.000Z</time>
      </trkpt>
      <trkpt lat="44.48763" lon="0.69938">
        <ele>88.5</ele>
        <time>2017-01-29T08:57:27.000Z</time>
      </trkpt>
      <trkpt lat="44.48763" lon="0.69938">
        <ele>88.5</ele>
        <time>2017-01-29T08:57:28.000Z</time>
      </trkpt>
      <trkpt lat="44.48763" lon="0.69938">
        <ele>88.5</ele>
        <time>2017-01-29T08:57:29.000Z</time>
      </trkpt>
      <trkpt lat="44.48763" lon="0.69938">
        <ele>88.5</ele>
        <time>2017-01-29T08:57:30.000Z</time>
      </trkpt>
      <trkpt lat="44.48763" lon="0.69938">
        <ele>88.5</ele>
        <time>2017-01-29T08:57:31.000Z</time>
      </trkpt>
      <trkpt lat="44.48763" lon="0.69938">
        <ele>88.5</ele>
        <time>2017-01-29T08:57:32.000Z</time>
      </trkpt>
      <trkpt lat="44.48763" lon="0.69938">
        <ele>88.5</ele>
        <time>2017-01-29T08:57:33.000Z</time>
      </trkpt>
      <trkpt lat="44.48763" lon="0.69938">
        <ele>88.5</ele>
        <time>2017-01-29T08:57:34.000Z</time>
      </trkpt>
      <trkpt lat="44.48763" lon="0.69938">
        <ele>88.5</ele>
        <time>2017-01-29T08:57:35.000Z</time>
      </trkpt>
      <trkpt lat="44.48763" lon="0.69938">
        <ele>88.5</ele>
        <time>2017-01-29T08:57:36.000Z</time>
      </trkpt>
      <trkpt lat="44.48763" lon="0.69938">
        <ele>88.5</ele>
        <time>2017-01-29T08:57:37.000Z</time>
      </trkpt>
      <trkpt lat="44.48763" lon="0.69938">
        <ele>88.5</ele>
        <time>2017-01-29T08:57:38.000Z</time>
      </trkpt>
      <trkpt lat="44.48763" lon="0.69938">
        <ele>88.5</ele>
        <time>2017-01-29T08:57:39.000Z</time>
      </trkpt>
      <trkpt lat="44.48763" lon="0.69938">
        <ele>88.5</ele>
        <time>2017-01-29T08:57:40.000Z</time>
      </trkpt>
      <trkpt lat="44.48763" lon="0.69938">
        <ele>88.5</ele>
        <time>2017-01-29T08:57:41.000Z</time>
      </trkpt>
      <trkpt lat="44.48763" lon="0.69938">
        <ele>88.5</ele>
        <time>2017-01-29T08:57:42.000Z</time>
      </trkpt>
      <trkpt lat="44.48763" lon="0.69938">
        <ele>88.5</ele>
        <time>2017-01-29T08:57:43.000Z</time>
      </trkpt>
      <trkpt lat="44.48763" lon="0.69938">
        <ele>88.5</ele>
        <time>2017-01-29T08:57:44.000Z</time>
      </trkpt>
      <trkpt lat="44.48763" lon="0.69938">
        <ele>88.5</ele>
        <time>2017-01-29T08:57:45.000Z</time>
      </trkpt>
      <trkpt lat="44.48763" lon="0.69938">
        <ele>88.5</ele>
        <time>2017-01-29T08:57:46.000Z</time>
      </trkpt>
      <trkpt lat="44.48763" lon="0.69938">
        <ele>88.5</ele>
        <time>2017-01-29T08:57:47.000Z</time>
      </trkpt>
      <trkpt lat="44.48763" lon="0.69938">
        <ele>88.5</ele>
        <time>2017-01-29T08:57:48.000Z</time>
      </trkpt>
      <trkpt lat="44.48763" lon="0.69938">
        <ele>88.5</ele>
        <time>2017-01-29T08:57:49.000Z</time>
      </trkpt>
      <trkpt lat="44.48763" lon="0.69938">
        <ele>88.5</ele>
        <time>2017-01-29T08:57:50.000Z</time>
      </trkpt>
      <trkpt lat="44.48763" lon="0.69938">
        <ele>88.5</ele>
        <time>2017-01-29T08:57:51.000Z</time>
      </trkpt>
      <trkpt lat="44.48763" lon="0.69938">
        <ele>88.5</ele>
        <time>2017-01-29T08:57:52.000Z</time>
      </trkpt>
      <trkpt lat="44.48763" lon="0.69938">
        <ele>88.5</ele>
        <time>2017-01-29T08:57:53.000Z</time>
      </trkpt>
      <trkpt lat="44.48763" lon="0.69938">
        <ele>88.5</ele>
        <time>2017-01-29T08:57:54.000Z</time>
      </trkpt>
      <trkpt lat="44.48763" lon="0.69938">
        <ele>88.5</ele>
        <time>2017-01-29T08:57:55.000Z</time>
      </trkpt>
      <trkpt lat="44.48763" lon="0.69938">
        <ele>88.5</ele>
        <time>2017-01-29T08:57:56.000Z</time>
      </trkpt>
      <trkpt lat="44.48763" lon="0.69938">
        <ele>88.5</ele>
        <time>2017-01-29T08:57:57.000Z</time>
      </trkpt>
      <trkpt lat="44.48763" lon="0.69938">
        <ele>88.5</ele>
        <time>2017-01-29T08:57:58.000Z</time>
      </trkpt>
      <trkpt lat="44.48763" lon="0.69938">
        <ele>88.5</ele>
        <time>2017-01-29T08:57:59.000Z</time>
      </trkpt>
      <trkpt lat="44.48763" lon="0.69938">
        <ele>88.5</ele>
        <time>2017-01-29T08:58:00.000Z</time>
      </trkpt>
      <trkpt lat="44.48763" lon="0.69938">
        <ele>88.5</ele>
        <time>2017-01-29T08:58:01.000Z</time>
      </trkpt>
      <trkpt lat="44.48763" lon="0.69938">
        <ele>88.5</ele>
        <time>2017-01-29T08:58:02.000Z</time>
      </trkpt>
      <trkpt lat="44.48763" lon="0.69938">
        <ele>88.5</ele>
        <time>2017-01-29T08:58:03.000Z</time>
      </trkpt>
      <trkpt lat="44.48763" lon="0.69938">
        <ele>88.5</ele>
        <time>2017-01-29T08:58:04.000Z</time>
      </trkpt>
      <trkpt lat="44.48763" lon="0.69938">
        <ele>88.5</ele>
        <time>2017-01-29T08:58:05.000Z</time>
      </trkpt>
      <trkpt lat="44.48763" lon="0.69938">
        <ele>88.5</ele>
        <time>2017-01-29T08:58:06.000Z</time>
      </trkpt>
      <trkpt lat="44.48763" lon="0.69938">
        <ele>88.5</ele>
        <time>2017-01-29T08:58:07.000Z</time>
      </trkpt>
      <trkpt lat="44.48763" lon="0.69938">
        <ele>88.5</ele>
        <time>2017-01-29T08:58:08.000Z</time>
      </trkpt>
      <trkpt lat="44.48763" lon="0.69938">
        <ele>88.5</ele>
        <time>2017-01-29T08:58:09.000Z</time>
      </trkpt>
      <trkpt lat="44.48763" lon="0.69938">
        <ele>88.5</ele>
        <time>2017-01-29T08:58:10.000Z</time>
      </trkpt>
      <trkpt lat="44.48763" lon="0.69938">
        <ele>88.5</ele>
        <time>2017-01-29T08:58:11.000Z</time>
      </trkpt>
      <trkpt lat="44.48763" lon="0.69938">
        <ele>88.5</ele>
        <time>2017-01-29T08:58:12.000Z</time>
      </trkpt>
      <trkpt lat="44.48763" lon="0.69938">
        <ele>88.5</ele>
        <time>2017-01-29T08:58:13.000Z</time>
      </trkpt>
      <trkpt lat="44.48763" lon="0.69938">
        <ele>88.5</ele>
        <time>2017-01-29T08:58:14.000Z</time>
      </trkpt>
      <trkpt lat="44.48763" lon="0.69938">
        <ele>88.5</ele>
        <time>2017-01-29T08:58:15.000Z</time>
      </trkpt>
      <trkpt lat="44.48763" lon="0.69938">
        <ele>88.5</ele>
        <time>2017-01-29T08:58:16.000Z</time>
      </trkpt>
      <trkpt lat="44.48763" lon="0.69938">
        <ele>88.5</ele>
        <time>2017-01-29T08:58:17.000Z</time>
      </trkpt>
      <trkpt lat="44.48763" lon="0.69938">
        <ele>88.5</ele>
        <time>2017-01-29T08:58:18.000Z</time>
      </trkpt>
      <trkpt lat="44.48763" lon="0.69938">
        <ele>88.5</ele>
        <time>2017-01-29T08:58:19.000Z</time>
      </trkpt>
      <trkpt lat="44.48763" lon="0.69938">
        <ele>88.5</ele>
        <time>2017-01-29T08:58:20.000Z</time>
      </trkpt>
      <trkpt lat="44.48763" lon="0.69938">
        <ele>88.5</ele>
        <time>2017-01-29T08:58:21.000Z</time>
      </trkpt>
      <trkpt lat="44.48763" lon="0.69938">
        <ele>88.5</ele>
        <time>2017-01-29T08:58:22.000Z</time>
      </trkpt>
      <trkpt lat="44.48763" lon="0.69938">
        <ele>88.5</ele>
        <time>2017-01-29T08:58:23.000Z</time>
      </trkpt>
      <trkpt lat="44.48763" lon="0.69938">
        <ele>88.5</ele>
        <time>2017-01-29T08:58:24.000Z</time>
      </trkpt>
      <trkpt lat="44.48763" lon="0.69938">
        <ele>88.5</ele>
        <time>2017-01-29T08:58:25.000Z</time>
      </trkpt>
      <trkpt lat="44.48763" lon="0.69938">
        <ele>88.5</ele>
        <time>2017-01-29T08:58:26.000Z</time>
      </trkpt>
      <trkpt lat="44.48763" lon="0.69938">
        <ele>88.5</ele>
        <time>2017-01-29T08:58:27.000Z</time>
      </trkpt>
      <trkpt lat="44.48763" lon="0.69938">
        <ele>88.5</ele>
        <time>2017-01-29T08:58:28.000Z</time>
      </trkpt>
      <trkpt lat="44.48763" lon="0.69938">
        <ele>88.5</ele>
        <time>2017-01-29T08:58:29.000Z</time>
      </trkpt>
      <trkpt lat="44.48763" lon="0.69938">
        <ele>88.5</ele>
        <time>2017-01-29T08:58:30.000Z</time>
      </trkpt>
      <trkpt lat="44.48763" lon="0.69938">
        <ele>88.5</ele>
        <time>2017-01-29T08:58:31.000Z</time>
      </trkpt>
      <trkpt lat="44.48763" lon="0.69938">
        <ele>88.5</ele>
        <time>2017-01-29T08:58:32.000Z</time>
      </trkpt>
      <trkpt lat="44.48763" lon="0.69938">
        <ele>88.5</ele>
        <time>2017-01-29T08:58:33.000Z</time>
      </trkpt>
      <trkpt lat="44.48763" lon="0.69938">
        <ele>88.5</ele>
        <time>2017-01-29T08:58:34.000Z</time>
      </trkpt>
      <trkpt lat="44.48763" lon="0.69938">
        <ele>88.5</ele>
        <time>2017-01-29T08:58:35.000Z</time>
      </trkpt>
      <trkpt lat="44.48763" lon="0.69938">
        <ele>88.5</ele>
        <time>2017-01-29T08:58:36.000Z</time>
      </trkpt>
      <trkpt lat="44.48763" lon="0.69938">
        <ele>88.5</ele>
        <time>2017-01-29T08:58:37.000Z</time>
      </trkpt>
      <trkpt lat="44.48763" lon="0.69938">
        <ele>88.5</ele>
        <time>2017-01-29T08:58:38.000Z</time>
      </trkpt>
      <trkpt lat="44.48763" lon="0.69938">
        <ele>88.5</ele>
        <time>2017-01-29T08:58:39.000Z</time>
      </trkpt>
      <trkpt lat="44.48763" lon="0.69938">
        <ele>88.5</ele>
        <time>2017-01-29T08:58:40.000Z</time>
      </trkpt>
      <trkpt lat="44.48763" lon="0.69938">
        <ele>88.5</ele>
        <time>2017-01-29T08:58:41.000Z</time>
      </trkpt>
      <trkpt lat="44.48763" lon="0.69938">
        <ele>88.5</ele>
        <time>2017-01-29T08:58:42.000Z</time>
      </trkpt>
      <trkpt lat="44.48763" lon="0.69938">
        <ele>88.5</ele>
        <time>2017-01-29T08:58:43.000Z</time>
      </trkpt>
      <trkpt lat="44.48763" lon="0.69938">
        <ele>88.5</ele>
        <time>2017-01-29T08:58:44.000Z</time>
      </trkpt>
      <trkpt lat="44.48763" lon="0.69938">
        <ele>88.5</ele>
        <time>2017-01-29T08:58:45.000Z</time>
      </trkpt>
      <trkpt lat="44.48763" lon="0.69938">
        <ele>88.5</ele>
        <time>2017-01-29T08:58:46.000Z</time>
      </trkpt>
      <trkpt lat="44.48763" lon="0.69938">
        <ele>88.5</ele>
        <time>2017-01-29T08:58:47.000Z</time>
      </trkpt>
      <trkpt lat="44.48763" lon="0.69938">
        <ele>88.5</ele>
        <time>2017-01-29T08:58:48.000Z</time>
      </trkpt>
      <trkpt lat="44.48763" lon="0.69938">
        <ele>88.5</ele>
        <time>2017-01-29T08:58:49.000Z</time>
      </trkpt>
      <trkpt lat="44.48763" lon="0.69938">
        <ele>88.5</ele>
        <time>2017-01-29T08:58:50.000Z</time>
      </trkpt>
      <trkpt lat="44.48763" lon="0.69938">
        <ele>88.5</ele>
        <time>2017-01-29T08:58:51.000Z</time>
      </trkpt>
      <trkpt lat="44.48763" lon="0.69938">
        <ele>88.5</ele>
        <time>2017-01-29T08:58:52.000Z</time>
      </trkpt>
      <trkpt lat="44.48763" lon="0.69938">
        <ele>88.5</ele>
        <time>2017-01-29T08:58:53.000Z</time>
      </trkpt>
      <trkpt lat="44.48763" lon="0.69938">
        <ele>88.5</ele>
        <time>2017-01-29T08:58:54.000Z</time>
      </trkpt>
      <trkpt lat="44.48763" lon="0.69938">
        <ele>88.5</ele>
        <time>2017-01-29T08:58:55.000Z</time>
      </trkpt>
      <trkpt lat="44.48763" lon="0.69938">
        <ele>88.5</ele>
        <time>2017-01-29T08:58:56.000Z</time>
      </trkpt>
      <trkpt lat="44.48763" lon="0.69938">
        <ele>88.5</ele>
        <time>2017-01-29T08:58:57.000Z</time>
      </trkpt>
      <trkpt lat="44.48763" lon="0.69938">
        <ele>88.5</ele>
        <time>2017-01-29T08:58:58.000Z</time>
      </trkpt>
      <trkpt lat="44.48763" lon="0.69938">
        <ele>88.5</ele>
        <time>2017-01-29T08:58:59.000Z</time>
      </trkpt>
      <trkpt lat="44.48763" lon="0.69938">
        <ele>88.5</ele>
        <time>2017-01-29T08:59:00.000Z</time>
      </trkpt>
      <trkpt lat="44.48763" lon="0.69938">
        <ele>88.5</ele>
        <time>2017-01-29T08:59:01.000Z</time>
      </trkpt>
      <trkpt lat="44.48763" lon="0.69938">
        <ele>88.5</ele>
        <time>2017-01-29T08:59:02.000Z</time>
      </trkpt>
      <trkpt lat="44.48763" lon="0.69938">
        <ele>88.5</ele>
        <time>2017-01-29T08:59:03.000Z</time>
      </trkpt>
      <trkpt lat="44.48763" lon="0.69938">
        <ele>88.5</ele>
        <time>2017-01-29T08:59:04.000Z</time>
      </trkpt>
      <trkpt lat="44.48763" lon="0.69938">
        <ele>88.5</ele>
        <time>2017-01-29T08:59:05.000Z</time>
      </trkpt>
      <trkpt lat="44.48763" lon="0.69938">
        <ele>88.5</ele>
        <time>2017-01-29T08:59:06.000Z</time>
      </trkpt>
      <trkpt lat="44.48763" lon="0.69938">
        <ele>88.5</ele>
        <time>2017-01-29T08:59:07.000Z</time>
      </trkpt>
      <trkpt lat="44.48763" lon="0.69938">
        <ele>88.5</ele>
        <time>2017-01-29T08:59:08.000Z</time>
      </trkpt>
      <trkpt lat="44.48763" lon="0.69938">
        <ele>88.5</ele>
        <time>2017-01-29T08:59:09.000Z</time>
      </trkpt>
      <trkpt lat="44.48763" lon="0.69938">
        <ele>88.5</ele>
        <time>2017-01-29T08:59:10.000Z</time>
      </trkpt>
      <trkpt lat="44.48763" lon="0.69938">
        <ele>88.5</ele>
        <time>2017-01-29T08:59:11.000Z</time>
      </trkpt>
      <trkpt lat="44.48763" lon="0.69938">
        <ele>88.5</ele>
        <time>2017-01-29T08:59:12.000Z</time>
      </trkpt>
      <trkpt lat="44.48763" lon="0.69938">
        <ele>88.5</ele>
        <time>2017-01-29T08:59:13.000Z</time>
      </trkpt>
      <trkpt lat="44.48763" lon="0.69938">
        <ele>88.5</ele>
        <time>2017-01-29T08:59:14.000Z</time>
      </trkpt>
      <trkpt lat="44.48763" lon="0.69938">
        <ele>88.5</ele>
        <time>2017-01-29T08:59:15.000Z</time>
      </trkpt>
      <trkpt lat="44.48763" lon="0.69938">
        <ele>88.5</ele>
        <time>2017-01-29T08:59:16.000Z</time>
      </trkpt>
      <trkpt lat="44.48763" lon="0.69938">
        <ele>88.5</ele>
        <time>2017-01-29T08:59:17.000Z</time>
      </trkpt>
      <trkpt lat="44.48763" lon="0.69938">
        <ele>88.5</ele>
        <time>2017-01-29T08:59:18.000Z</time>
      </trkpt>
      <trkpt lat="44.48763" lon="0.69938">
        <ele>88.5</ele>
        <time>2017-01-29T08:59:19.000Z</time>
      </trkpt>
      <trkpt lat="44.48763" lon="0.69938">
        <ele>88.5</ele>
        <time>2017-01-29T08:59:20.000Z</time>
      </trkpt>
      <trkpt lat="44.48763" lon="0.69938">
        <ele>88.5</ele>
        <time>2017-01-29T08:59:21.000Z</time>
      </trkpt>
      <trkpt lat="44.48763" lon="0.69938">
        <ele>88.5</ele>
        <time>2017-01-29T08:59:22.000Z</time>
      </trkpt>
      <trkpt lat="44.48763" lon="0.69938">
        <ele>88.5</ele>
        <time>2017-01-29T08:59:23.000Z</time>
      </trkpt>
      <trkpt lat="44.48763" lon="0.69938">
        <ele>88.5</ele>
        <time>2017-01-29T08:59:24.000Z</time>
      </trkpt>
      <trkpt lat="44.48763" lon="0.69938">
        <ele>88.5</ele>
        <time>2017-01-29T08:59:25.000Z</time>
      </trkpt>
      <trkpt lat="44.48763" lon="0.69938">
        <ele>88.5</ele>
        <time>2017-01-29T08:59:26.000Z</time>
      </trkpt>
      <trkpt lat="44.48763" lon="0.69938">
        <ele>88.5</ele>
        <time>2017-01-29T08:59:27.000Z</time>
      </trkpt>
      <trkpt lat="44.48763" lon="0.69938">
        <ele>88.5</ele>
        <time>2017-01-29T08:59:28.000Z</time>
      </trkpt>
      <trkpt lat="44.48763" lon="0.69938">
        <ele>88.5</ele>
        <time>2017-01-29T08:59:29.000Z</time>
      </trkpt>
      <trkpt lat="44.48763" lon="0.69938">
        <ele>88.5</ele>
        <time>2017-01-29T08:59:30.000Z</time>
      </trkpt>
      <trkpt lat="44.48763" lon="0.69938">
        <ele>88.5</ele>
        <time>2017-01-29T08:59:31.000Z</time>
      </trkpt>
      <trkpt lat="44.48763" lon="0.69938">
        <ele>88.5</ele>
        <time>2017-01-29T08:59:32.000Z</time>
      </trkpt>
      <trkpt lat="44.48763" lon="0.69938">
        <ele>88.5</ele>
        <time>2017-01-29T08:59:33.000Z</time>
      </trkpt>
      <trkpt lat="44.48763" lon="0.69938">
        <ele>88.5</ele>
        <time>2017-01-29T08:59:34.000Z</time>
      </trkpt>
      <trkpt lat="44.48763" lon="0.69938">
        <ele>88.5</ele>
        <time>2017-01-29T08:59:35.000Z</time>
      </trkpt>
      <trkpt lat="44.48763" lon="0.69938">
        <ele>88.5</ele>
        <time>2017-01-29T08:59:36.000Z</time>
      </trkpt>
      <trkpt lat="44.48763" lon="0.69938">
        <ele>88.5</ele>
        <time>2017-01-29T08:59:37.000Z</time>
      </trkpt>
      <trkpt lat="44.48763" lon="0.69938">
        <ele>88.5</ele>
        <time>2017-01-29T08:59:38.000Z</time>
      </trkpt>
      <trkpt lat="44.48763" lon="0.69938">
        <ele>88.5</ele>
        <time>2017-01-29T08:59:39.000Z</time>
      </trkpt>
      <trkpt lat="44.48763" lon="0.69938">
        <ele>88.5</ele>
        <time>2017-01-29T08:59:40.000Z</time>
      </trkpt>
      <trkpt lat="44.48763" lon="0.69938">
        <ele>88.5</ele>
        <time>2017-01-29T08:59:41.000Z</time>
      </trkpt>
      <trkpt lat="44.48763" lon="0.69938">
        <ele>88.5</ele>
        <time>2017-01-29T08:59:42.000Z</time>
      </trkpt>
      <trkpt lat="44.48763" lon="0.69938">
        <ele>88.5</ele>
        <time>2017-01-29T08:59:43.000Z</time>
      </trkpt>
      <trkpt lat="44.48763" lon="0.69938">
        <ele>88.5</ele>
        <time>2017-01-29T08:59:44.000Z</time>
      </trkpt>
      <trkpt lat="44.48763" lon="0.69938">
        <ele>88.5</ele>
        <time>2017-01-29T08:59:45.000Z</time>
      </trkpt>
      <trkpt lat="44.48763" lon="0.69938">
        <ele>88.5</ele>
        <time>2017-01-29T08:59:46.000Z</time>
      </trkpt>
      <trkpt lat="44.48763" lon="0.69938">
        <ele>88.5</ele>
        <time>2017-01-29T08:59:47.000Z</time>
      </trkpt>
      <trkpt lat="44.48763" lon="0.69938">
        <ele>88.5</ele>
        <time>2017-01-29T08:59:48.000Z</time>
      </trkpt>
      <trkpt lat="44.48763" lon="0.69938">
        <ele>88.5</ele>
        <time>2017-01-29T08:59:49.000Z</time>
      </trkpt>
      <trkpt lat="44.48763" lon="0.69938">
        <ele>88.5</ele>
        <time>2017-01-29T08:59:50.000Z</time>
      </trkpt>
      <trkpt lat="44.48763" lon="0.69938">
        <ele>88.5</ele>
        <time>2017-01-29T08:59:51.000Z</time>
      </trkpt>
      <trkpt lat="44.48763" lon="0.69938">
        <ele>88.5</ele>
        <time>2017-01-29T08:59:52.000Z</time>
      </trkpt>
      <trkpt lat="44.48763" lon="0.69938">
        <ele>88.5</ele>
        <time>2017-01-29T08:59:53.000Z</time>
      </trkpt>
      <trkpt lat="44.48763" lon="0.69938">
        <ele>88.5</ele>
        <time>2017-01-29T08:59:54.000Z</time>
      </trkpt>
      <trkpt lat="44.48763" lon="0.69938">
        <ele>88.5</ele>
        <time>2017-01-29T08:59:55.000Z</time>
      </trkpt>
      <trkpt lat="44.48763" lon="0.69938">
        <ele>88.5</ele>
        <time>2017-01-29T08:59:56.000Z</time>
      </trkpt>
      <trkpt lat="44.48763" lon="0.69937">
        <ele>88.5</ele>
        <time>2017-01-29T08:59:57.000Z</time>
      </trkpt>
      <trkpt lat="44.48764" lon="0.69935">
        <ele>88.4</ele>
        <time>2017-01-29T08:59:58.000Z</time>
      </trkpt>
      <trkpt lat="44.48765" lon="0.69933">
        <ele>88.4</ele>
        <time>2017-01-29T08:59:59.000Z</time>
      </trkpt>
      <trkpt lat="44.48765" lon="0.6993">
        <ele>88.3</ele>
        <time>2017-01-29T09:00:00.000Z</time>
      </trkpt>
      <trkpt lat="44.48766" lon="0.69928">
        <ele>88.3</ele>
        <time>2017-01-29T09:00:01.000Z</time>
      </trkpt>
      <trkpt lat="44.48767" lon="0.69925">
        <ele>88.2</ele>
        <time>2017-01-29T09:00:02.000Z</time>
      </trkpt>
      <trkpt lat="44.48768" lon="0.69922">
        <ele>88.1</ele>
        <time>2017-01-29T09:00:03.000Z</time>
      </trkpt>
      <trkpt lat="44.48769" lon="0.69919">
        <ele>88</ele>
        <time>2017-01-29T09:00:04.000Z</time>
      </trkpt>
      <trkpt lat="44.4877" lon="0.69915">
        <ele>88.1</ele>
        <time>2017-01-29T09:00:05.000Z</time>
      </trkpt>
      <trkpt lat="44.48771" lon="0.69911">
        <ele>88.2</ele>
        <time>2017-01-29T09:00:06.000Z</time>
      </trkpt>
      <trkpt lat="44.48772" lon="0.69908">
        <ele>88.3</ele>
        <time>2017-01-29T09:00:07.000Z</time>
      </trkpt>
      <trkpt lat="44.48773" lon="0.69904">
        <ele>88.4</ele>
        <time>2017-01-29T09:00:08.000Z</time>
      </trkpt>
      <trkpt lat="44.48774" lon="0.699">
        <ele>88.6</ele>
        <time>2017-01-29T09:00:09.000Z</time>
      </trkpt>
      <trkpt lat="44.48776" lon="0.69897">
        <ele>88.7</ele>
        <time>2017-01-29T09:00:10.000Z</time>
      </trkpt>
      <trkpt lat="44.48777" lon="0.69893">
        <ele>88.8</ele>
        <time>2017-01-29T09:00:11.000Z</time>
      </trkpt>
      <trkpt lat="44.48778" lon="0.69889">
        <ele>89</ele>
        <time>2017-01-29T09:00:12.000Z</time>
      </trkpt>
      <trkpt lat="44.48779" lon="0.69885">
        <ele>89.1</ele>
        <time>2017-01-29T09:00:13.000Z</time>
      </trkpt>
      <trkpt lat="44.4878" lon="0.69882">
        <ele>89.3</ele>
        <time>2017-01-29T09:00:14.000Z</time>
      </trkpt>
      <trkpt lat="44.48781" lon="0.69878">
        <ele>89.5</ele>
        <time>2017-01-29T09:00:15.000Z</time>
      </trkpt>
      <trkpt lat="44.48782" lon="0.69874">
        <ele>89.6</ele>
        <time>2017-01-29T09:00:16.000Z</time>
      </trkpt>
      <trkpt lat="44.48783" lon="0.6987">
        <ele>89.8</ele>
        <time>2017-01-29T09:00:17.000Z</time>
      </trkpt>
      <trkpt lat="44.48784" lon="0.69866">
        <ele>89.9</ele>
        <time>2017-01-29T09:00:18.000Z</time>
      </trkpt>
      <trkpt lat="44.48785" lon="0.69863">
        <ele>90.1</ele>
        <time>2017-01-29T09:00:19.000Z</time>
      </trkpt>
      <trkpt lat="44.48786" lon="0.69859">
        <ele>90.3</ele>
        <time>2017-01-29T09:00:20.000Z</time>
      </trkpt>
      <trkpt lat="44.48787" lon="0.69855">
        <ele>90.5</ele>
        <time>2017-01-29T09:00:21.000Z</time>
      </trkpt>
      <trkpt lat="44.48788" lon="0.69852">
        <ele>90.6</ele>
        <time>2017-01-29T09:00:22.000Z</time>
      </trkpt>
      <trkpt lat="44.4879" lon="0.69848">
        <ele>90.8</ele>
        <time>2017-01-29T09:00:23.000Z</time>
      </trkpt>
      <trkpt lat="44.48791" lon="0.69844">
        <ele>91</ele>
        <time>2017-01-29T09:00:24.000Z</time>
      </trkpt>
      <trkpt lat="44.48792" lon="0.69841">
        <ele>91.2</ele>
        <time>2017-01-29T09:00:25.000Z</time>
      </trkpt>
      <trkpt lat="44.48793" lon="0.69837">
        <ele>91.4</ele>
        <time>2017-01-29T09:00:26.000Z</time>
      </trkpt>
      <trkpt lat="44.48794" lon="0.69833">
        <ele>91.6</ele>
        <time>2017-01-29T09:00:27.000Z</time>
      </trkpt>
      <trkpt lat="44.48795" lon="0.69829">
        <ele>91.7</ele>
        <time>2017-01-29T09:00:28.000Z</time>
      </trkpt>
      <trkpt lat="44.48796" lon="0.69825">
        <ele>91.9</ele>
        <time>2017-01-29T09:00:29.000Z</time>
      </trkpt>
      <trkpt lat="44.48797" lon="0.69822">
        <ele>92.1</ele>
        <time>2017-01-29T09:00:30.000Z</time>
      </trkpt>
      <trkpt lat="44.48798" lon="0.69818">
        <ele>92.2</ele>
        <time>2017-01-29T09:00:31.000Z</time>
      </trkpt>
      <trkpt lat="44.48799" lon="0.69814">
        <ele>92.4</ele>
        <time>2017-01-29T09:00:32.000Z</time>
      </trkpt>
      <trkpt lat="44.488" lon="0.6981">
        <ele>92.6</ele>
        <time>2017-01-29T09:00:33.000Z</time>
      </trkpt>
      <trkpt lat="44.48801" lon="0.69806">
        <ele>92.8</ele>
        <time>2017-01-29T09:00:34.000Z</time>
      </trkpt>
      <trkpt lat="44.48802" lon="0.69802">
        <ele>92.9</ele>
        <time>2017-01-29T09:00:35.000Z</time>
      </trkpt>
      <trkpt lat="44.48803" lon="0.69798">
        <ele>93.1</ele>
        <time>2017-01-29T09:00:36.000Z</time>
      </trkpt>
      <trkpt lat="44.48804" lon="0.69795">
        <ele>93.3</ele>
        <time>2017-01-29T09:00:37.000Z</time>
      </trkpt>
      <trkpt lat="44.48805" lon="0.69791">
        <ele>93.5</ele>
        <time>2017-01-29T09:00:38.000Z</time>
      </trkpt>
      <trkpt lat="44.48806" lon="0.69788">
        <ele>93.7</ele>
        <time>2017-01-29T09:00:39.000Z</time>
      </trkpt>
      <trkpt lat="44.48807" lon="0.69784">
        <ele>93.8</ele>
        <time>2017-01-29T09:00:40.000Z</time>
      </trkpt>
      <trkpt lat="44.48808" lon="0.6978">
        <ele>94</ele>
        <time>2017-01-29T09:00:41.000Z</time>
      </trkpt>
      <trkpt lat="44.48809" lon="0.69776">
        <ele>94.2</ele>
        <time>2017-01-29T09:00:42.000Z</time>
      </trkpt>
      <trkpt lat="44.4881" lon="0.69773">
        <ele>94.4</ele>
        <time>2017-01-29T09:00:43.000Z</time>
      </trkpt>
      <trkpt lat="44.48811" lon="0.69769">
        <ele>94.6</ele>
        <time>2017-01-29T09:00:44.000Z</time>
      </trkpt>
      <trkpt lat="44.48811" lon="0.69765">
        <ele>94.8</ele>
        <time>2017-01-29T09:00:45.000Z</time>
      </trkpt>
      <trkpt lat="44.48812" lon="0.69761">
        <ele>95.1</ele>
        <time>2017-01-29T09:00:46.000Z</time>
      </trkpt>
      <trkpt lat="44.48813" lon="0.69757">
        <ele>95.3</ele>
        <time>2017-01-29T09:00:47.000Z</time>
      </trkpt>
      <trkpt lat="44.48814" lon="0.69754">
        <ele>95.5</ele>
        <time>2017-01-29T09:00:48.000Z</time>
      </trkpt>
      <trkpt lat="44.48815" lon="0.6975">
        <ele>95.7</ele>
        <time>2017-01-29T09:00:49.000Z</time>
      </trkpt>
      <trkpt lat="44.48816" lon="0.69746">
        <ele>95.8</ele>
        <time>2017-01-29T09:00:50.000Z</time>
      </trkpt>
      <trkpt lat="44.48817" lon="0.69743">
        <ele>95.9</ele>
        <time>2017-01-29T09:00:51.000Z</time>
      </trkpt>
      <trkpt lat="44.48818" lon="0.69739">
        <ele>96</ele>
        <time>2017-01-29T09:00:52.000Z</time>
      </trkpt>
      <trkpt lat="44.48819" lon="0.69736">
        <ele>96.1</ele>
        <time>2017-01-29T09:00:53.000Z</time>
      </trkpt>
      <trkpt lat="44.4882" lon="0.69733">
        <ele>96.2</ele>
        <time>2017-01-29T09:00:54.000Z</time>
      </trkpt>
      <trkpt lat="44.4882" lon="0.69729">
        <ele>96.3</ele>
        <time>2017-01-29T09:00:55.000Z</time>
      </trkpt>
      <trkpt lat="44.48821" lon="0.69726">
        <ele>96.4</ele>
        <time>2017-01-29T09:00:56.000Z</time>
      </trkpt>
      <trkpt lat="44.48822" lon="0.69723">
        <ele>96.5</ele>
        <time>2017-01-29T09:00:57.000Z</time>
      </trkpt>
      <trkpt lat="44.48823" lon="0.6972">
        <ele>96.6</ele>
        <time>2017-01-29T09:00:58.000Z</time>
      </trkpt>
      <trkpt lat="44.48824" lon="0.69717">
        <ele>96.7</ele>
        <time>2017-01-29T09:00:59.000Z</time>
      </trkpt>
      <trkpt lat="44.48824" lon="0.69714">
        <ele>96.8</ele>
        <time>2017-01-29T09:01:00.000Z</time>
      </trkpt>
      <trkpt lat="44.48825" lon="0.69711">
        <ele>96.9</ele>
        <time>2017-01-29T09:01:01.000Z</time>
      </trkpt>
      <trkpt lat="44.48826" lon="0.69707">
        <ele>97</ele>
        <time>2017-01-29T09:01:02.000Z</time>
      </trkpt>
      <trkpt lat="44.48826" lon="0.69704">
        <ele>97</ele>
        <time>2017-01-29T09:01:03.000Z</time>
      </trkpt>
      <trkpt lat="44.48827" lon="0.69701">
        <ele>97.1</ele>
        <time>2017-01-29T09:01:04.000Z</time>
      </trkpt>
      <trkpt lat="44.48828" lon="0.69698">
        <ele>97.2</ele>
        <time>2017-01-29T09:01:05.000Z</time>
      </trkpt>
      <trkpt lat="44.48829" lon="0.69695">
        <ele>97.3</ele>
        <time>2017-01-29T09:01:06.000Z</time>
      </trkpt>
      <trkpt lat="44.48829" lon="0.69692">
        <ele>97.4</ele>
        <time>2017-01-29T09:01:07.000Z</time>
      </trkpt>
      <trkpt lat="44.4883" lon="0.69688">
        <ele>97.5</ele>
        <time>2017-01-29T09:01:08.000Z</time>
      </trkpt>
      <trkpt lat="44.48831" lon="0.69685">
        <ele>97.6</ele>
        <time>2017-01-29T09:01:09.000Z</time>
      </trkpt>
      <trkpt lat="44.48832" lon="0.69682">
        <ele>97.7</ele>
        <time>2017-01-29T09:01:10.000Z</time>
      </trkpt>
      <trkpt lat="44.48833" lon="0.69679">
        <ele>97.8</ele>
        <time>2017-01-29T09:01:11.000Z</time>
      </trkpt>
      <trkpt lat="44.48834" lon="0.69676">
        <ele>97.9</ele>
        <time>2017-01-29T09:01:12.000Z</time>
      </trkpt>
      <trkpt lat="44.48835" lon="0.69672">
        <ele>98</ele>
        <time>2017-01-29T09:01:13.000Z</time>
      </trkpt>
      <trkpt lat="44.48836" lon="0.69669">
        <ele>98.1</ele>
        <time>2017-01-29T09:01:14.000Z</time>
      </trkpt>
      <trkpt lat="44.48837" lon="0.69665">
        <ele>98.2</ele>
        <time>2017-01-29T09:01:15.000Z</time>
      </trkpt>
      <trkpt lat="44.48838" lon="0.69662">
        <ele>98.3</ele>
        <time>2017-01-29T09:01:16.000Z</time>
      </trkpt>
      <trkpt lat="44.48838" lon="0.69658">
        <ele>98.5</ele>
        <time>2017-01-29T09:01:17.000Z</time>
      </trkpt>
      <trkpt lat="44.48838" lon="0.69655">
        <ele>98.6</ele>
        <time>2017-01-29T09:01:18.000Z</time>
      </trkpt>
      <trkpt lat="44.48836" lon="0.69653">
        <ele>98.6</ele>
        <time>2017-01-29T09:01:19.000Z</time>
      </trkpt>
      <trkpt lat="44.48833" lon="0.69651">
        <ele>98.6</ele>
        <time>2017-01-29T09:01:20.000Z</time>
      </trkpt>
      <trkpt lat="44.4883" lon="0.69648">
        <ele>98.4</ele>
        <time>2017-01-29T09:01:21.000Z</time>
      </trkpt>
      <trkpt lat="44.48827" lon="0.69644">
        <ele>98.3</ele>
        <time>2017-01-29T09:01:22.000Z</time>
      </trkpt>
      <trkpt lat="44.48823" lon="0.6964">
        <ele>98.2</ele>
        <time>2017-01-29T09:01:23.000Z</time>
      </trkpt>
      <trkpt lat="44.48819" lon="0.69634">
        <ele>98</ele>
        <time>2017-01-29T09:01:24.000Z</time>
      </trkpt>
      <trkpt lat="44.48814" lon="0.69629">
        <ele>97.9</ele>
        <time>2017-01-29T09:01:25.000Z</time>
      </trkpt>
      <trkpt lat="44.4881" lon="0.69622">
        <ele>97.8</ele>
        <time>2017-01-29T09:01:26.000Z</time>
      </trkpt>
      <trkpt lat="44.48806" lon="0.69616">
        <ele>97.6</ele>
        <time>2017-01-29T09:01:27.000Z</time>
      </trkpt>
      <trkpt lat="44.48801" lon="0.69609">
        <ele>97.5</ele>
        <time>2017-01-29T09:01:28.000Z</time>
      </trkpt>
      <trkpt lat="44.48797" lon="0.69603">
        <ele>97.4</ele>
        <time>2017-01-29T09:01:29.000Z</time>
      </trkpt>
      <trkpt lat="44.48793" lon="0.69597">
        <ele>97.2</ele>
        <time>2017-01-29T09:01:30.000Z</time>
      </trkpt>
      <trkpt lat="44.4879" lon="0.6959">
        <ele>97.1</ele>
        <time>2017-01-29T09:01:31.000Z</time>
      </trkpt>
      <trkpt lat="44.48786" lon="0.69583">
        <ele>97</ele>
        <time>2017-01-29T09:01:32.000Z</time>
      </trkpt>
      <trkpt lat="44.48782" lon="0.69576">
        <ele>96.7</ele>
        <time>2017-01-29T09:01:33.000Z</time>
      </trkpt>
      <trkpt lat="44.48778" lon="0.69569">
        <ele>96.4</ele>
        <time>2017-01-29T09:01:34.000Z</time>
      </trkpt>
      <trkpt lat="44.48774" lon="0.69561">
        <ele>96.1</ele>
        <time>2017-01-29T09:01:35.000Z</time>
      </trkpt>
      <trkpt lat="44.48769" lon="0.69553">
        <ele>95.8</ele>
        <time>2017-01-29T09:01:36.000Z</time>
      </trkpt>
      <trkpt lat="44.48765" lon="0.69545">
        <ele>95.6</ele>
        <time>2017-01-29T09:01:37.000Z</time>
      </trkpt>
      <trkpt lat="44.48761" lon="0.69538">
        <ele>95.4</ele>
        <time>2017-01-29T09:01:38.000Z</time>
      </trkpt>
      <trkpt lat="44.48757" lon="0.6953">
        <ele>95.1</ele>
        <time>2017-01-29T09:01:39.000Z</time>
      </trkpt>
      <trkpt lat="44.48754" lon="0.69523">
        <ele>95</ele>
        <time>2017-01-29T09:01:40.000Z</time>
      </trkpt>
      <trkpt lat="44.4875" lon="0.69516">
        <ele>94.8</ele>
        <time>2017-01-29T09:01:41.000Z</time>
      </trkpt>
      <trkpt lat="44.48747" lon="0.6951">
        <ele>95.2</ele>
        <time>2017-01-29T09:01:42.000Z</time>
      </trkpt>
      <trkpt lat="44.48744" lon="0.69504">
        <ele>95.6</ele>
        <time>2017-01-29T09:01:43.000Z</time>
      </trkpt>
      <trkpt lat="44.48741" lon="0.695">
        <ele>95.9</ele>
        <time>2017-01-29T09:01:44.000Z</time>
      </trkpt>
      <trkpt lat="44.48739" lon="0.69496">
        <ele>96.2</ele>
        <time>2017-01-29T09:01:45.000Z</time>
      </trkpt>
      <trkpt lat="44.48738" lon="0.69492">
        <ele>96.3</ele>
        <time>2017-01-29T09:01:46.000Z</time>
      </trkpt>
      <trkpt lat="44.48737" lon="0.69489">
        <ele>96.4</ele>
        <time>2017-01-29T09:01:47.000Z</time>
      </trkpt>
      <trkpt lat="44.48736" lon="0.69485">
        <ele>96.5</ele>
        <time>2017-01-29T09:01:48.000Z</time>
      </trkpt>
      <trkpt lat="44.48735" lon="0.69481">
        <ele>96.6</ele>
        <time>2017-01-29T09:01:49.000Z</time>
      </trkpt>
      <trkpt lat="44.48735" lon="0.69477">
        <ele>96.7</ele>
        <time>2017-01-29T09:01:50.000Z</time>
      </trkpt>
      <trkpt lat="44.48734" lon="0.69473">
        <ele>96.7</ele>
        <time>2017-01-29T09:01:51.000Z</time>
      </trkpt>
      <trkpt lat="44.48733" lon="0.69469">
        <ele>96.8</ele>
        <time>2017-01-29T09:01:52.000Z</time>
      </trkpt>
      <trkpt lat="44.48733" lon="0.69464">
        <ele>96.9</ele>
        <time>2017-01-29T09:01:53.000Z</time>
      </trkpt>
      <trkpt lat="44.48732" lon="0.6946">
        <ele>97</ele>
        <time>2017-01-29T09:01:54.000Z</time>
      </trkpt>
      <trkpt lat="44.48731" lon="0.69457">
        <ele>97.1</ele>
        <time>2017-01-29T09:01:55.000Z</time>
      </trkpt>
      <trkpt lat="44.4873" lon="0.69453">
        <ele>97.2</ele>
        <time>2017-01-29T09:01:56.000Z</time>
      </trkpt>
      <trkpt lat="44.48729" lon="0.6945">
        <ele>97.3</ele>
        <time>2017-01-29T09:01:57.000Z</time>
      </trkpt>
      <trkpt lat="44.48727" lon="0.69447">
        <ele>97.5</ele>
        <time>2017-01-29T09:01:58.000Z</time>
      </trkpt>
      <trkpt lat="44.48725" lon="0.69444">
        <ele>97.7</ele>
        <time>2017-01-29T09:01:59.000Z</time>
      </trkpt>
      <trkpt lat="44.48723" lon="0.69442">
        <ele>97.9</ele>
        <time>2017-01-29T09:02:00.000Z</time>
      </trkpt>
      <trkpt lat="44.48721" lon="0.6944">
        <ele>98.1</ele>
        <time>2017-01-29T09:02:01.000Z</time>
      </trkpt>
      <trkpt lat="44.4872" lon="0.69438">
        <ele>98.3</ele>
        <time>2017-01-29T09:02:02.000Z</time>
      </trkpt>
      <trkpt lat="44.48718" lon="0.69436">
        <ele>98.5</ele>
        <time>2017-01-29T09:02:03.000Z</time>
      </trkpt>
      <trkpt lat="44.48716" lon="0.69435">
        <ele>98.7</ele>
        <time>2017-01-29T09:02:04.000Z</time>
      </trkpt>
      <trkpt lat="44.48715" lon="0.69433">
        <ele>98.8</ele>
        <time>2017-01-29T09:02:05.000Z</time>
      </trkpt>
      <trkpt lat="44.48713" lon="0.69432">
        <ele>99</ele>
        <time>2017-01-29T09:02:06.000Z</time>
      </trkpt>
      <trkpt lat="44.48711" lon="0.69431">
        <ele>99.2</ele>
        <time>2017-01-29T09:02:07.000Z</time>
      </trkpt>
      <trkpt lat="44.4871" lon="0.6943">
        <ele>99.3</ele>
        <time>2017-01-29T09:02:08.000Z</time>
      </trkpt>
      <trkpt lat="44.48709" lon="0.69429">
        <ele>99.5</ele>
        <time>2017-01-29T09:02:09.000Z</time>
      </trkpt>
      <trkpt lat="44.48707" lon="0.69428">
        <ele>99.6</ele>
        <time>2017-01-29T09:02:10.000Z</time>
      </trkpt>
      <trkpt lat="44.48706" lon="0.69427">
        <ele>99.8</ele>
        <time>2017-01-29T09:02:11.000Z</time>
      </trkpt>
      <trkpt lat="44.48704" lon="0.69426">
        <ele>99.9</ele>
        <time>2017-01-29T09:02:12.000Z</time>
      </trkpt>
      <trkpt lat="44.48703" lon="0.69425">
        <ele>100.1</ele>
        <time>2017-01-29T09:02:13.000Z</time>
      </trkpt>
      <trkpt lat="44.48701" lon="0.69424">
        <ele>100.3</ele>
        <time>2017-01-29T09:02:14.000Z</time>
      </trkpt>
      <trkpt lat="44.487" lon="0.69423">
        <ele>100.4</ele>
        <time>2017-01-29T09:02:15.000Z</time>
      </trkpt>
      <trkpt lat="44.48698" lon="0.69422">
        <ele>100.6</ele>
        <time>2017-01-29T09:02:16.000Z</time>
      </trkpt>
      <trkpt lat="44.48696" lon="0.69421">
        <ele>100.8</ele>
        <time>2017-01-29T09:02:17.000Z</time>
      </trkpt>
      <trkpt lat="44.48695" lon="0.6942">
        <ele>101</ele>
        <time>2017-01-29T09:02:18.000Z</time>
      </trkpt>
      <trkpt lat="44.48693" lon="0.69419">
        <ele>101.1</ele>
        <time>2017-01-29T09:02:19.000Z</time>
      </trkpt>
      <trkpt lat="44.48692" lon="0.69418">
        <ele>101.3</ele>
        <time>2017-01-29T09:02:20.000Z</time>
      </trkpt>
      <trkpt lat="44.4869" lon="0.69417">
        <ele>101.5</ele>
        <time>2017-01-29T09:02:21.000Z</time>
      </trkpt>
      <trkpt lat="44.48688" lon="0.69415">
        <ele>101.7</ele>
        <time>2017-01-29T09:02:22.000Z</time>
      </trkpt>
      <trkpt lat="44.48687" lon="0.69414">
        <ele>102</ele>
        <time>2017-01-29T09:02:23.000Z</time>
      </trkpt>
      <trkpt lat="44.48686" lon="0.69413">
        <ele>102.2</ele>
        <time>2017-01-29T09:02:24.000Z</time>
      </trkpt>
      <trkpt lat="44.48684" lon="0.69411">
        <ele>102.5</ele>
        <time>2017-01-29T09:02:25.000Z</time>
      </trkpt>
      <trkpt lat="44.48683" lon="0.6941">
        <ele>102.7</ele>
        <time>2017-01-29T09:02:26.000Z</time>
      </trkpt>
      <trkpt lat="44.48682" lon="0.69409">
        <ele>102.9</ele>
        <time>2017-01-29T09:02:27.000Z</time>
      </trkpt>
      <trkpt lat="44.48681" lon="0.69408">
        <ele>103.2</ele>
        <time>2017-01-29T09:02:28.000Z</time>
      </trkpt>
      <trkpt lat="44.48679" lon="0.69407">
        <ele>103.4</ele>
        <time>2017-01-29T09:02:29.000Z</time>
      </trkpt>
      <trkpt lat="44.48678" lon="0.69405">
        <ele>103.6</ele>
        <time>2017-01-29T09:02:30.000Z</time>
      </trkpt>
      <trkpt lat="44.48677" lon="0.69404">
        <ele>103.8</ele>
        <time>2017-01-29T09:02:31.000Z</time>
      </trkpt>
      <trkpt lat="44.48676" lon="0.69403">
        <ele>104</ele>
        <time>2017-01-29T09:02:32.000Z</time>
      </trkpt>
      <trkpt lat="44.48675" lon="0.69402">
        <ele>104.3</ele>
        <time>2017-01-29T09:02:33.000Z</time>
      </trkpt>
      <trkpt lat="44.48674" lon="0.69401">
        <ele>104.5</ele>
        <time>2017-01-29T09:02:34.000Z</time>
      </trkpt>
      <trkpt lat="44.48673" lon="0.694">
        <ele>104.7</ele>
        <time>2017-01-29T09:02:35.000Z</time>
      </trkpt>
      <trkpt lat="44.48671" lon="0.69399">
        <ele>104.9</ele>
        <time>2017-01-29T09:02:36.000Z</time>
      </trkpt>
      <trkpt lat="44.4867" lon="0.69398">
        <ele>105.2</ele>
        <time>2017-01-29T09:02:37.000Z</time>
      </trkpt>
      <trkpt lat="44.48669" lon="0.69397">
        <ele>105.4</ele>
        <time>2017-01-29T09:02:38.000Z</time>
      </trkpt>
      <trkpt lat="44.48668" lon="0.69396">
        <ele>105.6</ele>
        <time>2017-01-29T09:02:39.000Z</time>
      </trkpt>
      <trkpt lat="44.48667" lon="0.69394">
        <ele>105.8</ele>
        <time>2017-01-29T09:02:40.000Z</time>
      </trkpt>
      <trkpt lat="44.48666" lon="0.69393">
        <ele>106.1</ele>
        <time>2017-01-29T09:02:41.000Z</time>
      </trkpt>
      <trkpt lat="44.48665" lon="0.69392">
        <ele>106.4</ele>
        <time>2017-01-29T09:02:42.000Z</time>
      </trkpt>
      <trkpt lat="44.48664" lon="0.69391">
        <ele>106.7</ele>
        <time>2017-01-29T09:02:43.000Z</time>
      </trkpt>
      <trkpt lat="44.48663" lon="0.6939">
        <ele>107.1</ele>
        <time>2017-01-29T09:02:44.000Z</time>
      </trkpt>
      <trkpt lat="44.48662" lon="0.69389">
        <ele>107.4</ele>
        <time>2017-01-29T09:02:45.000Z</time>
      </trkpt>
      <trkpt lat="44.48661" lon="0.69388">
        <ele>107.7</ele>
        <time>2017-01-29T09:02:46.000Z</time>
      </trkpt>
      <trkpt lat="44.48659" lon="0.69387">
        <ele>108</ele>
        <time>2017-01-29T09:02:47.000Z</time>
      </trkpt>
      <trkpt lat="44.48658" lon="0.69386">
        <ele>108.3</ele>
        <time>2017-01-29T09:02:48.000Z</time>
      </trkpt>
      <trkpt lat="44.48657" lon="0.69384">
        <ele>108.6</ele>
        <time>2017-01-29T09:02:49.000Z</time>
      </trkpt>
      <trkpt lat="44.48656" lon="0.69383">
        <ele>109</ele>
        <time>2017-01-29T09:02:50.000Z</time>
      </trkpt>
      <trkpt lat="44.48655" lon="0.69382">
        <ele>109.3</ele>
        <time>2017-01-29T09:02:51.000Z</time>
      </trkpt>
      <trkpt lat="44.48654" lon="0.69381">
        <ele>109.6</ele>
        <time>2017-01-29T09:02:52.000Z</time>
      </trkpt>
      <trkpt lat="44.48652" lon="0.6938">
        <ele>109.9</ele>
        <time>2017-01-29T09:02:53.000Z</time>
      </trkpt>
      <trkpt lat="44.48651" lon="0.69379">
        <ele>110.2</ele>
        <time>2017-01-29T09:02:54.000Z</time>
      </trkpt>
      <trkpt lat="44.4865" lon="0.69378">
        <ele>110.6</ele>
        <time>2017-01-29T09:02:55.000Z</time>
      </trkpt>
      <trkpt lat="44.48649" lon="0.69377">
        <ele>110.9</ele>
        <time>2017-01-29T09:02:56.000Z</time>
      </trkpt>
      <trkpt lat="44.48648" lon="0.69376">
        <ele>111.2</ele>
        <time>2017-01-29T09:02:57.000Z</time>
      </trkpt>
      <trkpt lat="44.48646" lon="0.69376">
        <ele>111.5</ele>
        <time>2017-01-29T09:02:58.000Z</time>
      </trkpt>
      <trkpt lat="44.48645" lon="0.69375">
        <ele>111.8</ele>
        <time>2017-01-29T09:02:59.000Z</time>
      </trkpt>
      <trkpt lat="44.48644" lon="0.69374">
        <ele>112</ele>
        <time>2017-01-29T09:03:00.000Z</time>
      </trkpt>
      <trkpt lat="44.48643" lon="0.69374">
        <ele>112.3</ele>
        <time>2017-01-29T09:03:01.000Z</time>
      </trkpt>
      <trkpt lat="44.48642" lon="0.69373">
        <ele>112.5</ele>
        <time>2017-01-29T09:03:02.000Z</time>
      </trkpt>
      <trkpt lat="44.48641" lon="0.69373">
        <ele>112.7</ele>
        <time>2017-01-29T09:03:03.000Z</time>
      </trkpt>
      <trkpt lat="44.4864" lon="0.69372">
        <ele>112.9</ele>
        <time>2017-01-29T09:03:04.000Z</time>
      </trkpt>
      <trkpt lat="44.4864" lon="0.69372">
        <ele>113</ele>
        <time>2017-01-29T09:03:05.000Z</time>
      </trkpt>
      <trkpt lat="44.48639" lon="0.69372">
        <ele>113.2</ele>
        <time>2017-01-29T09:03:06.000Z</time>
      </trkpt>
      <trkpt lat="44.48639" lon="0.69371">
        <ele>113.3</ele>
        <time>2017-01-29T09:03:07.000Z</time>
      </trkpt>
      <trkpt lat="44.48639" lon="0.69371">
        <ele>113.4</ele>
        <time>2017-01-29T09:03:08.000Z</time>
      </trkpt>
      <trkpt lat="44.48638" lon="0.6937">
        <ele>113.5</ele>
        <time>2017-01-29T09:03:09.000Z</time>
      </trkpt>
      <trkpt lat="44.48637" lon="0.6937">
        <ele>113.8</ele>
        <time>2017-01-29T09:03:10.000Z</time>
      </trkpt>
      <trkpt lat="44.48635" lon="0.69368">
        <ele>114.3</ele>
        <time>2017-01-29T09:03:11.000Z</time>
      </trkpt>
      <trkpt lat="44.48633" lon="0.69366">
        <ele>114.8</ele>
        <time>2017-01-29T09:03:12.000Z</time>
      </trkpt>
      <trkpt lat="44.48631" lon="0.69365">
        <ele>115.2</ele>
        <time>2017-01-29T09:03:13.000Z</time>
      </trkpt>
      <trkpt lat="44.4863" lon="0.69364">
        <ele>115.5</ele>
        <time>2017-01-29T09:03:14.000Z</time>
      </trkpt>
      <trkpt lat="44.4863" lon="0.69363">
        <ele>115.6</ele>
        <time>2017-01-29T09:03:15.000Z</time>
      </trkpt>
      <trkpt lat="44.48629" lon="0.69363">
        <ele>115.8</ele>
        <time>2017-01-29T09:03:16.000Z</time>
      </trkpt>
      <trkpt lat="44.48628" lon="0.69362">
        <ele>116</ele>
        <time>2017-01-29T09:03:17.000Z</time>
      </trkpt>
      <trkpt lat="44.48626" lon="0.69361">
        <ele>116.4</ele>
        <time>2017-01-29T09:03:18.000Z</time>
      </trkpt>
      <trkpt lat="44.48625" lon="0.69359">
        <ele>116.9</ele>
        <time>2017-01-29T09:03:19.000Z</time>
      </trkpt>
      <trkpt lat="44.48624" lon="0.69358">
        <ele>117.2</ele>
        <time>2017-01-29T09:03:20.000Z</time>
      </trkpt>
      <trkpt lat="44.48622" lon="0.69357">
        <ele>117.4</ele>
        <time>2017-01-29T09:03:21.000Z</time>
      </trkpt>
      <trkpt lat="44.48621" lon="0.69356">
        <ele>117.7</ele>
        <time>2017-01-29T09:03:22.000Z</time>
      </trkpt>
      <trkpt lat="44.4862" lon="0.69355">
        <ele>117.9</ele>
        <time>2017-01-29T09:03:23.000Z</time>
      </trkpt>
      <trkpt lat="44.48619" lon="0.69354">
        <ele>118.2</ele>
        <time>2017-01-29T09:03:24.000Z</time>
      </trkpt>
      <trkpt lat="44.48618" lon="0.69354">
        <ele>118.5</ele>
        <time>2017-01-29T09:03:25.000Z</time>
      </trkpt>
      <trkpt lat="44.48617" lon="0.69353">
        <ele>118.7</ele>
        <time>2017-01-29T09:03:26.000Z</time>
      </trkpt>
      <trkpt lat="44.48616" lon="0.69352">
        <ele>119</ele>
        <time>2017-01-29T09:03:27.000Z</time>
      </trkpt>
      <trkpt lat="44.48615" lon="0.69351">
        <ele>119.2</ele>
        <time>2017-01-29T09:03:28.000Z</time>
      </trkpt>
      <trkpt lat="44.48614" lon="0.69351">
        <ele>119.4</ele>
        <time>2017-01-29T09:03:29.000Z</time>
      </trkpt>
      <trkpt lat="44.48614" lon="0.6935">
        <ele>119.6</ele>
        <time>2017-01-29T09:03:30.000Z</time>
      </trkpt>
      <trkpt lat="44.48613" lon="0.69349">
        <ele>119.8</ele>
        <time>2017-01-29T09:03:31.000Z</time>
      </trkpt>
      <trkpt lat="44.48611" lon="0.69348">
        <ele>120.1</ele>
        <time>2017-01-29T09:03:32.000Z</time>
      </trkpt>
      <trkpt lat="44.4861" lon="0.69347">
        <ele>120.3</ele>
        <time>2017-01-29T09:03:33.000Z</time>
      </trkpt>
      <trkpt lat="44.48609" lon="0.69346">
        <ele>120.6</ele>
        <time>2017-01-29T09:03:34.000Z</time>
      </trkpt>
      <trkpt lat="44.48608" lon="0.69346">
        <ele>120.8</ele>
        <time>2017-01-29T09:03:35.000Z</time>
      </trkpt>
      <trkpt lat="44.48607" lon="0.69345">
        <ele>121.1</ele>
        <time>2017-01-29T09:03:36.000Z</time>
      </trkpt>
      <trkpt lat="44.48606" lon="0.69344">
        <ele>121.3</ele>
        <time>2017-01-29T09:03:37.000Z</time>
      </trkpt>
      <trkpt lat="44.48605" lon="0.69343">
        <ele>121.5</ele>
        <time>2017-01-29T09:03:38.000Z</time>
      </trkpt>
      <trkpt lat="44.48604" lon="0.69343">
        <ele>121.7</ele>
        <time>2017-01-29T09:03:39.000Z</time>
      </trkpt>
      <trkpt lat="44.48603" lon="0.69342">
        <ele>122</ele>
        <time>2017-01-29T09:03:40.000Z</time>
      </trkpt>
      <trkpt lat="44.48602" lon="0.69341">
        <ele>122.3</ele>
        <time>2017-01-29T09:03:41.000Z</time>
      </trkpt>
      <trkpt lat="44.486" lon="0.69339">
        <ele>122.6</ele>
        <time>2017-01-29T09:03:42.000Z</time>
      </trkpt>
      <trkpt lat="44.48599" lon="0.69338">
        <ele>122.9</ele>
        <time>2017-01-29T09:03:43.000Z</time>
      </trkpt>
      <trkpt lat="44.48598" lon="0.69337">
        <ele>123.1</ele>
        <time>2017-01-29T09:03:44.000Z</time>
      </trkpt>
      <trkpt lat="44.48597" lon="0.69336">
        <ele>123.4</ele>
        <time>2017-01-29T09:03:45.000Z</time>
      </trkpt>
      <trkpt lat="44.48596" lon="0.69335">
        <ele>123.7</ele>
        <time>2017-01-29T09:03:46.000Z</time>
      </trkpt>
      <trkpt lat="44.48595" lon="0.69334">
        <ele>123.9</ele>
        <time>2017-01-29T09:03:47.000Z</time>
      </trkpt>
      <trkpt lat="44.48593" lon="0.69333">
        <ele>124.2</ele>
        <time>2017-01-29T09:03:48.000Z</time>
      </trkpt>
      <trkpt lat="44.48592" lon="0.69333">
        <ele>124.4</ele>
        <time>2017-01-29T09:03:49.000Z</time>
      </trkpt>
      <trkpt lat="44.48592" lon="0.69332">
        <ele>124.5</ele>
        <time>2017-01-29T09:03:50.000Z</time>
      </trkpt>
      <trkpt lat="44.48591" lon="0.69332">
        <ele>124.6</ele>
        <time>2017-01-29T09:03:51.000Z</time>
      </trkpt>
      <trkpt lat="44.4859" lon="0.69331">
        <ele>124.8</ele>
        <time>2017-01-29T09:03:52.000Z</time>
      </trkpt>
      <trkpt lat="44.48589" lon="0.6933">
        <ele>125</ele>
        <time>2017-01-29T09:03:53.000Z</time>
      </trkpt>
      <trkpt lat="44.48588" lon="0.69329">
        <ele>125.2</ele>
        <time>2017-01-29T09:03:54.000Z</time>
      </trkpt>
      <trkpt lat="44.48586" lon="0.69328">
        <ele>125.5</ele>
        <time>2017-01-29T09:03:55.000Z</time>
      </trkpt>
      <trkpt lat="44.48585" lon="0.69326">
        <ele>125.7</ele>
        <time>2017-01-29T09:03:56.000Z</time>
      </trkpt>
      <trkpt lat="44.48584" lon="0.69325">
        <ele>125.8</ele>
        <time>2017-01-29T09:03:57.000Z</time>
      </trkpt>
      <trkpt lat="44.48583" lon="0.69324">
        <ele>126</ele>
        <time>2017-01-29T09:03:58.000Z</time>
      </trkpt>
      <trkpt lat="44.48582" lon="0.69323">
        <ele>126.1</ele>
        <time>2017-01-29T09:03:59.000Z</time>
      </trkpt>
      <trkpt lat="44.48581" lon="0.69322">
        <ele>126.2</ele>
        <time>2017-01-29T09:04:00.000Z</time>
      </trkpt>
      <trkpt lat="44.4858" lon="0.6932">
        <ele>126.4</ele>
        <time>2017-01-29T09:04:01.000Z</time>
      </trkpt>
      <trkpt lat="44.48579" lon="0.69319">
        <ele>126.5</ele>
        <time>2017-01-29T09:04:02.000Z</time>
      </trkpt>
      <trkpt lat="44.48578" lon="0.69318">
        <ele>126.6</ele>
        <time>2017-01-29T09:04:03.000Z</time>
      </trkpt>
      <trkpt lat="44.48577" lon="0.69317">
        <ele>126.8</ele>
        <time>2017-01-29T09:04:04.000Z</time>
      </trkpt>
      <trkpt lat="44.48576" lon="0.69317">
        <ele>126.9</ele>
        <time>2017-01-29T09:04:05.000Z</time>
      </trkpt>
      <trkpt lat="44.48575" lon="0.69316">
        <ele>127.1</ele>
        <time>2017-01-29T09:04:06.000Z</time>
      </trkpt>
      <trkpt lat="44.48574" lon="0.69315">
        <ele>127.2</ele>
        <time>2017-01-29T09:04:07.000Z</time>
      </trkpt>
      <trkpt lat="44.48573" lon="0.69314">
        <ele>127.3</ele>
        <time>2017-01-29T09:04:08.000Z</time>
      </trkpt>
      <trkpt lat="44.48571" lon="0.69313">
        <ele>127.5</ele>
        <time>2017-01-29T09:04:09.000Z</time>
      </trkpt>
      <trkpt lat="44.4857" lon="0.69312">
        <ele>127.6</ele>
        <time>2017-01-29T09:04:10.000Z</time>
      </trkpt>
      <trkpt lat="44.48569" lon="0.69311">
        <ele>127.8</ele>
        <time>2017-01-29T09:04:11.000Z</time>
      </trkpt>
      <trkpt lat="44.48568" lon="0.69311">
        <ele>127.9</ele>
        <time>2017-01-29T09:04:12.000Z</time>
      </trkpt>
      <trkpt lat="44.48567" lon="0.6931">
        <ele>128</ele>
        <time>2017-01-29T09:04:13.000Z</time>
      </trkpt>
      <trkpt lat="44.48566" lon="0.69309">
        <ele>128.1</ele>
        <time>2017-01-29T09:04:14.000Z</time>
      </trkpt>
      <trkpt lat="44.48565" lon="0.69308">
        <ele>128.3</ele>
        <time>2017-01-29T09:04:15.000Z</time>
      </trkpt>
      <trkpt lat="44.48564" lon="0.69307">
        <ele>128.4</ele>
        <time>2017-01-29T09:04:16.000Z</time>
      </trkpt>
      <trkpt lat="44.48563" lon="0.69306">
        <ele>128.5</ele>
        <time>2017-01-29T09:04:17.000Z</time>
      </trkpt>
      <trkpt lat="44.48562" lon="0.69306">
        <ele>128.6</ele>
        <time>2017-01-29T09:04:18.000Z</time>
      </trkpt>
      <trkpt lat="44.48561" lon="0.69305">
        <ele>128.7</ele>
        <time>2017-01-29T09:04:19.000Z</time>
      </trkpt>
      <trkpt lat="44.4856" lon="0.69304">
        <ele>128.9</ele>
        <time>2017-01-29T09:04:20.000Z</time>
      </trkpt>
      <trkpt lat="44.48558" lon="0.69303">
        <ele>129.1</ele>
        <time>2017-01-29T09:04:21.000Z</time>
      </trkpt>
      <trkpt lat="44.48557" lon="0.69302">
        <ele>129.3</ele>
        <time>2017-01-29T09:04:22.000Z</time>
      </trkpt>
      <trkpt lat="44.48556" lon="0.693">
        <ele>129.4</ele>
        <time>2017-01-29T09:04:23.000Z</time>
      </trkpt>
      <trkpt lat="44.48554" lon="0.69298">
        <ele>129.6</ele>
        <time>2017-01-29T09:04:24.000Z</time>
      </trkpt>
      <trkpt lat="44.48553" lon="0.69297">
        <ele>129.8</ele>
        <time>2017-01-29T09:04:25.000Z</time>
      </trkpt>
      <trkpt lat="44.48552" lon="0.69295">
        <ele>129.9</ele>
        <time>2017-01-29T09:04:26.000Z</time>
      </trkpt>
      <trkpt lat="44.48551" lon="0.69294">
        <ele>130.1</ele>
        <time>2017-01-29T09:04:27.000Z</time>
      </trkpt>
      <trkpt lat="44.4855" lon="0.69292">
        <ele>130.2</ele>
        <time>2017-01-29T09:04:28.000Z</time>
      </trkpt>
      <trkpt lat="44.48549" lon="0.69291">
        <ele>130.4</ele>
        <time>2017-01-29T09:04:29.000Z</time>
      </trkpt>
      <trkpt lat="44.48548" lon="0.69289">
        <ele>130.5</ele>
        <time>2017-01-29T09:04:30.000Z</time>
      </trkpt>
      <trkpt lat="44.48547" lon="0.69288">
        <ele>130.6</ele>
        <time>2017-01-29T09:04:31.000Z</time>
      </trkpt>
      <trkpt lat="44.48546" lon="0.69287">
        <ele>130.7</ele>
        <time>2017-01-29T09:04:32.000Z</time>
      </trkpt>
      <trkpt lat="44.48545" lon="0.69285">
        <ele>130.8</ele>
        <time>2017-01-29T09:04:33.000Z</time>
      </trkpt>
      <trkpt lat="44.48544" lon="0.69284">
        <ele>131</ele>
        <time>2017-01-29T09:04:34.000Z</time>
      </trkpt>
      <trkpt lat="44.48543" lon="0.69282">
        <ele>131.1</ele>
        <time>2017-01-29T09:04:35.000Z</time>
      </trkpt>
      <trkpt lat="44.48543" lon="0.69281">
        <ele>131.2</ele>
        <time>2017-01-29T09:04:36.000Z</time>
      </trkpt>
      <trkpt lat="44.48542" lon="0.69279">
        <ele>131.3</ele>
        <time>2017-01-29T09:04:37.000Z</time>
      </trkpt>
      <trkpt lat="44.48541" lon="0.69278">
        <ele>131.5</ele>
        <time>2017-01-29T09:04:38.000Z</time>
      </trkpt>
      <trkpt lat="44.4854" lon="0.69277">
        <ele>131.6</ele>
        <time>2017-01-29T09:04:39.000Z</time>
      </trkpt>
      <trkpt lat="44.48539" lon="0.69275">
        <ele>131.7</ele>
        <time>2017-01-29T09:04:40.000Z</time>
      </trkpt>
      <trkpt lat="44.48538" lon="0.69274">
        <ele>131.9</ele>
        <time>2017-01-29T09:04:41.000Z</time>
      </trkpt>
      <trkpt lat="44.48537" lon="0.69272">
        <ele>132</ele>
        <time>2017-01-29T09:04:42.000Z</time>
      </trkpt>
      <trkpt lat="44.48535" lon="0.69271">
        <ele>132.2</ele>
        <time>2017-01-29T09:04:43.000Z</time>
      </trkpt>
      <trkpt lat="44.48534" lon="0.6927">
        <ele>132.3</ele>
        <time>2017-01-29T09:04:44.000Z</time>
      </trkpt>
      <trkpt lat="44.48533" lon="0.69268">
        <ele>132.5</ele>
        <time>2017-01-29T09:04:45.000Z</time>
      </trkpt>
      <trkpt lat="44.48532" lon="0.69267">
        <ele>132.6</ele>
        <time>2017-01-29T09:04:46.000Z</time>
      </trkpt>
      <trkpt lat="44.48531" lon="0.69265">
        <ele>132.8</ele>
        <time>2017-01-29T09:04:47.000Z</time>
      </trkpt>
      <trkpt lat="44.4853" lon="0.69264">
        <ele>133</ele>
        <time>2017-01-29T09:04:48.000Z</time>
      </trkpt>
      <trkpt lat="44.48529" lon="0.69263">
        <ele>133.1</ele>
        <time>2017-01-29T09:04:49.000Z</time>
      </trkpt>
      <trkpt lat="44.48527" lon="0.69261">
        <ele>133.3</ele>
        <time>2017-01-29T09:04:50.000Z</time>
      </trkpt>
      <trkpt lat="44.48526" lon="0.6926">
        <ele>133.5</ele>
        <time>2017-01-29T09:04:51.000Z</time>
      </trkpt>
      <trkpt lat="44.48525" lon="0.69259">
        <ele>133.6</ele>
        <time>2017-01-29T09:04:52.000Z</time>
      </trkpt>
      <trkpt lat="44.48524" lon="0.69258">
        <ele>133.8</ele>
        <time>2017-01-29T09:04:53.000Z</time>
      </trkpt>
      <trkpt lat="44.48523" lon="0.69257">
        <ele>133.9</ele>
        <time>2017-01-29T09:04:54.000Z</time>
      </trkpt>
      <trkpt lat="44.48523" lon="0.69256">
        <ele>134</ele>
        <time>2017-01-29T09:04:55.000Z</time>
      </trkpt>
      <trkpt lat="44.48522" lon="0.69255">
        <ele>134.1</ele>
        <time>2017-01-29T09:04:56.000Z</time>
      </trkpt>
      <trkpt lat="44.48522" lon="0.69255">
        <ele>134.1</ele>
        <time>2017-01-29T09:04:57.000Z</time>
      </trkpt>
      <trkpt lat="44.48521" lon="0.69254">
        <ele>134.2</ele>
        <time>2017-01-29T09:04:58.000Z</time>
      </trkpt>
      <trkpt lat="44.4852" lon="0.69253">
        <ele>134.3</ele>
        <time>2017-01-29T09:04:59.000Z</time>
      </trkpt>
      <trkpt lat="44.48519" lon="0.69251">
        <ele>134.5</ele>
        <time>2017-01-29T09:05:00.000Z</time>
      </trkpt>
      <trkpt lat="44.48518" lon="0.69248">
        <ele>134.8</ele>
        <time>2017-01-29T09:05:01.000Z</time>
      </trkpt>
      <trkpt lat="44.48516" lon="0.69246">
        <ele>135</ele>
        <time>2017-01-29T09:05:02.000Z</time>
      </trkpt>
      <trkpt lat="44.48515" lon="0.69244">
        <ele>135.1</ele>
        <time>2017-01-29T09:05:03.000Z</time>
      </trkpt>
      <trkpt lat="44.48514" lon="0.69243">
        <ele>135.3</ele>
        <time>2017-01-29T09:05:04.000Z</time>
      </trkpt>
      <trkpt lat="44.48513" lon="0.69241">
        <ele>135.5</ele>
        <time>2017-01-29T09:05:05.000Z</time>
      </trkpt>
      <trkpt lat="44.48512" lon="0.69239">
        <ele>135.7</ele>
        <time>2017-01-29T09:05:06.000Z</time>
      </trkpt>
      <trkpt lat="44.48511" lon="0.69238">
        <ele>135.9</ele>
        <time>2017-01-29T09:05:07.000Z</time>
      </trkpt>
      <trkpt lat="44.4851" lon="0.69236">
        <ele>136</ele>
        <time>2017-01-29T09:05:08.000Z</time>
      </trkpt>
      <trkpt lat="44.48509" lon="0.69234">
        <ele>136.2</ele>
        <time>2017-01-29T09:05:09.000Z</time>
      </trkpt>
      <trkpt lat="44.48508" lon="0.69233">
        <ele>136.4</ele>
        <time>2017-01-29T09:05:10.000Z</time>
      </trkpt>
      <trkpt lat="44.48507" lon="0.69231">
        <ele>136.5</ele>
        <time>2017-01-29T09:05:11.000Z</time>
      </trkpt>
      <trkpt lat="44.48506" lon="0.69229">
        <ele>136.7</ele>
        <time>2017-01-29T09:05:12.000Z</time>
      </trkpt>
      <trkpt lat="44.48505" lon="0.69228">
        <ele>136.9</ele>
        <time>2017-01-29T09:05:13.000Z</time>
      </trkpt>
      <trkpt lat="44.48504" lon="0.69226">
        <ele>137</ele>
        <time>2017-01-29T09:05:14.000Z</time>
      </trkpt>
      <trkpt lat="44.48503" lon="0.69224">
        <ele>137.2</ele>
        <time>2017-01-29T09:05:15.000Z</time>
      </trkpt>
      <trkpt lat="44.48502" lon="0.69222">
        <ele>137.4</ele>
        <time>2017-01-29T09:05:16.000Z</time>
      </trkpt>
      <trkpt lat="44.48501" lon="0.69219">
        <ele>137.6</ele>
        <time>2017-01-29T09:05:17.000Z</time>
      </trkpt>
      <trkpt lat="44.485" lon="0.69217">
        <ele>137.7</ele>
        <time>2017-01-29T09:05:18.000Z</time>
      </trkpt>
      <trkpt lat="44.485" lon="0.69215">
        <ele>137.8</ele>
        <time>2017-01-29T09:05:19.000Z</time>
      </trkpt>
      <trkpt lat="44.48499" lon="0.69213">
        <ele>137.9</ele>
        <time>2017-01-29T09:05:20.000Z</time>
      </trkpt>
      <trkpt lat="44.48498" lon="0.69211">
        <ele>137.9</ele>
        <time>2017-01-29T09:05:21.000Z</time>
      </trkpt>
      <trkpt lat="44.48497" lon="0.69209">
        <ele>138</ele>
        <time>2017-01-29T09:05:22.000Z</time>
      </trkpt>
      <trkpt lat="44.48496" lon="0.69208">
        <ele>138</ele>
        <time>2017-01-29T09:05:23.000Z</time>
      </trkpt>
      <trkpt lat="44.48495" lon="0.69206">
        <ele>138</ele>
        <time>2017-01-29T09:05:24.000Z</time>
      </trkpt>
      <trkpt lat="44.48495" lon="0.69204">
        <ele>138.1</ele>
        <time>2017-01-29T09:05:25.000Z</time>
      </trkpt>
      <trkpt lat="44.48494" lon="0.69202">
        <ele>138.1</ele>
        <time>2017-01-29T09:05:26.000Z</time>
      </trkpt>
      <trkpt lat="44.48493" lon="0.692">
        <ele>138.2</ele>
        <time>2017-01-29T09:05:27.000Z</time>
      </trkpt>
      <trkpt lat="44.48492" lon="0.69199">
        <ele>138.2</ele>
        <time>2017-01-29T09:05:28.000Z</time>
      </trkpt>
      <trkpt lat="44.48491" lon="0.69197">
        <ele>138.2</ele>
        <time>2017-01-29T09:05:29.000Z</time>
      </trkpt>
      <trkpt lat="44.4849" lon="0.69195">
        <ele>138.3</ele>
        <time>2017-01-29T09:05:30.000Z</time>
      </trkpt>
      <trkpt lat="44.4849" lon="0.69193">
        <ele>138.3</ele>
        <time>2017-01-29T09:05:31.000Z</time>
      </trkpt>
      <trkpt lat="44.48489" lon="0.69192">
        <ele>138.4</ele>
        <time>2017-01-29T09:05:32.000Z</time>
      </trkpt>
      <trkpt lat="44.48488" lon="0.6919">
        <ele>138.4</ele>
        <time>2017-01-29T09:05:33.000Z</time>
      </trkpt>
      <trkpt lat="44.48487" lon="0.69188">
        <ele>138.4</ele>
        <time>2017-01-29T09:05:34.000Z</time>
      </trkpt>
      <trkpt lat="44.48486" lon="0.69186">
        <ele>138.5</ele>
        <time>2017-01-29T09:05:35.000Z</time>
      </trkpt>
      <trkpt lat="44.48485" lon="0.69184">
        <ele>138.5</ele>
        <time>2017-01-29T09:05:36.000Z</time>
      </trkpt>
      <trkpt lat="44.48484" lon="0.69183">
        <ele>138.6</ele>
        <time>2017-01-29T09:05:37.000Z</time>
      </trkpt>
      <trkpt lat="44.48483" lon="0.69181">
        <ele>138.6</ele>
        <time>2017-01-29T09:05:38.000Z</time>
      </trkpt>
      <trkpt lat="44.48482" lon="0.69179">
        <ele>138.7</ele>
        <time>2017-01-29T09:05:39.000Z</time>
      </trkpt>
      <trkpt lat="44.48481" lon="0.69177">
        <ele>138.7</ele>
        <time>2017-01-29T09:05:40.000Z</time>
      </trkpt>
      <trkpt lat="44.4848" lon="0.69176">
        <ele>138.8</ele>
        <time>2017-01-29T09:05:41.000Z</time>
      </trkpt>
      <trkpt lat="44.48479" lon="0.69174">
        <ele>138.8</ele>
        <time>2017-01-29T09:05:42.000Z</time>
      </trkpt>
      <trkpt lat="44.48478" lon="0.69172">
        <ele>138.8</ele>
        <time>2017-01-29T09:05:43.000Z</time>
      </trkpt>
      <trkpt lat="44.48477" lon="0.69171">
        <ele>138.9</ele>
        <time>2017-01-29T09:05:44.000Z</time>
      </trkpt>
      <trkpt lat="44.48476" lon="0.69169">
        <ele>138.9</ele>
        <time>2017-01-29T09:05:45.000Z</time>
      </trkpt>
      <trkpt lat="44.48475" lon="0.69167">
        <ele>139</ele>
        <time>2017-01-29T09:05:46.000Z</time>
      </trkpt>
      <trkpt lat="44.48474" lon="0.69166">
        <ele>139.1</ele>
        <time>2017-01-29T09:05:47.000Z</time>
      </trkpt>
      <trkpt lat="44.48473" lon="0.69164">
        <ele>139.2</ele>
        <time>2017-01-29T09:05:48.000Z</time>
      </trkpt>
      <trkpt lat="44.48472" lon="0.69163">
        <ele>139.2</ele>
        <time>2017-01-29T09:05:49.000Z</time>
      </trkpt>
      <trkpt lat="44.48471" lon="0.69161">
        <ele>139.3</ele>
        <time>2017-01-29T09:05:50.000Z</time>
      </trkpt>
      <trkpt lat="44.4847" lon="0.6916">
        <ele>139.4</ele>
        <time>2017-01-29T09:05:51.000Z</time>
      </trkpt>
      <trkpt lat="44.48469" lon="0.69159">
        <ele>139.5</ele>
        <time>2017-01-29T09:05:52.000Z</time>
      </trkpt>
      <trkpt lat="44.48468" lon="0.69158">
        <ele>139.6</ele>
        <time>2017-01-29T09:05:53.000Z</time>
      </trkpt>
      <trkpt lat="44.48467" lon="0.69156">
        <ele>139.6</ele>
        <time>2017-01-29T09:05:54.000Z</time>
      </trkpt>
      <trkpt lat="44.48466" lon="0.69155">
        <ele>139.7</ele>
        <time>2017-01-29T09:05:55.000Z</time>
      </trkpt>
      <trkpt lat="44.48466" lon="0.69154">
        <ele>139.7</ele>
        <time>2017-01-29T09:05:56.000Z</time>
      </trkpt>
      <trkpt lat="44.48465" lon="0.69153">
        <ele>139.8</ele>
        <time>2017-01-29T09:05:57.000Z</time>
      </trkpt>
      <trkpt lat="44.48464" lon="0.69152">
        <ele>139.9</ele>
        <time>2017-01-29T09:05:58.000Z</time>
      </trkpt>
      <trkpt lat="44.48463" lon="0.6915">
        <ele>140</ele>
        <time>2017-01-29T09:05:59.000Z</time>
      </trkpt>
      <trkpt lat="44.48462" lon="0.69149">
        <ele>140.1</ele>
        <time>2017-01-29T09:06:00.000Z</time>
      </trkpt>
      <trkpt lat="44.48461" lon="0.69147">
        <ele>140.2</ele>
        <time>2017-01-29T09:06:01.000Z</time>
      </trkpt>
      <trkpt lat="44.48461" lon="0.69145">
        <ele>140.3</ele>
        <time>2017-01-29T09:06:02.000Z</time>
      </trkpt>
      <trkpt lat="44.4846" lon="0.69143">
        <ele>140.5</ele>
        <time>2017-01-29T09:06:03.000Z</time>
      </trkpt>
      <trkpt lat="44.48459" lon="0.6914">
        <ele>140.6</ele>
        <time>2017-01-29T09:06:04.000Z</time>
      </trkpt>
      <trkpt lat="44.48457" lon="0.69138">
        <ele>140.7</ele>
        <time>2017-01-29T09:06:05.000Z</time>
      </trkpt>
      <trkpt lat="44.48456" lon="0.69136">
        <ele>140.8</ele>
        <time>2017-01-29T09:06:06.000Z</time>
      </trkpt>
      <trkpt lat="44.48455" lon="0.69134">
        <ele>140.9</ele>
        <time>2017-01-29T09:06:07.000Z</time>
      </trkpt>
      <trkpt lat="44.48454" lon="0.69133">
        <ele>141</ele>
        <time>2017-01-29T09:06:08.000Z</time>
      </trkpt>
      <trkpt lat="44.48453" lon="0.69131">
        <ele>141.1</ele>
        <time>2017-01-29T09:06:09.000Z</time>
      </trkpt>
      <trkpt lat="44.48452" lon="0.69129">
        <ele>141.2</ele>
        <time>2017-01-29T09:06:10.000Z</time>
      </trkpt>
      <trkpt lat="44.48451" lon="0.69128">
        <ele>141.3</ele>
        <time>2017-01-29T09:06:11.000Z</time>
      </trkpt>
      <trkpt lat="44.48449" lon="0.69126">
        <ele>141.4</ele>
        <time>2017-01-29T09:06:12.000Z</time>
      </trkpt>
      <trkpt lat="44.48448" lon="0.69125">
        <ele>141.5</ele>
        <time>2017-01-29T09:06:13.000Z</time>
      </trkpt>
      <trkpt lat="44.48447" lon="0.69123">
        <ele>141.6</ele>
        <time>2017-01-29T09:06:14.000Z</time>
      </trkpt>
      <trkpt lat="44.48446" lon="0.69122">
        <ele>141.7</ele>
        <time>2017-01-29T09:06:15.000Z</time>
      </trkpt>
      <trkpt lat="44.48444" lon="0.6912">
        <ele>141.8</ele>
        <time>2017-01-29T09:06:16.000Z</time>
      </trkpt>
      <trkpt lat="44.48443" lon="0.69118">
        <ele>141.9</ele>
        <time>2017-01-29T09:06:17.000Z</time>
      </trkpt>
      <trkpt lat="44.48442" lon="0.69117">
        <ele>142</ele>
        <time>2017-01-29T09:06:18.000Z</time>
      </trkpt>
      <trkpt lat="44.4844" lon="0.69115">
        <ele>142.1</ele>
        <time>2017-01-29T09:06:19.000Z</time>
      </trkpt>
      <trkpt lat="44.48439" lon="0.69114">
        <ele>142.2</ele>
        <time>2017-01-29T09:06:20.000Z</time>
      </trkpt>
      <trkpt lat="44.48438" lon="0.69112">
        <ele>142.3</ele>
        <time>2017-01-29T09:06:21.000Z</time>
      </trkpt>
      <trkpt lat="44.48437" lon="0.6911">
        <ele>142.4</ele>
        <time>2017-01-29T09:06:22.000Z</time>
      </trkpt>
      <trkpt lat="44.48435" lon="0.69109">
        <ele>142.5</ele>
        <time>2017-01-29T09:06:23.000Z</time>
      </trkpt>
      <trkpt lat="44.48434" lon="0.69107">
        <ele>142.6</ele>
        <time>2017-01-29T09:06:24.000Z</time>
      </trkpt>
      <trkpt lat="44.48433" lon="0.69105">
        <ele>142.7</ele>
        <time>2017-01-29T09:06:25.000Z</time>
      </trkpt>
      <trkpt lat="44.48431" lon="0.69104">
        <ele>142.8</ele>
        <time>2017-01-29T09:06:26.000Z</time>
      </trkpt>
      <trkpt lat="44.4843" lon="0.69102">
        <ele>142.9</ele>
        <time>2017-01-29T09:06:27.000Z</time>
      </trkpt>
      <trkpt lat="44.48429" lon="0.69101">
        <ele>143</ele>
        <time>2017-01-29T09:06:28.000Z</time>
      </trkpt>
      <trkpt lat="44.48428" lon="0.69099">
        <ele>143.1</ele>
        <time>2017-01-29T09:06:29.000Z</time>
      </trkpt>
      <trkpt lat="44.48426" lon="0.69098">
        <ele>143.2</ele>
        <time>2017-01-29T09:06:30.000Z</time>
      </trkpt>
      <trkpt lat="44.48425" lon="0.69096">
        <ele>143.2</ele>
        <time>2017-01-29T09:06:31.000Z</time>
      </trkpt>
      <trkpt lat="44.48424" lon="0.69095">
        <ele>143.3</ele>
        <time>2017-01-29T09:06:32.000Z</time>
      </trkpt>
      <trkpt lat="44.48423" lon="0.69093">
        <ele>143.4</ele>
        <time>2017-01-29T09:06:33.000Z</time>
      </trkpt>
      <trkpt lat="44.48422" lon="0.69092">
        <ele>143.5</ele>
        <time>2017-01-29T09:06:34.000Z</time>
      </trkpt>
      <trkpt lat="44.48421" lon="0.6909">
        <ele>143.6</ele>
        <time>2017-01-29T09:06:35.000Z</time>
      </trkpt>
      <trkpt lat="44.48419" lon="0.69089">
        <ele>143.7</ele>
        <time>2017-01-29T09:06:36.000Z</time>
      </trkpt>
      <trkpt lat="44.48418" lon="0.69087">
        <ele>143.8</ele>
        <time>2017-01-29T09:06:37.000Z</time>
      </trkpt>
      <trkpt lat="44.48417" lon="0.69086">
        <ele>143.8</ele>
        <time>2017-01-29T09:06:38.000Z</time>
      </trkpt>
      <trkpt lat="44.48416" lon="0.69085">
        <ele>143.8</ele>
        <time>2017-01-29T09:06:39.000Z</time>
      </trkpt>
      <trkpt lat="44.48415" lon="0.69083">
        <ele>143.8</ele>
        <time>2017-01-29T09:06:40.000Z</time>
      </trkpt>
      <trkpt lat="44.48413" lon="0.69082">
        <ele>143.8</ele>
        <time>2017-01-29T09:06:41.000Z</time>
      </trkpt>
      <trkpt lat="44.48412" lon="0.6908">
        <ele>143.7</ele>
        <time>2017-01-29T09:06:42.000Z</time>
      </trkpt>
      <trkpt lat="44.48411" lon="0.69079">
        <ele>143.7</ele>
        <time>2017-01-29T09:06:43.000Z</time>
      </trkpt>
      <trkpt lat="44.4841" lon="0.69077">
        <ele>143.6</ele>
        <time>2017-01-29T09:06:44.000Z</time>
      </trkpt>
      <trkpt lat="44.48409" lon="0.69076">
        <ele>143.6</ele>
        <time>2017-01-29T09:06:45.000Z</time>
      </trkpt>
      <trkpt lat="44.48408" lon="0.69074">
        <ele>143.6</ele>
        <time>2017-01-29T09:06:46.000Z</time>
      </trkpt>
      <trkpt lat="44.48407" lon="0.69073">
        <ele>143.5</ele>
        <time>2017-01-29T09:06:47.000Z</time>
      </trkpt>
      <trkpt lat="44.48406" lon="0.69072">
        <ele>143.5</ele>
        <time>2017-01-29T09:06:48.000Z</time>
      </trkpt>
      <trkpt lat="44.48405" lon="0.69071">
        <ele>143.5</ele>
        <time>2017-01-29T09:06:49.000Z</time>
      </trkpt>
      <trkpt lat="44.48404" lon="0.69069">
        <ele>143.5</ele>
        <time>2017-01-29T09:06:50.000Z</time>
      </trkpt>
      <trkpt lat="44.48403" lon="0.69068">
        <ele>143.4</ele>
        <time>2017-01-29T09:06:51.000Z</time>
      </trkpt>
      <trkpt lat="44.48402" lon="0.69067">
        <ele>143.4</ele>
        <time>2017-01-29T09:06:52.000Z</time>
      </trkpt>
      <trkpt lat="44.48401" lon="0.69066">
        <ele>143.4</ele>
        <time>2017-01-29T09:06:53.000Z</time>
      </trkpt>
      <trkpt lat="44.48401" lon="0.69065">
        <ele>143.4</ele>
        <time>2017-01-29T09:06:54.000Z</time>
      </trkpt>
      <trkpt lat="44.484" lon="0.69064">
        <ele>143.4</ele>
        <time>2017-01-29T09:06:55.000Z</time>
      </trkpt>
      <trkpt lat="44.484" lon="0.69064">
        <ele>143.4</ele>
        <time>2017-01-29T09:06:56.000Z</time>
      </trkpt>
      <trkpt lat="44.48399" lon="0.69064">
        <ele>143.4</ele>
        <time>2017-01-29T09:06:57.000Z</time>
      </trkpt>
      <trkpt lat="44.48399" lon="0.69063">
        <ele>143.4</ele>
        <time>2017-01-29T09:06:58.000Z</time>
      </trkpt>
      <trkpt lat="44.48399" lon="0.69063">
        <ele>143.4</ele>
        <time>2017-01-29T09:06:59.000Z</time>
      </trkpt>
      <trkpt lat="44.48399" lon="0.69063">
        <ele>143.4</ele>
        <time>2017-01-29T09:07:00.000Z</time>
      </trkpt>
      <trkpt lat="44.48399" lon="0.69063">
        <ele>143.3</ele>
        <time>2017-01-29T09:07:01.000Z</time>
      </trkpt>
      <trkpt lat="44.48399" lon="0.69063">
        <ele>143.4</ele>
        <time>2017-01-29T09:07:02.000Z</time>
      </trkpt>
      <trkpt lat="44.48399" lon="0.69064">
        <ele>143.4</ele>
        <time>2017-01-29T09:07:03.000Z</time>
      </trkpt>
      <trkpt lat="44.48399" lon="0.69063">
        <ele>143.4</ele>
        <time>2017-01-29T09:07:04.000Z</time>
      </trkpt>
      <trkpt lat="44.48399" lon="0.69063">
        <ele>143.3</ele>
        <time>2017-01-29T09:07:05.000Z</time>
      </trkpt>
      <trkpt lat="44.48399" lon="0.69063">
        <ele>143.4</ele>
        <time>2017-01-29T09:07:06.000Z</time>
      </trkpt>
      <trkpt lat="44.48399" lon="0.69063">
        <ele>143.3</ele>
        <time>2017-01-29T09:07:07.000Z</time>
      </trkpt>
      <trkpt lat="44.48399" lon="0.69063">
        <ele>143.3</ele>
        <time>2017-01-29T09:07:08.000Z</time>
      </trkpt>
      <trkpt lat="44.48399" lon="0.69063">
        <ele>143.3</ele>
        <time>2017-01-29T09:07:09.000Z</time>
      </trkpt>
      <trkpt lat="44.48399" lon="0.69063">
        <ele>143.3</ele>
        <time>2017-01-29T09:07:10.000Z</time>
      </trkpt>
      <trkpt lat="44.48399" lon="0.69063">
        <ele>143.3</ele>
        <time>2017-01-29T09:07:11.000Z</time>
      </trkpt>
      <trkpt lat="44.48399" lon="0.69063">
        <ele>143.3</ele>
        <time>2017-01-29T09:07:12.000Z</time>
      </trkpt>
      <trkpt lat="44.48398" lon="0.69063">
        <ele>143.3</ele>
        <time>2017-01-29T09:07:13.000Z</time>
      </trkpt>
      <trkpt lat="44.48398" lon="0.69062">
        <ele>143.3</ele>
        <time>2017-01-29T09:07:14.000Z</time>
      </trkpt>
      <trkpt lat="44.48397" lon="0.69061">
        <ele>143.3</ele>
        <time>2017-01-29T09:07:15.000Z</time>
      </trkpt>
      <trkpt lat="44.48397" lon="0.6906">
        <ele>143.3</ele>
        <time>2017-01-29T09:07:16.000Z</time>
      </trkpt>
      <trkpt lat="44.48396" lon="0.69059">
        <ele>143.3</ele>
        <time>2017-01-29T09:07:17.000Z</time>
      </trkpt>
      <trkpt lat="44.48395" lon="0.69058">
        <ele>143.2</ele>
        <time>2017-01-29T09:07:18.000Z</time>
      </trkpt>
      <trkpt lat="44.48394" lon="0.69056">
        <ele>143.2</ele>
        <time>2017-01-29T09:07:19.000Z</time>
      </trkpt>
      <trkpt lat="44.48393" lon="0.69055">
        <ele>143.2</ele>
        <time>2017-01-29T09:07:20.000Z</time>
      </trkpt>
      <trkpt lat="44.48392" lon="0.69054">
        <ele>143.2</ele>
        <time>2017-01-29T09:07:21.000Z</time>
      </trkpt>
      <trkpt lat="44.48391" lon="0.69053">
        <ele>143.2</ele>
        <time>2017-01-29T09:07:22.000Z</time>
      </trkpt>
      <trkpt lat="44.4839" lon="0.69052">
        <ele>143.2</ele>
        <time>2017-01-29T09:07:23.000Z</time>
      </trkpt>
      <trkpt lat="44.48389" lon="0.69051">
        <ele>143.1</ele>
        <time>2017-01-29T09:07:24.000Z</time>
      </trkpt>
      <trkpt lat="44.48389" lon="0.6905">
        <ele>143.1</ele>
        <time>2017-01-29T09:07:25.000Z</time>
      </trkpt>
      <trkpt lat="44.48388" lon="0.69049">
        <ele>143.1</ele>
        <time>2017-01-29T09:07:26.000Z</time>
      </trkpt>
      <trkpt lat="44.48387" lon="0.69048">
        <ele>143.1</ele>
        <time>2017-01-29T09:07:27.000Z</time>
      </trkpt>
      <trkpt lat="44.48387" lon="0.69047">
        <ele>143.1</ele>
        <time>2017-01-29T09:07:28.000Z</time>
      </trkpt>
      <trkpt lat="44.48386" lon="0.69046">
        <ele>143.1</ele>
        <time>2017-01-29T09:07:29.000Z</time>
      </trkpt>
      <trkpt lat="44.48385" lon="0.69045">
        <ele>143.1</ele>
        <time>2017-01-29T09:07:30.000Z</time>
      </trkpt>
      <trkpt lat="44.48384" lon="0.69044">
        <ele>143.1</ele>
        <time>2017-01-29T09:07:31.000Z</time>
      </trkpt>
      <trkpt lat="44.48384" lon="0.69043">
        <ele>143</ele>
        <time>2017-01-29T09:07:32.000Z</time>
      </trkpt>
      <trkpt lat="44.48383" lon="0.69042">
        <ele>143</ele>
        <time>2017-01-29T09:07:33.000Z</time>
      </trkpt>
      <trkpt lat="44.48383" lon="0.69041">
        <ele>143.1</ele>
        <time>2017-01-29T09:07:34.000Z</time>
      </trkpt>
      <trkpt lat="44.48382" lon="0.6904">
        <ele>143.1</ele>
        <time>2017-01-29T09:07:35.000Z</time>
      </trkpt>
      <trkpt lat="44.48381" lon="0.69039">
        <ele>143</ele>
        <time>2017-01-29T09:07:36.000Z</time>
      </trkpt>
      <trkpt lat="44.48381" lon="0.69038">
        <ele>143.1</ele>
        <time>2017-01-29T09:07:37.000Z</time>
      </trkpt>
      <trkpt lat="44.4838" lon="0.69037">
        <ele>143</ele>
        <time>2017-01-29T09:07:38.000Z</time>
      </trkpt>
      <trkpt lat="44.48379" lon="0.69036">
        <ele>143</ele>
        <time>2017-01-29T09:07:39.000Z</time>
      </trkpt>
      <trkpt lat="44.48378" lon="0.69035">
        <ele>143</ele>
        <time>2017-01-29T09:07:40.000Z</time>
      </trkpt>
      <trkpt lat="44.48378" lon="0.69034">
        <ele>143</ele>
        <time>2017-01-29T09:07:41.000Z</time>
      </trkpt>
      <trkpt lat="44.48377" lon="0.69032">
        <ele>143</ele>
        <time>2017-01-29T09:07:42.000Z</time>
      </trkpt>
      <trkpt lat="44.48376" lon="0.69031">
        <ele>143</ele>
        <time>2017-01-29T09:07:43.000Z</time>
      </trkpt>
      <trkpt lat="44.48375" lon="0.69029">
        <ele>143</ele>
        <time>2017-01-29T09:07:44.000Z</time>
      </trkpt>
      <trkpt lat="44.48374" lon="0.69028">
        <ele>143.1</ele>
        <time>2017-01-29T09:07:45.000Z</time>
      </trkpt>
      <trkpt lat="44.48373" lon="0.69026">
        <ele>143.1</ele>
        <time>2017-01-29T09:07:46.000Z</time>
      </trkpt>
      <trkpt lat="44.48373" lon="0.69025">
        <ele>143.1</ele>
        <time>2017-01-29T09:07:47.000Z</time>
      </trkpt>
      <trkpt lat="44.48372" lon="0.69024">
        <ele>143.1</ele>
        <time>2017-01-29T09:07:48.000Z</time>
      </trkpt>
      <trkpt lat="44.48372" lon="0.69024">
        <ele>143.2</ele>
        <time>2017-01-29T09:07:49.000Z</time>
      </trkpt>
      <trkpt lat="44.48372" lon="0.69023">
        <ele>143.2</ele>
        <time>2017-01-29T09:07:50.000Z</time>
      </trkpt>
      <trkpt lat="44.48372" lon="0.69023">
        <ele>143.2</ele>
        <time>2017-01-29T09:07:51.000Z</time>
      </trkpt>
      <trkpt lat="44.48372" lon="0.69023">
        <ele>143.2</ele>
        <time>2017-01-29T09:07:52.000Z</time>
      </trkpt>
      <trkpt lat="44.48372" lon="0.69023">
        <ele>143.2</ele>
        <time>2017-01-29T09:07:53.000Z</time>
      </trkpt>
      <trkpt lat="44.48372" lon="0.69023">
        <ele>143.2</ele>
        <time>2017-01-29T09:07:54.000Z</time>
      </trkpt>
      <trkpt lat="44.48372" lon="0.69023">
        <ele>143.2</ele>
        <time>2017-01-29T09:07:55.000Z</time>
      </trkpt>
      <trkpt lat="44.48372" lon="0.69023">
        <ele>143.2</ele>
        <time>2017-01-29T09:07:56.000Z</time>
      </trkpt>
      <trkpt lat="44.48372" lon="0.69023">
        <ele>143.2</ele>
        <time>2017-01-29T09:07:57.000Z</time>
      </trkpt>
      <trkpt lat="44.48372" lon="0.69023">
        <ele>143.2</ele>
        <time>2017-01-29T09:07:58.000Z</time>
      </trkpt>
      <trkpt lat="44.48372" lon="0.69023">
        <ele>143.2</ele>
        <time>2017-01-29T09:07:59.000Z</time>
      </trkpt>
      <trkpt lat="44.48372" lon="0.69023">
        <ele>143.2</ele>
        <time>2017-01-29T09:08:00.000Z</time>
      </trkpt>
      <trkpt lat="44.48372" lon="0.69023">
        <ele>143.2</ele>
        <time>2017-01-29T09:08:01.000Z</time>
      </trkpt>
      <trkpt lat="44.48372" lon="0.69023">
        <ele>143.2</ele>
        <time>2017-01-29T09:08:02.000Z</time>
      </trkpt>
      <trkpt lat="44.48372" lon="0.69023">
        <ele>143.2</ele>
        <time>2017-01-29T09:08:03.000Z</time>
      </trkpt>
      <trkpt lat="44.48372" lon="0.69023">
        <ele>143.2</ele>
        <time>2017-01-29T09:08:04.000Z</time>
      </trkpt>
      <trkpt lat="44.48372" lon="0.69023">
        <ele>143.2</ele>
        <time>2017-01-29T09:08:05.000Z</time>
      </trkpt>
      <trkpt lat="44.48372" lon="0.69023">
        <ele>143.2</ele>
        <time>2017-01-29T09:08:06.000Z</time>
      </trkpt>
      <trkpt lat="44.48372" lon="0.69023">
        <ele>143.2</ele>
        <time>2017-01-29T09:08:07.000Z</time>
      </trkpt>
      <trkpt lat="44.48372" lon="0.69023">
        <ele>143.2</ele>
        <time>2017-01-29T09:08:08.000Z</time>
      </trkpt>
      <trkpt lat="44.48372" lon="0.69023">
        <ele>143.2</ele>
        <time>2017-01-29T09:08:09.000Z</time>
      </trkpt>
      <trkpt lat="44.48372" lon="0.69023">
        <ele>143.2</ele>
        <time>2017-01-29T09:08:10.000Z</time>
      </trkpt>
      <trkpt lat="44.48372" lon="0.69023">
        <ele>143.2</ele>
        <time>2017-01-29T09:08:11.000Z</time>
      </trkpt>
      <trkpt lat="44.48372" lon="0.69023">
        <ele>143.2</ele>
        <time>2017-01-29T09:08:12.000Z</time>
      </trkpt>
      <trkpt lat="44.48372" lon="0.69023">
        <ele>143.2</ele>
        <time>2017-01-29T09:08:13.000Z</time>
      </trkpt>
      <trkpt lat="44.48372" lon="0.69023">
        <ele>143.2</ele>
        <time>2017-01-29T09:08:14.000Z</time>
      </trkpt>
      <trkpt lat="44.48372" lon="0.69023">
        <ele>143.2</ele>
        <time>2017-01-29T09:08:15.000Z</time>
      </trkpt>
      <trkpt lat="44.48372" lon="0.69023">
        <ele>143.2</ele>
        <time>2017-01-29T09:08:16.000Z</time>
      </trkpt>
      <trkpt lat="44.48372" lon="0.69023">
        <ele>143.2</ele>
        <time>2017-01-29T09:08:17.000Z</time>
      </trkpt>
      <trkpt lat="44.48372" lon="0.69023">
        <ele>143.2</ele>
        <time>2017-01-29T09:08:18.000Z</time>
      </trkpt>
      <trkpt lat="44.48372" lon="0.69023">
        <ele>143.2</ele>
        <time>2017-01-29T09:08:19.000Z</time>
      </trkpt>
      <trkpt lat="44.48372" lon="0.69023">
        <ele>143.2</ele>
        <time>2017-01-29T09:08:20.000Z</time>
      </trkpt>
      <trkpt lat="44.48372" lon="0.69023">
        <ele>143.2</ele>
        <time>2017-01-29T09:08:21.000Z</time>
      </trkpt>
      <trkpt lat="44.48372" lon="0.69023">
        <ele>143.2</ele>
        <time>2017-01-29T09:08:22.000Z</time>
      </trkpt>
      <trkpt lat="44.48372" lon="0.69023">
        <ele>143.2</ele>
        <time>2017-01-29T09:08:23.000Z</time>
      </trkpt>
      <trkpt lat="44.48372" lon="0.69023">
        <ele>143.2</ele>
        <time>2017-01-29T09:08:24.000Z</time>
      </trkpt>
      <trkpt lat="44.48372" lon="0.69023">
        <ele>143.2</ele>
        <time>2017-01-29T09:08:25.000Z</time>
      </trkpt>
      <trkpt lat="44.48372" lon="0.69022">
        <ele>143.2</ele>
        <time>2017-01-29T09:08:26.000Z</time>
      </trkpt>
      <trkpt lat="44.48373" lon="0.69022">
        <ele>143.3</ele>
        <time>2017-01-29T09:08:27.000Z</time>
      </trkpt>
      <trkpt lat="44.48373" lon="0.69022">
        <ele>143.4</ele>
        <time>2017-01-29T09:08:28.000Z</time>
      </trkpt>
      <trkpt lat="44.48374" lon="0.69022">
        <ele>143.4</ele>
        <time>2017-01-29T09:08:29.000Z</time>
      </trkpt>
      <trkpt lat="44.48374" lon="0.69023">
        <ele>143.4</ele>
        <time>2017-01-29T09:08:30.000Z</time>
      </trkpt>
      <trkpt lat="44.48374" lon="0.69024">
        <ele>143.4</ele>
        <time>2017-01-29T09:08:31.000Z</time>
      </trkpt>
      <trkpt lat="44.48374" lon="0.69024">
        <ele>143.3</ele>
        <time>2017-01-29T09:08:32.000Z</time>
      </trkpt>
      <trkpt lat="44.48374" lon="0.69025">
        <ele>143.3</ele>
        <time>2017-01-29T09:08:33.000Z</time>
      </trkpt>
      <trkpt lat="44.48374" lon="0.69025">
        <ele>143.3</ele>
        <time>2017-01-29T09:08:34.000Z</time>
      </trkpt>
      <trkpt lat="44.48375" lon="0.69027">
        <ele>143.2</ele>
        <time>2017-01-29T09:08:35.000Z</time>
      </trkpt>
      <trkpt lat="44.48375" lon="0.69028">
        <ele>143.1</ele>
        <time>2017-01-29T09:08:36.000Z</time>
      </trkpt>
      <trkpt lat="44.48375" lon="0.6903">
        <ele>143.1</ele>
        <time>2017-01-29T09:08:37.000Z</time>
      </trkpt>
      <trkpt lat="44.48376" lon="0.69032">
        <ele>143</ele>
        <time>2017-01-29T09:08:38.000Z</time>
      </trkpt>
      <trkpt lat="44.48378" lon="0.69035">
        <ele>143</ele>
        <time>2017-01-29T09:08:39.000Z</time>
      </trkpt>
      <trkpt lat="44.48379" lon="0.69037">
        <ele>143</ele>
        <time>2017-01-29T09:08:40.000Z</time>
      </trkpt>
      <trkpt lat="44.48381" lon="0.6904">
        <ele>143</ele>
        <time>2017-01-29T09:08:41.000Z</time>
      </trkpt>
      <trkpt lat="44.48383" lon="0.69043">
        <ele>143</ele>
        <time>2017-01-29T09:08:42.000Z</time>
      </trkpt>
      <trkpt lat="44.48385" lon="0.69045">
        <ele>143</ele>
        <time>2017-01-29T09:08:43.000Z</time>
      </trkpt>
      <trkpt lat="44.48386" lon="0.69048">
        <ele>143</ele>
        <time>2017-01-29T09:08:44.000Z</time>
      </trkpt>
      <trkpt lat="44.48388" lon="0.6905">
        <ele>143</ele>
        <time>2017-01-29T09:08:45.000Z</time>
      </trkpt>
      <trkpt lat="44.48389" lon="0.69052">
        <ele>143</ele>
        <time>2017-01-29T09:08:46.000Z</time>
      </trkpt>
      <trkpt lat="44.48391" lon="0.69055">
        <ele>143</ele>
        <time>2017-01-29T09:08:47.000Z</time>
      </trkpt>
      <trkpt lat="44.48392" lon="0.69057">
        <ele>143</ele>
        <time>2017-01-29T09:08:48.000Z</time>
      </trkpt>
      <trkpt lat="44.48393" lon="0.69059">
        <ele>143</ele>
        <time>2017-01-29T09:08:49.000Z</time>
      </trkpt>
      <trkpt lat="44.48395" lon="0.69061">
        <ele>143</ele>
        <time>2017-01-29T09:08:50.000Z</time>
      </trkpt>
      <trkpt lat="44.48396" lon="0.69064">
        <ele>143</ele>
        <time>2017-01-29T09:08:51.000Z</time>
      </trkpt>
      <trkpt lat="44.48398" lon="0.69067">
        <ele>143</ele>
        <time>2017-01-29T09:08:52.000Z</time>
      </trkpt>
      <trkpt lat="44.484" lon="0.6907">
        <ele>143</ele>
        <time>2017-01-29T09:08:53.000Z</time>
      </trkpt>
      <trkpt lat="44.48402" lon="0.69073">
        <ele>143.1</ele>
        <time>2017-01-29T09:08:54.000Z</time>
      </trkpt>
      <trkpt lat="44.48405" lon="0.69077">
        <ele>143.1</ele>
        <time>2017-01-29T09:08:55.000Z</time>
      </trkpt>
      <trkpt lat="44.48408" lon="0.69081">
        <ele>143.2</ele>
        <time>2017-01-29T09:08:56.000Z</time>
      </trkpt>
      <trkpt lat="44.48412" lon="0.69085">
        <ele>143.3</ele>
        <time>2017-01-29T09:08:57.000Z</time>
      </trkpt>
      <trkpt lat="44.48415" lon="0.6909">
        <ele>143.4</ele>
        <time>2017-01-29T09:08:58.000Z</time>
      </trkpt>
      <trkpt lat="44.48418" lon="0.69095">
        <ele>143.3</ele>
        <time>2017-01-29T09:08:59.000Z</time>
      </trkpt>
      <trkpt lat="44.48422" lon="0.691">
        <ele>143</ele>
        <time>2017-01-29T09:09:00.000Z</time>
      </trkpt>
      <trkpt lat="44.48425" lon="0.69105">
        <ele>142.7</ele>
        <time>2017-01-29T09:09:01.000Z</time>
      </trkpt>
      <trkpt lat="44.48429" lon="0.69111">
        <ele>142.3</ele>
        <time>2017-01-29T09:09:02.000Z</time>
      </trkpt>
      <trkpt lat="44.48433" lon="0.69116">
        <ele>142</ele>
        <time>2017-01-29T09:09:03.000Z</time>
      </trkpt>
      <trkpt lat="44.48436" lon="0.69121">
        <ele>141.7</ele>
        <time>2017-01-29T09:09:04.000Z</time>
      </trkpt>
      <trkpt lat="44.48439" lon="0.69125">
        <ele>141.5</ele>
        <time>2017-01-29T09:09:05.000Z</time>
      </trkpt>
      <trkpt lat="44.48442" lon="0.69128">
        <ele>141.3</ele>
        <time>2017-01-29T09:09:06.000Z</time>
      </trkpt>
      <trkpt lat="44.48445" lon="0.69132">
        <ele>141.1</ele>
        <time>2017-01-29T09:09:07.000Z</time>
      </trkpt>
      <trkpt lat="44.48447" lon="0.69136">
        <ele>140.8</ele>
        <time>2017-01-29T09:09:08.000Z</time>
      </trkpt>
      <trkpt lat="44.4845" lon="0.69141">
        <ele>140.6</ele>
        <time>2017-01-29T09:09:09.000Z</time>
      </trkpt>
      <trkpt lat="44.48453" lon="0.69146">
        <ele>140.2</ele>
        <time>2017-01-29T09:09:10.000Z</time>
      </trkpt>
      <trkpt lat="44.48456" lon="0.69151">
        <ele>139.9</ele>
        <time>2017-01-29T09:09:11.000Z</time>
      </trkpt>
      <trkpt lat="44.48459" lon="0.69157">
        <ele>139.6</ele>
        <time>2017-01-29T09:09:12.000Z</time>
      </trkpt>
      <trkpt lat="44.48462" lon="0.69162">
        <ele>139.3</ele>
        <time>2017-01-29T09:09:13.000Z</time>
      </trkpt>
      <trkpt lat="44.48465" lon="0.69167">
        <ele>139</ele>
        <time>2017-01-29T09:09:14.000Z</time>
      </trkpt>
      <trkpt lat="44.48469" lon="0.69171">
        <ele>138.9</ele>
        <time>2017-01-29T09:09:15.000Z</time>
      </trkpt>
      <trkpt lat="44.48472" lon="0.69176">
        <ele>138.7</ele>
        <time>2017-01-29T09:09:16.000Z</time>
      </trkpt>
      <trkpt lat="44.48476" lon="0.69181">
        <ele>138.6</ele>
        <time>2017-01-29T09:09:17.000Z</time>
      </trkpt>
      <trkpt lat="44.4848" lon="0.69187">
        <ele>138.5</ele>
        <time>2017-01-29T09:09:18.000Z</time>
      </trkpt>
      <trkpt lat="44.48484" lon="0.69191">
        <ele>138.4</ele>
        <time>2017-01-29T09:09:19.000Z</time>
      </trkpt>
      <trkpt lat="44.48486" lon="0.69194">
        <ele>138.3</ele>
        <time>2017-01-29T09:09:20.000Z</time>
      </trkpt>
      <trkpt lat="44.48487" lon="0.69196">
        <ele>138.3</ele>
        <time>2017-01-29T09:09:21.000Z</time>
      </trkpt>
      <trkpt lat="44.48487" lon="0.69197">
        <ele>138.2</ele>
        <time>2017-01-29T09:09:22.000Z</time>
      </trkpt>
      <trkpt lat="44.48488" lon="0.69197">
        <ele>138.2</ele>
        <time>2017-01-29T09:09:23.000Z</time>
      </trkpt>
      <trkpt lat="44.48488" lon="0.69198">
        <ele>138.2</ele>
        <time>2017-01-29T09:09:24.000Z</time>
      </trkpt>
      <trkpt lat="44.48488" lon="0.69198">
        <ele>138.2</ele>
        <time>2017-01-29T09:09:25.000Z</time>
      </trkpt>
      <trkpt lat="44.48488" lon="0.69198">
        <ele>138.2</ele>
        <time>2017-01-29T09:09:26.000Z</time>
      </trkpt>
      <trkpt lat="44.48488" lon="0.69198">
        <ele>138.2</ele>
        <time>2017-01-29T09:09:27.000Z</time>
      </trkpt>
      <trkpt lat="44.48488" lon="0.69198">
        <ele>138.2</ele>
        <time>2017-01-29T09:09:28.000Z</time>
      </trkpt>
      <trkpt lat="44.48488" lon="0.69198">
        <ele>138.2</ele>
        <time>2017-01-29T09:09:29.000Z</time>
      </trkpt>
      <trkpt lat="44.48488" lon="0.69198">
        <ele>138.2</ele>
        <time>2017-01-29T09:09:30.000Z</time>
      </trkpt>
      <trkpt lat="44.48488" lon="0.69198">
        <ele>138.2</ele>
        <time>2017-01-29T09:09:31.000Z</time>
      </trkpt>
      <trkpt lat="44.48488" lon="0.69198">
        <ele>138.2</ele>
        <time>2017-01-29T09:09:32.000Z</time>
      </trkpt>
      <trkpt lat="44.48488" lon="0.69198">
        <ele>138.2</ele>
        <time>2017-01-29T09:09:33.000Z</time>
      </trkpt>
      <trkpt lat="44.48488" lon="0.69198">
        <ele>138.2</ele>
        <time>2017-01-29T09:09:34.000Z</time>
      </trkpt>
      <trkpt lat="44.48488" lon="0.69198">
        <ele>138.2</ele>
        <time>2017-01-29T09:09:35.000Z</time>
      </trkpt>
      <trkpt lat="44.48488" lon="0.69198">
        <ele>138.2</ele>
        <time>2017-01-29T09:09:36.000Z</time>
      </trkpt>
      <trkpt lat="44.48488" lon="0.69198">
        <ele>138.2</ele>
        <time>2017-01-29T09:09:37.000Z</time>
      </trkpt>
      <trkpt lat="44.48488" lon="0.69198">
        <ele>138.2</ele>
        <time>2017-01-29T09:09:38.000Z</time>
      </trkpt>
      <trkpt lat="44.48488" lon="0.69198">
        <ele>138.2</ele>
        <time>2017-01-29T09:09:39.000Z</time>
      </trkpt>
      <trkpt lat="44.48488" lon="0.69198">
        <ele>138.2</ele>
        <time>2017-01-29T09:09:40.000Z</time>
      </trkpt>
      <trkpt lat="44.48488" lon="0.69198">
        <ele>138.2</ele>
        <time>2017-01-29T09:09:41.000Z</time>
      </trkpt>
      <trkpt lat="44.48488" lon="0.69198">
        <ele>138.2</ele>
        <time>2017-01-29T09:09:42.000Z</time>
      </trkpt>
      <trkpt lat="44.48488" lon="0.69198">
        <ele>138.2</ele>
        <time>2017-01-29T09:09:43.000Z</time>
      </trkpt>
      <trkpt lat="44.48488" lon="0.69198">
        <ele>138.2</ele>
        <time>2017-01-29T09:09:44.000Z</time>
      </trkpt>
      <trkpt lat="44.48488" lon="0.69198">
        <ele>138.2</ele>
        <time>2017-01-29T09:09:45.000Z</time>
      </trkpt>
      <trkpt lat="44.48488" lon="0.69198">
        <ele>138.2</ele>
        <time>2017-01-29T09:09:46.000Z</time>
      </trkpt>
      <trkpt lat="44.48488" lon="0.69198">
        <ele>138.2</ele>
        <time>2017-01-29T09:09:47.000Z</time>
      </trkpt>
      <trkpt lat="44.48488" lon="0.69198">
        <ele>138.2</ele>
        <time>2017-01-29T09:09:48.000Z</time>
      </trkpt>
      <trkpt lat="44.48488" lon="0.69198">
        <ele>138.2</ele>
        <time>2017-01-29T09:09:49.000Z</time>
      </trkpt>
      <trkpt lat="44.48488" lon="0.69198">
        <ele>138.2</ele>
        <time>2017-01-29T09:09:50.000Z</time>
      </trkpt>
      <trkpt lat="44.48488" lon="0.69198">
        <ele>138.2</ele>
        <time>2017-01-29T09:09:51.000Z</time>
      </trkpt>
      <trkpt lat="44.48488" lon="0.69198">
        <ele>138.2</ele>
        <time>2017-01-29T09:09:52.000Z</time>
      </trkpt>
      <trkpt lat="44.48488" lon="0.69198">
        <ele>138.2</ele>
        <time>2017-01-29T09:09:53.000Z</time>
      </trkpt>
      <trkpt lat="44.48488" lon="0.69198">
        <ele>138.2</ele>
        <time>2017-01-29T09:09:54.000Z</time>
      </trkpt>
      <trkpt lat="44.48488" lon="0.69198">
        <ele>138.2</ele>
        <time>2017-01-29T09:09:55.000Z</time>
      </trkpt>
      <trkpt lat="44.48488" lon="0.69198">
        <ele>138.2</ele>
        <time>2017-01-29T09:09:56.000Z</time>
      </trkpt>
      <trkpt lat="44.48488" lon="0.69198">
        <ele>138.2</ele>
        <time>2017-01-29T09:09:57.000Z</time>
      </trkpt>
      <trkpt lat="44.48488" lon="0.69198">
        <ele>138.2</ele>
        <time>2017-01-29T09:09:58.000Z</time>
      </trkpt>
      <trkpt lat="44.48488" lon="0.69198">
        <ele>138.2</ele>
        <time>2017-01-29T09:09:59.000Z</time>
      </trkpt>
      <trkpt lat="44.48488" lon="0.69198">
        <ele>138.2</ele>
        <time>2017-01-29T09:10:00.000Z</time>
      </trkpt>
      <trkpt lat="44.48488" lon="0.69198">
        <ele>138.2</ele>
        <time>2017-01-29T09:10:01.000Z</time>
      </trkpt>
      <trkpt lat="44.48488" lon="0.69198">
        <ele>138.2</ele>
        <time>2017-01-29T09:10:02.000Z</time>
      </trkpt>
      <trkpt lat="44.48488" lon="0.69198">
        <ele>138.2</ele>
        <time>2017-01-29T09:10:03.000Z</time>
      </trkpt>
      <trkpt lat="44.48488" lon="0.69198">
        <ele>138.2</ele>
        <time>2017-01-29T09:10:04.000Z</time>
      </trkpt>
      <trkpt lat="44.48488" lon="0.69198">
        <ele>138.2</ele>
        <time>2017-01-29T09:10:05.000Z</time>
      </trkpt>
      <trkpt lat="44.48488" lon="0.69198">
        <ele>138.2</ele>
        <time>2017-01-29T09:10:06.000Z</time>
      </trkpt>
      <trkpt lat="44.48488" lon="0.69198">
        <ele>138.2</ele>
        <time>2017-01-29T09:10:07.000Z</time>
      </trkpt>
      <trkpt lat="44.48488" lon="0.69198">
        <ele>138.2</ele>
        <time>2017-01-29T09:10:08.000Z</time>
      </trkpt>
      <trkpt lat="44.48488" lon="0.69198">
        <ele>138.2</ele>
        <time>2017-01-29T09:10:09.000Z</time>
      </trkpt>
      <trkpt lat="44.48488" lon="0.69198">
        <ele>138.2</ele>
        <time>2017-01-29T09:10:10.000Z</time>
      </trkpt>
      <trkpt lat="44.48488" lon="0.69198">
        <ele>138.2</ele>
        <time>2017-01-29T09:10:11.000Z</time>
      </trkpt>
      <trkpt lat="44.48488" lon="0.69198">
        <ele>138.2</ele>
        <time>2017-01-29T09:10:12.000Z</time>
      </trkpt>
      <trkpt lat="44.48487" lon="0.69197">
        <ele>138.2</ele>
        <time>2017-01-29T09:10:13.000Z</time>
      </trkpt>
      <trkpt lat="44.48487" lon="0.69194">
        <ele>138.3</ele>
        <time>2017-01-29T09:10:14.000Z</time>
      </trkpt>
      <trkpt lat="44.48487" lon="0.69191">
        <ele>138.4</ele>
        <time>2017-01-29T09:10:15.000Z</time>
      </trkpt>
      <trkpt lat="44.48486" lon="0.69187">
        <ele>138.5</ele>
        <time>2017-01-29T09:10:16.000Z</time>
      </trkpt>
      <trkpt lat="44.48484" lon="0.69183">
        <ele>138.6</ele>
        <time>2017-01-29T09:10:17.000Z</time>
      </trkpt>
      <trkpt lat="44.48482" lon="0.6918">
        <ele>138.7</ele>
        <time>2017-01-29T09:10:18.000Z</time>
      </trkpt>
      <trkpt lat="44.4848" lon="0.69177">
        <ele>138.7</ele>
        <time>2017-01-29T09:10:19.000Z</time>
      </trkpt>
      <trkpt lat="44.48478" lon="0.69175">
        <ele>138.8</ele>
        <time>2017-01-29T09:10:20.000Z</time>
      </trkpt>
      <trkpt lat="44.48477" lon="0.69173">
        <ele>138.8</ele>
        <time>2017-01-29T09:10:21.000Z</time>
      </trkpt>
      <trkpt lat="44.48475" lon="0.69171">
        <ele>138.9</ele>
        <time>2017-01-29T09:10:22.000Z</time>
      </trkpt>
      <trkpt lat="44.48473" lon="0.69169">
        <ele>138.9</ele>
        <time>2017-01-29T09:10:23.000Z</time>
      </trkpt>
      <trkpt lat="44.48471" lon="0.69167">
        <ele>139</ele>
        <time>2017-01-29T09:10:24.000Z</time>
      </trkpt>
      <trkpt lat="44.4847" lon="0.69165">
        <ele>139.1</ele>
        <time>2017-01-29T09:10:25.000Z</time>
      </trkpt>
      <trkpt lat="44.48468" lon="0.69163">
        <ele>139.3</ele>
        <time>2017-01-29T09:10:26.000Z</time>
      </trkpt>
      <trkpt lat="44.48467" lon="0.6916">
        <ele>139.4</ele>
        <time>2017-01-29T09:10:27.000Z</time>
      </trkpt>
      <trkpt lat="44.48465" lon="0.69158">
        <ele>139.5</ele>
        <time>2017-01-29T09:10:28.000Z</time>
      </trkpt>
      <trkpt lat="44.48464" lon="0.69155">
        <ele>139.7</ele>
        <time>2017-01-29T09:10:29.000Z</time>
      </trkpt>
      <trkpt lat="44.48462" lon="0.69153">
        <ele>139.8</ele>
        <time>2017-01-29T09:10:30.000Z</time>
      </trkpt>
      <trkpt lat="44.48461" lon="0.69151">
        <ele>140</ele>
        <time>2017-01-29T09:10:31.000Z</time>
      </trkpt>
      <trkpt lat="44.4846" lon="0.69148">
        <ele>140.1</ele>
        <time>2017-01-29T09:10:32.000Z</time>
      </trkpt>
      <trkpt lat="44.48458" lon="0.69146">
        <ele>140.3</ele>
        <time>2017-01-29T09:10:33.000Z</time>
      </trkpt>
      <trkpt lat="44.48457" lon="0.69143">
        <ele>140.4</ele>
        <time>2017-01-29T09:10:34.000Z</time>
      </trkpt>
      <trkpt lat="44.48456" lon="0.69141">
        <ele>140.5</ele>
        <time>2017-01-29T09:10:35.000Z</time>
      </trkpt>
      <trkpt lat="44.48455" lon="0.69139">
        <ele>140.6</ele>
        <time>2017-01-29T09:10:36.000Z</time>
      </trkpt>
      <trkpt lat="44.48454" lon="0.69138">
        <ele>140.7</ele>
        <time>2017-01-29T09:10:37.000Z</time>
      </trkpt>
      <trkpt lat="44.48453" lon="0.69136">
        <ele>140.8</ele>
        <time>2017-01-29T09:10:38.000Z</time>
      </trkpt>
      <trkpt lat="44.48452" lon="0.69135">
        <ele>140.9</ele>
        <time>2017-01-29T09:10:39.000Z</time>
      </trkpt>
      <trkpt lat="44.48451" lon="0.69133">
        <ele>141</ele>
        <time>2017-01-29T09:10:40.000Z</time>
      </trkpt>
      <trkpt lat="44.48449" lon="0.69131">
        <ele>141.1</ele>
        <time>2017-01-29T09:10:41.000Z</time>
      </trkpt>
      <trkpt lat="44.48448" lon="0.69129">
        <ele>141.3</ele>
        <time>2017-01-29T09:10:42.000Z</time>
      </trkpt>
      <trkpt lat="44.48446" lon="0.69127">
        <ele>141.4</ele>
        <time>2017-01-29T09:10:43.000Z</time>
      </trkpt>
      <trkpt lat="44.48445" lon="0.69124">
        <ele>141.5</ele>
        <time>2017-01-29T09:10:44.000Z</time>
      </trkpt>
      <trkpt lat="44.48443" lon="0.69122">
        <ele>141.7</ele>
        <time>2017-01-29T09:10:45.000Z</time>
      </trkpt>
      <trkpt lat="44.48442" lon="0.6912">
        <ele>141.8</ele>
        <time>2017-01-29T09:10:46.000Z</time>
      </trkpt>
      <trkpt lat="44.4844" lon="0.69118">
        <ele>141.9</ele>
        <time>2017-01-29T09:10:47.000Z</time>
      </trkpt>
      <trkpt lat="44.48439" lon="0.69116">
        <ele>142</ele>
        <time>2017-01-29T09:10:48.000Z</time>
      </trkpt>
      <trkpt lat="44.48438" lon="0.69114">
        <ele>142.1</ele>
        <time>2017-01-29T09:10:49.000Z</time>
      </trkpt>
      <trkpt lat="44.48436" lon="0.69113">
        <ele>142.2</ele>
        <time>2017-01-29T09:10:50.000Z</time>
      </trkpt>
      <trkpt lat="44.48435" lon="0.69111">
        <ele>142.3</ele>
        <time>2017-01-29T09:10:51.000Z</time>
      </trkpt>
      <trkpt lat="44.48433" lon="0.69109">
        <ele>142.4</ele>
        <time>2017-01-29T09:10:52.000Z</time>
      </trkpt>
      <trkpt lat="44.48432" lon="0.69108">
        <ele>142.6</ele>
        <time>2017-01-29T09:10:53.000Z</time>
      </trkpt>
      <trkpt lat="44.48431" lon="0.69106">
        <ele>142.7</ele>
        <time>2017-01-29T09:10:54.000Z</time>
      </trkpt>
      <trkpt lat="44.48429" lon="0.69104">
        <ele>142.8</ele>
        <time>2017-01-29T09:10:55.000Z</time>
      </trkpt>
      <trkpt lat="44.48428" lon="0.69102">
        <ele>142.9</ele>
        <time>2017-01-29T09:10:56.000Z</time>
      </trkpt>
      <trkpt lat="44.48427" lon="0.691">
        <ele>143</ele>
        <time>2017-01-29T09:10:57.000Z</time>
      </trkpt>
      <trkpt lat="44.48425" lon="0.69098">
        <ele>143.1</ele>
        <time>2017-01-29T09:10:58.000Z</time>
      </trkpt>
      <trkpt lat="44.48424" lon="0.69097">
        <ele>143.2</ele>
        <time>2017-01-29T09:10:59.000Z</time>
      </trkpt>
      <trkpt lat="44.48422" lon="0.69095">
        <ele>143.3</ele>
        <time>2017-01-29T09:11:00.000Z</time>
      </trkpt>
      <trkpt lat="44.48421" lon="0.69093">
        <ele>143.4</ele>
        <time>2017-01-29T09:11:01.000Z</time>
      </trkpt>
      <trkpt lat="44.48419" lon="0.69091">
        <ele>143.6</ele>
        <time>2017-01-29T09:11:02.000Z</time>
      </trkpt>
      <trkpt lat="44.48418" lon="0.69089">
        <ele>143.7</ele>
        <time>2017-01-29T09:11:03.000Z</time>
      </trkpt>
      <trkpt lat="44.48416" lon="0.69087">
        <ele>143.8</ele>
        <time>2017-01-29T09:11:04.000Z</time>
      </trkpt>
      <trkpt lat="44.48415" lon="0.69085">
        <ele>143.7</ele>
        <time>2017-01-29T09:11:05.000Z</time>
      </trkpt>
      <trkpt lat="44.48413" lon="0.69083">
        <ele>143.7</ele>
        <time>2017-01-29T09:11:06.000Z</time>
      </trkpt>
      <trkpt lat="44.48412" lon="0.69081">
        <ele>143.6</ele>
        <time>2017-01-29T09:11:07.000Z</time>
      </trkpt>
      <trkpt lat="44.4841" lon="0.69079">
        <ele>143.6</ele>
        <time>2017-01-29T09:11:08.000Z</time>
      </trkpt>
      <trkpt lat="44.48409" lon="0.69077">
        <ele>143.5</ele>
        <time>2017-01-29T09:11:09.000Z</time>
      </trkpt>
      <trkpt lat="44.48407" lon="0.69075">
        <ele>143.4</ele>
        <time>2017-01-29T09:11:10.000Z</time>
      </trkpt>
      <trkpt lat="44.48406" lon="0.69074">
        <ele>143.4</ele>
        <time>2017-01-29T09:11:11.000Z</time>
      </trkpt>
      <trkpt lat="44.48404" lon="0.69072">
        <ele>143.3</ele>
        <time>2017-01-29T09:11:12.000Z</time>
      </trkpt>
      <trkpt lat="44.48403" lon="0.6907">
        <ele>143.3</ele>
        <time>2017-01-29T09:11:13.000Z</time>
      </trkpt>
      <trkpt lat="44.48401" lon="0.69068">
        <ele>143.3</ele>
        <time>2017-01-29T09:11:14.000Z</time>
      </trkpt>
      <trkpt lat="44.484" lon="0.69067">
        <ele>143.2</ele>
        <time>2017-01-29T09:11:15.000Z</time>
      </trkpt>
      <trkpt lat="44.48399" lon="0.69065">
        <ele>143.2</ele>
        <time>2017-01-29T09:11:16.000Z</time>
      </trkpt>
      <trkpt lat="44.48398" lon="0.69063">
        <ele>143.2</ele>
        <time>2017-01-29T09:11:17.000Z</time>
      </trkpt>
      <trkpt lat="44.48397" lon="0.69062">
        <ele>143.2</ele>
        <time>2017-01-29T09:11:18.000Z</time>
      </trkpt>
      <trkpt lat="44.48396" lon="0.6906">
        <ele>143.2</ele>
        <time>2017-01-29T09:11:19.000Z</time>
      </trkpt>
      <trkpt lat="44.48395" lon="0.69059">
        <ele>143.1</ele>
        <time>2017-01-29T09:11:20.000Z</time>
      </trkpt>
      <trkpt lat="44.48394" lon="0.69058">
        <ele>143.1</ele>
        <time>2017-01-29T09:11:21.000Z</time>
      </trkpt>
      <trkpt lat="44.48393" lon="0.69057">
        <ele>143.1</ele>
        <time>2017-01-29T09:11:22.000Z</time>
      </trkpt>
      <trkpt lat="44.48393" lon="0.69057">
        <ele>143.1</ele>
        <time>2017-01-29T09:11:23.000Z</time>
      </trkpt>
      <trkpt lat="44.48392" lon="0.69056">
        <ele>143.1</ele>
        <time>2017-01-29T09:11:24.000Z</time>
      </trkpt>
      <trkpt lat="44.48392" lon="0.69056">
        <ele>143.1</ele>
        <time>2017-01-29T09:11:25.000Z</time>
      </trkpt>
      <trkpt lat="44.48392" lon="0.69056">
        <ele>143.1</ele>
        <time>2017-01-29T09:11:26.000Z</time>
      </trkpt>
      <trkpt lat="44.48392" lon="0.69055">
        <ele>143.1</ele>
        <time>2017-01-29T09:11:27.000Z</time>
      </trkpt>
      <trkpt lat="44.48392" lon="0.69055">
        <ele>143.1</ele>
        <time>2017-01-29T09:11:28.000Z</time>
      </trkpt>
      <trkpt lat="44.48392" lon="0.69055">
        <ele>143.1</ele>
        <time>2017-01-29T09:11:29.000Z</time>
      </trkpt>
      <trkpt lat="44.48392" lon="0.69055">
        <ele>143.1</ele>
        <time>2017-01-29T09:11:30.000Z</time>
      </trkpt>
      <trkpt lat="44.48392" lon="0.69055">
        <ele>143.1</ele>
        <time>2017-01-29T09:11:31.000Z</time>
      </trkpt>
      <trkpt lat="44.48392" lon="0.69055">
        <ele>143.1</ele>
        <time>2017-01-29T09:11:32.000Z</time>
      </trkpt>
      <trkpt lat="44.48392" lon="0.69055">
        <ele>143.1</ele>
        <time>2017-01-29T09:11:33.000Z</time>
      </trkpt>
      <trkpt lat="44.48392" lon="0.69055">
        <ele>143.1</ele>
        <time>2017-01-29T09:11:34.000Z</time>
      </trkpt>
      <trkpt lat="44.48392" lon="0.69055">
        <ele>143.1</ele>
        <time>2017-01-29T09:11:35.000Z</time>
      </trkpt>
      <trkpt lat="44.48392" lon="0.69055">
        <ele>143.1</ele>
        <time>2017-01-29T09:11:36.000Z</time>
      </trkpt>
      <trkpt lat="44.48392" lon="0.69055">
        <ele>143.1</ele>
        <time>2017-01-29T09:11:37.000Z</time>
      </trkpt>
      <trkpt lat="44.48392" lon="0.69055">
        <ele>143.1</ele>
        <time>2017-01-29T09:11:38.000Z</time>
      </trkpt>
      <trkpt lat="44.48392" lon="0.69055">
        <ele>143.1</ele>
        <time>2017-01-29T09:11:39.000Z</time>
      </trkpt>
      <trkpt lat="44.48392" lon="0.69055">
        <ele>143.1</ele>
        <time>2017-01-29T09:11:40.000Z</time>
      </trkpt>
      <trkpt lat="44.48392" lon="0.69055">
        <ele>143.1</ele>
        <time>2017-01-29T09:11:41.000Z</time>
      </trkpt>
      <trkpt lat="44.48392" lon="0.69055">
        <ele>143.1</ele>
        <time>2017-01-29T09:11:42.000Z</time>
      </trkpt>
      <trkpt lat="44.48392" lon="0.69055">
        <ele>143.1</ele>
        <time>2017-01-29T09:11:43.000Z</time>
      </trkpt>
      <trkpt lat="44.48392" lon="0.69055">
        <ele>143.1</ele>
        <time>2017-01-29T09:11:44.000Z</time>
      </trkpt>
      <trkpt lat="44.48392" lon="0.69055">
        <ele>143.1</ele>
        <time>2017-01-29T09:11:45.000Z</time>
      </trkpt>
      <trkpt lat="44.48392" lon="0.69055">
        <ele>143.1</ele>
        <time>2017-01-29T09:11:46.000Z</time>
      </trkpt>
      <trkpt lat="44.48392" lon="0.69055">
        <ele>143.1</ele>
        <time>2017-01-29T09:11:47.000Z</time>
      </trkpt>
      <trkpt lat="44.48392" lon="0.69055">
        <ele>143.1</ele>
        <time>2017-01-29T09:11:48.000Z</time>
      </trkpt>
      <trkpt lat="44.48392" lon="0.69055">
        <ele>143.1</ele>
        <time>2017-01-29T09:11:49.000Z</time>
      </trkpt>
      <trkpt lat="44.48392" lon="0.69055">
        <ele>143.1</ele>
        <time>2017-01-29T09:11:50.000Z</time>
      </trkpt>
      <trkpt lat="44.48392" lon="0.69055">
        <ele>143.1</ele>
        <time>2017-01-29T09:11:51.000Z</time>
      </trkpt>
      <trkpt lat="44.48392" lon="0.69055">
        <ele>143.1</ele>
        <time>2017-01-29T09:11:52.000Z</time>
      </trkpt>
      <trkpt lat="44.48392" lon="0.69055">
        <ele>143.1</ele>
        <time>2017-01-29T09:11:53.000Z</time>
      </trkpt>
      <trkpt lat="44.48392" lon="0.69055">
        <ele>143.1</ele>
        <time>2017-01-29T09:11:54.000Z</time>
      </trkpt>
      <trkpt lat="44.48392" lon="0.69055">
        <ele>143.1</ele>
        <time>2017-01-29T09:11:55.000Z</time>
      </trkpt>
      <trkpt lat="44.48392" lon="0.69055">
        <ele>143.1</ele>
        <time>2017-01-29T09:11:56.000Z</time>
      </trkpt>
      <trkpt lat="44.48392" lon="0.69055">
        <ele>143.1</ele>
        <time>2017-01-29T09:11:57.000Z</time>
      </trkpt>
      <trkpt lat="44.48392" lon="0.69055">
        <ele>143.1</ele>
        <time>2017-01-29T09:11:58.000Z</time>
      </trkpt>
      <trkpt lat="44.48392" lon="0.69055">
        <ele>143.1</ele>
        <time>2017-01-29T09:11:59.000Z</time>
      </trkpt>
      <trkpt lat="44.48392" lon="0.69055">
        <ele>143.1</ele>
        <time>2017-01-29T09:12:00.000Z</time>
      </trkpt>
      <trkpt lat="44.48392" lon="0.69055">
        <ele>143.1</ele>
        <time>2017-01-29T09:12:01.000Z</time>
      </trkpt>
      <trkpt lat="44.48392" lon="0.69055">
        <ele>143.1</ele>
        <time>2017-01-29T09:12:02.000Z</time>
      </trkpt>
      <trkpt lat="44.48392" lon="0.69055">
        <ele>143.1</ele>
        <time>2017-01-29T09:12:03.000Z</time>
      </trkpt>
      <trkpt lat="44.48392" lon="0.69055">
        <ele>143.1</ele>
        <time>2017-01-29T09:12:04.000Z</time>
      </trkpt>
      <trkpt lat="44.48392" lon="0.69055">
        <ele>143.1</ele>
        <time>2017-01-29T09:12:05.000Z</time>
      </trkpt>
      <trkpt lat="44.48392" lon="0.69055">
        <ele>143.1</ele>
        <time>2017-01-29T09:12:06.000Z</time>
      </trkpt>
      <trkpt lat="44.48392" lon="0.69055">
        <ele>143.1</ele>
        <time>2017-01-29T09:12:07.000Z</time>
      </trkpt>
      <trkpt lat="44.48392" lon="0.69055">
        <ele>143.1</ele>
        <time>2017-01-29T09:12:08.000Z</time>
      </trkpt>
      <trkpt lat="44.48392" lon="0.69055">
        <ele>143.1</ele>
        <time>2017-01-29T09:12:09.000Z</time>
      </trkpt>
      <trkpt lat="44.48392" lon="0.69055">
        <ele>143.1</ele>
        <time>2017-01-29T09:12:10.000Z</time>
      </trkpt>
      <trkpt lat="44.48392" lon="0.69055">
        <ele>143.1</ele>
        <time>2017-01-29T09:12:11.000Z</time>
      </trkpt>
      <trkpt lat="44.48392" lon="0.69055">
        <ele>143.1</ele>
        <time>2017-01-29T09:12:12.000Z</time>
      </trkpt>
      <trkpt lat="44.48392" lon="0.69055">
        <ele>143.1</ele>
        <time>2017-01-29T09:12:13.000Z</time>
      </trkpt>
      <trkpt lat="44.48392" lon="0.69055">
        <ele>143.1</ele>
        <time>2017-01-29T09:12:14.000Z</time>
      </trkpt>
      <trkpt lat="44.48392" lon="0.69055">
        <ele>143.1</ele>
        <time>2017-01-29T09:12:15.000Z</time>
      </trkpt>
      <trkpt lat="44.48392" lon="0.69055">
        <ele>143.1</ele>
        <time>2017-01-29T09:12:16.000Z</time>
      </trkpt>
      <trkpt lat="44.48392" lon="0.69055">
        <ele>143.1</ele>
        <time>2017-01-29T09:12:17.000Z</time>
      </trkpt>
      <trkpt lat="44.48392" lon="0.69055">
        <ele>143.1</ele>
        <time>2017-01-29T09:12:18.000Z</time>
      </trkpt>
      <trkpt lat="44.48392" lon="0.69055">
        <ele>143.1</ele>
        <time>2017-01-29T09:12:19.000Z</time>
      </trkpt>
      <trkpt lat="44.48392" lon="0.69055">
        <ele>143.1</ele>
        <time>2017-01-29T09:12:20.000Z</time>
      </trkpt>
      <trkpt lat="44.48392" lon="0.69055">
        <ele>143.1</ele>
        <time>2017-01-29T09:12:21.000Z</time>
      </trkpt>
      <trkpt lat="44.48392" lon="0.69055">
        <ele>143.1</ele>
        <time>2017-01-29T09:12:22.000Z</time>
      </trkpt>
      <trkpt lat="44.48392" lon="0.69055">
        <ele>143.1</ele>
        <time>2017-01-29T09:12:23.000Z</time>
      </trkpt>
      <trkpt lat="44.48392" lon="0.69055">
        <ele>143.1</ele>
        <time>2017-01-29T09:12:24.000Z</time>
      </trkpt>
      <trkpt lat="44.48392" lon="0.69055">
        <ele>143.1</ele>
        <time>2017-01-29T09:12:25.000Z</time>
      </trkpt>
      <trkpt lat="44.48392" lon="0.69055">
        <ele>143.1</ele>
        <time>2017-01-29T09:12:26.000Z</time>
      </trkpt>
      <trkpt lat="44.48392" lon="0.69055">
        <ele>143.1</ele>
        <time>2017-01-29T09:12:27.000Z</time>
      </trkpt>
      <trkpt lat="44.48392" lon="0.69055">
        <ele>143.1</ele>
        <time>2017-01-29T09:12:28.000Z</time>
      </trkpt>
      <trkpt lat="44.48392" lon="0.69055">
        <ele>143.1</ele>
        <time>2017-01-29T09:12:29.000Z</time>
      </trkpt>
      <trkpt lat="44.48392" lon="0.69055">
        <ele>143.1</ele>
        <time>2017-01-29T09:12:30.000Z</time>
      </trkpt>
      <trkpt lat="44.48392" lon="0.69055">
        <ele>143.1</ele>
        <time>2017-01-29T09:12:31.000Z</time>
      </trkpt>
      <trkpt lat="44.48392" lon="0.69055">
        <ele>143.1</ele>
        <time>2017-01-29T09:12:32.000Z</time>
      </trkpt>
      <trkpt lat="44.48392" lon="0.69055">
        <ele>143.1</ele>
        <time>2017-01-29T09:12:33.000Z</time>
      </trkpt>
      <trkpt lat="44.48392" lon="0.69055">
        <ele>143.1</ele>
        <time>2017-01-29T09:12:34.000Z</time>
      </trkpt>
      <trkpt lat="44.48392" lon="0.69055">
        <ele>143.1</ele>
        <time>2017-01-29T09:12:35.000Z</time>
      </trkpt>
      <trkpt lat="44.48392" lon="0.69055">
        <ele>143.1</ele>
        <time>2017-01-29T09:12:36.000Z</time>
      </trkpt>
      <trkpt lat="44.48392" lon="0.69055">
        <ele>143.1</ele>
        <time>2017-01-29T09:12:37.000Z</time>
      </trkpt>
      <trkpt lat="44.48392" lon="0.69055">
        <ele>143.1</ele>
        <time>2017-01-29T09:12:38.000Z</time>
      </trkpt>
      <trkpt lat="44.48392" lon="0.69055">
        <ele>143.1</ele>
        <time>2017-01-29T09:12:39.000Z</time>
      </trkpt>
      <trkpt lat="44.48392" lon="0.69055">
        <ele>143.1</ele>
        <time>2017-01-29T09:12:40.000Z</time>
      </trkpt>
      <trkpt lat="44.48392" lon="0.69055">
        <ele>143.1</ele>
        <time>2017-01-29T09:12:41.000Z</time>
      </trkpt>
      <trkpt lat="44.48392" lon="0.69055">
        <ele>143.1</ele>
        <time>2017-01-29T09:12:42.000Z</time>
      </trkpt>
      <trkpt lat="44.48392" lon="0.69055">
        <ele>143.1</ele>
        <time>2017-01-29T09:12:43.000Z</time>
      </trkpt>
      <trkpt lat="44.48392" lon="0.69055">
        <ele>143.1</ele>
        <time>2017-01-29T09:12:44.000Z</time>
      </trkpt>
      <trkpt lat="44.48392" lon="0.69055">
        <ele>143.1</ele>
        <time>2017-01-29T09:12:45.000Z</time>
      </trkpt>
      <trkpt lat="44.48392" lon="0.69055">
        <ele>143.1</ele>
        <time>2017-01-29T09:12:46.000Z</time>
      </trkpt>
      <trkpt lat="44.48392" lon="0.69055">
        <ele>143.1</ele>
        <time>2017-01-29T09:12:47.000Z</time>
      </trkpt>
      <trkpt lat="44.48392" lon="0.69055">
        <ele>143.1</ele>
        <time>2017-01-29T09:12:48.000Z</time>
      </trkpt>
      <trkpt lat="44.48392" lon="0.69055">
        <ele>143.1</ele>
        <time>2017-01-29T09:12:49.000Z</time>
      </trkpt>
      <trkpt lat="44.48392" lon="0.69055">
        <ele>143.1</ele>
        <time>2017-01-29T09:12:50.000Z</time>
      </trkpt>
      <trkpt lat="44.48392" lon="0.69055">
        <ele>143.1</ele>
        <time>2017-01-29T09:12:51.000Z</time>
      </trkpt>
      <trkpt lat="44.48392" lon="0.69055">
        <ele>143.1</ele>
        <time>2017-01-29T09:12:52.000Z</time>
      </trkpt>
      <trkpt lat="44.48392" lon="0.69055">
        <ele>143.1</ele>
        <time>2017-01-29T09:12:53.000Z</time>
      </trkpt>
      <trkpt lat="44.48392" lon="0.69055">
        <ele>143.1</ele>
        <time>2017-01-29T09:12:54.000Z</time>
      </trkpt>
      <trkpt lat="44.48392" lon="0.69055">
        <ele>143.1</ele>
        <time>2017-01-29T09:12:55.000Z</time>
      </trkpt>
      <trkpt lat="44.48392" lon="0.69055">
        <ele>143.1</ele>
        <time>2017-01-29T09:12:56.000Z</time>
      </trkpt>
      <trkpt lat="44.48392" lon="0.69055">
        <ele>143.1</ele>
        <time>2017-01-29T09:12:57.000Z</time>
      </trkpt>
      <trkpt lat="44.48392" lon="0.69055">
        <ele>143.1</ele>
        <time>2017-01-29T09:12:58.000Z</time>
      </trkpt>
      <trkpt lat="44.48392" lon="0.69055">
        <ele>143.1</ele>
        <time>2017-01-29T09:12:59.000Z</time>
      </trkpt>
      <trkpt lat="44.48392" lon="0.69055">
        <ele>143.1</ele>
        <time>2017-01-29T09:13:00.000Z</time>
      </trkpt>
      <trkpt lat="44.48392" lon="0.69055">
        <ele>143.1</ele>
        <time>2017-01-29T09:13:01.000Z</time>
      </trkpt>
      <trkpt lat="44.48392" lon="0.69055">
        <ele>143.1</ele>
        <time>2017-01-29T09:13:02.000Z</time>
      </trkpt>
      <trkpt lat="44.48392" lon="0.69055">
        <ele>143.1</ele>
        <time>2017-01-29T09:13:03.000Z</time>
      </trkpt>
      <trkpt lat="44.48392" lon="0.69055">
        <ele>143.1</ele>
        <time>2017-01-29T09:13:04.000Z</time>
      </trkpt>
      <trkpt lat="44.48392" lon="0.69055">
        <ele>143.1</ele>
        <time>2017-01-29T09:13:05.000Z</time>
      </trkpt>
      <trkpt lat="44.48392" lon="0.69055">
        <ele>143.1</ele>
        <time>2017-01-29T09:13:06.000Z</time>
      </trkpt>
      <trkpt lat="44.48392" lon="0.69055">
        <ele>143.1</ele>
        <time>2017-01-29T09:13:07.000Z</time>
      </trkpt>
      <trkpt lat="44.48392" lon="0.69055">
        <ele>143.1</ele>
        <time>2017-01-29T09:13:08.000Z</time>
      </trkpt>
      <trkpt lat="44.48392" lon="0.69055">
        <ele>143.1</ele>
        <time>2017-01-29T09:13:09.000Z</time>
      </trkpt>
      <trkpt lat="44.48392" lon="0.69055">
        <ele>143.1</ele>
        <time>2017-01-29T09:13:10.000Z</time>
      </trkpt>
      <trkpt lat="44.48392" lon="0.69055">
        <ele>143.1</ele>
        <time>2017-01-29T09:13:11.000Z</time>
      </trkpt>
      <trkpt lat="44.48392" lon="0.69055">
        <ele>143.1</ele>
        <time>2017-01-29T09:13:12.000Z</time>
      </trkpt>
      <trkpt lat="44.48392" lon="0.69055">
        <ele>143.1</ele>
        <time>2017-01-29T09:13:13.000Z</time>
      </trkpt>
      <trkpt lat="44.48392" lon="0.69055">
        <ele>143.1</ele>
        <time>2017-01-29T09:13:14.000Z</time>
      </trkpt>
      <trkpt lat="44.48392" lon="0.69055">
        <ele>143.1</ele>
        <time>2017-01-29T09:13:15.000Z</time>
      </trkpt>
      <trkpt lat="44.48392" lon="0.69055">
        <ele>143.1</ele>
        <time>2017-01-29T09:13:16.000Z</time>
      </trkpt>
      <trkpt lat="44.48392" lon="0.69055">
        <ele>143.1</ele>
        <time>2017-01-29T09:13:17.000Z</time>
      </trkpt>
      <trkpt lat="44.48392" lon="0.69055">
        <ele>143.1</ele>
        <time>2017-01-29T09:13:18.000Z</time>
      </trkpt>
      <trkpt lat="44.48392" lon="0.69055">
        <ele>143.1</ele>
        <time>2017-01-29T09:13:19.000Z</time>
      </trkpt>
      <trkpt lat="44.48392" lon="0.69055">
        <ele>143.1</ele>
        <time>2017-01-29T09:13:20.000Z</time>
      </trkpt>
      <trkpt lat="44.48392" lon="0.69055">
        <ele>143.1</ele>
        <time>2017-01-29T09:13:21.000Z</time>
      </trkpt>
      <trkpt lat="44.48392" lon="0.69055">
        <ele>143.1</ele>
        <time>2017-01-29T09:13:22.000Z</time>
      </trkpt>
      <trkpt lat="44.48392" lon="0.69055">
        <ele>143.1</ele>
        <time>2017-01-29T09:13:23.000Z</time>
      </trkpt>
      <trkpt lat="44.48392" lon="0.69055">
        <ele>143.1</ele>
        <time>2017-01-29T09:13:24.000Z</time>
      </trkpt>
      <trkpt lat="44.48392" lon="0.69055">
        <ele>143.1</ele>
        <time>2017-01-29T09:13:25.000Z</time>
      </trkpt>
      <trkpt lat="44.48392" lon="0.69055">
        <ele>143.1</ele>
        <time>2017-01-29T09:13:26.000Z</time>
      </trkpt>
      <trkpt lat="44.48392" lon="0.69055">
        <ele>143.1</ele>
        <time>2017-01-29T09:13:27.000Z</time>
      </trkpt>
      <trkpt lat="44.48392" lon="0.69055">
        <ele>143.1</ele>
        <time>2017-01-29T09:13:28.000Z</time>
      </trkpt>
      <trkpt lat="44.48392" lon="0.69055">
        <ele>143.1</ele>
        <time>2017-01-29T09:13:29.000Z</time>
      </trkpt>
      <trkpt lat="44.48392" lon="0.69055">
        <ele>143.1</ele>
        <time>2017-01-29T09:13:30.000Z</time>
      </trkpt>
      <trkpt lat="44.48392" lon="0.69055">
        <ele>143.1</ele>
        <time>2017-01-29T09:13:31.000Z</time>
      </trkpt>
      <trkpt lat="44.48392" lon="0.69055">
        <ele>143.1</ele>
        <time>2017-01-29T09:13:32.000Z</time>
      </trkpt>
      <trkpt lat="44.48392" lon="0.69055">
        <ele>143.1</ele>
        <time>2017-01-29T09:13:33.000Z</time>
      </trkpt>
      <trkpt lat="44.48392" lon="0.69055">
        <ele>143.1</ele>
        <time>2017-01-29T09:13:34.000Z</time>
      </trkpt>
      <trkpt lat="44.48392" lon="0.69055">
        <ele>143.1</ele>
        <time>2017-01-29T09:13:35.000Z</time>
      </trkpt>
      <trkpt lat="44.48392" lon="0.69055">
        <ele>143.1</ele>
        <time>2017-01-29T09:13:36.000Z</time>
      </trkpt>
      <trkpt lat="44.48392" lon="0.69055">
        <ele>143.1</ele>
        <time>2017-01-29T09:13:37.000Z</time>
      </trkpt>
      <trkpt lat="44.48392" lon="0.69055">
        <ele>143.1</ele>
        <time>2017-01-29T09:13:38.000Z</time>
      </trkpt>
      <trkpt lat="44.48392" lon="0.69055">
        <ele>143.1</ele>
        <time>2017-01-29T09:13:39.000Z</time>
      </trkpt>
      <trkpt lat="44.48392" lon="0.69055">
        <ele>143.1</ele>
        <time>2017-01-29T09:13:40.000Z</time>
      </trkpt>
      <trkpt lat="44.48392" lon="0.69055">
        <ele>143.1</ele>
        <time>2017-01-29T09:13:41.000Z</time>
      </trkpt>
      <trkpt lat="44.48392" lon="0.69055">
        <ele>143.1</ele>
        <time>2017-01-29T09:13:42.000Z</time>
      </trkpt>
      <trkpt lat="44.48392" lon="0.69055">
        <ele>143.1</ele>
        <time>2017-01-29T09:13:43.000Z</time>
      </trkpt>
      <trkpt lat="44.48392" lon="0.69055">
        <ele>143.1</ele>
        <time>2017-01-29T09:13:44.000Z</time>
      </trkpt>
      <trkpt lat="44.48392" lon="0.69055">
        <ele>143.1</ele>
        <time>2017-01-29T09:13:45.000Z</time>
      </trkpt>
      <trkpt lat="44.48392" lon="0.69055">
        <ele>143.1</ele>
        <time>2017-01-29T09:13:46.000Z</time>
      </trkpt>
      <trkpt lat="44.48392" lon="0.69055">
        <ele>143.1</ele>
        <time>2017-01-29T09:13:47.000Z</time>
      </trkpt>
      <trkpt lat="44.48392" lon="0.69055">
        <ele>143.1</ele>
        <time>2017-01-29T09:13:48.000Z</time>
      </trkpt>
      <trkpt lat="44.48392" lon="0.69055">
        <ele>143.1</ele>
        <time>2017-01-29T09:13:49.000Z</time>
      </trkpt>
      <trkpt lat="44.48392" lon="0.69055">
        <ele>143.1</ele>
        <time>2017-01-29T09:13:50.000Z</time>
      </trkpt>
      <trkpt lat="44.48392" lon="0.69055">
        <ele>143.1</ele>
        <time>2017-01-29T09:13:51.000Z</time>
      </trkpt>
      <trkpt lat="44.48392" lon="0.69055">
        <ele>143.1</ele>
        <time>2017-01-29T09:13:52.000Z</time>
      </trkpt>
      <trkpt lat="44.48392" lon="0.69055">
        <ele>143.1</ele>
        <time>2017-01-29T09:13:53.000Z</time>
      </trkpt>
      <trkpt lat="44.48392" lon="0.69055">
        <ele>143.1</ele>
        <time>2017-01-29T09:13:54.000Z</time>
      </trkpt>
      <trkpt lat="44.48392" lon="0.69055">
        <ele>143.1</ele>
        <time>2017-01-29T09:13:55.000Z</time>
      </trkpt>
      <trkpt lat="44.48392" lon="0.69055">
        <ele>143.1</ele>
        <time>2017-01-29T09:13:56.000Z</time>
      </trkpt>
      <trkpt lat="44.48392" lon="0.69055">
        <ele>143.1</ele>
        <time>2017-01-29T09:13:57.000Z</time>
      </trkpt>
      <trkpt lat="44.48392" lon="0.69055">
        <ele>143.1</ele>
        <time>2017-01-29T09:13:58.000Z</time>
      </trkpt>
      <trkpt lat="44.48392" lon="0.69055">
        <ele>143.1</ele>
        <time>2017-01-29T09:13:59.000Z</time>
      </trkpt>
      <trkpt lat="44.48392" lon="0.69055">
        <ele>143.1</ele>
        <time>2017-01-29T09:14:00.000Z</time>
      </trkpt>
      <trkpt lat="44.48392" lon="0.69055">
        <ele>143.1</ele>
        <time>2017-01-29T09:14:01.000Z</time>
      </trkpt>
      <trkpt lat="44.48392" lon="0.69055">
        <ele>143.1</ele>
        <time>2017-01-29T09:14:02.000Z</time>
      </trkpt>
      <trkpt lat="44.48392" lon="0.69055">
        <ele>143.1</ele>
        <time>2017-01-29T09:14:03.000Z</time>
      </trkpt>
      <trkpt lat="44.48392" lon="0.69055">
        <ele>143.1</ele>
        <time>2017-01-29T09:14:04.000Z</time>
      </trkpt>
      <trkpt lat="44.48392" lon="0.69055">
        <ele>143.1</ele>
        <time>2017-01-29T09:14:05.000Z</time>
      </trkpt>
      <trkpt lat="44.48392" lon="0.69055">
        <ele>143.1</ele>
        <time>2017-01-29T09:14:06.000Z</time>
      </trkpt>
      <trkpt lat="44.48392" lon="0.69055">
        <ele>143.1</ele>
        <time>2017-01-29T09:14:07.000Z</time>
      </trkpt>
      <trkpt lat="44.48392" lon="0.69055">
        <ele>143.1</ele>
        <time>2017-01-29T09:14:08.000Z</time>
      </trkpt>
      <trkpt lat="44.48392" lon="0.69055">
        <ele>143.1</ele>
        <time>2017-01-29T09:14:09.000Z</time>
      </trkpt>
      <trkpt lat="44.48392" lon="0.69055">
        <ele>143.1</ele>
        <time>2017-01-29T09:14:10.000Z</time>
      </trkpt>
      <trkpt lat="44.48392" lon="0.69055">
        <ele>143.1</ele>
        <time>2017-01-29T09:14:11.000Z</time>
      </trkpt>
      <trkpt lat="44.48392" lon="0.69055">
        <ele>143.1</ele>
        <time>2017-01-29T09:14:12.000Z</time>
      </trkpt>
      <trkpt lat="44.48392" lon="0.69055">
        <ele>143.1</ele>
        <time>2017-01-29T09:14:13.000Z</time>
      </trkpt>
      <trkpt lat="44.48392" lon="0.69055">
        <ele>143.1</ele>
        <time>2017-01-29T09:14:14.000Z</time>
      </trkpt>
      <trkpt lat="44.48391" lon="0.69055">
        <ele>143.1</ele>
        <time>2017-01-29T09:14:15.000Z</time>
      </trkpt>
      <trkpt lat="44.48391" lon="0.69055">
        <ele>143.1</ele>
        <time>2017-01-29T09:14:16.000Z</time>
      </trkpt>
      <trkpt lat="44.48391" lon="0.69054">
        <ele>143.1</ele>
        <time>2017-01-29T09:14:17.000Z</time>
      </trkpt>
      <trkpt lat="44.48391" lon="0.69054">
        <ele>143.1</ele>
        <time>2017-01-29T09:14:18.000Z</time>
      </trkpt>
      <trkpt lat="44.48391" lon="0.69053">
        <ele>143.2</ele>
        <time>2017-01-29T09:14:19.000Z</time>
      </trkpt>
      <trkpt lat="44.48392" lon="0.69053">
        <ele>143.3</ele>
        <time>2017-01-29T09:14:20.000Z</time>
      </trkpt>
      <trkpt lat="44.48392" lon="0.69053">
        <ele>143.3</ele>
        <time>2017-01-29T09:14:21.000Z</time>
      </trkpt>
      <trkpt lat="44.48392" lon="0.69053">
        <ele>143.3</ele>
        <time>2017-01-29T09:14:22.000Z</time>
      </trkpt>
      <trkpt lat="44.48393" lon="0.69052">
        <ele>143.4</ele>
        <time>2017-01-29T09:14:23.000Z</time>
      </trkpt>
      <trkpt lat="44.48393" lon="0.69052">
        <ele>143.4</ele>
        <time>2017-01-29T09:14:24.000Z</time>
      </trkpt>
      <trkpt lat="44.48393" lon="0.69052">
        <ele>143.4</ele>
        <time>2017-01-29T09:14:25.000Z</time>
      </trkpt>
      <trkpt lat="44.48392" lon="0.69051">
        <ele>143.4</ele>
        <time>2017-01-29T09:14:26.000Z</time>
      </trkpt>
      <trkpt lat="44.48392" lon="0.69051">
        <ele>143.4</ele>
        <time>2017-01-29T09:14:27.000Z</time>
      </trkpt>
      <trkpt lat="44.48392" lon="0.6905">
        <ele>143.5</ele>
        <time>2017-01-29T09:14:28.000Z</time>
      </trkpt>
      <trkpt lat="44.48392" lon="0.6905">
        <ele>143.5</ele>
        <time>2017-01-29T09:14:29.000Z</time>
      </trkpt>
      <trkpt lat="44.48392" lon="0.6905">
        <ele>143.5</ele>
        <time>2017-01-29T09:14:30.000Z</time>
      </trkpt>
      <trkpt lat="44.48392" lon="0.6905">
        <ele>143.5</ele>
        <time>2017-01-29T09:14:31.000Z</time>
      </trkpt>
      <trkpt lat="44.48392" lon="0.6905">
        <ele>143.5</ele>
        <time>2017-01-29T09:14:32.000Z</time>
      </trkpt>
      <trkpt lat="44.48392" lon="0.6905">
        <ele>143.5</ele>
        <time>2017-01-29T09:14:33.000Z</time>
      </trkpt>
      <trkpt lat="44.48392" lon="0.69049">
        <ele>143.5</ele>
        <time>2017-01-29T09:14:34.000Z</time>
      </trkpt>
      <trkpt lat="44.48392" lon="0.69049">
        <ele>143.5</ele>
        <time>2017-01-29T09:14:35.000Z</time>
      </trkpt>
      <trkpt lat="44.48392" lon="0.69049">
        <ele>143.5</ele>
        <time>2017-01-29T09:14:36.000Z</time>
      </trkpt>
      <trkpt lat="44.48392" lon="0.69049">
        <ele>143.5</ele>
        <time>2017-01-29T09:14:37.000Z</time>
      </trkpt>
      <trkpt lat="44.48392" lon="0.69049">
        <ele>143.5</ele>
        <time>2017-01-29T09:14:38.000Z</time>
      </trkpt>
      <trkpt lat="44.48392" lon="0.69049">
        <ele>143.5</ele>
        <time>2017-01-29T09:14:39.000Z</time>
      </trkpt>
      <trkpt lat="44.48392" lon="0.69049">
        <ele>143.5</ele>
        <time>2017-01-29T09:14:40.000Z</time>
      </trkpt>
      <trkpt lat="44.48392" lon="0.69049">
        <ele>143.5</ele>
        <time>2017-01-29T09:14:41.000Z</time>
      </trkpt>
      <trkpt lat="44.48392" lon="0.69049">
        <ele>143.5</ele>
        <time>2017-01-29T09:14:42.000Z</time>
      </trkpt>
      <trkpt lat="44.48392" lon="0.69049">
        <ele>143.5</ele>
        <time>2017-01-29T09:14:43.000Z</time>
      </trkpt>
      <trkpt lat="44.48392" lon="0.69049">
        <ele>143.5</ele>
        <time>2017-01-29T09:14:44.000Z</time>
      </trkpt>
      <trkpt lat="44.48392" lon="0.69049">
        <ele>143.5</ele>
        <time>2017-01-29T09:14:45.000Z</time>
      </trkpt>
      <trkpt lat="44.48392" lon="0.69049">
        <ele>143.5</ele>
        <time>2017-01-29T09:14:46.000Z</time>
      </trkpt>
      <trkpt lat="44.48392" lon="0.69049">
        <ele>143.5</ele>
        <time>2017-01-29T09:14:47.000Z</time>
      </trkpt>
      <trkpt lat="44.48392" lon="0.69049">
        <ele>143.5</ele>
        <time>2017-01-29T09:14:48.000Z</time>
      </trkpt>
      <trkpt lat="44.48392" lon="0.69049">
        <ele>143.5</ele>
        <time>2017-01-29T09:14:49.000Z</time>
      </trkpt>
      <trkpt lat="44.48392" lon="0.69049">
        <ele>143.5</ele>
        <time>2017-01-29T09:14:50.000Z</time>
      </trkpt>
      <trkpt lat="44.48392" lon="0.69049">
        <ele>143.5</ele>
        <time>2017-01-29T09:14:51.000Z</time>
      </trkpt>
      <trkpt lat="44.48392" lon="0.69049">
        <ele>143.5</ele>
        <time>2017-01-29T09:14:52.000Z</time>
      </trkpt>
      <trkpt lat="44.48392" lon="0.69049">
        <ele>143.5</ele>
        <time>2017-01-29T09:14:53.000Z</time>
      </trkpt>
      <trkpt lat="44.48392" lon="0.69049">
        <ele>143.5</ele>
        <time>2017-01-29T09:14:54.000Z</time>
      </trkpt>
      <trkpt lat="44.48392" lon="0.69049">
        <ele>143.5</ele>
        <time>2017-01-29T09:14:55.000Z</time>
      </trkpt>
      <trkpt lat="44.48392" lon="0.69049">
        <ele>143.5</ele>
        <time>2017-01-29T09:14:56.000Z</time>
      </trkpt>
      <trkpt lat="44.48392" lon="0.69049">
        <ele>143.5</ele>
        <time>2017-01-29T09:14:57.000Z</time>
      </trkpt>
      <trkpt lat="44.48392" lon="0.69049">
        <ele>143.5</ele>
        <time>2017-01-29T09:14:58.000Z</time>
      </trkpt>
      <trkpt lat="44.48392" lon="0.69049">
        <ele>143.5</ele>
        <time>2017-01-29T09:14:59.000Z</time>
      </trkpt>
      <trkpt lat="44.48392" lon="0.69049">
        <ele>143.5</ele>
        <time>2017-01-29T09:15:00.000Z</time>
      </trkpt>
      <trkpt lat="44.48392" lon="0.69049">
        <ele>143.5</ele>
        <time>2017-01-29T09:15:01.000Z</time>
      </trkpt>
      <trkpt lat="44.48392" lon="0.69049">
        <ele>143.5</ele>
        <time>2017-01-29T09:15:02.000Z</time>
      </trkpt>
      <trkpt lat="44.48392" lon="0.69049">
        <ele>143.5</ele>
        <time>2017-01-29T09:15:03.000Z</time>
      </trkpt>
      <trkpt lat="44.48392" lon="0.69049">
        <ele>143.5</ele>
        <time>2017-01-29T09:15:04.000Z</time>
      </trkpt>
      <trkpt lat="44.48392" lon="0.69049">
        <ele>143.5</ele>
        <time>2017-01-29T09:15:05.000Z</time>
      </trkpt>
      <trkpt lat="44.48392" lon="0.69049">
        <ele>143.5</ele>
        <time>2017-01-29T09:15:06.000Z</time>
      </trkpt>
      <trkpt lat="44.48392" lon="0.69049">
        <ele>143.5</ele>
        <time>2017-01-29T09:15:07.000Z</time>
      </trkpt>
      <trkpt lat="44.48392" lon="0.69049">
        <ele>143.5</ele>
        <time>2017-01-29T09:15:08.000Z</time>
      </trkpt>
      <trkpt lat="44.48392" lon="0.69049">
        <ele>143.5</ele>
        <time>2017-01-29T09:15:09.000Z</time>
      </trkpt>
      <trkpt lat="44.48392" lon="0.69049">
        <ele>143.5</ele>
        <time>2017-01-29T09:15:10.000Z</time>
      </trkpt>
      <trkpt lat="44.48392" lon="0.69049">
        <ele>143.5</ele>
        <time>2017-01-29T09:15:11.000Z</time>
      </trkpt>
      <trkpt lat="44.48392" lon="0.69049">
        <ele>143.5</ele>
        <time>2017-01-29T09:15:12.000Z</time>
      </trkpt>
      <trkpt lat="44.48392" lon="0.69049">
        <ele>143.5</ele>
        <time>2017-01-29T09:15:13.000Z</time>
      </trkpt>
      <trkpt lat="44.48392" lon="0.69049">
        <ele>143.5</ele>
        <time>2017-01-29T09:15:14.000Z</time>
      </trkpt>
      <trkpt lat="44.48392" lon="0.69049">
        <ele>143.5</ele>
        <time>2017-01-29T09:15:15.000Z</time>
      </trkpt>
      <trkpt lat="44.48392" lon="0.69049">
        <ele>143.5</ele>
        <time>2017-01-29T09:15:16.000Z</time>
      </trkpt>
      <trkpt lat="44.48392" lon="0.69049">
        <ele>143.5</ele>
        <time>2017-01-29T09:15:17.000Z</time>
      </trkpt>
      <trkpt lat="44.48392" lon="0.69049">
        <ele>143.5</ele>
        <time>2017-01-29T09:15:18.000Z</time>
      </trkpt>
      <trkpt lat="44.48392" lon="0.69049">
        <ele>143.5</ele>
        <time>2017-01-29T09:15:19.000Z</time>
      </trkpt>
      <trkpt lat="44.48392" lon="0.69049">
        <ele>143.5</ele>
        <time>2017-01-29T09:15:20.000Z</time>
      </trkpt>
      <trkpt lat="44.48392" lon="0.69049">
        <ele>143.5</ele>
        <time>2017-01-29T09:15:21.000Z</time>
      </trkpt>
      <trkpt lat="44.48392" lon="0.69049">
        <ele>143.5</ele>
        <time>2017-01-29T09:15:22.000Z</time>
      </trkpt>
      <trkpt lat="44.48392" lon="0.69049">
        <ele>143.5</ele>
        <time>2017-01-29T09:15:23.000Z</time>
      </trkpt>
      <trkpt lat="44.48392" lon="0.69049">
        <ele>143.5</ele>
        <time>2017-01-29T09:15:24.000Z</time>
      </trkpt>
      <trkpt lat="44.48392" lon="0.69049">
        <ele>143.5</ele>
        <time>2017-01-29T09:15:25.000Z</time>
      </trkpt>
      <trkpt lat="44.48392" lon="0.69049">
        <ele>143.5</ele>
        <time>2017-01-29T09:15:26.000Z</time>
      </trkpt>
      <trkpt lat="44.48392" lon="0.69049">
        <ele>143.5</ele>
        <time>2017-01-29T09:15:27.000Z</time>
      </trkpt>
      <trkpt lat="44.48392" lon="0.69049">
        <ele>143.5</ele>
        <time>2017-01-29T09:15:28.000Z</time>
      </trkpt>
      <trkpt lat="44.48392" lon="0.69049">
        <ele>143.5</ele>
        <time>2017-01-29T09:15:29.000Z</time>
      </trkpt>
      <trkpt lat="44.48392" lon="0.69049">
        <ele>143.5</ele>
        <time>2017-01-29T09:15:30.000Z</time>
      </trkpt>
      <trkpt lat="44.48392" lon="0.69049">
        <ele>143.5</ele>
        <time>2017-01-29T09:15:31.000Z</time>
      </trkpt>
      <trkpt lat="44.48392" lon="0.69049">
        <ele>143.5</ele>
        <time>2017-01-29T09:15:32.000Z</time>
      </trkpt>
      <trkpt lat="44.48392" lon="0.69049">
        <ele>143.5</ele>
        <time>2017-01-29T09:15:33.000Z</time>
      </trkpt>
      <trkpt lat="44.48392" lon="0.69049">
        <ele>143.5</ele>
        <time>2017-01-29T09:15:34.000Z</time>
      </trkpt>
      <trkpt lat="44.48392" lon="0.69049">
        <ele>143.5</ele>
        <time>2017-01-29T09:15:35.000Z</time>
      </trkpt>
      <trkpt lat="44.48392" lon="0.69049">
        <ele>143.5</ele>
        <time>2017-01-29T09:15:36.000Z</time>
      </trkpt>
      <trkpt lat="44.48392" lon="0.69049">
        <ele>143.5</ele>
        <time>2017-01-29T09:15:37.000Z</time>
      </trkpt>
      <trkpt lat="44.48392" lon="0.69049">
        <ele>143.5</ele>
        <time>2017-01-29T09:15:38.000Z</time>
      </trkpt>
      <trkpt lat="44.48392" lon="0.69049">
        <ele>143.5</ele>
        <time>2017-01-29T09:15:39.000Z</time>
      </trkpt>
      <trkpt lat="44.48392" lon="0.69049">
        <ele>143.5</ele>
        <time>2017-01-29T09:15:40.000Z</time>
      </trkpt>
      <trkpt lat="44.48392" lon="0.69049">
        <ele>143.5</ele>
        <time>2017-01-29T09:15:41.000Z</time>
      </trkpt>
      <trkpt lat="44.48392" lon="0.69049">
        <ele>143.5</ele>
        <time>2017-01-29T09:15:42.000Z</time>
      </trkpt>
      <trkpt lat="44.48392" lon="0.69049">
        <ele>143.5</ele>
        <time>2017-01-29T09:15:43.000Z</time>
      </trkpt>
      <trkpt lat="44.48392" lon="0.69049">
        <ele>143.5</ele>
        <time>2017-01-29T09:15:44.000Z</time>
      </trkpt>
      <trkpt lat="44.48392" lon="0.69049">
        <ele>143.5</ele>
        <time>2017-01-29T09:15:45.000Z</time>
      </trkpt>
      <trkpt lat="44.48392" lon="0.69049">
        <ele>143.5</ele>
        <time>2017-01-29T09:15:46.000Z</time>
      </trkpt>
      <trkpt lat="44.48392" lon="0.69049">
        <ele>143.5</ele>
        <time>2017-01-29T09:15:47.000Z</time>
      </trkpt>
      <trkpt lat="44.48392" lon="0.69049">
        <ele>143.5</ele>
        <time>2017-01-29T09:15:48.000Z</time>
      </trkpt>
      <trkpt lat="44.48392" lon="0.69049">
        <ele>143.5</ele>
        <time>2017-01-29T09:15:49.000Z</time>
      </trkpt>
      <trkpt lat="44.48392" lon="0.69049">
        <ele>143.5</ele>
        <time>2017-01-29T09:15:50.000Z</time>
      </trkpt>
      <trkpt lat="44.48392" lon="0.69049">
        <ele>143.5</ele>
        <time>2017-01-29T09:15:51.000Z</time>
      </trkpt>
      <trkpt lat="44.48392" lon="0.69049">
        <ele>143.5</ele>
        <time>2017-01-29T09:15:52.000Z</time>
      </trkpt>
      <trkpt lat="44.48392" lon="0.69049">
        <ele>143.5</ele>
        <time>2017-01-29T09:15:53.000Z</time>
      </trkpt>
      <trkpt lat="44.48392" lon="0.69049">
        <ele>143.5</ele>
        <time>2017-01-29T09:15:54.000Z</time>
      </trkpt>
      <trkpt lat="44.48392" lon="0.69049">
        <ele>143.5</ele>
        <time>2017-01-29T09:15:55.000Z</time>
      </trkpt>
      <trkpt lat="44.48392" lon="0.69049">
        <ele>143.5</ele>
        <time>2017-01-29T09:15:56.000Z</time>
      </trkpt>
      <trkpt lat="44.48392" lon="0.69049">
        <ele>143.5</ele>
        <time>2017-01-29T09:15:57.000Z</time>
      </trkpt>
      <trkpt lat="44.48392" lon="0.69049">
        <ele>143.5</ele>
        <time>2017-01-29T09:15:58.000Z</time>
      </trkpt>
      <trkpt lat="44.48392" lon="0.69049">
        <ele>143.5</ele>
        <time>2017-01-29T09:15:59.000Z</time>
      </trkpt>
      <trkpt lat="44.48392" lon="0.69049">
        <ele>143.5</ele>
        <time>2017-01-29T09:16:00.000Z</time>
      </trkpt>
      <trkpt lat="44.48392" lon="0.69049">
        <ele>143.5</ele>
        <time>2017-01-29T09:16:01.000Z</time>
      </trkpt>
      <trkpt lat="44.48392" lon="0.69049">
        <ele>143.5</ele>
        <time>2017-01-29T09:16:02.000Z</time>
      </trkpt>
      <trkpt lat="44.48392" lon="0.69049">
        <ele>143.5</ele>
        <time>2017-01-29T09:16:03.000Z</time>
      </trkpt>
      <trkpt lat="44.48392" lon="0.69049">
        <ele>143.5</ele>
        <time>2017-01-29T09:16:04.000Z</time>
      </trkpt>
      <trkpt lat="44.48392" lon="0.69049">
        <ele>143.5</ele>
        <time>2017-01-29T09:16:05.000Z</time>
      </trkpt>
      <trkpt lat="44.48392" lon="0.69049">
        <ele>143.5</ele>
        <time>2017-01-29T09:16:06.000Z</time>
      </trkpt>
      <trkpt lat="44.48392" lon="0.69049">
        <ele>143.5</ele>
        <time>2017-01-29T09:16:07.000Z</time>
      </trkpt>
      <trkpt lat="44.48392" lon="0.69049">
        <ele>143.5</ele>
        <time>2017-01-29T09:16:08.000Z</time>
      </trkpt>
      <trkpt lat="44.48392" lon="0.69049">
        <ele>143.5</ele>
        <time>2017-01-29T09:16:09.000Z</time>
      </trkpt>
      <trkpt lat="44.48392" lon="0.69049">
        <ele>143.5</ele>
        <time>2017-01-29T09:16:10.000Z</time>
      </trkpt>
      <trkpt lat="44.48392" lon="0.69049">
        <ele>143.5</ele>
        <time>2017-01-29T09:16:11.000Z</time>
      </trkpt>
      <trkpt lat="44.48392" lon="0.69049">
        <ele>143.5</ele>
        <time>2017-01-29T09:16:12.000Z</time>
      </trkpt>
      <trkpt lat="44.48392" lon="0.69049">
        <ele>143.5</ele>
        <time>2017-01-29T09:16:13.000Z</time>
      </trkpt>
      <trkpt lat="44.48392" lon="0.69049">
        <ele>143.5</ele>
        <time>2017-01-29T09:16:14.000Z</time>
      </trkpt>
      <trkpt lat="44.48392" lon="0.69049">
        <ele>143.5</ele>
        <time>2017-01-29T09:16:15.000Z</time>
      </trkpt>
      <trkpt lat="44.48392" lon="0.69049">
        <ele>143.5</ele>
        <time>2017-01-29T09:16:16.000Z</time>
      </trkpt>
      <trkpt lat="44.48392" lon="0.69049">
        <ele>143.5</ele>
        <time>2017-01-29T09:16:17.000Z</time>
      </trkpt>
      <trkpt lat="44.48392" lon="0.69049">
        <ele>143.5</ele>
        <time>2017-01-29T09:16:18.000Z</time>
      </trkpt>
      <trkpt lat="44.48392" lon="0.69049">
        <ele>143.5</ele>
        <time>2017-01-29T09:16:19.000Z</time>
      </trkpt>
      <trkpt lat="44.48392" lon="0.69049">
        <ele>143.5</ele>
        <time>2017-01-29T09:16:20.000Z</time>
      </trkpt>
      <trkpt lat="44.48392" lon="0.69049">
        <ele>143.5</ele>
        <time>2017-01-29T09:16:21.000Z</time>
      </trkpt>
      <trkpt lat="44.48392" lon="0.69049">
        <ele>143.5</ele>
        <time>2017-01-29T09:16:22.000Z</time>
      </trkpt>
      <trkpt lat="44.48392" lon="0.69049">
        <ele>143.5</ele>
        <time>2017-01-29T09:16:23.000Z</time>
      </trkpt>
      <trkpt lat="44.48392" lon="0.69049">
        <ele>143.5</ele>
        <time>2017-01-29T09:16:24.000Z</time>
      </trkpt>
      <trkpt lat="44.48392" lon="0.69049">
        <ele>143.5</ele>
        <time>2017-01-29T09:16:25.000Z</time>
      </trkpt>
      <trkpt lat="44.48392" lon="0.69049">
        <ele>143.5</ele>
        <time>2017-01-29T09:16:26.000Z</time>
      </trkpt>
      <trkpt lat="44.48392" lon="0.69049">
        <ele>143.5</ele>
        <time>2017-01-29T09:16:27.000Z</time>
      </trkpt>
      <trkpt lat="44.48392" lon="0.69049">
        <ele>143.5</ele>
        <time>2017-01-29T09:16:28.000Z</time>
      </trkpt>
      <trkpt lat="44.48392" lon="0.69049">
        <ele>143.5</ele>
        <time>2017-01-29T09:16:29.000Z</time>
      </trkpt>
      <trkpt lat="44.48392" lon="0.69049">
        <ele>143.5</ele>
        <time>2017-01-29T09:16:30.000Z</time>
      </trkpt>
      <trkpt lat="44.48392" lon="0.69049">
        <ele>143.5</ele>
        <time>2017-01-29T09:16:31.000Z</time>
      </trkpt>
      <trkpt lat="44.48392" lon="0.69049">
        <ele>143.5</ele>
        <time>2017-01-29T09:16:32.000Z</time>
      </trkpt>
      <trkpt lat="44.48392" lon="0.69049">
        <ele>143.5</ele>
        <time>2017-01-29T09:16:33.000Z</time>
      </trkpt>
      <trkpt lat="44.48392" lon="0.69049">
        <ele>143.5</ele>
        <time>2017-01-29T09:16:34.000Z</time>
      </trkpt>
      <trkpt lat="44.48392" lon="0.69049">
        <ele>143.5</ele>
        <time>2017-01-29T09:16:35.000Z</time>
      </trkpt>
      <trkpt lat="44.48392" lon="0.69049">
        <ele>143.5</ele>
        <time>2017-01-29T09:16:36.000Z</time>
      </trkpt>
      <trkpt lat="44.48392" lon="0.69049">
        <ele>143.5</ele>
        <time>2017-01-29T09:16:37.000Z</time>
      </trkpt>
      <trkpt lat="44.48392" lon="0.69049">
        <ele>143.5</ele>
        <time>2017-01-29T09:16:38.000Z</time>
      </trkpt>
      <trkpt lat="44.48392" lon="0.69049">
        <ele>143.5</ele>
        <time>2017-01-29T09:16:39.000Z</time>
      </trkpt>
      <trkpt lat="44.48392" lon="0.69049">
        <ele>143.5</ele>
        <time>2017-01-29T09:16:40.000Z</time>
      </trkpt>
      <trkpt lat="44.48392" lon="0.69049">
        <ele>143.5</ele>
        <time>2017-01-29T09:16:41.000Z</time>
      </trkpt>
      <trkpt lat="44.48392" lon="0.69049">
        <ele>143.5</ele>
        <time>2017-01-29T09:16:42.000Z</time>
      </trkpt>
      <trkpt lat="44.48392" lon="0.69049">
        <ele>143.5</ele>
        <time>2017-01-29T09:16:43.000Z</time>
      </trkpt>
      <trkpt lat="44.48392" lon="0.69049">
        <ele>143.5</ele>
        <time>2017-01-29T09:16:44.000Z</time>
      </trkpt>
      <trkpt lat="44.48392" lon="0.69049">
        <ele>143.5</ele>
        <time>2017-01-29T09:16:45.000Z</time>
      </trkpt>
      <trkpt lat="44.48392" lon="0.69049">
        <ele>143.5</ele>
        <time>2017-01-29T09:16:46.000Z</time>
      </trkpt>
      <trkpt lat="44.48392" lon="0.69049">
        <ele>143.5</ele>
        <time>2017-01-29T09:16:47.000Z</time>
      </trkpt>
      <trkpt lat="44.48392" lon="0.69049">
        <ele>143.5</ele>
        <time>2017-01-29T09:16:48.000Z</time>
      </trkpt>
      <trkpt lat="44.48392" lon="0.69049">
        <ele>143.5</ele>
        <time>2017-01-29T09:16:49.000Z</time>
      </trkpt>
      <trkpt lat="44.48392" lon="0.69049">
        <ele>143.5</ele>
        <time>2017-01-29T09:16:50.000Z</time>
      </trkpt>
      <trkpt lat="44.48392" lon="0.69049">
        <ele>143.5</ele>
        <time>2017-01-29T09:16:51.000Z</time>
      </trkpt>
      <trkpt lat="44.48392" lon="0.69049">
        <ele>143.5</ele>
        <time>2017-01-29T09:16:52.000Z</time>
      </trkpt>
      <trkpt lat="44.48392" lon="0.69049">
        <ele>143.5</ele>
        <time>2017-01-29T09:16:53.000Z</time>
      </trkpt>
      <trkpt lat="44.48392" lon="0.69049">
        <ele>143.5</ele>
        <time>2017-01-29T09:16:54.000Z</time>
      </trkpt>
      <trkpt lat="44.48392" lon="0.69049">
        <ele>143.5</ele>
        <time>2017-01-29T09:16:55.000Z</time>
      </trkpt>
      <trkpt lat="44.48392" lon="0.6905">
        <ele>143.5</ele>
        <time>2017-01-29T09:16:56.000Z</time>
      </trkpt>
      <trkpt lat="44.48393" lon="0.69052">
        <ele>143.4</ele>
        <time>2017-01-29T09:16:57.000Z</time>
      </trkpt>
      <trkpt lat="44.48393" lon="0.69054">
        <ele>143.3</ele>
        <time>2017-01-29T09:16:58.000Z</time>
      </trkpt>
      <trkpt lat="44.48393" lon="0.69055">
        <ele>143.3</ele>
        <time>2017-01-29T09:16:59.000Z</time>
      </trkpt>
      <trkpt lat="44.48393" lon="0.69055">
        <ele>143.3</ele>
        <time>2017-01-29T09:17:00.000Z</time>
      </trkpt>
      <trkpt lat="44.48393" lon="0.69055">
        <ele>143.3</ele>
        <time>2017-01-29T09:17:01.000Z</time>
      </trkpt>
      <trkpt lat="44.48393" lon="0.69055">
        <ele>143.3</ele>
        <time>2017-01-29T09:17:02.000Z</time>
      </trkpt>
      <trkpt lat="44.48393" lon="0.69056">
        <ele>143.3</ele>
        <time>2017-01-29T09:17:03.000Z</time>
      </trkpt>
      <trkpt lat="44.48393" lon="0.69056">
        <ele>143.3</ele>
        <time>2017-01-29T09:17:04.000Z</time>
      </trkpt>
      <trkpt lat="44.48393" lon="0.69056">
        <ele>143.3</ele>
        <time>2017-01-29T09:17:05.000Z</time>
      </trkpt>
      <trkpt lat="44.48393" lon="0.69056">
        <ele>143.3</ele>
        <time>2017-01-29T09:17:06.000Z</time>
      </trkpt>
      <trkpt lat="44.48393" lon="0.69056">
        <ele>143.3</ele>
        <time>2017-01-29T09:17:07.000Z</time>
      </trkpt>
      <trkpt lat="44.48393" lon="0.69056">
        <ele>143.3</ele>
        <time>2017-01-29T09:17:08.000Z</time>
      </trkpt>
      <trkpt lat="44.48393" lon="0.69056">
        <ele>143.3</ele>
        <time>2017-01-29T09:17:09.000Z</time>
      </trkpt>
      <trkpt lat="44.48393" lon="0.69056">
        <ele>143.3</ele>
        <time>2017-01-29T09:17:10.000Z</time>
      </trkpt>
      <trkpt lat="44.48393" lon="0.69056">
        <ele>143.3</ele>
        <time>2017-01-29T09:17:11.000Z</time>
      </trkpt>
      <trkpt lat="44.48393" lon="0.69056">
        <ele>143.3</ele>
        <time>2017-01-29T09:17:12.000Z</time>
      </trkpt>
      <trkpt lat="44.48393" lon="0.69056">
        <ele>143.3</ele>
        <time>2017-01-29T09:17:13.000Z</time>
      </trkpt>
      <trkpt lat="44.48393" lon="0.69056">
        <ele>143.3</ele>
        <time>2017-01-29T09:17:14.000Z</time>
      </trkpt>
      <trkpt lat="44.48393" lon="0.69056">
        <ele>143.3</ele>
        <time>2017-01-29T09:17:15.000Z</time>
      </trkpt>
      <trkpt lat="44.48393" lon="0.69056">
        <ele>143.3</ele>
        <time>2017-01-29T09:17:16.000Z</time>
      </trkpt>
      <trkpt lat="44.48393" lon="0.69056">
        <ele>143.3</ele>
        <time>2017-01-29T09:17:17.000Z</time>
      </trkpt>
      <trkpt lat="44.48393" lon="0.69056">
        <ele>143.3</ele>
        <time>2017-01-29T09:17:18.000Z</time>
      </trkpt>
      <trkpt lat="44.48393" lon="0.69056">
        <ele>143.3</ele>
        <time>2017-01-29T09:17:19.000Z</time>
      </trkpt>
      <trkpt lat="44.48393" lon="0.69056">
        <ele>143.3</ele>
        <time>2017-01-29T09:17:20.000Z</time>
      </trkpt>
      <trkpt lat="44.48393" lon="0.69056">
        <ele>143.3</ele>
        <time>2017-01-29T09:17:21.000Z</time>
      </trkpt>
      <trkpt lat="44.48393" lon="0.69056">
        <ele>143.3</ele>
        <time>2017-01-29T09:17:22.000Z</time>
      </trkpt>
      <trkpt lat="44.48393" lon="0.69056">
        <ele>143.3</ele>
        <time>2017-01-29T09:17:23.000Z</time>
      </trkpt>
      <trkpt lat="44.48393" lon="0.69056">
        <ele>143.3</ele>
        <time>2017-01-29T09:17:24.000Z</time>
      </trkpt>
      <trkpt lat="44.48393" lon="0.69056">
        <ele>143.3</ele>
        <time>2017-01-29T09:17:25.000Z</time>
      </trkpt>
      <trkpt lat="44.48393" lon="0.69056">
        <ele>143.3</ele>
        <time>2017-01-29T09:17:26.000Z</time>
      </trkpt>
      <trkpt lat="44.48393" lon="0.69056">
        <ele>143.3</ele>
        <time>2017-01-29T09:17:27.000Z</time>
      </trkpt>
      <trkpt lat="44.48393" lon="0.69056">
        <ele>143.3</ele>
        <time>2017-01-29T09:17:28.000Z</time>
      </trkpt>
      <trkpt lat="44.48393" lon="0.69056">
        <ele>143.3</ele>
        <time>2017-01-29T09:17:29.000Z</time>
      </trkpt>
      <trkpt lat="44.48393" lon="0.69056">
        <ele>143.3</ele>
        <time>2017-01-29T09:17:30.000Z</time>
      </trkpt>
      <trkpt lat="44.48393" lon="0.69056">
        <ele>143.3</ele>
        <time>2017-01-29T09:17:31.000Z</time>
      </trkpt>
      <trkpt lat="44.48393" lon="0.69056">
        <ele>143.3</ele>
        <time>2017-01-29T09:17:32.000Z</time>
      </trkpt>
      <trkpt lat="44.48393" lon="0.69056">
        <ele>143.3</ele>
        <time>2017-01-29T09:17:33.000Z</time>
      </trkpt>
      <trkpt lat="44.48393" lon="0.69056">
        <ele>143.3</ele>
        <time>2017-01-29T09:17:34.000Z</time>
      </trkpt>
      <trkpt lat="44.48393" lon="0.69056">
        <ele>143.3</ele>
        <time>2017-01-29T09:17:35.000Z</time>
      </trkpt>
      <trkpt lat="44.48393" lon="0.69056">
        <ele>143.3</ele>
        <time>2017-01-29T09:17:36.000Z</time>
      </trkpt>
      <trkpt lat="44.48393" lon="0.69056">
        <ele>143.3</ele>
        <time>2017-01-29T09:17:37.000Z</time>
      </trkpt>
      <trkpt lat="44.48393" lon="0.69056">
        <ele>143.3</ele>
        <time>2017-01-29T09:17:38.000Z</time>
      </trkpt>
      <trkpt lat="44.48393" lon="0.69056">
        <ele>143.3</ele>
        <time>2017-01-29T09:17:39.000Z</time>
      </trkpt>
      <trkpt lat="44.48393" lon="0.69056">
        <ele>143.3</ele>
        <time>2017-01-29T09:17:40.000Z</time>
      </trkpt>
      <trkpt lat="44.48393" lon="0.69056">
        <ele>143.3</ele>
        <time>2017-01-29T09:17:41.000Z</time>
      </trkpt>
      <trkpt lat="44.48393" lon="0.69056">
        <ele>143.3</ele>
        <time>2017-01-29T09:17:42.000Z</time>
      </trkpt>
      <trkpt lat="44.48393" lon="0.69056">
        <ele>143.3</ele>
        <time>2017-01-29T09:17:43.000Z</time>
      </trkpt>
      <trkpt lat="44.48393" lon="0.69056">
        <ele>143.3</ele>
        <time>2017-01-29T09:17:44.000Z</time>
      </trkpt>
      <trkpt lat="44.48393" lon="0.69056">
        <ele>143.3</ele>
        <time>2017-01-29T09:17:45.000Z</time>
      </trkpt>
      <trkpt lat="44.48393" lon="0.69056">
        <ele>143.3</ele>
        <time>2017-01-29T09:17:46.000Z</time>
      </trkpt>
      <trkpt lat="44.48393" lon="0.69056">
        <ele>143.3</ele>
        <time>2017-01-29T09:17:47.000Z</time>
      </trkpt>
      <trkpt lat="44.48393" lon="0.69056">
        <ele>143.3</ele>
        <time>2017-01-29T09:17:48.000Z</time>
      </trkpt>
      <trkpt lat="44.48393" lon="0.69056">
        <ele>143.3</ele>
        <time>2017-01-29T09:17:49.000Z</time>
      </trkpt>
      <trkpt lat="44.48393" lon="0.69056">
        <ele>143.3</ele>
        <time>2017-01-29T09:17:50.000Z</time>
      </trkpt>
      <trkpt lat="44.48393" lon="0.69056">
        <ele>143.3</ele>
        <time>2017-01-29T09:17:51.000Z</time>
      </trkpt>
      <trkpt lat="44.48393" lon="0.69056">
        <ele>143.3</ele>
        <time>2017-01-29T09:17:52.000Z</time>
      </trkpt>
      <trkpt lat="44.48393" lon="0.69056">
        <ele>143.3</ele>
        <time>2017-01-29T09:17:53.000Z</time>
      </trkpt>
      <trkpt lat="44.48393" lon="0.69056">
        <ele>143.3</ele>
        <time>2017-01-29T09:17:54.000Z</time>
      </trkpt>
      <trkpt lat="44.48393" lon="0.69056">
        <ele>143.3</ele>
        <time>2017-01-29T09:17:55.000Z</time>
      </trkpt>
      <trkpt lat="44.48393" lon="0.69056">
        <ele>143.3</ele>
        <time>2017-01-29T09:17:56.000Z</time>
      </trkpt>
      <trkpt lat="44.48393" lon="0.69056">
        <ele>143.3</ele>
        <time>2017-01-29T09:17:57.000Z</time>
      </trkpt>
      <trkpt lat="44.48393" lon="0.69056">
        <ele>143.3</ele>
        <time>2017-01-29T09:17:58.000Z</time>
      </trkpt>
      <trkpt lat="44.48393" lon="0.69056">
        <ele>143.3</ele>
        <time>2017-01-29T09:17:59.000Z</time>
      </trkpt>
      <trkpt lat="44.48393" lon="0.69056">
        <ele>143.3</ele>
        <time>2017-01-29T09:18:00.000Z</time>
      </trkpt>
      <trkpt lat="44.48393" lon="0.69056">
        <ele>143.3</ele>
        <time>2017-01-29T09:18:01.000Z</time>
      </trkpt>
      <trkpt lat="44.48393" lon="0.69056">
        <ele>143.3</ele>
        <time>2017-01-29T09:18:02.000Z</time>
      </trkpt>
      <trkpt lat="44.48393" lon="0.69056">
        <ele>143.3</ele>
        <time>2017-01-29T09:18:03.000Z</time>
      </trkpt>
      <trkpt lat="44.48393" lon="0.69056">
        <ele>143.3</ele>
        <time>2017-01-29T09:18:04.000Z</time>
      </trkpt>
      <trkpt lat="44.48393" lon="0.69056">
        <ele>143.3</ele>
        <time>2017-01-29T09:18:05.000Z</time>
      </trkpt>
      <trkpt lat="44.48393" lon="0.69056">
        <ele>143.3</ele>
        <time>2017-01-29T09:18:06.000Z</time>
      </trkpt>
      <trkpt lat="44.48393" lon="0.69056">
        <ele>143.3</ele>
        <time>2017-01-29T09:18:07.000Z</time>
      </trkpt>
      <trkpt lat="44.48393" lon="0.69056">
        <ele>143.3</ele>
        <time>2017-01-29T09:18:08.000Z</time>
      </trkpt>
      <trkpt lat="44.48393" lon="0.69056">
        <ele>143.3</ele>
        <time>2017-01-29T09:18:09.000Z</time>
      </trkpt>
      <trkpt lat="44.48393" lon="0.69056">
        <ele>143.3</ele>
        <time>2017-01-29T09:18:10.000Z</time>
      </trkpt>
      <trkpt lat="44.48393" lon="0.69056">
        <ele>143.3</ele>
        <time>2017-01-29T09:18:11.000Z</time>
      </trkpt>
      <trkpt lat="44.48393" lon="0.69056">
        <ele>143.3</ele>
        <time>2017-01-29T09:18:12.000Z</time>
      </trkpt>
      <trkpt lat="44.48393" lon="0.69056">
        <ele>143.3</ele>
        <time>2017-01-29T09:18:13.000Z</time>
      </trkpt>
      <trkpt lat="44.48393" lon="0.69056">
        <ele>143.3</ele>
        <time>2017-01-29T09:18:14.000Z</time>
      </trkpt>
      <trkpt lat="44.48393" lon="0.69056">
        <ele>143.3</ele>
        <time>2017-01-29T09:18:15.000Z</time>
      </trkpt>
      <trkpt lat="44.48393" lon="0.69056">
        <ele>143.3</ele>
        <time>2017-01-29T09:18:16.000Z</time>
      </trkpt>
      <trkpt lat="44.48393" lon="0.69056">
        <ele>143.3</ele>
        <time>2017-01-29T09:18:17.000Z</time>
      </trkpt>
      <trkpt lat="44.48393" lon="0.69056">
        <ele>143.3</ele>
        <time>2017-01-29T09:18:18.000Z</time>
      </trkpt>
      <trkpt lat="44.48393" lon="0.69056">
        <ele>143.3</ele>
        <time>2017-01-29T09:18:19.000Z</time>
      </trkpt>
      <trkpt lat="44.48393" lon="0.69056">
        <ele>143.3</ele>
        <time>2017-01-29T09:18:20.000Z</time>
      </trkpt>
      <trkpt lat="44.48393" lon="0.69056">
        <ele>143.3</ele>
        <time>2017-01-29T09:18:21.000Z</time>
      </trkpt>
      <trkpt lat="44.48393" lon="0.69056">
        <ele>143.3</ele>
        <time>2017-01-29T09:18:22.000Z</time>
      </trkpt>
      <trkpt lat="44.48393" lon="0.69056">
        <ele>143.3</ele>
        <time>2017-01-29T09:18:23.000Z</time>
      </trkpt>
      <trkpt lat="44.48393" lon="0.69056">
        <ele>143.3</ele>
        <time>2017-01-29T09:18:24.000Z</time>
      </trkpt>
      <trkpt lat="44.48393" lon="0.69056">
        <ele>143.3</ele>
        <time>2017-01-29T09:18:25.000Z</time>
      </trkpt>
      <trkpt lat="44.48393" lon="0.69056">
        <ele>143.3</ele>
        <time>2017-01-29T09:18:26.000Z</time>
      </trkpt>
      <trkpt lat="44.48393" lon="0.69056">
        <ele>143.3</ele>
        <time>2017-01-29T09:18:27.000Z</time>
      </trkpt>
      <trkpt lat="44.48393" lon="0.69056">
        <ele>143.3</ele>
        <time>2017-01-29T09:18:28.000Z</time>
      </trkpt>
      <trkpt lat="44.48393" lon="0.69056">
        <ele>143.3</ele>
        <time>2017-01-29T09:18:29.000Z</time>
      </trkpt>
      <trkpt lat="44.48393" lon="0.69056">
        <ele>143.3</ele>
        <time>2017-01-29T09:18:30.000Z</time>
      </trkpt>
      <trkpt lat="44.48393" lon="0.69056">
        <ele>143.3</ele>
        <time>2017-01-29T09:18:31.000Z</time>
      </trkpt>
      <trkpt lat="44.48393" lon="0.69056">
        <ele>143.3</ele>
        <time>2017-01-29T09:18:32.000Z</time>
      </trkpt>
      <trkpt lat="44.48393" lon="0.69056">
        <ele>143.3</ele>
        <time>2017-01-29T09:18:33.000Z</time>
      </trkpt>
      <trkpt lat="44.48393" lon="0.69056">
        <ele>143.3</ele>
        <time>2017-01-29T09:18:34.000Z</time>
      </trkpt>
      <trkpt lat="44.48393" lon="0.69056">
        <ele>143.3</ele>
        <time>2017-01-29T09:18:35.000Z</time>
      </trkpt>
      <trkpt lat="44.48393" lon="0.69056">
        <ele>143.3</ele>
        <time>2017-01-29T09:18:36.000Z</time>
      </trkpt>
      <trkpt lat="44.48393" lon="0.69056">
        <ele>143.3</ele>
        <time>2017-01-29T09:18:37.000Z</time>
      </trkpt>
      <trkpt lat="44.48393" lon="0.69056">
        <ele>143.3</ele>
        <time>2017-01-29T09:18:38.000Z</time>
      </trkpt>
      <trkpt lat="44.48393" lon="0.69056">
        <ele>143.3</ele>
        <time>2017-01-29T09:18:39.000Z</time>
      </trkpt>
      <trkpt lat="44.48393" lon="0.69056">
        <ele>143.3</ele>
        <time>2017-01-29T09:18:40.000Z</time>
      </trkpt>
      <trkpt lat="44.48393" lon="0.69056">
        <ele>143.3</ele>
        <time>2017-01-29T09:18:41.000Z</time>
      </trkpt>
      <trkpt lat="44.48393" lon="0.69056">
        <ele>143.3</ele>
        <time>2017-01-29T09:18:42.000Z</time>
      </trkpt>
      <trkpt lat="44.48393" lon="0.69056">
        <ele>143.3</ele>
        <time>2017-01-29T09:18:43.000Z</time>
      </trkpt>
      <trkpt lat="44.48393" lon="0.69056">
        <ele>143.3</ele>
        <time>2017-01-29T09:18:44.000Z</time>
      </trkpt>
      <trkpt lat="44.48393" lon="0.69056">
        <ele>143.3</ele>
        <time>2017-01-29T09:18:45.000Z</time>
      </trkpt>
      <trkpt lat="44.48393" lon="0.69056">
        <ele>143.3</ele>
        <time>2017-01-29T09:18:46.000Z</time>
      </trkpt>
      <trkpt lat="44.48393" lon="0.69056">
        <ele>143.3</ele>
        <time>2017-01-29T09:18:47.000Z</time>
      </trkpt>
      <trkpt lat="44.48393" lon="0.69056">
        <ele>143.3</ele>
        <time>2017-01-29T09:18:48.000Z</time>
      </trkpt>
      <trkpt lat="44.48393" lon="0.69056">
        <ele>143.3</ele>
        <time>2017-01-29T09:18:49.000Z</time>
      </trkpt>
      <trkpt lat="44.48393" lon="0.69055">
        <ele>143.3</ele>
        <time>2017-01-29T09:18:50.000Z</time>
      </trkpt>
      <trkpt lat="44.48393" lon="0.69055">
        <ele>143.3</ele>
        <time>2017-01-29T09:18:51.000Z</time>
      </trkpt>
      <trkpt lat="44.48393" lon="0.69055">
        <ele>143.3</ele>
        <time>2017-01-29T09:18:52.000Z</time>
      </trkpt>
      <trkpt lat="44.48393" lon="0.69055">
        <ele>143.3</ele>
        <time>2017-01-29T09:18:53.000Z</time>
      </trkpt>
      <trkpt lat="44.48393" lon="0.69055">
        <ele>143.3</ele>
        <time>2017-01-29T09:18:54.000Z</time>
      </trkpt>
      <trkpt lat="44.48393" lon="0.69055">
        <ele>143.3</ele>
        <time>2017-01-29T09:18:55.000Z</time>
      </trkpt>
      <trkpt lat="44.48393" lon="0.69055">
        <ele>143.3</ele>
        <time>2017-01-29T09:18:56.000Z</time>
      </trkpt>
      <trkpt lat="44.48393" lon="0.69055">
        <ele>143.3</ele>
        <time>2017-01-29T09:18:57.000Z</time>
      </trkpt>
      <trkpt lat="44.48393" lon="0.69055">
        <ele>143.3</ele>
        <time>2017-01-29T09:18:58.000Z</time>
      </trkpt>
      <trkpt lat="44.48393" lon="0.69055">
        <ele>143.3</ele>
        <time>2017-01-29T09:18:59.000Z</time>
      </trkpt>
      <trkpt lat="44.48393" lon="0.69055">
        <ele>143.3</ele>
        <time>2017-01-29T09:19:00.000Z</time>
      </trkpt>
      <trkpt lat="44.48393" lon="0.69055">
        <ele>143.3</ele>
        <time>2017-01-29T09:19:01.000Z</time>
      </trkpt>
      <trkpt lat="44.48393" lon="0.69055">
        <ele>143.3</ele>
        <time>2017-01-29T09:19:02.000Z</time>
      </trkpt>
      <trkpt lat="44.48393" lon="0.69055">
        <ele>143.3</ele>
        <time>2017-01-29T09:19:03.000Z</time>
      </trkpt>
      <trkpt lat="44.48393" lon="0.69055">
        <ele>143.3</ele>
        <time>2017-01-29T09:19:04.000Z</time>
      </trkpt>
      <trkpt lat="44.48393" lon="0.69055">
        <ele>143.3</ele>
        <time>2017-01-29T09:19:05.000Z</time>
      </trkpt>
      <trkpt lat="44.48393" lon="0.69055">
        <ele>143.3</ele>
        <time>2017-01-29T09:19:06.000Z</time>
      </trkpt>
      <trkpt lat="44.48393" lon="0.69055">
        <ele>143.3</ele>
        <time>2017-01-29T09:19:07.000Z</time>
      </trkpt>
      <trkpt lat="44.48392" lon="0.69054">
        <ele>143.2</ele>
        <time>2017-01-29T09:19:08.000Z</time>
      </trkpt>
      <trkpt lat="44.48391" lon="0.69054">
        <ele>143.1</ele>
        <time>2017-01-29T09:19:09.000Z</time>
      </trkpt>
      <trkpt lat="44.4839" lon="0.69052">
        <ele>143.1</ele>
        <time>2017-01-29T09:19:10.000Z</time>
      </trkpt>
      <trkpt lat="44.48389" lon="0.69051">
        <ele>143</ele>
        <time>2017-01-29T09:19:11.000Z</time>
      </trkpt>
      <trkpt lat="44.48388" lon="0.69049">
        <ele>143.1</ele>
        <time>2017-01-29T09:19:12.000Z</time>
      </trkpt>
      <trkpt lat="44.48387" lon="0.69047">
        <ele>143.1</ele>
        <time>2017-01-29T09:19:13.000Z</time>
      </trkpt>
      <trkpt lat="44.48385" lon="0.69045">
        <ele>143.1</ele>
        <time>2017-01-29T09:19:14.000Z</time>
      </trkpt>
      <trkpt lat="44.48384" lon="0.69043">
        <ele>143.1</ele>
        <time>2017-01-29T09:19:15.000Z</time>
      </trkpt>
      <trkpt lat="44.48383" lon="0.69041">
        <ele>143.1</ele>
        <time>2017-01-29T09:19:16.000Z</time>
      </trkpt>
      <trkpt lat="44.48381" lon="0.69039">
        <ele>143.1</ele>
        <time>2017-01-29T09:19:17.000Z</time>
      </trkpt>
      <trkpt lat="44.4838" lon="0.69036">
        <ele>143.1</ele>
        <time>2017-01-29T09:19:18.000Z</time>
      </trkpt>
      <trkpt lat="44.48378" lon="0.69034">
        <ele>143.1</ele>
        <time>2017-01-29T09:19:19.000Z</time>
      </trkpt>
      <trkpt lat="44.48377" lon="0.69032">
        <ele>143.1</ele>
        <time>2017-01-29T09:19:20.000Z</time>
      </trkpt>
      <trkpt lat="44.48375" lon="0.69029">
        <ele>143.1</ele>
        <time>2017-01-29T09:19:21.000Z</time>
      </trkpt>
      <trkpt lat="44.48373" lon="0.69027">
        <ele>143.1</ele>
        <time>2017-01-29T09:19:22.000Z</time>
      </trkpt>
      <trkpt lat="44.48371" lon="0.69024">
        <ele>143</ele>
        <time>2017-01-29T09:19:23.000Z</time>
      </trkpt>
      <trkpt lat="44.4837" lon="0.69021">
        <ele>143.1</ele>
        <time>2017-01-29T09:19:24.000Z</time>
      </trkpt>
      <trkpt lat="44.48368" lon="0.69018">
        <ele>143.1</ele>
        <time>2017-01-29T09:19:25.000Z</time>
      </trkpt>
      <trkpt lat="44.48367" lon="0.69016">
        <ele>143.1</ele>
        <time>2017-01-29T09:19:26.000Z</time>
      </trkpt>
      <trkpt lat="44.48365" lon="0.69013">
        <ele>143.2</ele>
        <time>2017-01-29T09:19:27.000Z</time>
      </trkpt>
      <trkpt lat="44.48364" lon="0.6901">
        <ele>143.3</ele>
        <time>2017-01-29T09:19:28.000Z</time>
      </trkpt>
      <trkpt lat="44.48363" lon="0.69008">
        <ele>143.3</ele>
        <time>2017-01-29T09:19:29.000Z</time>
      </trkpt>
      <trkpt lat="44.48362" lon="0.69005">
        <ele>143.4</ele>
        <time>2017-01-29T09:19:30.000Z</time>
      </trkpt>
      <trkpt lat="44.48362" lon="0.69004">
        <ele>143.5</ele>
        <time>2017-01-29T09:19:31.000Z</time>
      </trkpt>
      <trkpt lat="44.48361" lon="0.69002">
        <ele>143.5</ele>
        <time>2017-01-29T09:19:32.000Z</time>
      </trkpt>
      <trkpt lat="44.48361" lon="0.69001">
        <ele>143.5</ele>
        <time>2017-01-29T09:19:33.000Z</time>
      </trkpt>
      <trkpt lat="44.4836" lon="0.69">
        <ele>143.5</ele>
        <time>2017-01-29T09:19:34.000Z</time>
      </trkpt>
      <trkpt lat="44.48359" lon="0.68999">
        <ele>143.5</ele>
        <time>2017-01-29T09:19:35.000Z</time>
      </trkpt>
      <trkpt lat="44.48357" lon="0.68998">
        <ele>143.4</ele>
        <time>2017-01-29T09:19:36.000Z</time>
      </trkpt>
      <trkpt lat="44.48357" lon="0.68997">
        <ele>143.5</ele>
        <time>2017-01-29T09:19:37.000Z</time>
      </trkpt>
      <trkpt lat="44.48357" lon="0.68995">
        <ele>143.7</ele>
        <time>2017-01-29T09:19:38.000Z</time>
      </trkpt>
      <trkpt lat="44.48358" lon="0.68995">
        <ele>143.8</ele>
        <time>2017-01-29T09:19:39.000Z</time>
      </trkpt>
      <trkpt lat="44.48358" lon="0.68997">
        <ele>143.7</ele>
        <time>2017-01-29T09:19:40.000Z</time>
      </trkpt>
      <trkpt lat="44.48359" lon="0.68999">
        <ele>143.5</ele>
        <time>2017-01-29T09:19:41.000Z</time>
      </trkpt>
      <trkpt lat="44.4836" lon="0.69002">
        <ele>143.4</ele>
        <time>2017-01-29T09:19:42.000Z</time>
      </trkpt>
      <trkpt lat="44.48362" lon="0.69006">
        <ele>143.4</ele>
        <time>2017-01-29T09:19:43.000Z</time>
      </trkpt>
      <trkpt lat="44.48364" lon="0.69009">
        <ele>143.3</ele>
        <time>2017-01-29T09:19:44.000Z</time>
      </trkpt>
      <trkpt lat="44.48365" lon="0.69012">
        <ele>143.3</ele>
        <time>2017-01-29T09:19:45.000Z</time>
      </trkpt>
      <trkpt lat="44.48367" lon="0.69015">
        <ele>143.2</ele>
        <time>2017-01-29T09:19:46.000Z</time>
      </trkpt>
      <trkpt lat="44.48369" lon="0.69018">
        <ele>143.2</ele>
        <time>2017-01-29T09:19:47.000Z</time>
      </trkpt>
      <trkpt lat="44.48371" lon="0.69021">
        <ele>143.1</ele>
        <time>2017-01-29T09:19:48.000Z</time>
      </trkpt>
      <trkpt lat="44.48372" lon="0.69025">
        <ele>143.1</ele>
        <time>2017-01-29T09:19:49.000Z</time>
      </trkpt>
      <trkpt lat="44.48374" lon="0.69028">
        <ele>143.1</ele>
        <time>2017-01-29T09:19:50.000Z</time>
      </trkpt>
      <trkpt lat="44.48375" lon="0.69031">
        <ele>143</ele>
        <time>2017-01-29T09:19:51.000Z</time>
      </trkpt>
      <trkpt lat="44.48377" lon="0.69034">
        <ele>143</ele>
        <time>2017-01-29T09:19:52.000Z</time>
      </trkpt>
      <trkpt lat="44.48379" lon="0.69037">
        <ele>143</ele>
        <time>2017-01-29T09:19:53.000Z</time>
      </trkpt>
      <trkpt lat="44.48381" lon="0.6904">
        <ele>143</ele>
        <time>2017-01-29T09:19:54.000Z</time>
      </trkpt>
      <trkpt lat="44.48383" lon="0.69042">
        <ele>143.1</ele>
        <time>2017-01-29T09:19:55.000Z</time>
      </trkpt>
      <trkpt lat="44.48385" lon="0.69045">
        <ele>143.1</ele>
        <time>2017-01-29T09:19:56.000Z</time>
      </trkpt>
      <trkpt lat="44.48387" lon="0.69047">
        <ele>143.1</ele>
        <time>2017-01-29T09:19:57.000Z</time>
      </trkpt>
      <trkpt lat="44.48388" lon="0.69048">
        <ele>143.2</ele>
        <time>2017-01-29T09:19:58.000Z</time>
      </trkpt>
      <trkpt lat="44.48389" lon="0.69049">
        <ele>143.2</ele>
        <time>2017-01-29T09:19:59.000Z</time>
      </trkpt>
      <trkpt lat="44.48389" lon="0.69049">
        <ele>143.2</ele>
        <time>2017-01-29T09:20:00.000Z</time>
      </trkpt>
      <trkpt lat="44.4839" lon="0.69049">
        <ele>143.3</ele>
        <time>2017-01-29T09:20:01.000Z</time>
      </trkpt>
      <trkpt lat="44.4839" lon="0.69049">
        <ele>143.3</ele>
        <time>2017-01-29T09:20:02.000Z</time>
      </trkpt>
      <trkpt lat="44.4839" lon="0.69049">
        <ele>143.3</ele>
        <time>2017-01-29T09:20:03.000Z</time>
      </trkpt>
      <trkpt lat="44.4839" lon="0.69049">
        <ele>143.3</ele>
        <time>2017-01-29T09:20:04.000Z</time>
      </trkpt>
      <trkpt lat="44.4839" lon="0.6905">
        <ele>143.3</ele>
        <time>2017-01-29T09:20:05.000Z</time>
      </trkpt>
      <trkpt lat="44.4839" lon="0.6905">
        <ele>143.3</ele>
        <time>2017-01-29T09:20:06.000Z</time>
      </trkpt>
      <trkpt lat="44.48391" lon="0.69051">
        <ele>143.2</ele>
        <time>2017-01-29T09:20:07.000Z</time>
      </trkpt>
      <trkpt lat="44.48391" lon="0.69052">
        <ele>143.2</ele>
        <time>2017-01-29T09:20:08.000Z</time>
      </trkpt>
      <trkpt lat="44.48391" lon="0.69053">
        <ele>143.2</ele>
        <time>2017-01-29T09:20:09.000Z</time>
      </trkpt>
      <trkpt lat="44.48392" lon="0.69054">
        <ele>143.2</ele>
        <time>2017-01-29T09:20:10.000Z</time>
      </trkpt>
      <trkpt lat="44.48392" lon="0.69055">
        <ele>143.1</ele>
        <time>2017-01-29T09:20:11.000Z</time>
      </trkpt>
      <trkpt lat="44.48392" lon="0.69055">
        <ele>143.1</ele>
        <time>2017-01-29T09:20:12.000Z</time>
      </trkpt>
      <trkpt lat="44.48392" lon="0.69056">
        <ele>143.1</ele>
        <time>2017-01-29T09:20:13.000Z</time>
      </trkpt>
      <trkpt lat="44.48392" lon="0.69056">
        <ele>143.1</ele>
        <time>2017-01-29T09:20:14.000Z</time>
      </trkpt>
      <trkpt lat="44.48392" lon="0.69056">
        <ele>143.1</ele>
        <time>2017-01-29T09:20:15.000Z</time>
      </trkpt>
      <trkpt lat="44.48392" lon="0.69056">
        <ele>143.1</ele>
        <time>2017-01-29T09:20:16.000Z</time>
      </trkpt>
      <trkpt lat="44.48393" lon="0.69056">
        <ele>143.1</ele>
        <time>2017-01-29T09:20:17.000Z</time>
      </trkpt>
      <trkpt lat="44.48393" lon="0.69056">
        <ele>143.1</ele>
        <time>2017-01-29T09:20:18.000Z</time>
      </trkpt>
      <trkpt lat="44.48392" lon="0.69056">
        <ele>143.1</ele>
        <time>2017-01-29T09:20:19.000Z</time>
      </trkpt>
      <trkpt lat="44.48392" lon="0.69056">
        <ele>143.1</ele>
        <time>2017-01-29T09:20:20.000Z</time>
      </trkpt>
      <trkpt lat="44.48392" lon="0.69056">
        <ele>143.1</ele>
        <time>2017-01-29T09:20:21.000Z</time>
      </trkpt>
      <trkpt lat="44.48392" lon="0.69056">
        <ele>143.1</ele>
        <time>2017-01-29T09:20:22.000Z</time>
      </trkpt>
      <trkpt lat="44.48392" lon="0.69056">
        <ele>143.1</ele>
        <time>2017-01-29T09:20:23.000Z</time>
      </trkpt>
      <trkpt lat="44.48392" lon="0.69056">
        <ele>143.1</ele>
        <time>2017-01-29T09:20:24.000Z</time>
      </trkpt>
      <trkpt lat="44.48392" lon="0.69056">
        <ele>143.1</ele>
        <time>2017-01-29T09:20:25.000Z</time>
      </trkpt>
      <trkpt lat="44.48392" lon="0.69056">
        <ele>143.1</ele>
        <time>2017-01-29T09:20:26.000Z</time>
      </trkpt>
      <trkpt lat="44.48392" lon="0.69056">
        <ele>143.1</ele>
        <time>2017-01-29T09:20:27.000Z</time>
      </trkpt>
      <trkpt lat="44.48392" lon="0.69056">
        <ele>143.1</ele>
        <time>2017-01-29T09:20:28.000Z</time>
      </trkpt>
      <trkpt lat="44.48392" lon="0.69056">
        <ele>143.1</ele>
        <time>2017-01-29T09:20:29.000Z</time>
      </trkpt>
      <trkpt lat="44.48392" lon="0.69056">
        <ele>143.1</ele>
        <time>2017-01-29T09:20:30.000Z</time>
      </trkpt>
      <trkpt lat="44.48392" lon="0.69056">
        <ele>143.1</ele>
        <time>2017-01-29T09:20:31.000Z</time>
      </trkpt>
      <trkpt lat="44.48392" lon="0.69056">
        <ele>143.1</ele>
        <time>2017-01-29T09:20:32.000Z</time>
      </trkpt>
      <trkpt lat="44.48392" lon="0.69056">
        <ele>143.1</ele>
        <time>2017-01-29T09:20:33.000Z</time>
      </trkpt>
      <trkpt lat="44.48392" lon="0.69056">
        <ele>143.1</ele>
        <time>2017-01-29T09:20:34.000Z</time>
      </trkpt>
      <trkpt lat="44.48392" lon="0.69056">
        <ele>143.1</ele>
        <time>2017-01-29T09:20:35.000Z</time>
      </trkpt>
      <trkpt lat="44.48392" lon="0.69056">
        <ele>143.1</ele>
        <time>2017-01-29T09:20:36.000Z</time>
      </trkpt>
      <trkpt lat="44.48392" lon="0.69056">
        <ele>143.1</ele>
        <time>2017-01-29T09:20:37.000Z</time>
      </trkpt>
      <trkpt lat="44.48392" lon="0.69056">
        <ele>143.1</ele>
        <time>2017-01-29T09:20:38.000Z</time>
      </trkpt>
      <trkpt lat="44.48392" lon="0.69056">
        <ele>143.1</ele>
        <time>2017-01-29T09:20:39.000Z</time>
      </trkpt>
      <trkpt lat="44.48392" lon="0.69056">
        <ele>143.1</ele>
        <time>2017-01-29T09:20:40.000Z</time>
      </trkpt>
      <trkpt lat="44.48392" lon="0.69056">
        <ele>143.1</ele>
        <time>2017-01-29T09:20:41.000Z</time>
      </trkpt>
      <trkpt lat="44.48392" lon="0.69056">
        <ele>143.1</ele>
        <time>2017-01-29T09:20:42.000Z</time>
      </trkpt>
      <trkpt lat="44.48392" lon="0.69056">
        <ele>143.1</ele>
        <time>2017-01-29T09:20:43.000Z</time>
      </trkpt>
      <trkpt lat="44.48392" lon="0.69056">
        <ele>143.1</ele>
        <time>2017-01-29T09:20:44.000Z</time>
      </trkpt>
      <trkpt lat="44.48392" lon="0.69056">
        <ele>143.1</ele>
        <time>2017-01-29T09:20:45.000Z</time>
      </trkpt>
      <trkpt lat="44.48392" lon="0.69056">
        <ele>143.1</ele>
        <time>2017-01-29T09:20:46.000Z</time>
      </trkpt>
      <trkpt lat="44.48392" lon="0.69056">
        <ele>143.1</ele>
        <time>2017-01-29T09:20:47.000Z</time>
      </trkpt>
      <trkpt lat="44.48392" lon="0.69056">
        <ele>143.1</ele>
        <time>2017-01-29T09:20:48.000Z</time>
      </trkpt>
      <trkpt lat="44.48392" lon="0.69056">
        <ele>143.1</ele>
        <time>2017-01-29T09:20:49.000Z</time>
      </trkpt>
      <trkpt lat="44.48392" lon="0.69056">
        <ele>143.1</ele>
        <time>2017-01-29T09:20:50.000Z</time>
      </trkpt>
      <trkpt lat="44.48391" lon="0.69056">
        <ele>143</ele>
        <time>2017-01-29T09:20:51.000Z</time>
      </trkpt>
      <trkpt lat="44.4839" lon="0.69055">
        <ele>142.9</ele>
        <time>2017-01-29T09:20:52.000Z</time>
      </trkpt>
      <trkpt lat="44.48389" lon="0.69053">
        <ele>143</ele>
        <time>2017-01-29T09:20:53.000Z</time>
      </trkpt>
      <trkpt lat="44.48389" lon="0.69051">
        <ele>143</ele>
        <time>2017-01-29T09:20:54.000Z</time>
      </trkpt>
      <trkpt lat="44.48388" lon="0.6905">
        <ele>143.1</ele>
        <time>2017-01-29T09:20:55.000Z</time>
      </trkpt>
      <trkpt lat="44.48388" lon="0.6905">
        <ele>143.1</ele>
        <time>2017-01-29T09:20:56.000Z</time>
      </trkpt>
      <trkpt lat="44.48388" lon="0.69049">
        <ele>143.1</ele>
        <time>2017-01-29T09:20:57.000Z</time>
      </trkpt>
      <trkpt lat="44.48389" lon="0.69049">
        <ele>143.1</ele>
        <time>2017-01-29T09:20:58.000Z</time>
      </trkpt>
      <trkpt lat="44.48389" lon="0.69049">
        <ele>143.2</ele>
        <time>2017-01-29T09:20:59.000Z</time>
      </trkpt>
      <trkpt lat="44.48389" lon="0.69049">
        <ele>143.2</ele>
        <time>2017-01-29T09:21:00.000Z</time>
      </trkpt>
      <trkpt lat="44.48389" lon="0.69049">
        <ele>143.2</ele>
        <time>2017-01-29T09:21:01.000Z</time>
      </trkpt>
      <trkpt lat="44.48389" lon="0.69049">
        <ele>143.2</ele>
        <time>2017-01-29T09:21:02.000Z</time>
      </trkpt>
      <trkpt lat="44.48389" lon="0.69049">
        <ele>143.2</ele>
        <time>2017-01-29T09:21:03.000Z</time>
      </trkpt>
      <trkpt lat="44.48389" lon="0.69049">
        <ele>143.2</ele>
        <time>2017-01-29T09:21:04.000Z</time>
      </trkpt>
      <trkpt lat="44.48388" lon="0.69049">
        <ele>143.2</ele>
        <time>2017-01-29T09:21:05.000Z</time>
      </trkpt>
      <trkpt lat="44.48388" lon="0.69049">
        <ele>143.2</ele>
        <time>2017-01-29T09:21:06.000Z</time>
      </trkpt>
      <trkpt lat="44.48388" lon="0.69049">
        <ele>143.2</ele>
        <time>2017-01-29T09:21:07.000Z</time>
      </trkpt>
      <trkpt lat="44.48388" lon="0.69049">
        <ele>143.2</ele>
        <time>2017-01-29T09:21:08.000Z</time>
      </trkpt>
      <trkpt lat="44.48388" lon="0.69049">
        <ele>143.2</ele>
        <time>2017-01-29T09:21:09.000Z</time>
      </trkpt>
      <trkpt lat="44.48388" lon="0.69048">
        <ele>143.2</ele>
        <time>2017-01-29T09:21:10.000Z</time>
      </trkpt>
      <trkpt lat="44.48389" lon="0.69048">
        <ele>143.2</ele>
        <time>2017-01-29T09:21:11.000Z</time>
      </trkpt>
      <trkpt lat="44.48389" lon="0.69048">
        <ele>143.2</ele>
        <time>2017-01-29T09:21:12.000Z</time>
      </trkpt>
      <trkpt lat="44.48388" lon="0.69048">
        <ele>143.2</ele>
        <time>2017-01-29T09:21:13.000Z</time>
      </trkpt>
      <trkpt lat="44.48387" lon="0.69047">
        <ele>143.1</ele>
        <time>2017-01-29T09:21:14.000Z</time>
      </trkpt>
      <trkpt lat="44.48385" lon="0.69046">
        <ele>143.1</ele>
        <time>2017-01-29T09:21:15.000Z</time>
      </trkpt>
      <trkpt lat="44.48384" lon="0.69044">
        <ele>143</ele>
        <time>2017-01-29T09:21:16.000Z</time>
      </trkpt>
      <trkpt lat="44.48384" lon="0.69043">
        <ele>143.1</ele>
        <time>2017-01-29T09:21:17.000Z</time>
      </trkpt>
      <trkpt lat="44.48382" lon="0.69041">
        <ele>143.1</ele>
        <time>2017-01-29T09:21:18.000Z</time>
      </trkpt>
      <trkpt lat="44.48381" lon="0.69039">
        <ele>143.1</ele>
        <time>2017-01-29T09:21:19.000Z</time>
      </trkpt>
      <trkpt lat="44.4838" lon="0.69037">
        <ele>143.1</ele>
        <time>2017-01-29T09:21:20.000Z</time>
      </trkpt>
      <trkpt lat="44.48378" lon="0.69034">
        <ele>143.1</ele>
        <time>2017-01-29T09:21:21.000Z</time>
      </trkpt>
      <trkpt lat="44.48377" lon="0.69032">
        <ele>143.1</ele>
        <time>2017-01-29T09:21:22.000Z</time>
      </trkpt>
      <trkpt lat="44.48376" lon="0.6903">
        <ele>143.1</ele>
        <time>2017-01-29T09:21:23.000Z</time>
      </trkpt>
      <trkpt lat="44.48375" lon="0.69028">
        <ele>143.1</ele>
        <time>2017-01-29T09:21:24.000Z</time>
      </trkpt>
      <trkpt lat="44.48373" lon="0.69026">
        <ele>143.1</ele>
        <time>2017-01-29T09:21:25.000Z</time>
      </trkpt>
      <trkpt lat="44.48372" lon="0.69023">
        <ele>143.2</ele>
        <time>2017-01-29T09:21:26.000Z</time>
      </trkpt>
      <trkpt lat="44.48371" lon="0.69021">
        <ele>143.2</ele>
        <time>2017-01-29T09:21:27.000Z</time>
      </trkpt>
      <trkpt lat="44.4837" lon="0.69019">
        <ele>143.2</ele>
        <time>2017-01-29T09:21:28.000Z</time>
      </trkpt>
      <trkpt lat="44.48368" lon="0.69017">
        <ele>143.2</ele>
        <time>2017-01-29T09:21:29.000Z</time>
      </trkpt>
      <trkpt lat="44.48367" lon="0.69014">
        <ele>143.3</ele>
        <time>2017-01-29T09:21:30.000Z</time>
      </trkpt>
      <trkpt lat="44.48366" lon="0.69012">
        <ele>143.3</ele>
        <time>2017-01-29T09:21:31.000Z</time>
      </trkpt>
      <trkpt lat="44.48364" lon="0.6901">
        <ele>143.3</ele>
        <time>2017-01-29T09:21:32.000Z</time>
      </trkpt>
      <trkpt lat="44.48363" lon="0.69007">
        <ele>143.4</ele>
        <time>2017-01-29T09:21:33.000Z</time>
      </trkpt>
      <trkpt lat="44.48361" lon="0.69004">
        <ele>143.4</ele>
        <time>2017-01-29T09:21:34.000Z</time>
      </trkpt>
      <trkpt lat="44.4836" lon="0.69002">
        <ele>143.4</ele>
        <time>2017-01-29T09:21:35.000Z</time>
      </trkpt>
      <trkpt lat="44.48358" lon="0.68999">
        <ele>143.5</ele>
        <time>2017-01-29T09:21:36.000Z</time>
      </trkpt>
      <trkpt lat="44.48357" lon="0.68996">
        <ele>143.6</ele>
        <time>2017-01-29T09:21:37.000Z</time>
      </trkpt>
      <trkpt lat="44.48355" lon="0.68993">
        <ele>143.7</ele>
        <time>2017-01-29T09:21:38.000Z</time>
      </trkpt>
      <trkpt lat="44.48353" lon="0.6899">
        <ele>143.8</ele>
        <time>2017-01-29T09:21:39.000Z</time>
      </trkpt>
      <trkpt lat="44.48351" lon="0.68987">
        <ele>143.9</ele>
        <time>2017-01-29T09:21:40.000Z</time>
      </trkpt>
      <trkpt lat="44.4835" lon="0.68984">
        <ele>144.1</ele>
        <time>2017-01-29T09:21:41.000Z</time>
      </trkpt>
      <trkpt lat="44.48348" lon="0.68981">
        <ele>144.2</ele>
        <time>2017-01-29T09:21:42.000Z</time>
      </trkpt>
      <trkpt lat="44.48346" lon="0.68978">
        <ele>144.4</ele>
        <time>2017-01-29T09:21:43.000Z</time>
      </trkpt>
      <trkpt lat="44.48344" lon="0.68975">
        <ele>144.6</ele>
        <time>2017-01-29T09:21:44.000Z</time>
      </trkpt>
      <trkpt lat="44.48343" lon="0.68971">
        <ele>144.8</ele>
        <time>2017-01-29T09:21:45.000Z</time>
      </trkpt>
      <trkpt lat="44.48341" lon="0.68968">
        <ele>145</ele>
        <time>2017-01-29T09:21:46.000Z</time>
      </trkpt>
      <trkpt lat="44.4834" lon="0.68965">
        <ele>145.3</ele>
        <time>2017-01-29T09:21:47.000Z</time>
      </trkpt>
      <trkpt lat="44.48338" lon="0.68961">
        <ele>145.5</ele>
        <time>2017-01-29T09:21:48.000Z</time>
      </trkpt>
      <trkpt lat="44.48336" lon="0.68958">
        <ele>145.8</ele>
        <time>2017-01-29T09:21:49.000Z</time>
      </trkpt>
      <trkpt lat="44.48335" lon="0.68955">
        <ele>146</ele>
        <time>2017-01-29T09:21:50.000Z</time>
      </trkpt>
      <trkpt lat="44.48333" lon="0.68951">
        <ele>146.3</ele>
        <time>2017-01-29T09:21:51.000Z</time>
      </trkpt>
      <trkpt lat="44.48332" lon="0.68948">
        <ele>146.5</ele>
        <time>2017-01-29T09:21:52.000Z</time>
      </trkpt>
      <trkpt lat="44.4833" lon="0.68945">
        <ele>146.8</ele>
        <time>2017-01-29T09:21:53.000Z</time>
      </trkpt>
      <trkpt lat="44.48329" lon="0.68942">
        <ele>147.1</ele>
        <time>2017-01-29T09:21:54.000Z</time>
      </trkpt>
      <trkpt lat="44.48328" lon="0.68938">
        <ele>147.3</ele>
        <time>2017-01-29T09:21:55.000Z</time>
      </trkpt>
      <trkpt lat="44.48326" lon="0.68935">
        <ele>147.6</ele>
        <time>2017-01-29T09:21:56.000Z</time>
      </trkpt>
      <trkpt lat="44.48325" lon="0.68932">
        <ele>147.9</ele>
        <time>2017-01-29T09:21:57.000Z</time>
      </trkpt>
      <trkpt lat="44.48324" lon="0.68929">
        <ele>148.2</ele>
        <time>2017-01-29T09:21:58.000Z</time>
      </trkpt>
      <trkpt lat="44.48323" lon="0.68926">
        <ele>148.4</ele>
        <time>2017-01-29T09:21:59.000Z</time>
      </trkpt>
      <trkpt lat="44.48323" lon="0.68923">
        <ele>148.7</ele>
        <time>2017-01-29T09:22:00.000Z</time>
      </trkpt>
      <trkpt lat="44.48322" lon="0.6892">
        <ele>149</ele>
        <time>2017-01-29T09:22:01.000Z</time>
      </trkpt>
      <trkpt lat="44.48321" lon="0.68917">
        <ele>149.3</ele>
        <time>2017-01-29T09:22:02.000Z</time>
      </trkpt>
      <trkpt lat="44.48321" lon="0.68914">
        <ele>149.3</ele>
        <time>2017-01-29T09:22:03.000Z</time>
      </trkpt>
      <trkpt lat="44.48321" lon="0.68911">
        <ele>149.4</ele>
        <time>2017-01-29T09:22:04.000Z</time>
      </trkpt>
      <trkpt lat="44.4832" lon="0.68908">
        <ele>149.4</ele>
        <time>2017-01-29T09:22:05.000Z</time>
      </trkpt>
      <trkpt lat="44.4832" lon="0.68905">
        <ele>149.5</ele>
        <time>2017-01-29T09:22:06.000Z</time>
      </trkpt>
      <trkpt lat="44.48319" lon="0.68902">
        <ele>149.5</ele>
        <time>2017-01-29T09:22:07.000Z</time>
      </trkpt>
      <trkpt lat="44.48318" lon="0.68898">
        <ele>149.5</ele>
        <time>2017-01-29T09:22:08.000Z</time>
      </trkpt>
      <trkpt lat="44.48317" lon="0.68895">
        <ele>149.6</ele>
        <time>2017-01-29T09:22:09.000Z</time>
      </trkpt>
      <trkpt lat="44.48316" lon="0.68891">
        <ele>149.6</ele>
        <time>2017-01-29T09:22:10.000Z</time>
      </trkpt>
      <trkpt lat="44.48315" lon="0.68888">
        <ele>149.6</ele>
        <time>2017-01-29T09:22:11.000Z</time>
      </trkpt>
      <trkpt lat="44.48314" lon="0.68884">
        <ele>149.6</ele>
        <time>2017-01-29T09:22:12.000Z</time>
      </trkpt>
      <trkpt lat="44.48313" lon="0.68881">
        <ele>149.7</ele>
        <time>2017-01-29T09:22:13.000Z</time>
      </trkpt>
      <trkpt lat="44.48312" lon="0.68877">
        <ele>149.7</ele>
        <time>2017-01-29T09:22:14.000Z</time>
      </trkpt>
      <trkpt lat="44.48311" lon="0.68874">
        <ele>149.7</ele>
        <time>2017-01-29T09:22:15.000Z</time>
      </trkpt>
      <trkpt lat="44.4831" lon="0.68871">
        <ele>149.7</ele>
        <time>2017-01-29T09:22:16.000Z</time>
      </trkpt>
      <trkpt lat="44.48309" lon="0.68867">
        <ele>149.7</ele>
        <time>2017-01-29T09:22:17.000Z</time>
      </trkpt>
      <trkpt lat="44.48308" lon="0.68864">
        <ele>149.7</ele>
        <time>2017-01-29T09:22:18.000Z</time>
      </trkpt>
      <trkpt lat="44.48306" lon="0.68861">
        <ele>149.7</ele>
        <time>2017-01-29T09:22:19.000Z</time>
      </trkpt>
      <trkpt lat="44.48305" lon="0.68858">
        <ele>149.7</ele>
        <time>2017-01-29T09:22:20.000Z</time>
      </trkpt>
      <trkpt lat="44.48304" lon="0.68854">
        <ele>149.7</ele>
        <time>2017-01-29T09:22:21.000Z</time>
      </trkpt>
      <trkpt lat="44.48302" lon="0.68851">
        <ele>149.7</ele>
        <time>2017-01-29T09:22:22.000Z</time>
      </trkpt>
      <trkpt lat="44.483" lon="0.68848">
        <ele>149.7</ele>
        <time>2017-01-29T09:22:23.000Z</time>
      </trkpt>
      <trkpt lat="44.48299" lon="0.68845">
        <ele>149.7</ele>
        <time>2017-01-29T09:22:24.000Z</time>
      </trkpt>
      <trkpt lat="44.48297" lon="0.68841">
        <ele>149.6</ele>
        <time>2017-01-29T09:22:25.000Z</time>
      </trkpt>
      <trkpt lat="44.48295" lon="0.68838">
        <ele>149.6</ele>
        <time>2017-01-29T09:22:26.000Z</time>
      </trkpt>
      <trkpt lat="44.48294" lon="0.68834">
        <ele>149.6</ele>
        <time>2017-01-29T09:22:27.000Z</time>
      </trkpt>
      <trkpt lat="44.48292" lon="0.68831">
        <ele>149.4</ele>
        <time>2017-01-29T09:22:28.000Z</time>
      </trkpt>
      <trkpt lat="44.4829" lon="0.68827">
        <ele>149.2</ele>
        <time>2017-01-29T09:22:29.000Z</time>
      </trkpt>
      <trkpt lat="44.48288" lon="0.68824">
        <ele>149.1</ele>
        <time>2017-01-29T09:22:30.000Z</time>
      </trkpt>
      <trkpt lat="44.48286" lon="0.6882">
        <ele>148.9</ele>
        <time>2017-01-29T09:22:31.000Z</time>
      </trkpt>
      <trkpt lat="44.48284" lon="0.68816">
        <ele>148.7</ele>
        <time>2017-01-29T09:22:32.000Z</time>
      </trkpt>
      <trkpt lat="44.48282" lon="0.68812">
        <ele>148.5</ele>
        <time>2017-01-29T09:22:33.000Z</time>
      </trkpt>
      <trkpt lat="44.4828" lon="0.68808">
        <ele>148.3</ele>
        <time>2017-01-29T09:22:34.000Z</time>
      </trkpt>
      <trkpt lat="44.48277" lon="0.68804">
        <ele>148.2</ele>
        <time>2017-01-29T09:22:35.000Z</time>
      </trkpt>
      <trkpt lat="44.48275" lon="0.688">
        <ele>148</ele>
        <time>2017-01-29T09:22:36.000Z</time>
      </trkpt>
      <trkpt lat="44.48272" lon="0.68795">
        <ele>147.8</ele>
        <time>2017-01-29T09:22:37.000Z</time>
      </trkpt>
      <trkpt lat="44.4827" lon="0.68792">
        <ele>147.7</ele>
        <time>2017-01-29T09:22:38.000Z</time>
      </trkpt>
      <trkpt lat="44.48267" lon="0.68788">
        <ele>147.6</ele>
        <time>2017-01-29T09:22:39.000Z</time>
      </trkpt>
      <trkpt lat="44.48265" lon="0.68785">
        <ele>147.5</ele>
        <time>2017-01-29T09:22:40.000Z</time>
      </trkpt>
      <trkpt lat="44.48264" lon="0.68782">
        <ele>147.4</ele>
        <time>2017-01-29T09:22:41.000Z</time>
      </trkpt>
      <trkpt lat="44.48262" lon="0.68778">
        <ele>147.3</ele>
        <time>2017-01-29T09:22:42.000Z</time>
      </trkpt>
      <trkpt lat="44.4826" lon="0.68775">
        <ele>147.3</ele>
        <time>2017-01-29T09:22:43.000Z</time>
      </trkpt>
      <trkpt lat="44.48258" lon="0.68772">
        <ele>147.2</ele>
        <time>2017-01-29T09:22:44.000Z</time>
      </trkpt>
      <trkpt lat="44.48256" lon="0.68768">
        <ele>147.1</ele>
        <time>2017-01-29T09:22:45.000Z</time>
      </trkpt>
      <trkpt lat="44.48253" lon="0.68765">
        <ele>147.1</ele>
        <time>2017-01-29T09:22:46.000Z</time>
      </trkpt>
      <trkpt lat="44.48251" lon="0.68762">
        <ele>147</ele>
        <time>2017-01-29T09:22:47.000Z</time>
      </trkpt>
      <trkpt lat="44.48249" lon="0.68758">
        <ele>147</ele>
        <time>2017-01-29T09:22:48.000Z</time>
      </trkpt>
      <trkpt lat="44.48247" lon="0.68755">
        <ele>147</ele>
        <time>2017-01-29T09:22:49.000Z</time>
      </trkpt>
      <trkpt lat="44.48245" lon="0.68751">
        <ele>146.9</ele>
        <time>2017-01-29T09:22:50.000Z</time>
      </trkpt>
      <trkpt lat="44.48243" lon="0.68748">
        <ele>146.9</ele>
        <time>2017-01-29T09:22:51.000Z</time>
      </trkpt>
      <trkpt lat="44.48241" lon="0.68744">
        <ele>146.8</ele>
        <time>2017-01-29T09:22:52.000Z</time>
      </trkpt>
      <trkpt lat="44.48239" lon="0.68741">
        <ele>146.8</ele>
        <time>2017-01-29T09:22:53.000Z</time>
      </trkpt>
      <trkpt lat="44.48236" lon="0.68738">
        <ele>146.7</ele>
        <time>2017-01-29T09:22:54.000Z</time>
      </trkpt>
      <trkpt lat="44.48234" lon="0.68734">
        <ele>146.7</ele>
        <time>2017-01-29T09:22:55.000Z</time>
      </trkpt>
      <trkpt lat="44.48232" lon="0.68731">
        <ele>146.7</ele>
        <time>2017-01-29T09:22:56.000Z</time>
      </trkpt>
      <trkpt lat="44.4823" lon="0.68728">
        <ele>146.6</ele>
        <time>2017-01-29T09:22:57.000Z</time>
      </trkpt>
      <trkpt lat="44.48228" lon="0.68724">
        <ele>146.6</ele>
        <time>2017-01-29T09:22:58.000Z</time>
      </trkpt>
      <trkpt lat="44.48226" lon="0.68721">
        <ele>146.6</ele>
        <time>2017-01-29T09:22:59.000Z</time>
      </trkpt>
      <trkpt lat="44.48224" lon="0.68718">
        <ele>146.5</ele>
        <time>2017-01-29T09:23:00.000Z</time>
      </trkpt>
      <trkpt lat="44.48222" lon="0.68714">
        <ele>146.5</ele>
        <time>2017-01-29T09:23:01.000Z</time>
      </trkpt>
      <trkpt lat="44.4822" lon="0.68711">
        <ele>146.5</ele>
        <time>2017-01-29T09:23:02.000Z</time>
      </trkpt>
      <trkpt lat="44.48217" lon="0.68708">
        <ele>146.5</ele>
        <time>2017-01-29T09:23:03.000Z</time>
      </trkpt>
      <trkpt lat="44.48215" lon="0.68705">
        <ele>146.5</ele>
        <time>2017-01-29T09:23:04.000Z</time>
      </trkpt>
      <trkpt lat="44.48213" lon="0.68701">
        <ele>146.5</ele>
        <time>2017-01-29T09:23:05.000Z</time>
      </trkpt>
      <trkpt lat="44.48211" lon="0.68698">
        <ele>146.5</ele>
        <time>2017-01-29T09:23:06.000Z</time>
      </trkpt>
      <trkpt lat="44.48209" lon="0.68695">
        <ele>146.5</ele>
        <time>2017-01-29T09:23:07.000Z</time>
      </trkpt>
      <trkpt lat="44.48206" lon="0.68692">
        <ele>146.5</ele>
        <time>2017-01-29T09:23:08.000Z</time>
      </trkpt>
      <trkpt lat="44.48204" lon="0.68689">
        <ele>146.5</ele>
        <time>2017-01-29T09:23:09.000Z</time>
      </trkpt>
      <trkpt lat="44.48202" lon="0.68685">
        <ele>146.5</ele>
        <time>2017-01-29T09:23:10.000Z</time>
      </trkpt>
      <trkpt lat="44.482" lon="0.68682">
        <ele>146.6</ele>
        <time>2017-01-29T09:23:11.000Z</time>
      </trkpt>
      <trkpt lat="44.48197" lon="0.68679">
        <ele>146.6</ele>
        <time>2017-01-29T09:23:12.000Z</time>
      </trkpt>
      <trkpt lat="44.48195" lon="0.68676">
        <ele>146.6</ele>
        <time>2017-01-29T09:23:13.000Z</time>
      </trkpt>
      <trkpt lat="44.48193" lon="0.68673">
        <ele>146.7</ele>
        <time>2017-01-29T09:23:14.000Z</time>
      </trkpt>
      <trkpt lat="44.4819" lon="0.68669">
        <ele>146.7</ele>
        <time>2017-01-29T09:23:15.000Z</time>
      </trkpt>
      <trkpt lat="44.48188" lon="0.68666">
        <ele>146.7</ele>
        <time>2017-01-29T09:23:16.000Z</time>
      </trkpt>
      <trkpt lat="44.48185" lon="0.68663">
        <ele>146.8</ele>
        <time>2017-01-29T09:23:17.000Z</time>
      </trkpt>
      <trkpt lat="44.48183" lon="0.6866">
        <ele>146.9</ele>
        <time>2017-01-29T09:23:18.000Z</time>
      </trkpt>
      <trkpt lat="44.4818" lon="0.68657">
        <ele>146.9</ele>
        <time>2017-01-29T09:23:19.000Z</time>
      </trkpt>
      <trkpt lat="44.48178" lon="0.68653">
        <ele>147</ele>
        <time>2017-01-29T09:23:20.000Z</time>
      </trkpt>
      <trkpt lat="44.48175" lon="0.6865">
        <ele>147.1</ele>
        <time>2017-01-29T09:23:21.000Z</time>
      </trkpt>
      <trkpt lat="44.48173" lon="0.68647">
        <ele>147.1</ele>
        <time>2017-01-29T09:23:22.000Z</time>
      </trkpt>
      <trkpt lat="44.4817" lon="0.68643">
        <ele>147.2</ele>
        <time>2017-01-29T09:23:23.000Z</time>
      </trkpt>
      <trkpt lat="44.48168" lon="0.6864">
        <ele>147.3</ele>
        <time>2017-01-29T09:23:24.000Z</time>
      </trkpt>
      <trkpt lat="44.48165" lon="0.68636">
        <ele>147.3</ele>
        <time>2017-01-29T09:23:25.000Z</time>
      </trkpt>
      <trkpt lat="44.48163" lon="0.68632">
        <ele>147.2</ele>
        <time>2017-01-29T09:23:26.000Z</time>
      </trkpt>
      <trkpt lat="44.48161" lon="0.68629">
        <ele>147.2</ele>
        <time>2017-01-29T09:23:27.000Z</time>
      </trkpt>
      <trkpt lat="44.48158" lon="0.68625">
        <ele>147.1</ele>
        <time>2017-01-29T09:23:28.000Z</time>
      </trkpt>
      <trkpt lat="44.48156" lon="0.68621">
        <ele>147</ele>
        <time>2017-01-29T09:23:29.000Z</time>
      </trkpt>
      <trkpt lat="44.48153" lon="0.68617">
        <ele>147</ele>
        <time>2017-01-29T09:23:30.000Z</time>
      </trkpt>
      <trkpt lat="44.48151" lon="0.68613">
        <ele>147</ele>
        <time>2017-01-29T09:23:31.000Z</time>
      </trkpt>
      <trkpt lat="44.48149" lon="0.68609">
        <ele>147</ele>
        <time>2017-01-29T09:23:32.000Z</time>
      </trkpt>
      <trkpt lat="44.48147" lon="0.68605">
        <ele>147</ele>
        <time>2017-01-29T09:23:33.000Z</time>
      </trkpt>
      <trkpt lat="44.48144" lon="0.68602">
        <ele>147</ele>
        <time>2017-01-29T09:23:34.000Z</time>
      </trkpt>
      <trkpt lat="44.48142" lon="0.68598">
        <ele>147</ele>
        <time>2017-01-29T09:23:35.000Z</time>
      </trkpt>
      <trkpt lat="44.4814" lon="0.68594">
        <ele>147.1</ele>
        <time>2017-01-29T09:23:36.000Z</time>
      </trkpt>
      <trkpt lat="44.48138" lon="0.6859">
        <ele>147.1</ele>
        <time>2017-01-29T09:23:37.000Z</time>
      </trkpt>
      <trkpt lat="44.48136" lon="0.68587">
        <ele>147.2</ele>
        <time>2017-01-29T09:23:38.000Z</time>
      </trkpt>
      <trkpt lat="44.48135" lon="0.68583">
        <ele>147.2</ele>
        <time>2017-01-29T09:23:39.000Z</time>
      </trkpt>
      <trkpt lat="44.48133" lon="0.68579">
        <ele>147.4</ele>
        <time>2017-01-29T09:23:40.000Z</time>
      </trkpt>
      <trkpt lat="44.48131" lon="0.68575">
        <ele>147.5</ele>
        <time>2017-01-29T09:23:41.000Z</time>
      </trkpt>
      <trkpt lat="44.48129" lon="0.68571">
        <ele>147.6</ele>
        <time>2017-01-29T09:23:42.000Z</time>
      </trkpt>
      <trkpt lat="44.48128" lon="0.68568">
        <ele>147.7</ele>
        <time>2017-01-29T09:23:43.000Z</time>
      </trkpt>
      <trkpt lat="44.48126" lon="0.68564">
        <ele>147.8</ele>
        <time>2017-01-29T09:23:44.000Z</time>
      </trkpt>
      <trkpt lat="44.48124" lon="0.6856">
        <ele>148</ele>
        <time>2017-01-29T09:23:45.000Z</time>
      </trkpt>
      <trkpt lat="44.48123" lon="0.68556">
        <ele>148.1</ele>
        <time>2017-01-29T09:23:46.000Z</time>
      </trkpt>
      <trkpt lat="44.48121" lon="0.68552">
        <ele>148.2</ele>
        <time>2017-01-29T09:23:47.000Z</time>
      </trkpt>
      <trkpt lat="44.4812" lon="0.68548">
        <ele>148.4</ele>
        <time>2017-01-29T09:23:48.000Z</time>
      </trkpt>
      <trkpt lat="44.48118" lon="0.68544">
        <ele>148.5</ele>
        <time>2017-01-29T09:23:49.000Z</time>
      </trkpt>
      <trkpt lat="44.48117" lon="0.6854">
        <ele>148.7</ele>
        <time>2017-01-29T09:23:50.000Z</time>
      </trkpt>
      <trkpt lat="44.48115" lon="0.68536">
        <ele>148.8</ele>
        <time>2017-01-29T09:23:51.000Z</time>
      </trkpt>
      <trkpt lat="44.48114" lon="0.68532">
        <ele>149</ele>
        <time>2017-01-29T09:23:52.000Z</time>
      </trkpt>
      <trkpt lat="44.48113" lon="0.68528">
        <ele>149.1</ele>
        <time>2017-01-29T09:23:53.000Z</time>
      </trkpt>
      <trkpt lat="44.48111" lon="0.68524">
        <ele>149.3</ele>
        <time>2017-01-29T09:23:54.000Z</time>
      </trkpt>
      <trkpt lat="44.4811" lon="0.6852">
        <ele>149.5</ele>
        <time>2017-01-29T09:23:55.000Z</time>
      </trkpt>
      <trkpt lat="44.48108" lon="0.68516">
        <ele>149.6</ele>
        <time>2017-01-29T09:23:56.000Z</time>
      </trkpt>
      <trkpt lat="44.48107" lon="0.68512">
        <ele>149.8</ele>
        <time>2017-01-29T09:23:57.000Z</time>
      </trkpt>
      <trkpt lat="44.48106" lon="0.68508">
        <ele>149.9</ele>
        <time>2017-01-29T09:23:58.000Z</time>
      </trkpt>
      <trkpt lat="44.48104" lon="0.68504">
        <ele>150.1</ele>
        <time>2017-01-29T09:23:59.000Z</time>
      </trkpt>
      <trkpt lat="44.48103" lon="0.685">
        <ele>150.2</ele>
        <time>2017-01-29T09:24:00.000Z</time>
      </trkpt>
      <trkpt lat="44.48101" lon="0.68496">
        <ele>150.3</ele>
        <time>2017-01-29T09:24:01.000Z</time>
      </trkpt>
      <trkpt lat="44.481" lon="0.68492">
        <ele>150.4</ele>
        <time>2017-01-29T09:24:02.000Z</time>
      </trkpt>
      <trkpt lat="44.48098" lon="0.68489">
        <ele>150.5</ele>
        <time>2017-01-29T09:24:03.000Z</time>
      </trkpt>
      <trkpt lat="44.48097" lon="0.68485">
        <ele>150.5</ele>
        <time>2017-01-29T09:24:04.000Z</time>
      </trkpt>
      <trkpt lat="44.48095" lon="0.68482">
        <ele>150.6</ele>
        <time>2017-01-29T09:24:05.000Z</time>
      </trkpt>
      <trkpt lat="44.48093" lon="0.68478">
        <ele>150.7</ele>
        <time>2017-01-29T09:24:06.000Z</time>
      </trkpt>
      <trkpt lat="44.48092" lon="0.68475">
        <ele>150.9</ele>
        <time>2017-01-29T09:24:07.000Z</time>
      </trkpt>
      <trkpt lat="44.4809" lon="0.68472">
        <ele>151</ele>
        <time>2017-01-29T09:24:08.000Z</time>
      </trkpt>
      <trkpt lat="44.48088" lon="0.68468">
        <ele>151.1</ele>
        <time>2017-01-29T09:24:09.000Z</time>
      </trkpt>
      <trkpt lat="44.48086" lon="0.68465">
        <ele>151.2</ele>
        <time>2017-01-29T09:24:10.000Z</time>
      </trkpt>
      <trkpt lat="44.48085" lon="0.68461">
        <ele>151.4</ele>
        <time>2017-01-29T09:24:11.000Z</time>
      </trkpt>
      <trkpt lat="44.48083" lon="0.68458">
        <ele>151.5</ele>
        <time>2017-01-29T09:24:12.000Z</time>
      </trkpt>
      <trkpt lat="44.48081" lon="0.68455">
        <ele>151.5</ele>
        <time>2017-01-29T09:24:13.000Z</time>
      </trkpt>
      <trkpt lat="44.48079" lon="0.68451">
        <ele>151.5</ele>
        <time>2017-01-29T09:24:14.000Z</time>
      </trkpt>
      <trkpt lat="44.48077" lon="0.68448">
        <ele>151.5</ele>
        <time>2017-01-29T09:24:15.000Z</time>
      </trkpt>
      <trkpt lat="44.48075" lon="0.68445">
        <ele>151.5</ele>
        <time>2017-01-29T09:24:16.000Z</time>
      </trkpt>
      <trkpt lat="44.48073" lon="0.68441">
        <ele>151.5</ele>
        <time>2017-01-29T09:24:17.000Z</time>
      </trkpt>
      <trkpt lat="44.48072" lon="0.68438">
        <ele>151.6</ele>
        <time>2017-01-29T09:24:18.000Z</time>
      </trkpt>
      <trkpt lat="44.4807" lon="0.68435">
        <ele>151.6</ele>
        <time>2017-01-29T09:24:19.000Z</time>
      </trkpt>
      <trkpt lat="44.48068" lon="0.68431">
        <ele>151.6</ele>
        <time>2017-01-29T09:24:20.000Z</time>
      </trkpt>
      <trkpt lat="44.48066" lon="0.68428">
        <ele>151.6</ele>
        <time>2017-01-29T09:24:21.000Z</time>
      </trkpt>
      <trkpt lat="44.48063" lon="0.68424">
        <ele>151.6</ele>
        <time>2017-01-29T09:24:22.000Z</time>
      </trkpt>
      <trkpt lat="44.48061" lon="0.6842">
        <ele>151.6</ele>
        <time>2017-01-29T09:24:23.000Z</time>
      </trkpt>
      <trkpt lat="44.48059" lon="0.68417">
        <ele>151.5</ele>
        <time>2017-01-29T09:24:24.000Z</time>
      </trkpt>
      <trkpt lat="44.48057" lon="0.68413">
        <ele>151.4</ele>
        <time>2017-01-29T09:24:25.000Z</time>
      </trkpt>
      <trkpt lat="44.48055" lon="0.6841">
        <ele>151.3</ele>
        <time>2017-01-29T09:24:26.000Z</time>
      </trkpt>
      <trkpt lat="44.48053" lon="0.68407">
        <ele>151.2</ele>
        <time>2017-01-29T09:24:27.000Z</time>
      </trkpt>
      <trkpt lat="44.48051" lon="0.68403">
        <ele>151.1</ele>
        <time>2017-01-29T09:24:28.000Z</time>
      </trkpt>
      <trkpt lat="44.4805" lon="0.684">
        <ele>151.1</ele>
        <time>2017-01-29T09:24:29.000Z</time>
      </trkpt>
      <trkpt lat="44.48048" lon="0.68396">
        <ele>151</ele>
        <time>2017-01-29T09:24:30.000Z</time>
      </trkpt>
      <trkpt lat="44.48046" lon="0.68393">
        <ele>150.9</ele>
        <time>2017-01-29T09:24:31.000Z</time>
      </trkpt>
      <trkpt lat="44.48044" lon="0.68389">
        <ele>150.9</ele>
        <time>2017-01-29T09:24:32.000Z</time>
      </trkpt>
      <trkpt lat="44.48042" lon="0.68386">
        <ele>150.9</ele>
        <time>2017-01-29T09:24:33.000Z</time>
      </trkpt>
      <trkpt lat="44.48039" lon="0.68382">
        <ele>150.8</ele>
        <time>2017-01-29T09:24:34.000Z</time>
      </trkpt>
      <trkpt lat="44.48037" lon="0.68379">
        <ele>150.8</ele>
        <time>2017-01-29T09:24:35.000Z</time>
      </trkpt>
      <trkpt lat="44.48035" lon="0.68375">
        <ele>150.8</ele>
        <time>2017-01-29T09:24:36.000Z</time>
      </trkpt>
      <trkpt lat="44.48033" lon="0.68371">
        <ele>150.9</ele>
        <time>2017-01-29T09:24:37.000Z</time>
      </trkpt>
      <trkpt lat="44.48031" lon="0.68368">
        <ele>150.9</ele>
        <time>2017-01-29T09:24:38.000Z</time>
      </trkpt>
      <trkpt lat="44.48028" lon="0.68364">
        <ele>150.9</ele>
        <time>2017-01-29T09:24:39.000Z</time>
      </trkpt>
      <trkpt lat="44.48026" lon="0.6836">
        <ele>151</ele>
        <time>2017-01-29T09:24:40.000Z</time>
      </trkpt>
      <trkpt lat="44.48024" lon="0.68357">
        <ele>151.1</ele>
        <time>2017-01-29T09:24:41.000Z</time>
      </trkpt>
      <trkpt lat="44.48022" lon="0.68353">
        <ele>151.2</ele>
        <time>2017-01-29T09:24:42.000Z</time>
      </trkpt>
      <trkpt lat="44.4802" lon="0.68349">
        <ele>151.3</ele>
        <time>2017-01-29T09:24:43.000Z</time>
      </trkpt>
      <trkpt lat="44.48018" lon="0.68346">
        <ele>151.4</ele>
        <time>2017-01-29T09:24:44.000Z</time>
      </trkpt>
      <trkpt lat="44.48016" lon="0.68342">
        <ele>151.5</ele>
        <time>2017-01-29T09:24:45.000Z</time>
      </trkpt>
      <trkpt lat="44.48014" lon="0.68339">
        <ele>151.6</ele>
        <time>2017-01-29T09:24:46.000Z</time>
      </trkpt>
      <trkpt lat="44.48013" lon="0.68335">
        <ele>151.8</ele>
        <time>2017-01-29T09:24:47.000Z</time>
      </trkpt>
      <trkpt lat="44.48011" lon="0.68331">
        <ele>152</ele>
        <time>2017-01-29T09:24:48.000Z</time>
      </trkpt>
      <trkpt lat="44.48009" lon="0.68328">
        <ele>152.2</ele>
        <time>2017-01-29T09:24:49.000Z</time>
      </trkpt>
      <trkpt lat="44.48007" lon="0.68324">
        <ele>152.4</ele>
        <time>2017-01-29T09:24:50.000Z</time>
      </trkpt>
      <trkpt lat="44.48006" lon="0.6832">
        <ele>152.7</ele>
        <time>2017-01-29T09:24:51.000Z</time>
      </trkpt>
      <trkpt lat="44.48004" lon="0.68316">
        <ele>152.9</ele>
        <time>2017-01-29T09:24:52.000Z</time>
      </trkpt>
      <trkpt lat="44.48002" lon="0.68312">
        <ele>153.2</ele>
        <time>2017-01-29T09:24:53.000Z</time>
      </trkpt>
      <trkpt lat="44.48001" lon="0.68309">
        <ele>153.5</ele>
        <time>2017-01-29T09:24:54.000Z</time>
      </trkpt>
      <trkpt lat="44.47999" lon="0.68305">
        <ele>153.7</ele>
        <time>2017-01-29T09:24:55.000Z</time>
      </trkpt>
      <trkpt lat="44.47998" lon="0.68301">
        <ele>153.9</ele>
        <time>2017-01-29T09:24:56.000Z</time>
      </trkpt>
      <trkpt lat="44.47996" lon="0.68297">
        <ele>154.1</ele>
        <time>2017-01-29T09:24:57.000Z</time>
      </trkpt>
      <trkpt lat="44.47995" lon="0.68293">
        <ele>154.3</ele>
        <time>2017-01-29T09:24:58.000Z</time>
      </trkpt>
      <trkpt lat="44.47993" lon="0.68289">
        <ele>154.5</ele>
        <time>2017-01-29T09:24:59.000Z</time>
      </trkpt>
      <trkpt lat="44.47991" lon="0.68285">
        <ele>154.7</ele>
        <time>2017-01-29T09:25:00.000Z</time>
      </trkpt>
      <trkpt lat="44.4799" lon="0.68281">
        <ele>154.9</ele>
        <time>2017-01-29T09:25:01.000Z</time>
      </trkpt>
      <trkpt lat="44.47988" lon="0.68277">
        <ele>155.1</ele>
        <time>2017-01-29T09:25:02.000Z</time>
      </trkpt>
      <trkpt lat="44.47986" lon="0.68273">
        <ele>155.3</ele>
        <time>2017-01-29T09:25:03.000Z</time>
      </trkpt>
      <trkpt lat="44.47985" lon="0.68269">
        <ele>155.5</ele>
        <time>2017-01-29T09:25:04.000Z</time>
      </trkpt>
      <trkpt lat="44.47983" lon="0.68265">
        <ele>155.8</ele>
        <time>2017-01-29T09:25:05.000Z</time>
      </trkpt>
      <trkpt lat="44.47981" lon="0.68261">
        <ele>156</ele>
        <time>2017-01-29T09:25:06.000Z</time>
      </trkpt>
      <trkpt lat="44.4798" lon="0.68257">
        <ele>156.3</ele>
        <time>2017-01-29T09:25:07.000Z</time>
      </trkpt>
      <trkpt lat="44.47978" lon="0.68253">
        <ele>156.5</ele>
        <time>2017-01-29T09:25:08.000Z</time>
      </trkpt>
      <trkpt lat="44.47976" lon="0.68249">
        <ele>156.8</ele>
        <time>2017-01-29T09:25:09.000Z</time>
      </trkpt>
      <trkpt lat="44.47975" lon="0.68245">
        <ele>157.1</ele>
        <time>2017-01-29T09:25:10.000Z</time>
      </trkpt>
      <trkpt lat="44.47973" lon="0.68241">
        <ele>157.5</ele>
        <time>2017-01-29T09:25:11.000Z</time>
      </trkpt>
      <trkpt lat="44.47971" lon="0.68237">
        <ele>157.8</ele>
        <time>2017-01-29T09:25:12.000Z</time>
      </trkpt>
      <trkpt lat="44.4797" lon="0.68233">
        <ele>158.1</ele>
        <time>2017-01-29T09:25:13.000Z</time>
      </trkpt>
      <trkpt lat="44.47968" lon="0.68229">
        <ele>158.5</ele>
        <time>2017-01-29T09:25:14.000Z</time>
      </trkpt>
      <trkpt lat="44.47967" lon="0.68225">
        <ele>158.8</ele>
        <time>2017-01-29T09:25:15.000Z</time>
      </trkpt>
      <trkpt lat="44.47965" lon="0.68221">
        <ele>159.1</ele>
        <time>2017-01-29T09:25:16.000Z</time>
      </trkpt>
      <trkpt lat="44.47964" lon="0.68217">
        <ele>159.5</ele>
        <time>2017-01-29T09:25:17.000Z</time>
      </trkpt>
      <trkpt lat="44.47962" lon="0.68213">
        <ele>159.8</ele>
        <time>2017-01-29T09:25:18.000Z</time>
      </trkpt>
      <trkpt lat="44.47961" lon="0.68209">
        <ele>160.2</ele>
        <time>2017-01-29T09:25:19.000Z</time>
      </trkpt>
      <trkpt lat="44.47959" lon="0.68205">
        <ele>160.5</ele>
        <time>2017-01-29T09:25:20.000Z</time>
      </trkpt>
      <trkpt lat="44.47958" lon="0.68201">
        <ele>160.9</ele>
        <time>2017-01-29T09:25:21.000Z</time>
      </trkpt>
      <trkpt lat="44.47956" lon="0.68198">
        <ele>161.2</ele>
        <time>2017-01-29T09:25:22.000Z</time>
      </trkpt>
      <trkpt lat="44.47955" lon="0.68194">
        <ele>161.6</ele>
        <time>2017-01-29T09:25:23.000Z</time>
      </trkpt>
      <trkpt lat="44.47953" lon="0.68191">
        <ele>161.9</ele>
        <time>2017-01-29T09:25:24.000Z</time>
      </trkpt>
      <trkpt lat="44.47952" lon="0.68187">
        <ele>162.2</ele>
        <time>2017-01-29T09:25:25.000Z</time>
      </trkpt>
      <trkpt lat="44.4795" lon="0.68184">
        <ele>162.6</ele>
        <time>2017-01-29T09:25:26.000Z</time>
      </trkpt>
      <trkpt lat="44.47949" lon="0.68181">
        <ele>162.9</ele>
        <time>2017-01-29T09:25:27.000Z</time>
      </trkpt>
      <trkpt lat="44.47947" lon="0.68177">
        <ele>163.3</ele>
        <time>2017-01-29T09:25:28.000Z</time>
      </trkpt>
      <trkpt lat="44.47946" lon="0.68174">
        <ele>163.6</ele>
        <time>2017-01-29T09:25:29.000Z</time>
      </trkpt>
      <trkpt lat="44.47944" lon="0.68171">
        <ele>163.9</ele>
        <time>2017-01-29T09:25:30.000Z</time>
      </trkpt>
      <trkpt lat="44.47942" lon="0.68168">
        <ele>164.2</ele>
        <time>2017-01-29T09:25:31.000Z</time>
      </trkpt>
      <trkpt lat="44.4794" lon="0.68166">
        <ele>164.6</ele>
        <time>2017-01-29T09:25:32.000Z</time>
      </trkpt>
      <trkpt lat="44.47937" lon="0.68163">
        <ele>165.1</ele>
        <time>2017-01-29T09:25:33.000Z</time>
      </trkpt>
      <trkpt lat="44.47935" lon="0.68161">
        <ele>165.5</ele>
        <time>2017-01-29T09:25:34.000Z</time>
      </trkpt>
      <trkpt lat="44.47933" lon="0.68158">
        <ele>166</ele>
        <time>2017-01-29T09:25:35.000Z</time>
      </trkpt>
      <trkpt lat="44.4793" lon="0.68156">
        <ele>166.4</ele>
        <time>2017-01-29T09:25:36.000Z</time>
      </trkpt>
      <trkpt lat="44.47928" lon="0.68155">
        <ele>166.7</ele>
        <time>2017-01-29T09:25:37.000Z</time>
      </trkpt>
      <trkpt lat="44.47925" lon="0.68153">
        <ele>167.1</ele>
        <time>2017-01-29T09:25:38.000Z</time>
      </trkpt>
      <trkpt lat="44.47923" lon="0.68152">
        <ele>167.5</ele>
        <time>2017-01-29T09:25:39.000Z</time>
      </trkpt>
      <trkpt lat="44.4792" lon="0.6815">
        <ele>167.8</ele>
        <time>2017-01-29T09:25:40.000Z</time>
      </trkpt>
      <trkpt lat="44.47918" lon="0.68149">
        <ele>168.1</ele>
        <time>2017-01-29T09:25:41.000Z</time>
      </trkpt>
      <trkpt lat="44.47915" lon="0.68149">
        <ele>168.3</ele>
        <time>2017-01-29T09:25:42.000Z</time>
      </trkpt>
      <trkpt lat="44.47912" lon="0.68148">
        <ele>168.5</ele>
        <time>2017-01-29T09:25:43.000Z</time>
      </trkpt>
      <trkpt lat="44.4791" lon="0.68148">
        <ele>168.6</ele>
        <time>2017-01-29T09:25:44.000Z</time>
      </trkpt>
      <trkpt lat="44.47907" lon="0.68148">
        <ele>168.8</ele>
        <time>2017-01-29T09:25:45.000Z</time>
      </trkpt>
      <trkpt lat="44.47904" lon="0.68148">
        <ele>168.8</ele>
        <time>2017-01-29T09:25:46.000Z</time>
      </trkpt>
      <trkpt lat="44.47902" lon="0.68148">
        <ele>168.9</ele>
        <time>2017-01-29T09:25:47.000Z</time>
      </trkpt>
      <trkpt lat="44.47899" lon="0.68148">
        <ele>168.9</ele>
        <time>2017-01-29T09:25:48.000Z</time>
      </trkpt>
      <trkpt lat="44.47896" lon="0.68148">
        <ele>169</ele>
        <time>2017-01-29T09:25:49.000Z</time>
      </trkpt>
      <trkpt lat="44.47893" lon="0.68149">
        <ele>168.9</ele>
        <time>2017-01-29T09:25:50.000Z</time>
      </trkpt>
      <trkpt lat="44.4789" lon="0.6815">
        <ele>169</ele>
        <time>2017-01-29T09:25:51.000Z</time>
      </trkpt>
      <trkpt lat="44.47887" lon="0.6815">
        <ele>169</ele>
        <time>2017-01-29T09:25:52.000Z</time>
      </trkpt>
      <trkpt lat="44.47884" lon="0.68151">
        <ele>169</ele>
        <time>2017-01-29T09:25:53.000Z</time>
      </trkpt>
      <trkpt lat="44.47881" lon="0.68151">
        <ele>169</ele>
        <time>2017-01-29T09:25:54.000Z</time>
      </trkpt>
      <trkpt lat="44.47878" lon="0.68151">
        <ele>169.1</ele>
        <time>2017-01-29T09:25:55.000Z</time>
      </trkpt>
      <trkpt lat="44.47875" lon="0.68152">
        <ele>169.1</ele>
        <time>2017-01-29T09:25:56.000Z</time>
      </trkpt>
      <trkpt lat="44.47872" lon="0.68152">
        <ele>169.2</ele>
        <time>2017-01-29T09:25:57.000Z</time>
      </trkpt>
      <trkpt lat="44.47869" lon="0.68153">
        <ele>169.2</ele>
        <time>2017-01-29T09:25:58.000Z</time>
      </trkpt>
      <trkpt lat="44.47866" lon="0.68153">
        <ele>169.2</ele>
        <time>2017-01-29T09:25:59.000Z</time>
      </trkpt>
      <trkpt lat="44.47863" lon="0.68154">
        <ele>169.3</ele>
        <time>2017-01-29T09:26:00.000Z</time>
      </trkpt>
      <trkpt lat="44.47861" lon="0.68154">
        <ele>169.3</ele>
        <time>2017-01-29T09:26:01.000Z</time>
      </trkpt>
      <trkpt lat="44.47858" lon="0.68155">
        <ele>169.3</ele>
        <time>2017-01-29T09:26:02.000Z</time>
      </trkpt>
      <trkpt lat="44.47855" lon="0.68156">
        <ele>169.4</ele>
        <time>2017-01-29T09:26:03.000Z</time>
      </trkpt>
      <trkpt lat="44.47852" lon="0.68156">
        <ele>169.4</ele>
        <time>2017-01-29T09:26:04.000Z</time>
      </trkpt>
      <trkpt lat="44.47849" lon="0.68157">
        <ele>169.5</ele>
        <time>2017-01-29T09:26:05.000Z</time>
      </trkpt>
      <trkpt lat="44.47846" lon="0.68157">
        <ele>169.5</ele>
        <time>2017-01-29T09:26:06.000Z</time>
      </trkpt>
      <trkpt lat="44.47843" lon="0.68158">
        <ele>169.5</ele>
        <time>2017-01-29T09:26:07.000Z</time>
      </trkpt>
      <trkpt lat="44.4784" lon="0.68159">
        <ele>169.6</ele>
        <time>2017-01-29T09:26:08.000Z</time>
      </trkpt>
      <trkpt lat="44.47837" lon="0.6816">
        <ele>169.6</ele>
        <time>2017-01-29T09:26:09.000Z</time>
      </trkpt>
      <trkpt lat="44.47834" lon="0.68161">
        <ele>169.6</ele>
        <time>2017-01-29T09:26:10.000Z</time>
      </trkpt>
      <trkpt lat="44.4783" lon="0.68162">
        <ele>169.6</ele>
        <time>2017-01-29T09:26:11.000Z</time>
      </trkpt>
      <trkpt lat="44.47827" lon="0.68163">
        <ele>169.5</ele>
        <time>2017-01-29T09:26:12.000Z</time>
      </trkpt>
      <trkpt lat="44.47824" lon="0.68164">
        <ele>169.4</ele>
        <time>2017-01-29T09:26:13.000Z</time>
      </trkpt>
      <trkpt lat="44.47821" lon="0.68165">
        <ele>169.3</ele>
        <time>2017-01-29T09:26:14.000Z</time>
      </trkpt>
      <trkpt lat="44.47818" lon="0.68166">
        <ele>169.2</ele>
        <time>2017-01-29T09:26:15.000Z</time>
      </trkpt>
      <trkpt lat="44.47815" lon="0.68167">
        <ele>169.2</ele>
        <time>2017-01-29T09:26:16.000Z</time>
      </trkpt>
      <trkpt lat="44.47813" lon="0.68168">
        <ele>169.1</ele>
        <time>2017-01-29T09:26:17.000Z</time>
      </trkpt>
      <trkpt lat="44.4781" lon="0.68169">
        <ele>169.1</ele>
        <time>2017-01-29T09:26:18.000Z</time>
      </trkpt>
      <trkpt lat="44.47808" lon="0.6817">
        <ele>169</ele>
        <time>2017-01-29T09:26:19.000Z</time>
      </trkpt>
      <trkpt lat="44.47806" lon="0.68171">
        <ele>169</ele>
        <time>2017-01-29T09:26:20.000Z</time>
      </trkpt>
      <trkpt lat="44.47804" lon="0.68172">
        <ele>168.9</ele>
        <time>2017-01-29T09:26:21.000Z</time>
      </trkpt>
      <trkpt lat="44.47801" lon="0.68173">
        <ele>168.9</ele>
        <time>2017-01-29T09:26:22.000Z</time>
      </trkpt>
      <trkpt lat="44.47799" lon="0.68175">
        <ele>168.8</ele>
        <time>2017-01-29T09:26:23.000Z</time>
      </trkpt>
      <trkpt lat="44.47797" lon="0.68176">
        <ele>168.8</ele>
        <time>2017-01-29T09:26:24.000Z</time>
      </trkpt>
      <trkpt lat="44.47795" lon="0.68177">
        <ele>168.8</ele>
        <time>2017-01-29T09:26:25.000Z</time>
      </trkpt>
      <trkpt lat="44.47793" lon="0.68178">
        <ele>168.7</ele>
        <time>2017-01-29T09:26:26.000Z</time>
      </trkpt>
      <trkpt lat="44.47791" lon="0.68179">
        <ele>168.7</ele>
        <time>2017-01-29T09:26:27.000Z</time>
      </trkpt>
      <trkpt lat="44.47789" lon="0.6818">
        <ele>168.7</ele>
        <time>2017-01-29T09:26:28.000Z</time>
      </trkpt>
      <trkpt lat="44.47786" lon="0.68181">
        <ele>168.7</ele>
        <time>2017-01-29T09:26:29.000Z</time>
      </trkpt>
      <trkpt lat="44.47784" lon="0.68183">
        <ele>168.7</ele>
        <time>2017-01-29T09:26:30.000Z</time>
      </trkpt>
      <trkpt lat="44.47782" lon="0.68184">
        <ele>168.6</ele>
        <time>2017-01-29T09:26:31.000Z</time>
      </trkpt>
      <trkpt lat="44.4778" lon="0.68186">
        <ele>168.6</ele>
        <time>2017-01-29T09:26:32.000Z</time>
      </trkpt>
      <trkpt lat="44.47778" lon="0.68187">
        <ele>168.6</ele>
        <time>2017-01-29T09:26:33.000Z</time>
      </trkpt>
      <trkpt lat="44.47776" lon="0.68189">
        <ele>168.6</ele>
        <time>2017-01-29T09:26:34.000Z</time>
      </trkpt>
      <trkpt lat="44.47774" lon="0.68191">
        <ele>168.5</ele>
        <time>2017-01-29T09:26:35.000Z</time>
      </trkpt>
      <trkpt lat="44.47772" lon="0.68193">
        <ele>168.5</ele>
        <time>2017-01-29T09:26:36.000Z</time>
      </trkpt>
      <trkpt lat="44.4777" lon="0.68194">
        <ele>168.5</ele>
        <time>2017-01-29T09:26:37.000Z</time>
      </trkpt>
      <trkpt lat="44.47768" lon="0.68195">
        <ele>168.6</ele>
        <time>2017-01-29T09:26:38.000Z</time>
      </trkpt>
      <trkpt lat="44.47766" lon="0.68196">
        <ele>168.7</ele>
        <time>2017-01-29T09:26:39.000Z</time>
      </trkpt>
      <trkpt lat="44.47763" lon="0.68195">
        <ele>168.8</ele>
        <time>2017-01-29T09:26:40.000Z</time>
      </trkpt>
      <trkpt lat="44.47762" lon="0.68194">
        <ele>168.9</ele>
        <time>2017-01-29T09:26:41.000Z</time>
      </trkpt>
      <trkpt lat="44.47761" lon="0.68193">
        <ele>169</ele>
        <time>2017-01-29T09:26:42.000Z</time>
      </trkpt>
      <trkpt lat="44.47761" lon="0.68191">
        <ele>169</ele>
        <time>2017-01-29T09:26:43.000Z</time>
      </trkpt>
      <trkpt lat="44.47762" lon="0.68189">
        <ele>169</ele>
        <time>2017-01-29T09:26:44.000Z</time>
      </trkpt>
      <trkpt lat="44.47763" lon="0.68188">
        <ele>169.1</ele>
        <time>2017-01-29T09:26:45.000Z</time>
      </trkpt>
      <trkpt lat="44.47764" lon="0.68186">
        <ele>169.1</ele>
        <time>2017-01-29T09:26:46.000Z</time>
      </trkpt>
      <trkpt lat="44.47765" lon="0.68184">
        <ele>169.1</ele>
        <time>2017-01-29T09:26:47.000Z</time>
      </trkpt>
      <trkpt lat="44.47766" lon="0.68182">
        <ele>169.2</ele>
        <time>2017-01-29T09:26:48.000Z</time>
      </trkpt>
      <trkpt lat="44.47767" lon="0.6818">
        <ele>169.2</ele>
        <time>2017-01-29T09:26:49.000Z</time>
      </trkpt>
      <trkpt lat="44.47768" lon="0.68178">
        <ele>169.3</ele>
        <time>2017-01-29T09:26:50.000Z</time>
      </trkpt>
      <trkpt lat="44.47769" lon="0.68176">
        <ele>169.4</ele>
        <time>2017-01-29T09:26:51.000Z</time>
      </trkpt>
      <trkpt lat="44.47771" lon="0.68174">
        <ele>169.4</ele>
        <time>2017-01-29T09:26:52.000Z</time>
      </trkpt>
      <trkpt lat="44.47772" lon="0.68172">
        <ele>169.5</ele>
        <time>2017-01-29T09:26:53.000Z</time>
      </trkpt>
      <trkpt lat="44.47773" lon="0.6817">
        <ele>169.6</ele>
        <time>2017-01-29T09:26:54.000Z</time>
      </trkpt>
      <trkpt lat="44.47774" lon="0.68168">
        <ele>169.7</ele>
        <time>2017-01-29T09:26:55.000Z</time>
      </trkpt>
      <trkpt lat="44.47775" lon="0.68166">
        <ele>169.8</ele>
        <time>2017-01-29T09:26:56.000Z</time>
      </trkpt>
      <trkpt lat="44.47776" lon="0.68163">
        <ele>169.9</ele>
        <time>2017-01-29T09:26:57.000Z</time>
      </trkpt>
      <trkpt lat="44.47777" lon="0.68161">
        <ele>170</ele>
        <time>2017-01-29T09:26:58.000Z</time>
      </trkpt>
      <trkpt lat="44.47778" lon="0.68159">
        <ele>170.1</ele>
        <time>2017-01-29T09:26:59.000Z</time>
      </trkpt>
      <trkpt lat="44.47779" lon="0.68156">
        <ele>170.3</ele>
        <time>2017-01-29T09:27:00.000Z</time>
      </trkpt>
      <trkpt lat="44.4778" lon="0.68154">
        <ele>170.4</ele>
        <time>2017-01-29T09:27:01.000Z</time>
      </trkpt>
      <trkpt lat="44.47781" lon="0.68152">
        <ele>170.6</ele>
        <time>2017-01-29T09:27:02.000Z</time>
      </trkpt>
      <trkpt lat="44.47783" lon="0.6815">
        <ele>170.7</ele>
        <time>2017-01-29T09:27:03.000Z</time>
      </trkpt>
      <trkpt lat="44.47784" lon="0.68148">
        <ele>170.8</ele>
        <time>2017-01-29T09:27:04.000Z</time>
      </trkpt>
      <trkpt lat="44.47785" lon="0.68146">
        <ele>170.9</ele>
        <time>2017-01-29T09:27:05.000Z</time>
      </trkpt>
      <trkpt lat="44.47786" lon="0.68144">
        <ele>171.1</ele>
        <time>2017-01-29T09:27:06.000Z</time>
      </trkpt>
      <trkpt lat="44.47787" lon="0.68142">
        <ele>171.2</ele>
        <time>2017-01-29T09:27:07.000Z</time>
      </trkpt>
      <trkpt lat="44.47788" lon="0.6814">
        <ele>171.4</ele>
        <time>2017-01-29T09:27:08.000Z</time>
      </trkpt>
      <trkpt lat="44.47789" lon="0.68138">
        <ele>171.6</ele>
        <time>2017-01-29T09:27:09.000Z</time>
      </trkpt>
      <trkpt lat="44.4779" lon="0.68135">
        <ele>171.8</ele>
        <time>2017-01-29T09:27:10.000Z</time>
      </trkpt>
      <trkpt lat="44.47792" lon="0.68133">
        <ele>172</ele>
        <time>2017-01-29T09:27:11.000Z</time>
      </trkpt>
      <trkpt lat="44.47793" lon="0.6813">
        <ele>172.2</ele>
        <time>2017-01-29T09:27:12.000Z</time>
      </trkpt>
      <trkpt lat="44.47794" lon="0.68127">
        <ele>172.4</ele>
        <time>2017-01-29T09:27:13.000Z</time>
      </trkpt>
      <trkpt lat="44.47796" lon="0.68124">
        <ele>172.7</ele>
        <time>2017-01-29T09:27:14.000Z</time>
      </trkpt>
      <trkpt lat="44.47797" lon="0.68121">
        <ele>172.9</ele>
        <time>2017-01-29T09:27:15.000Z</time>
      </trkpt>
      <trkpt lat="44.47798" lon="0.68118">
        <ele>173.2</ele>
        <time>2017-01-29T09:27:16.000Z</time>
      </trkpt>
      <trkpt lat="44.478" lon="0.68115">
        <ele>173.5</ele>
        <time>2017-01-29T09:27:17.000Z</time>
      </trkpt>
      <trkpt lat="44.47801" lon="0.68112">
        <ele>173.8</ele>
        <time>2017-01-29T09:27:18.000Z</time>
      </trkpt>
      <trkpt lat="44.47803" lon="0.68109">
        <ele>174.1</ele>
        <time>2017-01-29T09:27:19.000Z</time>
      </trkpt>
      <trkpt lat="44.47804" lon="0.68106">
        <ele>174.4</ele>
        <time>2017-01-29T09:27:20.000Z</time>
      </trkpt>
      <trkpt lat="44.47805" lon="0.68103">
        <ele>174.7</ele>
        <time>2017-01-29T09:27:21.000Z</time>
      </trkpt>
      <trkpt lat="44.47807" lon="0.681">
        <ele>175</ele>
        <time>2017-01-29T09:27:22.000Z</time>
      </trkpt>
      <trkpt lat="44.47808" lon="0.68097">
        <ele>175.3</ele>
        <time>2017-01-29T09:27:23.000Z</time>
      </trkpt>
      <trkpt lat="44.4781" lon="0.68094">
        <ele>175.7</ele>
        <time>2017-01-29T09:27:24.000Z</time>
      </trkpt>
      <trkpt lat="44.47811" lon="0.6809">
        <ele>176</ele>
        <time>2017-01-29T09:27:25.000Z</time>
      </trkpt>
      <trkpt lat="44.47812" lon="0.68087">
        <ele>176.4</ele>
        <time>2017-01-29T09:27:26.000Z</time>
      </trkpt>
      <trkpt lat="44.47814" lon="0.68084">
        <ele>176.8</ele>
        <time>2017-01-29T09:27:27.000Z</time>
      </trkpt>
      <trkpt lat="44.47815" lon="0.68081">
        <ele>177</ele>
        <time>2017-01-29T09:27:28.000Z</time>
      </trkpt>
      <trkpt lat="44.47816" lon="0.68077">
        <ele>177.2</ele>
        <time>2017-01-29T09:27:29.000Z</time>
      </trkpt>
      <trkpt lat="44.47817" lon="0.68074">
        <ele>177.5</ele>
        <time>2017-01-29T09:27:30.000Z</time>
      </trkpt>
      <trkpt lat="44.47818" lon="0.6807">
        <ele>177.7</ele>
        <time>2017-01-29T09:27:31.000Z</time>
      </trkpt>
      <trkpt lat="44.4782" lon="0.68067">
        <ele>178</ele>
        <time>2017-01-29T09:27:32.000Z</time>
      </trkpt>
      <trkpt lat="44.47821" lon="0.68063">
        <ele>178.2</ele>
        <time>2017-01-29T09:27:33.000Z</time>
      </trkpt>
      <trkpt lat="44.47822" lon="0.6806">
        <ele>178.5</ele>
        <time>2017-01-29T09:27:34.000Z</time>
      </trkpt>
      <trkpt lat="44.47823" lon="0.68056">
        <ele>178.7</ele>
        <time>2017-01-29T09:27:35.000Z</time>
      </trkpt>
      <trkpt lat="44.47824" lon="0.68052">
        <ele>178.9</ele>
        <time>2017-01-29T09:27:36.000Z</time>
      </trkpt>
      <trkpt lat="44.47825" lon="0.68048">
        <ele>179.2</ele>
        <time>2017-01-29T09:27:37.000Z</time>
      </trkpt>
      <trkpt lat="44.47826" lon="0.68045">
        <ele>179.4</ele>
        <time>2017-01-29T09:27:38.000Z</time>
      </trkpt>
      <trkpt lat="44.47827" lon="0.68041">
        <ele>179.7</ele>
        <time>2017-01-29T09:27:39.000Z</time>
      </trkpt>
      <trkpt lat="44.47828" lon="0.68037">
        <ele>179.9</ele>
        <time>2017-01-29T09:27:40.000Z</time>
      </trkpt>
      <trkpt lat="44.47829" lon="0.68033">
        <ele>180.2</ele>
        <time>2017-01-29T09:27:41.000Z</time>
      </trkpt>
      <trkpt lat="44.4783" lon="0.68029">
        <ele>180.4</ele>
        <time>2017-01-29T09:27:42.000Z</time>
      </trkpt>
      <trkpt lat="44.47831" lon="0.68026">
        <ele>180.7</ele>
        <time>2017-01-29T09:27:43.000Z</time>
      </trkpt>
      <trkpt lat="44.47832" lon="0.68022">
        <ele>180.9</ele>
        <time>2017-01-29T09:27:44.000Z</time>
      </trkpt>
      <trkpt lat="44.47833" lon="0.68018">
        <ele>181.1</ele>
        <time>2017-01-29T09:27:45.000Z</time>
      </trkpt>
      <trkpt lat="44.47834" lon="0.68014">
        <ele>181.4</ele>
        <time>2017-01-29T09:27:46.000Z</time>
      </trkpt>
      <trkpt lat="44.47835" lon="0.68011">
        <ele>181.6</ele>
        <time>2017-01-29T09:27:47.000Z</time>
      </trkpt>
      <trkpt lat="44.47835" lon="0.68007">
        <ele>181.8</ele>
        <time>2017-01-29T09:27:48.000Z</time>
      </trkpt>
      <trkpt lat="44.47835" lon="0.68003">
        <ele>182</ele>
        <time>2017-01-29T09:27:49.000Z</time>
      </trkpt>
      <trkpt lat="44.47834" lon="0.67999">
        <ele>182.1</ele>
        <time>2017-01-29T09:27:50.000Z</time>
      </trkpt>
      <trkpt lat="44.47834" lon="0.67995">
        <ele>182</ele>
        <time>2017-01-29T09:27:51.000Z</time>
      </trkpt>
      <trkpt lat="44.47833" lon="0.6799">
        <ele>181.9</ele>
        <time>2017-01-29T09:27:52.000Z</time>
      </trkpt>
      <trkpt lat="44.47833" lon="0.67985">
        <ele>181.8</ele>
        <time>2017-01-29T09:27:53.000Z</time>
      </trkpt>
      <trkpt lat="44.47832" lon="0.67979">
        <ele>181.7</ele>
        <time>2017-01-29T09:27:54.000Z</time>
      </trkpt>
      <trkpt lat="44.47832" lon="0.67974">
        <ele>181.6</ele>
        <time>2017-01-29T09:27:55.000Z</time>
      </trkpt>
      <trkpt lat="44.47831" lon="0.67969">
        <ele>181.5</ele>
        <time>2017-01-29T09:27:56.000Z</time>
      </trkpt>
      <trkpt lat="44.47829" lon="0.67964">
        <ele>181.3</ele>
        <time>2017-01-29T09:27:57.000Z</time>
      </trkpt>
      <trkpt lat="44.47827" lon="0.67958">
        <ele>181.2</ele>
        <time>2017-01-29T09:27:58.000Z</time>
      </trkpt>
      <trkpt lat="44.47826" lon="0.6795">
        <ele>181.1</ele>
        <time>2017-01-29T09:27:59.000Z</time>
      </trkpt>
      <trkpt lat="44.47825" lon="0.67942">
        <ele>181</ele>
        <time>2017-01-29T09:28:00.000Z</time>
      </trkpt>
      <trkpt lat="44.47823" lon="0.67936">
        <ele>180.8</ele>
        <time>2017-01-29T09:28:01.000Z</time>
      </trkpt>
      <trkpt lat="44.47818" lon="0.67932">
        <ele>180.6</ele>
        <time>2017-01-29T09:28:02.000Z</time>
      </trkpt>
      <trkpt lat="44.47813" lon="0.67928">
        <ele>180.3</ele>
        <time>2017-01-29T09:28:03.000Z</time>
      </trkpt>
      <trkpt lat="44.47807" lon="0.67924">
        <ele>180.1</ele>
        <time>2017-01-29T09:28:04.000Z</time>
      </trkpt>
      <trkpt lat="44.47801" lon="0.6792">
        <ele>179.8</ele>
        <time>2017-01-29T09:28:05.000Z</time>
      </trkpt>
      <trkpt lat="44.47795" lon="0.67916">
        <ele>179.6</ele>
        <time>2017-01-29T09:28:06.000Z</time>
      </trkpt>
      <trkpt lat="44.47789" lon="0.67914">
        <ele>179.3</ele>
        <time>2017-01-29T09:28:07.000Z</time>
      </trkpt>
      <trkpt lat="44.47784" lon="0.67913">
        <ele>179.1</ele>
        <time>2017-01-29T09:28:08.000Z</time>
      </trkpt>
      <trkpt lat="44.47779" lon="0.67911">
        <ele>178.9</ele>
        <time>2017-01-29T09:28:09.000Z</time>
      </trkpt>
      <trkpt lat="44.47775" lon="0.67908">
        <ele>178.6</ele>
        <time>2017-01-29T09:28:10.000Z</time>
      </trkpt>
      <trkpt lat="44.47771" lon="0.67903">
        <ele>178.2</ele>
        <time>2017-01-29T09:28:11.000Z</time>
      </trkpt>
      <trkpt lat="44.47766" lon="0.67899">
        <ele>177.9</ele>
        <time>2017-01-29T09:28:12.000Z</time>
      </trkpt>
      <trkpt lat="44.47761" lon="0.67896">
        <ele>177.5</ele>
        <time>2017-01-29T09:28:13.000Z</time>
      </trkpt>
      <trkpt lat="44.47754" lon="0.67892">
        <ele>177</ele>
        <time>2017-01-29T09:28:14.000Z</time>
      </trkpt>
      <trkpt lat="44.47748" lon="0.67889">
        <ele>176.4</ele>
        <time>2017-01-29T09:28:15.000Z</time>
      </trkpt>
      <trkpt lat="44.47741" lon="0.67885">
        <ele>175.3</ele>
        <time>2017-01-29T09:28:16.000Z</time>
      </trkpt>
      <trkpt lat="44.47735" lon="0.6788">
        <ele>174.1</ele>
        <time>2017-01-29T09:28:17.000Z</time>
      </trkpt>
      <trkpt lat="44.47729" lon="0.67873">
        <ele>172.8</ele>
        <time>2017-01-29T09:28:18.000Z</time>
      </trkpt>
      <trkpt lat="44.47723" lon="0.67865">
        <ele>171.5</ele>
        <time>2017-01-29T09:28:19.000Z</time>
      </trkpt>
      <trkpt lat="44.47718" lon="0.67856">
        <ele>170</ele>
        <time>2017-01-29T09:28:20.000Z</time>
      </trkpt>
      <trkpt lat="44.47712" lon="0.67846">
        <ele>168.5</ele>
        <time>2017-01-29T09:28:21.000Z</time>
      </trkpt>
      <trkpt lat="44.47707" lon="0.67835">
        <ele>166.8</ele>
        <time>2017-01-29T09:28:22.000Z</time>
      </trkpt>
      <trkpt lat="44.47701" lon="0.67824">
        <ele>164.9</ele>
        <time>2017-01-29T09:28:23.000Z</time>
      </trkpt>
      <trkpt lat="44.47695" lon="0.67813">
        <ele>162.8</ele>
        <time>2017-01-29T09:28:24.000Z</time>
      </trkpt>
      <trkpt lat="44.47689" lon="0.67802">
        <ele>160.8</ele>
        <time>2017-01-29T09:28:25.000Z</time>
      </trkpt>
      <trkpt lat="44.47683" lon="0.67791">
        <ele>158.9</ele>
        <time>2017-01-29T09:28:26.000Z</time>
      </trkpt>
      <trkpt lat="44.47677" lon="0.6778">
        <ele>157.1</ele>
        <time>2017-01-29T09:28:27.000Z</time>
      </trkpt>
      <trkpt lat="44.47671" lon="0.6777">
        <ele>155.3</ele>
        <time>2017-01-29T09:28:28.000Z</time>
      </trkpt>
      <trkpt lat="44.47665" lon="0.67761">
        <ele>153.7</ele>
        <time>2017-01-29T09:28:29.000Z</time>
      </trkpt>
      <trkpt lat="44.47659" lon="0.67753">
        <ele>152.2</ele>
        <time>2017-01-29T09:28:30.000Z</time>
      </trkpt>
      <trkpt lat="44.47653" lon="0.67745">
        <ele>150.8</ele>
        <time>2017-01-29T09:28:31.000Z</time>
      </trkpt>
      <trkpt lat="44.47649" lon="0.67737">
        <ele>149.6</ele>
        <time>2017-01-29T09:28:32.000Z</time>
      </trkpt>
      <trkpt lat="44.47645" lon="0.67728">
        <ele>148.5</ele>
        <time>2017-01-29T09:28:33.000Z</time>
      </trkpt>
      <trkpt lat="44.47642" lon="0.67718">
        <ele>147.4</ele>
        <time>2017-01-29T09:28:34.000Z</time>
      </trkpt>
      <trkpt lat="44.47639" lon="0.67707">
        <ele>146.3</ele>
        <time>2017-01-29T09:28:35.000Z</time>
      </trkpt>
      <trkpt lat="44.47635" lon="0.67695">
        <ele>145</ele>
        <time>2017-01-29T09:28:36.000Z</time>
      </trkpt>
      <trkpt lat="44.47631" lon="0.67684">
        <ele>143.8</ele>
        <time>2017-01-29T09:28:37.000Z</time>
      </trkpt>
      <trkpt lat="44.47628" lon="0.67673">
        <ele>142.7</ele>
        <time>2017-01-29T09:28:38.000Z</time>
      </trkpt>
      <trkpt lat="44.47625" lon="0.67665">
        <ele>141.9</ele>
        <time>2017-01-29T09:28:39.000Z</time>
      </trkpt>
      <trkpt lat="44.47622" lon="0.67658">
        <ele>141.3</ele>
        <time>2017-01-29T09:28:40.000Z</time>
      </trkpt>
      <trkpt lat="44.47621" lon="0.67651">
        <ele>140.8</ele>
        <time>2017-01-29T09:28:41.000Z</time>
      </trkpt>
      <trkpt lat="44.47619" lon="0.67645">
        <ele>140.3</ele>
        <time>2017-01-29T09:28:42.000Z</time>
      </trkpt>
      <trkpt lat="44.47618" lon="0.67638">
        <ele>139.9</ele>
        <time>2017-01-29T09:28:43.000Z</time>
      </trkpt>
      <trkpt lat="44.47616" lon="0.67632">
        <ele>139.4</ele>
        <time>2017-01-29T09:28:44.000Z</time>
      </trkpt>
      <trkpt lat="44.47615" lon="0.67626">
        <ele>139</ele>
        <time>2017-01-29T09:28:45.000Z</time>
      </trkpt>
      <trkpt lat="44.47614" lon="0.6762">
        <ele>138.5</ele>
        <time>2017-01-29T09:28:46.000Z</time>
      </trkpt>
      <trkpt lat="44.47612" lon="0.67613">
        <ele>138</ele>
        <time>2017-01-29T09:28:47.000Z</time>
      </trkpt>
      <trkpt lat="44.4761" lon="0.67607">
        <ele>137.5</ele>
        <time>2017-01-29T09:28:48.000Z</time>
      </trkpt>
      <trkpt lat="44.47608" lon="0.67601">
        <ele>136.9</ele>
        <time>2017-01-29T09:28:49.000Z</time>
      </trkpt>
      <trkpt lat="44.47606" lon="0.67594">
        <ele>136.3</ele>
        <time>2017-01-29T09:28:50.000Z</time>
      </trkpt>
      <trkpt lat="44.47605" lon="0.67588">
        <ele>135.8</ele>
        <time>2017-01-29T09:28:51.000Z</time>
      </trkpt>
      <trkpt lat="44.47603" lon="0.67581">
        <ele>135.3</ele>
        <time>2017-01-29T09:28:52.000Z</time>
      </trkpt>
      <trkpt lat="44.47602" lon="0.67575">
        <ele>135</ele>
        <time>2017-01-29T09:28:53.000Z</time>
      </trkpt>
      <trkpt lat="44.476" lon="0.67569">
        <ele>134.7</ele>
        <time>2017-01-29T09:28:54.000Z</time>
      </trkpt>
      <trkpt lat="44.47599" lon="0.67563">
        <ele>134.5</ele>
        <time>2017-01-29T09:28:55.000Z</time>
      </trkpt>
      <trkpt lat="44.47597" lon="0.67556">
        <ele>134.1</ele>
        <time>2017-01-29T09:28:56.000Z</time>
      </trkpt>
      <trkpt lat="44.47595" lon="0.6755">
        <ele>133.8</ele>
        <time>2017-01-29T09:28:57.000Z</time>
      </trkpt>
      <trkpt lat="44.47594" lon="0.67544">
        <ele>133.6</ele>
        <time>2017-01-29T09:28:58.000Z</time>
      </trkpt>
      <trkpt lat="44.47593" lon="0.67539">
        <ele>133.5</ele>
        <time>2017-01-29T09:28:59.000Z</time>
      </trkpt>
      <trkpt lat="44.47593" lon="0.67535">
        <ele>133.4</ele>
        <time>2017-01-29T09:29:00.000Z</time>
      </trkpt>
      <trkpt lat="44.47593" lon="0.67532">
        <ele>133.3</ele>
        <time>2017-01-29T09:29:01.000Z</time>
      </trkpt>
      <trkpt lat="44.47592" lon="0.67529">
        <ele>133.2</ele>
        <time>2017-01-29T09:29:02.000Z</time>
      </trkpt>
      <trkpt lat="44.47591" lon="0.67526">
        <ele>133</ele>
        <time>2017-01-29T09:29:03.000Z</time>
      </trkpt>
      <trkpt lat="44.47589" lon="0.67522">
        <ele>132.8</ele>
        <time>2017-01-29T09:29:04.000Z</time>
      </trkpt>
      <trkpt lat="44.47586" lon="0.67518">
        <ele>132.5</ele>
        <time>2017-01-29T09:29:05.000Z</time>
      </trkpt>
      <trkpt lat="44.47583" lon="0.67512">
        <ele>132.1</ele>
        <time>2017-01-29T09:29:06.000Z</time>
      </trkpt>
      <trkpt lat="44.4758" lon="0.67506">
        <ele>131.8</ele>
        <time>2017-01-29T09:29:07.000Z</time>
      </trkpt>
      <trkpt lat="44.47576" lon="0.67499">
        <ele>131.4</ele>
        <time>2017-01-29T09:29:08.000Z</time>
      </trkpt>
      <trkpt lat="44.47572" lon="0.67491">
        <ele>131</ele>
        <time>2017-01-29T09:29:09.000Z</time>
      </trkpt>
      <trkpt lat="44.47568" lon="0.67484">
        <ele>130.7</ele>
        <time>2017-01-29T09:29:10.000Z</time>
      </trkpt>
      <trkpt lat="44.47564" lon="0.67476">
        <ele>130.3</ele>
        <time>2017-01-29T09:29:11.000Z</time>
      </trkpt>
      <trkpt lat="44.47559" lon="0.67468">
        <ele>130</ele>
        <time>2017-01-29T09:29:12.000Z</time>
      </trkpt>
      <trkpt lat="44.47555" lon="0.6746">
        <ele>129.6</ele>
        <time>2017-01-29T09:29:13.000Z</time>
      </trkpt>
      <trkpt lat="44.47551" lon="0.67452">
        <ele>129.3</ele>
        <time>2017-01-29T09:29:14.000Z</time>
      </trkpt>
      <trkpt lat="44.47546" lon="0.67444">
        <ele>128.9</ele>
        <time>2017-01-29T09:29:15.000Z</time>
      </trkpt>
      <trkpt lat="44.47542" lon="0.67437">
        <ele>128.5</ele>
        <time>2017-01-29T09:29:16.000Z</time>
      </trkpt>
      <trkpt lat="44.47538" lon="0.6743">
        <ele>128.2</ele>
        <time>2017-01-29T09:29:17.000Z</time>
      </trkpt>
      <trkpt lat="44.47534" lon="0.67423">
        <ele>127.9</ele>
        <time>2017-01-29T09:29:18.000Z</time>
      </trkpt>
      <trkpt lat="44.4753" lon="0.67416">
        <ele>127.6</ele>
        <time>2017-01-29T09:29:19.000Z</time>
      </trkpt>
      <trkpt lat="44.47527" lon="0.67409">
        <ele>127.5</ele>
        <time>2017-01-29T09:29:20.000Z</time>
      </trkpt>
      <trkpt lat="44.47523" lon="0.67403">
        <ele>127.4</ele>
        <time>2017-01-29T09:29:21.000Z</time>
      </trkpt>
      <trkpt lat="44.4752" lon="0.67396">
        <ele>127.3</ele>
        <time>2017-01-29T09:29:22.000Z</time>
      </trkpt>
      <trkpt lat="44.47516" lon="0.6739">
        <ele>127.3</ele>
        <time>2017-01-29T09:29:23.000Z</time>
      </trkpt>
      <trkpt lat="44.47513" lon="0.67384">
        <ele>127.2</ele>
        <time>2017-01-29T09:29:24.000Z</time>
      </trkpt>
      <trkpt lat="44.4751" lon="0.67378">
        <ele>127.2</ele>
        <time>2017-01-29T09:29:25.000Z</time>
      </trkpt>
      <trkpt lat="44.47508" lon="0.67371">
        <ele>127.2</ele>
        <time>2017-01-29T09:29:26.000Z</time>
      </trkpt>
      <trkpt lat="44.47505" lon="0.67365">
        <ele>127.2</ele>
        <time>2017-01-29T09:29:27.000Z</time>
      </trkpt>
      <trkpt lat="44.47502" lon="0.67358">
        <ele>127.3</ele>
        <time>2017-01-29T09:29:28.000Z</time>
      </trkpt>
      <trkpt lat="44.475" lon="0.67351">
        <ele>127.4</ele>
        <time>2017-01-29T09:29:29.000Z</time>
      </trkpt>
      <trkpt lat="44.47498" lon="0.67344">
        <ele>127.5</ele>
        <time>2017-01-29T09:29:30.000Z</time>
      </trkpt>
      <trkpt lat="44.47495" lon="0.67337">
        <ele>127.6</ele>
        <time>2017-01-29T09:29:31.000Z</time>
      </trkpt>
      <trkpt lat="44.47492" lon="0.6733">
        <ele>127.9</ele>
        <time>2017-01-29T09:29:32.000Z</time>
      </trkpt>
      <trkpt lat="44.4749" lon="0.67323">
        <ele>128.2</ele>
        <time>2017-01-29T09:29:33.000Z</time>
      </trkpt>
      <trkpt lat="44.47486" lon="0.67317">
        <ele>128.5</ele>
        <time>2017-01-29T09:29:34.000Z</time>
      </trkpt>
      <trkpt lat="44.47483" lon="0.67311">
        <ele>128.8</ele>
        <time>2017-01-29T09:29:35.000Z</time>
      </trkpt>
      <trkpt lat="44.47479" lon="0.67305">
        <ele>129</ele>
        <time>2017-01-29T09:29:36.000Z</time>
      </trkpt>
      <trkpt lat="44.47476" lon="0.673">
        <ele>129.3</ele>
        <time>2017-01-29T09:29:37.000Z</time>
      </trkpt>
      <trkpt lat="44.47472" lon="0.67294">
        <ele>129.5</ele>
        <time>2017-01-29T09:29:38.000Z</time>
      </trkpt>
      <trkpt lat="44.47469" lon="0.67289">
        <ele>129.7</ele>
        <time>2017-01-29T09:29:39.000Z</time>
      </trkpt>
      <trkpt lat="44.47465" lon="0.67283">
        <ele>129.9</ele>
        <time>2017-01-29T09:29:40.000Z</time>
      </trkpt>
      <trkpt lat="44.47462" lon="0.67278">
        <ele>130.1</ele>
        <time>2017-01-29T09:29:41.000Z</time>
      </trkpt>
      <trkpt lat="44.47459" lon="0.67274">
        <ele>130.3</ele>
        <time>2017-01-29T09:29:42.000Z</time>
      </trkpt>
      <trkpt lat="44.47456" lon="0.67269">
        <ele>130.5</ele>
        <time>2017-01-29T09:29:43.000Z</time>
      </trkpt>
      <trkpt lat="44.47453" lon="0.67266">
        <ele>130.6</ele>
        <time>2017-01-29T09:29:44.000Z</time>
      </trkpt>
      <trkpt lat="44.4745" lon="0.67262">
        <ele>130.7</ele>
        <time>2017-01-29T09:29:45.000Z</time>
      </trkpt>
      <trkpt lat="44.47447" lon="0.6726">
        <ele>130.7</ele>
        <time>2017-01-29T09:29:46.000Z</time>
      </trkpt>
      <trkpt lat="44.47444" lon="0.67258">
        <ele>130.8</ele>
        <time>2017-01-29T09:29:47.000Z</time>
      </trkpt>
      <trkpt lat="44.47443" lon="0.67256">
        <ele>130.8</ele>
        <time>2017-01-29T09:29:48.000Z</time>
      </trkpt>
      <trkpt lat="44.47443" lon="0.67253">
        <ele>131</ele>
        <time>2017-01-29T09:29:49.000Z</time>
      </trkpt>
      <trkpt lat="44.47443" lon="0.67252">
        <ele>131.1</ele>
        <time>2017-01-29T09:29:50.000Z</time>
      </trkpt>
      <trkpt lat="44.47444" lon="0.67252">
        <ele>131.1</ele>
        <time>2017-01-29T09:29:51.000Z</time>
      </trkpt>
      <trkpt lat="44.47445" lon="0.67254">
        <ele>131.1</ele>
        <time>2017-01-29T09:29:52.000Z</time>
      </trkpt>
      <trkpt lat="44.47446" lon="0.67256">
        <ele>131</ele>
        <time>2017-01-29T09:29:53.000Z</time>
      </trkpt>
      <trkpt lat="44.47448" lon="0.67257">
        <ele>131</ele>
        <time>2017-01-29T09:29:54.000Z</time>
      </trkpt>
      <trkpt lat="44.47451" lon="0.67257">
        <ele>131.1</ele>
        <time>2017-01-29T09:29:55.000Z</time>
      </trkpt>
      <trkpt lat="44.47453" lon="0.67256">
        <ele>131.3</ele>
        <time>2017-01-29T09:29:56.000Z</time>
      </trkpt>
      <trkpt lat="44.47455" lon="0.67254">
        <ele>131.6</ele>
        <time>2017-01-29T09:29:57.000Z</time>
      </trkpt>
      <trkpt lat="44.47457" lon="0.67251">
        <ele>131.9</ele>
        <time>2017-01-29T09:29:58.000Z</time>
      </trkpt>
      <trkpt lat="44.47459" lon="0.67248">
        <ele>132.2</ele>
        <time>2017-01-29T09:29:59.000Z</time>
      </trkpt>
      <trkpt lat="44.4746" lon="0.67245">
        <ele>132.5</ele>
        <time>2017-01-29T09:30:00.000Z</time>
      </trkpt>
      <trkpt lat="44.4746" lon="0.67242">
        <ele>132.8</ele>
        <time>2017-01-29T09:30:01.000Z</time>
      </trkpt>
      <trkpt lat="44.47461" lon="0.67239">
        <ele>133</ele>
        <time>2017-01-29T09:30:02.000Z</time>
      </trkpt>
      <trkpt lat="44.47461" lon="0.67236">
        <ele>133.2</ele>
        <time>2017-01-29T09:30:03.000Z</time>
      </trkpt>
      <trkpt lat="44.47461" lon="0.67233">
        <ele>133.4</ele>
        <time>2017-01-29T09:30:04.000Z</time>
      </trkpt>
      <trkpt lat="44.47461" lon="0.67231">
        <ele>133.6</ele>
        <time>2017-01-29T09:30:05.000Z</time>
      </trkpt>
      <trkpt lat="44.47461" lon="0.67228">
        <ele>133.8</ele>
        <time>2017-01-29T09:30:06.000Z</time>
      </trkpt>
      <trkpt lat="44.47461" lon="0.67226">
        <ele>134</ele>
        <time>2017-01-29T09:30:07.000Z</time>
      </trkpt>
      <trkpt lat="44.4746" lon="0.67223">
        <ele>134.2</ele>
        <time>2017-01-29T09:30:08.000Z</time>
      </trkpt>
      <trkpt lat="44.47461" lon="0.67221">
        <ele>134.4</ele>
        <time>2017-01-29T09:30:09.000Z</time>
      </trkpt>
      <trkpt lat="44.47461" lon="0.67219">
        <ele>134.6</ele>
        <time>2017-01-29T09:30:10.000Z</time>
      </trkpt>
      <trkpt lat="44.4746" lon="0.67217">
        <ele>134.7</ele>
        <time>2017-01-29T09:30:11.000Z</time>
      </trkpt>
      <trkpt lat="44.4746" lon="0.67215">
        <ele>134.8</ele>
        <time>2017-01-29T09:30:12.000Z</time>
      </trkpt>
      <trkpt lat="44.47459" lon="0.67214">
        <ele>134.8</ele>
        <time>2017-01-29T09:30:13.000Z</time>
      </trkpt>
      <trkpt lat="44.47458" lon="0.67213">
        <ele>134.8</ele>
        <time>2017-01-29T09:30:14.000Z</time>
      </trkpt>
      <trkpt lat="44.47456" lon="0.67213">
        <ele>134.8</ele>
        <time>2017-01-29T09:30:15.000Z</time>
      </trkpt>
      <trkpt lat="44.47455" lon="0.67212">
        <ele>134.8</ele>
        <time>2017-01-29T09:30:16.000Z</time>
      </trkpt>
      <trkpt lat="44.47453" lon="0.67211">
        <ele>134.8</ele>
        <time>2017-01-29T09:30:17.000Z</time>
      </trkpt>
      <trkpt lat="44.47452" lon="0.6721">
        <ele>134.8</ele>
        <time>2017-01-29T09:30:18.000Z</time>
      </trkpt>
      <trkpt lat="44.47451" lon="0.67208">
        <ele>134.9</ele>
        <time>2017-01-29T09:30:19.000Z</time>
      </trkpt>
      <trkpt lat="44.47451" lon="0.67205">
        <ele>135.1</ele>
        <time>2017-01-29T09:30:20.000Z</time>
      </trkpt>
      <trkpt lat="44.47451" lon="0.67203">
        <ele>135.2</ele>
        <time>2017-01-29T09:30:21.000Z</time>
      </trkpt>
      <trkpt lat="44.47452" lon="0.67201">
        <ele>135.5</ele>
        <time>2017-01-29T09:30:22.000Z</time>
      </trkpt>
      <trkpt lat="44.47453" lon="0.67199">
        <ele>135.7</ele>
        <time>2017-01-29T09:30:23.000Z</time>
      </trkpt>
      <trkpt lat="44.47454" lon="0.67197">
        <ele>135.9</ele>
        <time>2017-01-29T09:30:24.000Z</time>
      </trkpt>
      <trkpt lat="44.47456" lon="0.67195">
        <ele>136.1</ele>
        <time>2017-01-29T09:30:25.000Z</time>
      </trkpt>
      <trkpt lat="44.47457" lon="0.67193">
        <ele>136.3</ele>
        <time>2017-01-29T09:30:26.000Z</time>
      </trkpt>
      <trkpt lat="44.47458" lon="0.67192">
        <ele>136.6</ele>
        <time>2017-01-29T09:30:27.000Z</time>
      </trkpt>
      <trkpt lat="44.4746" lon="0.6719">
        <ele>136.7</ele>
        <time>2017-01-29T09:30:28.000Z</time>
      </trkpt>
      <trkpt lat="44.47461" lon="0.67189">
        <ele>136.9</ele>
        <time>2017-01-29T09:30:29.000Z</time>
      </trkpt>
      <trkpt lat="44.47462" lon="0.67187">
        <ele>137.1</ele>
        <time>2017-01-29T09:30:30.000Z</time>
      </trkpt>
      <trkpt lat="44.47463" lon="0.67186">
        <ele>137.3</ele>
        <time>2017-01-29T09:30:31.000Z</time>
      </trkpt>
      <trkpt lat="44.47464" lon="0.67184">
        <ele>137.5</ele>
        <time>2017-01-29T09:30:32.000Z</time>
      </trkpt>
      <trkpt lat="44.47464" lon="0.67182">
        <ele>137.7</ele>
        <time>2017-01-29T09:30:33.000Z</time>
      </trkpt>
      <trkpt lat="44.47464" lon="0.67179">
        <ele>137.9</ele>
        <time>2017-01-29T09:30:34.000Z</time>
      </trkpt>
      <trkpt lat="44.47464" lon="0.67177">
        <ele>138</ele>
        <time>2017-01-29T09:30:35.000Z</time>
      </trkpt>
      <trkpt lat="44.47464" lon="0.67175">
        <ele>138.2</ele>
        <time>2017-01-29T09:30:36.000Z</time>
      </trkpt>
      <trkpt lat="44.47464" lon="0.67173">
        <ele>138.3</ele>
        <time>2017-01-29T09:30:37.000Z</time>
      </trkpt>
      <trkpt lat="44.47463" lon="0.67171">
        <ele>138.5</ele>
        <time>2017-01-29T09:30:38.000Z</time>
      </trkpt>
      <trkpt lat="44.47463" lon="0.67169">
        <ele>138.6</ele>
        <time>2017-01-29T09:30:39.000Z</time>
      </trkpt>
      <trkpt lat="44.47463" lon="0.67167">
        <ele>138.7</ele>
        <time>2017-01-29T09:30:40.000Z</time>
      </trkpt>
      <trkpt lat="44.47462" lon="0.67165">
        <ele>138.8</ele>
        <time>2017-01-29T09:30:41.000Z</time>
      </trkpt>
      <trkpt lat="44.47463" lon="0.67163">
        <ele>138.9</ele>
        <time>2017-01-29T09:30:42.000Z</time>
      </trkpt>
      <trkpt lat="44.47463" lon="0.67161">
        <ele>139</ele>
        <time>2017-01-29T09:30:43.000Z</time>
      </trkpt>
      <trkpt lat="44.47464" lon="0.67159">
        <ele>139.2</ele>
        <time>2017-01-29T09:30:44.000Z</time>
      </trkpt>
      <trkpt lat="44.47465" lon="0.67157">
        <ele>139.3</ele>
        <time>2017-01-29T09:30:45.000Z</time>
      </trkpt>
      <trkpt lat="44.47465" lon="0.67155">
        <ele>139.5</ele>
        <time>2017-01-29T09:30:46.000Z</time>
      </trkpt>
      <trkpt lat="44.47466" lon="0.67154">
        <ele>139.6</ele>
        <time>2017-01-29T09:30:47.000Z</time>
      </trkpt>
      <trkpt lat="44.47466" lon="0.67152">
        <ele>139.6</ele>
        <time>2017-01-29T09:30:48.000Z</time>
      </trkpt>
      <trkpt lat="44.47465" lon="0.67151">
        <ele>139.7</ele>
        <time>2017-01-29T09:30:49.000Z</time>
      </trkpt>
      <trkpt lat="44.47464" lon="0.67149">
        <ele>139.6</ele>
        <time>2017-01-29T09:30:50.000Z</time>
      </trkpt>
      <trkpt lat="44.47462" lon="0.67148">
        <ele>139.6</ele>
        <time>2017-01-29T09:30:51.000Z</time>
      </trkpt>
      <trkpt lat="44.47461" lon="0.67147">
        <ele>139.5</ele>
        <time>2017-01-29T09:30:52.000Z</time>
      </trkpt>
      <trkpt lat="44.47459" lon="0.67145">
        <ele>139.5</ele>
        <time>2017-01-29T09:30:53.000Z</time>
      </trkpt>
      <trkpt lat="44.47458" lon="0.67144">
        <ele>139.4</ele>
        <time>2017-01-29T09:30:54.000Z</time>
      </trkpt>
      <trkpt lat="44.47457" lon="0.67142">
        <ele>139.4</ele>
        <time>2017-01-29T09:30:55.000Z</time>
      </trkpt>
      <trkpt lat="44.47456" lon="0.67141">
        <ele>139.4</ele>
        <time>2017-01-29T09:30:56.000Z</time>
      </trkpt>
      <trkpt lat="44.47456" lon="0.67139">
        <ele>139.5</ele>
        <time>2017-01-29T09:30:57.000Z</time>
      </trkpt>
      <trkpt lat="44.47456" lon="0.67138">
        <ele>139.5</ele>
        <time>2017-01-29T09:30:58.000Z</time>
      </trkpt>
      <trkpt lat="44.47456" lon="0.67137">
        <ele>139.6</ele>
        <time>2017-01-29T09:30:59.000Z</time>
      </trkpt>
      <trkpt lat="44.47456" lon="0.67135">
        <ele>139.7</ele>
        <time>2017-01-29T09:31:00.000Z</time>
      </trkpt>
      <trkpt lat="44.47457" lon="0.67134">
        <ele>139.8</ele>
        <time>2017-01-29T09:31:01.000Z</time>
      </trkpt>
      <trkpt lat="44.47458" lon="0.67132">
        <ele>139.9</ele>
        <time>2017-01-29T09:31:02.000Z</time>
      </trkpt>
      <trkpt lat="44.47459" lon="0.67129">
        <ele>140.1</ele>
        <time>2017-01-29T09:31:03.000Z</time>
      </trkpt>
      <trkpt lat="44.4746" lon="0.67126">
        <ele>140.4</ele>
        <time>2017-01-29T09:31:04.000Z</time>
      </trkpt>
      <trkpt lat="44.47461" lon="0.67124">
        <ele>140.5</ele>
        <time>2017-01-29T09:31:05.000Z</time>
      </trkpt>
      <trkpt lat="44.47462" lon="0.67123">
        <ele>140.6</ele>
        <time>2017-01-29T09:31:06.000Z</time>
      </trkpt>
      <trkpt lat="44.47462" lon="0.67122">
        <ele>140.7</ele>
        <time>2017-01-29T09:31:07.000Z</time>
      </trkpt>
      <trkpt lat="44.47462" lon="0.67122">
        <ele>140.7</ele>
        <time>2017-01-29T09:31:08.000Z</time>
      </trkpt>
      <trkpt lat="44.47463" lon="0.67121">
        <ele>140.8</ele>
        <time>2017-01-29T09:31:09.000Z</time>
      </trkpt>
      <trkpt lat="44.47463" lon="0.6712">
        <ele>140.9</ele>
        <time>2017-01-29T09:31:10.000Z</time>
      </trkpt>
      <trkpt lat="44.47464" lon="0.67118">
        <ele>141.1</ele>
        <time>2017-01-29T09:31:11.000Z</time>
      </trkpt>
      <trkpt lat="44.47466" lon="0.67114">
        <ele>141.4</ele>
        <time>2017-01-29T09:31:12.000Z</time>
      </trkpt>
      <trkpt lat="44.47467" lon="0.67111">
        <ele>141.7</ele>
        <time>2017-01-29T09:31:13.000Z</time>
      </trkpt>
      <trkpt lat="44.47468" lon="0.6711">
        <ele>141.8</ele>
        <time>2017-01-29T09:31:14.000Z</time>
      </trkpt>
      <trkpt lat="44.47468" lon="0.67108">
        <ele>142</ele>
        <time>2017-01-29T09:31:15.000Z</time>
      </trkpt>
      <trkpt lat="44.47468" lon="0.67106">
        <ele>142</ele>
        <time>2017-01-29T09:31:16.000Z</time>
      </trkpt>
      <trkpt lat="44.47468" lon="0.67105">
        <ele>142.1</ele>
        <time>2017-01-29T09:31:17.000Z</time>
      </trkpt>
      <trkpt lat="44.47468" lon="0.67105">
        <ele>142.1</ele>
        <time>2017-01-29T09:31:18.000Z</time>
      </trkpt>
      <trkpt lat="44.47468" lon="0.67104">
        <ele>142.2</ele>
        <time>2017-01-29T09:31:19.000Z</time>
      </trkpt>
      <trkpt lat="44.47469" lon="0.67102">
        <ele>142.3</ele>
        <time>2017-01-29T09:31:20.000Z</time>
      </trkpt>
      <trkpt lat="44.4747" lon="0.67099">
        <ele>142.6</ele>
        <time>2017-01-29T09:31:21.000Z</time>
      </trkpt>
      <trkpt lat="44.47471" lon="0.67095">
        <ele>142.9</ele>
        <time>2017-01-29T09:31:22.000Z</time>
      </trkpt>
      <trkpt lat="44.47472" lon="0.67092">
        <ele>143.2</ele>
        <time>2017-01-29T09:31:23.000Z</time>
      </trkpt>
      <trkpt lat="44.47474" lon="0.67089">
        <ele>143.5</ele>
        <time>2017-01-29T09:31:24.000Z</time>
      </trkpt>
      <trkpt lat="44.47475" lon="0.67087">
        <ele>143.8</ele>
        <time>2017-01-29T09:31:25.000Z</time>
      </trkpt>
      <trkpt lat="44.47476" lon="0.67085">
        <ele>144</ele>
        <time>2017-01-29T09:31:26.000Z</time>
      </trkpt>
      <trkpt lat="44.47477" lon="0.67083">
        <ele>144.2</ele>
        <time>2017-01-29T09:31:27.000Z</time>
      </trkpt>
      <trkpt lat="44.47478" lon="0.67081">
        <ele>144.4</ele>
        <time>2017-01-29T09:31:28.000Z</time>
      </trkpt>
      <trkpt lat="44.47479" lon="0.67079">
        <ele>144.7</ele>
        <time>2017-01-29T09:31:29.000Z</time>
      </trkpt>
      <trkpt lat="44.4748" lon="0.67077">
        <ele>144.9</ele>
        <time>2017-01-29T09:31:30.000Z</time>
      </trkpt>
      <trkpt lat="44.47481" lon="0.67075">
        <ele>145.1</ele>
        <time>2017-01-29T09:31:31.000Z</time>
      </trkpt>
      <trkpt lat="44.47482" lon="0.67073">
        <ele>145.3</ele>
        <time>2017-01-29T09:31:32.000Z</time>
      </trkpt>
      <trkpt lat="44.47483" lon="0.67072">
        <ele>145.5</ele>
        <time>2017-01-29T09:31:33.000Z</time>
      </trkpt>
      <trkpt lat="44.47485" lon="0.6707">
        <ele>145.7</ele>
        <time>2017-01-29T09:31:34.000Z</time>
      </trkpt>
      <trkpt lat="44.47486" lon="0.67069">
        <ele>146</ele>
        <time>2017-01-29T09:31:35.000Z</time>
      </trkpt>
      <trkpt lat="44.47487" lon="0.67067">
        <ele>146.2</ele>
        <time>2017-01-29T09:31:36.000Z</time>
      </trkpt>
      <trkpt lat="44.47488" lon="0.67066">
        <ele>146.4</ele>
        <time>2017-01-29T09:31:37.000Z</time>
      </trkpt>
      <trkpt lat="44.47489" lon="0.67064">
        <ele>146.6</ele>
        <time>2017-01-29T09:31:38.000Z</time>
      </trkpt>
      <trkpt lat="44.4749" lon="0.67063">
        <ele>146.8</ele>
        <time>2017-01-29T09:31:39.000Z</time>
      </trkpt>
      <trkpt lat="44.47491" lon="0.67061">
        <ele>147</ele>
        <time>2017-01-29T09:31:40.000Z</time>
      </trkpt>
      <trkpt lat="44.47492" lon="0.67059">
        <ele>147.2</ele>
        <time>2017-01-29T09:31:41.000Z</time>
      </trkpt>
      <trkpt lat="44.47493" lon="0.67058">
        <ele>147.3</ele>
        <time>2017-01-29T09:31:42.000Z</time>
      </trkpt>
      <trkpt lat="44.47494" lon="0.67056">
        <ele>147.5</ele>
        <time>2017-01-29T09:31:43.000Z</time>
      </trkpt>
      <trkpt lat="44.47494" lon="0.67055">
        <ele>147.7</ele>
        <time>2017-01-29T09:31:44.000Z</time>
      </trkpt>
      <trkpt lat="44.47495" lon="0.67053">
        <ele>147.8</ele>
        <time>2017-01-29T09:31:45.000Z</time>
      </trkpt>
      <trkpt lat="44.47496" lon="0.67051">
        <ele>148</ele>
        <time>2017-01-29T09:31:46.000Z</time>
      </trkpt>
      <trkpt lat="44.47496" lon="0.6705">
        <ele>148.1</ele>
        <time>2017-01-29T09:31:47.000Z</time>
      </trkpt>
      <trkpt lat="44.47497" lon="0.67048">
        <ele>148.3</ele>
        <time>2017-01-29T09:31:48.000Z</time>
      </trkpt>
      <trkpt lat="44.47497" lon="0.67047">
        <ele>148.4</ele>
        <time>2017-01-29T09:31:49.000Z</time>
      </trkpt>
      <trkpt lat="44.47497" lon="0.67045">
        <ele>148.5</ele>
        <time>2017-01-29T09:31:50.000Z</time>
      </trkpt>
      <trkpt lat="44.47498" lon="0.67044">
        <ele>148.6</ele>
        <time>2017-01-29T09:31:51.000Z</time>
      </trkpt>
      <trkpt lat="44.47498" lon="0.67043">
        <ele>148.6</ele>
        <time>2017-01-29T09:31:52.000Z</time>
      </trkpt>
      <trkpt lat="44.47498" lon="0.67043">
        <ele>148.7</ele>
        <time>2017-01-29T09:31:53.000Z</time>
      </trkpt>
      <trkpt lat="44.47498" lon="0.67041">
        <ele>148.8</ele>
        <time>2017-01-29T09:31:54.000Z</time>
      </trkpt>
      <trkpt lat="44.47499" lon="0.6704">
        <ele>149</ele>
        <time>2017-01-29T09:31:55.000Z</time>
      </trkpt>
      <trkpt lat="44.47499" lon="0.67037">
        <ele>149.1</ele>
        <time>2017-01-29T09:31:56.000Z</time>
      </trkpt>
      <trkpt lat="44.47499" lon="0.67034">
        <ele>149.3</ele>
        <time>2017-01-29T09:31:57.000Z</time>
      </trkpt>
      <trkpt lat="44.47498" lon="0.67032">
        <ele>149.2</ele>
        <time>2017-01-29T09:31:58.000Z</time>
      </trkpt>
      <trkpt lat="44.47497" lon="0.67031">
        <ele>149.1</ele>
        <time>2017-01-29T09:31:59.000Z</time>
      </trkpt>
      <trkpt lat="44.47496" lon="0.6703">
        <ele>149</ele>
        <time>2017-01-29T09:32:00.000Z</time>
      </trkpt>
      <trkpt lat="44.47495" lon="0.67029">
        <ele>149</ele>
        <time>2017-01-29T09:32:01.000Z</time>
      </trkpt>
      <trkpt lat="44.47495" lon="0.67027">
        <ele>149</ele>
        <time>2017-01-29T09:32:02.000Z</time>
      </trkpt>
      <trkpt lat="44.47494" lon="0.67025">
        <ele>149.1</ele>
        <time>2017-01-29T09:32:03.000Z</time>
      </trkpt>
      <trkpt lat="44.47494" lon="0.67023">
        <ele>149.2</ele>
        <time>2017-01-29T09:32:04.000Z</time>
      </trkpt>
      <trkpt lat="44.47494" lon="0.67022">
        <ele>149.2</ele>
        <time>2017-01-29T09:32:05.000Z</time>
      </trkpt>
      <trkpt lat="44.47495" lon="0.67021">
        <ele>149.3</ele>
        <time>2017-01-29T09:32:06.000Z</time>
      </trkpt>
      <trkpt lat="44.47495" lon="0.6702">
        <ele>149.4</ele>
        <time>2017-01-29T09:32:07.000Z</time>
      </trkpt>
      <trkpt lat="44.47495" lon="0.67019">
        <ele>149.5</ele>
        <time>2017-01-29T09:32:08.000Z</time>
      </trkpt>
      <trkpt lat="44.47495" lon="0.67018">
        <ele>149.5</ele>
        <time>2017-01-29T09:32:09.000Z</time>
      </trkpt>
      <trkpt lat="44.47496" lon="0.67017">
        <ele>149.7</ele>
        <time>2017-01-29T09:32:10.000Z</time>
      </trkpt>
      <trkpt lat="44.47497" lon="0.67015">
        <ele>149.9</ele>
        <time>2017-01-29T09:32:11.000Z</time>
      </trkpt>
      <trkpt lat="44.47498" lon="0.67013">
        <ele>150.1</ele>
        <time>2017-01-29T09:32:12.000Z</time>
      </trkpt>
      <trkpt lat="44.47498" lon="0.67012">
        <ele>150.2</ele>
        <time>2017-01-29T09:32:13.000Z</time>
      </trkpt>
      <trkpt lat="44.47499" lon="0.67011">
        <ele>150.3</ele>
        <time>2017-01-29T09:32:14.000Z</time>
      </trkpt>
      <trkpt lat="44.475" lon="0.6701">
        <ele>150.5</ele>
        <time>2017-01-29T09:32:15.000Z</time>
      </trkpt>
      <trkpt lat="44.47501" lon="0.67008">
        <ele>150.6</ele>
        <time>2017-01-29T09:32:16.000Z</time>
      </trkpt>
      <trkpt lat="44.47502" lon="0.67008">
        <ele>150.7</ele>
        <time>2017-01-29T09:32:17.000Z</time>
      </trkpt>
      <trkpt lat="44.47504" lon="0.67008">
        <ele>150.7</ele>
        <time>2017-01-29T09:32:18.000Z</time>
      </trkpt>
      <trkpt lat="44.47505" lon="0.67008">
        <ele>150.7</ele>
        <time>2017-01-29T09:32:19.000Z</time>
      </trkpt>
      <trkpt lat="44.47507" lon="0.67008">
        <ele>150.8</ele>
        <time>2017-01-29T09:32:20.000Z</time>
      </trkpt>
      <trkpt lat="44.47508" lon="0.67007">
        <ele>150.9</ele>
        <time>2017-01-29T09:32:21.000Z</time>
      </trkpt>
      <trkpt lat="44.4751" lon="0.67006">
        <ele>151</ele>
        <time>2017-01-29T09:32:22.000Z</time>
      </trkpt>
      <trkpt lat="44.47511" lon="0.67004">
        <ele>151.1</ele>
        <time>2017-01-29T09:32:23.000Z</time>
      </trkpt>
      <trkpt lat="44.47513" lon="0.67003">
        <ele>151.2</ele>
        <time>2017-01-29T09:32:24.000Z</time>
      </trkpt>
      <trkpt lat="44.47514" lon="0.67001">
        <ele>151.3</ele>
        <time>2017-01-29T09:32:25.000Z</time>
      </trkpt>
      <trkpt lat="44.47515" lon="0.67">
        <ele>151.4</ele>
        <time>2017-01-29T09:32:26.000Z</time>
      </trkpt>
      <trkpt lat="44.47516" lon="0.66999">
        <ele>151.4</ele>
        <time>2017-01-29T09:32:27.000Z</time>
      </trkpt>
      <trkpt lat="44.47517" lon="0.66999">
        <ele>151.4</ele>
        <time>2017-01-29T09:32:28.000Z</time>
      </trkpt>
      <trkpt lat="44.47518" lon="0.66998">
        <ele>151.5</ele>
        <time>2017-01-29T09:32:29.000Z</time>
      </trkpt>
      <trkpt lat="44.4752" lon="0.66996">
        <ele>151.6</ele>
        <time>2017-01-29T09:32:30.000Z</time>
      </trkpt>
      <trkpt lat="44.47522" lon="0.66995">
        <ele>151.6</ele>
        <time>2017-01-29T09:32:31.000Z</time>
      </trkpt>
      <trkpt lat="44.47524" lon="0.66993">
        <ele>151.7</ele>
        <time>2017-01-29T09:32:32.000Z</time>
      </trkpt>
      <trkpt lat="44.47525" lon="0.66991">
        <ele>151.8</ele>
        <time>2017-01-29T09:32:33.000Z</time>
      </trkpt>
      <trkpt lat="44.47527" lon="0.66989">
        <ele>151.9</ele>
        <time>2017-01-29T09:32:34.000Z</time>
      </trkpt>
      <trkpt lat="44.47528" lon="0.66987">
        <ele>151.9</ele>
        <time>2017-01-29T09:32:35.000Z</time>
      </trkpt>
      <trkpt lat="44.47529" lon="0.66985">
        <ele>152</ele>
        <time>2017-01-29T09:32:36.000Z</time>
      </trkpt>
      <trkpt lat="44.47531" lon="0.66983">
        <ele>152</ele>
        <time>2017-01-29T09:32:37.000Z</time>
      </trkpt>
      <trkpt lat="44.47532" lon="0.66982">
        <ele>152.1</ele>
        <time>2017-01-29T09:32:38.000Z</time>
      </trkpt>
      <trkpt lat="44.47534" lon="0.6698">
        <ele>152.1</ele>
        <time>2017-01-29T09:32:39.000Z</time>
      </trkpt>
      <trkpt lat="44.47536" lon="0.66979">
        <ele>152.2</ele>
        <time>2017-01-29T09:32:40.000Z</time>
      </trkpt>
      <trkpt lat="44.47537" lon="0.66979">
        <ele>152.2</ele>
        <time>2017-01-29T09:32:41.000Z</time>
      </trkpt>
      <trkpt lat="44.47538" lon="0.66978">
        <ele>152.2</ele>
        <time>2017-01-29T09:32:42.000Z</time>
      </trkpt>
      <trkpt lat="44.4754" lon="0.66978">
        <ele>152.2</ele>
        <time>2017-01-29T09:32:43.000Z</time>
      </trkpt>
      <trkpt lat="44.4754" lon="0.66978">
        <ele>152.3</ele>
        <time>2017-01-29T09:32:44.000Z</time>
      </trkpt>
      <trkpt lat="44.4754" lon="0.66978">
        <ele>152.3</ele>
        <time>2017-01-29T09:32:45.000Z</time>
      </trkpt>
      <trkpt lat="44.4754" lon="0.66978">
        <ele>152.3</ele>
        <time>2017-01-29T09:32:46.000Z</time>
      </trkpt>
      <trkpt lat="44.47541" lon="0.66978">
        <ele>152.3</ele>
        <time>2017-01-29T09:32:47.000Z</time>
      </trkpt>
      <trkpt lat="44.47542" lon="0.66979">
        <ele>152.3</ele>
        <time>2017-01-29T09:32:48.000Z</time>
      </trkpt>
      <trkpt lat="44.47544" lon="0.66981">
        <ele>152.3</ele>
        <time>2017-01-29T09:32:49.000Z</time>
      </trkpt>
      <trkpt lat="44.47547" lon="0.66982">
        <ele>152.3</ele>
        <time>2017-01-29T09:32:50.000Z</time>
      </trkpt>
      <trkpt lat="44.4755" lon="0.66983">
        <ele>152.3</ele>
        <time>2017-01-29T09:32:51.000Z</time>
      </trkpt>
      <trkpt lat="44.47553" lon="0.66984">
        <ele>152.4</ele>
        <time>2017-01-29T09:32:52.000Z</time>
      </trkpt>
      <trkpt lat="44.47556" lon="0.66986">
        <ele>152.4</ele>
        <time>2017-01-29T09:32:53.000Z</time>
      </trkpt>
      <trkpt lat="44.47559" lon="0.66987">
        <ele>152.4</ele>
        <time>2017-01-29T09:32:54.000Z</time>
      </trkpt>
      <trkpt lat="44.47563" lon="0.66988">
        <ele>152.5</ele>
        <time>2017-01-29T09:32:55.000Z</time>
      </trkpt>
      <trkpt lat="44.47566" lon="0.66989">
        <ele>152.6</ele>
        <time>2017-01-29T09:32:56.000Z</time>
      </trkpt>
      <trkpt lat="44.47569" lon="0.66991">
        <ele>152.6</ele>
        <time>2017-01-29T09:32:57.000Z</time>
      </trkpt>
      <trkpt lat="44.47573" lon="0.66992">
        <ele>152.7</ele>
        <time>2017-01-29T09:32:58.000Z</time>
      </trkpt>
      <trkpt lat="44.47576" lon="0.66994">
        <ele>152.8</ele>
        <time>2017-01-29T09:32:59.000Z</time>
      </trkpt>
      <trkpt lat="44.47579" lon="0.66995">
        <ele>152.8</ele>
        <time>2017-01-29T09:33:00.000Z</time>
      </trkpt>
      <trkpt lat="44.47582" lon="0.66996">
        <ele>152.9</ele>
        <time>2017-01-29T09:33:01.000Z</time>
      </trkpt>
      <trkpt lat="44.47585" lon="0.66998">
        <ele>152.7</ele>
        <time>2017-01-29T09:33:02.000Z</time>
      </trkpt>
      <trkpt lat="44.47588" lon="0.66999">
        <ele>152.4</ele>
        <time>2017-01-29T09:33:03.000Z</time>
      </trkpt>
      <trkpt lat="44.47591" lon="0.67">
        <ele>152.1</ele>
        <time>2017-01-29T09:33:04.000Z</time>
      </trkpt>
      <trkpt lat="44.47594" lon="0.67002">
        <ele>151.8</ele>
        <time>2017-01-29T09:33:05.000Z</time>
      </trkpt>
      <trkpt lat="44.47597" lon="0.67003">
        <ele>151.4</ele>
        <time>2017-01-29T09:33:06.000Z</time>
      </trkpt>
      <trkpt lat="44.47599" lon="0.67004">
        <ele>151.1</ele>
        <time>2017-01-29T09:33:07.000Z</time>
      </trkpt>
      <trkpt lat="44.47601" lon="0.67005">
        <ele>150.8</ele>
        <time>2017-01-29T09:33:08.000Z</time>
      </trkpt>
      <trkpt lat="44.47604" lon="0.67007">
        <ele>150.5</ele>
        <time>2017-01-29T09:33:09.000Z</time>
      </trkpt>
      <trkpt lat="44.47606" lon="0.67008">
        <ele>150.2</ele>
        <time>2017-01-29T09:33:10.000Z</time>
      </trkpt>
      <trkpt lat="44.47608" lon="0.67009">
        <ele>150</ele>
        <time>2017-01-29T09:33:11.000Z</time>
      </trkpt>
      <trkpt lat="44.4761" lon="0.6701">
        <ele>149.8</ele>
        <time>2017-01-29T09:33:12.000Z</time>
      </trkpt>
      <trkpt lat="44.47612" lon="0.67011">
        <ele>149.5</ele>
        <time>2017-01-29T09:33:13.000Z</time>
      </trkpt>
      <trkpt lat="44.47614" lon="0.67011">
        <ele>149.3</ele>
        <time>2017-01-29T09:33:14.000Z</time>
      </trkpt>
      <trkpt lat="44.47616" lon="0.67012">
        <ele>149.1</ele>
        <time>2017-01-29T09:33:15.000Z</time>
      </trkpt>
      <trkpt lat="44.47618" lon="0.67012">
        <ele>148.8</ele>
        <time>2017-01-29T09:33:16.000Z</time>
      </trkpt>
      <trkpt lat="44.47621" lon="0.67013">
        <ele>148.6</ele>
        <time>2017-01-29T09:33:17.000Z</time>
      </trkpt>
      <trkpt lat="44.47624" lon="0.67013">
        <ele>148.3</ele>
        <time>2017-01-29T09:33:18.000Z</time>
      </trkpt>
      <trkpt lat="44.47627" lon="0.67013">
        <ele>148.1</ele>
        <time>2017-01-29T09:33:19.000Z</time>
      </trkpt>
      <trkpt lat="44.4763" lon="0.67012">
        <ele>147.8</ele>
        <time>2017-01-29T09:33:20.000Z</time>
      </trkpt>
      <trkpt lat="44.47633" lon="0.67012">
        <ele>147.5</ele>
        <time>2017-01-29T09:33:21.000Z</time>
      </trkpt>
      <trkpt lat="44.47636" lon="0.67011">
        <ele>147.2</ele>
        <time>2017-01-29T09:33:22.000Z</time>
      </trkpt>
      <trkpt lat="44.47639" lon="0.67011">
        <ele>146.9</ele>
        <time>2017-01-29T09:33:23.000Z</time>
      </trkpt>
      <trkpt lat="44.47642" lon="0.67009">
        <ele>146.6</ele>
        <time>2017-01-29T09:33:24.000Z</time>
      </trkpt>
      <trkpt lat="44.47646" lon="0.67008">
        <ele>146.3</ele>
        <time>2017-01-29T09:33:25.000Z</time>
      </trkpt>
      <trkpt lat="44.4765" lon="0.67006">
        <ele>145.9</ele>
        <time>2017-01-29T09:33:26.000Z</time>
      </trkpt>
      <trkpt lat="44.47654" lon="0.67003">
        <ele>145.4</ele>
        <time>2017-01-29T09:33:27.000Z</time>
      </trkpt>
      <trkpt lat="44.4766" lon="0.67001">
        <ele>144.8</ele>
        <time>2017-01-29T09:33:28.000Z</time>
      </trkpt>
      <trkpt lat="44.47666" lon="0.66998">
        <ele>144</ele>
        <time>2017-01-29T09:33:29.000Z</time>
      </trkpt>
      <trkpt lat="44.47673" lon="0.66996">
        <ele>143</ele>
        <time>2017-01-29T09:33:30.000Z</time>
      </trkpt>
      <trkpt lat="44.4768" lon="0.66995">
        <ele>142</ele>
        <time>2017-01-29T09:33:31.000Z</time>
      </trkpt>
      <trkpt lat="44.47688" lon="0.66995">
        <ele>141</ele>
        <time>2017-01-29T09:33:32.000Z</time>
      </trkpt>
      <trkpt lat="44.47696" lon="0.66996">
        <ele>140</ele>
        <time>2017-01-29T09:33:33.000Z</time>
      </trkpt>
      <trkpt lat="44.47703" lon="0.66998">
        <ele>139.1</ele>
        <time>2017-01-29T09:33:34.000Z</time>
      </trkpt>
      <trkpt lat="44.47711" lon="0.67">
        <ele>138.2</ele>
        <time>2017-01-29T09:33:35.000Z</time>
      </trkpt>
      <trkpt lat="44.47719" lon="0.67001">
        <ele>137.2</ele>
        <time>2017-01-29T09:33:36.000Z</time>
      </trkpt>
      <trkpt lat="44.47728" lon="0.67002">
        <ele>136.1</ele>
        <time>2017-01-29T09:33:37.000Z</time>
      </trkpt>
      <trkpt lat="44.47737" lon="0.67002">
        <ele>134.9</ele>
        <time>2017-01-29T09:33:38.000Z</time>
      </trkpt>
      <trkpt lat="44.47746" lon="0.67003">
        <ele>133.7</ele>
        <time>2017-01-29T09:33:39.000Z</time>
      </trkpt>
      <trkpt lat="44.47755" lon="0.67004">
        <ele>133.2</ele>
        <time>2017-01-29T09:33:40.000Z</time>
      </trkpt>
      <trkpt lat="44.47764" lon="0.67007">
        <ele>133.3</ele>
        <time>2017-01-29T09:33:41.000Z</time>
      </trkpt>
      <trkpt lat="44.47771" lon="0.67012">
        <ele>133.5</ele>
        <time>2017-01-29T09:33:42.000Z</time>
      </trkpt>
      <trkpt lat="44.47777" lon="0.67019">
        <ele>133.8</ele>
        <time>2017-01-29T09:33:43.000Z</time>
      </trkpt>
      <trkpt lat="44.47783" lon="0.67026">
        <ele>134.2</ele>
        <time>2017-01-29T09:33:44.000Z</time>
      </trkpt>
      <trkpt lat="44.47787" lon="0.67033">
        <ele>134.5</ele>
        <time>2017-01-29T09:33:45.000Z</time>
      </trkpt>
      <trkpt lat="44.47791" lon="0.67039">
        <ele>134.8</ele>
        <time>2017-01-29T09:33:46.000Z</time>
      </trkpt>
      <trkpt lat="44.47795" lon="0.67045">
        <ele>135.1</ele>
        <time>2017-01-29T09:33:47.000Z</time>
      </trkpt>
      <trkpt lat="44.47799" lon="0.6705">
        <ele>135.3</ele>
        <time>2017-01-29T09:33:48.000Z</time>
      </trkpt>
      <trkpt lat="44.47803" lon="0.67054">
        <ele>135.4</ele>
        <time>2017-01-29T09:33:49.000Z</time>
      </trkpt>
      <trkpt lat="44.47808" lon="0.67057">
        <ele>135.4</ele>
        <time>2017-01-29T09:33:50.000Z</time>
      </trkpt>
      <trkpt lat="44.47812" lon="0.67058">
        <ele>135.4</ele>
        <time>2017-01-29T09:33:51.000Z</time>
      </trkpt>
      <trkpt lat="44.47816" lon="0.67058">
        <ele>135.2</ele>
        <time>2017-01-29T09:33:52.000Z</time>
      </trkpt>
      <trkpt lat="44.4782" lon="0.67056">
        <ele>134.9</ele>
        <time>2017-01-29T09:33:53.000Z</time>
      </trkpt>
      <trkpt lat="44.47822" lon="0.67054">
        <ele>134.6</ele>
        <time>2017-01-29T09:33:54.000Z</time>
      </trkpt>
      <trkpt lat="44.47824" lon="0.6705">
        <ele>134.3</ele>
        <time>2017-01-29T09:33:55.000Z</time>
      </trkpt>
      <trkpt lat="44.47826" lon="0.67045">
        <ele>134</ele>
        <time>2017-01-29T09:33:56.000Z</time>
      </trkpt>
      <trkpt lat="44.47828" lon="0.6704">
        <ele>133.6</ele>
        <time>2017-01-29T09:33:57.000Z</time>
      </trkpt>
      <trkpt lat="44.47829" lon="0.67034">
        <ele>133.2</ele>
        <time>2017-01-29T09:33:58.000Z</time>
      </trkpt>
      <trkpt lat="44.4783" lon="0.67028">
        <ele>132.8</ele>
        <time>2017-01-29T09:33:59.000Z</time>
      </trkpt>
      <trkpt lat="44.47831" lon="0.67023">
        <ele>132.4</ele>
        <time>2017-01-29T09:34:00.000Z</time>
      </trkpt>
      <trkpt lat="44.47833" lon="0.67017">
        <ele>132</ele>
        <time>2017-01-29T09:34:01.000Z</time>
      </trkpt>
      <trkpt lat="44.47835" lon="0.67012">
        <ele>131.8</ele>
        <time>2017-01-29T09:34:02.000Z</time>
      </trkpt>
      <trkpt lat="44.47836" lon="0.67007">
        <ele>131.6</ele>
        <time>2017-01-29T09:34:03.000Z</time>
      </trkpt>
      <trkpt lat="44.47838" lon="0.67002">
        <ele>131.4</ele>
        <time>2017-01-29T09:34:04.000Z</time>
      </trkpt>
      <trkpt lat="44.4784" lon="0.66997">
        <ele>131.2</ele>
        <time>2017-01-29T09:34:05.000Z</time>
      </trkpt>
      <trkpt lat="44.47842" lon="0.66992">
        <ele>131.1</ele>
        <time>2017-01-29T09:34:06.000Z</time>
      </trkpt>
      <trkpt lat="44.47845" lon="0.66987">
        <ele>131</ele>
        <time>2017-01-29T09:34:07.000Z</time>
      </trkpt>
      <trkpt lat="44.47847" lon="0.66982">
        <ele>130.9</ele>
        <time>2017-01-29T09:34:08.000Z</time>
      </trkpt>
      <trkpt lat="44.47849" lon="0.66977">
        <ele>130.8</ele>
        <time>2017-01-29T09:34:09.000Z</time>
      </trkpt>
      <trkpt lat="44.47852" lon="0.66973">
        <ele>130.6</ele>
        <time>2017-01-29T09:34:10.000Z</time>
      </trkpt>
      <trkpt lat="44.47854" lon="0.66968">
        <ele>130.5</ele>
        <time>2017-01-29T09:34:11.000Z</time>
      </trkpt>
      <trkpt lat="44.47857" lon="0.66963">
        <ele>130.4</ele>
        <time>2017-01-29T09:34:12.000Z</time>
      </trkpt>
      <trkpt lat="44.4786" lon="0.66958">
        <ele>130.3</ele>
        <time>2017-01-29T09:34:13.000Z</time>
      </trkpt>
      <trkpt lat="44.47863" lon="0.66953">
        <ele>130.1</ele>
        <time>2017-01-29T09:34:14.000Z</time>
      </trkpt>
      <trkpt lat="44.47866" lon="0.66948">
        <ele>130</ele>
        <time>2017-01-29T09:34:15.000Z</time>
      </trkpt>
      <trkpt lat="44.47869" lon="0.66943">
        <ele>129.8</ele>
        <time>2017-01-29T09:34:16.000Z</time>
      </trkpt>
      <trkpt lat="44.47872" lon="0.66938">
        <ele>129.7</ele>
        <time>2017-01-29T09:34:17.000Z</time>
      </trkpt>
      <trkpt lat="44.47876" lon="0.66933">
        <ele>129.5</ele>
        <time>2017-01-29T09:34:18.000Z</time>
      </trkpt>
      <trkpt lat="44.47879" lon="0.66927">
        <ele>129.3</ele>
        <time>2017-01-29T09:34:19.000Z</time>
      </trkpt>
      <trkpt lat="44.47882" lon="0.66922">
        <ele>129.1</ele>
        <time>2017-01-29T09:34:20.000Z</time>
      </trkpt>
      <trkpt lat="44.47885" lon="0.66916">
        <ele>128.8</ele>
        <time>2017-01-29T09:34:21.000Z</time>
      </trkpt>
      <trkpt lat="44.47888" lon="0.6691">
        <ele>128.6</ele>
        <time>2017-01-29T09:34:22.000Z</time>
      </trkpt>
      <trkpt lat="44.47891" lon="0.66903">
        <ele>128.3</ele>
        <time>2017-01-29T09:34:23.000Z</time>
      </trkpt>
      <trkpt lat="44.47894" lon="0.66897">
        <ele>128</ele>
        <time>2017-01-29T09:34:24.000Z</time>
      </trkpt>
      <trkpt lat="44.47896" lon="0.6689">
        <ele>127.7</ele>
        <time>2017-01-29T09:34:25.000Z</time>
      </trkpt>
      <trkpt lat="44.47899" lon="0.66883">
        <ele>127.4</ele>
        <time>2017-01-29T09:34:26.000Z</time>
      </trkpt>
      <trkpt lat="44.47901" lon="0.66875">
        <ele>127</ele>
        <time>2017-01-29T09:34:27.000Z</time>
      </trkpt>
      <trkpt lat="44.47903" lon="0.66868">
        <ele>126.7</ele>
        <time>2017-01-29T09:34:28.000Z</time>
      </trkpt>
      <trkpt lat="44.47905" lon="0.6686">
        <ele>126.3</ele>
        <time>2017-01-29T09:34:29.000Z</time>
      </trkpt>
      <trkpt lat="44.47907" lon="0.66853">
        <ele>125.9</ele>
        <time>2017-01-29T09:34:30.000Z</time>
      </trkpt>
      <trkpt lat="44.47909" lon="0.66845">
        <ele>125.5</ele>
        <time>2017-01-29T09:34:31.000Z</time>
      </trkpt>
      <trkpt lat="44.47911" lon="0.66838">
        <ele>125.1</ele>
        <time>2017-01-29T09:34:32.000Z</time>
      </trkpt>
      <trkpt lat="44.47913" lon="0.6683">
        <ele>124.7</ele>
        <time>2017-01-29T09:34:33.000Z</time>
      </trkpt>
      <trkpt lat="44.47915" lon="0.66823">
        <ele>124.4</ele>
        <time>2017-01-29T09:34:34.000Z</time>
      </trkpt>
      <trkpt lat="44.47917" lon="0.66816">
        <ele>124.2</ele>
        <time>2017-01-29T09:34:35.000Z</time>
      </trkpt>
      <trkpt lat="44.47919" lon="0.66809">
        <ele>124</ele>
        <time>2017-01-29T09:34:36.000Z</time>
      </trkpt>
      <trkpt lat="44.47922" lon="0.66802">
        <ele>123.8</ele>
        <time>2017-01-29T09:34:37.000Z</time>
      </trkpt>
      <trkpt lat="44.47924" lon="0.66796">
        <ele>123.7</ele>
        <time>2017-01-29T09:34:38.000Z</time>
      </trkpt>
      <trkpt lat="44.47927" lon="0.66789">
        <ele>123.5</ele>
        <time>2017-01-29T09:34:39.000Z</time>
      </trkpt>
      <trkpt lat="44.47929" lon="0.66783">
        <ele>123.3</ele>
        <time>2017-01-29T09:34:40.000Z</time>
      </trkpt>
      <trkpt lat="44.47932" lon="0.66776">
        <ele>123.1</ele>
        <time>2017-01-29T09:34:41.000Z</time>
      </trkpt>
      <trkpt lat="44.47935" lon="0.6677">
        <ele>122.9</ele>
        <time>2017-01-29T09:34:42.000Z</time>
      </trkpt>
      <trkpt lat="44.47937" lon="0.66763">
        <ele>122.7</ele>
        <time>2017-01-29T09:34:43.000Z</time>
      </trkpt>
      <trkpt lat="44.4794" lon="0.66756">
        <ele>122.4</ele>
        <time>2017-01-29T09:34:44.000Z</time>
      </trkpt>
      <trkpt lat="44.47943" lon="0.66749">
        <ele>122.3</ele>
        <time>2017-01-29T09:34:45.000Z</time>
      </trkpt>
      <trkpt lat="44.47946" lon="0.66742">
        <ele>122.4</ele>
        <time>2017-01-29T09:34:46.000Z</time>
      </trkpt>
      <trkpt lat="44.47949" lon="0.66735">
        <ele>122.6</ele>
        <time>2017-01-29T09:34:47.000Z</time>
      </trkpt>
      <trkpt lat="44.47952" lon="0.66728">
        <ele>122.7</ele>
        <time>2017-01-29T09:34:48.000Z</time>
      </trkpt>
      <trkpt lat="44.47956" lon="0.6672">
        <ele>122.9</ele>
        <time>2017-01-29T09:34:49.000Z</time>
      </trkpt>
      <trkpt lat="44.47959" lon="0.66712">
        <ele>123</ele>
        <time>2017-01-29T09:34:50.000Z</time>
      </trkpt>
      <trkpt lat="44.47962" lon="0.66705">
        <ele>123.2</ele>
        <time>2017-01-29T09:34:51.000Z</time>
      </trkpt>
      <trkpt lat="44.47965" lon="0.66697">
        <ele>123.3</ele>
        <time>2017-01-29T09:34:52.000Z</time>
      </trkpt>
      <trkpt lat="44.47969" lon="0.66689">
        <ele>123.5</ele>
        <time>2017-01-29T09:34:53.000Z</time>
      </trkpt>
      <trkpt lat="44.47972" lon="0.66681">
        <ele>123.6</ele>
        <time>2017-01-29T09:34:54.000Z</time>
      </trkpt>
      <trkpt lat="44.47975" lon="0.66673">
        <ele>123.8</ele>
        <time>2017-01-29T09:34:55.000Z</time>
      </trkpt>
      <trkpt lat="44.47978" lon="0.66665">
        <ele>124</ele>
        <time>2017-01-29T09:34:56.000Z</time>
      </trkpt>
      <trkpt lat="44.47981" lon="0.66657">
        <ele>124.2</ele>
        <time>2017-01-29T09:34:57.000Z</time>
      </trkpt>
      <trkpt lat="44.47984" lon="0.6665">
        <ele>124.4</ele>
        <time>2017-01-29T09:34:58.000Z</time>
      </trkpt>
      <trkpt lat="44.47986" lon="0.66642">
        <ele>124.6</ele>
        <time>2017-01-29T09:34:59.000Z</time>
      </trkpt>
      <trkpt lat="44.47989" lon="0.66635">
        <ele>124.8</ele>
        <time>2017-01-29T09:35:00.000Z</time>
      </trkpt>
      <trkpt lat="44.47991" lon="0.66629">
        <ele>125</ele>
        <time>2017-01-29T09:35:01.000Z</time>
      </trkpt>
      <trkpt lat="44.47994" lon="0.66623">
        <ele>125.2</ele>
        <time>2017-01-29T09:35:02.000Z</time>
      </trkpt>
      <trkpt lat="44.47996" lon="0.66617">
        <ele>125.4</ele>
        <time>2017-01-29T09:35:03.000Z</time>
      </trkpt>
      <trkpt lat="44.47998" lon="0.66612">
        <ele>125.5</ele>
        <time>2017-01-29T09:35:04.000Z</time>
      </trkpt>
      <trkpt lat="44.48" lon="0.66608">
        <ele>125.7</ele>
        <time>2017-01-29T09:35:05.000Z</time>
      </trkpt>
      <trkpt lat="44.48002" lon="0.66605">
        <ele>125.9</ele>
        <time>2017-01-29T09:35:06.000Z</time>
      </trkpt>
      <trkpt lat="44.48004" lon="0.66603">
        <ele>126.1</ele>
        <time>2017-01-29T09:35:07.000Z</time>
      </trkpt>
      <trkpt lat="44.48006" lon="0.66603">
        <ele>126.3</ele>
        <time>2017-01-29T09:35:08.000Z</time>
      </trkpt>
      <trkpt lat="44.48008" lon="0.66603">
        <ele>126.5</ele>
        <time>2017-01-29T09:35:09.000Z</time>
      </trkpt>
      <trkpt lat="44.48011" lon="0.66604">
        <ele>126.7</ele>
        <time>2017-01-29T09:35:10.000Z</time>
      </trkpt>
      <trkpt lat="44.48013" lon="0.66604">
        <ele>126.9</ele>
        <time>2017-01-29T09:35:11.000Z</time>
      </trkpt>
      <trkpt lat="44.48015" lon="0.66605">
        <ele>127.1</ele>
        <time>2017-01-29T09:35:12.000Z</time>
      </trkpt>
      <trkpt lat="44.48018" lon="0.66605">
        <ele>127.4</ele>
        <time>2017-01-29T09:35:13.000Z</time>
      </trkpt>
      <trkpt lat="44.48021" lon="0.66605">
        <ele>127.6</ele>
        <time>2017-01-29T09:35:14.000Z</time>
      </trkpt>
      <trkpt lat="44.48023" lon="0.66605">
        <ele>127.8</ele>
        <time>2017-01-29T09:35:15.000Z</time>
      </trkpt>
      <trkpt lat="44.48025" lon="0.66605">
        <ele>128</ele>
        <time>2017-01-29T09:35:16.000Z</time>
      </trkpt>
      <trkpt lat="44.48027" lon="0.66606">
        <ele>128.2</ele>
        <time>2017-01-29T09:35:17.000Z</time>
      </trkpt>
      <trkpt lat="44.4803" lon="0.66606">
        <ele>128.4</ele>
        <time>2017-01-29T09:35:18.000Z</time>
      </trkpt>
      <trkpt lat="44.48032" lon="0.66607">
        <ele>128.6</ele>
        <time>2017-01-29T09:35:19.000Z</time>
      </trkpt>
      <trkpt lat="44.48034" lon="0.66607">
        <ele>128.8</ele>
        <time>2017-01-29T09:35:20.000Z</time>
      </trkpt>
      <trkpt lat="44.48036" lon="0.66607">
        <ele>129</ele>
        <time>2017-01-29T09:35:21.000Z</time>
      </trkpt>
      <trkpt lat="44.48038" lon="0.66607">
        <ele>129.2</ele>
        <time>2017-01-29T09:35:22.000Z</time>
      </trkpt>
      <trkpt lat="44.48041" lon="0.66607">
        <ele>129.4</ele>
        <time>2017-01-29T09:35:23.000Z</time>
      </trkpt>
      <trkpt lat="44.48043" lon="0.66608">
        <ele>129.6</ele>
        <time>2017-01-29T09:35:24.000Z</time>
      </trkpt>
      <trkpt lat="44.48046" lon="0.66608">
        <ele>129.8</ele>
        <time>2017-01-29T09:35:25.000Z</time>
      </trkpt>
      <trkpt lat="44.48048" lon="0.66609">
        <ele>130.1</ele>
        <time>2017-01-29T09:35:26.000Z</time>
      </trkpt>
      <trkpt lat="44.4805" lon="0.66609">
        <ele>130.3</ele>
        <time>2017-01-29T09:35:27.000Z</time>
      </trkpt>
      <trkpt lat="44.48052" lon="0.6661">
        <ele>130.5</ele>
        <time>2017-01-29T09:35:28.000Z</time>
      </trkpt>
      <trkpt lat="44.48055" lon="0.6661">
        <ele>130.7</ele>
        <time>2017-01-29T09:35:29.000Z</time>
      </trkpt>
      <trkpt lat="44.48057" lon="0.66609">
        <ele>130.9</ele>
        <time>2017-01-29T09:35:30.000Z</time>
      </trkpt>
      <trkpt lat="44.48059" lon="0.66609">
        <ele>131.1</ele>
        <time>2017-01-29T09:35:31.000Z</time>
      </trkpt>
      <trkpt lat="44.48062" lon="0.66608">
        <ele>131.3</ele>
        <time>2017-01-29T09:35:32.000Z</time>
      </trkpt>
      <trkpt lat="44.48064" lon="0.66608">
        <ele>131.5</ele>
        <time>2017-01-29T09:35:33.000Z</time>
      </trkpt>
      <trkpt lat="44.48066" lon="0.66608">
        <ele>131.7</ele>
        <time>2017-01-29T09:35:34.000Z</time>
      </trkpt>
      <trkpt lat="44.48068" lon="0.6661">
        <ele>131.9</ele>
        <time>2017-01-29T09:35:35.000Z</time>
      </trkpt>
      <trkpt lat="44.48071" lon="0.66611">
        <ele>132.2</ele>
        <time>2017-01-29T09:35:36.000Z</time>
      </trkpt>
      <trkpt lat="44.48073" lon="0.66612">
        <ele>132.4</ele>
        <time>2017-01-29T09:35:37.000Z</time>
      </trkpt>
      <trkpt lat="44.48075" lon="0.66614">
        <ele>132.6</ele>
        <time>2017-01-29T09:35:38.000Z</time>
      </trkpt>
      <trkpt lat="44.48077" lon="0.66614">
        <ele>132.8</ele>
        <time>2017-01-29T09:35:39.000Z</time>
      </trkpt>
      <trkpt lat="44.48079" lon="0.66614">
        <ele>133</ele>
        <time>2017-01-29T09:35:40.000Z</time>
      </trkpt>
      <trkpt lat="44.48082" lon="0.66613">
        <ele>133.2</ele>
        <time>2017-01-29T09:35:41.000Z</time>
      </trkpt>
      <trkpt lat="44.48084" lon="0.66612">
        <ele>133.4</ele>
        <time>2017-01-29T09:35:42.000Z</time>
      </trkpt>
      <trkpt lat="44.48086" lon="0.66611">
        <ele>133.5</ele>
        <time>2017-01-29T09:35:43.000Z</time>
      </trkpt>
      <trkpt lat="44.48088" lon="0.6661">
        <ele>133.6</ele>
        <time>2017-01-29T09:35:44.000Z</time>
      </trkpt>
      <trkpt lat="44.48091" lon="0.66609">
        <ele>133.8</ele>
        <time>2017-01-29T09:35:45.000Z</time>
      </trkpt>
      <trkpt lat="44.48093" lon="0.6661">
        <ele>133.9</ele>
        <time>2017-01-29T09:35:46.000Z</time>
      </trkpt>
      <trkpt lat="44.48095" lon="0.66611">
        <ele>134.1</ele>
        <time>2017-01-29T09:35:47.000Z</time>
      </trkpt>
      <trkpt lat="44.48097" lon="0.66613">
        <ele>134.2</ele>
        <time>2017-01-29T09:35:48.000Z</time>
      </trkpt>
      <trkpt lat="44.48098" lon="0.66615">
        <ele>134.4</ele>
        <time>2017-01-29T09:35:49.000Z</time>
      </trkpt>
      <trkpt lat="44.48099" lon="0.66618">
        <ele>134.5</ele>
        <time>2017-01-29T09:35:50.000Z</time>
      </trkpt>
      <trkpt lat="44.48101" lon="0.66619">
        <ele>134.6</ele>
        <time>2017-01-29T09:35:51.000Z</time>
      </trkpt>
      <trkpt lat="44.48103" lon="0.6662">
        <ele>134.8</ele>
        <time>2017-01-29T09:35:52.000Z</time>
      </trkpt>
      <trkpt lat="44.48105" lon="0.66621">
        <ele>135</ele>
        <time>2017-01-29T09:35:53.000Z</time>
      </trkpt>
      <trkpt lat="44.48107" lon="0.66622">
        <ele>135.1</ele>
        <time>2017-01-29T09:35:54.000Z</time>
      </trkpt>
      <trkpt lat="44.48109" lon="0.66623">
        <ele>135.3</ele>
        <time>2017-01-29T09:35:55.000Z</time>
      </trkpt>
      <trkpt lat="44.48112" lon="0.66623">
        <ele>135.5</ele>
        <time>2017-01-29T09:35:56.000Z</time>
      </trkpt>
      <trkpt lat="44.48114" lon="0.66624">
        <ele>135.7</ele>
        <time>2017-01-29T09:35:57.000Z</time>
      </trkpt>
      <trkpt lat="44.48116" lon="0.66625">
        <ele>135.8</ele>
        <time>2017-01-29T09:35:58.000Z</time>
      </trkpt>
      <trkpt lat="44.48118" lon="0.66626">
        <ele>136</ele>
        <time>2017-01-29T09:35:59.000Z</time>
      </trkpt>
      <trkpt lat="44.4812" lon="0.66627">
        <ele>136.2</ele>
        <time>2017-01-29T09:36:00.000Z</time>
      </trkpt>
      <trkpt lat="44.48122" lon="0.66628">
        <ele>136.4</ele>
        <time>2017-01-29T09:36:01.000Z</time>
      </trkpt>
      <trkpt lat="44.48124" lon="0.66629">
        <ele>136.6</ele>
        <time>2017-01-29T09:36:02.000Z</time>
      </trkpt>
      <trkpt lat="44.48125" lon="0.6663">
        <ele>136.7</ele>
        <time>2017-01-29T09:36:03.000Z</time>
      </trkpt>
      <trkpt lat="44.48127" lon="0.6663">
        <ele>136.8</ele>
        <time>2017-01-29T09:36:04.000Z</time>
      </trkpt>
      <trkpt lat="44.48129" lon="0.6663">
        <ele>137</ele>
        <time>2017-01-29T09:36:05.000Z</time>
      </trkpt>
      <trkpt lat="44.4813" lon="0.6663">
        <ele>137</ele>
        <time>2017-01-29T09:36:06.000Z</time>
      </trkpt>
      <trkpt lat="44.48131" lon="0.66629">
        <ele>137.1</ele>
        <time>2017-01-29T09:36:07.000Z</time>
      </trkpt>
      <trkpt lat="44.48133" lon="0.66628">
        <ele>137.2</ele>
        <time>2017-01-29T09:36:08.000Z</time>
      </trkpt>
      <trkpt lat="44.48134" lon="0.66626">
        <ele>137.2</ele>
        <time>2017-01-29T09:36:09.000Z</time>
      </trkpt>
      <trkpt lat="44.48135" lon="0.66624">
        <ele>137.2</ele>
        <time>2017-01-29T09:36:10.000Z</time>
      </trkpt>
      <trkpt lat="44.48136" lon="0.66621">
        <ele>137.1</ele>
        <time>2017-01-29T09:36:11.000Z</time>
      </trkpt>
      <trkpt lat="44.48137" lon="0.66618">
        <ele>137.1</ele>
        <time>2017-01-29T09:36:12.000Z</time>
      </trkpt>
      <trkpt lat="44.48138" lon="0.66616">
        <ele>137</ele>
        <time>2017-01-29T09:36:13.000Z</time>
      </trkpt>
      <trkpt lat="44.48139" lon="0.66613">
        <ele>136.9</ele>
        <time>2017-01-29T09:36:14.000Z</time>
      </trkpt>
      <trkpt lat="44.4814" lon="0.6661">
        <ele>136.9</ele>
        <time>2017-01-29T09:36:15.000Z</time>
      </trkpt>
      <trkpt lat="44.48141" lon="0.66607">
        <ele>136.8</ele>
        <time>2017-01-29T09:36:16.000Z</time>
      </trkpt>
      <trkpt lat="44.48142" lon="0.66604">
        <ele>136.8</ele>
        <time>2017-01-29T09:36:17.000Z</time>
      </trkpt>
      <trkpt lat="44.48143" lon="0.66601">
        <ele>136.7</ele>
        <time>2017-01-29T09:36:18.000Z</time>
      </trkpt>
      <trkpt lat="44.48145" lon="0.66599">
        <ele>136.7</ele>
        <time>2017-01-29T09:36:19.000Z</time>
      </trkpt>
      <trkpt lat="44.48146" lon="0.66596">
        <ele>136.6</ele>
        <time>2017-01-29T09:36:20.000Z</time>
      </trkpt>
      <trkpt lat="44.48147" lon="0.66594">
        <ele>136.6</ele>
        <time>2017-01-29T09:36:21.000Z</time>
      </trkpt>
      <trkpt lat="44.48148" lon="0.66592">
        <ele>136.5</ele>
        <time>2017-01-29T09:36:22.000Z</time>
      </trkpt>
      <trkpt lat="44.48149" lon="0.66589">
        <ele>136.4</ele>
        <time>2017-01-29T09:36:23.000Z</time>
      </trkpt>
      <trkpt lat="44.48149" lon="0.66587">
        <ele>136.3</ele>
        <time>2017-01-29T09:36:24.000Z</time>
      </trkpt>
      <trkpt lat="44.4815" lon="0.66584">
        <ele>136.2</ele>
        <time>2017-01-29T09:36:25.000Z</time>
      </trkpt>
      <trkpt lat="44.48151" lon="0.66581">
        <ele>136.2</ele>
        <time>2017-01-29T09:36:26.000Z</time>
      </trkpt>
      <trkpt lat="44.48151" lon="0.66578">
        <ele>136.1</ele>
        <time>2017-01-29T09:36:27.000Z</time>
      </trkpt>
      <trkpt lat="44.48152" lon="0.66574">
        <ele>136</ele>
        <time>2017-01-29T09:36:28.000Z</time>
      </trkpt>
      <trkpt lat="44.48153" lon="0.66571">
        <ele>136</ele>
        <time>2017-01-29T09:36:29.000Z</time>
      </trkpt>
      <trkpt lat="44.48153" lon="0.66567">
        <ele>135.9</ele>
        <time>2017-01-29T09:36:30.000Z</time>
      </trkpt>
      <trkpt lat="44.48154" lon="0.66563">
        <ele>135.8</ele>
        <time>2017-01-29T09:36:31.000Z</time>
      </trkpt>
      <trkpt lat="44.48154" lon="0.66559">
        <ele>135.7</ele>
        <time>2017-01-29T09:36:32.000Z</time>
      </trkpt>
      <trkpt lat="44.48155" lon="0.66555">
        <ele>135.6</ele>
        <time>2017-01-29T09:36:33.000Z</time>
      </trkpt>
      <trkpt lat="44.48155" lon="0.66551">
        <ele>135.5</ele>
        <time>2017-01-29T09:36:34.000Z</time>
      </trkpt>
      <trkpt lat="44.48155" lon="0.66547">
        <ele>135.4</ele>
        <time>2017-01-29T09:36:35.000Z</time>
      </trkpt>
      <trkpt lat="44.48156" lon="0.66543">
        <ele>135.3</ele>
        <time>2017-01-29T09:36:36.000Z</time>
      </trkpt>
      <trkpt lat="44.48156" lon="0.66538">
        <ele>135.1</ele>
        <time>2017-01-29T09:36:37.000Z</time>
      </trkpt>
      <trkpt lat="44.48156" lon="0.66534">
        <ele>135</ele>
        <time>2017-01-29T09:36:38.000Z</time>
      </trkpt>
      <trkpt lat="44.48157" lon="0.6653">
        <ele>134.9</ele>
        <time>2017-01-29T09:36:39.000Z</time>
      </trkpt>
      <trkpt lat="44.48157" lon="0.66525">
        <ele>134.8</ele>
        <time>2017-01-29T09:36:40.000Z</time>
      </trkpt>
      <trkpt lat="44.48157" lon="0.6652">
        <ele>134.6</ele>
        <time>2017-01-29T09:36:41.000Z</time>
      </trkpt>
      <trkpt lat="44.48157" lon="0.66515">
        <ele>134.5</ele>
        <time>2017-01-29T09:36:42.000Z</time>
      </trkpt>
      <trkpt lat="44.48158" lon="0.6651">
        <ele>134.3</ele>
        <time>2017-01-29T09:36:43.000Z</time>
      </trkpt>
      <trkpt lat="44.48158" lon="0.66504">
        <ele>134.1</ele>
        <time>2017-01-29T09:36:44.000Z</time>
      </trkpt>
      <trkpt lat="44.48159" lon="0.66498">
        <ele>133.9</ele>
        <time>2017-01-29T09:36:45.000Z</time>
      </trkpt>
      <trkpt lat="44.48159" lon="0.66492">
        <ele>133.6</ele>
        <time>2017-01-29T09:36:46.000Z</time>
      </trkpt>
      <trkpt lat="44.48159" lon="0.66486">
        <ele>133.3</ele>
        <time>2017-01-29T09:36:47.000Z</time>
      </trkpt>
      <trkpt lat="44.4816" lon="0.6648">
        <ele>133</ele>
        <time>2017-01-29T09:36:48.000Z</time>
      </trkpt>
      <trkpt lat="44.4816" lon="0.66474">
        <ele>132.7</ele>
        <time>2017-01-29T09:36:49.000Z</time>
      </trkpt>
      <trkpt lat="44.4816" lon="0.66467">
        <ele>132.4</ele>
        <time>2017-01-29T09:36:50.000Z</time>
      </trkpt>
      <trkpt lat="44.48161" lon="0.66461">
        <ele>132.1</ele>
        <time>2017-01-29T09:36:51.000Z</time>
      </trkpt>
      <trkpt lat="44.48161" lon="0.66454">
        <ele>131.8</ele>
        <time>2017-01-29T09:36:52.000Z</time>
      </trkpt>
      <trkpt lat="44.48161" lon="0.66447">
        <ele>131.4</ele>
        <time>2017-01-29T09:36:53.000Z</time>
      </trkpt>
      <trkpt lat="44.48162" lon="0.66439">
        <ele>131.1</ele>
        <time>2017-01-29T09:36:54.000Z</time>
      </trkpt>
      <trkpt lat="44.48163" lon="0.66432">
        <ele>130.7</ele>
        <time>2017-01-29T09:36:55.000Z</time>
      </trkpt>
      <trkpt lat="44.48164" lon="0.66424">
        <ele>130.3</ele>
        <time>2017-01-29T09:36:56.000Z</time>
      </trkpt>
      <trkpt lat="44.48164" lon="0.66416">
        <ele>130</ele>
        <time>2017-01-29T09:36:57.000Z</time>
      </trkpt>
      <trkpt lat="44.48165" lon="0.66408">
        <ele>129.7</ele>
        <time>2017-01-29T09:36:58.000Z</time>
      </trkpt>
      <trkpt lat="44.48166" lon="0.664">
        <ele>129.4</ele>
        <time>2017-01-29T09:36:59.000Z</time>
      </trkpt>
      <trkpt lat="44.48167" lon="0.66391">
        <ele>129.1</ele>
        <time>2017-01-29T09:37:00.000Z</time>
      </trkpt>
      <trkpt lat="44.48168" lon="0.66383">
        <ele>128.9</ele>
        <time>2017-01-29T09:37:01.000Z</time>
      </trkpt>
      <trkpt lat="44.48169" lon="0.66375">
        <ele>128.7</ele>
        <time>2017-01-29T09:37:02.000Z</time>
      </trkpt>
      <trkpt lat="44.4817" lon="0.66367">
        <ele>128.5</ele>
        <time>2017-01-29T09:37:03.000Z</time>
      </trkpt>
      <trkpt lat="44.48171" lon="0.66359">
        <ele>128.3</ele>
        <time>2017-01-29T09:37:04.000Z</time>
      </trkpt>
      <trkpt lat="44.48172" lon="0.66351">
        <ele>128.1</ele>
        <time>2017-01-29T09:37:05.000Z</time>
      </trkpt>
      <trkpt lat="44.48173" lon="0.66344">
        <ele>127.9</ele>
        <time>2017-01-29T09:37:06.000Z</time>
      </trkpt>
      <trkpt lat="44.48174" lon="0.66337">
        <ele>127.8</ele>
        <time>2017-01-29T09:37:07.000Z</time>
      </trkpt>
      <trkpt lat="44.48176" lon="0.6633">
        <ele>127.6</ele>
        <time>2017-01-29T09:37:08.000Z</time>
      </trkpt>
      <trkpt lat="44.48177" lon="0.66323">
        <ele>127.4</ele>
        <time>2017-01-29T09:37:09.000Z</time>
      </trkpt>
      <trkpt lat="44.48178" lon="0.66316">
        <ele>127.2</ele>
        <time>2017-01-29T09:37:10.000Z</time>
      </trkpt>
      <trkpt lat="44.4818" lon="0.66309">
        <ele>127</ele>
        <time>2017-01-29T09:37:11.000Z</time>
      </trkpt>
      <trkpt lat="44.48181" lon="0.66302">
        <ele>126.8</ele>
        <time>2017-01-29T09:37:12.000Z</time>
      </trkpt>
      <trkpt lat="44.48182" lon="0.66294">
        <ele>126.6</ele>
        <time>2017-01-29T09:37:13.000Z</time>
      </trkpt>
      <trkpt lat="44.48184" lon="0.66287">
        <ele>126.4</ele>
        <time>2017-01-29T09:37:14.000Z</time>
      </trkpt>
      <trkpt lat="44.48185" lon="0.6628">
        <ele>126.3</ele>
        <time>2017-01-29T09:37:15.000Z</time>
      </trkpt>
      <trkpt lat="44.48187" lon="0.66272">
        <ele>126.1</ele>
        <time>2017-01-29T09:37:16.000Z</time>
      </trkpt>
      <trkpt lat="44.48189" lon="0.66264">
        <ele>126</ele>
        <time>2017-01-29T09:37:17.000Z</time>
      </trkpt>
      <trkpt lat="44.4819" lon="0.66257">
        <ele>125.8</ele>
        <time>2017-01-29T09:37:18.000Z</time>
      </trkpt>
      <trkpt lat="44.48192" lon="0.66249">
        <ele>125.6</ele>
        <time>2017-01-29T09:37:19.000Z</time>
      </trkpt>
      <trkpt lat="44.48194" lon="0.6624">
        <ele>125.2</ele>
        <time>2017-01-29T09:37:20.000Z</time>
      </trkpt>
      <trkpt lat="44.48196" lon="0.66232">
        <ele>124.8</ele>
        <time>2017-01-29T09:37:21.000Z</time>
      </trkpt>
      <trkpt lat="44.48198" lon="0.66223">
        <ele>124.3</ele>
        <time>2017-01-29T09:37:22.000Z</time>
      </trkpt>
      <trkpt lat="44.48199" lon="0.66214">
        <ele>123.7</ele>
        <time>2017-01-29T09:37:23.000Z</time>
      </trkpt>
      <trkpt lat="44.48201" lon="0.66205">
        <ele>123.1</ele>
        <time>2017-01-29T09:37:24.000Z</time>
      </trkpt>
      <trkpt lat="44.48204" lon="0.66196">
        <ele>122.6</ele>
        <time>2017-01-29T09:37:25.000Z</time>
      </trkpt>
      <trkpt lat="44.48206" lon="0.66186">
        <ele>121.9</ele>
        <time>2017-01-29T09:37:26.000Z</time>
      </trkpt>
      <trkpt lat="44.48209" lon="0.66177">
        <ele>121.4</ele>
        <time>2017-01-29T09:37:27.000Z</time>
      </trkpt>
      <trkpt lat="44.48213" lon="0.66167">
        <ele>120.8</ele>
        <time>2017-01-29T09:37:28.000Z</time>
      </trkpt>
      <trkpt lat="44.48217" lon="0.66158">
        <ele>120.2</ele>
        <time>2017-01-29T09:37:29.000Z</time>
      </trkpt>
      <trkpt lat="44.48223" lon="0.6615">
        <ele>119.6</ele>
        <time>2017-01-29T09:37:30.000Z</time>
      </trkpt>
      <trkpt lat="44.48229" lon="0.66142">
        <ele>119</ele>
        <time>2017-01-29T09:37:31.000Z</time>
      </trkpt>
      <trkpt lat="44.48235" lon="0.66136">
        <ele>118.5</ele>
        <time>2017-01-29T09:37:32.000Z</time>
      </trkpt>
      <trkpt lat="44.48241" lon="0.66129">
        <ele>117.9</ele>
        <time>2017-01-29T09:37:33.000Z</time>
      </trkpt>
      <trkpt lat="44.48246" lon="0.66121">
        <ele>117</ele>
        <time>2017-01-29T09:37:34.000Z</time>
      </trkpt>
      <trkpt lat="44.48249" lon="0.66112">
        <ele>115.8</ele>
        <time>2017-01-29T09:37:35.000Z</time>
      </trkpt>
      <trkpt lat="44.48252" lon="0.66102">
        <ele>114.6</ele>
        <time>2017-01-29T09:37:36.000Z</time>
      </trkpt>
      <trkpt lat="44.48254" lon="0.66092">
        <ele>113.5</ele>
        <time>2017-01-29T09:37:37.000Z</time>
      </trkpt>
      <trkpt lat="44.48256" lon="0.66083">
        <ele>112.5</ele>
        <time>2017-01-29T09:37:38.000Z</time>
      </trkpt>
      <trkpt lat="44.48258" lon="0.66075">
        <ele>112.9</ele>
        <time>2017-01-29T09:37:39.000Z</time>
      </trkpt>
      <trkpt lat="44.48261" lon="0.6607">
        <ele>113.3</ele>
        <time>2017-01-29T09:37:40.000Z</time>
      </trkpt>
      <trkpt lat="44.48265" lon="0.66066">
        <ele>113.8</ele>
        <time>2017-01-29T09:37:41.000Z</time>
      </trkpt>
      <trkpt lat="44.48269" lon="0.66065">
        <ele>114.2</ele>
        <time>2017-01-29T09:37:42.000Z</time>
      </trkpt>
      <trkpt lat="44.48272" lon="0.66065">
        <ele>114.7</ele>
        <time>2017-01-29T09:37:43.000Z</time>
      </trkpt>
      <trkpt lat="44.48275" lon="0.66066">
        <ele>115</ele>
        <time>2017-01-29T09:37:44.000Z</time>
      </trkpt>
      <trkpt lat="44.48278" lon="0.66066">
        <ele>115.4</ele>
        <time>2017-01-29T09:37:45.000Z</time>
      </trkpt>
      <trkpt lat="44.48281" lon="0.66065">
        <ele>115.7</ele>
        <time>2017-01-29T09:37:46.000Z</time>
      </trkpt>
      <trkpt lat="44.48284" lon="0.66063">
        <ele>116.1</ele>
        <time>2017-01-29T09:37:47.000Z</time>
      </trkpt>
      <trkpt lat="44.48286" lon="0.6606">
        <ele>116.6</ele>
        <time>2017-01-29T09:37:48.000Z</time>
      </trkpt>
      <trkpt lat="44.48289" lon="0.66057">
        <ele>117</ele>
        <time>2017-01-29T09:37:49.000Z</time>
      </trkpt>
      <trkpt lat="44.48291" lon="0.66054">
        <ele>117.5</ele>
        <time>2017-01-29T09:37:50.000Z</time>
      </trkpt>
      <trkpt lat="44.48293" lon="0.66051">
        <ele>117.9</ele>
        <time>2017-01-29T09:37:51.000Z</time>
      </trkpt>
      <trkpt lat="44.48295" lon="0.66049">
        <ele>118.3</ele>
        <time>2017-01-29T09:37:52.000Z</time>
      </trkpt>
      <trkpt lat="44.48297" lon="0.66048">
        <ele>118.6</ele>
        <time>2017-01-29T09:37:53.000Z</time>
      </trkpt>
      <trkpt lat="44.48298" lon="0.66046">
        <ele>118.9</ele>
        <time>2017-01-29T09:37:54.000Z</time>
      </trkpt>
      <trkpt lat="44.483" lon="0.66046">
        <ele>119.3</ele>
        <time>2017-01-29T09:37:55.000Z</time>
      </trkpt>
      <trkpt lat="44.48302" lon="0.66045">
        <ele>119.6</ele>
        <time>2017-01-29T09:37:56.000Z</time>
      </trkpt>
      <trkpt lat="44.48304" lon="0.66043">
        <ele>120</ele>
        <time>2017-01-29T09:37:57.000Z</time>
      </trkpt>
      <trkpt lat="44.48306" lon="0.66042">
        <ele>120.4</ele>
        <time>2017-01-29T09:37:58.000Z</time>
      </trkpt>
      <trkpt lat="44.48308" lon="0.66041">
        <ele>120.8</ele>
        <time>2017-01-29T09:37:59.000Z</time>
      </trkpt>
      <trkpt lat="44.4831" lon="0.66039">
        <ele>121.2</ele>
        <time>2017-01-29T09:38:00.000Z</time>
      </trkpt>
      <trkpt lat="44.48312" lon="0.66038">
        <ele>121.5</ele>
        <time>2017-01-29T09:38:01.000Z</time>
      </trkpt>
      <trkpt lat="44.48313" lon="0.66037">
        <ele>121.8</ele>
        <time>2017-01-29T09:38:02.000Z</time>
      </trkpt>
      <trkpt lat="44.48313" lon="0.66037">
        <ele>121.9</ele>
        <time>2017-01-29T09:38:03.000Z</time>
      </trkpt>
      <trkpt lat="44.48314" lon="0.66036">
        <ele>122</ele>
        <time>2017-01-29T09:38:04.000Z</time>
      </trkpt>
      <trkpt lat="44.48314" lon="0.66036">
        <ele>122.1</ele>
        <time>2017-01-29T09:38:05.000Z</time>
      </trkpt>
      <trkpt lat="44.48315" lon="0.66035">
        <ele>122.3</ele>
        <time>2017-01-29T09:38:06.000Z</time>
      </trkpt>
      <trkpt lat="44.48316" lon="0.66035">
        <ele>122.5</ele>
        <time>2017-01-29T09:38:07.000Z</time>
      </trkpt>
      <trkpt lat="44.48317" lon="0.66034">
        <ele>122.7</ele>
        <time>2017-01-29T09:38:08.000Z</time>
      </trkpt>
      <trkpt lat="44.48319" lon="0.66034">
        <ele>123.1</ele>
        <time>2017-01-29T09:38:09.000Z</time>
      </trkpt>
      <trkpt lat="44.48323" lon="0.66033">
        <ele>123.7</ele>
        <time>2017-01-29T09:38:10.000Z</time>
      </trkpt>
      <trkpt lat="44.48325" lon="0.66032">
        <ele>124.2</ele>
        <time>2017-01-29T09:38:11.000Z</time>
      </trkpt>
      <trkpt lat="44.48327" lon="0.66032">
        <ele>124.5</ele>
        <time>2017-01-29T09:38:12.000Z</time>
      </trkpt>
      <trkpt lat="44.48329" lon="0.66032">
        <ele>124.9</ele>
        <time>2017-01-29T09:38:13.000Z</time>
      </trkpt>
      <trkpt lat="44.48331" lon="0.66031">
        <ele>125.3</ele>
        <time>2017-01-29T09:38:14.000Z</time>
      </trkpt>
      <trkpt lat="44.48333" lon="0.66031">
        <ele>125.6</ele>
        <time>2017-01-29T09:38:15.000Z</time>
      </trkpt>
      <trkpt lat="44.48334" lon="0.6603">
        <ele>125.8</ele>
        <time>2017-01-29T09:38:16.000Z</time>
      </trkpt>
      <trkpt lat="44.48335" lon="0.6603">
        <ele>126</ele>
        <time>2017-01-29T09:38:17.000Z</time>
      </trkpt>
      <trkpt lat="44.48336" lon="0.66029">
        <ele>126.1</ele>
        <time>2017-01-29T09:38:18.000Z</time>
      </trkpt>
      <trkpt lat="44.48337" lon="0.66029">
        <ele>126.3</ele>
        <time>2017-01-29T09:38:19.000Z</time>
      </trkpt>
      <trkpt lat="44.48339" lon="0.66028">
        <ele>126.5</ele>
        <time>2017-01-29T09:38:20.000Z</time>
      </trkpt>
      <trkpt lat="44.48342" lon="0.66027">
        <ele>126.8</ele>
        <time>2017-01-29T09:38:21.000Z</time>
      </trkpt>
      <trkpt lat="44.48343" lon="0.66027">
        <ele>127</ele>
        <time>2017-01-29T09:38:22.000Z</time>
      </trkpt>
      <trkpt lat="44.48345" lon="0.66026">
        <ele>127.2</ele>
        <time>2017-01-29T09:38:23.000Z</time>
      </trkpt>
      <trkpt lat="44.48347" lon="0.66025">
        <ele>127.5</ele>
        <time>2017-01-29T09:38:24.000Z</time>
      </trkpt>
      <trkpt lat="44.4835" lon="0.66024">
        <ele>127.8</ele>
        <time>2017-01-29T09:38:25.000Z</time>
      </trkpt>
      <trkpt lat="44.48352" lon="0.66024">
        <ele>128.1</ele>
        <time>2017-01-29T09:38:26.000Z</time>
      </trkpt>
      <trkpt lat="44.48354" lon="0.66023">
        <ele>128.3</ele>
        <time>2017-01-29T09:38:27.000Z</time>
      </trkpt>
      <trkpt lat="44.48355" lon="0.66023">
        <ele>128.5</ele>
        <time>2017-01-29T09:38:28.000Z</time>
      </trkpt>
      <trkpt lat="44.48356" lon="0.66022">
        <ele>128.6</ele>
        <time>2017-01-29T09:38:29.000Z</time>
      </trkpt>
      <trkpt lat="44.48357" lon="0.66022">
        <ele>128.7</ele>
        <time>2017-01-29T09:38:30.000Z</time>
      </trkpt>
      <trkpt lat="44.48358" lon="0.66022">
        <ele>128.8</ele>
        <time>2017-01-29T09:38:31.000Z</time>
      </trkpt>
      <trkpt lat="44.48358" lon="0.66022">
        <ele>128.8</ele>
        <time>2017-01-29T09:38:32.000Z</time>
      </trkpt>
      <trkpt lat="44.48358" lon="0.66022">
        <ele>128.9</ele>
        <time>2017-01-29T09:38:33.000Z</time>
      </trkpt>
      <trkpt lat="44.48359" lon="0.66021">
        <ele>128.9</ele>
        <time>2017-01-29T09:38:34.000Z</time>
      </trkpt>
      <trkpt lat="44.4836" lon="0.66021">
        <ele>129</ele>
        <time>2017-01-29T09:38:35.000Z</time>
      </trkpt>
      <trkpt lat="44.48362" lon="0.66021">
        <ele>129.2</ele>
        <time>2017-01-29T09:38:36.000Z</time>
      </trkpt>
      <trkpt lat="44.48364" lon="0.6602">
        <ele>129.6</ele>
        <time>2017-01-29T09:38:37.000Z</time>
      </trkpt>
      <trkpt lat="44.48367" lon="0.66019">
        <ele>129.9</ele>
        <time>2017-01-29T09:38:38.000Z</time>
      </trkpt>
      <trkpt lat="44.4837" lon="0.66018">
        <ele>130.2</ele>
        <time>2017-01-29T09:38:39.000Z</time>
      </trkpt>
      <trkpt lat="44.48371" lon="0.66018">
        <ele>130.3</ele>
        <time>2017-01-29T09:38:40.000Z</time>
      </trkpt>
      <trkpt lat="44.48372" lon="0.66018">
        <ele>130.4</ele>
        <time>2017-01-29T09:38:41.000Z</time>
      </trkpt>
      <trkpt lat="44.48374" lon="0.66018">
        <ele>130.6</ele>
        <time>2017-01-29T09:38:42.000Z</time>
      </trkpt>
      <trkpt lat="44.48375" lon="0.66018">
        <ele>130.7</ele>
        <time>2017-01-29T09:38:43.000Z</time>
      </trkpt>
      <trkpt lat="44.48377" lon="0.66018">
        <ele>130.8</ele>
        <time>2017-01-29T09:38:44.000Z</time>
      </trkpt>
      <trkpt lat="44.48377" lon="0.66018">
        <ele>130.9</ele>
        <time>2017-01-29T09:38:45.000Z</time>
      </trkpt>
      <trkpt lat="44.48378" lon="0.66017">
        <ele>131</ele>
        <time>2017-01-29T09:38:46.000Z</time>
      </trkpt>
      <trkpt lat="44.48379" lon="0.66017">
        <ele>131</ele>
        <time>2017-01-29T09:38:47.000Z</time>
      </trkpt>
      <trkpt lat="44.48379" lon="0.66017">
        <ele>131.1</ele>
        <time>2017-01-29T09:38:48.000Z</time>
      </trkpt>
      <trkpt lat="44.4838" lon="0.66017">
        <ele>131.2</ele>
        <time>2017-01-29T09:38:49.000Z</time>
      </trkpt>
      <trkpt lat="44.48381" lon="0.66017">
        <ele>131.2</ele>
        <time>2017-01-29T09:38:50.000Z</time>
      </trkpt>
      <trkpt lat="44.48382" lon="0.66017">
        <ele>131.3</ele>
        <time>2017-01-29T09:38:51.000Z</time>
      </trkpt>
      <trkpt lat="44.48383" lon="0.66017">
        <ele>131.4</ele>
        <time>2017-01-29T09:38:52.000Z</time>
      </trkpt>
      <trkpt lat="44.48387" lon="0.66018">
        <ele>131.7</ele>
        <time>2017-01-29T09:38:53.000Z</time>
      </trkpt>
      <trkpt lat="44.48388" lon="0.66018">
        <ele>131.8</ele>
        <time>2017-01-29T09:38:54.000Z</time>
      </trkpt>
      <trkpt lat="44.4839" lon="0.66018">
        <ele>132</ele>
        <time>2017-01-29T09:38:55.000Z</time>
      </trkpt>
      <trkpt lat="44.48391" lon="0.66017">
        <ele>132.1</ele>
        <time>2017-01-29T09:38:56.000Z</time>
      </trkpt>
      <trkpt lat="44.48393" lon="0.66017">
        <ele>132.3</ele>
        <time>2017-01-29T09:38:57.000Z</time>
      </trkpt>
      <trkpt lat="44.48394" lon="0.66017">
        <ele>132.4</ele>
        <time>2017-01-29T09:38:58.000Z</time>
      </trkpt>
      <trkpt lat="44.48395" lon="0.66017">
        <ele>132.5</ele>
        <time>2017-01-29T09:38:59.000Z</time>
      </trkpt>
      <trkpt lat="44.48395" lon="0.66017">
        <ele>132.6</ele>
        <time>2017-01-29T09:39:00.000Z</time>
      </trkpt>
      <trkpt lat="44.48396" lon="0.66016">
        <ele>132.6</ele>
        <time>2017-01-29T09:39:01.000Z</time>
      </trkpt>
      <trkpt lat="44.48396" lon="0.66016">
        <ele>132.7</ele>
        <time>2017-01-29T09:39:02.000Z</time>
      </trkpt>
      <trkpt lat="44.48397" lon="0.66016">
        <ele>132.7</ele>
        <time>2017-01-29T09:39:03.000Z</time>
      </trkpt>
      <trkpt lat="44.48397" lon="0.66016">
        <ele>132.8</ele>
        <time>2017-01-29T09:39:04.000Z</time>
      </trkpt>
      <trkpt lat="44.48398" lon="0.66016">
        <ele>132.8</ele>
        <time>2017-01-29T09:39:05.000Z</time>
      </trkpt>
      <trkpt lat="44.48399" lon="0.66016">
        <ele>132.9</ele>
        <time>2017-01-29T09:39:06.000Z</time>
      </trkpt>
      <trkpt lat="44.484" lon="0.66016">
        <ele>133</ele>
        <time>2017-01-29T09:39:07.000Z</time>
      </trkpt>
      <trkpt lat="44.48403" lon="0.66017">
        <ele>133.1</ele>
        <time>2017-01-29T09:39:08.000Z</time>
      </trkpt>
      <trkpt lat="44.48405" lon="0.66019">
        <ele>133.1</ele>
        <time>2017-01-29T09:39:09.000Z</time>
      </trkpt>
      <trkpt lat="44.48406" lon="0.66021">
        <ele>133.1</ele>
        <time>2017-01-29T09:39:10.000Z</time>
      </trkpt>
      <trkpt lat="44.48407" lon="0.66023">
        <ele>133</ele>
        <time>2017-01-29T09:39:11.000Z</time>
      </trkpt>
      <trkpt lat="44.48408" lon="0.66024">
        <ele>132.9</ele>
        <time>2017-01-29T09:39:12.000Z</time>
      </trkpt>
      <trkpt lat="44.48409" lon="0.66026">
        <ele>132.8</ele>
        <time>2017-01-29T09:39:13.000Z</time>
      </trkpt>
      <trkpt lat="44.4841" lon="0.66028">
        <ele>132.7</ele>
        <time>2017-01-29T09:39:14.000Z</time>
      </trkpt>
      <trkpt lat="44.48411" lon="0.66029">
        <ele>132.7</ele>
        <time>2017-01-29T09:39:15.000Z</time>
      </trkpt>
      <trkpt lat="44.48411" lon="0.66031">
        <ele>132.6</ele>
        <time>2017-01-29T09:39:16.000Z</time>
      </trkpt>
      <trkpt lat="44.48412" lon="0.66032">
        <ele>132.5</ele>
        <time>2017-01-29T09:39:17.000Z</time>
      </trkpt>
      <trkpt lat="44.48413" lon="0.66033">
        <ele>132.5</ele>
        <time>2017-01-29T09:39:18.000Z</time>
      </trkpt>
      <trkpt lat="44.48414" lon="0.66035">
        <ele>132.5</ele>
        <time>2017-01-29T09:39:19.000Z</time>
      </trkpt>
      <trkpt lat="44.48415" lon="0.66036">
        <ele>132.4</ele>
        <time>2017-01-29T09:39:20.000Z</time>
      </trkpt>
      <trkpt lat="44.48416" lon="0.66038">
        <ele>132.3</ele>
        <time>2017-01-29T09:39:21.000Z</time>
      </trkpt>
      <trkpt lat="44.48417" lon="0.66039">
        <ele>132.3</ele>
        <time>2017-01-29T09:39:22.000Z</time>
      </trkpt>
      <trkpt lat="44.48418" lon="0.66041">
        <ele>132.2</ele>
        <time>2017-01-29T09:39:23.000Z</time>
      </trkpt>
      <trkpt lat="44.48419" lon="0.66042">
        <ele>132.1</ele>
        <time>2017-01-29T09:39:24.000Z</time>
      </trkpt>
      <trkpt lat="44.4842" lon="0.66043">
        <ele>132</ele>
        <time>2017-01-29T09:39:25.000Z</time>
      </trkpt>
      <trkpt lat="44.48421" lon="0.66045">
        <ele>131.9</ele>
        <time>2017-01-29T09:39:26.000Z</time>
      </trkpt>
      <trkpt lat="44.48422" lon="0.66046">
        <ele>131.9</ele>
        <time>2017-01-29T09:39:27.000Z</time>
      </trkpt>
      <trkpt lat="44.48423" lon="0.66047">
        <ele>131.8</ele>
        <time>2017-01-29T09:39:28.000Z</time>
      </trkpt>
      <trkpt lat="44.48424" lon="0.66049">
        <ele>131.8</ele>
        <time>2017-01-29T09:39:29.000Z</time>
      </trkpt>
      <trkpt lat="44.48425" lon="0.6605">
        <ele>131.8</ele>
        <time>2017-01-29T09:39:30.000Z</time>
      </trkpt>
      <trkpt lat="44.48426" lon="0.66051">
        <ele>131.7</ele>
        <time>2017-01-29T09:39:31.000Z</time>
      </trkpt>
      <trkpt lat="44.48427" lon="0.66052">
        <ele>131.7</ele>
        <time>2017-01-29T09:39:32.000Z</time>
      </trkpt>
      <trkpt lat="44.48428" lon="0.66053">
        <ele>131.7</ele>
        <time>2017-01-29T09:39:33.000Z</time>
      </trkpt>
      <trkpt lat="44.48429" lon="0.66054">
        <ele>131.7</ele>
        <time>2017-01-29T09:39:34.000Z</time>
      </trkpt>
      <trkpt lat="44.48431" lon="0.66054">
        <ele>131.8</ele>
        <time>2017-01-29T09:39:35.000Z</time>
      </trkpt>
      <trkpt lat="44.48432" lon="0.66055">
        <ele>131.8</ele>
        <time>2017-01-29T09:39:36.000Z</time>
      </trkpt>
      <trkpt lat="44.48433" lon="0.66056">
        <ele>131.8</ele>
        <time>2017-01-29T09:39:37.000Z</time>
      </trkpt>
      <trkpt lat="44.48433" lon="0.66057">
        <ele>131.8</ele>
        <time>2017-01-29T09:39:38.000Z</time>
      </trkpt>
      <trkpt lat="44.48434" lon="0.66057">
        <ele>131.8</ele>
        <time>2017-01-29T09:39:39.000Z</time>
      </trkpt>
      <trkpt lat="44.48434" lon="0.66058">
        <ele>131.8</ele>
        <time>2017-01-29T09:39:40.000Z</time>
      </trkpt>
      <trkpt lat="44.48436" lon="0.66059">
        <ele>131.8</ele>
        <time>2017-01-29T09:39:41.000Z</time>
      </trkpt>
      <trkpt lat="44.48437" lon="0.6606">
        <ele>131.8</ele>
        <time>2017-01-29T09:39:42.000Z</time>
      </trkpt>
      <trkpt lat="44.48439" lon="0.66062">
        <ele>131.8</ele>
        <time>2017-01-29T09:39:43.000Z</time>
      </trkpt>
      <trkpt lat="44.4844" lon="0.66063">
        <ele>131.8</ele>
        <time>2017-01-29T09:39:44.000Z</time>
      </trkpt>
      <trkpt lat="44.4844" lon="0.66065">
        <ele>131.8</ele>
        <time>2017-01-29T09:39:45.000Z</time>
      </trkpt>
      <trkpt lat="44.48441" lon="0.66066">
        <ele>131.8</ele>
        <time>2017-01-29T09:39:46.000Z</time>
      </trkpt>
      <trkpt lat="44.48442" lon="0.66067">
        <ele>131.8</ele>
        <time>2017-01-29T09:39:47.000Z</time>
      </trkpt>
      <trkpt lat="44.48443" lon="0.66068">
        <ele>131.8</ele>
        <time>2017-01-29T09:39:48.000Z</time>
      </trkpt>
      <trkpt lat="44.48445" lon="0.66069">
        <ele>131.9</ele>
        <time>2017-01-29T09:39:49.000Z</time>
      </trkpt>
      <trkpt lat="44.48446" lon="0.6607">
        <ele>131.9</ele>
        <time>2017-01-29T09:39:50.000Z</time>
      </trkpt>
      <trkpt lat="44.48447" lon="0.66071">
        <ele>132</ele>
        <time>2017-01-29T09:39:51.000Z</time>
      </trkpt>
      <trkpt lat="44.48449" lon="0.66071">
        <ele>132.1</ele>
        <time>2017-01-29T09:39:52.000Z</time>
      </trkpt>
      <trkpt lat="44.4845" lon="0.66072">
        <ele>132.2</ele>
        <time>2017-01-29T09:39:53.000Z</time>
      </trkpt>
      <trkpt lat="44.48452" lon="0.66073">
        <ele>132.3</ele>
        <time>2017-01-29T09:39:54.000Z</time>
      </trkpt>
      <trkpt lat="44.48453" lon="0.66074">
        <ele>132.4</ele>
        <time>2017-01-29T09:39:55.000Z</time>
      </trkpt>
      <trkpt lat="44.48455" lon="0.66074">
        <ele>132.6</ele>
        <time>2017-01-29T09:39:56.000Z</time>
      </trkpt>
      <trkpt lat="44.48457" lon="0.66075">
        <ele>132.7</ele>
        <time>2017-01-29T09:39:57.000Z</time>
      </trkpt>
      <trkpt lat="44.48458" lon="0.66076">
        <ele>132.8</ele>
        <time>2017-01-29T09:39:58.000Z</time>
      </trkpt>
      <trkpt lat="44.48459" lon="0.66077">
        <ele>132.9</ele>
        <time>2017-01-29T09:39:59.000Z</time>
      </trkpt>
      <trkpt lat="44.48461" lon="0.66078">
        <ele>133</ele>
        <time>2017-01-29T09:40:00.000Z</time>
      </trkpt>
      <trkpt lat="44.48462" lon="0.66078">
        <ele>133.1</ele>
        <time>2017-01-29T09:40:01.000Z</time>
      </trkpt>
      <trkpt lat="44.48464" lon="0.66079">
        <ele>133.2</ele>
        <time>2017-01-29T09:40:02.000Z</time>
      </trkpt>
      <trkpt lat="44.48465" lon="0.6608">
        <ele>133.3</ele>
        <time>2017-01-29T09:40:03.000Z</time>
      </trkpt>
      <trkpt lat="44.48467" lon="0.66081">
        <ele>133.5</ele>
        <time>2017-01-29T09:40:04.000Z</time>
      </trkpt>
      <trkpt lat="44.48468" lon="0.66082">
        <ele>133.6</ele>
        <time>2017-01-29T09:40:05.000Z</time>
      </trkpt>
      <trkpt lat="44.48469" lon="0.66083">
        <ele>133.7</ele>
        <time>2017-01-29T09:40:06.000Z</time>
      </trkpt>
      <trkpt lat="44.48471" lon="0.66084">
        <ele>133.8</ele>
        <time>2017-01-29T09:40:07.000Z</time>
      </trkpt>
      <trkpt lat="44.48472" lon="0.66084">
        <ele>133.9</ele>
        <time>2017-01-29T09:40:08.000Z</time>
      </trkpt>
      <trkpt lat="44.48473" lon="0.66085">
        <ele>134</ele>
        <time>2017-01-29T09:40:09.000Z</time>
      </trkpt>
      <trkpt lat="44.48474" lon="0.66086">
        <ele>134.1</ele>
        <time>2017-01-29T09:40:10.000Z</time>
      </trkpt>
      <trkpt lat="44.48476" lon="0.66087">
        <ele>134.2</ele>
        <time>2017-01-29T09:40:11.000Z</time>
      </trkpt>
      <trkpt lat="44.48477" lon="0.66088">
        <ele>134.3</ele>
        <time>2017-01-29T09:40:12.000Z</time>
      </trkpt>
      <trkpt lat="44.48478" lon="0.66089">
        <ele>134.4</ele>
        <time>2017-01-29T09:40:13.000Z</time>
      </trkpt>
      <trkpt lat="44.4848" lon="0.6609">
        <ele>134.5</ele>
        <time>2017-01-29T09:40:14.000Z</time>
      </trkpt>
      <trkpt lat="44.48481" lon="0.66091">
        <ele>134.6</ele>
        <time>2017-01-29T09:40:15.000Z</time>
      </trkpt>
      <trkpt lat="44.48482" lon="0.66091">
        <ele>134.7</ele>
        <time>2017-01-29T09:40:16.000Z</time>
      </trkpt>
      <trkpt lat="44.48484" lon="0.66092">
        <ele>134.9</ele>
        <time>2017-01-29T09:40:17.000Z</time>
      </trkpt>
      <trkpt lat="44.48485" lon="0.66093">
        <ele>135</ele>
        <time>2017-01-29T09:40:18.000Z</time>
      </trkpt>
      <trkpt lat="44.48487" lon="0.66094">
        <ele>135.1</ele>
        <time>2017-01-29T09:40:19.000Z</time>
      </trkpt>
      <trkpt lat="44.48488" lon="0.66094">
        <ele>135.2</ele>
        <time>2017-01-29T09:40:20.000Z</time>
      </trkpt>
      <trkpt lat="44.48489" lon="0.66095">
        <ele>135.4</ele>
        <time>2017-01-29T09:40:21.000Z</time>
      </trkpt>
      <trkpt lat="44.48491" lon="0.66096">
        <ele>135.5</ele>
        <time>2017-01-29T09:40:22.000Z</time>
      </trkpt>
      <trkpt lat="44.48492" lon="0.66097">
        <ele>135.6</ele>
        <time>2017-01-29T09:40:23.000Z</time>
      </trkpt>
      <trkpt lat="44.48494" lon="0.66098">
        <ele>135.7</ele>
        <time>2017-01-29T09:40:24.000Z</time>
      </trkpt>
      <trkpt lat="44.48495" lon="0.66099">
        <ele>135.8</ele>
        <time>2017-01-29T09:40:25.000Z</time>
      </trkpt>
      <trkpt lat="44.48496" lon="0.661">
        <ele>135.9</ele>
        <time>2017-01-29T09:40:26.000Z</time>
      </trkpt>
      <trkpt lat="44.48497" lon="0.66101">
        <ele>136</ele>
        <time>2017-01-29T09:40:27.000Z</time>
      </trkpt>
      <trkpt lat="44.48499" lon="0.66102">
        <ele>136.2</ele>
        <time>2017-01-29T09:40:28.000Z</time>
      </trkpt>
      <trkpt lat="44.485" lon="0.66103">
        <ele>136.3</ele>
        <time>2017-01-29T09:40:29.000Z</time>
      </trkpt>
      <trkpt lat="44.48501" lon="0.66104">
        <ele>136.4</ele>
        <time>2017-01-29T09:40:30.000Z</time>
      </trkpt>
      <trkpt lat="44.48503" lon="0.66105">
        <ele>136.5</ele>
        <time>2017-01-29T09:40:31.000Z</time>
      </trkpt>
      <trkpt lat="44.48504" lon="0.66106">
        <ele>136.6</ele>
        <time>2017-01-29T09:40:32.000Z</time>
      </trkpt>
      <trkpt lat="44.48505" lon="0.66106">
        <ele>136.7</ele>
        <time>2017-01-29T09:40:33.000Z</time>
      </trkpt>
      <trkpt lat="44.48507" lon="0.66107">
        <ele>136.8</ele>
        <time>2017-01-29T09:40:34.000Z</time>
      </trkpt>
      <trkpt lat="44.48508" lon="0.66108">
        <ele>136.9</ele>
        <time>2017-01-29T09:40:35.000Z</time>
      </trkpt>
      <trkpt lat="44.48509" lon="0.66109">
        <ele>137.1</ele>
        <time>2017-01-29T09:40:36.000Z</time>
      </trkpt>
      <trkpt lat="44.4851" lon="0.66109">
        <ele>137.2</ele>
        <time>2017-01-29T09:40:37.000Z</time>
      </trkpt>
      <trkpt lat="44.48512" lon="0.6611">
        <ele>137.3</ele>
        <time>2017-01-29T09:40:38.000Z</time>
      </trkpt>
      <trkpt lat="44.48513" lon="0.66111">
        <ele>137.4</ele>
        <time>2017-01-29T09:40:39.000Z</time>
      </trkpt>
      <trkpt lat="44.48514" lon="0.66112">
        <ele>137.5</ele>
        <time>2017-01-29T09:40:40.000Z</time>
      </trkpt>
      <trkpt lat="44.48516" lon="0.66113">
        <ele>137.6</ele>
        <time>2017-01-29T09:40:41.000Z</time>
      </trkpt>
      <trkpt lat="44.48517" lon="0.66114">
        <ele>137.8</ele>
        <time>2017-01-29T09:40:42.000Z</time>
      </trkpt>
      <trkpt lat="44.48518" lon="0.66115">
        <ele>137.9</ele>
        <time>2017-01-29T09:40:43.000Z</time>
      </trkpt>
      <trkpt lat="44.4852" lon="0.66117">
        <ele>138</ele>
        <time>2017-01-29T09:40:44.000Z</time>
      </trkpt>
      <trkpt lat="44.48521" lon="0.66118">
        <ele>138.1</ele>
        <time>2017-01-29T09:40:45.000Z</time>
      </trkpt>
      <trkpt lat="44.48522" lon="0.66119">
        <ele>138.2</ele>
        <time>2017-01-29T09:40:46.000Z</time>
      </trkpt>
      <trkpt lat="44.48523" lon="0.6612">
        <ele>138.4</ele>
        <time>2017-01-29T09:40:47.000Z</time>
      </trkpt>
      <trkpt lat="44.48525" lon="0.66121">
        <ele>138.5</ele>
        <time>2017-01-29T09:40:48.000Z</time>
      </trkpt>
      <trkpt lat="44.48526" lon="0.66123">
        <ele>138.6</ele>
        <time>2017-01-29T09:40:49.000Z</time>
      </trkpt>
      <trkpt lat="44.48527" lon="0.66124">
        <ele>138.8</ele>
        <time>2017-01-29T09:40:50.000Z</time>
      </trkpt>
      <trkpt lat="44.48528" lon="0.66125">
        <ele>138.9</ele>
        <time>2017-01-29T09:40:51.000Z</time>
      </trkpt>
      <trkpt lat="44.4853" lon="0.66126">
        <ele>139</ele>
        <time>2017-01-29T09:40:52.000Z</time>
      </trkpt>
      <trkpt lat="44.48531" lon="0.66128">
        <ele>139.2</ele>
        <time>2017-01-29T09:40:53.000Z</time>
      </trkpt>
      <trkpt lat="44.48532" lon="0.66129">
        <ele>139.3</ele>
        <time>2017-01-29T09:40:54.000Z</time>
      </trkpt>
      <trkpt lat="44.48533" lon="0.6613">
        <ele>139.4</ele>
        <time>2017-01-29T09:40:55.000Z</time>
      </trkpt>
      <trkpt lat="44.48534" lon="0.66131">
        <ele>139.6</ele>
        <time>2017-01-29T09:40:56.000Z</time>
      </trkpt>
      <trkpt lat="44.48536" lon="0.66132">
        <ele>139.7</ele>
        <time>2017-01-29T09:40:57.000Z</time>
      </trkpt>
      <trkpt lat="44.48537" lon="0.66133">
        <ele>139.9</ele>
        <time>2017-01-29T09:40:58.000Z</time>
      </trkpt>
      <trkpt lat="44.48538" lon="0.66134">
        <ele>140</ele>
        <time>2017-01-29T09:40:59.000Z</time>
      </trkpt>
      <trkpt lat="44.48539" lon="0.66136">
        <ele>140.2</ele>
        <time>2017-01-29T09:41:00.000Z</time>
      </trkpt>
      <trkpt lat="44.4854" lon="0.66137">
        <ele>140.3</ele>
        <time>2017-01-29T09:41:01.000Z</time>
      </trkpt>
      <trkpt lat="44.48542" lon="0.66138">
        <ele>140.5</ele>
        <time>2017-01-29T09:41:02.000Z</time>
      </trkpt>
      <trkpt lat="44.48543" lon="0.66139">
        <ele>140.6</ele>
        <time>2017-01-29T09:41:03.000Z</time>
      </trkpt>
      <trkpt lat="44.48544" lon="0.6614">
        <ele>140.8</ele>
        <time>2017-01-29T09:41:04.000Z</time>
      </trkpt>
      <trkpt lat="44.48545" lon="0.66141">
        <ele>141</ele>
        <time>2017-01-29T09:41:05.000Z</time>
      </trkpt>
      <trkpt lat="44.48546" lon="0.66142">
        <ele>141.1</ele>
        <time>2017-01-29T09:41:06.000Z</time>
      </trkpt>
      <trkpt lat="44.48548" lon="0.66142">
        <ele>141.3</ele>
        <time>2017-01-29T09:41:07.000Z</time>
      </trkpt>
      <trkpt lat="44.48549" lon="0.66143">
        <ele>141.5</ele>
        <time>2017-01-29T09:41:08.000Z</time>
      </trkpt>
      <trkpt lat="44.4855" lon="0.66144">
        <ele>141.6</ele>
        <time>2017-01-29T09:41:09.000Z</time>
      </trkpt>
      <trkpt lat="44.48551" lon="0.66145">
        <ele>141.8</ele>
        <time>2017-01-29T09:41:10.000Z</time>
      </trkpt>
      <trkpt lat="44.48552" lon="0.66146">
        <ele>142</ele>
        <time>2017-01-29T09:41:11.000Z</time>
      </trkpt>
      <trkpt lat="44.48554" lon="0.66147">
        <ele>142.1</ele>
        <time>2017-01-29T09:41:12.000Z</time>
      </trkpt>
      <trkpt lat="44.48555" lon="0.66148">
        <ele>142.3</ele>
        <time>2017-01-29T09:41:13.000Z</time>
      </trkpt>
      <trkpt lat="44.48556" lon="0.66149">
        <ele>142.5</ele>
        <time>2017-01-29T09:41:14.000Z</time>
      </trkpt>
      <trkpt lat="44.48557" lon="0.6615">
        <ele>142.7</ele>
        <time>2017-01-29T09:41:15.000Z</time>
      </trkpt>
      <trkpt lat="44.48558" lon="0.66151">
        <ele>142.9</ele>
        <time>2017-01-29T09:41:16.000Z</time>
      </trkpt>
      <trkpt lat="44.4856" lon="0.66152">
        <ele>143.1</ele>
        <time>2017-01-29T09:41:17.000Z</time>
      </trkpt>
      <trkpt lat="44.48561" lon="0.66154">
        <ele>143.3</ele>
        <time>2017-01-29T09:41:18.000Z</time>
      </trkpt>
      <trkpt lat="44.48562" lon="0.66155">
        <ele>143.5</ele>
        <time>2017-01-29T09:41:19.000Z</time>
      </trkpt>
      <trkpt lat="44.48563" lon="0.66155">
        <ele>143.7</ele>
        <time>2017-01-29T09:41:20.000Z</time>
      </trkpt>
      <trkpt lat="44.48565" lon="0.66156">
        <ele>143.9</ele>
        <time>2017-01-29T09:41:21.000Z</time>
      </trkpt>
      <trkpt lat="44.48566" lon="0.66157">
        <ele>144.1</ele>
        <time>2017-01-29T09:41:22.000Z</time>
      </trkpt>
      <trkpt lat="44.48567" lon="0.66157">
        <ele>144.3</ele>
        <time>2017-01-29T09:41:23.000Z</time>
      </trkpt>
      <trkpt lat="44.48569" lon="0.66158">
        <ele>144.5</ele>
        <time>2017-01-29T09:41:24.000Z</time>
      </trkpt>
      <trkpt lat="44.4857" lon="0.66158">
        <ele>144.7</ele>
        <time>2017-01-29T09:41:25.000Z</time>
      </trkpt>
      <trkpt lat="44.48571" lon="0.66158">
        <ele>144.9</ele>
        <time>2017-01-29T09:41:26.000Z</time>
      </trkpt>
      <trkpt lat="44.48573" lon="0.66158">
        <ele>145.1</ele>
        <time>2017-01-29T09:41:27.000Z</time>
      </trkpt>
      <trkpt lat="44.48574" lon="0.66157">
        <ele>145.3</ele>
        <time>2017-01-29T09:41:28.000Z</time>
      </trkpt>
      <trkpt lat="44.48576" lon="0.66157">
        <ele>145.5</ele>
        <time>2017-01-29T09:41:29.000Z</time>
      </trkpt>
      <trkpt lat="44.48577" lon="0.66157">
        <ele>145.7</ele>
        <time>2017-01-29T09:41:30.000Z</time>
      </trkpt>
      <trkpt lat="44.48579" lon="0.66157">
        <ele>145.9</ele>
        <time>2017-01-29T09:41:31.000Z</time>
      </trkpt>
      <trkpt lat="44.4858" lon="0.66157">
        <ele>146.1</ele>
        <time>2017-01-29T09:41:32.000Z</time>
      </trkpt>
      <trkpt lat="44.48581" lon="0.66157">
        <ele>146.3</ele>
        <time>2017-01-29T09:41:33.000Z</time>
      </trkpt>
      <trkpt lat="44.48583" lon="0.66157">
        <ele>146.5</ele>
        <time>2017-01-29T09:41:34.000Z</time>
      </trkpt>
      <trkpt lat="44.48584" lon="0.66156">
        <ele>146.6</ele>
        <time>2017-01-29T09:41:35.000Z</time>
      </trkpt>
      <trkpt lat="44.48586" lon="0.66156">
        <ele>146.6</ele>
        <time>2017-01-29T09:41:36.000Z</time>
      </trkpt>
      <trkpt lat="44.48587" lon="0.66155">
        <ele>146.6</ele>
        <time>2017-01-29T09:41:37.000Z</time>
      </trkpt>
      <trkpt lat="44.48589" lon="0.66155">
        <ele>146.5</ele>
        <time>2017-01-29T09:41:38.000Z</time>
      </trkpt>
      <trkpt lat="44.4859" lon="0.66155">
        <ele>146.5</ele>
        <time>2017-01-29T09:41:39.000Z</time>
      </trkpt>
      <trkpt lat="44.48592" lon="0.66154">
        <ele>146.5</ele>
        <time>2017-01-29T09:41:40.000Z</time>
      </trkpt>
      <trkpt lat="44.48593" lon="0.66154">
        <ele>146.5</ele>
        <time>2017-01-29T09:41:41.000Z</time>
      </trkpt>
      <trkpt lat="44.48595" lon="0.66154">
        <ele>146.5</ele>
        <time>2017-01-29T09:41:42.000Z</time>
      </trkpt>
      <trkpt lat="44.48596" lon="0.66154">
        <ele>146.4</ele>
        <time>2017-01-29T09:41:43.000Z</time>
      </trkpt>
      <trkpt lat="44.48598" lon="0.66154">
        <ele>146.4</ele>
        <time>2017-01-29T09:41:44.000Z</time>
      </trkpt>
      <trkpt lat="44.486" lon="0.66154">
        <ele>146.4</ele>
        <time>2017-01-29T09:41:45.000Z</time>
      </trkpt>
      <trkpt lat="44.48601" lon="0.66154">
        <ele>146.4</ele>
        <time>2017-01-29T09:41:46.000Z</time>
      </trkpt>
      <trkpt lat="44.48603" lon="0.66154">
        <ele>146.4</ele>
        <time>2017-01-29T09:41:47.000Z</time>
      </trkpt>
      <trkpt lat="44.48604" lon="0.66153">
        <ele>146.4</ele>
        <time>2017-01-29T09:41:48.000Z</time>
      </trkpt>
      <trkpt lat="44.48606" lon="0.66153">
        <ele>146.3</ele>
        <time>2017-01-29T09:41:49.000Z</time>
      </trkpt>
      <trkpt lat="44.48607" lon="0.66153">
        <ele>146.3</ele>
        <time>2017-01-29T09:41:50.000Z</time>
      </trkpt>
      <trkpt lat="44.48608" lon="0.66153">
        <ele>146.3</ele>
        <time>2017-01-29T09:41:51.000Z</time>
      </trkpt>
      <trkpt lat="44.4861" lon="0.66153">
        <ele>146.3</ele>
        <time>2017-01-29T09:41:52.000Z</time>
      </trkpt>
      <trkpt lat="44.48611" lon="0.66153">
        <ele>146.3</ele>
        <time>2017-01-29T09:41:53.000Z</time>
      </trkpt>
      <trkpt lat="44.48612" lon="0.66153">
        <ele>146.3</ele>
        <time>2017-01-29T09:41:54.000Z</time>
      </trkpt>
      <trkpt lat="44.48614" lon="0.66154">
        <ele>146.3</ele>
        <time>2017-01-29T09:41:55.000Z</time>
      </trkpt>
      <trkpt lat="44.48615" lon="0.66155">
        <ele>146.3</ele>
        <time>2017-01-29T09:41:56.000Z</time>
      </trkpt>
      <trkpt lat="44.48616" lon="0.66156">
        <ele>146.4</ele>
        <time>2017-01-29T09:41:57.000Z</time>
      </trkpt>
      <trkpt lat="44.48617" lon="0.66158">
        <ele>146.5</ele>
        <time>2017-01-29T09:41:58.000Z</time>
      </trkpt>
      <trkpt lat="44.48618" lon="0.6616">
        <ele>146.6</ele>
        <time>2017-01-29T09:41:59.000Z</time>
      </trkpt>
      <trkpt lat="44.48618" lon="0.66162">
        <ele>146.7</ele>
        <time>2017-01-29T09:42:00.000Z</time>
      </trkpt>
      <trkpt lat="44.48618" lon="0.66164">
        <ele>146.8</ele>
        <time>2017-01-29T09:42:01.000Z</time>
      </trkpt>
      <trkpt lat="44.48618" lon="0.66166">
        <ele>147</ele>
        <time>2017-01-29T09:42:02.000Z</time>
      </trkpt>
      <trkpt lat="44.48618" lon="0.66168">
        <ele>147</ele>
        <time>2017-01-29T09:42:03.000Z</time>
      </trkpt>
      <trkpt lat="44.48618" lon="0.6617">
        <ele>147</ele>
        <time>2017-01-29T09:42:04.000Z</time>
      </trkpt>
      <trkpt lat="44.48618" lon="0.66172">
        <ele>147.1</ele>
        <time>2017-01-29T09:42:05.000Z</time>
      </trkpt>
      <trkpt lat="44.48618" lon="0.66174">
        <ele>147.1</ele>
        <time>2017-01-29T09:42:06.000Z</time>
      </trkpt>
      <trkpt lat="44.48617" lon="0.66176">
        <ele>147.1</ele>
        <time>2017-01-29T09:42:07.000Z</time>
      </trkpt>
      <trkpt lat="44.48617" lon="0.66178">
        <ele>147.2</ele>
        <time>2017-01-29T09:42:08.000Z</time>
      </trkpt>
      <trkpt lat="44.48617" lon="0.6618">
        <ele>147.2</ele>
        <time>2017-01-29T09:42:09.000Z</time>
      </trkpt>
      <trkpt lat="44.48617" lon="0.66183">
        <ele>147.2</ele>
        <time>2017-01-29T09:42:10.000Z</time>
      </trkpt>
      <trkpt lat="44.48617" lon="0.66185">
        <ele>147.3</ele>
        <time>2017-01-29T09:42:11.000Z</time>
      </trkpt>
      <trkpt lat="44.48618" lon="0.66187">
        <ele>147.3</ele>
        <time>2017-01-29T09:42:12.000Z</time>
      </trkpt>
      <trkpt lat="44.48618" lon="0.66189">
        <ele>147.3</ele>
        <time>2017-01-29T09:42:13.000Z</time>
      </trkpt>
      <trkpt lat="44.48618" lon="0.66191">
        <ele>147.4</ele>
        <time>2017-01-29T09:42:14.000Z</time>
      </trkpt>
      <trkpt lat="44.48618" lon="0.66194">
        <ele>147.4</ele>
        <time>2017-01-29T09:42:15.000Z</time>
      </trkpt>
      <trkpt lat="44.48618" lon="0.66196">
        <ele>147.4</ele>
        <time>2017-01-29T09:42:16.000Z</time>
      </trkpt>
      <trkpt lat="44.48618" lon="0.66198">
        <ele>147.5</ele>
        <time>2017-01-29T09:42:17.000Z</time>
      </trkpt>
      <trkpt lat="44.48618" lon="0.66201">
        <ele>147.5</ele>
        <time>2017-01-29T09:42:18.000Z</time>
      </trkpt>
      <trkpt lat="44.48618" lon="0.66203">
        <ele>147.5</ele>
        <time>2017-01-29T09:42:19.000Z</time>
      </trkpt>
      <trkpt lat="44.48618" lon="0.66206">
        <ele>147.6</ele>
        <time>2017-01-29T09:42:20.000Z</time>
      </trkpt>
      <trkpt lat="44.48618" lon="0.66208">
        <ele>147.6</ele>
        <time>2017-01-29T09:42:21.000Z</time>
      </trkpt>
      <trkpt lat="44.48618" lon="0.6621">
        <ele>147.6</ele>
        <time>2017-01-29T09:42:22.000Z</time>
      </trkpt>
      <trkpt lat="44.48618" lon="0.66213">
        <ele>147.7</ele>
        <time>2017-01-29T09:42:23.000Z</time>
      </trkpt>
      <trkpt lat="44.48618" lon="0.66215">
        <ele>147.7</ele>
        <time>2017-01-29T09:42:24.000Z</time>
      </trkpt>
      <trkpt lat="44.48618" lon="0.66217">
        <ele>147.7</ele>
        <time>2017-01-29T09:42:25.000Z</time>
      </trkpt>
      <trkpt lat="44.48618" lon="0.66219">
        <ele>147.8</ele>
        <time>2017-01-29T09:42:26.000Z</time>
      </trkpt>
      <trkpt lat="44.48618" lon="0.66221">
        <ele>147.8</ele>
        <time>2017-01-29T09:42:27.000Z</time>
      </trkpt>
      <trkpt lat="44.48618" lon="0.66223">
        <ele>147.8</ele>
        <time>2017-01-29T09:42:28.000Z</time>
      </trkpt>
      <trkpt lat="44.48618" lon="0.66225">
        <ele>147.9</ele>
        <time>2017-01-29T09:42:29.000Z</time>
      </trkpt>
      <trkpt lat="44.48618" lon="0.66228">
        <ele>147.9</ele>
        <time>2017-01-29T09:42:30.000Z</time>
      </trkpt>
      <trkpt lat="44.48618" lon="0.6623">
        <ele>148</ele>
        <time>2017-01-29T09:42:31.000Z</time>
      </trkpt>
      <trkpt lat="44.48619" lon="0.66233">
        <ele>148</ele>
        <time>2017-01-29T09:42:32.000Z</time>
      </trkpt>
      <trkpt lat="44.48619" lon="0.66235">
        <ele>148</ele>
        <time>2017-01-29T09:42:33.000Z</time>
      </trkpt>
      <trkpt lat="44.48619" lon="0.66238">
        <ele>148.1</ele>
        <time>2017-01-29T09:42:34.000Z</time>
      </trkpt>
      <trkpt lat="44.48619" lon="0.66241">
        <ele>148.1</ele>
        <time>2017-01-29T09:42:35.000Z</time>
      </trkpt>
      <trkpt lat="44.48619" lon="0.66243">
        <ele>148.2</ele>
        <time>2017-01-29T09:42:36.000Z</time>
      </trkpt>
      <trkpt lat="44.48619" lon="0.66246">
        <ele>148.2</ele>
        <time>2017-01-29T09:42:37.000Z</time>
      </trkpt>
      <trkpt lat="44.4862" lon="0.66248">
        <ele>148.3</ele>
        <time>2017-01-29T09:42:38.000Z</time>
      </trkpt>
      <trkpt lat="44.4862" lon="0.66251">
        <ele>148.3</ele>
        <time>2017-01-29T09:42:39.000Z</time>
      </trkpt>
      <trkpt lat="44.4862" lon="0.66253">
        <ele>148.3</ele>
        <time>2017-01-29T09:42:40.000Z</time>
      </trkpt>
      <trkpt lat="44.4862" lon="0.66256">
        <ele>148.3</ele>
        <time>2017-01-29T09:42:41.000Z</time>
      </trkpt>
      <trkpt lat="44.4862" lon="0.66258">
        <ele>148.3</ele>
        <time>2017-01-29T09:42:42.000Z</time>
      </trkpt>
      <trkpt lat="44.4862" lon="0.66261">
        <ele>148.3</ele>
        <time>2017-01-29T09:42:43.000Z</time>
      </trkpt>
      <trkpt lat="44.48621" lon="0.66263">
        <ele>148.3</ele>
        <time>2017-01-29T09:42:44.000Z</time>
      </trkpt>
      <trkpt lat="44.48621" lon="0.66266">
        <ele>148.3</ele>
        <time>2017-01-29T09:42:45.000Z</time>
      </trkpt>
      <trkpt lat="44.48621" lon="0.66269">
        <ele>148.3</ele>
        <time>2017-01-29T09:42:46.000Z</time>
      </trkpt>
      <trkpt lat="44.48621" lon="0.66271">
        <ele>148.3</ele>
        <time>2017-01-29T09:42:47.000Z</time>
      </trkpt>
      <trkpt lat="44.48622" lon="0.66274">
        <ele>148.3</ele>
        <time>2017-01-29T09:42:48.000Z</time>
      </trkpt>
      <trkpt lat="44.48622" lon="0.66277">
        <ele>148.3</ele>
        <time>2017-01-29T09:42:49.000Z</time>
      </trkpt>
      <trkpt lat="44.48622" lon="0.66279">
        <ele>148.3</ele>
        <time>2017-01-29T09:42:50.000Z</time>
      </trkpt>
      <trkpt lat="44.48623" lon="0.66282">
        <ele>148.3</ele>
        <time>2017-01-29T09:42:51.000Z</time>
      </trkpt>
      <trkpt lat="44.48623" lon="0.66285">
        <ele>148.2</ele>
        <time>2017-01-29T09:42:52.000Z</time>
      </trkpt>
      <trkpt lat="44.48623" lon="0.66288">
        <ele>148.2</ele>
        <time>2017-01-29T09:42:53.000Z</time>
      </trkpt>
      <trkpt lat="44.48624" lon="0.66291">
        <ele>148.2</ele>
        <time>2017-01-29T09:42:54.000Z</time>
      </trkpt>
      <trkpt lat="44.48624" lon="0.66294">
        <ele>148.2</ele>
        <time>2017-01-29T09:42:55.000Z</time>
      </trkpt>
      <trkpt lat="44.48625" lon="0.66297">
        <ele>148.2</ele>
        <time>2017-01-29T09:42:56.000Z</time>
      </trkpt>
      <trkpt lat="44.48625" lon="0.663">
        <ele>148.2</ele>
        <time>2017-01-29T09:42:57.000Z</time>
      </trkpt>
      <trkpt lat="44.48625" lon="0.66303">
        <ele>148.2</ele>
        <time>2017-01-29T09:42:58.000Z</time>
      </trkpt>
      <trkpt lat="44.48626" lon="0.66307">
        <ele>148.2</ele>
        <time>2017-01-29T09:42:59.000Z</time>
      </trkpt>
      <trkpt lat="44.48626" lon="0.6631">
        <ele>148.2</ele>
        <time>2017-01-29T09:43:00.000Z</time>
      </trkpt>
      <trkpt lat="44.48627" lon="0.66313">
        <ele>148.1</ele>
        <time>2017-01-29T09:43:01.000Z</time>
      </trkpt>
      <trkpt lat="44.48627" lon="0.66316">
        <ele>148.1</ele>
        <time>2017-01-29T09:43:02.000Z</time>
      </trkpt>
      <trkpt lat="44.48627" lon="0.66319">
        <ele>148.1</ele>
        <time>2017-01-29T09:43:03.000Z</time>
      </trkpt>
      <trkpt lat="44.48628" lon="0.66323">
        <ele>148.1</ele>
        <time>2017-01-29T09:43:04.000Z</time>
      </trkpt>
      <trkpt lat="44.48628" lon="0.66326">
        <ele>148.1</ele>
        <time>2017-01-29T09:43:05.000Z</time>
      </trkpt>
      <trkpt lat="44.48628" lon="0.66329">
        <ele>148</ele>
        <time>2017-01-29T09:43:06.000Z</time>
      </trkpt>
      <trkpt lat="44.48629" lon="0.66332">
        <ele>148</ele>
        <time>2017-01-29T09:43:07.000Z</time>
      </trkpt>
      <trkpt lat="44.48629" lon="0.66335">
        <ele>148</ele>
        <time>2017-01-29T09:43:08.000Z</time>
      </trkpt>
      <trkpt lat="44.48629" lon="0.66338">
        <ele>148.1</ele>
        <time>2017-01-29T09:43:09.000Z</time>
      </trkpt>
      <trkpt lat="44.4863" lon="0.66341">
        <ele>148.2</ele>
        <time>2017-01-29T09:43:10.000Z</time>
      </trkpt>
      <trkpt lat="44.4863" lon="0.66345">
        <ele>148.3</ele>
        <time>2017-01-29T09:43:11.000Z</time>
      </trkpt>
      <trkpt lat="44.4863" lon="0.66348">
        <ele>148.3</ele>
        <time>2017-01-29T09:43:12.000Z</time>
      </trkpt>
      <trkpt lat="44.48631" lon="0.66352">
        <ele>148.4</ele>
        <time>2017-01-29T09:43:13.000Z</time>
      </trkpt>
      <trkpt lat="44.48631" lon="0.66356">
        <ele>148.5</ele>
        <time>2017-01-29T09:43:14.000Z</time>
      </trkpt>
      <trkpt lat="44.48631" lon="0.66361">
        <ele>148.6</ele>
        <time>2017-01-29T09:43:15.000Z</time>
      </trkpt>
      <trkpt lat="44.48631" lon="0.66366">
        <ele>148.7</ele>
        <time>2017-01-29T09:43:16.000Z</time>
      </trkpt>
      <trkpt lat="44.48632" lon="0.66371">
        <ele>148.8</ele>
        <time>2017-01-29T09:43:17.000Z</time>
      </trkpt>
      <trkpt lat="44.48632" lon="0.66377">
        <ele>149</ele>
        <time>2017-01-29T09:43:18.000Z</time>
      </trkpt>
      <trkpt lat="44.48632" lon="0.66383">
        <ele>149.1</ele>
        <time>2017-01-29T09:43:19.000Z</time>
      </trkpt>
      <trkpt lat="44.48632" lon="0.66389">
        <ele>149.2</ele>
        <time>2017-01-29T09:43:20.000Z</time>
      </trkpt>
      <trkpt lat="44.48632" lon="0.66396">
        <ele>149.4</ele>
        <time>2017-01-29T09:43:21.000Z</time>
      </trkpt>
      <trkpt lat="44.48632" lon="0.66403">
        <ele>149.5</ele>
        <time>2017-01-29T09:43:22.000Z</time>
      </trkpt>
      <trkpt lat="44.48632" lon="0.6641">
        <ele>149.7</ele>
        <time>2017-01-29T09:43:23.000Z</time>
      </trkpt>
      <trkpt lat="44.48631" lon="0.66418">
        <ele>149.8</ele>
        <time>2017-01-29T09:43:24.000Z</time>
      </trkpt>
      <trkpt lat="44.48631" lon="0.66425">
        <ele>149.9</ele>
        <time>2017-01-29T09:43:25.000Z</time>
      </trkpt>
      <trkpt lat="44.48631" lon="0.66432">
        <ele>149.9</ele>
        <time>2017-01-29T09:43:26.000Z</time>
      </trkpt>
      <trkpt lat="44.48632" lon="0.66439">
        <ele>149.9</ele>
        <time>2017-01-29T09:43:27.000Z</time>
      </trkpt>
      <trkpt lat="44.48632" lon="0.66446">
        <ele>149.9</ele>
        <time>2017-01-29T09:43:28.000Z</time>
      </trkpt>
      <trkpt lat="44.48633" lon="0.66453">
        <ele>149.9</ele>
        <time>2017-01-29T09:43:29.000Z</time>
      </trkpt>
      <trkpt lat="44.48633" lon="0.6646">
        <ele>149.9</ele>
        <time>2017-01-29T09:43:30.000Z</time>
      </trkpt>
      <trkpt lat="44.48634" lon="0.66466">
        <ele>149.9</ele>
        <time>2017-01-29T09:43:31.000Z</time>
      </trkpt>
      <trkpt lat="44.48635" lon="0.66472">
        <ele>150</ele>
        <time>2017-01-29T09:43:32.000Z</time>
      </trkpt>
      <trkpt lat="44.48636" lon="0.66478">
        <ele>150</ele>
        <time>2017-01-29T09:43:33.000Z</time>
      </trkpt>
      <trkpt lat="44.48637" lon="0.66483">
        <ele>150.1</ele>
        <time>2017-01-29T09:43:34.000Z</time>
      </trkpt>
      <trkpt lat="44.48638" lon="0.66489">
        <ele>150.2</ele>
        <time>2017-01-29T09:43:35.000Z</time>
      </trkpt>
      <trkpt lat="44.48639" lon="0.66494">
        <ele>150.3</ele>
        <time>2017-01-29T09:43:36.000Z</time>
      </trkpt>
      <trkpt lat="44.4864" lon="0.665">
        <ele>150.4</ele>
        <time>2017-01-29T09:43:37.000Z</time>
      </trkpt>
      <trkpt lat="44.48641" lon="0.66505">
        <ele>150.5</ele>
        <time>2017-01-29T09:43:38.000Z</time>
      </trkpt>
      <trkpt lat="44.48642" lon="0.6651">
        <ele>150.6</ele>
        <time>2017-01-29T09:43:39.000Z</time>
      </trkpt>
      <trkpt lat="44.48643" lon="0.66516">
        <ele>150.7</ele>
        <time>2017-01-29T09:43:40.000Z</time>
      </trkpt>
      <trkpt lat="44.48644" lon="0.66521">
        <ele>150.8</ele>
        <time>2017-01-29T09:43:41.000Z</time>
      </trkpt>
      <trkpt lat="44.48645" lon="0.66527">
        <ele>150.9</ele>
        <time>2017-01-29T09:43:42.000Z</time>
      </trkpt>
      <trkpt lat="44.48646" lon="0.66532">
        <ele>151</ele>
        <time>2017-01-29T09:43:43.000Z</time>
      </trkpt>
      <trkpt lat="44.48648" lon="0.66538">
        <ele>151.1</ele>
        <time>2017-01-29T09:43:44.000Z</time>
      </trkpt>
      <trkpt lat="44.48649" lon="0.66543">
        <ele>151.2</ele>
        <time>2017-01-29T09:43:45.000Z</time>
      </trkpt>
      <trkpt lat="44.4865" lon="0.66548">
        <ele>151.3</ele>
        <time>2017-01-29T09:43:46.000Z</time>
      </trkpt>
      <trkpt lat="44.48651" lon="0.66554">
        <ele>151.4</ele>
        <time>2017-01-29T09:43:47.000Z</time>
      </trkpt>
      <trkpt lat="44.48652" lon="0.66559">
        <ele>151.5</ele>
        <time>2017-01-29T09:43:48.000Z</time>
      </trkpt>
      <trkpt lat="44.48653" lon="0.66565">
        <ele>151.7</ele>
        <time>2017-01-29T09:43:49.000Z</time>
      </trkpt>
      <trkpt lat="44.48654" lon="0.6657">
        <ele>151.8</ele>
        <time>2017-01-29T09:43:50.000Z</time>
      </trkpt>
      <trkpt lat="44.48655" lon="0.66575">
        <ele>151.9</ele>
        <time>2017-01-29T09:43:51.000Z</time>
      </trkpt>
      <trkpt lat="44.48656" lon="0.6658">
        <ele>152.1</ele>
        <time>2017-01-29T09:43:52.000Z</time>
      </trkpt>
      <trkpt lat="44.48657" lon="0.66585">
        <ele>152.2</ele>
        <time>2017-01-29T09:43:53.000Z</time>
      </trkpt>
      <trkpt lat="44.48658" lon="0.66591">
        <ele>152.3</ele>
        <time>2017-01-29T09:43:54.000Z</time>
      </trkpt>
      <trkpt lat="44.48659" lon="0.66596">
        <ele>152.4</ele>
        <time>2017-01-29T09:43:55.000Z</time>
      </trkpt>
      <trkpt lat="44.4866" lon="0.66601">
        <ele>152.4</ele>
        <time>2017-01-29T09:43:56.000Z</time>
      </trkpt>
      <trkpt lat="44.48661" lon="0.66605">
        <ele>152.5</ele>
        <time>2017-01-29T09:43:57.000Z</time>
      </trkpt>
      <trkpt lat="44.48662" lon="0.6661">
        <ele>152.6</ele>
        <time>2017-01-29T09:43:58.000Z</time>
      </trkpt>
      <trkpt lat="44.48663" lon="0.66614">
        <ele>152.7</ele>
        <time>2017-01-29T09:43:59.000Z</time>
      </trkpt>
      <trkpt lat="44.48664" lon="0.66618">
        <ele>152.8</ele>
        <time>2017-01-29T09:44:00.000Z</time>
      </trkpt>
      <trkpt lat="44.48664" lon="0.66622">
        <ele>152.8</ele>
        <time>2017-01-29T09:44:01.000Z</time>
      </trkpt>
      <trkpt lat="44.48665" lon="0.66625">
        <ele>152.9</ele>
        <time>2017-01-29T09:44:02.000Z</time>
      </trkpt>
      <trkpt lat="44.48665" lon="0.66628">
        <ele>152.9</ele>
        <time>2017-01-29T09:44:03.000Z</time>
      </trkpt>
      <trkpt lat="44.48666" lon="0.66631">
        <ele>152.9</ele>
        <time>2017-01-29T09:44:04.000Z</time>
      </trkpt>
      <trkpt lat="44.48666" lon="0.66632">
        <ele>153</ele>
        <time>2017-01-29T09:44:05.000Z</time>
      </trkpt>
      <trkpt lat="44.48667" lon="0.66634">
        <ele>153</ele>
        <time>2017-01-29T09:44:06.000Z</time>
      </trkpt>
      <trkpt lat="44.48667" lon="0.66637">
        <ele>153</ele>
        <time>2017-01-29T09:44:07.000Z</time>
      </trkpt>
      <trkpt lat="44.48668" lon="0.6664">
        <ele>152.9</ele>
        <time>2017-01-29T09:44:08.000Z</time>
      </trkpt>
      <trkpt lat="44.48668" lon="0.66644">
        <ele>152.9</ele>
        <time>2017-01-29T09:44:09.000Z</time>
      </trkpt>
      <trkpt lat="44.48669" lon="0.66648">
        <ele>152.9</ele>
        <time>2017-01-29T09:44:10.000Z</time>
      </trkpt>
      <trkpt lat="44.4867" lon="0.66652">
        <ele>152.8</ele>
        <time>2017-01-29T09:44:11.000Z</time>
      </trkpt>
      <trkpt lat="44.4867" lon="0.66656">
        <ele>152.8</ele>
        <time>2017-01-29T09:44:12.000Z</time>
      </trkpt>
      <trkpt lat="44.48671" lon="0.66661">
        <ele>152.8</ele>
        <time>2017-01-29T09:44:13.000Z</time>
      </trkpt>
      <trkpt lat="44.48672" lon="0.66665">
        <ele>152.8</ele>
        <time>2017-01-29T09:44:14.000Z</time>
      </trkpt>
      <trkpt lat="44.48672" lon="0.6667">
        <ele>152.8</ele>
        <time>2017-01-29T09:44:15.000Z</time>
      </trkpt>
      <trkpt lat="44.48673" lon="0.66674">
        <ele>152.8</ele>
        <time>2017-01-29T09:44:16.000Z</time>
      </trkpt>
      <trkpt lat="44.48673" lon="0.66679">
        <ele>152.9</ele>
        <time>2017-01-29T09:44:17.000Z</time>
      </trkpt>
      <trkpt lat="44.48674" lon="0.66683">
        <ele>152.9</ele>
        <time>2017-01-29T09:44:18.000Z</time>
      </trkpt>
      <trkpt lat="44.48675" lon="0.66688">
        <ele>153</ele>
        <time>2017-01-29T09:44:19.000Z</time>
      </trkpt>
      <trkpt lat="44.48675" lon="0.66692">
        <ele>153</ele>
        <time>2017-01-29T09:44:20.000Z</time>
      </trkpt>
      <trkpt lat="44.48676" lon="0.66696">
        <ele>153.1</ele>
        <time>2017-01-29T09:44:21.000Z</time>
      </trkpt>
      <trkpt lat="44.48676" lon="0.66701">
        <ele>153.1</ele>
        <time>2017-01-29T09:44:22.000Z</time>
      </trkpt>
      <trkpt lat="44.48677" lon="0.66705">
        <ele>153.2</ele>
        <time>2017-01-29T09:44:23.000Z</time>
      </trkpt>
      <trkpt lat="44.48678" lon="0.6671">
        <ele>153.3</ele>
        <time>2017-01-29T09:44:24.000Z</time>
      </trkpt>
      <trkpt lat="44.48679" lon="0.66714">
        <ele>153.3</ele>
        <time>2017-01-29T09:44:25.000Z</time>
      </trkpt>
      <trkpt lat="44.4868" lon="0.66719">
        <ele>153.4</ele>
        <time>2017-01-29T09:44:26.000Z</time>
      </trkpt>
      <trkpt lat="44.48681" lon="0.66723">
        <ele>153.5</ele>
        <time>2017-01-29T09:44:27.000Z</time>
      </trkpt>
      <trkpt lat="44.48682" lon="0.66727">
        <ele>153.5</ele>
        <time>2017-01-29T09:44:28.000Z</time>
      </trkpt>
      <trkpt lat="44.48683" lon="0.66731">
        <ele>153.6</ele>
        <time>2017-01-29T09:44:29.000Z</time>
      </trkpt>
      <trkpt lat="44.48685" lon="0.66736">
        <ele>153.7</ele>
        <time>2017-01-29T09:44:30.000Z</time>
      </trkpt>
      <trkpt lat="44.48686" lon="0.6674">
        <ele>153.8</ele>
        <time>2017-01-29T09:44:31.000Z</time>
      </trkpt>
      <trkpt lat="44.48688" lon="0.66744">
        <ele>153.9</ele>
        <time>2017-01-29T09:44:32.000Z</time>
      </trkpt>
      <trkpt lat="44.48689" lon="0.66748">
        <ele>153.9</ele>
        <time>2017-01-29T09:44:33.000Z</time>
      </trkpt>
      <trkpt lat="44.48691" lon="0.66752">
        <ele>154.1</ele>
        <time>2017-01-29T09:44:34.000Z</time>
      </trkpt>
      <trkpt lat="44.48692" lon="0.66756">
        <ele>154.4</ele>
        <time>2017-01-29T09:44:35.000Z</time>
      </trkpt>
      <trkpt lat="44.48694" lon="0.66761">
        <ele>154.7</ele>
        <time>2017-01-29T09:44:36.000Z</time>
      </trkpt>
      <trkpt lat="44.48695" lon="0.66765">
        <ele>155</ele>
        <time>2017-01-29T09:44:37.000Z</time>
      </trkpt>
      <trkpt lat="44.48696" lon="0.6677">
        <ele>155.3</ele>
        <time>2017-01-29T09:44:38.000Z</time>
      </trkpt>
      <trkpt lat="44.48697" lon="0.66774">
        <ele>155.6</ele>
        <time>2017-01-29T09:44:39.000Z</time>
      </trkpt>
      <trkpt lat="44.48698" lon="0.66778">
        <ele>156</ele>
        <time>2017-01-29T09:44:40.000Z</time>
      </trkpt>
      <trkpt lat="44.487" lon="0.66783">
        <ele>156.3</ele>
        <time>2017-01-29T09:44:41.000Z</time>
      </trkpt>
      <trkpt lat="44.48701" lon="0.66787">
        <ele>156.6</ele>
        <time>2017-01-29T09:44:42.000Z</time>
      </trkpt>
      <trkpt lat="44.48702" lon="0.66791">
        <ele>156.9</ele>
        <time>2017-01-29T09:44:43.000Z</time>
      </trkpt>
      <trkpt lat="44.48704" lon="0.66795">
        <ele>157.2</ele>
        <time>2017-01-29T09:44:44.000Z</time>
      </trkpt>
      <trkpt lat="44.48705" lon="0.66799">
        <ele>157.5</ele>
        <time>2017-01-29T09:44:45.000Z</time>
      </trkpt>
      <trkpt lat="44.48707" lon="0.66803">
        <ele>157.8</ele>
        <time>2017-01-29T09:44:46.000Z</time>
      </trkpt>
      <trkpt lat="44.48709" lon="0.66806">
        <ele>158</ele>
        <time>2017-01-29T09:44:47.000Z</time>
      </trkpt>
      <trkpt lat="44.48711" lon="0.66809">
        <ele>158.3</ele>
        <time>2017-01-29T09:44:48.000Z</time>
      </trkpt>
      <trkpt lat="44.48712" lon="0.66812">
        <ele>158.6</ele>
        <time>2017-01-29T09:44:49.000Z</time>
      </trkpt>
      <trkpt lat="44.48712" lon="0.66816">
        <ele>158.8</ele>
        <time>2017-01-29T09:44:50.000Z</time>
      </trkpt>
      <trkpt lat="44.48713" lon="0.66819">
        <ele>159.1</ele>
        <time>2017-01-29T09:44:51.000Z</time>
      </trkpt>
      <trkpt lat="44.48713" lon="0.66822">
        <ele>159.3</ele>
        <time>2017-01-29T09:44:52.000Z</time>
      </trkpt>
      <trkpt lat="44.48714" lon="0.66824">
        <ele>159.5</ele>
        <time>2017-01-29T09:44:53.000Z</time>
      </trkpt>
      <trkpt lat="44.48715" lon="0.66826">
        <ele>159.6</ele>
        <time>2017-01-29T09:44:54.000Z</time>
      </trkpt>
      <trkpt lat="44.48716" lon="0.66828">
        <ele>159.8</ele>
        <time>2017-01-29T09:44:55.000Z</time>
      </trkpt>
      <trkpt lat="44.48717" lon="0.66829">
        <ele>159.9</ele>
        <time>2017-01-29T09:44:56.000Z</time>
      </trkpt>
      <trkpt lat="44.48718" lon="0.66831">
        <ele>160.1</ele>
        <time>2017-01-29T09:44:57.000Z</time>
      </trkpt>
      <trkpt lat="44.48718" lon="0.66833">
        <ele>160.2</ele>
        <time>2017-01-29T09:44:58.000Z</time>
      </trkpt>
      <trkpt lat="44.48719" lon="0.66835">
        <ele>160.3</ele>
        <time>2017-01-29T09:44:59.000Z</time>
      </trkpt>
      <trkpt lat="44.4872" lon="0.66837">
        <ele>160.4</ele>
        <time>2017-01-29T09:45:00.000Z</time>
      </trkpt>
      <trkpt lat="44.48721" lon="0.66838">
        <ele>160.5</ele>
        <time>2017-01-29T09:45:01.000Z</time>
      </trkpt>
      <trkpt lat="44.48722" lon="0.66839">
        <ele>160.6</ele>
        <time>2017-01-29T09:45:02.000Z</time>
      </trkpt>
      <trkpt lat="44.48724" lon="0.6684">
        <ele>160.6</ele>
        <time>2017-01-29T09:45:03.000Z</time>
      </trkpt>
      <trkpt lat="44.48726" lon="0.6684">
        <ele>160.7</ele>
        <time>2017-01-29T09:45:04.000Z</time>
      </trkpt>
      <trkpt lat="44.48728" lon="0.6684">
        <ele>160.7</ele>
        <time>2017-01-29T09:45:05.000Z</time>
      </trkpt>
      <trkpt lat="44.4873" lon="0.66841">
        <ele>160.8</ele>
        <time>2017-01-29T09:45:06.000Z</time>
      </trkpt>
      <trkpt lat="44.48733" lon="0.66841">
        <ele>160.9</ele>
        <time>2017-01-29T09:45:07.000Z</time>
      </trkpt>
      <trkpt lat="44.48735" lon="0.66841">
        <ele>160.9</ele>
        <time>2017-01-29T09:45:08.000Z</time>
      </trkpt>
      <trkpt lat="44.48737" lon="0.66841">
        <ele>161</ele>
        <time>2017-01-29T09:45:09.000Z</time>
      </trkpt>
      <trkpt lat="44.48739" lon="0.66842">
        <ele>161.1</ele>
        <time>2017-01-29T09:45:10.000Z</time>
      </trkpt>
      <trkpt lat="44.48742" lon="0.66842">
        <ele>161.1</ele>
        <time>2017-01-29T09:45:11.000Z</time>
      </trkpt>
      <trkpt lat="44.48744" lon="0.66842">
        <ele>161.2</ele>
        <time>2017-01-29T09:45:12.000Z</time>
      </trkpt>
      <trkpt lat="44.48746" lon="0.66843">
        <ele>161.2</ele>
        <time>2017-01-29T09:45:13.000Z</time>
      </trkpt>
      <trkpt lat="44.48748" lon="0.66843">
        <ele>161.3</ele>
        <time>2017-01-29T09:45:14.000Z</time>
      </trkpt>
      <trkpt lat="44.48751" lon="0.66843">
        <ele>161.4</ele>
        <time>2017-01-29T09:45:15.000Z</time>
      </trkpt>
      <trkpt lat="44.48753" lon="0.66844">
        <ele>161.4</ele>
        <time>2017-01-29T09:45:16.000Z</time>
      </trkpt>
      <trkpt lat="44.48756" lon="0.66844">
        <ele>161.4</ele>
        <time>2017-01-29T09:45:17.000Z</time>
      </trkpt>
      <trkpt lat="44.48759" lon="0.66844">
        <ele>161.3</ele>
        <time>2017-01-29T09:45:18.000Z</time>
      </trkpt>
      <trkpt lat="44.48763" lon="0.66844">
        <ele>161.3</ele>
        <time>2017-01-29T09:45:19.000Z</time>
      </trkpt>
      <trkpt lat="44.48766" lon="0.66844">
        <ele>161.3</ele>
        <time>2017-01-29T09:45:20.000Z</time>
      </trkpt>
      <trkpt lat="44.48769" lon="0.66844">
        <ele>161.3</ele>
        <time>2017-01-29T09:45:21.000Z</time>
      </trkpt>
      <trkpt lat="44.48773" lon="0.66843">
        <ele>161.3</ele>
        <time>2017-01-29T09:45:22.000Z</time>
      </trkpt>
      <trkpt lat="44.48776" lon="0.66842">
        <ele>161.2</ele>
        <time>2017-01-29T09:45:23.000Z</time>
      </trkpt>
      <trkpt lat="44.48779" lon="0.66842">
        <ele>161.2</ele>
        <time>2017-01-29T09:45:24.000Z</time>
      </trkpt>
      <trkpt lat="44.48782" lon="0.6684">
        <ele>161.2</ele>
        <time>2017-01-29T09:45:25.000Z</time>
      </trkpt>
      <trkpt lat="44.48785" lon="0.66839">
        <ele>161.1</ele>
        <time>2017-01-29T09:45:26.000Z</time>
      </trkpt>
      <trkpt lat="44.48787" lon="0.66838">
        <ele>161.1</ele>
        <time>2017-01-29T09:45:27.000Z</time>
      </trkpt>
      <trkpt lat="44.4879" lon="0.66836">
        <ele>161.1</ele>
        <time>2017-01-29T09:45:28.000Z</time>
      </trkpt>
      <trkpt lat="44.48793" lon="0.66835">
        <ele>161</ele>
        <time>2017-01-29T09:45:29.000Z</time>
      </trkpt>
      <trkpt lat="44.48796" lon="0.66833">
        <ele>161</ele>
        <time>2017-01-29T09:45:30.000Z</time>
      </trkpt>
      <trkpt lat="44.48798" lon="0.66831">
        <ele>160.9</ele>
        <time>2017-01-29T09:45:31.000Z</time>
      </trkpt>
      <trkpt lat="44.48801" lon="0.6683">
        <ele>160.7</ele>
        <time>2017-01-29T09:45:32.000Z</time>
      </trkpt>
      <trkpt lat="44.48804" lon="0.66828">
        <ele>160.6</ele>
        <time>2017-01-29T09:45:33.000Z</time>
      </trkpt>
      <trkpt lat="44.48806" lon="0.66826">
        <ele>160.4</ele>
        <time>2017-01-29T09:45:34.000Z</time>
      </trkpt>
      <trkpt lat="44.48809" lon="0.66824">
        <ele>160.3</ele>
        <time>2017-01-29T09:45:35.000Z</time>
      </trkpt>
      <trkpt lat="44.48812" lon="0.66822">
        <ele>160.2</ele>
        <time>2017-01-29T09:45:36.000Z</time>
      </trkpt>
      <trkpt lat="44.48814" lon="0.6682">
        <ele>160</ele>
        <time>2017-01-29T09:45:37.000Z</time>
      </trkpt>
      <trkpt lat="44.48817" lon="0.66818">
        <ele>159.9</ele>
        <time>2017-01-29T09:45:38.000Z</time>
      </trkpt>
      <trkpt lat="44.4882" lon="0.66817">
        <ele>159.8</ele>
        <time>2017-01-29T09:45:39.000Z</time>
      </trkpt>
      <trkpt lat="44.48823" lon="0.66815">
        <ele>159.6</ele>
        <time>2017-01-29T09:45:40.000Z</time>
      </trkpt>
      <trkpt lat="44.48825" lon="0.66813">
        <ele>159.5</ele>
        <time>2017-01-29T09:45:41.000Z</time>
      </trkpt>
      <trkpt lat="44.48828" lon="0.66811">
        <ele>159.4</ele>
        <time>2017-01-29T09:45:42.000Z</time>
      </trkpt>
      <trkpt lat="44.48831" lon="0.6681">
        <ele>159.3</ele>
        <time>2017-01-29T09:45:43.000Z</time>
      </trkpt>
      <trkpt lat="44.48833" lon="0.66809">
        <ele>159.2</ele>
        <time>2017-01-29T09:45:44.000Z</time>
      </trkpt>
      <trkpt lat="44.48836" lon="0.66807">
        <ele>159.2</ele>
        <time>2017-01-29T09:45:45.000Z</time>
      </trkpt>
      <trkpt lat="44.48839" lon="0.66806">
        <ele>159.1</ele>
        <time>2017-01-29T09:45:46.000Z</time>
      </trkpt>
      <trkpt lat="44.48842" lon="0.66806">
        <ele>159.1</ele>
        <time>2017-01-29T09:45:47.000Z</time>
      </trkpt>
      <trkpt lat="44.48845" lon="0.66805">
        <ele>159.1</ele>
        <time>2017-01-29T09:45:48.000Z</time>
      </trkpt>
      <trkpt lat="44.48847" lon="0.66805">
        <ele>159.2</ele>
        <time>2017-01-29T09:45:49.000Z</time>
      </trkpt>
      <trkpt lat="44.4885" lon="0.66805">
        <ele>159.2</ele>
        <time>2017-01-29T09:45:50.000Z</time>
      </trkpt>
      <trkpt lat="44.48853" lon="0.66805">
        <ele>159.3</ele>
        <time>2017-01-29T09:45:51.000Z</time>
      </trkpt>
      <trkpt lat="44.48856" lon="0.66805">
        <ele>159.3</ele>
        <time>2017-01-29T09:45:52.000Z</time>
      </trkpt>
      <trkpt lat="44.48858" lon="0.66806">
        <ele>159.4</ele>
        <time>2017-01-29T09:45:53.000Z</time>
      </trkpt>
      <trkpt lat="44.48861" lon="0.66806">
        <ele>159.5</ele>
        <time>2017-01-29T09:45:54.000Z</time>
      </trkpt>
      <trkpt lat="44.48864" lon="0.66807">
        <ele>159.6</ele>
        <time>2017-01-29T09:45:55.000Z</time>
      </trkpt>
      <trkpt lat="44.48866" lon="0.66807">
        <ele>159.6</ele>
        <time>2017-01-29T09:45:56.000Z</time>
      </trkpt>
      <trkpt lat="44.48869" lon="0.66808">
        <ele>159.7</ele>
        <time>2017-01-29T09:45:57.000Z</time>
      </trkpt>
      <trkpt lat="44.48871" lon="0.66809">
        <ele>159.8</ele>
        <time>2017-01-29T09:45:58.000Z</time>
      </trkpt>
      <trkpt lat="44.48874" lon="0.66811">
        <ele>160</ele>
        <time>2017-01-29T09:45:59.000Z</time>
      </trkpt>
      <trkpt lat="44.48877" lon="0.66812">
        <ele>160.1</ele>
        <time>2017-01-29T09:46:00.000Z</time>
      </trkpt>
      <trkpt lat="44.4888" lon="0.66814">
        <ele>160.3</ele>
        <time>2017-01-29T09:46:01.000Z</time>
      </trkpt>
      <trkpt lat="44.48882" lon="0.66816">
        <ele>160.4</ele>
        <time>2017-01-29T09:46:02.000Z</time>
      </trkpt>
      <trkpt lat="44.48885" lon="0.66817">
        <ele>160.6</ele>
        <time>2017-01-29T09:46:03.000Z</time>
      </trkpt>
      <trkpt lat="44.48887" lon="0.66819">
        <ele>160.7</ele>
        <time>2017-01-29T09:46:04.000Z</time>
      </trkpt>
      <trkpt lat="44.4889" lon="0.6682">
        <ele>160.8</ele>
        <time>2017-01-29T09:46:05.000Z</time>
      </trkpt>
      <trkpt lat="44.48892" lon="0.66821">
        <ele>160.9</ele>
        <time>2017-01-29T09:46:06.000Z</time>
      </trkpt>
      <trkpt lat="44.48895" lon="0.66822">
        <ele>161</ele>
        <time>2017-01-29T09:46:07.000Z</time>
      </trkpt>
      <trkpt lat="44.48898" lon="0.66824">
        <ele>161.2</ele>
        <time>2017-01-29T09:46:08.000Z</time>
      </trkpt>
      <trkpt lat="44.489" lon="0.66825">
        <ele>161.3</ele>
        <time>2017-01-29T09:46:09.000Z</time>
      </trkpt>
      <trkpt lat="44.48903" lon="0.66826">
        <ele>161.4</ele>
        <time>2017-01-29T09:46:10.000Z</time>
      </trkpt>
      <trkpt lat="44.48906" lon="0.66828">
        <ele>161.5</ele>
        <time>2017-01-29T09:46:11.000Z</time>
      </trkpt>
      <trkpt lat="44.48909" lon="0.66829">
        <ele>161.6</ele>
        <time>2017-01-29T09:46:12.000Z</time>
      </trkpt>
      <trkpt lat="44.48912" lon="0.66831">
        <ele>161.8</ele>
        <time>2017-01-29T09:46:13.000Z</time>
      </trkpt>
      <trkpt lat="44.48915" lon="0.66832">
        <ele>161.9</ele>
        <time>2017-01-29T09:46:14.000Z</time>
      </trkpt>
      <trkpt lat="44.48918" lon="0.66833">
        <ele>162</ele>
        <time>2017-01-29T09:46:15.000Z</time>
      </trkpt>
      <trkpt lat="44.48921" lon="0.66834">
        <ele>162.2</ele>
        <time>2017-01-29T09:46:16.000Z</time>
      </trkpt>
      <trkpt lat="44.48924" lon="0.66835">
        <ele>162.3</ele>
        <time>2017-01-29T09:46:17.000Z</time>
      </trkpt>
      <trkpt lat="44.48925" lon="0.66834">
        <ele>162.4</ele>
        <time>2017-01-29T09:46:18.000Z</time>
      </trkpt>
      <trkpt lat="44.48926" lon="0.66831">
        <ele>162.3</ele>
        <time>2017-01-29T09:46:19.000Z</time>
      </trkpt>
      <trkpt lat="44.48925" lon="0.66829">
        <ele>162.2</ele>
        <time>2017-01-29T09:46:20.000Z</time>
      </trkpt>
      <trkpt lat="44.48925" lon="0.66827">
        <ele>162</ele>
        <time>2017-01-29T09:46:21.000Z</time>
      </trkpt>
      <trkpt lat="44.48925" lon="0.66825">
        <ele>162</ele>
        <time>2017-01-29T09:46:22.000Z</time>
      </trkpt>
      <trkpt lat="44.48925" lon="0.66825">
        <ele>161.9</ele>
        <time>2017-01-29T09:46:23.000Z</time>
      </trkpt>
      <trkpt lat="44.48925" lon="0.66824">
        <ele>161.9</ele>
        <time>2017-01-29T09:46:24.000Z</time>
      </trkpt>
      <trkpt lat="44.48925" lon="0.66824">
        <ele>161.9</ele>
        <time>2017-01-29T09:46:25.000Z</time>
      </trkpt>
      <trkpt lat="44.48925" lon="0.66824">
        <ele>161.9</ele>
        <time>2017-01-29T09:46:26.000Z</time>
      </trkpt>
      <trkpt lat="44.48925" lon="0.66824">
        <ele>161.9</ele>
        <time>2017-01-29T09:46:27.000Z</time>
      </trkpt>
      <trkpt lat="44.48925" lon="0.66824">
        <ele>161.9</ele>
        <time>2017-01-29T09:46:28.000Z</time>
      </trkpt>
      <trkpt lat="44.48925" lon="0.66824">
        <ele>161.9</ele>
        <time>2017-01-29T09:46:29.000Z</time>
      </trkpt>
      <trkpt lat="44.48925" lon="0.66824">
        <ele>161.9</ele>
        <time>2017-01-29T09:46:30.000Z</time>
      </trkpt>
      <trkpt lat="44.48925" lon="0.66824">
        <ele>161.9</ele>
        <time>2017-01-29T09:46:31.000Z</time>
      </trkpt>
      <trkpt lat="44.48925" lon="0.66824">
        <ele>161.9</ele>
        <time>2017-01-29T09:46:32.000Z</time>
      </trkpt>
      <trkpt lat="44.48925" lon="0.66824">
        <ele>161.9</ele>
        <time>2017-01-29T09:46:33.000Z</time>
      </trkpt>
      <trkpt lat="44.48925" lon="0.66824">
        <ele>161.9</ele>
        <time>2017-01-29T09:46:34.000Z</time>
      </trkpt>
      <trkpt lat="44.48925" lon="0.66824">
        <ele>161.9</ele>
        <time>2017-01-29T09:46:35.000Z</time>
      </trkpt>
      <trkpt lat="44.48925" lon="0.66824">
        <ele>161.9</ele>
        <time>2017-01-29T09:46:36.000Z</time>
      </trkpt>
      <trkpt lat="44.48925" lon="0.66824">
        <ele>161.9</ele>
        <time>2017-01-29T09:46:37.000Z</time>
      </trkpt>
      <trkpt lat="44.48925" lon="0.66824">
        <ele>161.9</ele>
        <time>2017-01-29T09:46:38.000Z</time>
      </trkpt>
      <trkpt lat="44.48925" lon="0.66824">
        <ele>161.9</ele>
        <time>2017-01-29T09:46:39.000Z</time>
      </trkpt>
      <trkpt lat="44.48925" lon="0.66824">
        <ele>161.9</ele>
        <time>2017-01-29T09:46:40.000Z</time>
      </trkpt>
      <trkpt lat="44.48925" lon="0.66824">
        <ele>161.9</ele>
        <time>2017-01-29T09:46:41.000Z</time>
      </trkpt>
      <trkpt lat="44.48925" lon="0.66824">
        <ele>161.9</ele>
        <time>2017-01-29T09:46:42.000Z</time>
      </trkpt>
      <trkpt lat="44.48925" lon="0.66824">
        <ele>161.9</ele>
        <time>2017-01-29T09:46:43.000Z</time>
      </trkpt>
      <trkpt lat="44.48925" lon="0.66824">
        <ele>161.9</ele>
        <time>2017-01-29T09:46:44.000Z</time>
      </trkpt>
      <trkpt lat="44.48925" lon="0.66824">
        <ele>161.9</ele>
        <time>2017-01-29T09:46:45.000Z</time>
      </trkpt>
      <trkpt lat="44.48925" lon="0.66824">
        <ele>161.9</ele>
        <time>2017-01-29T09:46:46.000Z</time>
      </trkpt>
      <trkpt lat="44.48925" lon="0.66824">
        <ele>161.9</ele>
        <time>2017-01-29T09:46:47.000Z</time>
      </trkpt>
      <trkpt lat="44.48925" lon="0.66824">
        <ele>161.9</ele>
        <time>2017-01-29T09:46:48.000Z</time>
      </trkpt>
      <trkpt lat="44.48925" lon="0.66824">
        <ele>161.9</ele>
        <time>2017-01-29T09:46:49.000Z</time>
      </trkpt>
      <trkpt lat="44.48925" lon="0.66824">
        <ele>161.9</ele>
        <time>2017-01-29T09:46:50.000Z</time>
      </trkpt>
      <trkpt lat="44.48925" lon="0.66824">
        <ele>161.9</ele>
        <time>2017-01-29T09:46:51.000Z</time>
      </trkpt>
      <trkpt lat="44.48925" lon="0.66824">
        <ele>161.9</ele>
        <time>2017-01-29T09:46:52.000Z</time>
      </trkpt>
      <trkpt lat="44.48925" lon="0.66824">
        <ele>161.9</ele>
        <time>2017-01-29T09:46:53.000Z</time>
      </trkpt>
      <trkpt lat="44.48925" lon="0.66824">
        <ele>161.9</ele>
        <time>2017-01-29T09:46:54.000Z</time>
      </trkpt>
      <trkpt lat="44.48925" lon="0.66824">
        <ele>161.9</ele>
        <time>2017-01-29T09:46:55.000Z</time>
      </trkpt>
      <trkpt lat="44.48925" lon="0.66824">
        <ele>161.9</ele>
        <time>2017-01-29T09:46:56.000Z</time>
      </trkpt>
      <trkpt lat="44.48925" lon="0.66824">
        <ele>161.9</ele>
        <time>2017-01-29T09:46:57.000Z</time>
      </trkpt>
      <trkpt lat="44.48925" lon="0.66824">
        <ele>161.9</ele>
        <time>2017-01-29T09:46:58.000Z</time>
      </trkpt>
      <trkpt lat="44.48925" lon="0.66824">
        <ele>161.9</ele>
        <time>2017-01-29T09:46:59.000Z</time>
      </trkpt>
      <trkpt lat="44.48925" lon="0.66824">
        <ele>161.9</ele>
        <time>2017-01-29T09:47:00.000Z</time>
      </trkpt>
      <trkpt lat="44.48925" lon="0.66824">
        <ele>161.9</ele>
        <time>2017-01-29T09:47:01.000Z</time>
      </trkpt>
      <trkpt lat="44.48925" lon="0.66824">
        <ele>161.9</ele>
        <time>2017-01-29T09:47:02.000Z</time>
      </trkpt>
      <trkpt lat="44.48925" lon="0.66824">
        <ele>161.9</ele>
        <time>2017-01-29T09:47:03.000Z</time>
      </trkpt>
      <trkpt lat="44.48925" lon="0.66824">
        <ele>161.9</ele>
        <time>2017-01-29T09:47:04.000Z</time>
      </trkpt>
      <trkpt lat="44.48925" lon="0.66824">
        <ele>161.9</ele>
        <time>2017-01-29T09:47:05.000Z</time>
      </trkpt>
      <trkpt lat="44.48925" lon="0.66824">
        <ele>161.9</ele>
        <time>2017-01-29T09:47:06.000Z</time>
      </trkpt>
      <trkpt lat="44.48925" lon="0.66824">
        <ele>161.9</ele>
        <time>2017-01-29T09:47:07.000Z</time>
      </trkpt>
      <trkpt lat="44.48925" lon="0.66824">
        <ele>161.9</ele>
        <time>2017-01-29T09:47:08.000Z</time>
      </trkpt>
      <trkpt lat="44.48925" lon="0.66824">
        <ele>161.9</ele>
        <time>2017-01-29T09:47:09.000Z</time>
      </trkpt>
      <trkpt lat="44.48925" lon="0.66824">
        <ele>161.9</ele>
        <time>2017-01-29T09:47:10.000Z</time>
      </trkpt>
      <trkpt lat="44.48925" lon="0.66824">
        <ele>161.9</ele>
        <time>2017-01-29T09:47:11.000Z</time>
      </trkpt>
      <trkpt lat="44.48925" lon="0.66824">
        <ele>161.9</ele>
        <time>2017-01-29T09:47:12.000Z</time>
      </trkpt>
      <trkpt lat="44.48925" lon="0.66824">
        <ele>161.9</ele>
        <time>2017-01-29T09:47:13.000Z</time>
      </trkpt>
      <trkpt lat="44.48925" lon="0.66824">
        <ele>161.9</ele>
        <time>2017-01-29T09:47:14.000Z</time>
      </trkpt>
      <trkpt lat="44.48925" lon="0.66824">
        <ele>161.9</ele>
        <time>2017-01-29T09:47:15.000Z</time>
      </trkpt>
      <trkpt lat="44.48925" lon="0.66824">
        <ele>161.9</ele>
        <time>2017-01-29T09:47:16.000Z</time>
      </trkpt>
      <trkpt lat="44.48925" lon="0.66824">
        <ele>161.9</ele>
        <time>2017-01-29T09:47:17.000Z</time>
      </trkpt>
      <trkpt lat="44.48925" lon="0.66824">
        <ele>161.9</ele>
        <time>2017-01-29T09:47:18.000Z</time>
      </trkpt>
      <trkpt lat="44.48925" lon="0.66824">
        <ele>161.9</ele>
        <time>2017-01-29T09:47:19.000Z</time>
      </trkpt>
      <trkpt lat="44.48925" lon="0.66824">
        <ele>161.9</ele>
        <time>2017-01-29T09:47:20.000Z</time>
      </trkpt>
      <trkpt lat="44.48925" lon="0.66824">
        <ele>161.9</ele>
        <time>2017-01-29T09:47:21.000Z</time>
      </trkpt>
      <trkpt lat="44.48925" lon="0.66824">
        <ele>161.9</ele>
        <time>2017-01-29T09:47:22.000Z</time>
      </trkpt>
      <trkpt lat="44.48925" lon="0.66824">
        <ele>161.9</ele>
        <time>2017-01-29T09:47:23.000Z</time>
      </trkpt>
      <trkpt lat="44.48925" lon="0.66824">
        <ele>161.9</ele>
        <time>2017-01-29T09:47:24.000Z</time>
      </trkpt>
      <trkpt lat="44.48925" lon="0.66824">
        <ele>161.9</ele>
        <time>2017-01-29T09:47:25.000Z</time>
      </trkpt>
      <trkpt lat="44.48925" lon="0.66824">
        <ele>161.9</ele>
        <time>2017-01-29T09:47:26.000Z</time>
      </trkpt>
      <trkpt lat="44.48925" lon="0.66824">
        <ele>161.9</ele>
        <time>2017-01-29T09:47:27.000Z</time>
      </trkpt>
      <trkpt lat="44.48925" lon="0.66824">
        <ele>161.9</ele>
        <time>2017-01-29T09:47:28.000Z</time>
      </trkpt>
      <trkpt lat="44.48925" lon="0.66824">
        <ele>161.9</ele>
        <time>2017-01-29T09:47:29.000Z</time>
      </trkpt>
      <trkpt lat="44.48925" lon="0.66824">
        <ele>161.9</ele>
        <time>2017-01-29T09:47:30.000Z</time>
      </trkpt>
      <trkpt lat="44.48925" lon="0.66824">
        <ele>161.9</ele>
        <time>2017-01-29T09:47:31.000Z</time>
      </trkpt>
      <trkpt lat="44.48925" lon="0.66824">
        <ele>161.9</ele>
        <time>2017-01-29T09:47:32.000Z</time>
      </trkpt>
      <trkpt lat="44.48925" lon="0.66824">
        <ele>161.9</ele>
        <time>2017-01-29T09:47:33.000Z</time>
      </trkpt>
      <trkpt lat="44.48925" lon="0.66824">
        <ele>161.9</ele>
        <time>2017-01-29T09:47:34.000Z</time>
      </trkpt>
      <trkpt lat="44.48925" lon="0.66824">
        <ele>161.9</ele>
        <time>2017-01-29T09:47:35.000Z</time>
      </trkpt>
      <trkpt lat="44.48925" lon="0.66824">
        <ele>161.9</ele>
        <time>2017-01-29T09:47:36.000Z</time>
      </trkpt>
      <trkpt lat="44.48925" lon="0.66824">
        <ele>161.9</ele>
        <time>2017-01-29T09:47:37.000Z</time>
      </trkpt>
      <trkpt lat="44.48925" lon="0.66824">
        <ele>161.9</ele>
        <time>2017-01-29T09:47:38.000Z</time>
      </trkpt>
      <trkpt lat="44.48925" lon="0.66824">
        <ele>161.9</ele>
        <time>2017-01-29T09:47:39.000Z</time>
      </trkpt>
      <trkpt lat="44.48925" lon="0.66824">
        <ele>161.9</ele>
        <time>2017-01-29T09:47:40.000Z</time>
      </trkpt>
      <trkpt lat="44.48925" lon="0.66824">
        <ele>161.9</ele>
        <time>2017-01-29T09:47:41.000Z</time>
      </trkpt>
      <trkpt lat="44.48925" lon="0.66824">
        <ele>161.9</ele>
        <time>2017-01-29T09:47:42.000Z</time>
      </trkpt>
      <trkpt lat="44.48925" lon="0.66824">
        <ele>161.9</ele>
        <time>2017-01-29T09:47:43.000Z</time>
      </trkpt>
      <trkpt lat="44.48925" lon="0.66824">
        <ele>161.9</ele>
        <time>2017-01-29T09:47:44.000Z</time>
      </trkpt>
      <trkpt lat="44.48925" lon="0.66824">
        <ele>161.9</ele>
        <time>2017-01-29T09:47:45.000Z</time>
      </trkpt>
      <trkpt lat="44.48925" lon="0.66824">
        <ele>161.9</ele>
        <time>2017-01-29T09:47:46.000Z</time>
      </trkpt>
      <trkpt lat="44.48925" lon="0.66824">
        <ele>161.9</ele>
        <time>2017-01-29T09:47:47.000Z</time>
      </trkpt>
      <trkpt lat="44.48925" lon="0.66824">
        <ele>161.9</ele>
        <time>2017-01-29T09:47:48.000Z</time>
      </trkpt>
      <trkpt lat="44.48925" lon="0.66824">
        <ele>161.9</ele>
        <time>2017-01-29T09:47:49.000Z</time>
      </trkpt>
      <trkpt lat="44.48925" lon="0.66824">
        <ele>161.9</ele>
        <time>2017-01-29T09:47:50.000Z</time>
      </trkpt>
      <trkpt lat="44.48925" lon="0.66824">
        <ele>161.9</ele>
        <time>2017-01-29T09:47:51.000Z</time>
      </trkpt>
      <trkpt lat="44.48925" lon="0.66824">
        <ele>161.9</ele>
        <time>2017-01-29T09:47:52.000Z</time>
      </trkpt>
      <trkpt lat="44.48925" lon="0.66824">
        <ele>161.9</ele>
        <time>2017-01-29T09:47:53.000Z</time>
      </trkpt>
      <trkpt lat="44.48925" lon="0.66824">
        <ele>161.9</ele>
        <time>2017-01-29T09:47:54.000Z</time>
      </trkpt>
      <trkpt lat="44.48925" lon="0.66824">
        <ele>161.9</ele>
        <time>2017-01-29T09:47:55.000Z</time>
      </trkpt>
      <trkpt lat="44.48925" lon="0.66824">
        <ele>161.9</ele>
        <time>2017-01-29T09:47:56.000Z</time>
      </trkpt>
      <trkpt lat="44.48925" lon="0.66824">
        <ele>161.9</ele>
        <time>2017-01-29T09:47:57.000Z</time>
      </trkpt>
      <trkpt lat="44.48925" lon="0.66824">
        <ele>161.9</ele>
        <time>2017-01-29T09:47:58.000Z</time>
      </trkpt>
      <trkpt lat="44.48925" lon="0.66824">
        <ele>161.9</ele>
        <time>2017-01-29T09:47:59.000Z</time>
      </trkpt>
      <trkpt lat="44.48925" lon="0.66824">
        <ele>161.9</ele>
        <time>2017-01-29T09:48:00.000Z</time>
      </trkpt>
      <trkpt lat="44.48925" lon="0.66824">
        <ele>161.9</ele>
        <time>2017-01-29T09:48:01.000Z</time>
      </trkpt>
      <trkpt lat="44.48925" lon="0.66824">
        <ele>161.9</ele>
        <time>2017-01-29T09:48:02.000Z</time>
      </trkpt>
      <trkpt lat="44.48925" lon="0.66824">
        <ele>161.9</ele>
        <time>2017-01-29T09:48:03.000Z</time>
      </trkpt>
      <trkpt lat="44.48925" lon="0.66824">
        <ele>161.9</ele>
        <time>2017-01-29T09:48:04.000Z</time>
      </trkpt>
      <trkpt lat="44.48925" lon="0.66824">
        <ele>161.9</ele>
        <time>2017-01-29T09:48:05.000Z</time>
      </trkpt>
      <trkpt lat="44.48925" lon="0.66824">
        <ele>161.9</ele>
        <time>2017-01-29T09:48:06.000Z</time>
      </trkpt>
      <trkpt lat="44.48925" lon="0.66824">
        <ele>161.9</ele>
        <time>2017-01-29T09:48:07.000Z</time>
      </trkpt>
      <trkpt lat="44.48925" lon="0.66824">
        <ele>161.9</ele>
        <time>2017-01-29T09:48:08.000Z</time>
      </trkpt>
      <trkpt lat="44.48925" lon="0.66824">
        <ele>161.9</ele>
        <time>2017-01-29T09:48:09.000Z</time>
      </trkpt>
      <trkpt lat="44.48925" lon="0.66824">
        <ele>161.9</ele>
        <time>2017-01-29T09:48:10.000Z</time>
      </trkpt>
      <trkpt lat="44.48925" lon="0.66824">
        <ele>161.9</ele>
        <time>2017-01-29T09:48:11.000Z</time>
      </trkpt>
      <trkpt lat="44.48925" lon="0.66824">
        <ele>161.9</ele>
        <time>2017-01-29T09:48:12.000Z</time>
      </trkpt>
      <trkpt lat="44.48925" lon="0.66824">
        <ele>161.9</ele>
        <time>2017-01-29T09:48:13.000Z</time>
      </trkpt>
      <trkpt lat="44.48925" lon="0.66824">
        <ele>161.9</ele>
        <time>2017-01-29T09:48:14.000Z</time>
      </trkpt>
      <trkpt lat="44.48925" lon="0.66824">
        <ele>161.9</ele>
        <time>2017-01-29T09:48:15.000Z</time>
      </trkpt>
      <trkpt lat="44.48925" lon="0.66824">
        <ele>161.9</ele>
        <time>2017-01-29T09:48:16.000Z</time>
      </trkpt>
      <trkpt lat="44.48925" lon="0.66824">
        <ele>161.9</ele>
        <time>2017-01-29T09:48:17.000Z</time>
      </trkpt>
      <trkpt lat="44.48925" lon="0.66824">
        <ele>161.9</ele>
        <time>2017-01-29T09:48:18.000Z</time>
      </trkpt>
      <trkpt lat="44.48925" lon="0.66824">
        <ele>161.9</ele>
        <time>2017-01-29T09:48:19.000Z</time>
      </trkpt>
      <trkpt lat="44.48925" lon="0.66824">
        <ele>161.9</ele>
        <time>2017-01-29T09:48:20.000Z</time>
      </trkpt>
      <trkpt lat="44.48925" lon="0.66824">
        <ele>161.9</ele>
        <time>2017-01-29T09:48:21.000Z</time>
      </trkpt>
      <trkpt lat="44.48925" lon="0.66824">
        <ele>161.9</ele>
        <time>2017-01-29T09:48:22.000Z</time>
      </trkpt>
      <trkpt lat="44.48925" lon="0.66824">
        <ele>161.9</ele>
        <time>2017-01-29T09:48:23.000Z</time>
      </trkpt>
      <trkpt lat="44.48925" lon="0.66824">
        <ele>161.9</ele>
        <time>2017-01-29T09:48:24.000Z</time>
      </trkpt>
      <trkpt lat="44.48925" lon="0.66824">
        <ele>161.9</ele>
        <time>2017-01-29T09:48:25.000Z</time>
      </trkpt>
      <trkpt lat="44.48925" lon="0.66824">
        <ele>161.9</ele>
        <time>2017-01-29T09:48:26.000Z</time>
      </trkpt>
      <trkpt lat="44.48925" lon="0.66824">
        <ele>161.9</ele>
        <time>2017-01-29T09:48:27.000Z</time>
      </trkpt>
      <trkpt lat="44.48925" lon="0.66824">
        <ele>161.9</ele>
        <time>2017-01-29T09:48:28.000Z</time>
      </trkpt>
      <trkpt lat="44.48925" lon="0.66824">
        <ele>161.9</ele>
        <time>2017-01-29T09:48:29.000Z</time>
      </trkpt>
      <trkpt lat="44.48925" lon="0.66824">
        <ele>161.9</ele>
        <time>2017-01-29T09:48:30.000Z</time>
      </trkpt>
      <trkpt lat="44.48925" lon="0.66824">
        <ele>161.9</ele>
        <time>2017-01-29T09:48:31.000Z</time>
      </trkpt>
      <trkpt lat="44.48925" lon="0.66824">
        <ele>161.9</ele>
        <time>2017-01-29T09:48:32.000Z</time>
      </trkpt>
      <trkpt lat="44.48925" lon="0.66824">
        <ele>161.9</ele>
        <time>2017-01-29T09:48:33.000Z</time>
      </trkpt>
      <trkpt lat="44.48925" lon="0.66824">
        <ele>161.9</ele>
        <time>2017-01-29T09:48:34.000Z</time>
      </trkpt>
      <trkpt lat="44.48925" lon="0.66824">
        <ele>161.9</ele>
        <time>2017-01-29T09:48:35.000Z</time>
      </trkpt>
      <trkpt lat="44.48925" lon="0.66824">
        <ele>161.9</ele>
        <time>2017-01-29T09:48:36.000Z</time>
      </trkpt>
      <trkpt lat="44.48925" lon="0.66824">
        <ele>161.9</ele>
        <time>2017-01-29T09:48:37.000Z</time>
      </trkpt>
      <trkpt lat="44.48925" lon="0.66824">
        <ele>161.9</ele>
        <time>2017-01-29T09:48:38.000Z</time>
      </trkpt>
      <trkpt lat="44.48925" lon="0.66824">
        <ele>161.9</ele>
        <time>2017-01-29T09:48:39.000Z</time>
      </trkpt>
      <trkpt lat="44.48925" lon="0.66824">
        <ele>161.9</ele>
        <time>2017-01-29T09:48:40.000Z</time>
      </trkpt>
      <trkpt lat="44.48925" lon="0.66824">
        <ele>161.9</ele>
        <time>2017-01-29T09:48:41.000Z</time>
      </trkpt>
      <trkpt lat="44.48925" lon="0.66824">
        <ele>161.9</ele>
        <time>2017-01-29T09:48:42.000Z</time>
      </trkpt>
      <trkpt lat="44.48925" lon="0.66824">
        <ele>161.9</ele>
        <time>2017-01-29T09:48:43.000Z</time>
      </trkpt>
      <trkpt lat="44.48925" lon="0.66824">
        <ele>161.9</ele>
        <time>2017-01-29T09:48:44.000Z</time>
      </trkpt>
      <trkpt lat="44.48925" lon="0.66824">
        <ele>161.9</ele>
        <time>2017-01-29T09:48:45.000Z</time>
      </trkpt>
      <trkpt lat="44.48925" lon="0.66824">
        <ele>161.9</ele>
        <time>2017-01-29T09:48:46.000Z</time>
      </trkpt>
      <trkpt lat="44.48925" lon="0.66824">
        <ele>161.9</ele>
        <time>2017-01-29T09:48:47.000Z</time>
      </trkpt>
      <trkpt lat="44.48925" lon="0.66824">
        <ele>161.9</ele>
        <time>2017-01-29T09:48:48.000Z</time>
      </trkpt>
      <trkpt lat="44.48925" lon="0.66824">
        <ele>161.9</ele>
        <time>2017-01-29T09:48:49.000Z</time>
      </trkpt>
      <trkpt lat="44.48925" lon="0.66824">
        <ele>161.9</ele>
        <time>2017-01-29T09:48:50.000Z</time>
      </trkpt>
      <trkpt lat="44.48925" lon="0.66824">
        <ele>161.9</ele>
        <time>2017-01-29T09:48:51.000Z</time>
      </trkpt>
      <trkpt lat="44.48925" lon="0.66824">
        <ele>161.9</ele>
        <time>2017-01-29T09:48:52.000Z</time>
      </trkpt>
      <trkpt lat="44.48925" lon="0.66824">
        <ele>161.9</ele>
        <time>2017-01-29T09:48:53.000Z</time>
      </trkpt>
      <trkpt lat="44.48925" lon="0.66824">
        <ele>161.9</ele>
        <time>2017-01-29T09:48:54.000Z</time>
      </trkpt>
      <trkpt lat="44.48925" lon="0.66824">
        <ele>161.9</ele>
        <time>2017-01-29T09:48:55.000Z</time>
      </trkpt>
      <trkpt lat="44.48925" lon="0.66824">
        <ele>161.9</ele>
        <time>2017-01-29T09:48:56.000Z</time>
      </trkpt>
      <trkpt lat="44.48925" lon="0.66824">
        <ele>161.9</ele>
        <time>2017-01-29T09:48:57.000Z</time>
      </trkpt>
      <trkpt lat="44.48925" lon="0.66824">
        <ele>161.9</ele>
        <time>2017-01-29T09:48:58.000Z</time>
      </trkpt>
      <trkpt lat="44.48925" lon="0.66824">
        <ele>161.9</ele>
        <time>2017-01-29T09:48:59.000Z</time>
      </trkpt>
      <trkpt lat="44.48925" lon="0.66824">
        <ele>161.9</ele>
        <time>2017-01-29T09:49:00.000Z</time>
      </trkpt>
      <trkpt lat="44.48925" lon="0.66824">
        <ele>161.9</ele>
        <time>2017-01-29T09:49:01.000Z</time>
      </trkpt>
      <trkpt lat="44.48925" lon="0.66824">
        <ele>161.9</ele>
        <time>2017-01-29T09:49:02.000Z</time>
      </trkpt>
      <trkpt lat="44.48925" lon="0.66824">
        <ele>161.9</ele>
        <time>2017-01-29T09:49:03.000Z</time>
      </trkpt>
      <trkpt lat="44.48925" lon="0.66824">
        <ele>161.9</ele>
        <time>2017-01-29T09:49:04.000Z</time>
      </trkpt>
      <trkpt lat="44.48925" lon="0.66824">
        <ele>161.9</ele>
        <time>2017-01-29T09:49:05.000Z</time>
      </trkpt>
      <trkpt lat="44.48925" lon="0.66824">
        <ele>161.9</ele>
        <time>2017-01-29T09:49:06.000Z</time>
      </trkpt>
      <trkpt lat="44.48925" lon="0.66824">
        <ele>161.9</ele>
        <time>2017-01-29T09:49:07.000Z</time>
      </trkpt>
      <trkpt lat="44.48925" lon="0.66824">
        <ele>161.9</ele>
        <time>2017-01-29T09:49:08.000Z</time>
      </trkpt>
      <trkpt lat="44.48925" lon="0.66824">
        <ele>161.9</ele>
        <time>2017-01-29T09:49:09.000Z</time>
      </trkpt>
      <trkpt lat="44.48925" lon="0.66824">
        <ele>161.9</ele>
        <time>2017-01-29T09:49:10.000Z</time>
      </trkpt>
      <trkpt lat="44.48925" lon="0.66824">
        <ele>161.9</ele>
        <time>2017-01-29T09:49:11.000Z</time>
      </trkpt>
      <trkpt lat="44.48925" lon="0.66824">
        <ele>161.9</ele>
        <time>2017-01-29T09:49:12.000Z</time>
      </trkpt>
      <trkpt lat="44.48925" lon="0.66824">
        <ele>161.9</ele>
        <time>2017-01-29T09:49:13.000Z</time>
      </trkpt>
      <trkpt lat="44.48925" lon="0.66824">
        <ele>161.9</ele>
        <time>2017-01-29T09:49:14.000Z</time>
      </trkpt>
      <trkpt lat="44.48925" lon="0.66824">
        <ele>161.9</ele>
        <time>2017-01-29T09:49:15.000Z</time>
      </trkpt>
      <trkpt lat="44.48925" lon="0.66824">
        <ele>161.9</ele>
        <time>2017-01-29T09:49:16.000Z</time>
      </trkpt>
      <trkpt lat="44.48925" lon="0.66824">
        <ele>161.9</ele>
        <time>2017-01-29T09:49:17.000Z</time>
      </trkpt>
      <trkpt lat="44.48925" lon="0.66824">
        <ele>161.9</ele>
        <time>2017-01-29T09:49:18.000Z</time>
      </trkpt>
      <trkpt lat="44.48925" lon="0.66824">
        <ele>161.9</ele>
        <time>2017-01-29T09:49:19.000Z</time>
      </trkpt>
      <trkpt lat="44.48925" lon="0.66824">
        <ele>161.9</ele>
        <time>2017-01-29T09:49:20.000Z</time>
      </trkpt>
      <trkpt lat="44.48925" lon="0.66824">
        <ele>161.9</ele>
        <time>2017-01-29T09:49:21.000Z</time>
      </trkpt>
      <trkpt lat="44.48925" lon="0.66824">
        <ele>161.9</ele>
        <time>2017-01-29T09:49:22.000Z</time>
      </trkpt>
      <trkpt lat="44.48925" lon="0.66824">
        <ele>161.9</ele>
        <time>2017-01-29T09:49:23.000Z</time>
      </trkpt>
      <trkpt lat="44.48925" lon="0.66824">
        <ele>161.9</ele>
        <time>2017-01-29T09:49:24.000Z</time>
      </trkpt>
      <trkpt lat="44.48925" lon="0.66824">
        <ele>161.9</ele>
        <time>2017-01-29T09:49:25.000Z</time>
      </trkpt>
      <trkpt lat="44.48925" lon="0.66824">
        <ele>161.9</ele>
        <time>2017-01-29T09:49:26.000Z</time>
      </trkpt>
      <trkpt lat="44.48925" lon="0.66824">
        <ele>161.9</ele>
        <time>2017-01-29T09:49:27.000Z</time>
      </trkpt>
      <trkpt lat="44.48925" lon="0.66824">
        <ele>161.9</ele>
        <time>2017-01-29T09:49:28.000Z</time>
      </trkpt>
      <trkpt lat="44.48925" lon="0.66824">
        <ele>161.9</ele>
        <time>2017-01-29T09:49:29.000Z</time>
      </trkpt>
      <trkpt lat="44.48925" lon="0.66824">
        <ele>161.9</ele>
        <time>2017-01-29T09:49:30.000Z</time>
      </trkpt>
      <trkpt lat="44.48925" lon="0.66824">
        <ele>161.9</ele>
        <time>2017-01-29T09:49:31.000Z</time>
      </trkpt>
      <trkpt lat="44.48925" lon="0.66824">
        <ele>161.9</ele>
        <time>2017-01-29T09:49:32.000Z</time>
      </trkpt>
      <trkpt lat="44.48925" lon="0.66824">
        <ele>161.9</ele>
        <time>2017-01-29T09:49:33.000Z</time>
      </trkpt>
      <trkpt lat="44.48925" lon="0.66824">
        <ele>161.9</ele>
        <time>2017-01-29T09:49:34.000Z</time>
      </trkpt>
      <trkpt lat="44.48925" lon="0.66824">
        <ele>161.9</ele>
        <time>2017-01-29T09:49:35.000Z</time>
      </trkpt>
      <trkpt lat="44.48925" lon="0.66824">
        <ele>161.9</ele>
        <time>2017-01-29T09:49:36.000Z</time>
      </trkpt>
      <trkpt lat="44.48925" lon="0.66824">
        <ele>161.9</ele>
        <time>2017-01-29T09:49:37.000Z</time>
      </trkpt>
      <trkpt lat="44.48925" lon="0.66824">
        <ele>161.9</ele>
        <time>2017-01-29T09:49:38.000Z</time>
      </trkpt>
      <trkpt lat="44.48925" lon="0.66824">
        <ele>161.9</ele>
        <time>2017-01-29T09:49:39.000Z</time>
      </trkpt>
      <trkpt lat="44.48925" lon="0.66824">
        <ele>161.9</ele>
        <time>2017-01-29T09:49:40.000Z</time>
      </trkpt>
      <trkpt lat="44.48925" lon="0.66824">
        <ele>161.9</ele>
        <time>2017-01-29T09:49:41.000Z</time>
      </trkpt>
      <trkpt lat="44.48925" lon="0.66824">
        <ele>161.9</ele>
        <time>2017-01-29T09:49:42.000Z</time>
      </trkpt>
      <trkpt lat="44.48925" lon="0.66824">
        <ele>161.9</ele>
        <time>2017-01-29T09:49:43.000Z</time>
      </trkpt>
      <trkpt lat="44.48925" lon="0.66824">
        <ele>161.9</ele>
        <time>2017-01-29T09:49:44.000Z</time>
      </trkpt>
      <trkpt lat="44.48925" lon="0.66824">
        <ele>161.9</ele>
        <time>2017-01-29T09:49:45.000Z</time>
      </trkpt>
      <trkpt lat="44.48925" lon="0.66824">
        <ele>161.9</ele>
        <time>2017-01-29T09:49:46.000Z</time>
      </trkpt>
      <trkpt lat="44.48925" lon="0.66824">
        <ele>161.9</ele>
        <time>2017-01-29T09:49:47.000Z</time>
      </trkpt>
      <trkpt lat="44.48925" lon="0.66824">
        <ele>161.9</ele>
        <time>2017-01-29T09:49:48.000Z</time>
      </trkpt>
      <trkpt lat="44.48925" lon="0.66824">
        <ele>161.9</ele>
        <time>2017-01-29T09:49:49.000Z</time>
      </trkpt>
      <trkpt lat="44.48925" lon="0.66824">
        <ele>161.9</ele>
        <time>2017-01-29T09:49:50.000Z</time>
      </trkpt>
      <trkpt lat="44.48925" lon="0.66824">
        <ele>161.9</ele>
        <time>2017-01-29T09:49:51.000Z</time>
      </trkpt>
      <trkpt lat="44.48925" lon="0.66824">
        <ele>161.9</ele>
        <time>2017-01-29T09:49:52.000Z</time>
      </trkpt>
      <trkpt lat="44.48925" lon="0.66824">
        <ele>161.9</ele>
        <time>2017-01-29T09:49:53.000Z</time>
      </trkpt>
      <trkpt lat="44.48925" lon="0.66824">
        <ele>161.9</ele>
        <time>2017-01-29T09:49:54.000Z</time>
      </trkpt>
      <trkpt lat="44.48925" lon="0.66824">
        <ele>161.9</ele>
        <time>2017-01-29T09:49:55.000Z</time>
      </trkpt>
      <trkpt lat="44.48925" lon="0.66824">
        <ele>161.9</ele>
        <time>2017-01-29T09:49:56.000Z</time>
      </trkpt>
      <trkpt lat="44.48925" lon="0.66824">
        <ele>161.9</ele>
        <time>2017-01-29T09:49:57.000Z</time>
      </trkpt>
      <trkpt lat="44.48925" lon="0.66824">
        <ele>161.9</ele>
        <time>2017-01-29T09:49:58.000Z</time>
      </trkpt>
      <trkpt lat="44.48925" lon="0.66824">
        <ele>161.9</ele>
        <time>2017-01-29T09:49:59.000Z</time>
      </trkpt>
      <trkpt lat="44.48925" lon="0.66824">
        <ele>161.9</ele>
        <time>2017-01-29T09:50:00.000Z</time>
      </trkpt>
      <trkpt lat="44.48925" lon="0.66824">
        <ele>161.9</ele>
        <time>2017-01-29T09:50:01.000Z</time>
      </trkpt>
      <trkpt lat="44.48925" lon="0.66824">
        <ele>161.9</ele>
        <time>2017-01-29T09:50:02.000Z</time>
      </trkpt>
      <trkpt lat="44.48925" lon="0.66824">
        <ele>161.9</ele>
        <time>2017-01-29T09:50:03.000Z</time>
      </trkpt>
      <trkpt lat="44.48925" lon="0.66824">
        <ele>161.9</ele>
        <time>2017-01-29T09:50:04.000Z</time>
      </trkpt>
      <trkpt lat="44.48925" lon="0.66824">
        <ele>161.9</ele>
        <time>2017-01-29T09:50:05.000Z</time>
      </trkpt>
      <trkpt lat="44.48925" lon="0.66824">
        <ele>161.9</ele>
        <time>2017-01-29T09:50:06.000Z</time>
      </trkpt>
      <trkpt lat="44.48925" lon="0.66824">
        <ele>161.9</ele>
        <time>2017-01-29T09:50:07.000Z</time>
      </trkpt>
      <trkpt lat="44.48925" lon="0.66824">
        <ele>161.9</ele>
        <time>2017-01-29T09:50:08.000Z</time>
      </trkpt>
      <trkpt lat="44.48925" lon="0.66824">
        <ele>161.9</ele>
        <time>2017-01-29T09:50:09.000Z</time>
      </trkpt>
      <trkpt lat="44.48925" lon="0.66824">
        <ele>161.9</ele>
        <time>2017-01-29T09:50:10.000Z</time>
      </trkpt>
      <trkpt lat="44.48925" lon="0.66824">
        <ele>161.9</ele>
        <time>2017-01-29T09:50:11.000Z</time>
      </trkpt>
      <trkpt lat="44.48925" lon="0.66824">
        <ele>161.9</ele>
        <time>2017-01-29T09:50:12.000Z</time>
      </trkpt>
      <trkpt lat="44.48925" lon="0.66824">
        <ele>161.9</ele>
        <time>2017-01-29T09:50:13.000Z</time>
      </trkpt>
      <trkpt lat="44.48925" lon="0.66824">
        <ele>161.9</ele>
        <time>2017-01-29T09:50:14.000Z</time>
      </trkpt>
      <trkpt lat="44.48925" lon="0.66824">
        <ele>161.9</ele>
        <time>2017-01-29T09:50:15.000Z</time>
      </trkpt>
      <trkpt lat="44.48925" lon="0.66824">
        <ele>161.9</ele>
        <time>2017-01-29T09:50:16.000Z</time>
      </trkpt>
      <trkpt lat="44.48925" lon="0.66824">
        <ele>161.9</ele>
        <time>2017-01-29T09:50:17.000Z</time>
      </trkpt>
      <trkpt lat="44.48925" lon="0.66824">
        <ele>161.9</ele>
        <time>2017-01-29T09:50:18.000Z</time>
      </trkpt>
      <trkpt lat="44.48925" lon="0.66824">
        <ele>161.9</ele>
        <time>2017-01-29T09:50:19.000Z</time>
      </trkpt>
      <trkpt lat="44.48925" lon="0.66824">
        <ele>161.9</ele>
        <time>2017-01-29T09:50:20.000Z</time>
      </trkpt>
      <trkpt lat="44.48925" lon="0.66824">
        <ele>161.9</ele>
        <time>2017-01-29T09:50:21.000Z</time>
      </trkpt>
      <trkpt lat="44.48925" lon="0.66824">
        <ele>161.9</ele>
        <time>2017-01-29T09:50:22.000Z</time>
      </trkpt>
      <trkpt lat="44.48925" lon="0.66824">
        <ele>161.9</ele>
        <time>2017-01-29T09:50:23.000Z</time>
      </trkpt>
      <trkpt lat="44.48925" lon="0.66824">
        <ele>161.9</ele>
        <time>2017-01-29T09:50:24.000Z</time>
      </trkpt>
      <trkpt lat="44.48925" lon="0.66824">
        <ele>161.9</ele>
        <time>2017-01-29T09:50:25.000Z</time>
      </trkpt>
      <trkpt lat="44.48925" lon="0.66824">
        <ele>161.9</ele>
        <time>2017-01-29T09:50:26.000Z</time>
      </trkpt>
      <trkpt lat="44.48925" lon="0.66824">
        <ele>161.9</ele>
        <time>2017-01-29T09:50:27.000Z</time>
      </trkpt>
      <trkpt lat="44.48925" lon="0.66824">
        <ele>161.9</ele>
        <time>2017-01-29T09:50:28.000Z</time>
      </trkpt>
      <trkpt lat="44.48925" lon="0.66824">
        <ele>161.9</ele>
        <time>2017-01-29T09:50:29.000Z</time>
      </trkpt>
      <trkpt lat="44.48925" lon="0.66824">
        <ele>161.9</ele>
        <time>2017-01-29T09:50:30.000Z</time>
      </trkpt>
      <trkpt lat="44.48925" lon="0.66824">
        <ele>161.9</ele>
        <time>2017-01-29T09:50:31.000Z</time>
      </trkpt>
      <trkpt lat="44.48925" lon="0.66824">
        <ele>161.9</ele>
        <time>2017-01-29T09:50:32.000Z</time>
      </trkpt>
      <trkpt lat="44.48925" lon="0.66824">
        <ele>161.9</ele>
        <time>2017-01-29T09:50:33.000Z</time>
      </trkpt>
      <trkpt lat="44.48925" lon="0.66824">
        <ele>161.9</ele>
        <time>2017-01-29T09:50:34.000Z</time>
      </trkpt>
      <trkpt lat="44.48925" lon="0.66824">
        <ele>161.9</ele>
        <time>2017-01-29T09:50:35.000Z</time>
      </trkpt>
      <trkpt lat="44.48925" lon="0.66824">
        <ele>161.9</ele>
        <time>2017-01-29T09:50:36.000Z</time>
      </trkpt>
      <trkpt lat="44.48925" lon="0.66824">
        <ele>161.9</ele>
        <time>2017-01-29T09:50:37.000Z</time>
      </trkpt>
      <trkpt lat="44.48925" lon="0.66824">
        <ele>161.9</ele>
        <time>2017-01-29T09:50:38.000Z</time>
      </trkpt>
      <trkpt lat="44.48925" lon="0.66824">
        <ele>161.9</ele>
        <time>2017-01-29T09:50:39.000Z</time>
      </trkpt>
      <trkpt lat="44.48925" lon="0.66824">
        <ele>161.9</ele>
        <time>2017-01-29T09:50:40.000Z</time>
      </trkpt>
      <trkpt lat="44.48925" lon="0.66824">
        <ele>161.9</ele>
        <time>2017-01-29T09:50:41.000Z</time>
      </trkpt>
      <trkpt lat="44.48925" lon="0.66824">
        <ele>161.9</ele>
        <time>2017-01-29T09:50:42.000Z</time>
      </trkpt>
      <trkpt lat="44.48925" lon="0.66824">
        <ele>161.9</ele>
        <time>2017-01-29T09:50:43.000Z</time>
      </trkpt>
      <trkpt lat="44.48925" lon="0.66824">
        <ele>161.9</ele>
        <time>2017-01-29T09:50:44.000Z</time>
      </trkpt>
      <trkpt lat="44.48925" lon="0.66824">
        <ele>161.9</ele>
        <time>2017-01-29T09:50:45.000Z</time>
      </trkpt>
      <trkpt lat="44.48925" lon="0.66824">
        <ele>161.9</ele>
        <time>2017-01-29T09:50:46.000Z</time>
      </trkpt>
      <trkpt lat="44.48925" lon="0.66824">
        <ele>161.9</ele>
        <time>2017-01-29T09:50:47.000Z</time>
      </trkpt>
      <trkpt lat="44.48925" lon="0.66824">
        <ele>161.9</ele>
        <time>2017-01-29T09:50:48.000Z</time>
      </trkpt>
      <trkpt lat="44.48925" lon="0.66824">
        <ele>161.9</ele>
        <time>2017-01-29T09:50:49.000Z</time>
      </trkpt>
      <trkpt lat="44.48925" lon="0.66824">
        <ele>161.9</ele>
        <time>2017-01-29T09:50:50.000Z</time>
      </trkpt>
      <trkpt lat="44.48925" lon="0.66824">
        <ele>161.9</ele>
        <time>2017-01-29T09:50:51.000Z</time>
      </trkpt>
      <trkpt lat="44.48925" lon="0.66824">
        <ele>161.9</ele>
        <time>2017-01-29T09:50:52.000Z</time>
      </trkpt>
      <trkpt lat="44.48925" lon="0.66824">
        <ele>161.9</ele>
        <time>2017-01-29T09:50:53.000Z</time>
      </trkpt>
      <trkpt lat="44.48925" lon="0.66824">
        <ele>161.9</ele>
        <time>2017-01-29T09:50:54.000Z</time>
      </trkpt>
      <trkpt lat="44.48925" lon="0.66824">
        <ele>161.9</ele>
        <time>2017-01-29T09:50:55.000Z</time>
      </trkpt>
      <trkpt lat="44.48925" lon="0.66824">
        <ele>161.9</ele>
        <time>2017-01-29T09:50:56.000Z</time>
      </trkpt>
      <trkpt lat="44.48925" lon="0.66824">
        <ele>161.9</ele>
        <time>2017-01-29T09:50:57.000Z</time>
      </trkpt>
      <trkpt lat="44.48925" lon="0.66824">
        <ele>161.9</ele>
        <time>2017-01-29T09:50:58.000Z</time>
      </trkpt>
      <trkpt lat="44.48925" lon="0.66824">
        <ele>161.9</ele>
        <time>2017-01-29T09:50:59.000Z</time>
      </trkpt>
      <trkpt lat="44.48925" lon="0.66824">
        <ele>161.9</ele>
        <time>2017-01-29T09:51:00.000Z</time>
      </trkpt>
      <trkpt lat="44.48925" lon="0.66824">
        <ele>161.9</ele>
        <time>2017-01-29T09:51:01.000Z</time>
      </trkpt>
      <trkpt lat="44.48925" lon="0.66824">
        <ele>161.9</ele>
        <time>2017-01-29T09:51:02.000Z</time>
      </trkpt>
      <trkpt lat="44.48925" lon="0.66824">
        <ele>161.9</ele>
        <time>2017-01-29T09:51:03.000Z</time>
      </trkpt>
      <trkpt lat="44.48925" lon="0.66824">
        <ele>161.9</ele>
        <time>2017-01-29T09:51:04.000Z</time>
      </trkpt>
      <trkpt lat="44.48925" lon="0.66824">
        <ele>161.9</ele>
        <time>2017-01-29T09:51:05.000Z</time>
      </trkpt>
      <trkpt lat="44.48925" lon="0.66824">
        <ele>161.9</ele>
        <time>2017-01-29T09:51:06.000Z</time>
      </trkpt>
      <trkpt lat="44.48925" lon="0.66824">
        <ele>161.9</ele>
        <time>2017-01-29T09:51:07.000Z</time>
      </trkpt>
      <trkpt lat="44.48925" lon="0.66824">
        <ele>161.9</ele>
        <time>2017-01-29T09:51:08.000Z</time>
      </trkpt>
      <trkpt lat="44.48925" lon="0.66824">
        <ele>161.9</ele>
        <time>2017-01-29T09:51:09.000Z</time>
      </trkpt>
      <trkpt lat="44.48925" lon="0.66824">
        <ele>161.9</ele>
        <time>2017-01-29T09:51:10.000Z</time>
      </trkpt>
      <trkpt lat="44.48925" lon="0.66824">
        <ele>161.9</ele>
        <time>2017-01-29T09:51:11.000Z</time>
      </trkpt>
      <trkpt lat="44.48925" lon="0.66824">
        <ele>161.9</ele>
        <time>2017-01-29T09:51:12.000Z</time>
      </trkpt>
      <trkpt lat="44.48925" lon="0.66824">
        <ele>161.9</ele>
        <time>2017-01-29T09:51:13.000Z</time>
      </trkpt>
      <trkpt lat="44.48925" lon="0.66824">
        <ele>161.9</ele>
        <time>2017-01-29T09:51:14.000Z</time>
      </trkpt>
      <trkpt lat="44.48925" lon="0.66824">
        <ele>161.9</ele>
        <time>2017-01-29T09:51:15.000Z</time>
      </trkpt>
      <trkpt lat="44.48925" lon="0.66824">
        <ele>161.9</ele>
        <time>2017-01-29T09:51:16.000Z</time>
      </trkpt>
      <trkpt lat="44.48925" lon="0.66824">
        <ele>161.9</ele>
        <time>2017-01-29T09:51:17.000Z</time>
      </trkpt>
      <trkpt lat="44.48925" lon="0.66824">
        <ele>161.9</ele>
        <time>2017-01-29T09:51:18.000Z</time>
      </trkpt>
      <trkpt lat="44.48925" lon="0.66824">
        <ele>161.9</ele>
        <time>2017-01-29T09:51:19.000Z</time>
      </trkpt>
      <trkpt lat="44.48925" lon="0.66824">
        <ele>161.9</ele>
        <time>2017-01-29T09:51:20.000Z</time>
      </trkpt>
      <trkpt lat="44.48925" lon="0.66824">
        <ele>161.9</ele>
        <time>2017-01-29T09:51:21.000Z</time>
      </trkpt>
      <trkpt lat="44.48925" lon="0.66824">
        <ele>161.9</ele>
        <time>2017-01-29T09:51:22.000Z</time>
      </trkpt>
      <trkpt lat="44.48925" lon="0.66824">
        <ele>161.9</ele>
        <time>2017-01-29T09:51:23.000Z</time>
      </trkpt>
      <trkpt lat="44.48925" lon="0.66824">
        <ele>161.9</ele>
        <time>2017-01-29T09:51:24.000Z</time>
      </trkpt>
      <trkpt lat="44.48925" lon="0.66824">
        <ele>161.9</ele>
        <time>2017-01-29T09:51:25.000Z</time>
      </trkpt>
      <trkpt lat="44.48925" lon="0.66824">
        <ele>161.9</ele>
        <time>2017-01-29T09:51:26.000Z</time>
      </trkpt>
      <trkpt lat="44.48925" lon="0.66824">
        <ele>161.9</ele>
        <time>2017-01-29T09:51:27.000Z</time>
      </trkpt>
      <trkpt lat="44.48925" lon="0.66824">
        <ele>161.9</ele>
        <time>2017-01-29T09:51:28.000Z</time>
      </trkpt>
      <trkpt lat="44.48925" lon="0.66824">
        <ele>161.9</ele>
        <time>2017-01-29T09:51:29.000Z</time>
      </trkpt>
      <trkpt lat="44.48925" lon="0.66824">
        <ele>161.9</ele>
        <time>2017-01-29T09:51:30.000Z</time>
      </trkpt>
      <trkpt lat="44.48925" lon="0.66824">
        <ele>161.9</ele>
        <time>2017-01-29T09:51:31.000Z</time>
      </trkpt>
      <trkpt lat="44.48925" lon="0.66824">
        <ele>161.9</ele>
        <time>2017-01-29T09:51:32.000Z</time>
      </trkpt>
      <trkpt lat="44.48925" lon="0.66824">
        <ele>161.9</ele>
        <time>2017-01-29T09:51:33.000Z</time>
      </trkpt>
      <trkpt lat="44.48925" lon="0.66824">
        <ele>161.9</ele>
        <time>2017-01-29T09:51:34.000Z</time>
      </trkpt>
      <trkpt lat="44.48925" lon="0.66824">
        <ele>161.9</ele>
        <time>2017-01-29T09:51:35.000Z</time>
      </trkpt>
      <trkpt lat="44.48925" lon="0.66824">
        <ele>161.9</ele>
        <time>2017-01-29T09:51:36.000Z</time>
      </trkpt>
      <trkpt lat="44.48925" lon="0.66824">
        <ele>161.9</ele>
        <time>2017-01-29T09:51:37.000Z</time>
      </trkpt>
      <trkpt lat="44.48925" lon="0.66824">
        <ele>161.9</ele>
        <time>2017-01-29T09:51:38.000Z</time>
      </trkpt>
      <trkpt lat="44.48925" lon="0.66824">
        <ele>161.9</ele>
        <time>2017-01-29T09:51:39.000Z</time>
      </trkpt>
      <trkpt lat="44.48925" lon="0.66824">
        <ele>161.9</ele>
        <time>2017-01-29T09:51:40.000Z</time>
      </trkpt>
      <trkpt lat="44.48925" lon="0.66824">
        <ele>161.9</ele>
        <time>2017-01-29T09:51:41.000Z</time>
      </trkpt>
      <trkpt lat="44.48925" lon="0.66824">
        <ele>161.9</ele>
        <time>2017-01-29T09:51:42.000Z</time>
      </trkpt>
      <trkpt lat="44.48925" lon="0.66824">
        <ele>161.9</ele>
        <time>2017-01-29T09:51:43.000Z</time>
      </trkpt>
      <trkpt lat="44.48925" lon="0.66824">
        <ele>161.9</ele>
        <time>2017-01-29T09:51:44.000Z</time>
      </trkpt>
      <trkpt lat="44.48925" lon="0.66824">
        <ele>161.9</ele>
        <time>2017-01-29T09:51:45.000Z</time>
      </trkpt>
      <trkpt lat="44.48925" lon="0.66824">
        <ele>161.9</ele>
        <time>2017-01-29T09:51:46.000Z</time>
      </trkpt>
      <trkpt lat="44.48925" lon="0.66824">
        <ele>161.9</ele>
        <time>2017-01-29T09:51:47.000Z</time>
      </trkpt>
      <trkpt lat="44.48925" lon="0.66824">
        <ele>161.9</ele>
        <time>2017-01-29T09:51:48.000Z</time>
      </trkpt>
      <trkpt lat="44.48925" lon="0.66824">
        <ele>161.9</ele>
        <time>2017-01-29T09:51:49.000Z</time>
      </trkpt>
      <trkpt lat="44.48925" lon="0.66824">
        <ele>161.9</ele>
        <time>2017-01-29T09:51:50.000Z</time>
      </trkpt>
      <trkpt lat="44.48925" lon="0.66824">
        <ele>161.9</ele>
        <time>2017-01-29T09:51:51.000Z</time>
      </trkpt>
      <trkpt lat="44.48925" lon="0.66824">
        <ele>161.9</ele>
        <time>2017-01-29T09:51:52.000Z</time>
      </trkpt>
      <trkpt lat="44.48925" lon="0.66824">
        <ele>161.9</ele>
        <time>2017-01-29T09:51:53.000Z</time>
      </trkpt>
      <trkpt lat="44.48925" lon="0.66824">
        <ele>161.9</ele>
        <time>2017-01-29T09:51:54.000Z</time>
      </trkpt>
      <trkpt lat="44.48925" lon="0.66824">
        <ele>161.9</ele>
        <time>2017-01-29T09:51:55.000Z</time>
      </trkpt>
      <trkpt lat="44.48925" lon="0.66824">
        <ele>161.9</ele>
        <time>2017-01-29T09:51:56.000Z</time>
      </trkpt>
      <trkpt lat="44.48925" lon="0.66824">
        <ele>161.9</ele>
        <time>2017-01-29T09:51:57.000Z</time>
      </trkpt>
      <trkpt lat="44.48925" lon="0.66824">
        <ele>161.9</ele>
        <time>2017-01-29T09:51:58.000Z</time>
      </trkpt>
      <trkpt lat="44.48925" lon="0.66824">
        <ele>161.9</ele>
        <time>2017-01-29T09:51:59.000Z</time>
      </trkpt>
      <trkpt lat="44.48925" lon="0.66824">
        <ele>161.9</ele>
        <time>2017-01-29T09:52:00.000Z</time>
      </trkpt>
      <trkpt lat="44.48925" lon="0.66824">
        <ele>161.9</ele>
        <time>2017-01-29T09:52:01.000Z</time>
      </trkpt>
      <trkpt lat="44.48925" lon="0.66824">
        <ele>161.9</ele>
        <time>2017-01-29T09:52:02.000Z</time>
      </trkpt>
      <trkpt lat="44.48925" lon="0.66824">
        <ele>161.9</ele>
        <time>2017-01-29T09:52:03.000Z</time>
      </trkpt>
      <trkpt lat="44.48925" lon="0.66824">
        <ele>161.9</ele>
        <time>2017-01-29T09:52:04.000Z</time>
      </trkpt>
      <trkpt lat="44.48925" lon="0.66824">
        <ele>161.9</ele>
        <time>2017-01-29T09:52:05.000Z</time>
      </trkpt>
      <trkpt lat="44.48925" lon="0.66824">
        <ele>161.9</ele>
        <time>2017-01-29T09:52:06.000Z</time>
      </trkpt>
      <trkpt lat="44.48925" lon="0.66824">
        <ele>161.9</ele>
        <time>2017-01-29T09:52:07.000Z</time>
      </trkpt>
      <trkpt lat="44.48925" lon="0.66824">
        <ele>161.9</ele>
        <time>2017-01-29T09:52:08.000Z</time>
      </trkpt>
      <trkpt lat="44.48925" lon="0.66824">
        <ele>161.9</ele>
        <time>2017-01-29T09:52:09.000Z</time>
      </trkpt>
      <trkpt lat="44.48925" lon="0.66824">
        <ele>161.9</ele>
        <time>2017-01-29T09:52:10.000Z</time>
      </trkpt>
      <trkpt lat="44.48925" lon="0.66824">
        <ele>161.9</ele>
        <time>2017-01-29T09:52:11.000Z</time>
      </trkpt>
      <trkpt lat="44.48925" lon="0.66824">
        <ele>161.9</ele>
        <time>2017-01-29T09:52:12.000Z</time>
      </trkpt>
      <trkpt lat="44.48925" lon="0.66824">
        <ele>161.9</ele>
        <time>2017-01-29T09:52:13.000Z</time>
      </trkpt>
      <trkpt lat="44.48925" lon="0.66824">
        <ele>161.9</ele>
        <time>2017-01-29T09:52:14.000Z</time>
      </trkpt>
      <trkpt lat="44.48925" lon="0.66824">
        <ele>161.9</ele>
        <time>2017-01-29T09:52:15.000Z</time>
      </trkpt>
      <trkpt lat="44.48925" lon="0.66824">
        <ele>161.9</ele>
        <time>2017-01-29T09:52:16.000Z</time>
      </trkpt>
      <trkpt lat="44.48925" lon="0.66824">
        <ele>161.9</ele>
        <time>2017-01-29T09:52:17.000Z</time>
      </trkpt>
      <trkpt lat="44.48925" lon="0.66824">
        <ele>161.9</ele>
        <time>2017-01-29T09:52:18.000Z</time>
      </trkpt>
      <trkpt lat="44.48925" lon="0.66824">
        <ele>161.9</ele>
        <time>2017-01-29T09:52:19.000Z</time>
      </trkpt>
      <trkpt lat="44.48925" lon="0.66824">
        <ele>161.9</ele>
        <time>2017-01-29T09:52:20.000Z</time>
      </trkpt>
      <trkpt lat="44.48925" lon="0.66824">
        <ele>161.9</ele>
        <time>2017-01-29T09:52:21.000Z</time>
      </trkpt>
      <trkpt lat="44.48925" lon="0.66824">
        <ele>161.9</ele>
        <time>2017-01-29T09:52:22.000Z</time>
      </trkpt>
      <trkpt lat="44.48925" lon="0.66824">
        <ele>161.9</ele>
        <time>2017-01-29T09:52:23.000Z</time>
      </trkpt>
      <trkpt lat="44.48925" lon="0.66824">
        <ele>161.9</ele>
        <time>2017-01-29T09:52:24.000Z</time>
      </trkpt>
      <trkpt lat="44.48925" lon="0.66824">
        <ele>161.9</ele>
        <time>2017-01-29T09:52:25.000Z</time>
      </trkpt>
      <trkpt lat="44.48925" lon="0.66824">
        <ele>161.9</ele>
        <time>2017-01-29T09:52:26.000Z</time>
      </trkpt>
      <trkpt lat="44.48925" lon="0.66824">
        <ele>161.9</ele>
        <time>2017-01-29T09:52:27.000Z</time>
      </trkpt>
      <trkpt lat="44.48925" lon="0.66824">
        <ele>161.9</ele>
        <time>2017-01-29T09:52:28.000Z</time>
      </trkpt>
      <trkpt lat="44.48925" lon="0.66824">
        <ele>161.9</ele>
        <time>2017-01-29T09:52:29.000Z</time>
      </trkpt>
      <trkpt lat="44.48925" lon="0.66824">
        <ele>161.9</ele>
        <time>2017-01-29T09:52:30.000Z</time>
      </trkpt>
      <trkpt lat="44.48925" lon="0.66824">
        <ele>161.9</ele>
        <time>2017-01-29T09:52:31.000Z</time>
      </trkpt>
      <trkpt lat="44.48925" lon="0.66824">
        <ele>161.9</ele>
        <time>2017-01-29T09:52:32.000Z</time>
      </trkpt>
      <trkpt lat="44.48925" lon="0.66824">
        <ele>161.9</ele>
        <time>2017-01-29T09:52:33.000Z</time>
      </trkpt>
      <trkpt lat="44.48925" lon="0.66824">
        <ele>161.9</ele>
        <time>2017-01-29T09:52:34.000Z</time>
      </trkpt>
      <trkpt lat="44.48925" lon="0.66824">
        <ele>161.9</ele>
        <time>2017-01-29T09:52:35.000Z</time>
      </trkpt>
      <trkpt lat="44.48925" lon="0.66824">
        <ele>161.9</ele>
        <time>2017-01-29T09:52:36.000Z</time>
      </trkpt>
      <trkpt lat="44.48925" lon="0.66824">
        <ele>161.9</ele>
        <time>2017-01-29T09:52:37.000Z</time>
      </trkpt>
      <trkpt lat="44.48925" lon="0.66824">
        <ele>161.9</ele>
        <time>2017-01-29T09:52:38.000Z</time>
      </trkpt>
      <trkpt lat="44.48925" lon="0.66824">
        <ele>161.9</ele>
        <time>2017-01-29T09:52:39.000Z</time>
      </trkpt>
      <trkpt lat="44.48925" lon="0.66824">
        <ele>161.9</ele>
        <time>2017-01-29T09:52:40.000Z</time>
      </trkpt>
      <trkpt lat="44.48925" lon="0.66824">
        <ele>161.9</ele>
        <time>2017-01-29T09:52:41.000Z</time>
      </trkpt>
      <trkpt lat="44.48925" lon="0.66824">
        <ele>161.9</ele>
        <time>2017-01-29T09:52:42.000Z</time>
      </trkpt>
      <trkpt lat="44.48925" lon="0.66824">
        <ele>161.9</ele>
        <time>2017-01-29T09:52:43.000Z</time>
      </trkpt>
      <trkpt lat="44.48925" lon="0.66824">
        <ele>161.9</ele>
        <time>2017-01-29T09:52:44.000Z</time>
      </trkpt>
      <trkpt lat="44.48925" lon="0.66824">
        <ele>161.9</ele>
        <time>2017-01-29T09:52:45.000Z</time>
      </trkpt>
      <trkpt lat="44.48925" lon="0.66824">
        <ele>161.9</ele>
        <time>2017-01-29T09:52:46.000Z</time>
      </trkpt>
      <trkpt lat="44.48925" lon="0.66824">
        <ele>161.9</ele>
        <time>2017-01-29T09:52:47.000Z</time>
      </trkpt>
      <trkpt lat="44.48925" lon="0.66824">
        <ele>161.9</ele>
        <time>2017-01-29T09:52:48.000Z</time>
      </trkpt>
      <trkpt lat="44.48925" lon="0.66824">
        <ele>161.9</ele>
        <time>2017-01-29T09:52:49.000Z</time>
      </trkpt>
      <trkpt lat="44.48925" lon="0.66824">
        <ele>161.9</ele>
        <time>2017-01-29T09:52:50.000Z</time>
      </trkpt>
      <trkpt lat="44.48925" lon="0.66824">
        <ele>161.9</ele>
        <time>2017-01-29T09:52:51.000Z</time>
      </trkpt>
      <trkpt lat="44.48925" lon="0.66824">
        <ele>161.9</ele>
        <time>2017-01-29T09:52:52.000Z</time>
      </trkpt>
      <trkpt lat="44.48925" lon="0.66824">
        <ele>161.9</ele>
        <time>2017-01-29T09:52:53.000Z</time>
      </trkpt>
      <trkpt lat="44.48925" lon="0.66824">
        <ele>161.9</ele>
        <time>2017-01-29T09:52:54.000Z</time>
      </trkpt>
      <trkpt lat="44.48925" lon="0.66824">
        <ele>161.9</ele>
        <time>2017-01-29T09:52:55.000Z</time>
      </trkpt>
      <trkpt lat="44.48925" lon="0.66824">
        <ele>161.9</ele>
        <time>2017-01-29T09:52:56.000Z</time>
      </trkpt>
      <trkpt lat="44.48925" lon="0.66824">
        <ele>161.9</ele>
        <time>2017-01-29T09:52:57.000Z</time>
      </trkpt>
      <trkpt lat="44.48925" lon="0.66824">
        <ele>161.9</ele>
        <time>2017-01-29T09:52:58.000Z</time>
      </trkpt>
      <trkpt lat="44.48925" lon="0.66824">
        <ele>161.9</ele>
        <time>2017-01-29T09:52:59.000Z</time>
      </trkpt>
      <trkpt lat="44.48925" lon="0.66824">
        <ele>161.9</ele>
        <time>2017-01-29T09:53:00.000Z</time>
      </trkpt>
      <trkpt lat="44.48925" lon="0.66824">
        <ele>161.9</ele>
        <time>2017-01-29T09:53:01.000Z</time>
      </trkpt>
      <trkpt lat="44.48925" lon="0.66824">
        <ele>161.9</ele>
        <time>2017-01-29T09:53:02.000Z</time>
      </trkpt>
      <trkpt lat="44.48925" lon="0.66824">
        <ele>161.9</ele>
        <time>2017-01-29T09:53:03.000Z</time>
      </trkpt>
      <trkpt lat="44.48925" lon="0.66824">
        <ele>161.9</ele>
        <time>2017-01-29T09:53:04.000Z</time>
      </trkpt>
      <trkpt lat="44.48925" lon="0.66824">
        <ele>161.9</ele>
        <time>2017-01-29T09:53:05.000Z</time>
      </trkpt>
      <trkpt lat="44.48925" lon="0.66824">
        <ele>161.9</ele>
        <time>2017-01-29T09:53:06.000Z</time>
      </trkpt>
      <trkpt lat="44.48925" lon="0.66824">
        <ele>161.9</ele>
        <time>2017-01-29T09:53:07.000Z</time>
      </trkpt>
      <trkpt lat="44.48925" lon="0.66824">
        <ele>161.9</ele>
        <time>2017-01-29T09:53:08.000Z</time>
      </trkpt>
      <trkpt lat="44.48925" lon="0.66824">
        <ele>161.9</ele>
        <time>2017-01-29T09:53:09.000Z</time>
      </trkpt>
      <trkpt lat="44.48925" lon="0.66824">
        <ele>161.9</ele>
        <time>2017-01-29T09:53:10.000Z</time>
      </trkpt>
      <trkpt lat="44.48925" lon="0.66824">
        <ele>161.9</ele>
        <time>2017-01-29T09:53:11.000Z</time>
      </trkpt>
      <trkpt lat="44.48925" lon="0.66824">
        <ele>161.9</ele>
        <time>2017-01-29T09:53:12.000Z</time>
      </trkpt>
      <trkpt lat="44.48925" lon="0.66824">
        <ele>161.9</ele>
        <time>2017-01-29T09:53:13.000Z</time>
      </trkpt>
      <trkpt lat="44.48925" lon="0.66824">
        <ele>161.9</ele>
        <time>2017-01-29T09:53:14.000Z</time>
      </trkpt>
      <trkpt lat="44.48925" lon="0.66824">
        <ele>161.9</ele>
        <time>2017-01-29T09:53:15.000Z</time>
      </trkpt>
      <trkpt lat="44.48925" lon="0.66824">
        <ele>161.9</ele>
        <time>2017-01-29T09:53:16.000Z</time>
      </trkpt>
      <trkpt lat="44.48925" lon="0.66824">
        <ele>161.9</ele>
        <time>2017-01-29T09:53:17.000Z</time>
      </trkpt>
      <trkpt lat="44.48925" lon="0.66824">
        <ele>161.9</ele>
        <time>2017-01-29T09:53:18.000Z</time>
      </trkpt>
      <trkpt lat="44.48925" lon="0.66824">
        <ele>161.9</ele>
        <time>2017-01-29T09:53:19.000Z</time>
      </trkpt>
      <trkpt lat="44.48925" lon="0.66824">
        <ele>161.9</ele>
        <time>2017-01-29T09:53:20.000Z</time>
      </trkpt>
      <trkpt lat="44.48925" lon="0.66824">
        <ele>161.9</ele>
        <time>2017-01-29T09:53:21.000Z</time>
      </trkpt>
      <trkpt lat="44.48925" lon="0.66824">
        <ele>161.9</ele>
        <time>2017-01-29T09:53:22.000Z</time>
      </trkpt>
      <trkpt lat="44.48925" lon="0.66824">
        <ele>161.9</ele>
        <time>2017-01-29T09:53:23.000Z</time>
      </trkpt>
      <trkpt lat="44.48925" lon="0.66824">
        <ele>161.8</ele>
        <time>2017-01-29T09:53:24.000Z</time>
      </trkpt>
      <trkpt lat="44.48925" lon="0.66823">
        <ele>161.8</ele>
        <time>2017-01-29T09:53:25.000Z</time>
      </trkpt>
      <trkpt lat="44.48925" lon="0.66822">
        <ele>161.7</ele>
        <time>2017-01-29T09:53:26.000Z</time>
      </trkpt>
      <trkpt lat="44.48925" lon="0.66819">
        <ele>161.6</ele>
        <time>2017-01-29T09:53:27.000Z</time>
      </trkpt>
      <trkpt lat="44.48925" lon="0.66816">
        <ele>161.4</ele>
        <time>2017-01-29T09:53:28.000Z</time>
      </trkpt>
      <trkpt lat="44.48924" lon="0.66811">
        <ele>161.1</ele>
        <time>2017-01-29T09:53:29.000Z</time>
      </trkpt>
      <trkpt lat="44.48924" lon="0.66805">
        <ele>160.7</ele>
        <time>2017-01-29T09:53:30.000Z</time>
      </trkpt>
      <trkpt lat="44.48924" lon="0.66797">
        <ele>160.3</ele>
        <time>2017-01-29T09:53:31.000Z</time>
      </trkpt>
      <trkpt lat="44.48923" lon="0.66788">
        <ele>159.7</ele>
        <time>2017-01-29T09:53:32.000Z</time>
      </trkpt>
      <trkpt lat="44.48923" lon="0.66778">
        <ele>159.1</ele>
        <time>2017-01-29T09:53:33.000Z</time>
      </trkpt>
      <trkpt lat="44.48922" lon="0.66766">
        <ele>158.4</ele>
        <time>2017-01-29T09:53:34.000Z</time>
      </trkpt>
      <trkpt lat="44.48921" lon="0.66754">
        <ele>157.6</ele>
        <time>2017-01-29T09:53:35.000Z</time>
      </trkpt>
      <trkpt lat="44.48921" lon="0.6674">
        <ele>156.8</ele>
        <time>2017-01-29T09:53:36.000Z</time>
      </trkpt>
      <trkpt lat="44.4892" lon="0.66726">
        <ele>155.9</ele>
        <time>2017-01-29T09:53:37.000Z</time>
      </trkpt>
      <trkpt lat="44.48919" lon="0.66711">
        <ele>154.9</ele>
        <time>2017-01-29T09:53:38.000Z</time>
      </trkpt>
      <trkpt lat="44.48918" lon="0.66696">
        <ele>153.9</ele>
        <time>2017-01-29T09:53:39.000Z</time>
      </trkpt>
      <trkpt lat="44.48917" lon="0.6668">
        <ele>152.8</ele>
        <time>2017-01-29T09:53:40.000Z</time>
      </trkpt>
      <trkpt lat="44.48916" lon="0.66664">
        <ele>151.9</ele>
        <time>2017-01-29T09:53:41.000Z</time>
      </trkpt>
      <trkpt lat="44.48915" lon="0.66648">
        <ele>151.7</ele>
        <time>2017-01-29T09:53:42.000Z</time>
      </trkpt>
      <trkpt lat="44.48914" lon="0.66632">
        <ele>151.4</ele>
        <time>2017-01-29T09:53:43.000Z</time>
      </trkpt>
      <trkpt lat="44.48913" lon="0.66618">
        <ele>151.1</ele>
        <time>2017-01-29T09:53:44.000Z</time>
      </trkpt>
      <trkpt lat="44.48912" lon="0.66605">
        <ele>150.9</ele>
        <time>2017-01-29T09:53:45.000Z</time>
      </trkpt>
      <trkpt lat="44.48911" lon="0.66593">
        <ele>150.6</ele>
        <time>2017-01-29T09:53:46.000Z</time>
      </trkpt>
      <trkpt lat="44.4891" lon="0.66581">
        <ele>150.3</ele>
        <time>2017-01-29T09:53:47.000Z</time>
      </trkpt>
      <trkpt lat="44.4891" lon="0.66569">
        <ele>149.9</ele>
        <time>2017-01-29T09:53:48.000Z</time>
      </trkpt>
      <trkpt lat="44.48909" lon="0.66558">
        <ele>149.6</ele>
        <time>2017-01-29T09:53:49.000Z</time>
      </trkpt>
      <trkpt lat="44.48908" lon="0.66547">
        <ele>149.2</ele>
        <time>2017-01-29T09:53:50.000Z</time>
      </trkpt>
      <trkpt lat="44.48907" lon="0.66536">
        <ele>148.8</ele>
        <time>2017-01-29T09:53:51.000Z</time>
      </trkpt>
      <trkpt lat="44.48906" lon="0.66525">
        <ele>148.4</ele>
        <time>2017-01-29T09:53:52.000Z</time>
      </trkpt>
      <trkpt lat="44.48906" lon="0.66513">
        <ele>148</ele>
        <time>2017-01-29T09:53:53.000Z</time>
      </trkpt>
      <trkpt lat="44.48905" lon="0.66502">
        <ele>147.7</ele>
        <time>2017-01-29T09:53:54.000Z</time>
      </trkpt>
      <trkpt lat="44.48906" lon="0.66491">
        <ele>147.7</ele>
        <time>2017-01-29T09:53:55.000Z</time>
      </trkpt>
      <trkpt lat="44.48907" lon="0.66481">
        <ele>147.8</ele>
        <time>2017-01-29T09:53:56.000Z</time>
      </trkpt>
      <trkpt lat="44.48908" lon="0.66471">
        <ele>147.9</ele>
        <time>2017-01-29T09:53:57.000Z</time>
      </trkpt>
      <trkpt lat="44.4891" lon="0.66462">
        <ele>148.2</ele>
        <time>2017-01-29T09:53:58.000Z</time>
      </trkpt>
      <trkpt lat="44.48912" lon="0.66453">
        <ele>148.4</ele>
        <time>2017-01-29T09:53:59.000Z</time>
      </trkpt>
      <trkpt lat="44.48914" lon="0.66445">
        <ele>148.6</ele>
        <time>2017-01-29T09:54:00.000Z</time>
      </trkpt>
      <trkpt lat="44.48915" lon="0.66436">
        <ele>148.8</ele>
        <time>2017-01-29T09:54:01.000Z</time>
      </trkpt>
      <trkpt lat="44.48917" lon="0.66428">
        <ele>149</ele>
        <time>2017-01-29T09:54:02.000Z</time>
      </trkpt>
      <trkpt lat="44.48918" lon="0.66421">
        <ele>149.2</ele>
        <time>2017-01-29T09:54:03.000Z</time>
      </trkpt>
      <trkpt lat="44.4892" lon="0.66414">
        <ele>149.5</ele>
        <time>2017-01-29T09:54:04.000Z</time>
      </trkpt>
      <trkpt lat="44.48921" lon="0.66407">
        <ele>149.8</ele>
        <time>2017-01-29T09:54:05.000Z</time>
      </trkpt>
      <trkpt lat="44.48923" lon="0.66401">
        <ele>150.1</ele>
        <time>2017-01-29T09:54:06.000Z</time>
      </trkpt>
      <trkpt lat="44.48924" lon="0.66396">
        <ele>150.3</ele>
        <time>2017-01-29T09:54:07.000Z</time>
      </trkpt>
      <trkpt lat="44.48926" lon="0.6639">
        <ele>150.6</ele>
        <time>2017-01-29T09:54:08.000Z</time>
      </trkpt>
      <trkpt lat="44.48928" lon="0.66385">
        <ele>150.9</ele>
        <time>2017-01-29T09:54:09.000Z</time>
      </trkpt>
      <trkpt lat="44.48929" lon="0.6638">
        <ele>151.1</ele>
        <time>2017-01-29T09:54:10.000Z</time>
      </trkpt>
      <trkpt lat="44.48931" lon="0.66376">
        <ele>151.3</ele>
        <time>2017-01-29T09:54:11.000Z</time>
      </trkpt>
      <trkpt lat="44.48932" lon="0.66371">
        <ele>151.5</ele>
        <time>2017-01-29T09:54:12.000Z</time>
      </trkpt>
      <trkpt lat="44.48933" lon="0.66367">
        <ele>151.7</ele>
        <time>2017-01-29T09:54:13.000Z</time>
      </trkpt>
      <trkpt lat="44.48934" lon="0.66362">
        <ele>151.9</ele>
        <time>2017-01-29T09:54:14.000Z</time>
      </trkpt>
      <trkpt lat="44.48936" lon="0.66358">
        <ele>152.1</ele>
        <time>2017-01-29T09:54:15.000Z</time>
      </trkpt>
      <trkpt lat="44.48937" lon="0.66353">
        <ele>152.2</ele>
        <time>2017-01-29T09:54:16.000Z</time>
      </trkpt>
      <trkpt lat="44.48938" lon="0.66349">
        <ele>152.4</ele>
        <time>2017-01-29T09:54:17.000Z</time>
      </trkpt>
      <trkpt lat="44.48939" lon="0.66344">
        <ele>152.5</ele>
        <time>2017-01-29T09:54:18.000Z</time>
      </trkpt>
      <trkpt lat="44.4894" lon="0.6634">
        <ele>152.6</ele>
        <time>2017-01-29T09:54:19.000Z</time>
      </trkpt>
      <trkpt lat="44.4894" lon="0.66335">
        <ele>152.7</ele>
        <time>2017-01-29T09:54:20.000Z</time>
      </trkpt>
      <trkpt lat="44.48941" lon="0.66331">
        <ele>152.7</ele>
        <time>2017-01-29T09:54:21.000Z</time>
      </trkpt>
      <trkpt lat="44.48942" lon="0.66326">
        <ele>152.6</ele>
        <time>2017-01-29T09:54:22.000Z</time>
      </trkpt>
      <trkpt lat="44.48943" lon="0.66321">
        <ele>152.5</ele>
        <time>2017-01-29T09:54:23.000Z</time>
      </trkpt>
      <trkpt lat="44.48944" lon="0.66317">
        <ele>152.4</ele>
        <time>2017-01-29T09:54:24.000Z</time>
      </trkpt>
      <trkpt lat="44.48945" lon="0.66312">
        <ele>152.3</ele>
        <time>2017-01-29T09:54:25.000Z</time>
      </trkpt>
      <trkpt lat="44.48946" lon="0.66308">
        <ele>152.2</ele>
        <time>2017-01-29T09:54:26.000Z</time>
      </trkpt>
      <trkpt lat="44.48947" lon="0.66304">
        <ele>152.1</ele>
        <time>2017-01-29T09:54:27.000Z</time>
      </trkpt>
      <trkpt lat="44.48948" lon="0.663">
        <ele>152</ele>
        <time>2017-01-29T09:54:28.000Z</time>
      </trkpt>
      <trkpt lat="44.48949" lon="0.66297">
        <ele>152</ele>
        <time>2017-01-29T09:54:29.000Z</time>
      </trkpt>
      <trkpt lat="44.4895" lon="0.66295">
        <ele>151.9</ele>
        <time>2017-01-29T09:54:30.000Z</time>
      </trkpt>
      <trkpt lat="44.48951" lon="0.66292">
        <ele>151.9</ele>
        <time>2017-01-29T09:54:31.000Z</time>
      </trkpt>
      <trkpt lat="44.48952" lon="0.6629">
        <ele>151.9</ele>
        <time>2017-01-29T09:54:32.000Z</time>
      </trkpt>
      <trkpt lat="44.48953" lon="0.66287">
        <ele>151.8</ele>
        <time>2017-01-29T09:54:33.000Z</time>
      </trkpt>
      <trkpt lat="44.48954" lon="0.66284">
        <ele>151.7</ele>
        <time>2017-01-29T09:54:34.000Z</time>
      </trkpt>
      <trkpt lat="44.48954" lon="0.66281">
        <ele>151.7</ele>
        <time>2017-01-29T09:54:35.000Z</time>
      </trkpt>
      <trkpt lat="44.48955" lon="0.66278">
        <ele>151.5</ele>
        <time>2017-01-29T09:54:36.000Z</time>
      </trkpt>
      <trkpt lat="44.48956" lon="0.66276">
        <ele>151.4</ele>
        <time>2017-01-29T09:54:37.000Z</time>
      </trkpt>
      <trkpt lat="44.48956" lon="0.66274">
        <ele>151.4</ele>
        <time>2017-01-29T09:54:38.000Z</time>
      </trkpt>
      <trkpt lat="44.48957" lon="0.66272">
        <ele>151.3</ele>
        <time>2017-01-29T09:54:39.000Z</time>
      </trkpt>
      <trkpt lat="44.48957" lon="0.66271">
        <ele>151.2</ele>
        <time>2017-01-29T09:54:40.000Z</time>
      </trkpt>
      <trkpt lat="44.48958" lon="0.6627">
        <ele>151.2</ele>
        <time>2017-01-29T09:54:41.000Z</time>
      </trkpt>
      <trkpt lat="44.48958" lon="0.66268">
        <ele>151.2</ele>
        <time>2017-01-29T09:54:42.000Z</time>
      </trkpt>
      <trkpt lat="44.48959" lon="0.66267">
        <ele>151.1</ele>
        <time>2017-01-29T09:54:43.000Z</time>
      </trkpt>
      <trkpt lat="44.48959" lon="0.66265">
        <ele>151.1</ele>
        <time>2017-01-29T09:54:44.000Z</time>
      </trkpt>
      <trkpt lat="44.4896" lon="0.66263">
        <ele>151</ele>
        <time>2017-01-29T09:54:45.000Z</time>
      </trkpt>
      <trkpt lat="44.48961" lon="0.6626">
        <ele>150.8</ele>
        <time>2017-01-29T09:54:46.000Z</time>
      </trkpt>
      <trkpt lat="44.48962" lon="0.66256">
        <ele>150.7</ele>
        <time>2017-01-29T09:54:47.000Z</time>
      </trkpt>
      <trkpt lat="44.48963" lon="0.66251">
        <ele>150.4</ele>
        <time>2017-01-29T09:54:48.000Z</time>
      </trkpt>
      <trkpt lat="44.48965" lon="0.66245">
        <ele>150.1</ele>
        <time>2017-01-29T09:54:49.000Z</time>
      </trkpt>
      <trkpt lat="44.48967" lon="0.66239">
        <ele>149.8</ele>
        <time>2017-01-29T09:54:50.000Z</time>
      </trkpt>
      <trkpt lat="44.48969" lon="0.66233">
        <ele>149.5</ele>
        <time>2017-01-29T09:54:51.000Z</time>
      </trkpt>
      <trkpt lat="44.48972" lon="0.66225">
        <ele>149.2</ele>
        <time>2017-01-29T09:54:52.000Z</time>
      </trkpt>
      <trkpt lat="44.48975" lon="0.66217">
        <ele>148.8</ele>
        <time>2017-01-29T09:54:53.000Z</time>
      </trkpt>
      <trkpt lat="44.48978" lon="0.6621">
        <ele>148.5</ele>
        <time>2017-01-29T09:54:54.000Z</time>
      </trkpt>
      <trkpt lat="44.48981" lon="0.66201">
        <ele>148.1</ele>
        <time>2017-01-29T09:54:55.000Z</time>
      </trkpt>
      <trkpt lat="44.48984" lon="0.66193">
        <ele>147.8</ele>
        <time>2017-01-29T09:54:56.000Z</time>
      </trkpt>
      <trkpt lat="44.48986" lon="0.66186">
        <ele>147.4</ele>
        <time>2017-01-29T09:54:57.000Z</time>
      </trkpt>
      <trkpt lat="44.48988" lon="0.66178">
        <ele>147</ele>
        <time>2017-01-29T09:54:58.000Z</time>
      </trkpt>
      <trkpt lat="44.48991" lon="0.66171">
        <ele>146.6</ele>
        <time>2017-01-29T09:54:59.000Z</time>
      </trkpt>
      <trkpt lat="44.48992" lon="0.66164">
        <ele>146.2</ele>
        <time>2017-01-29T09:55:00.000Z</time>
      </trkpt>
      <trkpt lat="44.48994" lon="0.66157">
        <ele>145.7</ele>
        <time>2017-01-29T09:55:01.000Z</time>
      </trkpt>
      <trkpt lat="44.48996" lon="0.66151">
        <ele>145.2</ele>
        <time>2017-01-29T09:55:02.000Z</time>
      </trkpt>
      <trkpt lat="44.48998" lon="0.66144">
        <ele>144.7</ele>
        <time>2017-01-29T09:55:03.000Z</time>
      </trkpt>
      <trkpt lat="44.49001" lon="0.66138">
        <ele>144.3</ele>
        <time>2017-01-29T09:55:04.000Z</time>
      </trkpt>
      <trkpt lat="44.49003" lon="0.66132">
        <ele>143.9</ele>
        <time>2017-01-29T09:55:05.000Z</time>
      </trkpt>
      <trkpt lat="44.49006" lon="0.66126">
        <ele>143.6</ele>
        <time>2017-01-29T09:55:06.000Z</time>
      </trkpt>
      <trkpt lat="44.49009" lon="0.6612">
        <ele>143.2</ele>
        <time>2017-01-29T09:55:07.000Z</time>
      </trkpt>
      <trkpt lat="44.49012" lon="0.66114">
        <ele>142.9</ele>
        <time>2017-01-29T09:55:08.000Z</time>
      </trkpt>
      <trkpt lat="44.49015" lon="0.66107">
        <ele>142.6</ele>
        <time>2017-01-29T09:55:09.000Z</time>
      </trkpt>
      <trkpt lat="44.49019" lon="0.66101">
        <ele>142.2</ele>
        <time>2017-01-29T09:55:10.000Z</time>
      </trkpt>
      <trkpt lat="44.49023" lon="0.66096">
        <ele>141.9</ele>
        <time>2017-01-29T09:55:11.000Z</time>
      </trkpt>
      <trkpt lat="44.49027" lon="0.6609">
        <ele>141.7</ele>
        <time>2017-01-29T09:55:12.000Z</time>
      </trkpt>
      <trkpt lat="44.49031" lon="0.66085">
        <ele>141.4</ele>
        <time>2017-01-29T09:55:13.000Z</time>
      </trkpt>
      <trkpt lat="44.49035" lon="0.6608">
        <ele>141.3</ele>
        <time>2017-01-29T09:55:14.000Z</time>
      </trkpt>
      <trkpt lat="44.49039" lon="0.66076">
        <ele>141.2</ele>
        <time>2017-01-29T09:55:15.000Z</time>
      </trkpt>
      <trkpt lat="44.49042" lon="0.66071">
        <ele>141.1</ele>
        <time>2017-01-29T09:55:16.000Z</time>
      </trkpt>
      <trkpt lat="44.49045" lon="0.66065">
        <ele>140.8</ele>
        <time>2017-01-29T09:55:17.000Z</time>
      </trkpt>
      <trkpt lat="44.49048" lon="0.6606">
        <ele>140.5</ele>
        <time>2017-01-29T09:55:18.000Z</time>
      </trkpt>
      <trkpt lat="44.4905" lon="0.66053">
        <ele>140.1</ele>
        <time>2017-01-29T09:55:19.000Z</time>
      </trkpt>
      <trkpt lat="44.49051" lon="0.66046">
        <ele>139.6</ele>
        <time>2017-01-29T09:55:20.000Z</time>
      </trkpt>
      <trkpt lat="44.49052" lon="0.66038">
        <ele>139</ele>
        <time>2017-01-29T09:55:21.000Z</time>
      </trkpt>
      <trkpt lat="44.49053" lon="0.6603">
        <ele>138.4</ele>
        <time>2017-01-29T09:55:22.000Z</time>
      </trkpt>
      <trkpt lat="44.49055" lon="0.66023">
        <ele>137.8</ele>
        <time>2017-01-29T09:55:23.000Z</time>
      </trkpt>
      <trkpt lat="44.49056" lon="0.66016">
        <ele>137.4</ele>
        <time>2017-01-29T09:55:24.000Z</time>
      </trkpt>
      <trkpt lat="44.49058" lon="0.66012">
        <ele>137.1</ele>
        <time>2017-01-29T09:55:25.000Z</time>
      </trkpt>
      <trkpt lat="44.4906" lon="0.6601">
        <ele>137</ele>
        <time>2017-01-29T09:55:26.000Z</time>
      </trkpt>
      <trkpt lat="44.49062" lon="0.66009">
        <ele>137</ele>
        <time>2017-01-29T09:55:27.000Z</time>
      </trkpt>
      <trkpt lat="44.49065" lon="0.6601">
        <ele>137.2</ele>
        <time>2017-01-29T09:55:28.000Z</time>
      </trkpt>
      <trkpt lat="44.49068" lon="0.66011">
        <ele>137.4</ele>
        <time>2017-01-29T09:55:29.000Z</time>
      </trkpt>
      <trkpt lat="44.4907" lon="0.66014">
        <ele>137.8</ele>
        <time>2017-01-29T09:55:30.000Z</time>
      </trkpt>
      <trkpt lat="44.49073" lon="0.66016">
        <ele>138.1</ele>
        <time>2017-01-29T09:55:31.000Z</time>
      </trkpt>
      <trkpt lat="44.49076" lon="0.66019">
        <ele>138.5</ele>
        <time>2017-01-29T09:55:32.000Z</time>
      </trkpt>
      <trkpt lat="44.49078" lon="0.66021">
        <ele>138.8</ele>
        <time>2017-01-29T09:55:33.000Z</time>
      </trkpt>
      <trkpt lat="44.49081" lon="0.66024">
        <ele>139.2</ele>
        <time>2017-01-29T09:55:34.000Z</time>
      </trkpt>
      <trkpt lat="44.49084" lon="0.66027">
        <ele>139.6</ele>
        <time>2017-01-29T09:55:35.000Z</time>
      </trkpt>
      <trkpt lat="44.49086" lon="0.66029">
        <ele>139.7</ele>
        <time>2017-01-29T09:55:36.000Z</time>
      </trkpt>
      <trkpt lat="44.49089" lon="0.66032">
        <ele>139.9</ele>
        <time>2017-01-29T09:55:37.000Z</time>
      </trkpt>
      <trkpt lat="44.49091" lon="0.66034">
        <ele>140</ele>
        <time>2017-01-29T09:55:38.000Z</time>
      </trkpt>
      <trkpt lat="44.49093" lon="0.66037">
        <ele>140.2</ele>
        <time>2017-01-29T09:55:39.000Z</time>
      </trkpt>
      <trkpt lat="44.49096" lon="0.66039">
        <ele>140.3</ele>
        <time>2017-01-29T09:55:40.000Z</time>
      </trkpt>
      <trkpt lat="44.49098" lon="0.66041">
        <ele>140.4</ele>
        <time>2017-01-29T09:55:41.000Z</time>
      </trkpt>
      <trkpt lat="44.491" lon="0.66044">
        <ele>140.6</ele>
        <time>2017-01-29T09:55:42.000Z</time>
      </trkpt>
      <trkpt lat="44.49102" lon="0.66046">
        <ele>140.8</ele>
        <time>2017-01-29T09:55:43.000Z</time>
      </trkpt>
      <trkpt lat="44.49104" lon="0.66048">
        <ele>140.9</ele>
        <time>2017-01-29T09:55:44.000Z</time>
      </trkpt>
      <trkpt lat="44.49106" lon="0.6605">
        <ele>141.1</ele>
        <time>2017-01-29T09:55:45.000Z</time>
      </trkpt>
      <trkpt lat="44.49108" lon="0.66053">
        <ele>141.3</ele>
        <time>2017-01-29T09:55:46.000Z</time>
      </trkpt>
      <trkpt lat="44.4911" lon="0.66055">
        <ele>141.4</ele>
        <time>2017-01-29T09:55:47.000Z</time>
      </trkpt>
      <trkpt lat="44.49111" lon="0.66057">
        <ele>141.6</ele>
        <time>2017-01-29T09:55:48.000Z</time>
      </trkpt>
      <trkpt lat="44.49113" lon="0.6606">
        <ele>141.8</ele>
        <time>2017-01-29T09:55:49.000Z</time>
      </trkpt>
      <trkpt lat="44.49115" lon="0.66062">
        <ele>142</ele>
        <time>2017-01-29T09:55:50.000Z</time>
      </trkpt>
      <trkpt lat="44.49117" lon="0.66064">
        <ele>142.2</ele>
        <time>2017-01-29T09:55:51.000Z</time>
      </trkpt>
      <trkpt lat="44.49118" lon="0.66067">
        <ele>142.4</ele>
        <time>2017-01-29T09:55:52.000Z</time>
      </trkpt>
      <trkpt lat="44.4912" lon="0.66069">
        <ele>142.6</ele>
        <time>2017-01-29T09:55:53.000Z</time>
      </trkpt>
      <trkpt lat="44.49121" lon="0.66071">
        <ele>142.8</ele>
        <time>2017-01-29T09:55:54.000Z</time>
      </trkpt>
      <trkpt lat="44.49122" lon="0.66074">
        <ele>143</ele>
        <time>2017-01-29T09:55:55.000Z</time>
      </trkpt>
      <trkpt lat="44.49124" lon="0.66076">
        <ele>143.2</ele>
        <time>2017-01-29T09:55:56.000Z</time>
      </trkpt>
      <trkpt lat="44.49125" lon="0.66078">
        <ele>143.4</ele>
        <time>2017-01-29T09:55:57.000Z</time>
      </trkpt>
      <trkpt lat="44.49127" lon="0.6608">
        <ele>143.6</ele>
        <time>2017-01-29T09:55:58.000Z</time>
      </trkpt>
      <trkpt lat="44.49128" lon="0.66082">
        <ele>143.8</ele>
        <time>2017-01-29T09:55:59.000Z</time>
      </trkpt>
      <trkpt lat="44.49129" lon="0.66084">
        <ele>143.9</ele>
        <time>2017-01-29T09:56:00.000Z</time>
      </trkpt>
      <trkpt lat="44.49131" lon="0.66085">
        <ele>144.2</ele>
        <time>2017-01-29T09:56:01.000Z</time>
      </trkpt>
      <trkpt lat="44.49132" lon="0.66087">
        <ele>144.5</ele>
        <time>2017-01-29T09:56:02.000Z</time>
      </trkpt>
      <trkpt lat="44.49133" lon="0.66089">
        <ele>144.8</ele>
        <time>2017-01-29T09:56:03.000Z</time>
      </trkpt>
      <trkpt lat="44.49134" lon="0.66092">
        <ele>145.2</ele>
        <time>2017-01-29T09:56:04.000Z</time>
      </trkpt>
      <trkpt lat="44.49136" lon="0.66094">
        <ele>145.5</ele>
        <time>2017-01-29T09:56:05.000Z</time>
      </trkpt>
      <trkpt lat="44.49137" lon="0.66096">
        <ele>145.9</ele>
        <time>2017-01-29T09:56:06.000Z</time>
      </trkpt>
      <trkpt lat="44.49138" lon="0.66098">
        <ele>146.3</ele>
        <time>2017-01-29T09:56:07.000Z</time>
      </trkpt>
      <trkpt lat="44.4914" lon="0.66101">
        <ele>146.6</ele>
        <time>2017-01-29T09:56:08.000Z</time>
      </trkpt>
      <trkpt lat="44.49141" lon="0.66103">
        <ele>146.9</ele>
        <time>2017-01-29T09:56:09.000Z</time>
      </trkpt>
      <trkpt lat="44.49142" lon="0.66105">
        <ele>147.3</ele>
        <time>2017-01-29T09:56:10.000Z</time>
      </trkpt>
      <trkpt lat="44.49143" lon="0.66106">
        <ele>147.6</ele>
        <time>2017-01-29T09:56:11.000Z</time>
      </trkpt>
      <trkpt lat="44.49144" lon="0.66108">
        <ele>147.9</ele>
        <time>2017-01-29T09:56:12.000Z</time>
      </trkpt>
      <trkpt lat="44.49146" lon="0.6611">
        <ele>148.2</ele>
        <time>2017-01-29T09:56:13.000Z</time>
      </trkpt>
      <trkpt lat="44.49147" lon="0.66112">
        <ele>148.5</ele>
        <time>2017-01-29T09:56:14.000Z</time>
      </trkpt>
      <trkpt lat="44.49148" lon="0.66114">
        <ele>148.8</ele>
        <time>2017-01-29T09:56:15.000Z</time>
      </trkpt>
      <trkpt lat="44.49149" lon="0.66115">
        <ele>149.1</ele>
        <time>2017-01-29T09:56:16.000Z</time>
      </trkpt>
      <trkpt lat="44.4915" lon="0.66117">
        <ele>149.4</ele>
        <time>2017-01-29T09:56:17.000Z</time>
      </trkpt>
      <trkpt lat="44.49151" lon="0.66118">
        <ele>149.7</ele>
        <time>2017-01-29T09:56:18.000Z</time>
      </trkpt>
      <trkpt lat="44.49152" lon="0.6612">
        <ele>150</ele>
        <time>2017-01-29T09:56:19.000Z</time>
      </trkpt>
      <trkpt lat="44.49154" lon="0.66121">
        <ele>150.2</ele>
        <time>2017-01-29T09:56:20.000Z</time>
      </trkpt>
      <trkpt lat="44.49155" lon="0.66123">
        <ele>150.5</ele>
        <time>2017-01-29T09:56:21.000Z</time>
      </trkpt>
      <trkpt lat="44.49156" lon="0.66124">
        <ele>150.8</ele>
        <time>2017-01-29T09:56:22.000Z</time>
      </trkpt>
      <trkpt lat="44.49157" lon="0.66126">
        <ele>151.1</ele>
        <time>2017-01-29T09:56:23.000Z</time>
      </trkpt>
      <trkpt lat="44.49158" lon="0.66127">
        <ele>151.4</ele>
        <time>2017-01-29T09:56:24.000Z</time>
      </trkpt>
      <trkpt lat="44.49158" lon="0.66129">
        <ele>151.6</ele>
        <time>2017-01-29T09:56:25.000Z</time>
      </trkpt>
      <trkpt lat="44.49159" lon="0.6613">
        <ele>151.9</ele>
        <time>2017-01-29T09:56:26.000Z</time>
      </trkpt>
      <trkpt lat="44.4916" lon="0.66132">
        <ele>152.2</ele>
        <time>2017-01-29T09:56:27.000Z</time>
      </trkpt>
      <trkpt lat="44.49161" lon="0.66133">
        <ele>152.5</ele>
        <time>2017-01-29T09:56:28.000Z</time>
      </trkpt>
      <trkpt lat="44.49162" lon="0.66135">
        <ele>152.8</ele>
        <time>2017-01-29T09:56:29.000Z</time>
      </trkpt>
      <trkpt lat="44.49163" lon="0.66136">
        <ele>153.1</ele>
        <time>2017-01-29T09:56:30.000Z</time>
      </trkpt>
      <trkpt lat="44.49163" lon="0.66138">
        <ele>153.4</ele>
        <time>2017-01-29T09:56:31.000Z</time>
      </trkpt>
      <trkpt lat="44.49164" lon="0.66139">
        <ele>153.7</ele>
        <time>2017-01-29T09:56:32.000Z</time>
      </trkpt>
      <trkpt lat="44.49165" lon="0.66141">
        <ele>154</ele>
        <time>2017-01-29T09:56:33.000Z</time>
      </trkpt>
      <trkpt lat="44.49165" lon="0.66142">
        <ele>154.3</ele>
        <time>2017-01-29T09:56:34.000Z</time>
      </trkpt>
      <trkpt lat="44.49166" lon="0.66144">
        <ele>154.6</ele>
        <time>2017-01-29T09:56:35.000Z</time>
      </trkpt>
      <trkpt lat="44.49167" lon="0.66145">
        <ele>154.8</ele>
        <time>2017-01-29T09:56:36.000Z</time>
      </trkpt>
      <trkpt lat="44.49168" lon="0.66146">
        <ele>155.1</ele>
        <time>2017-01-29T09:56:37.000Z</time>
      </trkpt>
      <trkpt lat="44.49168" lon="0.66147">
        <ele>155.2</ele>
        <time>2017-01-29T09:56:38.000Z</time>
      </trkpt>
      <trkpt lat="44.49169" lon="0.66148">
        <ele>155.4</ele>
        <time>2017-01-29T09:56:39.000Z</time>
      </trkpt>
      <trkpt lat="44.49169" lon="0.66149">
        <ele>155.5</ele>
        <time>2017-01-29T09:56:40.000Z</time>
      </trkpt>
      <trkpt lat="44.49169" lon="0.6615">
        <ele>155.6</ele>
        <time>2017-01-29T09:56:41.000Z</time>
      </trkpt>
      <trkpt lat="44.4917" lon="0.6615">
        <ele>155.7</ele>
        <time>2017-01-29T09:56:42.000Z</time>
      </trkpt>
      <trkpt lat="44.4917" lon="0.66151">
        <ele>155.9</ele>
        <time>2017-01-29T09:56:43.000Z</time>
      </trkpt>
      <trkpt lat="44.49171" lon="0.66152">
        <ele>156</ele>
        <time>2017-01-29T09:56:44.000Z</time>
      </trkpt>
      <trkpt lat="44.49172" lon="0.66153">
        <ele>156.1</ele>
        <time>2017-01-29T09:56:45.000Z</time>
      </trkpt>
      <trkpt lat="44.49173" lon="0.66155">
        <ele>156.4</ele>
        <time>2017-01-29T09:56:46.000Z</time>
      </trkpt>
      <trkpt lat="44.49174" lon="0.66156">
        <ele>156.7</ele>
        <time>2017-01-29T09:56:47.000Z</time>
      </trkpt>
      <trkpt lat="44.49175" lon="0.66158">
        <ele>156.9</ele>
        <time>2017-01-29T09:56:48.000Z</time>
      </trkpt>
      <trkpt lat="44.49177" lon="0.66159">
        <ele>157.1</ele>
        <time>2017-01-29T09:56:49.000Z</time>
      </trkpt>
      <trkpt lat="44.49178" lon="0.66161">
        <ele>157.4</ele>
        <time>2017-01-29T09:56:50.000Z</time>
      </trkpt>
      <trkpt lat="44.49179" lon="0.66162">
        <ele>157.6</ele>
        <time>2017-01-29T09:56:51.000Z</time>
      </trkpt>
      <trkpt lat="44.4918" lon="0.66163">
        <ele>157.7</ele>
        <time>2017-01-29T09:56:52.000Z</time>
      </trkpt>
      <trkpt lat="44.49181" lon="0.66165">
        <ele>157.9</ele>
        <time>2017-01-29T09:56:53.000Z</time>
      </trkpt>
      <trkpt lat="44.49182" lon="0.66166">
        <ele>158.1</ele>
        <time>2017-01-29T09:56:54.000Z</time>
      </trkpt>
      <trkpt lat="44.49183" lon="0.66167">
        <ele>158.3</ele>
        <time>2017-01-29T09:56:55.000Z</time>
      </trkpt>
      <trkpt lat="44.49185" lon="0.66169">
        <ele>158.5</ele>
        <time>2017-01-29T09:56:56.000Z</time>
      </trkpt>
      <trkpt lat="44.49186" lon="0.6617">
        <ele>158.7</ele>
        <time>2017-01-29T09:56:57.000Z</time>
      </trkpt>
      <trkpt lat="44.49187" lon="0.66172">
        <ele>158.9</ele>
        <time>2017-01-29T09:56:58.000Z</time>
      </trkpt>
      <trkpt lat="44.49188" lon="0.66173">
        <ele>159.1</ele>
        <time>2017-01-29T09:56:59.000Z</time>
      </trkpt>
      <trkpt lat="44.4919" lon="0.66175">
        <ele>159.3</ele>
        <time>2017-01-29T09:57:00.000Z</time>
      </trkpt>
      <trkpt lat="44.49191" lon="0.66176">
        <ele>159.5</ele>
        <time>2017-01-29T09:57:01.000Z</time>
      </trkpt>
      <trkpt lat="44.49192" lon="0.66177">
        <ele>159.7</ele>
        <time>2017-01-29T09:57:02.000Z</time>
      </trkpt>
      <trkpt lat="44.49193" lon="0.66179">
        <ele>159.9</ele>
        <time>2017-01-29T09:57:03.000Z</time>
      </trkpt>
      <trkpt lat="44.49194" lon="0.6618">
        <ele>160</ele>
        <time>2017-01-29T09:57:04.000Z</time>
      </trkpt>
      <trkpt lat="44.49194" lon="0.66181">
        <ele>160.2</ele>
        <time>2017-01-29T09:57:05.000Z</time>
      </trkpt>
      <trkpt lat="44.49195" lon="0.66183">
        <ele>160.3</ele>
        <time>2017-01-29T09:57:06.000Z</time>
      </trkpt>
      <trkpt lat="44.49196" lon="0.66184">
        <ele>160.5</ele>
        <time>2017-01-29T09:57:07.000Z</time>
      </trkpt>
      <trkpt lat="44.49197" lon="0.66185">
        <ele>160.7</ele>
        <time>2017-01-29T09:57:08.000Z</time>
      </trkpt>
      <trkpt lat="44.49197" lon="0.66186">
        <ele>160.8</ele>
        <time>2017-01-29T09:57:09.000Z</time>
      </trkpt>
      <trkpt lat="44.49198" lon="0.66187">
        <ele>161</ele>
        <time>2017-01-29T09:57:10.000Z</time>
      </trkpt>
      <trkpt lat="44.49199" lon="0.66189">
        <ele>161.2</ele>
        <time>2017-01-29T09:57:11.000Z</time>
      </trkpt>
      <trkpt lat="44.492" lon="0.6619">
        <ele>161.3</ele>
        <time>2017-01-29T09:57:12.000Z</time>
      </trkpt>
      <trkpt lat="44.49201" lon="0.66192">
        <ele>161.5</ele>
        <time>2017-01-29T09:57:13.000Z</time>
      </trkpt>
      <trkpt lat="44.49202" lon="0.66193">
        <ele>161.7</ele>
        <time>2017-01-29T09:57:14.000Z</time>
      </trkpt>
      <trkpt lat="44.49203" lon="0.66194">
        <ele>161.8</ele>
        <time>2017-01-29T09:57:15.000Z</time>
      </trkpt>
      <trkpt lat="44.49204" lon="0.66195">
        <ele>162</ele>
        <time>2017-01-29T09:57:16.000Z</time>
      </trkpt>
      <trkpt lat="44.49204" lon="0.66197">
        <ele>162.2</ele>
        <time>2017-01-29T09:57:17.000Z</time>
      </trkpt>
      <trkpt lat="44.49205" lon="0.66198">
        <ele>162.3</ele>
        <time>2017-01-29T09:57:18.000Z</time>
      </trkpt>
      <trkpt lat="44.49206" lon="0.66199">
        <ele>162.5</ele>
        <time>2017-01-29T09:57:19.000Z</time>
      </trkpt>
      <trkpt lat="44.49206" lon="0.662">
        <ele>162.6</ele>
        <time>2017-01-29T09:57:20.000Z</time>
      </trkpt>
      <trkpt lat="44.49207" lon="0.66202">
        <ele>162.7</ele>
        <time>2017-01-29T09:57:21.000Z</time>
      </trkpt>
      <trkpt lat="44.49208" lon="0.66203">
        <ele>162.9</ele>
        <time>2017-01-29T09:57:22.000Z</time>
      </trkpt>
      <trkpt lat="44.49209" lon="0.66204">
        <ele>163</ele>
        <time>2017-01-29T09:57:23.000Z</time>
      </trkpt>
      <trkpt lat="44.4921" lon="0.66205">
        <ele>163.1</ele>
        <time>2017-01-29T09:57:24.000Z</time>
      </trkpt>
      <trkpt lat="44.49211" lon="0.66206">
        <ele>163.2</ele>
        <time>2017-01-29T09:57:25.000Z</time>
      </trkpt>
      <trkpt lat="44.49212" lon="0.66208">
        <ele>163.4</ele>
        <time>2017-01-29T09:57:26.000Z</time>
      </trkpt>
      <trkpt lat="44.49212" lon="0.66209">
        <ele>163.5</ele>
        <time>2017-01-29T09:57:27.000Z</time>
      </trkpt>
      <trkpt lat="44.49213" lon="0.6621">
        <ele>163.7</ele>
        <time>2017-01-29T09:57:28.000Z</time>
      </trkpt>
      <trkpt lat="44.49213" lon="0.66212">
        <ele>163.9</ele>
        <time>2017-01-29T09:57:29.000Z</time>
      </trkpt>
      <trkpt lat="44.49214" lon="0.66213">
        <ele>164</ele>
        <time>2017-01-29T09:57:30.000Z</time>
      </trkpt>
      <trkpt lat="44.49215" lon="0.66214">
        <ele>164.1</ele>
        <time>2017-01-29T09:57:31.000Z</time>
      </trkpt>
      <trkpt lat="44.49215" lon="0.66215">
        <ele>164.2</ele>
        <time>2017-01-29T09:57:32.000Z</time>
      </trkpt>
      <trkpt lat="44.49215" lon="0.66215">
        <ele>164.3</ele>
        <time>2017-01-29T09:57:33.000Z</time>
      </trkpt>
      <trkpt lat="44.49216" lon="0.66216">
        <ele>164.4</ele>
        <time>2017-01-29T09:57:34.000Z</time>
      </trkpt>
      <trkpt lat="44.49217" lon="0.66218">
        <ele>164.5</ele>
        <time>2017-01-29T09:57:35.000Z</time>
      </trkpt>
      <trkpt lat="44.49218" lon="0.66219">
        <ele>164.7</ele>
        <time>2017-01-29T09:57:36.000Z</time>
      </trkpt>
      <trkpt lat="44.49219" lon="0.66221">
        <ele>164.9</ele>
        <time>2017-01-29T09:57:37.000Z</time>
      </trkpt>
      <trkpt lat="44.49219" lon="0.66222">
        <ele>165</ele>
        <time>2017-01-29T09:57:38.000Z</time>
      </trkpt>
      <trkpt lat="44.4922" lon="0.66224">
        <ele>165.2</ele>
        <time>2017-01-29T09:57:39.000Z</time>
      </trkpt>
      <trkpt lat="44.49221" lon="0.66225">
        <ele>165.3</ele>
        <time>2017-01-29T09:57:40.000Z</time>
      </trkpt>
      <trkpt lat="44.49222" lon="0.66227">
        <ele>165.5</ele>
        <time>2017-01-29T09:57:41.000Z</time>
      </trkpt>
      <trkpt lat="44.49222" lon="0.66228">
        <ele>165.6</ele>
        <time>2017-01-29T09:57:42.000Z</time>
      </trkpt>
      <trkpt lat="44.49223" lon="0.66229">
        <ele>165.7</ele>
        <time>2017-01-29T09:57:43.000Z</time>
      </trkpt>
      <trkpt lat="44.49224" lon="0.6623">
        <ele>165.9</ele>
        <time>2017-01-29T09:57:44.000Z</time>
      </trkpt>
      <trkpt lat="44.49225" lon="0.66232">
        <ele>166</ele>
        <time>2017-01-29T09:57:45.000Z</time>
      </trkpt>
      <trkpt lat="44.49225" lon="0.66233">
        <ele>166.1</ele>
        <time>2017-01-29T09:57:46.000Z</time>
      </trkpt>
      <trkpt lat="44.49226" lon="0.66234">
        <ele>166.2</ele>
        <time>2017-01-29T09:57:47.000Z</time>
      </trkpt>
      <trkpt lat="44.49227" lon="0.66235">
        <ele>166.3</ele>
        <time>2017-01-29T09:57:48.000Z</time>
      </trkpt>
      <trkpt lat="44.49227" lon="0.66236">
        <ele>166.4</ele>
        <time>2017-01-29T09:57:49.000Z</time>
      </trkpt>
      <trkpt lat="44.49228" lon="0.66238">
        <ele>166.6</ele>
        <time>2017-01-29T09:57:50.000Z</time>
      </trkpt>
      <trkpt lat="44.49229" lon="0.66239">
        <ele>166.7</ele>
        <time>2017-01-29T09:57:51.000Z</time>
      </trkpt>
      <trkpt lat="44.49229" lon="0.6624">
        <ele>166.8</ele>
        <time>2017-01-29T09:57:52.000Z</time>
      </trkpt>
      <trkpt lat="44.4923" lon="0.66241">
        <ele>166.9</ele>
        <time>2017-01-29T09:57:53.000Z</time>
      </trkpt>
      <trkpt lat="44.4923" lon="0.66242">
        <ele>167</ele>
        <time>2017-01-29T09:57:54.000Z</time>
      </trkpt>
      <trkpt lat="44.4923" lon="0.66242">
        <ele>167</ele>
        <time>2017-01-29T09:57:55.000Z</time>
      </trkpt>
      <trkpt lat="44.4923" lon="0.66243">
        <ele>167.1</ele>
        <time>2017-01-29T09:57:56.000Z</time>
      </trkpt>
      <trkpt lat="44.49231" lon="0.66243">
        <ele>167.1</ele>
        <time>2017-01-29T09:57:57.000Z</time>
      </trkpt>
      <trkpt lat="44.49231" lon="0.66244">
        <ele>167.2</ele>
        <time>2017-01-29T09:57:58.000Z</time>
      </trkpt>
      <trkpt lat="44.49231" lon="0.66245">
        <ele>167.2</ele>
        <time>2017-01-29T09:57:59.000Z</time>
      </trkpt>
      <trkpt lat="44.49232" lon="0.66245">
        <ele>167.3</ele>
        <time>2017-01-29T09:58:00.000Z</time>
      </trkpt>
      <trkpt lat="44.49232" lon="0.66247">
        <ele>167.4</ele>
        <time>2017-01-29T09:58:01.000Z</time>
      </trkpt>
      <trkpt lat="44.49233" lon="0.66249">
        <ele>167.6</ele>
        <time>2017-01-29T09:58:02.000Z</time>
      </trkpt>
      <trkpt lat="44.49234" lon="0.6625">
        <ele>167.7</ele>
        <time>2017-01-29T09:58:03.000Z</time>
      </trkpt>
      <trkpt lat="44.49235" lon="0.66252">
        <ele>167.9</ele>
        <time>2017-01-29T09:58:04.000Z</time>
      </trkpt>
      <trkpt lat="44.49235" lon="0.66253">
        <ele>168</ele>
        <time>2017-01-29T09:58:05.000Z</time>
      </trkpt>
      <trkpt lat="44.49235" lon="0.66255">
        <ele>168.1</ele>
        <time>2017-01-29T09:58:06.000Z</time>
      </trkpt>
      <trkpt lat="44.49236" lon="0.66256">
        <ele>168.2</ele>
        <time>2017-01-29T09:58:07.000Z</time>
      </trkpt>
      <trkpt lat="44.49236" lon="0.66258">
        <ele>168.4</ele>
        <time>2017-01-29T09:58:08.000Z</time>
      </trkpt>
      <trkpt lat="44.49236" lon="0.6626">
        <ele>168.5</ele>
        <time>2017-01-29T09:58:09.000Z</time>
      </trkpt>
      <trkpt lat="44.49237" lon="0.66261">
        <ele>168.6</ele>
        <time>2017-01-29T09:58:10.000Z</time>
      </trkpt>
      <trkpt lat="44.49237" lon="0.66263">
        <ele>168.7</ele>
        <time>2017-01-29T09:58:11.000Z</time>
      </trkpt>
      <trkpt lat="44.49238" lon="0.66264">
        <ele>168.8</ele>
        <time>2017-01-29T09:58:12.000Z</time>
      </trkpt>
      <trkpt lat="44.49238" lon="0.66265">
        <ele>168.9</ele>
        <time>2017-01-29T09:58:13.000Z</time>
      </trkpt>
      <trkpt lat="44.49238" lon="0.66266">
        <ele>169</ele>
        <time>2017-01-29T09:58:14.000Z</time>
      </trkpt>
      <trkpt lat="44.49238" lon="0.66267">
        <ele>169</ele>
        <time>2017-01-29T09:58:15.000Z</time>
      </trkpt>
      <trkpt lat="44.49238" lon="0.66267">
        <ele>169.1</ele>
        <time>2017-01-29T09:58:16.000Z</time>
      </trkpt>
      <trkpt lat="44.49239" lon="0.66268">
        <ele>169.2</ele>
        <time>2017-01-29T09:58:17.000Z</time>
      </trkpt>
      <trkpt lat="44.49239" lon="0.66269">
        <ele>169.2</ele>
        <time>2017-01-29T09:58:18.000Z</time>
      </trkpt>
      <trkpt lat="44.49239" lon="0.6627">
        <ele>169.3</ele>
        <time>2017-01-29T09:58:19.000Z</time>
      </trkpt>
      <trkpt lat="44.49239" lon="0.66271">
        <ele>169.4</ele>
        <time>2017-01-29T09:58:20.000Z</time>
      </trkpt>
      <trkpt lat="44.49239" lon="0.66272">
        <ele>169.5</ele>
        <time>2017-01-29T09:58:21.000Z</time>
      </trkpt>
      <trkpt lat="44.49239" lon="0.66273">
        <ele>169.6</ele>
        <time>2017-01-29T09:58:22.000Z</time>
      </trkpt>
      <trkpt lat="44.4924" lon="0.66276">
        <ele>169.9</ele>
        <time>2017-01-29T09:58:23.000Z</time>
      </trkpt>
      <trkpt lat="44.4924" lon="0.66278">
        <ele>170.1</ele>
        <time>2017-01-29T09:58:24.000Z</time>
      </trkpt>
      <trkpt lat="44.4924" lon="0.6628">
        <ele>170.2</ele>
        <time>2017-01-29T09:58:25.000Z</time>
      </trkpt>
      <trkpt lat="44.4924" lon="0.66281">
        <ele>170.3</ele>
        <time>2017-01-29T09:58:26.000Z</time>
      </trkpt>
      <trkpt lat="44.4924" lon="0.66281">
        <ele>170.4</ele>
        <time>2017-01-29T09:58:27.000Z</time>
      </trkpt>
      <trkpt lat="44.4924" lon="0.66282">
        <ele>170.4</ele>
        <time>2017-01-29T09:58:28.000Z</time>
      </trkpt>
      <trkpt lat="44.4924" lon="0.66282">
        <ele>170.5</ele>
        <time>2017-01-29T09:58:29.000Z</time>
      </trkpt>
      <trkpt lat="44.4924" lon="0.66284">
        <ele>170.6</ele>
        <time>2017-01-29T09:58:30.000Z</time>
      </trkpt>
      <trkpt lat="44.4924" lon="0.66285">
        <ele>170.8</ele>
        <time>2017-01-29T09:58:31.000Z</time>
      </trkpt>
      <trkpt lat="44.4924" lon="0.66287">
        <ele>170.9</ele>
        <time>2017-01-29T09:58:32.000Z</time>
      </trkpt>
      <trkpt lat="44.4924" lon="0.66288">
        <ele>171</ele>
        <time>2017-01-29T09:58:33.000Z</time>
      </trkpt>
      <trkpt lat="44.4924" lon="0.66289">
        <ele>171.1</ele>
        <time>2017-01-29T09:58:34.000Z</time>
      </trkpt>
      <trkpt lat="44.4924" lon="0.66291">
        <ele>171.3</ele>
        <time>2017-01-29T09:58:35.000Z</time>
      </trkpt>
      <trkpt lat="44.49241" lon="0.66294">
        <ele>171.6</ele>
        <time>2017-01-29T09:58:36.000Z</time>
      </trkpt>
      <trkpt lat="44.49241" lon="0.66296">
        <ele>171.8</ele>
        <time>2017-01-29T09:58:37.000Z</time>
      </trkpt>
      <trkpt lat="44.49241" lon="0.66297">
        <ele>171.9</ele>
        <time>2017-01-29T09:58:38.000Z</time>
      </trkpt>
      <trkpt lat="44.49241" lon="0.66298">
        <ele>172</ele>
        <time>2017-01-29T09:58:39.000Z</time>
      </trkpt>
      <trkpt lat="44.49241" lon="0.66299">
        <ele>172.1</ele>
        <time>2017-01-29T09:58:40.000Z</time>
      </trkpt>
      <trkpt lat="44.49241" lon="0.663">
        <ele>172.2</ele>
        <time>2017-01-29T09:58:41.000Z</time>
      </trkpt>
      <trkpt lat="44.49241" lon="0.66301">
        <ele>172.3</ele>
        <time>2017-01-29T09:58:42.000Z</time>
      </trkpt>
      <trkpt lat="44.49241" lon="0.66302">
        <ele>172.4</ele>
        <time>2017-01-29T09:58:43.000Z</time>
      </trkpt>
      <trkpt lat="44.49241" lon="0.66305">
        <ele>172.7</ele>
        <time>2017-01-29T09:58:44.000Z</time>
      </trkpt>
      <trkpt lat="44.49241" lon="0.66307">
        <ele>172.8</ele>
        <time>2017-01-29T09:58:45.000Z</time>
      </trkpt>
      <trkpt lat="44.49242" lon="0.66309">
        <ele>173</ele>
        <time>2017-01-29T09:58:46.000Z</time>
      </trkpt>
      <trkpt lat="44.49242" lon="0.6631">
        <ele>173.1</ele>
        <time>2017-01-29T09:58:47.000Z</time>
      </trkpt>
      <trkpt lat="44.49242" lon="0.66312">
        <ele>173.3</ele>
        <time>2017-01-29T09:58:48.000Z</time>
      </trkpt>
      <trkpt lat="44.49242" lon="0.66314">
        <ele>173.4</ele>
        <time>2017-01-29T09:58:49.000Z</time>
      </trkpt>
      <trkpt lat="44.49242" lon="0.66316">
        <ele>173.6</ele>
        <time>2017-01-29T09:58:50.000Z</time>
      </trkpt>
      <trkpt lat="44.49243" lon="0.66318">
        <ele>173.7</ele>
        <time>2017-01-29T09:58:51.000Z</time>
      </trkpt>
      <trkpt lat="44.49243" lon="0.66319">
        <ele>173.9</ele>
        <time>2017-01-29T09:58:52.000Z</time>
      </trkpt>
      <trkpt lat="44.49243" lon="0.66321">
        <ele>174</ele>
        <time>2017-01-29T09:58:53.000Z</time>
      </trkpt>
      <trkpt lat="44.49243" lon="0.66323">
        <ele>174.2</ele>
        <time>2017-01-29T09:58:54.000Z</time>
      </trkpt>
      <trkpt lat="44.49243" lon="0.66324">
        <ele>174.3</ele>
        <time>2017-01-29T09:58:55.000Z</time>
      </trkpt>
      <trkpt lat="44.49244" lon="0.66326">
        <ele>174.4</ele>
        <time>2017-01-29T09:58:56.000Z</time>
      </trkpt>
      <trkpt lat="44.49244" lon="0.66328">
        <ele>174.5</ele>
        <time>2017-01-29T09:58:57.000Z</time>
      </trkpt>
      <trkpt lat="44.49244" lon="0.66329">
        <ele>174.7</ele>
        <time>2017-01-29T09:58:58.000Z</time>
      </trkpt>
      <trkpt lat="44.49244" lon="0.66331">
        <ele>174.8</ele>
        <time>2017-01-29T09:58:59.000Z</time>
      </trkpt>
      <trkpt lat="44.49245" lon="0.66333">
        <ele>174.9</ele>
        <time>2017-01-29T09:59:00.000Z</time>
      </trkpt>
      <trkpt lat="44.49245" lon="0.66334">
        <ele>175</ele>
        <time>2017-01-29T09:59:01.000Z</time>
      </trkpt>
      <trkpt lat="44.49245" lon="0.66336">
        <ele>175.1</ele>
        <time>2017-01-29T09:59:02.000Z</time>
      </trkpt>
      <trkpt lat="44.49246" lon="0.66337">
        <ele>175.3</ele>
        <time>2017-01-29T09:59:03.000Z</time>
      </trkpt>
      <trkpt lat="44.49246" lon="0.66339">
        <ele>175.4</ele>
        <time>2017-01-29T09:59:04.000Z</time>
      </trkpt>
      <trkpt lat="44.49246" lon="0.66341">
        <ele>175.5</ele>
        <time>2017-01-29T09:59:05.000Z</time>
      </trkpt>
      <trkpt lat="44.49247" lon="0.66342">
        <ele>175.6</ele>
        <time>2017-01-29T09:59:06.000Z</time>
      </trkpt>
      <trkpt lat="44.49247" lon="0.66344">
        <ele>175.8</ele>
        <time>2017-01-29T09:59:07.000Z</time>
      </trkpt>
      <trkpt lat="44.49247" lon="0.66346">
        <ele>175.9</ele>
        <time>2017-01-29T09:59:08.000Z</time>
      </trkpt>
      <trkpt lat="44.49247" lon="0.66348">
        <ele>176</ele>
        <time>2017-01-29T09:59:09.000Z</time>
      </trkpt>
      <trkpt lat="44.49248" lon="0.66349">
        <ele>176.1</ele>
        <time>2017-01-29T09:59:10.000Z</time>
      </trkpt>
      <trkpt lat="44.49248" lon="0.66351">
        <ele>176.3</ele>
        <time>2017-01-29T09:59:11.000Z</time>
      </trkpt>
      <trkpt lat="44.49248" lon="0.66353">
        <ele>176.4</ele>
        <time>2017-01-29T09:59:12.000Z</time>
      </trkpt>
      <trkpt lat="44.49249" lon="0.66355">
        <ele>176.5</ele>
        <time>2017-01-29T09:59:13.000Z</time>
      </trkpt>
      <trkpt lat="44.49249" lon="0.66357">
        <ele>176.7</ele>
        <time>2017-01-29T09:59:14.000Z</time>
      </trkpt>
      <trkpt lat="44.4925" lon="0.66359">
        <ele>176.8</ele>
        <time>2017-01-29T09:59:15.000Z</time>
      </trkpt>
      <trkpt lat="44.49251" lon="0.66362">
        <ele>176.9</ele>
        <time>2017-01-29T09:59:16.000Z</time>
      </trkpt>
      <trkpt lat="44.49252" lon="0.66364">
        <ele>177</ele>
        <time>2017-01-29T09:59:17.000Z</time>
      </trkpt>
      <trkpt lat="44.49254" lon="0.66366">
        <ele>177.1</ele>
        <time>2017-01-29T09:59:18.000Z</time>
      </trkpt>
      <trkpt lat="44.49255" lon="0.66369">
        <ele>177.2</ele>
        <time>2017-01-29T09:59:19.000Z</time>
      </trkpt>
      <trkpt lat="44.49257" lon="0.66371">
        <ele>177.2</ele>
        <time>2017-01-29T09:59:20.000Z</time>
      </trkpt>
      <trkpt lat="44.4926" lon="0.66375">
        <ele>177.2</ele>
        <time>2017-01-29T09:59:21.000Z</time>
      </trkpt>
      <trkpt lat="44.49262" lon="0.66378">
        <ele>177.3</ele>
        <time>2017-01-29T09:59:22.000Z</time>
      </trkpt>
      <trkpt lat="44.49264" lon="0.66382">
        <ele>177.4</ele>
        <time>2017-01-29T09:59:23.000Z</time>
      </trkpt>
      <trkpt lat="44.49267" lon="0.66386">
        <ele>177.4</ele>
        <time>2017-01-29T09:59:24.000Z</time>
      </trkpt>
      <trkpt lat="44.49268" lon="0.66389">
        <ele>177.5</ele>
        <time>2017-01-29T09:59:25.000Z</time>
      </trkpt>
      <trkpt lat="44.4927" lon="0.66392">
        <ele>177.6</ele>
        <time>2017-01-29T09:59:26.000Z</time>
      </trkpt>
      <trkpt lat="44.49271" lon="0.66395">
        <ele>177.7</ele>
        <time>2017-01-29T09:59:27.000Z</time>
      </trkpt>
      <trkpt lat="44.49273" lon="0.66398">
        <ele>177.8</ele>
        <time>2017-01-29T09:59:28.000Z</time>
      </trkpt>
      <trkpt lat="44.49274" lon="0.66401">
        <ele>177.8</ele>
        <time>2017-01-29T09:59:29.000Z</time>
      </trkpt>
      <trkpt lat="44.49275" lon="0.66403">
        <ele>177.9</ele>
        <time>2017-01-29T09:59:30.000Z</time>
      </trkpt>
      <trkpt lat="44.49276" lon="0.66406">
        <ele>178</ele>
        <time>2017-01-29T09:59:31.000Z</time>
      </trkpt>
      <trkpt lat="44.49277" lon="0.66408">
        <ele>178</ele>
        <time>2017-01-29T09:59:32.000Z</time>
      </trkpt>
      <trkpt lat="44.49278" lon="0.6641">
        <ele>178.1</ele>
        <time>2017-01-29T09:59:33.000Z</time>
      </trkpt>
      <trkpt lat="44.49279" lon="0.66413">
        <ele>178.1</ele>
        <time>2017-01-29T09:59:34.000Z</time>
      </trkpt>
      <trkpt lat="44.4928" lon="0.66415">
        <ele>178.1</ele>
        <time>2017-01-29T09:59:35.000Z</time>
      </trkpt>
      <trkpt lat="44.49281" lon="0.66418">
        <ele>178.2</ele>
        <time>2017-01-29T09:59:36.000Z</time>
      </trkpt>
      <trkpt lat="44.49283" lon="0.6642">
        <ele>178.3</ele>
        <time>2017-01-29T09:59:37.000Z</time>
      </trkpt>
      <trkpt lat="44.49284" lon="0.66423">
        <ele>178.4</ele>
        <time>2017-01-29T09:59:38.000Z</time>
      </trkpt>
      <trkpt lat="44.49285" lon="0.66426">
        <ele>178.4</ele>
        <time>2017-01-29T09:59:39.000Z</time>
      </trkpt>
      <trkpt lat="44.49287" lon="0.66428">
        <ele>178.4</ele>
        <time>2017-01-29T09:59:40.000Z</time>
      </trkpt>
      <trkpt lat="44.49288" lon="0.66431">
        <ele>178.5</ele>
        <time>2017-01-29T09:59:41.000Z</time>
      </trkpt>
      <trkpt lat="44.49289" lon="0.66433">
        <ele>178.5</ele>
        <time>2017-01-29T09:59:42.000Z</time>
      </trkpt>
      <trkpt lat="44.49291" lon="0.66435">
        <ele>178.5</ele>
        <time>2017-01-29T09:59:43.000Z</time>
      </trkpt>
      <trkpt lat="44.49292" lon="0.66438">
        <ele>178.5</ele>
        <time>2017-01-29T09:59:44.000Z</time>
      </trkpt>
      <trkpt lat="44.49293" lon="0.6644">
        <ele>178.6</ele>
        <time>2017-01-29T09:59:45.000Z</time>
      </trkpt>
      <trkpt lat="44.49293" lon="0.66443">
        <ele>178.7</ele>
        <time>2017-01-29T09:59:46.000Z</time>
      </trkpt>
      <trkpt lat="44.49294" lon="0.66446">
        <ele>178.9</ele>
        <time>2017-01-29T09:59:47.000Z</time>
      </trkpt>
      <trkpt lat="44.49294" lon="0.66449">
        <ele>179.2</ele>
        <time>2017-01-29T09:59:48.000Z</time>
      </trkpt>
      <trkpt lat="44.49294" lon="0.66452">
        <ele>179.4</ele>
        <time>2017-01-29T09:59:49.000Z</time>
      </trkpt>
      <trkpt lat="44.49295" lon="0.66454">
        <ele>179.5</ele>
        <time>2017-01-29T09:59:50.000Z</time>
      </trkpt>
      <trkpt lat="44.49296" lon="0.66457">
        <ele>179.6</ele>
        <time>2017-01-29T09:59:51.000Z</time>
      </trkpt>
      <trkpt lat="44.49296" lon="0.66459">
        <ele>179.7</ele>
        <time>2017-01-29T09:59:52.000Z</time>
      </trkpt>
      <trkpt lat="44.49296" lon="0.66461">
        <ele>179.9</ele>
        <time>2017-01-29T09:59:53.000Z</time>
      </trkpt>
      <trkpt lat="44.49296" lon="0.66463">
        <ele>180</ele>
        <time>2017-01-29T09:59:54.000Z</time>
      </trkpt>
      <trkpt lat="44.49296" lon="0.66465">
        <ele>180.2</ele>
        <time>2017-01-29T09:59:55.000Z</time>
      </trkpt>
      <trkpt lat="44.49296" lon="0.66467">
        <ele>180.4</ele>
        <time>2017-01-29T09:59:56.000Z</time>
      </trkpt>
      <trkpt lat="44.49296" lon="0.66469">
        <ele>180.6</ele>
        <time>2017-01-29T09:59:57.000Z</time>
      </trkpt>
      <trkpt lat="44.49296" lon="0.66471">
        <ele>180.8</ele>
        <time>2017-01-29T09:59:58.000Z</time>
      </trkpt>
      <trkpt lat="44.49296" lon="0.66473">
        <ele>181</ele>
        <time>2017-01-29T09:59:59.000Z</time>
      </trkpt>
      <trkpt lat="44.49296" lon="0.66474">
        <ele>181.2</ele>
        <time>2017-01-29T10:00:00.000Z</time>
      </trkpt>
      <trkpt lat="44.49296" lon="0.66476">
        <ele>181.3</ele>
        <time>2017-01-29T10:00:01.000Z</time>
      </trkpt>
      <trkpt lat="44.49296" lon="0.66478">
        <ele>181.5</ele>
        <time>2017-01-29T10:00:02.000Z</time>
      </trkpt>
      <trkpt lat="44.49296" lon="0.6648">
        <ele>181.6</ele>
        <time>2017-01-29T10:00:03.000Z</time>
      </trkpt>
      <trkpt lat="44.49297" lon="0.66482">
        <ele>181.7</ele>
        <time>2017-01-29T10:00:04.000Z</time>
      </trkpt>
      <trkpt lat="44.49297" lon="0.66483">
        <ele>181.7</ele>
        <time>2017-01-29T10:00:05.000Z</time>
      </trkpt>
      <trkpt lat="44.49298" lon="0.66485">
        <ele>181.7</ele>
        <time>2017-01-29T10:00:06.000Z</time>
      </trkpt>
      <trkpt lat="44.49299" lon="0.66487">
        <ele>181.7</ele>
        <time>2017-01-29T10:00:07.000Z</time>
      </trkpt>
      <trkpt lat="44.49299" lon="0.66489">
        <ele>181.8</ele>
        <time>2017-01-29T10:00:08.000Z</time>
      </trkpt>
      <trkpt lat="44.493" lon="0.6649">
        <ele>181.8</ele>
        <time>2017-01-29T10:00:09.000Z</time>
      </trkpt>
      <trkpt lat="44.493" lon="0.66492">
        <ele>181.8</ele>
        <time>2017-01-29T10:00:10.000Z</time>
      </trkpt>
      <trkpt lat="44.49301" lon="0.66494">
        <ele>181.8</ele>
        <time>2017-01-29T10:00:11.000Z</time>
      </trkpt>
      <trkpt lat="44.49301" lon="0.66495">
        <ele>181.9</ele>
        <time>2017-01-29T10:00:12.000Z</time>
      </trkpt>
      <trkpt lat="44.49302" lon="0.66497">
        <ele>181.9</ele>
        <time>2017-01-29T10:00:13.000Z</time>
      </trkpt>
      <trkpt lat="44.49302" lon="0.66498">
        <ele>181.9</ele>
        <time>2017-01-29T10:00:14.000Z</time>
      </trkpt>
      <trkpt lat="44.49303" lon="0.665">
        <ele>181.9</ele>
        <time>2017-01-29T10:00:15.000Z</time>
      </trkpt>
      <trkpt lat="44.49303" lon="0.66501">
        <ele>182.1</ele>
        <time>2017-01-29T10:00:16.000Z</time>
      </trkpt>
      <trkpt lat="44.49304" lon="0.66503">
        <ele>182.2</ele>
        <time>2017-01-29T10:00:17.000Z</time>
      </trkpt>
      <trkpt lat="44.49304" lon="0.66504">
        <ele>182.3</ele>
        <time>2017-01-29T10:00:18.000Z</time>
      </trkpt>
      <trkpt lat="44.49305" lon="0.66506">
        <ele>182.4</ele>
        <time>2017-01-29T10:00:19.000Z</time>
      </trkpt>
      <trkpt lat="44.49306" lon="0.66507">
        <ele>182.5</ele>
        <time>2017-01-29T10:00:20.000Z</time>
      </trkpt>
      <trkpt lat="44.49306" lon="0.66509">
        <ele>182.7</ele>
        <time>2017-01-29T10:00:21.000Z</time>
      </trkpt>
      <trkpt lat="44.49307" lon="0.6651">
        <ele>182.8</ele>
        <time>2017-01-29T10:00:22.000Z</time>
      </trkpt>
      <trkpt lat="44.49308" lon="0.66512">
        <ele>182.9</ele>
        <time>2017-01-29T10:00:23.000Z</time>
      </trkpt>
      <trkpt lat="44.49308" lon="0.66513">
        <ele>183</ele>
        <time>2017-01-29T10:00:24.000Z</time>
      </trkpt>
      <trkpt lat="44.49309" lon="0.66515">
        <ele>183.2</ele>
        <time>2017-01-29T10:00:25.000Z</time>
      </trkpt>
      <trkpt lat="44.4931" lon="0.66516">
        <ele>183.3</ele>
        <time>2017-01-29T10:00:26.000Z</time>
      </trkpt>
      <trkpt lat="44.4931" lon="0.66518">
        <ele>183.5</ele>
        <time>2017-01-29T10:00:27.000Z</time>
      </trkpt>
      <trkpt lat="44.49311" lon="0.6652">
        <ele>183.6</ele>
        <time>2017-01-29T10:00:28.000Z</time>
      </trkpt>
      <trkpt lat="44.49312" lon="0.66521">
        <ele>183.8</ele>
        <time>2017-01-29T10:00:29.000Z</time>
      </trkpt>
      <trkpt lat="44.49313" lon="0.66523">
        <ele>183.9</ele>
        <time>2017-01-29T10:00:30.000Z</time>
      </trkpt>
      <trkpt lat="44.49313" lon="0.66525">
        <ele>184.1</ele>
        <time>2017-01-29T10:00:31.000Z</time>
      </trkpt>
      <trkpt lat="44.49314" lon="0.66526">
        <ele>184.2</ele>
        <time>2017-01-29T10:00:32.000Z</time>
      </trkpt>
      <trkpt lat="44.49315" lon="0.66528">
        <ele>184.4</ele>
        <time>2017-01-29T10:00:33.000Z</time>
      </trkpt>
      <trkpt lat="44.49315" lon="0.6653">
        <ele>184.6</ele>
        <time>2017-01-29T10:00:34.000Z</time>
      </trkpt>
      <trkpt lat="44.49316" lon="0.66531">
        <ele>184.8</ele>
        <time>2017-01-29T10:00:35.000Z</time>
      </trkpt>
      <trkpt lat="44.49316" lon="0.66533">
        <ele>185</ele>
        <time>2017-01-29T10:00:36.000Z</time>
      </trkpt>
      <trkpt lat="44.49317" lon="0.66535">
        <ele>185.2</ele>
        <time>2017-01-29T10:00:37.000Z</time>
      </trkpt>
      <trkpt lat="44.49318" lon="0.66536">
        <ele>185.4</ele>
        <time>2017-01-29T10:00:38.000Z</time>
      </trkpt>
      <trkpt lat="44.49318" lon="0.66538">
        <ele>185.5</ele>
        <time>2017-01-29T10:00:39.000Z</time>
      </trkpt>
      <trkpt lat="44.49319" lon="0.66539">
        <ele>185.7</ele>
        <time>2017-01-29T10:00:40.000Z</time>
      </trkpt>
      <trkpt lat="44.4932" lon="0.66541">
        <ele>185.9</ele>
        <time>2017-01-29T10:00:41.000Z</time>
      </trkpt>
      <trkpt lat="44.4932" lon="0.66543">
        <ele>186.1</ele>
        <time>2017-01-29T10:00:42.000Z</time>
      </trkpt>
      <trkpt lat="44.49321" lon="0.66544">
        <ele>186.3</ele>
        <time>2017-01-29T10:00:43.000Z</time>
      </trkpt>
      <trkpt lat="44.49322" lon="0.66546">
        <ele>186.4</ele>
        <time>2017-01-29T10:00:44.000Z</time>
      </trkpt>
      <trkpt lat="44.49323" lon="0.66547">
        <ele>186.6</ele>
        <time>2017-01-29T10:00:45.000Z</time>
      </trkpt>
      <trkpt lat="44.49323" lon="0.66549">
        <ele>186.7</ele>
        <time>2017-01-29T10:00:46.000Z</time>
      </trkpt>
      <trkpt lat="44.49324" lon="0.6655">
        <ele>186.9</ele>
        <time>2017-01-29T10:00:47.000Z</time>
      </trkpt>
      <trkpt lat="44.49325" lon="0.66552">
        <ele>187</ele>
        <time>2017-01-29T10:00:48.000Z</time>
      </trkpt>
      <trkpt lat="44.49326" lon="0.66553">
        <ele>187.1</ele>
        <time>2017-01-29T10:00:49.000Z</time>
      </trkpt>
      <trkpt lat="44.49327" lon="0.66555">
        <ele>187.3</ele>
        <time>2017-01-29T10:00:50.000Z</time>
      </trkpt>
      <trkpt lat="44.49328" lon="0.66556">
        <ele>187.4</ele>
        <time>2017-01-29T10:00:51.000Z</time>
      </trkpt>
      <trkpt lat="44.49328" lon="0.66558">
        <ele>187.6</ele>
        <time>2017-01-29T10:00:52.000Z</time>
      </trkpt>
      <trkpt lat="44.49329" lon="0.66559">
        <ele>187.7</ele>
        <time>2017-01-29T10:00:53.000Z</time>
      </trkpt>
      <trkpt lat="44.4933" lon="0.6656">
        <ele>187.9</ele>
        <time>2017-01-29T10:00:54.000Z</time>
      </trkpt>
      <trkpt lat="44.49331" lon="0.66562">
        <ele>188.1</ele>
        <time>2017-01-29T10:00:55.000Z</time>
      </trkpt>
      <trkpt lat="44.49331" lon="0.66563">
        <ele>188.2</ele>
        <time>2017-01-29T10:00:56.000Z</time>
      </trkpt>
      <trkpt lat="44.49332" lon="0.66565">
        <ele>188.4</ele>
        <time>2017-01-29T10:00:57.000Z</time>
      </trkpt>
      <trkpt lat="44.49332" lon="0.66566">
        <ele>188.6</ele>
        <time>2017-01-29T10:00:58.000Z</time>
      </trkpt>
      <trkpt lat="44.49333" lon="0.66567">
        <ele>188.7</ele>
        <time>2017-01-29T10:00:59.000Z</time>
      </trkpt>
      <trkpt lat="44.49333" lon="0.66567">
        <ele>188.8</ele>
        <time>2017-01-29T10:01:00.000Z</time>
      </trkpt>
      <trkpt lat="44.49333" lon="0.66568">
        <ele>188.8</ele>
        <time>2017-01-29T10:01:01.000Z</time>
      </trkpt>
      <trkpt lat="44.49334" lon="0.66568">
        <ele>188.9</ele>
        <time>2017-01-29T10:01:02.000Z</time>
      </trkpt>
      <trkpt lat="44.49334" lon="0.66569">
        <ele>189.1</ele>
        <time>2017-01-29T10:01:03.000Z</time>
      </trkpt>
      <trkpt lat="44.49334" lon="0.6657">
        <ele>189.2</ele>
        <time>2017-01-29T10:01:04.000Z</time>
      </trkpt>
      <trkpt lat="44.49335" lon="0.66571">
        <ele>189.3</ele>
        <time>2017-01-29T10:01:05.000Z</time>
      </trkpt>
      <trkpt lat="44.49336" lon="0.66572">
        <ele>189.4</ele>
        <time>2017-01-29T10:01:06.000Z</time>
      </trkpt>
      <trkpt lat="44.49337" lon="0.66574">
        <ele>189.7</ele>
        <time>2017-01-29T10:01:07.000Z</time>
      </trkpt>
      <trkpt lat="44.49338" lon="0.66575">
        <ele>189.9</ele>
        <time>2017-01-29T10:01:08.000Z</time>
      </trkpt>
      <trkpt lat="44.49338" lon="0.66576">
        <ele>190.1</ele>
        <time>2017-01-29T10:01:09.000Z</time>
      </trkpt>
      <trkpt lat="44.49339" lon="0.66578">
        <ele>190.3</ele>
        <time>2017-01-29T10:01:10.000Z</time>
      </trkpt>
      <trkpt lat="44.4934" lon="0.66579">
        <ele>190.5</ele>
        <time>2017-01-29T10:01:11.000Z</time>
      </trkpt>
      <trkpt lat="44.49341" lon="0.6658">
        <ele>190.6</ele>
        <time>2017-01-29T10:01:12.000Z</time>
      </trkpt>
      <trkpt lat="44.49341" lon="0.66581">
        <ele>190.8</ele>
        <time>2017-01-29T10:01:13.000Z</time>
      </trkpt>
      <trkpt lat="44.49342" lon="0.66582">
        <ele>190.9</ele>
        <time>2017-01-29T10:01:14.000Z</time>
      </trkpt>
      <trkpt lat="44.49343" lon="0.66583">
        <ele>191.1</ele>
        <time>2017-01-29T10:01:15.000Z</time>
      </trkpt>
      <trkpt lat="44.49344" lon="0.66585">
        <ele>191.2</ele>
        <time>2017-01-29T10:01:16.000Z</time>
      </trkpt>
      <trkpt lat="44.49345" lon="0.66586">
        <ele>191.4</ele>
        <time>2017-01-29T10:01:17.000Z</time>
      </trkpt>
      <trkpt lat="44.49346" lon="0.66587">
        <ele>191.5</ele>
        <time>2017-01-29T10:01:18.000Z</time>
      </trkpt>
      <trkpt lat="44.49347" lon="0.66588">
        <ele>191.7</ele>
        <time>2017-01-29T10:01:19.000Z</time>
      </trkpt>
      <trkpt lat="44.49347" lon="0.66589">
        <ele>191.8</ele>
        <time>2017-01-29T10:01:20.000Z</time>
      </trkpt>
      <trkpt lat="44.49348" lon="0.6659">
        <ele>192</ele>
        <time>2017-01-29T10:01:21.000Z</time>
      </trkpt>
      <trkpt lat="44.49349" lon="0.66592">
        <ele>192.2</ele>
        <time>2017-01-29T10:01:22.000Z</time>
      </trkpt>
      <trkpt lat="44.4935" lon="0.66593">
        <ele>192.4</ele>
        <time>2017-01-29T10:01:23.000Z</time>
      </trkpt>
      <trkpt lat="44.49351" lon="0.66594">
        <ele>192.5</ele>
        <time>2017-01-29T10:01:24.000Z</time>
      </trkpt>
      <trkpt lat="44.49352" lon="0.66595">
        <ele>192.7</ele>
        <time>2017-01-29T10:01:25.000Z</time>
      </trkpt>
      <trkpt lat="44.49353" lon="0.66596">
        <ele>192.8</ele>
        <time>2017-01-29T10:01:26.000Z</time>
      </trkpt>
      <trkpt lat="44.49354" lon="0.66597">
        <ele>193</ele>
        <time>2017-01-29T10:01:27.000Z</time>
      </trkpt>
      <trkpt lat="44.49355" lon="0.66599">
        <ele>193.2</ele>
        <time>2017-01-29T10:01:28.000Z</time>
      </trkpt>
      <trkpt lat="44.49355" lon="0.666">
        <ele>193.3</ele>
        <time>2017-01-29T10:01:29.000Z</time>
      </trkpt>
      <trkpt lat="44.49356" lon="0.66601">
        <ele>193.5</ele>
        <time>2017-01-29T10:01:30.000Z</time>
      </trkpt>
      <trkpt lat="44.49357" lon="0.66602">
        <ele>193.7</ele>
        <time>2017-01-29T10:01:31.000Z</time>
      </trkpt>
      <trkpt lat="44.49358" lon="0.66603">
        <ele>193.9</ele>
        <time>2017-01-29T10:01:32.000Z</time>
      </trkpt>
      <trkpt lat="44.49359" lon="0.66604">
        <ele>194</ele>
        <time>2017-01-29T10:01:33.000Z</time>
      </trkpt>
      <trkpt lat="44.4936" lon="0.66605">
        <ele>194.2</ele>
        <time>2017-01-29T10:01:34.000Z</time>
      </trkpt>
      <trkpt lat="44.4936" lon="0.66607">
        <ele>194.4</ele>
        <time>2017-01-29T10:01:35.000Z</time>
      </trkpt>
      <trkpt lat="44.49361" lon="0.66608">
        <ele>194.6</ele>
        <time>2017-01-29T10:01:36.000Z</time>
      </trkpt>
      <trkpt lat="44.49362" lon="0.66609">
        <ele>194.8</ele>
        <time>2017-01-29T10:01:37.000Z</time>
      </trkpt>
      <trkpt lat="44.49363" lon="0.6661">
        <ele>194.9</ele>
        <time>2017-01-29T10:01:38.000Z</time>
      </trkpt>
      <trkpt lat="44.49364" lon="0.66611">
        <ele>195.1</ele>
        <time>2017-01-29T10:01:39.000Z</time>
      </trkpt>
      <trkpt lat="44.49365" lon="0.66612">
        <ele>195.3</ele>
        <time>2017-01-29T10:01:40.000Z</time>
      </trkpt>
      <trkpt lat="44.49366" lon="0.66613">
        <ele>195.5</ele>
        <time>2017-01-29T10:01:41.000Z</time>
      </trkpt>
      <trkpt lat="44.49367" lon="0.66615">
        <ele>195.7</ele>
        <time>2017-01-29T10:01:42.000Z</time>
      </trkpt>
      <trkpt lat="44.49367" lon="0.66616">
        <ele>195.9</ele>
        <time>2017-01-29T10:01:43.000Z</time>
      </trkpt>
      <trkpt lat="44.49368" lon="0.66617">
        <ele>196.1</ele>
        <time>2017-01-29T10:01:44.000Z</time>
      </trkpt>
      <trkpt lat="44.49369" lon="0.66618">
        <ele>196.3</ele>
        <time>2017-01-29T10:01:45.000Z</time>
      </trkpt>
      <trkpt lat="44.4937" lon="0.66619">
        <ele>196.5</ele>
        <time>2017-01-29T10:01:46.000Z</time>
      </trkpt>
      <trkpt lat="44.4937" lon="0.6662">
        <ele>196.7</ele>
        <time>2017-01-29T10:01:47.000Z</time>
      </trkpt>
      <trkpt lat="44.49371" lon="0.66621">
        <ele>196.9</ele>
        <time>2017-01-29T10:01:48.000Z</time>
      </trkpt>
      <trkpt lat="44.49372" lon="0.66622">
        <ele>197.1</ele>
        <time>2017-01-29T10:01:49.000Z</time>
      </trkpt>
      <trkpt lat="44.49373" lon="0.66623">
        <ele>197.3</ele>
        <time>2017-01-29T10:01:50.000Z</time>
      </trkpt>
      <trkpt lat="44.49373" lon="0.66624">
        <ele>197.4</ele>
        <time>2017-01-29T10:01:51.000Z</time>
      </trkpt>
      <trkpt lat="44.49374" lon="0.66625">
        <ele>197.6</ele>
        <time>2017-01-29T10:01:52.000Z</time>
      </trkpt>
      <trkpt lat="44.49374" lon="0.66626">
        <ele>197.7</ele>
        <time>2017-01-29T10:01:53.000Z</time>
      </trkpt>
      <trkpt lat="44.49375" lon="0.66626">
        <ele>197.8</ele>
        <time>2017-01-29T10:01:54.000Z</time>
      </trkpt>
      <trkpt lat="44.49375" lon="0.66627">
        <ele>197.9</ele>
        <time>2017-01-29T10:01:55.000Z</time>
      </trkpt>
      <trkpt lat="44.49376" lon="0.66627">
        <ele>198</ele>
        <time>2017-01-29T10:01:56.000Z</time>
      </trkpt>
      <trkpt lat="44.49376" lon="0.66628">
        <ele>198.1</ele>
        <time>2017-01-29T10:01:57.000Z</time>
      </trkpt>
      <trkpt lat="44.49377" lon="0.66629">
        <ele>198.2</ele>
        <time>2017-01-29T10:01:58.000Z</time>
      </trkpt>
      <trkpt lat="44.49379" lon="0.6663">
        <ele>198.5</ele>
        <time>2017-01-29T10:01:59.000Z</time>
      </trkpt>
      <trkpt lat="44.4938" lon="0.66632">
        <ele>198.8</ele>
        <time>2017-01-29T10:02:00.000Z</time>
      </trkpt>
      <trkpt lat="44.49381" lon="0.66633">
        <ele>199</ele>
        <time>2017-01-29T10:02:01.000Z</time>
      </trkpt>
      <trkpt lat="44.49382" lon="0.66634">
        <ele>199.3</ele>
        <time>2017-01-29T10:02:02.000Z</time>
      </trkpt>
      <trkpt lat="44.49383" lon="0.66636">
        <ele>199.5</ele>
        <time>2017-01-29T10:02:03.000Z</time>
      </trkpt>
      <trkpt lat="44.49383" lon="0.66637">
        <ele>199.7</ele>
        <time>2017-01-29T10:02:04.000Z</time>
      </trkpt>
      <trkpt lat="44.49384" lon="0.66638">
        <ele>199.9</ele>
        <time>2017-01-29T10:02:05.000Z</time>
      </trkpt>
      <trkpt lat="44.49385" lon="0.66638">
        <ele>200</ele>
        <time>2017-01-29T10:02:06.000Z</time>
      </trkpt>
      <trkpt lat="44.49385" lon="0.66639">
        <ele>200.1</ele>
        <time>2017-01-29T10:02:07.000Z</time>
      </trkpt>
      <trkpt lat="44.49385" lon="0.66639">
        <ele>200.2</ele>
        <time>2017-01-29T10:02:08.000Z</time>
      </trkpt>
      <trkpt lat="44.49386" lon="0.6664">
        <ele>200.3</ele>
        <time>2017-01-29T10:02:09.000Z</time>
      </trkpt>
      <trkpt lat="44.49386" lon="0.6664">
        <ele>200.4</ele>
        <time>2017-01-29T10:02:10.000Z</time>
      </trkpt>
      <trkpt lat="44.49387" lon="0.66641">
        <ele>200.5</ele>
        <time>2017-01-29T10:02:11.000Z</time>
      </trkpt>
      <trkpt lat="44.49389" lon="0.66642">
        <ele>200.7</ele>
        <time>2017-01-29T10:02:12.000Z</time>
      </trkpt>
      <trkpt lat="44.4939" lon="0.66642">
        <ele>200.8</ele>
        <time>2017-01-29T10:02:13.000Z</time>
      </trkpt>
      <trkpt lat="44.49392" lon="0.66644">
        <ele>201</ele>
        <time>2017-01-29T10:02:14.000Z</time>
      </trkpt>
      <trkpt lat="44.49394" lon="0.66645">
        <ele>201.1</ele>
        <time>2017-01-29T10:02:15.000Z</time>
      </trkpt>
      <trkpt lat="44.49395" lon="0.66645">
        <ele>201.3</ele>
        <time>2017-01-29T10:02:16.000Z</time>
      </trkpt>
      <trkpt lat="44.49396" lon="0.66646">
        <ele>201.4</ele>
        <time>2017-01-29T10:02:17.000Z</time>
      </trkpt>
      <trkpt lat="44.49397" lon="0.66647">
        <ele>201.5</ele>
        <time>2017-01-29T10:02:18.000Z</time>
      </trkpt>
      <trkpt lat="44.49398" lon="0.66647">
        <ele>201.6</ele>
        <time>2017-01-29T10:02:19.000Z</time>
      </trkpt>
      <trkpt lat="44.49399" lon="0.66647">
        <ele>201.6</ele>
        <time>2017-01-29T10:02:20.000Z</time>
      </trkpt>
      <trkpt lat="44.494" lon="0.66647">
        <ele>201.6</ele>
        <time>2017-01-29T10:02:21.000Z</time>
      </trkpt>
      <trkpt lat="44.49402" lon="0.66648">
        <ele>201.6</ele>
        <time>2017-01-29T10:02:22.000Z</time>
      </trkpt>
      <trkpt lat="44.49403" lon="0.66648">
        <ele>201.7</ele>
        <time>2017-01-29T10:02:23.000Z</time>
      </trkpt>
      <trkpt lat="44.49405" lon="0.66649">
        <ele>201.8</ele>
        <time>2017-01-29T10:02:24.000Z</time>
      </trkpt>
      <trkpt lat="44.49406" lon="0.6665">
        <ele>202</ele>
        <time>2017-01-29T10:02:25.000Z</time>
      </trkpt>
      <trkpt lat="44.49407" lon="0.66651">
        <ele>202.2</ele>
        <time>2017-01-29T10:02:26.000Z</time>
      </trkpt>
      <trkpt lat="44.49409" lon="0.66651">
        <ele>202.2</ele>
        <time>2017-01-29T10:02:27.000Z</time>
      </trkpt>
      <trkpt lat="44.4941" lon="0.66652">
        <ele>202.3</ele>
        <time>2017-01-29T10:02:28.000Z</time>
      </trkpt>
      <trkpt lat="44.49411" lon="0.66653">
        <ele>202.5</ele>
        <time>2017-01-29T10:02:29.000Z</time>
      </trkpt>
      <trkpt lat="44.49413" lon="0.66653">
        <ele>202.6</ele>
        <time>2017-01-29T10:02:30.000Z</time>
      </trkpt>
      <trkpt lat="44.49414" lon="0.66653">
        <ele>202.6</ele>
        <time>2017-01-29T10:02:31.000Z</time>
      </trkpt>
      <trkpt lat="44.49415" lon="0.66654">
        <ele>202.7</ele>
        <time>2017-01-29T10:02:32.000Z</time>
      </trkpt>
      <trkpt lat="44.49416" lon="0.66655">
        <ele>202.8</ele>
        <time>2017-01-29T10:02:33.000Z</time>
      </trkpt>
      <trkpt lat="44.49417" lon="0.66655">
        <ele>203</ele>
        <time>2017-01-29T10:02:34.000Z</time>
      </trkpt>
      <trkpt lat="44.49418" lon="0.66656">
        <ele>203.3</ele>
        <time>2017-01-29T10:02:35.000Z</time>
      </trkpt>
      <trkpt lat="44.49419" lon="0.66657">
        <ele>203.5</ele>
        <time>2017-01-29T10:02:36.000Z</time>
      </trkpt>
      <trkpt lat="44.4942" lon="0.66657">
        <ele>203.7</ele>
        <time>2017-01-29T10:02:37.000Z</time>
      </trkpt>
      <trkpt lat="44.49421" lon="0.66658">
        <ele>203.9</ele>
        <time>2017-01-29T10:02:38.000Z</time>
      </trkpt>
      <trkpt lat="44.49421" lon="0.66658">
        <ele>204</ele>
        <time>2017-01-29T10:02:39.000Z</time>
      </trkpt>
      <trkpt lat="44.49422" lon="0.66659">
        <ele>204.2</ele>
        <time>2017-01-29T10:02:40.000Z</time>
      </trkpt>
      <trkpt lat="44.49423" lon="0.66659">
        <ele>204.4</ele>
        <time>2017-01-29T10:02:41.000Z</time>
      </trkpt>
      <trkpt lat="44.49424" lon="0.6666">
        <ele>204.8</ele>
        <time>2017-01-29T10:02:42.000Z</time>
      </trkpt>
      <trkpt lat="44.49425" lon="0.66661">
        <ele>205.1</ele>
        <time>2017-01-29T10:02:43.000Z</time>
      </trkpt>
      <trkpt lat="44.49427" lon="0.66662">
        <ele>205.5</ele>
        <time>2017-01-29T10:02:44.000Z</time>
      </trkpt>
      <trkpt lat="44.49428" lon="0.66663">
        <ele>205.8</ele>
        <time>2017-01-29T10:02:45.000Z</time>
      </trkpt>
      <trkpt lat="44.49429" lon="0.66664">
        <ele>206</ele>
        <time>2017-01-29T10:02:46.000Z</time>
      </trkpt>
      <trkpt lat="44.49431" lon="0.66664">
        <ele>206.1</ele>
        <time>2017-01-29T10:02:47.000Z</time>
      </trkpt>
      <trkpt lat="44.49432" lon="0.66665">
        <ele>206.4</ele>
        <time>2017-01-29T10:02:48.000Z</time>
      </trkpt>
      <trkpt lat="44.49433" lon="0.66665">
        <ele>206.6</ele>
        <time>2017-01-29T10:02:49.000Z</time>
      </trkpt>
      <trkpt lat="44.49434" lon="0.66666">
        <ele>207</ele>
        <time>2017-01-29T10:02:50.000Z</time>
      </trkpt>
      <trkpt lat="44.49435" lon="0.66667">
        <ele>207.2</ele>
        <time>2017-01-29T10:02:51.000Z</time>
      </trkpt>
      <trkpt lat="44.49436" lon="0.66669">
        <ele>207.3</ele>
        <time>2017-01-29T10:02:52.000Z</time>
      </trkpt>
      <trkpt lat="44.49437" lon="0.6667">
        <ele>207.4</ele>
        <time>2017-01-29T10:02:53.000Z</time>
      </trkpt>
      <trkpt lat="44.49438" lon="0.66671">
        <ele>207.6</ele>
        <time>2017-01-29T10:02:54.000Z</time>
      </trkpt>
      <trkpt lat="44.4944" lon="0.66672">
        <ele>207.7</ele>
        <time>2017-01-29T10:02:55.000Z</time>
      </trkpt>
      <trkpt lat="44.49441" lon="0.66673">
        <ele>207.8</ele>
        <time>2017-01-29T10:02:56.000Z</time>
      </trkpt>
      <trkpt lat="44.49442" lon="0.66674">
        <ele>207.9</ele>
        <time>2017-01-29T10:02:57.000Z</time>
      </trkpt>
      <trkpt lat="44.49443" lon="0.66675">
        <ele>208.1</ele>
        <time>2017-01-29T10:02:58.000Z</time>
      </trkpt>
      <trkpt lat="44.49444" lon="0.66675">
        <ele>208.2</ele>
        <time>2017-01-29T10:02:59.000Z</time>
      </trkpt>
      <trkpt lat="44.49445" lon="0.66676">
        <ele>208.3</ele>
        <time>2017-01-29T10:03:00.000Z</time>
      </trkpt>
      <trkpt lat="44.49446" lon="0.66677">
        <ele>208.4</ele>
        <time>2017-01-29T10:03:01.000Z</time>
      </trkpt>
      <trkpt lat="44.49447" lon="0.66678">
        <ele>208.5</ele>
        <time>2017-01-29T10:03:02.000Z</time>
      </trkpt>
      <trkpt lat="44.49448" lon="0.66679">
        <ele>208.6</ele>
        <time>2017-01-29T10:03:03.000Z</time>
      </trkpt>
      <trkpt lat="44.49449" lon="0.6668">
        <ele>208.7</ele>
        <time>2017-01-29T10:03:04.000Z</time>
      </trkpt>
      <trkpt lat="44.4945" lon="0.6668">
        <ele>208.8</ele>
        <time>2017-01-29T10:03:05.000Z</time>
      </trkpt>
      <trkpt lat="44.49451" lon="0.66681">
        <ele>208.9</ele>
        <time>2017-01-29T10:03:06.000Z</time>
      </trkpt>
      <trkpt lat="44.49452" lon="0.66682">
        <ele>209</ele>
        <time>2017-01-29T10:03:07.000Z</time>
      </trkpt>
      <trkpt lat="44.49452" lon="0.66683">
        <ele>209.1</ele>
        <time>2017-01-29T10:03:08.000Z</time>
      </trkpt>
      <trkpt lat="44.49453" lon="0.66684">
        <ele>209.2</ele>
        <time>2017-01-29T10:03:09.000Z</time>
      </trkpt>
      <trkpt lat="44.49454" lon="0.66686">
        <ele>209.3</ele>
        <time>2017-01-29T10:03:10.000Z</time>
      </trkpt>
      <trkpt lat="44.49455" lon="0.66687">
        <ele>209.4</ele>
        <time>2017-01-29T10:03:11.000Z</time>
      </trkpt>
      <trkpt lat="44.49455" lon="0.66688">
        <ele>209.5</ele>
        <time>2017-01-29T10:03:12.000Z</time>
      </trkpt>
      <trkpt lat="44.49456" lon="0.66689">
        <ele>209.6</ele>
        <time>2017-01-29T10:03:13.000Z</time>
      </trkpt>
      <trkpt lat="44.49457" lon="0.6669">
        <ele>209.7</ele>
        <time>2017-01-29T10:03:14.000Z</time>
      </trkpt>
      <trkpt lat="44.49458" lon="0.66691">
        <ele>209.8</ele>
        <time>2017-01-29T10:03:15.000Z</time>
      </trkpt>
      <trkpt lat="44.49458" lon="0.66692">
        <ele>209.9</ele>
        <time>2017-01-29T10:03:16.000Z</time>
      </trkpt>
      <trkpt lat="44.49459" lon="0.66692">
        <ele>209.9</ele>
        <time>2017-01-29T10:03:17.000Z</time>
      </trkpt>
      <trkpt lat="44.49459" lon="0.66693">
        <ele>209.9</ele>
        <time>2017-01-29T10:03:18.000Z</time>
      </trkpt>
      <trkpt lat="44.4946" lon="0.66694">
        <ele>210</ele>
        <time>2017-01-29T10:03:19.000Z</time>
      </trkpt>
      <trkpt lat="44.49461" lon="0.66695">
        <ele>210.1</ele>
        <time>2017-01-29T10:03:20.000Z</time>
      </trkpt>
      <trkpt lat="44.49462" lon="0.66696">
        <ele>210.2</ele>
        <time>2017-01-29T10:03:21.000Z</time>
      </trkpt>
      <trkpt lat="44.49463" lon="0.66697">
        <ele>210.3</ele>
        <time>2017-01-29T10:03:22.000Z</time>
      </trkpt>
      <trkpt lat="44.49464" lon="0.66697">
        <ele>210.4</ele>
        <time>2017-01-29T10:03:23.000Z</time>
      </trkpt>
      <trkpt lat="44.49465" lon="0.66698">
        <ele>210.5</ele>
        <time>2017-01-29T10:03:24.000Z</time>
      </trkpt>
      <trkpt lat="44.49466" lon="0.66699">
        <ele>210.5</ele>
        <time>2017-01-29T10:03:25.000Z</time>
      </trkpt>
      <trkpt lat="44.49468" lon="0.667">
        <ele>210.6</ele>
        <time>2017-01-29T10:03:26.000Z</time>
      </trkpt>
      <trkpt lat="44.49468" lon="0.66701">
        <ele>210.7</ele>
        <time>2017-01-29T10:03:27.000Z</time>
      </trkpt>
      <trkpt lat="44.49469" lon="0.66702">
        <ele>210.8</ele>
        <time>2017-01-29T10:03:28.000Z</time>
      </trkpt>
      <trkpt lat="44.4947" lon="0.66704">
        <ele>210.9</ele>
        <time>2017-01-29T10:03:29.000Z</time>
      </trkpt>
      <trkpt lat="44.49471" lon="0.66705">
        <ele>211</ele>
        <time>2017-01-29T10:03:30.000Z</time>
      </trkpt>
      <trkpt lat="44.49472" lon="0.66706">
        <ele>211.1</ele>
        <time>2017-01-29T10:03:31.000Z</time>
      </trkpt>
      <trkpt lat="44.49473" lon="0.66707">
        <ele>211.1</ele>
        <time>2017-01-29T10:03:32.000Z</time>
      </trkpt>
      <trkpt lat="44.49474" lon="0.66708">
        <ele>211.2</ele>
        <time>2017-01-29T10:03:33.000Z</time>
      </trkpt>
      <trkpt lat="44.49475" lon="0.66709">
        <ele>211.3</ele>
        <time>2017-01-29T10:03:34.000Z</time>
      </trkpt>
      <trkpt lat="44.49476" lon="0.66709">
        <ele>211.3</ele>
        <time>2017-01-29T10:03:35.000Z</time>
      </trkpt>
      <trkpt lat="44.49478" lon="0.6671">
        <ele>211.4</ele>
        <time>2017-01-29T10:03:36.000Z</time>
      </trkpt>
      <trkpt lat="44.49479" lon="0.66711">
        <ele>211.5</ele>
        <time>2017-01-29T10:03:37.000Z</time>
      </trkpt>
      <trkpt lat="44.4948" lon="0.66712">
        <ele>211.6</ele>
        <time>2017-01-29T10:03:38.000Z</time>
      </trkpt>
      <trkpt lat="44.49481" lon="0.66714">
        <ele>211.6</ele>
        <time>2017-01-29T10:03:39.000Z</time>
      </trkpt>
      <trkpt lat="44.49482" lon="0.66715">
        <ele>211.7</ele>
        <time>2017-01-29T10:03:40.000Z</time>
      </trkpt>
      <trkpt lat="44.49483" lon="0.66717">
        <ele>211.8</ele>
        <time>2017-01-29T10:03:41.000Z</time>
      </trkpt>
      <trkpt lat="44.49484" lon="0.66719">
        <ele>211.9</ele>
        <time>2017-01-29T10:03:42.000Z</time>
      </trkpt>
      <trkpt lat="44.49485" lon="0.6672">
        <ele>212</ele>
        <time>2017-01-29T10:03:43.000Z</time>
      </trkpt>
      <trkpt lat="44.49486" lon="0.66721">
        <ele>212</ele>
        <time>2017-01-29T10:03:44.000Z</time>
      </trkpt>
      <trkpt lat="44.49487" lon="0.66722">
        <ele>212.1</ele>
        <time>2017-01-29T10:03:45.000Z</time>
      </trkpt>
      <trkpt lat="44.49488" lon="0.66723">
        <ele>212.1</ele>
        <time>2017-01-29T10:03:46.000Z</time>
      </trkpt>
      <trkpt lat="44.49489" lon="0.66724">
        <ele>212.2</ele>
        <time>2017-01-29T10:03:47.000Z</time>
      </trkpt>
      <trkpt lat="44.49491" lon="0.66725">
        <ele>212.2</ele>
        <time>2017-01-29T10:03:48.000Z</time>
      </trkpt>
      <trkpt lat="44.49492" lon="0.66726">
        <ele>212.3</ele>
        <time>2017-01-29T10:03:49.000Z</time>
      </trkpt>
      <trkpt lat="44.49493" lon="0.66727">
        <ele>212.3</ele>
        <time>2017-01-29T10:03:50.000Z</time>
      </trkpt>
      <trkpt lat="44.49495" lon="0.66728">
        <ele>212.4</ele>
        <time>2017-01-29T10:03:51.000Z</time>
      </trkpt>
      <trkpt lat="44.49496" lon="0.66729">
        <ele>212.4</ele>
        <time>2017-01-29T10:03:52.000Z</time>
      </trkpt>
      <trkpt lat="44.49497" lon="0.6673">
        <ele>212.5</ele>
        <time>2017-01-29T10:03:53.000Z</time>
      </trkpt>
      <trkpt lat="44.49499" lon="0.66732">
        <ele>212.5</ele>
        <time>2017-01-29T10:03:54.000Z</time>
      </trkpt>
      <trkpt lat="44.495" lon="0.66733">
        <ele>212.6</ele>
        <time>2017-01-29T10:03:55.000Z</time>
      </trkpt>
      <trkpt lat="44.49502" lon="0.66734">
        <ele>212.6</ele>
        <time>2017-01-29T10:03:56.000Z</time>
      </trkpt>
      <trkpt lat="44.49503" lon="0.66736">
        <ele>212.6</ele>
        <time>2017-01-29T10:03:57.000Z</time>
      </trkpt>
      <trkpt lat="44.49505" lon="0.66737">
        <ele>212.6</ele>
        <time>2017-01-29T10:03:58.000Z</time>
      </trkpt>
      <trkpt lat="44.49506" lon="0.66738">
        <ele>212.6</ele>
        <time>2017-01-29T10:03:59.000Z</time>
      </trkpt>
      <trkpt lat="44.49508" lon="0.66739">
        <ele>212.6</ele>
        <time>2017-01-29T10:04:00.000Z</time>
      </trkpt>
      <trkpt lat="44.49509" lon="0.66741">
        <ele>212.6</ele>
        <time>2017-01-29T10:04:01.000Z</time>
      </trkpt>
      <trkpt lat="44.49511" lon="0.66742">
        <ele>212.6</ele>
        <time>2017-01-29T10:04:02.000Z</time>
      </trkpt>
      <trkpt lat="44.49513" lon="0.66743">
        <ele>212.6</ele>
        <time>2017-01-29T10:04:03.000Z</time>
      </trkpt>
      <trkpt lat="44.49515" lon="0.66745">
        <ele>212.5</ele>
        <time>2017-01-29T10:04:04.000Z</time>
      </trkpt>
      <trkpt lat="44.49517" lon="0.66746">
        <ele>212.5</ele>
        <time>2017-01-29T10:04:05.000Z</time>
      </trkpt>
      <trkpt lat="44.49519" lon="0.66747">
        <ele>212.5</ele>
        <time>2017-01-29T10:04:06.000Z</time>
      </trkpt>
      <trkpt lat="44.49522" lon="0.66749">
        <ele>212.5</ele>
        <time>2017-01-29T10:04:07.000Z</time>
      </trkpt>
      <trkpt lat="44.49524" lon="0.6675">
        <ele>212.4</ele>
        <time>2017-01-29T10:04:08.000Z</time>
      </trkpt>
      <trkpt lat="44.49527" lon="0.66752">
        <ele>212.3</ele>
        <time>2017-01-29T10:04:09.000Z</time>
      </trkpt>
      <trkpt lat="44.49529" lon="0.66753">
        <ele>212.1</ele>
        <time>2017-01-29T10:04:10.000Z</time>
      </trkpt>
      <trkpt lat="44.49532" lon="0.66754">
        <ele>211.9</ele>
        <time>2017-01-29T10:04:11.000Z</time>
      </trkpt>
      <trkpt lat="44.49534" lon="0.66756">
        <ele>211.8</ele>
        <time>2017-01-29T10:04:12.000Z</time>
      </trkpt>
      <trkpt lat="44.49537" lon="0.66757">
        <ele>211.6</ele>
        <time>2017-01-29T10:04:13.000Z</time>
      </trkpt>
      <trkpt lat="44.49539" lon="0.66758">
        <ele>211.5</ele>
        <time>2017-01-29T10:04:14.000Z</time>
      </trkpt>
      <trkpt lat="44.49542" lon="0.6676">
        <ele>211.3</ele>
        <time>2017-01-29T10:04:15.000Z</time>
      </trkpt>
      <trkpt lat="44.49545" lon="0.66761">
        <ele>211.1</ele>
        <time>2017-01-29T10:04:16.000Z</time>
      </trkpt>
      <trkpt lat="44.49548" lon="0.66763">
        <ele>210.9</ele>
        <time>2017-01-29T10:04:17.000Z</time>
      </trkpt>
      <trkpt lat="44.49551" lon="0.66764">
        <ele>210.7</ele>
        <time>2017-01-29T10:04:18.000Z</time>
      </trkpt>
      <trkpt lat="44.49554" lon="0.66766">
        <ele>210.5</ele>
        <time>2017-01-29T10:04:19.000Z</time>
      </trkpt>
      <trkpt lat="44.49558" lon="0.66767">
        <ele>210.3</ele>
        <time>2017-01-29T10:04:20.000Z</time>
      </trkpt>
      <trkpt lat="44.49561" lon="0.66767">
        <ele>210.2</ele>
        <time>2017-01-29T10:04:21.000Z</time>
      </trkpt>
      <trkpt lat="44.49565" lon="0.66766">
        <ele>210.2</ele>
        <time>2017-01-29T10:04:22.000Z</time>
      </trkpt>
      <trkpt lat="44.49567" lon="0.66764">
        <ele>210.3</ele>
        <time>2017-01-29T10:04:23.000Z</time>
      </trkpt>
      <trkpt lat="44.49569" lon="0.66761">
        <ele>210.5</ele>
        <time>2017-01-29T10:04:24.000Z</time>
      </trkpt>
      <trkpt lat="44.49571" lon="0.66758">
        <ele>210.7</ele>
        <time>2017-01-29T10:04:25.000Z</time>
      </trkpt>
      <trkpt lat="44.49572" lon="0.66754">
        <ele>210.9</ele>
        <time>2017-01-29T10:04:26.000Z</time>
      </trkpt>
      <trkpt lat="44.49573" lon="0.66751">
        <ele>211.2</ele>
        <time>2017-01-29T10:04:27.000Z</time>
      </trkpt>
      <trkpt lat="44.49573" lon="0.66747">
        <ele>211.2</ele>
        <time>2017-01-29T10:04:28.000Z</time>
      </trkpt>
      <trkpt lat="44.49574" lon="0.66744">
        <ele>211.2</ele>
        <time>2017-01-29T10:04:29.000Z</time>
      </trkpt>
      <trkpt lat="44.49575" lon="0.66741">
        <ele>211.2</ele>
        <time>2017-01-29T10:04:30.000Z</time>
      </trkpt>
      <trkpt lat="44.49575" lon="0.66738">
        <ele>211.2</ele>
        <time>2017-01-29T10:04:31.000Z</time>
      </trkpt>
      <trkpt lat="44.49576" lon="0.66734">
        <ele>211.1</ele>
        <time>2017-01-29T10:04:32.000Z</time>
      </trkpt>
      <trkpt lat="44.49576" lon="0.66731">
        <ele>211.1</ele>
        <time>2017-01-29T10:04:33.000Z</time>
      </trkpt>
      <trkpt lat="44.49577" lon="0.66728">
        <ele>211.1</ele>
        <time>2017-01-29T10:04:34.000Z</time>
      </trkpt>
      <trkpt lat="44.49577" lon="0.66725">
        <ele>211.1</ele>
        <time>2017-01-29T10:04:35.000Z</time>
      </trkpt>
      <trkpt lat="44.49578" lon="0.66721">
        <ele>211.1</ele>
        <time>2017-01-29T10:04:36.000Z</time>
      </trkpt>
      <trkpt lat="44.49578" lon="0.66718">
        <ele>211.1</ele>
        <time>2017-01-29T10:04:37.000Z</time>
      </trkpt>
      <trkpt lat="44.49579" lon="0.66715">
        <ele>211.1</ele>
        <time>2017-01-29T10:04:38.000Z</time>
      </trkpt>
      <trkpt lat="44.49579" lon="0.66711">
        <ele>211.1</ele>
        <time>2017-01-29T10:04:39.000Z</time>
      </trkpt>
      <trkpt lat="44.4958" lon="0.66708">
        <ele>211</ele>
        <time>2017-01-29T10:04:40.000Z</time>
      </trkpt>
      <trkpt lat="44.4958" lon="0.66704">
        <ele>211</ele>
        <time>2017-01-29T10:04:41.000Z</time>
      </trkpt>
      <trkpt lat="44.49581" lon="0.66701">
        <ele>211</ele>
        <time>2017-01-29T10:04:42.000Z</time>
      </trkpt>
      <trkpt lat="44.49581" lon="0.66697">
        <ele>211</ele>
        <time>2017-01-29T10:04:43.000Z</time>
      </trkpt>
      <trkpt lat="44.49582" lon="0.66694">
        <ele>211</ele>
        <time>2017-01-29T10:04:44.000Z</time>
      </trkpt>
      <trkpt lat="44.49582" lon="0.66691">
        <ele>211</ele>
        <time>2017-01-29T10:04:45.000Z</time>
      </trkpt>
      <trkpt lat="44.49583" lon="0.66689">
        <ele>211</ele>
        <time>2017-01-29T10:04:46.000Z</time>
      </trkpt>
      <trkpt lat="44.49583" lon="0.66686">
        <ele>211</ele>
        <time>2017-01-29T10:04:47.000Z</time>
      </trkpt>
      <trkpt lat="44.49584" lon="0.66684">
        <ele>211</ele>
        <time>2017-01-29T10:04:48.000Z</time>
      </trkpt>
      <trkpt lat="44.49584" lon="0.66681">
        <ele>211</ele>
        <time>2017-01-29T10:04:49.000Z</time>
      </trkpt>
      <trkpt lat="44.49585" lon="0.66679">
        <ele>211</ele>
        <time>2017-01-29T10:04:50.000Z</time>
      </trkpt>
      <trkpt lat="44.49586" lon="0.66676">
        <ele>211</ele>
        <time>2017-01-29T10:04:51.000Z</time>
      </trkpt>
      <trkpt lat="44.49586" lon="0.66674">
        <ele>211</ele>
        <time>2017-01-29T10:04:52.000Z</time>
      </trkpt>
      <trkpt lat="44.49587" lon="0.66672">
        <ele>211</ele>
        <time>2017-01-29T10:04:53.000Z</time>
      </trkpt>
      <trkpt lat="44.49588" lon="0.66669">
        <ele>211</ele>
        <time>2017-01-29T10:04:54.000Z</time>
      </trkpt>
      <trkpt lat="44.49589" lon="0.66667">
        <ele>211</ele>
        <time>2017-01-29T10:04:55.000Z</time>
      </trkpt>
      <trkpt lat="44.4959" lon="0.66665">
        <ele>210.8</ele>
        <time>2017-01-29T10:04:56.000Z</time>
      </trkpt>
      <trkpt lat="44.49591" lon="0.66663">
        <ele>210.6</ele>
        <time>2017-01-29T10:04:57.000Z</time>
      </trkpt>
      <trkpt lat="44.49592" lon="0.66661">
        <ele>210.3</ele>
        <time>2017-01-29T10:04:58.000Z</time>
      </trkpt>
      <trkpt lat="44.49593" lon="0.66659">
        <ele>210.1</ele>
        <time>2017-01-29T10:04:59.000Z</time>
      </trkpt>
      <trkpt lat="44.49594" lon="0.66656">
        <ele>209.9</ele>
        <time>2017-01-29T10:05:00.000Z</time>
      </trkpt>
      <trkpt lat="44.49596" lon="0.66655">
        <ele>209.7</ele>
        <time>2017-01-29T10:05:01.000Z</time>
      </trkpt>
      <trkpt lat="44.49597" lon="0.66653">
        <ele>209.5</ele>
        <time>2017-01-29T10:05:02.000Z</time>
      </trkpt>
      <trkpt lat="44.49599" lon="0.66651">
        <ele>209.3</ele>
        <time>2017-01-29T10:05:03.000Z</time>
      </trkpt>
      <trkpt lat="44.496" lon="0.66649">
        <ele>209.1</ele>
        <time>2017-01-29T10:05:04.000Z</time>
      </trkpt>
      <trkpt lat="44.49602" lon="0.66647">
        <ele>208.9</ele>
        <time>2017-01-29T10:05:05.000Z</time>
      </trkpt>
      <trkpt lat="44.49604" lon="0.66646">
        <ele>208.7</ele>
        <time>2017-01-29T10:05:06.000Z</time>
      </trkpt>
      <trkpt lat="44.49606" lon="0.66644">
        <ele>208.6</ele>
        <time>2017-01-29T10:05:07.000Z</time>
      </trkpt>
      <trkpt lat="44.49608" lon="0.66643">
        <ele>208.4</ele>
        <time>2017-01-29T10:05:08.000Z</time>
      </trkpt>
      <trkpt lat="44.4961" lon="0.66642">
        <ele>208.3</ele>
        <time>2017-01-29T10:05:09.000Z</time>
      </trkpt>
      <trkpt lat="44.49612" lon="0.66641">
        <ele>208.2</ele>
        <time>2017-01-29T10:05:10.000Z</time>
      </trkpt>
      <trkpt lat="44.49614" lon="0.6664">
        <ele>208.1</ele>
        <time>2017-01-29T10:05:11.000Z</time>
      </trkpt>
      <trkpt lat="44.49616" lon="0.66639">
        <ele>208</ele>
        <time>2017-01-29T10:05:12.000Z</time>
      </trkpt>
      <trkpt lat="44.49618" lon="0.66637">
        <ele>207.8</ele>
        <time>2017-01-29T10:05:13.000Z</time>
      </trkpt>
      <trkpt lat="44.4962" lon="0.66636">
        <ele>207.6</ele>
        <time>2017-01-29T10:05:14.000Z</time>
      </trkpt>
      <trkpt lat="44.49621" lon="0.66633">
        <ele>207.4</ele>
        <time>2017-01-29T10:05:15.000Z</time>
      </trkpt>
      <trkpt lat="44.49622" lon="0.6663">
        <ele>207.1</ele>
        <time>2017-01-29T10:05:16.000Z</time>
      </trkpt>
      <trkpt lat="44.49623" lon="0.66627">
        <ele>206.7</ele>
        <time>2017-01-29T10:05:17.000Z</time>
      </trkpt>
      <trkpt lat="44.49622" lon="0.66623">
        <ele>206.3</ele>
        <time>2017-01-29T10:05:18.000Z</time>
      </trkpt>
      <trkpt lat="44.49622" lon="0.66619">
        <ele>205.8</ele>
        <time>2017-01-29T10:05:19.000Z</time>
      </trkpt>
      <trkpt lat="44.49621" lon="0.66615">
        <ele>205.4</ele>
        <time>2017-01-29T10:05:20.000Z</time>
      </trkpt>
      <trkpt lat="44.4962" lon="0.66611">
        <ele>205</ele>
        <time>2017-01-29T10:05:21.000Z</time>
      </trkpt>
      <trkpt lat="44.49619" lon="0.66608">
        <ele>204.6</ele>
        <time>2017-01-29T10:05:22.000Z</time>
      </trkpt>
      <trkpt lat="44.4962" lon="0.66604">
        <ele>204.3</ele>
        <time>2017-01-29T10:05:23.000Z</time>
      </trkpt>
      <trkpt lat="44.4962" lon="0.666">
        <ele>203.8</ele>
        <time>2017-01-29T10:05:24.000Z</time>
      </trkpt>
      <trkpt lat="44.4962" lon="0.66595">
        <ele>203.3</ele>
        <time>2017-01-29T10:05:25.000Z</time>
      </trkpt>
      <trkpt lat="44.49619" lon="0.6659">
        <ele>202.7</ele>
        <time>2017-01-29T10:05:26.000Z</time>
      </trkpt>
      <trkpt lat="44.49618" lon="0.66586">
        <ele>202.3</ele>
        <time>2017-01-29T10:05:27.000Z</time>
      </trkpt>
      <trkpt lat="44.49615" lon="0.66582">
        <ele>201.7</ele>
        <time>2017-01-29T10:05:28.000Z</time>
      </trkpt>
      <trkpt lat="44.49613" lon="0.66579">
        <ele>201.1</ele>
        <time>2017-01-29T10:05:29.000Z</time>
      </trkpt>
      <trkpt lat="44.49611" lon="0.66578">
        <ele>200.9</ele>
        <time>2017-01-29T10:05:30.000Z</time>
      </trkpt>
      <trkpt lat="44.49609" lon="0.66579">
        <ele>201.1</ele>
        <time>2017-01-29T10:05:31.000Z</time>
      </trkpt>
      <trkpt lat="44.49606" lon="0.66581">
        <ele>201.5</ele>
        <time>2017-01-29T10:05:32.000Z</time>
      </trkpt>
      <trkpt lat="44.49602" lon="0.66583">
        <ele>201.9</ele>
        <time>2017-01-29T10:05:33.000Z</time>
      </trkpt>
      <trkpt lat="44.49598" lon="0.66584">
        <ele>202.1</ele>
        <time>2017-01-29T10:05:34.000Z</time>
      </trkpt>
      <trkpt lat="44.49593" lon="0.66585">
        <ele>202.2</ele>
        <time>2017-01-29T10:05:35.000Z</time>
      </trkpt>
      <trkpt lat="44.49587" lon="0.66587">
        <ele>202.3</ele>
        <time>2017-01-29T10:05:36.000Z</time>
      </trkpt>
      <trkpt lat="44.4958" lon="0.66589">
        <ele>202.2</ele>
        <time>2017-01-29T10:05:37.000Z</time>
      </trkpt>
      <trkpt lat="44.49573" lon="0.66591">
        <ele>201.8</ele>
        <time>2017-01-29T10:05:38.000Z</time>
      </trkpt>
      <trkpt lat="44.49566" lon="0.66592">
        <ele>201.3</ele>
        <time>2017-01-29T10:05:39.000Z</time>
      </trkpt>
      <trkpt lat="44.49561" lon="0.66592">
        <ele>200.7</ele>
        <time>2017-01-29T10:05:40.000Z</time>
      </trkpt>
      <trkpt lat="44.49556" lon="0.6659">
        <ele>200</ele>
        <time>2017-01-29T10:05:41.000Z</time>
      </trkpt>
      <trkpt lat="44.49553" lon="0.66588">
        <ele>199.4</ele>
        <time>2017-01-29T10:05:42.000Z</time>
      </trkpt>
      <trkpt lat="44.4955" lon="0.66588">
        <ele>199</ele>
        <time>2017-01-29T10:05:43.000Z</time>
      </trkpt>
      <trkpt lat="44.49547" lon="0.66588">
        <ele>198.8</ele>
        <time>2017-01-29T10:05:44.000Z</time>
      </trkpt>
      <trkpt lat="44.49544" lon="0.6659">
        <ele>198.8</ele>
        <time>2017-01-29T10:05:45.000Z</time>
      </trkpt>
      <trkpt lat="44.49541" lon="0.66592">
        <ele>198.8</ele>
        <time>2017-01-29T10:05:46.000Z</time>
      </trkpt>
      <trkpt lat="44.49539" lon="0.66594">
        <ele>198.9</ele>
        <time>2017-01-29T10:05:47.000Z</time>
      </trkpt>
      <trkpt lat="44.49537" lon="0.66597">
        <ele>199.2</ele>
        <time>2017-01-29T10:05:48.000Z</time>
      </trkpt>
      <trkpt lat="44.49535" lon="0.666">
        <ele>199.5</ele>
        <time>2017-01-29T10:05:49.000Z</time>
      </trkpt>
      <trkpt lat="44.49534" lon="0.66603">
        <ele>200</ele>
        <time>2017-01-29T10:05:50.000Z</time>
      </trkpt>
      <trkpt lat="44.49533" lon="0.66606">
        <ele>200.4</ele>
        <time>2017-01-29T10:05:51.000Z</time>
      </trkpt>
      <trkpt lat="44.49533" lon="0.66608">
        <ele>200.9</ele>
        <time>2017-01-29T10:05:52.000Z</time>
      </trkpt>
      <trkpt lat="44.49533" lon="0.6661">
        <ele>201.3</ele>
        <time>2017-01-29T10:05:53.000Z</time>
      </trkpt>
      <trkpt lat="44.49534" lon="0.66612">
        <ele>201.5</ele>
        <time>2017-01-29T10:05:54.000Z</time>
      </trkpt>
      <trkpt lat="44.49535" lon="0.66612">
        <ele>201.7</ele>
        <time>2017-01-29T10:05:55.000Z</time>
      </trkpt>
      <trkpt lat="44.49535" lon="0.66613">
        <ele>201.8</ele>
        <time>2017-01-29T10:05:56.000Z</time>
      </trkpt>
      <trkpt lat="44.49536" lon="0.66613">
        <ele>201.8</ele>
        <time>2017-01-29T10:05:57.000Z</time>
      </trkpt>
      <trkpt lat="44.49536" lon="0.66612">
        <ele>201.8</ele>
        <time>2017-01-29T10:05:58.000Z</time>
      </trkpt>
      <trkpt lat="44.49537" lon="0.66611">
        <ele>201.6</ele>
        <time>2017-01-29T10:05:59.000Z</time>
      </trkpt>
      <trkpt lat="44.49537" lon="0.66609">
        <ele>201.4</ele>
        <time>2017-01-29T10:06:00.000Z</time>
      </trkpt>
      <trkpt lat="44.49538" lon="0.66607">
        <ele>201</ele>
        <time>2017-01-29T10:06:01.000Z</time>
      </trkpt>
      <trkpt lat="44.49538" lon="0.66605">
        <ele>200.7</ele>
        <time>2017-01-29T10:06:02.000Z</time>
      </trkpt>
      <trkpt lat="44.49539" lon="0.66602">
        <ele>200.3</ele>
        <time>2017-01-29T10:06:03.000Z</time>
      </trkpt>
      <trkpt lat="44.4954" lon="0.666">
        <ele>200</ele>
        <time>2017-01-29T10:06:04.000Z</time>
      </trkpt>
      <trkpt lat="44.49541" lon="0.66597">
        <ele>199.7</ele>
        <time>2017-01-29T10:06:05.000Z</time>
      </trkpt>
      <trkpt lat="44.49543" lon="0.66595">
        <ele>199.5</ele>
        <time>2017-01-29T10:06:06.000Z</time>
      </trkpt>
      <trkpt lat="44.49545" lon="0.66593">
        <ele>199.3</ele>
        <time>2017-01-29T10:06:07.000Z</time>
      </trkpt>
      <trkpt lat="44.49546" lon="0.6659">
        <ele>199.1</ele>
        <time>2017-01-29T10:06:08.000Z</time>
      </trkpt>
      <trkpt lat="44.49548" lon="0.66588">
        <ele>198.9</ele>
        <time>2017-01-29T10:06:09.000Z</time>
      </trkpt>
      <trkpt lat="44.4955" lon="0.66587">
        <ele>198.9</ele>
        <time>2017-01-29T10:06:10.000Z</time>
      </trkpt>
      <trkpt lat="44.49553" lon="0.66586">
        <ele>199.1</ele>
        <time>2017-01-29T10:06:11.000Z</time>
      </trkpt>
      <trkpt lat="44.49556" lon="0.66586">
        <ele>199.3</ele>
        <time>2017-01-29T10:06:12.000Z</time>
      </trkpt>
      <trkpt lat="44.49558" lon="0.66585">
        <ele>199.6</ele>
        <time>2017-01-29T10:06:13.000Z</time>
      </trkpt>
      <trkpt lat="44.4956" lon="0.66586">
        <ele>199.8</ele>
        <time>2017-01-29T10:06:14.000Z</time>
      </trkpt>
      <trkpt lat="44.49561" lon="0.66586">
        <ele>199.9</ele>
        <time>2017-01-29T10:06:15.000Z</time>
      </trkpt>
      <trkpt lat="44.49562" lon="0.66586">
        <ele>200</ele>
        <time>2017-01-29T10:06:16.000Z</time>
      </trkpt>
      <trkpt lat="44.49562" lon="0.66586">
        <ele>200</ele>
        <time>2017-01-29T10:06:17.000Z</time>
      </trkpt>
      <trkpt lat="44.49562" lon="0.66586">
        <ele>200</ele>
        <time>2017-01-29T10:06:18.000Z</time>
      </trkpt>
      <trkpt lat="44.49562" lon="0.66586">
        <ele>200</ele>
        <time>2017-01-29T10:06:19.000Z</time>
      </trkpt>
      <trkpt lat="44.49562" lon="0.66586">
        <ele>200</ele>
        <time>2017-01-29T10:06:20.000Z</time>
      </trkpt>
      <trkpt lat="44.49562" lon="0.66586">
        <ele>200</ele>
        <time>2017-01-29T10:06:21.000Z</time>
      </trkpt>
      <trkpt lat="44.49562" lon="0.66586">
        <ele>200</ele>
        <time>2017-01-29T10:06:22.000Z</time>
      </trkpt>
      <trkpt lat="44.49562" lon="0.66586">
        <ele>200</ele>
        <time>2017-01-29T10:06:23.000Z</time>
      </trkpt>
      <trkpt lat="44.49562" lon="0.66586">
        <ele>200</ele>
        <time>2017-01-29T10:06:24.000Z</time>
      </trkpt>
      <trkpt lat="44.49562" lon="0.66586">
        <ele>200</ele>
        <time>2017-01-29T10:06:25.000Z</time>
      </trkpt>
      <trkpt lat="44.49562" lon="0.66586">
        <ele>200</ele>
        <time>2017-01-29T10:06:26.000Z</time>
      </trkpt>
      <trkpt lat="44.49562" lon="0.66586">
        <ele>200</ele>
        <time>2017-01-29T10:06:27.000Z</time>
      </trkpt>
      <trkpt lat="44.49562" lon="0.66586">
        <ele>200</ele>
        <time>2017-01-29T10:06:28.000Z</time>
      </trkpt>
      <trkpt lat="44.49562" lon="0.66586">
        <ele>200</ele>
        <time>2017-01-29T10:06:29.000Z</time>
      </trkpt>
      <trkpt lat="44.49562" lon="0.66586">
        <ele>200</ele>
        <time>2017-01-29T10:06:30.000Z</time>
      </trkpt>
      <trkpt lat="44.49562" lon="0.66586">
        <ele>200</ele>
        <time>2017-01-29T10:06:31.000Z</time>
      </trkpt>
      <trkpt lat="44.49562" lon="0.66586">
        <ele>200</ele>
        <time>2017-01-29T10:06:32.000Z</time>
      </trkpt>
      <trkpt lat="44.49562" lon="0.66586">
        <ele>200</ele>
        <time>2017-01-29T10:06:33.000Z</time>
      </trkpt>
      <trkpt lat="44.49562" lon="0.66586">
        <ele>200</ele>
        <time>2017-01-29T10:06:34.000Z</time>
      </trkpt>
      <trkpt lat="44.49562" lon="0.66586">
        <ele>200</ele>
        <time>2017-01-29T10:06:35.000Z</time>
      </trkpt>
      <trkpt lat="44.49562" lon="0.66586">
        <ele>200</ele>
        <time>2017-01-29T10:06:36.000Z</time>
      </trkpt>
      <trkpt lat="44.49562" lon="0.66586">
        <ele>200</ele>
        <time>2017-01-29T10:06:37.000Z</time>
      </trkpt>
      <trkpt lat="44.49562" lon="0.66586">
        <ele>200</ele>
        <time>2017-01-29T10:06:38.000Z</time>
      </trkpt>
      <trkpt lat="44.49562" lon="0.66586">
        <ele>200</ele>
        <time>2017-01-29T10:06:39.000Z</time>
      </trkpt>
      <trkpt lat="44.49562" lon="0.66586">
        <ele>200</ele>
        <time>2017-01-29T10:06:40.000Z</time>
      </trkpt>
      <trkpt lat="44.49562" lon="0.66586">
        <ele>200</ele>
        <time>2017-01-29T10:06:41.000Z</time>
      </trkpt>
      <trkpt lat="44.49562" lon="0.66586">
        <ele>200</ele>
        <time>2017-01-29T10:06:42.000Z</time>
      </trkpt>
      <trkpt lat="44.49562" lon="0.66586">
        <ele>200</ele>
        <time>2017-01-29T10:06:43.000Z</time>
      </trkpt>
      <trkpt lat="44.49562" lon="0.66586">
        <ele>200</ele>
        <time>2017-01-29T10:06:44.000Z</time>
      </trkpt>
      <trkpt lat="44.49562" lon="0.66586">
        <ele>200</ele>
        <time>2017-01-29T10:06:45.000Z</time>
      </trkpt>
      <trkpt lat="44.49562" lon="0.66586">
        <ele>200</ele>
        <time>2017-01-29T10:06:46.000Z</time>
      </trkpt>
      <trkpt lat="44.49562" lon="0.66586">
        <ele>200</ele>
        <time>2017-01-29T10:06:47.000Z</time>
      </trkpt>
      <trkpt lat="44.49562" lon="0.66586">
        <ele>200</ele>
        <time>2017-01-29T10:06:48.000Z</time>
      </trkpt>
      <trkpt lat="44.49562" lon="0.66586">
        <ele>200</ele>
        <time>2017-01-29T10:06:49.000Z</time>
      </trkpt>
      <trkpt lat="44.49562" lon="0.66586">
        <ele>200</ele>
        <time>2017-01-29T10:06:50.000Z</time>
      </trkpt>
      <trkpt lat="44.49562" lon="0.66586">
        <ele>200</ele>
        <time>2017-01-29T10:06:51.000Z</time>
      </trkpt>
      <trkpt lat="44.49562" lon="0.66586">
        <ele>200</ele>
        <time>2017-01-29T10:06:52.000Z</time>
      </trkpt>
      <trkpt lat="44.49562" lon="0.66586">
        <ele>200</ele>
        <time>2017-01-29T10:06:53.000Z</time>
      </trkpt>
      <trkpt lat="44.49562" lon="0.66586">
        <ele>200</ele>
        <time>2017-01-29T10:06:54.000Z</time>
      </trkpt>
      <trkpt lat="44.49562" lon="0.66586">
        <ele>200</ele>
        <time>2017-01-29T10:06:55.000Z</time>
      </trkpt>
      <trkpt lat="44.49562" lon="0.66586">
        <ele>200</ele>
        <time>2017-01-29T10:06:56.000Z</time>
      </trkpt>
      <trkpt lat="44.49562" lon="0.66586">
        <ele>200</ele>
        <time>2017-01-29T10:06:57.000Z</time>
      </trkpt>
      <trkpt lat="44.49562" lon="0.66586">
        <ele>200</ele>
        <time>2017-01-29T10:06:58.000Z</time>
      </trkpt>
      <trkpt lat="44.49562" lon="0.66586">
        <ele>200</ele>
        <time>2017-01-29T10:06:59.000Z</time>
      </trkpt>
      <trkpt lat="44.49562" lon="0.66586">
        <ele>200</ele>
        <time>2017-01-29T10:07:00.000Z</time>
      </trkpt>
      <trkpt lat="44.49562" lon="0.66586">
        <ele>200</ele>
        <time>2017-01-29T10:07:01.000Z</time>
      </trkpt>
      <trkpt lat="44.49562" lon="0.66586">
        <ele>200</ele>
        <time>2017-01-29T10:07:02.000Z</time>
      </trkpt>
      <trkpt lat="44.49562" lon="0.66586">
        <ele>200</ele>
        <time>2017-01-29T10:07:03.000Z</time>
      </trkpt>
      <trkpt lat="44.49562" lon="0.66586">
        <ele>200</ele>
        <time>2017-01-29T10:07:04.000Z</time>
      </trkpt>
      <trkpt lat="44.49562" lon="0.66586">
        <ele>200</ele>
        <time>2017-01-29T10:07:05.000Z</time>
      </trkpt>
      <trkpt lat="44.49562" lon="0.66586">
        <ele>200</ele>
        <time>2017-01-29T10:07:06.000Z</time>
      </trkpt>
      <trkpt lat="44.49562" lon="0.66586">
        <ele>200</ele>
        <time>2017-01-29T10:07:07.000Z</time>
      </trkpt>
      <trkpt lat="44.49562" lon="0.66586">
        <ele>200</ele>
        <time>2017-01-29T10:07:08.000Z</time>
      </trkpt>
      <trkpt lat="44.49562" lon="0.66586">
        <ele>200</ele>
        <time>2017-01-29T10:07:09.000Z</time>
      </trkpt>
      <trkpt lat="44.49562" lon="0.66586">
        <ele>200</ele>
        <time>2017-01-29T10:07:10.000Z</time>
      </trkpt>
      <trkpt lat="44.49562" lon="0.66586">
        <ele>200</ele>
        <time>2017-01-29T10:07:11.000Z</time>
      </trkpt>
      <trkpt lat="44.49562" lon="0.66586">
        <ele>200</ele>
        <time>2017-01-29T10:07:12.000Z</time>
      </trkpt>
      <trkpt lat="44.49562" lon="0.66586">
        <ele>200</ele>
        <time>2017-01-29T10:07:13.000Z</time>
      </trkpt>
      <trkpt lat="44.49562" lon="0.66586">
        <ele>200</ele>
        <time>2017-01-29T10:07:14.000Z</time>
      </trkpt>
      <trkpt lat="44.49562" lon="0.66586">
        <ele>200</ele>
        <time>2017-01-29T10:07:15.000Z</time>
      </trkpt>
      <trkpt lat="44.49562" lon="0.66586">
        <ele>200</ele>
        <time>2017-01-29T10:07:16.000Z</time>
      </trkpt>
      <trkpt lat="44.49562" lon="0.66586">
        <ele>200</ele>
        <time>2017-01-29T10:07:17.000Z</time>
      </trkpt>
      <trkpt lat="44.49562" lon="0.66586">
        <ele>200</ele>
        <time>2017-01-29T10:07:18.000Z</time>
      </trkpt>
      <trkpt lat="44.49562" lon="0.66586">
        <ele>200</ele>
        <time>2017-01-29T10:07:19.000Z</time>
      </trkpt>
      <trkpt lat="44.49562" lon="0.66586">
        <ele>200</ele>
        <time>2017-01-29T10:07:20.000Z</time>
      </trkpt>
      <trkpt lat="44.49562" lon="0.66586">
        <ele>200</ele>
        <time>2017-01-29T10:07:21.000Z</time>
      </trkpt>
      <trkpt lat="44.49562" lon="0.66586">
        <ele>200</ele>
        <time>2017-01-29T10:07:22.000Z</time>
      </trkpt>
      <trkpt lat="44.49562" lon="0.66586">
        <ele>200</ele>
        <time>2017-01-29T10:07:23.000Z</time>
      </trkpt>
      <trkpt lat="44.49562" lon="0.66586">
        <ele>200</ele>
        <time>2017-01-29T10:07:24.000Z</time>
      </trkpt>
      <trkpt lat="44.49562" lon="0.66586">
        <ele>200</ele>
        <time>2017-01-29T10:07:25.000Z</time>
      </trkpt>
      <trkpt lat="44.49562" lon="0.66586">
        <ele>200</ele>
        <time>2017-01-29T10:07:26.000Z</time>
      </trkpt>
      <trkpt lat="44.49562" lon="0.66586">
        <ele>200</ele>
        <time>2017-01-29T10:07:27.000Z</time>
      </trkpt>
      <trkpt lat="44.49562" lon="0.66586">
        <ele>200</ele>
        <time>2017-01-29T10:07:28.000Z</time>
      </trkpt>
      <trkpt lat="44.49562" lon="0.66586">
        <ele>200</ele>
        <time>2017-01-29T10:07:29.000Z</time>
      </trkpt>
      <trkpt lat="44.49562" lon="0.66586">
        <ele>200</ele>
        <time>2017-01-29T10:07:30.000Z</time>
      </trkpt>
      <trkpt lat="44.49562" lon="0.66586">
        <ele>200</ele>
        <time>2017-01-29T10:07:31.000Z</time>
      </trkpt>
      <trkpt lat="44.49562" lon="0.66586">
        <ele>200</ele>
        <time>2017-01-29T10:07:32.000Z</time>
      </trkpt>
      <trkpt lat="44.49562" lon="0.66586">
        <ele>200</ele>
        <time>2017-01-29T10:07:33.000Z</time>
      </trkpt>
      <trkpt lat="44.49562" lon="0.66586">
        <ele>200</ele>
        <time>2017-01-29T10:07:34.000Z</time>
      </trkpt>
      <trkpt lat="44.49562" lon="0.66586">
        <ele>200</ele>
        <time>2017-01-29T10:07:35.000Z</time>
      </trkpt>
      <trkpt lat="44.49562" lon="0.66586">
        <ele>200</ele>
        <time>2017-01-29T10:07:36.000Z</time>
      </trkpt>
      <trkpt lat="44.49562" lon="0.66586">
        <ele>200</ele>
        <time>2017-01-29T10:07:37.000Z</time>
      </trkpt>
      <trkpt lat="44.49562" lon="0.66586">
        <ele>200</ele>
        <time>2017-01-29T10:07:38.000Z</time>
      </trkpt>
      <trkpt lat="44.49562" lon="0.66586">
        <ele>200</ele>
        <time>2017-01-29T10:07:39.000Z</time>
      </trkpt>
      <trkpt lat="44.49562" lon="0.66586">
        <ele>200</ele>
        <time>2017-01-29T10:07:40.000Z</time>
      </trkpt>
      <trkpt lat="44.49562" lon="0.66586">
        <ele>200</ele>
        <time>2017-01-29T10:07:41.000Z</time>
      </trkpt>
      <trkpt lat="44.49562" lon="0.66586">
        <ele>200</ele>
        <time>2017-01-29T10:07:42.000Z</time>
      </trkpt>
      <trkpt lat="44.49562" lon="0.66586">
        <ele>200</ele>
        <time>2017-01-29T10:07:43.000Z</time>
      </trkpt>
      <trkpt lat="44.49562" lon="0.66586">
        <ele>200</ele>
        <time>2017-01-29T10:07:44.000Z</time>
      </trkpt>
      <trkpt lat="44.49562" lon="0.66586">
        <ele>200</ele>
        <time>2017-01-29T10:07:45.000Z</time>
      </trkpt>
      <trkpt lat="44.49562" lon="0.66586">
        <ele>200</ele>
        <time>2017-01-29T10:07:46.000Z</time>
      </trkpt>
      <trkpt lat="44.49562" lon="0.66586">
        <ele>200</ele>
        <time>2017-01-29T10:07:47.000Z</time>
      </trkpt>
      <trkpt lat="44.49562" lon="0.66586">
        <ele>200</ele>
        <time>2017-01-29T10:07:48.000Z</time>
      </trkpt>
      <trkpt lat="44.49562" lon="0.66586">
        <ele>200</ele>
        <time>2017-01-29T10:07:49.000Z</time>
      </trkpt>
      <trkpt lat="44.49562" lon="0.66586">
        <ele>200</ele>
        <time>2017-01-29T10:07:50.000Z</time>
      </trkpt>
      <trkpt lat="44.49562" lon="0.66586">
        <ele>200</ele>
        <time>2017-01-29T10:07:51.000Z</time>
      </trkpt>
      <trkpt lat="44.49562" lon="0.66586">
        <ele>200</ele>
        <time>2017-01-29T10:07:52.000Z</time>
      </trkpt>
      <trkpt lat="44.49563" lon="0.66586">
        <ele>200.1</ele>
        <time>2017-01-29T10:07:53.000Z</time>
      </trkpt>
      <trkpt lat="44.49563" lon="0.66586">
        <ele>200.1</ele>
        <time>2017-01-29T10:07:54.000Z</time>
      </trkpt>
      <trkpt lat="44.49563" lon="0.66586">
        <ele>200.1</ele>
        <time>2017-01-29T10:07:55.000Z</time>
      </trkpt>
      <trkpt lat="44.49563" lon="0.66586">
        <ele>200.1</ele>
        <time>2017-01-29T10:07:56.000Z</time>
      </trkpt>
      <trkpt lat="44.49563" lon="0.66586">
        <ele>200.1</ele>
        <time>2017-01-29T10:07:57.000Z</time>
      </trkpt>
      <trkpt lat="44.49563" lon="0.66586">
        <ele>200.1</ele>
        <time>2017-01-29T10:07:58.000Z</time>
      </trkpt>
      <trkpt lat="44.49563" lon="0.66585">
        <ele>200.1</ele>
        <time>2017-01-29T10:07:59.000Z</time>
      </trkpt>
      <trkpt lat="44.49563" lon="0.66585">
        <ele>200.1</ele>
        <time>2017-01-29T10:08:00.000Z</time>
      </trkpt>
      <trkpt lat="44.49564" lon="0.66584">
        <ele>200.1</ele>
        <time>2017-01-29T10:08:01.000Z</time>
      </trkpt>
      <trkpt lat="44.49565" lon="0.66583">
        <ele>199.9</ele>
        <time>2017-01-29T10:08:02.000Z</time>
      </trkpt>
      <trkpt lat="44.49566" lon="0.6658">
        <ele>199.4</ele>
        <time>2017-01-29T10:08:03.000Z</time>
      </trkpt>
      <trkpt lat="44.49568" lon="0.66577">
        <ele>199.1</ele>
        <time>2017-01-29T10:08:04.000Z</time>
      </trkpt>
      <trkpt lat="44.4957" lon="0.66575">
        <ele>198.9</ele>
        <time>2017-01-29T10:08:05.000Z</time>
      </trkpt>
      <trkpt lat="44.49572" lon="0.66574">
        <ele>198.7</ele>
        <time>2017-01-29T10:08:06.000Z</time>
      </trkpt>
      <trkpt lat="44.49574" lon="0.66572">
        <ele>198.7</ele>
        <time>2017-01-29T10:08:07.000Z</time>
      </trkpt>
      <trkpt lat="44.49576" lon="0.66571">
        <ele>198.7</ele>
        <time>2017-01-29T10:08:08.000Z</time>
      </trkpt>
      <trkpt lat="44.49578" lon="0.66571">
        <ele>198.8</ele>
        <time>2017-01-29T10:08:09.000Z</time>
      </trkpt>
      <trkpt lat="44.4958" lon="0.66571">
        <ele>198.9</ele>
        <time>2017-01-29T10:08:10.000Z</time>
      </trkpt>
      <trkpt lat="44.49582" lon="0.6657">
        <ele>199</ele>
        <time>2017-01-29T10:08:11.000Z</time>
      </trkpt>
      <trkpt lat="44.49584" lon="0.6657">
        <ele>199.2</ele>
        <time>2017-01-29T10:08:12.000Z</time>
      </trkpt>
      <trkpt lat="44.49586" lon="0.6657">
        <ele>199.1</ele>
        <time>2017-01-29T10:08:13.000Z</time>
      </trkpt>
      <trkpt lat="44.49588" lon="0.6657">
        <ele>199</ele>
        <time>2017-01-29T10:08:14.000Z</time>
      </trkpt>
      <trkpt lat="44.4959" lon="0.66569">
        <ele>198.9</ele>
        <time>2017-01-29T10:08:15.000Z</time>
      </trkpt>
      <trkpt lat="44.49591" lon="0.66568">
        <ele>198.7</ele>
        <time>2017-01-29T10:08:16.000Z</time>
      </trkpt>
      <trkpt lat="44.49593" lon="0.66567">
        <ele>198.5</ele>
        <time>2017-01-29T10:08:17.000Z</time>
      </trkpt>
      <trkpt lat="44.49595" lon="0.66566">
        <ele>198.1</ele>
        <time>2017-01-29T10:08:18.000Z</time>
      </trkpt>
      <trkpt lat="44.49597" lon="0.66564">
        <ele>197.7</ele>
        <time>2017-01-29T10:08:19.000Z</time>
      </trkpt>
      <trkpt lat="44.496" lon="0.66562">
        <ele>197.3</ele>
        <time>2017-01-29T10:08:20.000Z</time>
      </trkpt>
      <trkpt lat="44.49602" lon="0.66559">
        <ele>196.7</ele>
        <time>2017-01-29T10:08:21.000Z</time>
      </trkpt>
      <trkpt lat="44.49604" lon="0.66557">
        <ele>196.1</ele>
        <time>2017-01-29T10:08:22.000Z</time>
      </trkpt>
      <trkpt lat="44.49607" lon="0.66554">
        <ele>195.6</ele>
        <time>2017-01-29T10:08:23.000Z</time>
      </trkpt>
      <trkpt lat="44.49611" lon="0.66553">
        <ele>195.2</ele>
        <time>2017-01-29T10:08:24.000Z</time>
      </trkpt>
      <trkpt lat="44.49615" lon="0.66552">
        <ele>195.1</ele>
        <time>2017-01-29T10:08:25.000Z</time>
      </trkpt>
      <trkpt lat="44.4962" lon="0.66552">
        <ele>195.1</ele>
        <time>2017-01-29T10:08:26.000Z</time>
      </trkpt>
      <trkpt lat="44.49625" lon="0.66551">
        <ele>194.9</ele>
        <time>2017-01-29T10:08:27.000Z</time>
      </trkpt>
      <trkpt lat="44.49631" lon="0.6655">
        <ele>194.6</ele>
        <time>2017-01-29T10:08:28.000Z</time>
      </trkpt>
      <trkpt lat="44.49638" lon="0.66549">
        <ele>194.4</ele>
        <time>2017-01-29T10:08:29.000Z</time>
      </trkpt>
      <trkpt lat="44.49645" lon="0.66549">
        <ele>194.3</ele>
        <time>2017-01-29T10:08:30.000Z</time>
      </trkpt>
      <trkpt lat="44.49652" lon="0.6655">
        <ele>194.4</ele>
        <time>2017-01-29T10:08:31.000Z</time>
      </trkpt>
      <trkpt lat="44.4966" lon="0.6655">
        <ele>194.5</ele>
        <time>2017-01-29T10:08:32.000Z</time>
      </trkpt>
      <trkpt lat="44.49668" lon="0.6655">
        <ele>194.6</ele>
        <time>2017-01-29T10:08:33.000Z</time>
      </trkpt>
      <trkpt lat="44.49676" lon="0.6655">
        <ele>195.1</ele>
        <time>2017-01-29T10:08:34.000Z</time>
      </trkpt>
      <trkpt lat="44.49683" lon="0.66549">
        <ele>195.4</ele>
        <time>2017-01-29T10:08:35.000Z</time>
      </trkpt>
      <trkpt lat="44.4969" lon="0.66548">
        <ele>195.6</ele>
        <time>2017-01-29T10:08:36.000Z</time>
      </trkpt>
      <trkpt lat="44.49696" lon="0.66546">
        <ele>195.6</ele>
        <time>2017-01-29T10:08:37.000Z</time>
      </trkpt>
      <trkpt lat="44.49703" lon="0.66543">
        <ele>195.6</ele>
        <time>2017-01-29T10:08:38.000Z</time>
      </trkpt>
      <trkpt lat="44.49709" lon="0.6654">
        <ele>195.5</ele>
        <time>2017-01-29T10:08:39.000Z</time>
      </trkpt>
      <trkpt lat="44.49716" lon="0.66536">
        <ele>195.3</ele>
        <time>2017-01-29T10:08:40.000Z</time>
      </trkpt>
      <trkpt lat="44.49723" lon="0.66532">
        <ele>195.2</ele>
        <time>2017-01-29T10:08:41.000Z</time>
      </trkpt>
      <trkpt lat="44.49729" lon="0.66528">
        <ele>195.1</ele>
        <time>2017-01-29T10:08:42.000Z</time>
      </trkpt>
      <trkpt lat="44.49735" lon="0.66524">
        <ele>195</ele>
        <time>2017-01-29T10:08:43.000Z</time>
      </trkpt>
      <trkpt lat="44.49741" lon="0.6652">
        <ele>194.9</ele>
        <time>2017-01-29T10:08:44.000Z</time>
      </trkpt>
      <trkpt lat="44.49746" lon="0.66517">
        <ele>195</ele>
        <time>2017-01-29T10:08:45.000Z</time>
      </trkpt>
      <trkpt lat="44.49751" lon="0.66514">
        <ele>195.1</ele>
        <time>2017-01-29T10:08:46.000Z</time>
      </trkpt>
      <trkpt lat="44.49755" lon="0.66511">
        <ele>195.4</ele>
        <time>2017-01-29T10:08:47.000Z</time>
      </trkpt>
      <trkpt lat="44.49759" lon="0.66509">
        <ele>195.7</ele>
        <time>2017-01-29T10:08:48.000Z</time>
      </trkpt>
      <trkpt lat="44.49762" lon="0.66507">
        <ele>196</ele>
        <time>2017-01-29T10:08:49.000Z</time>
      </trkpt>
      <trkpt lat="44.49766" lon="0.66506">
        <ele>196.4</ele>
        <time>2017-01-29T10:08:50.000Z</time>
      </trkpt>
      <trkpt lat="44.49769" lon="0.66505">
        <ele>196.8</ele>
        <time>2017-01-29T10:08:51.000Z</time>
      </trkpt>
      <trkpt lat="44.49772" lon="0.66504">
        <ele>197.2</ele>
        <time>2017-01-29T10:08:52.000Z</time>
      </trkpt>
      <trkpt lat="44.49775" lon="0.66503">
        <ele>197.6</ele>
        <time>2017-01-29T10:08:53.000Z</time>
      </trkpt>
      <trkpt lat="44.49778" lon="0.66502">
        <ele>198</ele>
        <time>2017-01-29T10:08:54.000Z</time>
      </trkpt>
      <trkpt lat="44.49781" lon="0.66501">
        <ele>198.3</ele>
        <time>2017-01-29T10:08:55.000Z</time>
      </trkpt>
      <trkpt lat="44.49783" lon="0.66501">
        <ele>198.6</ele>
        <time>2017-01-29T10:08:56.000Z</time>
      </trkpt>
      <trkpt lat="44.49785" lon="0.665">
        <ele>198.8</ele>
        <time>2017-01-29T10:08:57.000Z</time>
      </trkpt>
      <trkpt lat="44.49786" lon="0.66499">
        <ele>199</ele>
        <time>2017-01-29T10:08:58.000Z</time>
      </trkpt>
      <trkpt lat="44.49788" lon="0.66498">
        <ele>199.1</ele>
        <time>2017-01-29T10:08:59.000Z</time>
      </trkpt>
      <trkpt lat="44.49788" lon="0.66498">
        <ele>199.1</ele>
        <time>2017-01-29T10:09:00.000Z</time>
      </trkpt>
      <trkpt lat="44.49789" lon="0.66498">
        <ele>199.2</ele>
        <time>2017-01-29T10:09:01.000Z</time>
      </trkpt>
      <trkpt lat="44.49789" lon="0.66498">
        <ele>199.3</ele>
        <time>2017-01-29T10:09:02.000Z</time>
      </trkpt>
      <trkpt lat="44.49791" lon="0.66497">
        <ele>199.4</ele>
        <time>2017-01-29T10:09:03.000Z</time>
      </trkpt>
      <trkpt lat="44.49793" lon="0.66496">
        <ele>199.5</ele>
        <time>2017-01-29T10:09:04.000Z</time>
      </trkpt>
      <trkpt lat="44.49794" lon="0.66495">
        <ele>199.7</ele>
        <time>2017-01-29T10:09:05.000Z</time>
      </trkpt>
      <trkpt lat="44.49795" lon="0.66494">
        <ele>199.8</ele>
        <time>2017-01-29T10:09:06.000Z</time>
      </trkpt>
      <trkpt lat="44.49797" lon="0.66494">
        <ele>199.9</ele>
        <time>2017-01-29T10:09:07.000Z</time>
      </trkpt>
      <trkpt lat="44.49797" lon="0.66493">
        <ele>199.9</ele>
        <time>2017-01-29T10:09:08.000Z</time>
      </trkpt>
      <trkpt lat="44.49798" lon="0.66493">
        <ele>200</ele>
        <time>2017-01-29T10:09:09.000Z</time>
      </trkpt>
      <trkpt lat="44.49799" lon="0.66492">
        <ele>200</ele>
        <time>2017-01-29T10:09:10.000Z</time>
      </trkpt>
      <trkpt lat="44.49799" lon="0.66492">
        <ele>200</ele>
        <time>2017-01-29T10:09:11.000Z</time>
      </trkpt>
      <trkpt lat="44.498" lon="0.66491">
        <ele>200.1</ele>
        <time>2017-01-29T10:09:12.000Z</time>
      </trkpt>
      <trkpt lat="44.49801" lon="0.6649">
        <ele>200.1</ele>
        <time>2017-01-29T10:09:13.000Z</time>
      </trkpt>
      <trkpt lat="44.49803" lon="0.66487">
        <ele>200</ele>
        <time>2017-01-29T10:09:14.000Z</time>
      </trkpt>
      <trkpt lat="44.49804" lon="0.66485">
        <ele>199.8</ele>
        <time>2017-01-29T10:09:15.000Z</time>
      </trkpt>
      <trkpt lat="44.49805" lon="0.66481">
        <ele>199.5</ele>
        <time>2017-01-29T10:09:16.000Z</time>
      </trkpt>
      <trkpt lat="44.49806" lon="0.66477">
        <ele>199.1</ele>
        <time>2017-01-29T10:09:17.000Z</time>
      </trkpt>
      <trkpt lat="44.49808" lon="0.66472">
        <ele>198.7</ele>
        <time>2017-01-29T10:09:18.000Z</time>
      </trkpt>
      <trkpt lat="44.4981" lon="0.66467">
        <ele>198.4</ele>
        <time>2017-01-29T10:09:19.000Z</time>
      </trkpt>
      <trkpt lat="44.49812" lon="0.66463">
        <ele>198.2</ele>
        <time>2017-01-29T10:09:20.000Z</time>
      </trkpt>
      <trkpt lat="44.49815" lon="0.66458">
        <ele>198</ele>
        <time>2017-01-29T10:09:21.000Z</time>
      </trkpt>
      <trkpt lat="44.49818" lon="0.66453">
        <ele>197.9</ele>
        <time>2017-01-29T10:09:22.000Z</time>
      </trkpt>
      <trkpt lat="44.49821" lon="0.66448">
        <ele>197.9</ele>
        <time>2017-01-29T10:09:23.000Z</time>
      </trkpt>
      <trkpt lat="44.49825" lon="0.66443">
        <ele>197.9</ele>
        <time>2017-01-29T10:09:24.000Z</time>
      </trkpt>
      <trkpt lat="44.49829" lon="0.66438">
        <ele>198</ele>
        <time>2017-01-29T10:09:25.000Z</time>
      </trkpt>
      <trkpt lat="44.49833" lon="0.66431">
        <ele>197.8</ele>
        <time>2017-01-29T10:09:26.000Z</time>
      </trkpt>
      <trkpt lat="44.49837" lon="0.66422">
        <ele>197.2</ele>
        <time>2017-01-29T10:09:27.000Z</time>
      </trkpt>
      <trkpt lat="44.49841" lon="0.66413">
        <ele>196.6</ele>
        <time>2017-01-29T10:09:28.000Z</time>
      </trkpt>
      <trkpt lat="44.49846" lon="0.66405">
        <ele>196</ele>
        <time>2017-01-29T10:09:29.000Z</time>
      </trkpt>
      <trkpt lat="44.4985" lon="0.66398">
        <ele>195.5</ele>
        <time>2017-01-29T10:09:30.000Z</time>
      </trkpt>
      <trkpt lat="44.49854" lon="0.66391">
        <ele>195</ele>
        <time>2017-01-29T10:09:31.000Z</time>
      </trkpt>
      <trkpt lat="44.49858" lon="0.66384">
        <ele>194.5</ele>
        <time>2017-01-29T10:09:32.000Z</time>
      </trkpt>
      <trkpt lat="44.49861" lon="0.66377">
        <ele>193.8</ele>
        <time>2017-01-29T10:09:33.000Z</time>
      </trkpt>
      <trkpt lat="44.49865" lon="0.66369">
        <ele>193</ele>
        <time>2017-01-29T10:09:34.000Z</time>
      </trkpt>
      <trkpt lat="44.49868" lon="0.6636">
        <ele>192.2</ele>
        <time>2017-01-29T10:09:35.000Z</time>
      </trkpt>
      <trkpt lat="44.49872" lon="0.66351">
        <ele>191.4</ele>
        <time>2017-01-29T10:09:36.000Z</time>
      </trkpt>
      <trkpt lat="44.49876" lon="0.66343">
        <ele>190.7</ele>
        <time>2017-01-29T10:09:37.000Z</time>
      </trkpt>
      <trkpt lat="44.49879" lon="0.66336">
        <ele>190.1</ele>
        <time>2017-01-29T10:09:38.000Z</time>
      </trkpt>
      <trkpt lat="44.49883" lon="0.66329">
        <ele>189.4</ele>
        <time>2017-01-29T10:09:39.000Z</time>
      </trkpt>
      <trkpt lat="44.49886" lon="0.66322">
        <ele>188.6</ele>
        <time>2017-01-29T10:09:40.000Z</time>
      </trkpt>
      <trkpt lat="44.49889" lon="0.66315">
        <ele>187.8</ele>
        <time>2017-01-29T10:09:41.000Z</time>
      </trkpt>
      <trkpt lat="44.49892" lon="0.66308">
        <ele>186.9</ele>
        <time>2017-01-29T10:09:42.000Z</time>
      </trkpt>
      <trkpt lat="44.49896" lon="0.663">
        <ele>185.8</ele>
        <time>2017-01-29T10:09:43.000Z</time>
      </trkpt>
      <trkpt lat="44.49899" lon="0.66293">
        <ele>184.7</ele>
        <time>2017-01-29T10:09:44.000Z</time>
      </trkpt>
      <trkpt lat="44.49902" lon="0.66286">
        <ele>183.7</ele>
        <time>2017-01-29T10:09:45.000Z</time>
      </trkpt>
      <trkpt lat="44.49906" lon="0.6628">
        <ele>182.8</ele>
        <time>2017-01-29T10:09:46.000Z</time>
      </trkpt>
      <trkpt lat="44.4991" lon="0.66275">
        <ele>182</ele>
        <time>2017-01-29T10:09:47.000Z</time>
      </trkpt>
      <trkpt lat="44.49914" lon="0.6627">
        <ele>181.4</ele>
        <time>2017-01-29T10:09:48.000Z</time>
      </trkpt>
      <trkpt lat="44.49917" lon="0.66267">
        <ele>181</ele>
        <time>2017-01-29T10:09:49.000Z</time>
      </trkpt>
      <trkpt lat="44.4992" lon="0.66265">
        <ele>180.8</ele>
        <time>2017-01-29T10:09:50.000Z</time>
      </trkpt>
      <trkpt lat="44.49922" lon="0.66264">
        <ele>180.7</ele>
        <time>2017-01-29T10:09:51.000Z</time>
      </trkpt>
      <trkpt lat="44.49923" lon="0.66263">
        <ele>180.7</ele>
        <time>2017-01-29T10:09:52.000Z</time>
      </trkpt>
      <trkpt lat="44.49925" lon="0.66263">
        <ele>180.8</ele>
        <time>2017-01-29T10:09:53.000Z</time>
      </trkpt>
      <trkpt lat="44.49925" lon="0.66264">
        <ele>181.1</ele>
        <time>2017-01-29T10:09:54.000Z</time>
      </trkpt>
      <trkpt lat="44.49926" lon="0.66265">
        <ele>181.4</ele>
        <time>2017-01-29T10:09:55.000Z</time>
      </trkpt>
      <trkpt lat="44.49927" lon="0.66266">
        <ele>181.8</ele>
        <time>2017-01-29T10:09:56.000Z</time>
      </trkpt>
      <trkpt lat="44.49927" lon="0.66268">
        <ele>182.2</ele>
        <time>2017-01-29T10:09:57.000Z</time>
      </trkpt>
      <trkpt lat="44.49927" lon="0.6627">
        <ele>182.6</ele>
        <time>2017-01-29T10:09:58.000Z</time>
      </trkpt>
      <trkpt lat="44.49926" lon="0.66272">
        <ele>182.9</ele>
        <time>2017-01-29T10:09:59.000Z</time>
      </trkpt>
      <trkpt lat="44.49926" lon="0.66273">
        <ele>183.2</ele>
        <time>2017-01-29T10:10:00.000Z</time>
      </trkpt>
      <trkpt lat="44.49925" lon="0.66275">
        <ele>183.5</ele>
        <time>2017-01-29T10:10:01.000Z</time>
      </trkpt>
      <trkpt lat="44.49923" lon="0.66276">
        <ele>183.7</ele>
        <time>2017-01-29T10:10:02.000Z</time>
      </trkpt>
      <trkpt lat="44.49922" lon="0.66278">
        <ele>184</ele>
        <time>2017-01-29T10:10:03.000Z</time>
      </trkpt>
      <trkpt lat="44.49922" lon="0.6628">
        <ele>184.3</ele>
        <time>2017-01-29T10:10:04.000Z</time>
      </trkpt>
      <trkpt lat="44.49921" lon="0.66282">
        <ele>184.7</ele>
        <time>2017-01-29T10:10:05.000Z</time>
      </trkpt>
      <trkpt lat="44.49921" lon="0.66284">
        <ele>185.2</ele>
        <time>2017-01-29T10:10:06.000Z</time>
      </trkpt>
      <trkpt lat="44.49921" lon="0.66286">
        <ele>185.7</ele>
        <time>2017-01-29T10:10:07.000Z</time>
      </trkpt>
      <trkpt lat="44.49922" lon="0.66288">
        <ele>186.1</ele>
        <time>2017-01-29T10:10:08.000Z</time>
      </trkpt>
      <trkpt lat="44.49923" lon="0.66288">
        <ele>186.4</ele>
        <time>2017-01-29T10:10:09.000Z</time>
      </trkpt>
      <trkpt lat="44.49925" lon="0.66289">
        <ele>186.6</ele>
        <time>2017-01-29T10:10:10.000Z</time>
      </trkpt>
      <trkpt lat="44.49926" lon="0.66289">
        <ele>186.8</ele>
        <time>2017-01-29T10:10:11.000Z</time>
      </trkpt>
      <trkpt lat="44.49928" lon="0.66289">
        <ele>187</ele>
        <time>2017-01-29T10:10:12.000Z</time>
      </trkpt>
      <trkpt lat="44.49929" lon="0.66289">
        <ele>187.2</ele>
        <time>2017-01-29T10:10:13.000Z</time>
      </trkpt>
      <trkpt lat="44.49931" lon="0.6629">
        <ele>187.4</ele>
        <time>2017-01-29T10:10:14.000Z</time>
      </trkpt>
      <trkpt lat="44.49933" lon="0.6629">
        <ele>187.6</ele>
        <time>2017-01-29T10:10:15.000Z</time>
      </trkpt>
      <trkpt lat="44.49934" lon="0.6629">
        <ele>187.9</ele>
        <time>2017-01-29T10:10:16.000Z</time>
      </trkpt>
      <trkpt lat="44.49936" lon="0.66291">
        <ele>188.1</ele>
        <time>2017-01-29T10:10:17.000Z</time>
      </trkpt>
      <trkpt lat="44.49937" lon="0.66291">
        <ele>188.3</ele>
        <time>2017-01-29T10:10:18.000Z</time>
      </trkpt>
      <trkpt lat="44.49939" lon="0.66291">
        <ele>188.5</ele>
        <time>2017-01-29T10:10:19.000Z</time>
      </trkpt>
      <trkpt lat="44.4994" lon="0.66292">
        <ele>188.8</ele>
        <time>2017-01-29T10:10:20.000Z</time>
      </trkpt>
      <trkpt lat="44.49942" lon="0.66292">
        <ele>189</ele>
        <time>2017-01-29T10:10:21.000Z</time>
      </trkpt>
      <trkpt lat="44.49943" lon="0.66292">
        <ele>189.2</ele>
        <time>2017-01-29T10:10:22.000Z</time>
      </trkpt>
      <trkpt lat="44.49945" lon="0.66292">
        <ele>189.4</ele>
        <time>2017-01-29T10:10:23.000Z</time>
      </trkpt>
      <trkpt lat="44.49947" lon="0.66292">
        <ele>189.5</ele>
        <time>2017-01-29T10:10:24.000Z</time>
      </trkpt>
      <trkpt lat="44.49949" lon="0.66292">
        <ele>189.7</ele>
        <time>2017-01-29T10:10:25.000Z</time>
      </trkpt>
      <trkpt lat="44.49951" lon="0.66292">
        <ele>189.8</ele>
        <time>2017-01-29T10:10:26.000Z</time>
      </trkpt>
      <trkpt lat="44.49953" lon="0.66291">
        <ele>189.9</ele>
        <time>2017-01-29T10:10:27.000Z</time>
      </trkpt>
      <trkpt lat="44.49955" lon="0.66291">
        <ele>190</ele>
        <time>2017-01-29T10:10:28.000Z</time>
      </trkpt>
      <trkpt lat="44.49957" lon="0.6629">
        <ele>190</ele>
        <time>2017-01-29T10:10:29.000Z</time>
      </trkpt>
      <trkpt lat="44.4996" lon="0.66289">
        <ele>190.1</ele>
        <time>2017-01-29T10:10:30.000Z</time>
      </trkpt>
      <trkpt lat="44.49962" lon="0.66289">
        <ele>190.1</ele>
        <time>2017-01-29T10:10:31.000Z</time>
      </trkpt>
      <trkpt lat="44.49964" lon="0.66288">
        <ele>190.1</ele>
        <time>2017-01-29T10:10:32.000Z</time>
      </trkpt>
      <trkpt lat="44.49966" lon="0.66287">
        <ele>190.1</ele>
        <time>2017-01-29T10:10:33.000Z</time>
      </trkpt>
      <trkpt lat="44.49967" lon="0.66286">
        <ele>190.1</ele>
        <time>2017-01-29T10:10:34.000Z</time>
      </trkpt>
      <trkpt lat="44.49969" lon="0.66285">
        <ele>190</ele>
        <time>2017-01-29T10:10:35.000Z</time>
      </trkpt>
      <trkpt lat="44.49971" lon="0.66283">
        <ele>189.9</ele>
        <time>2017-01-29T10:10:36.000Z</time>
      </trkpt>
      <trkpt lat="44.49973" lon="0.66282">
        <ele>189.8</ele>
        <time>2017-01-29T10:10:37.000Z</time>
      </trkpt>
      <trkpt lat="44.49974" lon="0.66281">
        <ele>189.7</ele>
        <time>2017-01-29T10:10:38.000Z</time>
      </trkpt>
      <trkpt lat="44.49976" lon="0.6628">
        <ele>189.6</ele>
        <time>2017-01-29T10:10:39.000Z</time>
      </trkpt>
      <trkpt lat="44.49977" lon="0.66278">
        <ele>189.4</ele>
        <time>2017-01-29T10:10:40.000Z</time>
      </trkpt>
      <trkpt lat="44.49978" lon="0.66277">
        <ele>189.3</ele>
        <time>2017-01-29T10:10:41.000Z</time>
      </trkpt>
      <trkpt lat="44.4998" lon="0.66276">
        <ele>189.2</ele>
        <time>2017-01-29T10:10:42.000Z</time>
      </trkpt>
      <trkpt lat="44.49981" lon="0.66274">
        <ele>189.1</ele>
        <time>2017-01-29T10:10:43.000Z</time>
      </trkpt>
      <trkpt lat="44.49983" lon="0.66273">
        <ele>189</ele>
        <time>2017-01-29T10:10:44.000Z</time>
      </trkpt>
      <trkpt lat="44.49984" lon="0.66272">
        <ele>188.9</ele>
        <time>2017-01-29T10:10:45.000Z</time>
      </trkpt>
      <trkpt lat="44.49985" lon="0.66271">
        <ele>188.8</ele>
        <time>2017-01-29T10:10:46.000Z</time>
      </trkpt>
      <trkpt lat="44.49987" lon="0.6627">
        <ele>188.7</ele>
        <time>2017-01-29T10:10:47.000Z</time>
      </trkpt>
      <trkpt lat="44.49988" lon="0.66269">
        <ele>188.7</ele>
        <time>2017-01-29T10:10:48.000Z</time>
      </trkpt>
      <trkpt lat="44.4999" lon="0.66269">
        <ele>188.7</ele>
        <time>2017-01-29T10:10:49.000Z</time>
      </trkpt>
      <trkpt lat="44.49991" lon="0.66268">
        <ele>188.8</ele>
        <time>2017-01-29T10:10:50.000Z</time>
      </trkpt>
      <trkpt lat="44.49993" lon="0.66268">
        <ele>188.8</ele>
        <time>2017-01-29T10:10:51.000Z</time>
      </trkpt>
      <trkpt lat="44.49994" lon="0.66267">
        <ele>188.9</ele>
        <time>2017-01-29T10:10:52.000Z</time>
      </trkpt>
      <trkpt lat="44.49996" lon="0.66267">
        <ele>189</ele>
        <time>2017-01-29T10:10:53.000Z</time>
      </trkpt>
      <trkpt lat="44.49998" lon="0.66267">
        <ele>189.2</ele>
        <time>2017-01-29T10:10:54.000Z</time>
      </trkpt>
      <trkpt lat="44.49999" lon="0.66267">
        <ele>189.3</ele>
        <time>2017-01-29T10:10:55.000Z</time>
      </trkpt>
      <trkpt lat="44.50001" lon="0.66267">
        <ele>189.4</ele>
        <time>2017-01-29T10:10:56.000Z</time>
      </trkpt>
      <trkpt lat="44.50002" lon="0.66267">
        <ele>189.3</ele>
        <time>2017-01-29T10:10:57.000Z</time>
      </trkpt>
      <trkpt lat="44.50004" lon="0.66266">
        <ele>189.2</ele>
        <time>2017-01-29T10:10:58.000Z</time>
      </trkpt>
      <trkpt lat="44.50005" lon="0.66266">
        <ele>189.1</ele>
        <time>2017-01-29T10:10:59.000Z</time>
      </trkpt>
      <trkpt lat="44.50007" lon="0.66266">
        <ele>188.9</ele>
        <time>2017-01-29T10:11:00.000Z</time>
      </trkpt>
      <trkpt lat="44.50008" lon="0.66265">
        <ele>188.8</ele>
        <time>2017-01-29T10:11:01.000Z</time>
      </trkpt>
      <trkpt lat="44.5001" lon="0.66265">
        <ele>188.6</ele>
        <time>2017-01-29T10:11:02.000Z</time>
      </trkpt>
      <trkpt lat="44.50012" lon="0.66265">
        <ele>188.5</ele>
        <time>2017-01-29T10:11:03.000Z</time>
      </trkpt>
      <trkpt lat="44.50014" lon="0.66265">
        <ele>188.4</ele>
        <time>2017-01-29T10:11:04.000Z</time>
      </trkpt>
      <trkpt lat="44.50016" lon="0.66265">
        <ele>188.4</ele>
        <time>2017-01-29T10:11:05.000Z</time>
      </trkpt>
      <trkpt lat="44.50018" lon="0.66265">
        <ele>188.3</ele>
        <time>2017-01-29T10:11:06.000Z</time>
      </trkpt>
      <trkpt lat="44.5002" lon="0.66265">
        <ele>188.3</ele>
        <time>2017-01-29T10:11:07.000Z</time>
      </trkpt>
      <trkpt lat="44.50022" lon="0.66266">
        <ele>188.2</ele>
        <time>2017-01-29T10:11:08.000Z</time>
      </trkpt>
      <trkpt lat="44.50024" lon="0.66266">
        <ele>188.2</ele>
        <time>2017-01-29T10:11:09.000Z</time>
      </trkpt>
      <trkpt lat="44.50026" lon="0.66266">
        <ele>188.2</ele>
        <time>2017-01-29T10:11:10.000Z</time>
      </trkpt>
      <trkpt lat="44.50028" lon="0.66267">
        <ele>188.2</ele>
        <time>2017-01-29T10:11:11.000Z</time>
      </trkpt>
      <trkpt lat="44.5003" lon="0.66267">
        <ele>188.2</ele>
        <time>2017-01-29T10:11:12.000Z</time>
      </trkpt>
      <trkpt lat="44.50032" lon="0.66268">
        <ele>188.2</ele>
        <time>2017-01-29T10:11:13.000Z</time>
      </trkpt>
      <trkpt lat="44.50034" lon="0.66268">
        <ele>188.2</ele>
        <time>2017-01-29T10:11:14.000Z</time>
      </trkpt>
      <trkpt lat="44.50036" lon="0.66269">
        <ele>188.3</ele>
        <time>2017-01-29T10:11:15.000Z</time>
      </trkpt>
      <trkpt lat="44.50038" lon="0.6627">
        <ele>188.3</ele>
        <time>2017-01-29T10:11:16.000Z</time>
      </trkpt>
      <trkpt lat="44.50039" lon="0.6627">
        <ele>188.4</ele>
        <time>2017-01-29T10:11:17.000Z</time>
      </trkpt>
      <trkpt lat="44.50041" lon="0.66271">
        <ele>188.5</ele>
        <time>2017-01-29T10:11:18.000Z</time>
      </trkpt>
      <trkpt lat="44.50043" lon="0.66272">
        <ele>188.6</ele>
        <time>2017-01-29T10:11:19.000Z</time>
      </trkpt>
      <trkpt lat="44.50045" lon="0.66274">
        <ele>188.7</ele>
        <time>2017-01-29T10:11:20.000Z</time>
      </trkpt>
      <trkpt lat="44.50047" lon="0.66275">
        <ele>189</ele>
        <time>2017-01-29T10:11:21.000Z</time>
      </trkpt>
      <trkpt lat="44.50048" lon="0.66277">
        <ele>189.2</ele>
        <time>2017-01-29T10:11:22.000Z</time>
      </trkpt>
      <trkpt lat="44.5005" lon="0.66279">
        <ele>189.5</ele>
        <time>2017-01-29T10:11:23.000Z</time>
      </trkpt>
      <trkpt lat="44.50052" lon="0.66281">
        <ele>189.8</ele>
        <time>2017-01-29T10:11:24.000Z</time>
      </trkpt>
      <trkpt lat="44.50054" lon="0.66283">
        <ele>189.9</ele>
        <time>2017-01-29T10:11:25.000Z</time>
      </trkpt>
      <trkpt lat="44.50057" lon="0.66284">
        <ele>190.1</ele>
        <time>2017-01-29T10:11:26.000Z</time>
      </trkpt>
      <trkpt lat="44.50059" lon="0.66285">
        <ele>190.2</ele>
        <time>2017-01-29T10:11:27.000Z</time>
      </trkpt>
      <trkpt lat="44.50061" lon="0.66287">
        <ele>190.3</ele>
        <time>2017-01-29T10:11:28.000Z</time>
      </trkpt>
      <trkpt lat="44.50062" lon="0.66288">
        <ele>190.4</ele>
        <time>2017-01-29T10:11:29.000Z</time>
      </trkpt>
      <trkpt lat="44.50063" lon="0.66288">
        <ele>190.5</ele>
        <time>2017-01-29T10:11:30.000Z</time>
      </trkpt>
      <trkpt lat="44.50064" lon="0.66289">
        <ele>190.5</ele>
        <time>2017-01-29T10:11:31.000Z</time>
      </trkpt>
      <trkpt lat="44.50064" lon="0.66289">
        <ele>190.5</ele>
        <time>2017-01-29T10:11:32.000Z</time>
      </trkpt>
      <trkpt lat="44.50064" lon="0.66289">
        <ele>190.5</ele>
        <time>2017-01-29T10:11:33.000Z</time>
      </trkpt>
      <trkpt lat="44.50064" lon="0.66289">
        <ele>190.5</ele>
        <time>2017-01-29T10:11:34.000Z</time>
      </trkpt>
      <trkpt lat="44.50064" lon="0.66289">
        <ele>190.5</ele>
        <time>2017-01-29T10:11:35.000Z</time>
      </trkpt>
      <trkpt lat="44.50064" lon="0.66289">
        <ele>190.5</ele>
        <time>2017-01-29T10:11:36.000Z</time>
      </trkpt>
      <trkpt lat="44.50064" lon="0.66289">
        <ele>190.5</ele>
        <time>2017-01-29T10:11:37.000Z</time>
      </trkpt>
      <trkpt lat="44.50064" lon="0.66289">
        <ele>190.6</ele>
        <time>2017-01-29T10:11:38.000Z</time>
      </trkpt>
      <trkpt lat="44.50064" lon="0.66289">
        <ele>190.6</ele>
        <time>2017-01-29T10:11:39.000Z</time>
      </trkpt>
      <trkpt lat="44.50064" lon="0.66289">
        <ele>190.6</ele>
        <time>2017-01-29T10:11:40.000Z</time>
      </trkpt>
      <trkpt lat="44.50064" lon="0.66289">
        <ele>190.6</ele>
        <time>2017-01-29T10:11:41.000Z</time>
      </trkpt>
      <trkpt lat="44.50064" lon="0.66289">
        <ele>190.6</ele>
        <time>2017-01-29T10:11:42.000Z</time>
      </trkpt>
      <trkpt lat="44.50064" lon="0.66289">
        <ele>190.6</ele>
        <time>2017-01-29T10:11:43.000Z</time>
      </trkpt>
      <trkpt lat="44.50065" lon="0.66289">
        <ele>190.6</ele>
        <time>2017-01-29T10:11:44.000Z</time>
      </trkpt>
      <trkpt lat="44.50065" lon="0.66289">
        <ele>190.6</ele>
        <time>2017-01-29T10:11:45.000Z</time>
      </trkpt>
      <trkpt lat="44.50065" lon="0.66289">
        <ele>190.6</ele>
        <time>2017-01-29T10:11:46.000Z</time>
      </trkpt>
      <trkpt lat="44.50065" lon="0.66289">
        <ele>190.6</ele>
        <time>2017-01-29T10:11:47.000Z</time>
      </trkpt>
      <trkpt lat="44.50065" lon="0.66289">
        <ele>190.6</ele>
        <time>2017-01-29T10:11:48.000Z</time>
      </trkpt>
      <trkpt lat="44.50065" lon="0.66289">
        <ele>190.6</ele>
        <time>2017-01-29T10:11:49.000Z</time>
      </trkpt>
      <trkpt lat="44.50065" lon="0.66289">
        <ele>190.6</ele>
        <time>2017-01-29T10:11:50.000Z</time>
      </trkpt>
      <trkpt lat="44.50065" lon="0.66289">
        <ele>190.6</ele>
        <time>2017-01-29T10:11:51.000Z</time>
      </trkpt>
      <trkpt lat="44.50065" lon="0.66289">
        <ele>190.6</ele>
        <time>2017-01-29T10:11:52.000Z</time>
      </trkpt>
      <trkpt lat="44.50065" lon="0.66289">
        <ele>190.6</ele>
        <time>2017-01-29T10:11:53.000Z</time>
      </trkpt>
      <trkpt lat="44.50065" lon="0.66289">
        <ele>190.6</ele>
        <time>2017-01-29T10:11:54.000Z</time>
      </trkpt>
      <trkpt lat="44.50065" lon="0.66289">
        <ele>190.6</ele>
        <time>2017-01-29T10:11:55.000Z</time>
      </trkpt>
      <trkpt lat="44.50065" lon="0.66289">
        <ele>190.6</ele>
        <time>2017-01-29T10:11:56.000Z</time>
      </trkpt>
      <trkpt lat="44.50065" lon="0.66289">
        <ele>190.6</ele>
        <time>2017-01-29T10:11:57.000Z</time>
      </trkpt>
      <trkpt lat="44.50065" lon="0.66289">
        <ele>190.6</ele>
        <time>2017-01-29T10:11:58.000Z</time>
      </trkpt>
      <trkpt lat="44.50065" lon="0.66289">
        <ele>190.6</ele>
        <time>2017-01-29T10:11:59.000Z</time>
      </trkpt>
      <trkpt lat="44.50065" lon="0.66289">
        <ele>190.6</ele>
        <time>2017-01-29T10:12:00.000Z</time>
      </trkpt>
      <trkpt lat="44.50065" lon="0.66289">
        <ele>190.6</ele>
        <time>2017-01-29T10:12:01.000Z</time>
      </trkpt>
      <trkpt lat="44.50065" lon="0.66289">
        <ele>190.6</ele>
        <time>2017-01-29T10:12:02.000Z</time>
      </trkpt>
      <trkpt lat="44.50065" lon="0.66289">
        <ele>190.6</ele>
        <time>2017-01-29T10:12:03.000Z</time>
      </trkpt>
      <trkpt lat="44.50065" lon="0.66289">
        <ele>190.6</ele>
        <time>2017-01-29T10:12:04.000Z</time>
      </trkpt>
      <trkpt lat="44.50065" lon="0.66289">
        <ele>190.6</ele>
        <time>2017-01-29T10:12:05.000Z</time>
      </trkpt>
      <trkpt lat="44.50065" lon="0.6629">
        <ele>190.6</ele>
        <time>2017-01-29T10:12:06.000Z</time>
      </trkpt>
      <trkpt lat="44.50065" lon="0.6629">
        <ele>190.6</ele>
        <time>2017-01-29T10:12:07.000Z</time>
      </trkpt>
      <trkpt lat="44.50066" lon="0.6629">
        <ele>190.7</ele>
        <time>2017-01-29T10:12:08.000Z</time>
      </trkpt>
      <trkpt lat="44.50066" lon="0.6629">
        <ele>190.7</ele>
        <time>2017-01-29T10:12:09.000Z</time>
      </trkpt>
      <trkpt lat="44.50067" lon="0.6629">
        <ele>190.7</ele>
        <time>2017-01-29T10:12:10.000Z</time>
      </trkpt>
      <trkpt lat="44.50067" lon="0.6629">
        <ele>190.6</ele>
        <time>2017-01-29T10:12:11.000Z</time>
      </trkpt>
      <trkpt lat="44.50068" lon="0.66289">
        <ele>190.4</ele>
        <time>2017-01-29T10:12:12.000Z</time>
      </trkpt>
      <trkpt lat="44.50069" lon="0.66289">
        <ele>190.2</ele>
        <time>2017-01-29T10:12:13.000Z</time>
      </trkpt>
      <trkpt lat="44.50071" lon="0.6629">
        <ele>190.3</ele>
        <time>2017-01-29T10:12:14.000Z</time>
      </trkpt>
      <trkpt lat="44.50072" lon="0.66291">
        <ele>190.5</ele>
        <time>2017-01-29T10:12:15.000Z</time>
      </trkpt>
      <trkpt lat="44.50073" lon="0.66293">
        <ele>190.8</ele>
        <time>2017-01-29T10:12:16.000Z</time>
      </trkpt>
      <trkpt lat="44.50074" lon="0.66295">
        <ele>191</ele>
        <time>2017-01-29T10:12:17.000Z</time>
      </trkpt>
      <trkpt lat="44.50075" lon="0.66296">
        <ele>191.2</ele>
        <time>2017-01-29T10:12:18.000Z</time>
      </trkpt>
      <trkpt lat="44.50077" lon="0.66298">
        <ele>191.5</ele>
        <time>2017-01-29T10:12:19.000Z</time>
      </trkpt>
      <trkpt lat="44.50078" lon="0.663">
        <ele>191.7</ele>
        <time>2017-01-29T10:12:20.000Z</time>
      </trkpt>
      <trkpt lat="44.5008" lon="0.66302">
        <ele>192</ele>
        <time>2017-01-29T10:12:21.000Z</time>
      </trkpt>
      <trkpt lat="44.50082" lon="0.66305">
        <ele>192.3</ele>
        <time>2017-01-29T10:12:22.000Z</time>
      </trkpt>
      <trkpt lat="44.50084" lon="0.66307">
        <ele>192.6</ele>
        <time>2017-01-29T10:12:23.000Z</time>
      </trkpt>
      <trkpt lat="44.50086" lon="0.6631">
        <ele>192.7</ele>
        <time>2017-01-29T10:12:24.000Z</time>
      </trkpt>
      <trkpt lat="44.50088" lon="0.66313">
        <ele>192.9</ele>
        <time>2017-01-29T10:12:25.000Z</time>
      </trkpt>
      <trkpt lat="44.5009" lon="0.66315">
        <ele>193.1</ele>
        <time>2017-01-29T10:12:26.000Z</time>
      </trkpt>
      <trkpt lat="44.50092" lon="0.66318">
        <ele>193.2</ele>
        <time>2017-01-29T10:12:27.000Z</time>
      </trkpt>
      <trkpt lat="44.50094" lon="0.66321">
        <ele>193.4</ele>
        <time>2017-01-29T10:12:28.000Z</time>
      </trkpt>
      <trkpt lat="44.50096" lon="0.66324">
        <ele>193.5</ele>
        <time>2017-01-29T10:12:29.000Z</time>
      </trkpt>
      <trkpt lat="44.50098" lon="0.66327">
        <ele>193.6</ele>
        <time>2017-01-29T10:12:30.000Z</time>
      </trkpt>
      <trkpt lat="44.501" lon="0.6633">
        <ele>193.8</ele>
        <time>2017-01-29T10:12:31.000Z</time>
      </trkpt>
      <trkpt lat="44.50102" lon="0.66333">
        <ele>193.9</ele>
        <time>2017-01-29T10:12:32.000Z</time>
      </trkpt>
      <trkpt lat="44.50104" lon="0.66335">
        <ele>194</ele>
        <time>2017-01-29T10:12:33.000Z</time>
      </trkpt>
      <trkpt lat="44.50106" lon="0.66338">
        <ele>194.2</ele>
        <time>2017-01-29T10:12:34.000Z</time>
      </trkpt>
      <trkpt lat="44.50108" lon="0.66341">
        <ele>194.4</ele>
        <time>2017-01-29T10:12:35.000Z</time>
      </trkpt>
      <trkpt lat="44.50109" lon="0.66344">
        <ele>194.6</ele>
        <time>2017-01-29T10:12:36.000Z</time>
      </trkpt>
      <trkpt lat="44.5011" lon="0.66347">
        <ele>194.8</ele>
        <time>2017-01-29T10:12:37.000Z</time>
      </trkpt>
      <trkpt lat="44.50112" lon="0.6635">
        <ele>195.1</ele>
        <time>2017-01-29T10:12:38.000Z</time>
      </trkpt>
      <trkpt lat="44.50113" lon="0.66352">
        <ele>195.2</ele>
        <time>2017-01-29T10:12:39.000Z</time>
      </trkpt>
      <trkpt lat="44.50114" lon="0.66354">
        <ele>195.3</ele>
        <time>2017-01-29T10:12:40.000Z</time>
      </trkpt>
      <trkpt lat="44.50116" lon="0.66355">
        <ele>195.3</ele>
        <time>2017-01-29T10:12:41.000Z</time>
      </trkpt>
      <trkpt lat="44.50117" lon="0.66356">
        <ele>195.3</ele>
        <time>2017-01-29T10:12:42.000Z</time>
      </trkpt>
      <trkpt lat="44.50118" lon="0.66357">
        <ele>195.3</ele>
        <time>2017-01-29T10:12:43.000Z</time>
      </trkpt>
      <trkpt lat="44.5012" lon="0.66358">
        <ele>195.3</ele>
        <time>2017-01-29T10:12:44.000Z</time>
      </trkpt>
      <trkpt lat="44.50121" lon="0.6636">
        <ele>195.3</ele>
        <time>2017-01-29T10:12:45.000Z</time>
      </trkpt>
      <trkpt lat="44.50122" lon="0.66361">
        <ele>195.4</ele>
        <time>2017-01-29T10:12:46.000Z</time>
      </trkpt>
      <trkpt lat="44.50123" lon="0.66362">
        <ele>195.4</ele>
        <time>2017-01-29T10:12:47.000Z</time>
      </trkpt>
      <trkpt lat="44.50124" lon="0.66364">
        <ele>195.5</ele>
        <time>2017-01-29T10:12:48.000Z</time>
      </trkpt>
      <trkpt lat="44.50126" lon="0.66365">
        <ele>195.5</ele>
        <time>2017-01-29T10:12:49.000Z</time>
      </trkpt>
      <trkpt lat="44.50127" lon="0.66366">
        <ele>195.6</ele>
        <time>2017-01-29T10:12:50.000Z</time>
      </trkpt>
      <trkpt lat="44.50128" lon="0.66368">
        <ele>195.6</ele>
        <time>2017-01-29T10:12:51.000Z</time>
      </trkpt>
      <trkpt lat="44.50129" lon="0.66369">
        <ele>195.7</ele>
        <time>2017-01-29T10:12:52.000Z</time>
      </trkpt>
      <trkpt lat="44.50131" lon="0.6637">
        <ele>195.7</ele>
        <time>2017-01-29T10:12:53.000Z</time>
      </trkpt>
      <trkpt lat="44.50132" lon="0.66371">
        <ele>195.8</ele>
        <time>2017-01-29T10:12:54.000Z</time>
      </trkpt>
      <trkpt lat="44.50133" lon="0.66373">
        <ele>195.8</ele>
        <time>2017-01-29T10:12:55.000Z</time>
      </trkpt>
      <trkpt lat="44.50135" lon="0.66374">
        <ele>195.8</ele>
        <time>2017-01-29T10:12:56.000Z</time>
      </trkpt>
      <trkpt lat="44.50136" lon="0.66375">
        <ele>195.8</ele>
        <time>2017-01-29T10:12:57.000Z</time>
      </trkpt>
      <trkpt lat="44.50138" lon="0.66376">
        <ele>195.8</ele>
        <time>2017-01-29T10:12:58.000Z</time>
      </trkpt>
      <trkpt lat="44.50139" lon="0.66377">
        <ele>195.8</ele>
        <time>2017-01-29T10:12:59.000Z</time>
      </trkpt>
      <trkpt lat="44.5014" lon="0.66378">
        <ele>195.8</ele>
        <time>2017-01-29T10:13:00.000Z</time>
      </trkpt>
      <trkpt lat="44.50141" lon="0.66379">
        <ele>195.8</ele>
        <time>2017-01-29T10:13:01.000Z</time>
      </trkpt>
      <trkpt lat="44.50143" lon="0.66379">
        <ele>195.8</ele>
        <time>2017-01-29T10:13:02.000Z</time>
      </trkpt>
      <trkpt lat="44.50144" lon="0.6638">
        <ele>195.8</ele>
        <time>2017-01-29T10:13:03.000Z</time>
      </trkpt>
      <trkpt lat="44.50145" lon="0.66381">
        <ele>195.8</ele>
        <time>2017-01-29T10:13:04.000Z</time>
      </trkpt>
      <trkpt lat="44.50146" lon="0.66382">
        <ele>195.8</ele>
        <time>2017-01-29T10:13:05.000Z</time>
      </trkpt>
      <trkpt lat="44.50147" lon="0.66382">
        <ele>195.8</ele>
        <time>2017-01-29T10:13:06.000Z</time>
      </trkpt>
      <trkpt lat="44.50149" lon="0.66383">
        <ele>195.7</ele>
        <time>2017-01-29T10:13:07.000Z</time>
      </trkpt>
      <trkpt lat="44.5015" lon="0.66384">
        <ele>195.7</ele>
        <time>2017-01-29T10:13:08.000Z</time>
      </trkpt>
      <trkpt lat="44.50152" lon="0.66385">
        <ele>195.6</ele>
        <time>2017-01-29T10:13:09.000Z</time>
      </trkpt>
      <trkpt lat="44.50153" lon="0.66385">
        <ele>195.6</ele>
        <time>2017-01-29T10:13:10.000Z</time>
      </trkpt>
      <trkpt lat="44.50155" lon="0.66386">
        <ele>195.5</ele>
        <time>2017-01-29T10:13:11.000Z</time>
      </trkpt>
      <trkpt lat="44.50156" lon="0.66387">
        <ele>195.4</ele>
        <time>2017-01-29T10:13:12.000Z</time>
      </trkpt>
      <trkpt lat="44.50158" lon="0.66387">
        <ele>195.3</ele>
        <time>2017-01-29T10:13:13.000Z</time>
      </trkpt>
      <trkpt lat="44.5016" lon="0.66388">
        <ele>195.2</ele>
        <time>2017-01-29T10:13:14.000Z</time>
      </trkpt>
      <trkpt lat="44.50162" lon="0.66388">
        <ele>195.1</ele>
        <time>2017-01-29T10:13:15.000Z</time>
      </trkpt>
      <trkpt lat="44.50165" lon="0.66389">
        <ele>194.9</ele>
        <time>2017-01-29T10:13:16.000Z</time>
      </trkpt>
      <trkpt lat="44.50167" lon="0.66389">
        <ele>194.8</ele>
        <time>2017-01-29T10:13:17.000Z</time>
      </trkpt>
      <trkpt lat="44.5017" lon="0.6639">
        <ele>194.8</ele>
        <time>2017-01-29T10:13:18.000Z</time>
      </trkpt>
      <trkpt lat="44.50172" lon="0.6639">
        <ele>194.8</ele>
        <time>2017-01-29T10:13:19.000Z</time>
      </trkpt>
      <trkpt lat="44.50175" lon="0.66391">
        <ele>194.8</ele>
        <time>2017-01-29T10:13:20.000Z</time>
      </trkpt>
      <trkpt lat="44.50179" lon="0.66391">
        <ele>194.7</ele>
        <time>2017-01-29T10:13:21.000Z</time>
      </trkpt>
      <trkpt lat="44.50182" lon="0.66392">
        <ele>194.7</ele>
        <time>2017-01-29T10:13:22.000Z</time>
      </trkpt>
      <trkpt lat="44.50186" lon="0.66392">
        <ele>194.6</ele>
        <time>2017-01-29T10:13:23.000Z</time>
      </trkpt>
      <trkpt lat="44.5019" lon="0.66392">
        <ele>194.5</ele>
        <time>2017-01-29T10:13:24.000Z</time>
      </trkpt>
      <trkpt lat="44.50195" lon="0.66393">
        <ele>194.4</ele>
        <time>2017-01-29T10:13:25.000Z</time>
      </trkpt>
      <trkpt lat="44.50199" lon="0.66393">
        <ele>194.3</ele>
        <time>2017-01-29T10:13:26.000Z</time>
      </trkpt>
      <trkpt lat="44.50204" lon="0.66393">
        <ele>194.2</ele>
        <time>2017-01-29T10:13:27.000Z</time>
      </trkpt>
      <trkpt lat="44.50209" lon="0.66393">
        <ele>194</ele>
        <time>2017-01-29T10:13:28.000Z</time>
      </trkpt>
      <trkpt lat="44.50213" lon="0.66393">
        <ele>193.9</ele>
        <time>2017-01-29T10:13:29.000Z</time>
      </trkpt>
      <trkpt lat="44.50217" lon="0.66393">
        <ele>193.7</ele>
        <time>2017-01-29T10:13:30.000Z</time>
      </trkpt>
      <trkpt lat="44.50221" lon="0.66393">
        <ele>193.6</ele>
        <time>2017-01-29T10:13:31.000Z</time>
      </trkpt>
      <trkpt lat="44.50225" lon="0.66393">
        <ele>193.5</ele>
        <time>2017-01-29T10:13:32.000Z</time>
      </trkpt>
      <trkpt lat="44.50229" lon="0.66393">
        <ele>193.4</ele>
        <time>2017-01-29T10:13:33.000Z</time>
      </trkpt>
      <trkpt lat="44.50232" lon="0.66394">
        <ele>193.4</ele>
        <time>2017-01-29T10:13:34.000Z</time>
      </trkpt>
      <trkpt lat="44.50236" lon="0.66395">
        <ele>193.5</ele>
        <time>2017-01-29T10:13:35.000Z</time>
      </trkpt>
      <trkpt lat="44.50239" lon="0.66396">
        <ele>193.6</ele>
        <time>2017-01-29T10:13:36.000Z</time>
      </trkpt>
      <trkpt lat="44.50241" lon="0.66397">
        <ele>193.8</ele>
        <time>2017-01-29T10:13:37.000Z</time>
      </trkpt>
      <trkpt lat="44.50244" lon="0.66399">
        <ele>194</ele>
        <time>2017-01-29T10:13:38.000Z</time>
      </trkpt>
      <trkpt lat="44.50246" lon="0.664">
        <ele>194.1</ele>
        <time>2017-01-29T10:13:39.000Z</time>
      </trkpt>
      <trkpt lat="44.50248" lon="0.66401">
        <ele>194.3</ele>
        <time>2017-01-29T10:13:40.000Z</time>
      </trkpt>
      <trkpt lat="44.5025" lon="0.66402">
        <ele>194.4</ele>
        <time>2017-01-29T10:13:41.000Z</time>
      </trkpt>
      <trkpt lat="44.50252" lon="0.66403">
        <ele>194.5</ele>
        <time>2017-01-29T10:13:42.000Z</time>
      </trkpt>
      <trkpt lat="44.50254" lon="0.66403">
        <ele>194.7</ele>
        <time>2017-01-29T10:13:43.000Z</time>
      </trkpt>
      <trkpt lat="44.50256" lon="0.66404">
        <ele>194.8</ele>
        <time>2017-01-29T10:13:44.000Z</time>
      </trkpt>
      <trkpt lat="44.50257" lon="0.66404">
        <ele>194.9</ele>
        <time>2017-01-29T10:13:45.000Z</time>
      </trkpt>
      <trkpt lat="44.50259" lon="0.66405">
        <ele>194.9</ele>
        <time>2017-01-29T10:13:46.000Z</time>
      </trkpt>
      <trkpt lat="44.50261" lon="0.66405">
        <ele>195</ele>
        <time>2017-01-29T10:13:47.000Z</time>
      </trkpt>
      <trkpt lat="44.50262" lon="0.66405">
        <ele>195.2</ele>
        <time>2017-01-29T10:13:48.000Z</time>
      </trkpt>
      <trkpt lat="44.50264" lon="0.66406">
        <ele>195.3</ele>
        <time>2017-01-29T10:13:49.000Z</time>
      </trkpt>
      <trkpt lat="44.50266" lon="0.66407">
        <ele>195.4</ele>
        <time>2017-01-29T10:13:50.000Z</time>
      </trkpt>
      <trkpt lat="44.50267" lon="0.66407">
        <ele>195.5</ele>
        <time>2017-01-29T10:13:51.000Z</time>
      </trkpt>
      <trkpt lat="44.50269" lon="0.66408">
        <ele>195.6</ele>
        <time>2017-01-29T10:13:52.000Z</time>
      </trkpt>
      <trkpt lat="44.5027" lon="0.66408">
        <ele>195.8</ele>
        <time>2017-01-29T10:13:53.000Z</time>
      </trkpt>
      <trkpt lat="44.50272" lon="0.66409">
        <ele>195.9</ele>
        <time>2017-01-29T10:13:54.000Z</time>
      </trkpt>
      <trkpt lat="44.50273" lon="0.66409">
        <ele>196</ele>
        <time>2017-01-29T10:13:55.000Z</time>
      </trkpt>
      <trkpt lat="44.50275" lon="0.6641">
        <ele>196.1</ele>
        <time>2017-01-29T10:13:56.000Z</time>
      </trkpt>
      <trkpt lat="44.50276" lon="0.6641">
        <ele>196.2</ele>
        <time>2017-01-29T10:13:57.000Z</time>
      </trkpt>
      <trkpt lat="44.50278" lon="0.66411">
        <ele>196.3</ele>
        <time>2017-01-29T10:13:58.000Z</time>
      </trkpt>
      <trkpt lat="44.50279" lon="0.66411">
        <ele>196.4</ele>
        <time>2017-01-29T10:13:59.000Z</time>
      </trkpt>
      <trkpt lat="44.50281" lon="0.66412">
        <ele>196.5</ele>
        <time>2017-01-29T10:14:00.000Z</time>
      </trkpt>
      <trkpt lat="44.50282" lon="0.66412">
        <ele>196.6</ele>
        <time>2017-01-29T10:14:01.000Z</time>
      </trkpt>
      <trkpt lat="44.50284" lon="0.66413">
        <ele>196.8</ele>
        <time>2017-01-29T10:14:02.000Z</time>
      </trkpt>
      <trkpt lat="44.50285" lon="0.66414">
        <ele>196.9</ele>
        <time>2017-01-29T10:14:03.000Z</time>
      </trkpt>
      <trkpt lat="44.50287" lon="0.66414">
        <ele>197</ele>
        <time>2017-01-29T10:14:04.000Z</time>
      </trkpt>
      <trkpt lat="44.50289" lon="0.66415">
        <ele>197.1</ele>
        <time>2017-01-29T10:14:05.000Z</time>
      </trkpt>
      <trkpt lat="44.5029" lon="0.66415">
        <ele>197.2</ele>
        <time>2017-01-29T10:14:06.000Z</time>
      </trkpt>
      <trkpt lat="44.50292" lon="0.66416">
        <ele>197.4</ele>
        <time>2017-01-29T10:14:07.000Z</time>
      </trkpt>
      <trkpt lat="44.50294" lon="0.66416">
        <ele>197.5</ele>
        <time>2017-01-29T10:14:08.000Z</time>
      </trkpt>
      <trkpt lat="44.50296" lon="0.66417">
        <ele>197.6</ele>
        <time>2017-01-29T10:14:09.000Z</time>
      </trkpt>
      <trkpt lat="44.50297" lon="0.66417">
        <ele>197.6</ele>
        <time>2017-01-29T10:14:10.000Z</time>
      </trkpt>
      <trkpt lat="44.50299" lon="0.66418">
        <ele>197.7</ele>
        <time>2017-01-29T10:14:11.000Z</time>
      </trkpt>
      <trkpt lat="44.50301" lon="0.66418">
        <ele>197.7</ele>
        <time>2017-01-29T10:14:12.000Z</time>
      </trkpt>
      <trkpt lat="44.50302" lon="0.66418">
        <ele>197.8</ele>
        <time>2017-01-29T10:14:13.000Z</time>
      </trkpt>
      <trkpt lat="44.50304" lon="0.66419">
        <ele>197.8</ele>
        <time>2017-01-29T10:14:14.000Z</time>
      </trkpt>
      <trkpt lat="44.50306" lon="0.66419">
        <ele>197.9</ele>
        <time>2017-01-29T10:14:15.000Z</time>
      </trkpt>
      <trkpt lat="44.50307" lon="0.66419">
        <ele>197.9</ele>
        <time>2017-01-29T10:14:16.000Z</time>
      </trkpt>
      <trkpt lat="44.50309" lon="0.66419">
        <ele>197.9</ele>
        <time>2017-01-29T10:14:17.000Z</time>
      </trkpt>
      <trkpt lat="44.5031" lon="0.66419">
        <ele>197.9</ele>
        <time>2017-01-29T10:14:18.000Z</time>
      </trkpt>
      <trkpt lat="44.50312" lon="0.66419">
        <ele>197.9</ele>
        <time>2017-01-29T10:14:19.000Z</time>
      </trkpt>
      <trkpt lat="44.50313" lon="0.66419">
        <ele>197.9</ele>
        <time>2017-01-29T10:14:20.000Z</time>
      </trkpt>
      <trkpt lat="44.50315" lon="0.66419">
        <ele>197.9</ele>
        <time>2017-01-29T10:14:21.000Z</time>
      </trkpt>
      <trkpt lat="44.50316" lon="0.66419">
        <ele>198</ele>
        <time>2017-01-29T10:14:22.000Z</time>
      </trkpt>
      <trkpt lat="44.50318" lon="0.66419">
        <ele>198</ele>
        <time>2017-01-29T10:14:23.000Z</time>
      </trkpt>
      <trkpt lat="44.5032" lon="0.66419">
        <ele>198</ele>
        <time>2017-01-29T10:14:24.000Z</time>
      </trkpt>
      <trkpt lat="44.50321" lon="0.66419">
        <ele>198</ele>
        <time>2017-01-29T10:14:25.000Z</time>
      </trkpt>
      <trkpt lat="44.50323" lon="0.66419">
        <ele>198</ele>
        <time>2017-01-29T10:14:26.000Z</time>
      </trkpt>
      <trkpt lat="44.50325" lon="0.66419">
        <ele>198</ele>
        <time>2017-01-29T10:14:27.000Z</time>
      </trkpt>
      <trkpt lat="44.50326" lon="0.66418">
        <ele>198</ele>
        <time>2017-01-29T10:14:28.000Z</time>
      </trkpt>
      <trkpt lat="44.50328" lon="0.66418">
        <ele>198</ele>
        <time>2017-01-29T10:14:29.000Z</time>
      </trkpt>
      <trkpt lat="44.5033" lon="0.66418">
        <ele>198</ele>
        <time>2017-01-29T10:14:30.000Z</time>
      </trkpt>
      <trkpt lat="44.50331" lon="0.66418">
        <ele>198</ele>
        <time>2017-01-29T10:14:31.000Z</time>
      </trkpt>
      <trkpt lat="44.50333" lon="0.66417">
        <ele>198.1</ele>
        <time>2017-01-29T10:14:32.000Z</time>
      </trkpt>
      <trkpt lat="44.50335" lon="0.66417">
        <ele>198.2</ele>
        <time>2017-01-29T10:14:33.000Z</time>
      </trkpt>
      <trkpt lat="44.50336" lon="0.66417">
        <ele>198.3</ele>
        <time>2017-01-29T10:14:34.000Z</time>
      </trkpt>
      <trkpt lat="44.50338" lon="0.66417">
        <ele>198.4</ele>
        <time>2017-01-29T10:14:35.000Z</time>
      </trkpt>
      <trkpt lat="44.5034" lon="0.66416">
        <ele>198.5</ele>
        <time>2017-01-29T10:14:36.000Z</time>
      </trkpt>
      <trkpt lat="44.50341" lon="0.66416">
        <ele>198.7</ele>
        <time>2017-01-29T10:14:37.000Z</time>
      </trkpt>
      <trkpt lat="44.50343" lon="0.66416">
        <ele>198.8</ele>
        <time>2017-01-29T10:14:38.000Z</time>
      </trkpt>
      <trkpt lat="44.50344" lon="0.66416">
        <ele>198.9</ele>
        <time>2017-01-29T10:14:39.000Z</time>
      </trkpt>
      <trkpt lat="44.50346" lon="0.66415">
        <ele>199</ele>
        <time>2017-01-29T10:14:40.000Z</time>
      </trkpt>
      <trkpt lat="44.50347" lon="0.66415">
        <ele>199.1</ele>
        <time>2017-01-29T10:14:41.000Z</time>
      </trkpt>
      <trkpt lat="44.50348" lon="0.66415">
        <ele>199.2</ele>
        <time>2017-01-29T10:14:42.000Z</time>
      </trkpt>
      <trkpt lat="44.5035" lon="0.66414">
        <ele>199.2</ele>
        <time>2017-01-29T10:14:43.000Z</time>
      </trkpt>
      <trkpt lat="44.50351" lon="0.66414">
        <ele>199.3</ele>
        <time>2017-01-29T10:14:44.000Z</time>
      </trkpt>
      <trkpt lat="44.50352" lon="0.66413">
        <ele>199.3</ele>
        <time>2017-01-29T10:14:45.000Z</time>
      </trkpt>
      <trkpt lat="44.50354" lon="0.66413">
        <ele>199.4</ele>
        <time>2017-01-29T10:14:46.000Z</time>
      </trkpt>
      <trkpt lat="44.50355" lon="0.66412">
        <ele>199.4</ele>
        <time>2017-01-29T10:14:47.000Z</time>
      </trkpt>
      <trkpt lat="44.50356" lon="0.66411">
        <ele>199.4</ele>
        <time>2017-01-29T10:14:48.000Z</time>
      </trkpt>
      <trkpt lat="44.50358" lon="0.6641">
        <ele>199.4</ele>
        <time>2017-01-29T10:14:49.000Z</time>
      </trkpt>
      <trkpt lat="44.50359" lon="0.66408">
        <ele>199.3</ele>
        <time>2017-01-29T10:14:50.000Z</time>
      </trkpt>
      <trkpt lat="44.50361" lon="0.66407">
        <ele>199.3</ele>
        <time>2017-01-29T10:14:51.000Z</time>
      </trkpt>
      <trkpt lat="44.50362" lon="0.66405">
        <ele>199.2</ele>
        <time>2017-01-29T10:14:52.000Z</time>
      </trkpt>
      <trkpt lat="44.50364" lon="0.66403">
        <ele>199.1</ele>
        <time>2017-01-29T10:14:53.000Z</time>
      </trkpt>
      <trkpt lat="44.50366" lon="0.66401">
        <ele>199</ele>
        <time>2017-01-29T10:14:54.000Z</time>
      </trkpt>
      <trkpt lat="44.50368" lon="0.66398">
        <ele>198.8</ele>
        <time>2017-01-29T10:14:55.000Z</time>
      </trkpt>
      <trkpt lat="44.5037" lon="0.66395">
        <ele>198.7</ele>
        <time>2017-01-29T10:14:56.000Z</time>
      </trkpt>
      <trkpt lat="44.50372" lon="0.66392">
        <ele>198.5</ele>
        <time>2017-01-29T10:14:57.000Z</time>
      </trkpt>
      <trkpt lat="44.50374" lon="0.66389">
        <ele>198.4</ele>
        <time>2017-01-29T10:14:58.000Z</time>
      </trkpt>
      <trkpt lat="44.50376" lon="0.66385">
        <ele>198.2</ele>
        <time>2017-01-29T10:14:59.000Z</time>
      </trkpt>
      <trkpt lat="44.50379" lon="0.66381">
        <ele>198</ele>
        <time>2017-01-29T10:15:00.000Z</time>
      </trkpt>
      <trkpt lat="44.50381" lon="0.66377">
        <ele>197.8</ele>
        <time>2017-01-29T10:15:01.000Z</time>
      </trkpt>
      <trkpt lat="44.50384" lon="0.66373">
        <ele>197.5</ele>
        <time>2017-01-29T10:15:02.000Z</time>
      </trkpt>
      <trkpt lat="44.50387" lon="0.66367">
        <ele>197.3</ele>
        <time>2017-01-29T10:15:03.000Z</time>
      </trkpt>
      <trkpt lat="44.5039" lon="0.66361">
        <ele>197</ele>
        <time>2017-01-29T10:15:04.000Z</time>
      </trkpt>
      <trkpt lat="44.50393" lon="0.66354">
        <ele>196.6</ele>
        <time>2017-01-29T10:15:05.000Z</time>
      </trkpt>
      <trkpt lat="44.50397" lon="0.66347">
        <ele>196.3</ele>
        <time>2017-01-29T10:15:06.000Z</time>
      </trkpt>
      <trkpt lat="44.504" lon="0.66339">
        <ele>196</ele>
        <time>2017-01-29T10:15:07.000Z</time>
      </trkpt>
      <trkpt lat="44.50404" lon="0.6633">
        <ele>195.6</ele>
        <time>2017-01-29T10:15:08.000Z</time>
      </trkpt>
      <trkpt lat="44.50407" lon="0.66322">
        <ele>195.2</ele>
        <time>2017-01-29T10:15:09.000Z</time>
      </trkpt>
      <trkpt lat="44.50411" lon="0.66313">
        <ele>194.7</ele>
        <time>2017-01-29T10:15:10.000Z</time>
      </trkpt>
      <trkpt lat="44.50415" lon="0.66304">
        <ele>194.2</ele>
        <time>2017-01-29T10:15:11.000Z</time>
      </trkpt>
      <trkpt lat="44.50419" lon="0.66295">
        <ele>193.9</ele>
        <time>2017-01-29T10:15:12.000Z</time>
      </trkpt>
      <trkpt lat="44.50423" lon="0.66287">
        <ele>193.6</ele>
        <time>2017-01-29T10:15:13.000Z</time>
      </trkpt>
      <trkpt lat="44.50427" lon="0.66278">
        <ele>193.5</ele>
        <time>2017-01-29T10:15:14.000Z</time>
      </trkpt>
      <trkpt lat="44.50431" lon="0.66271">
        <ele>193.4</ele>
        <time>2017-01-29T10:15:15.000Z</time>
      </trkpt>
      <trkpt lat="44.50434" lon="0.66264">
        <ele>193.2</ele>
        <time>2017-01-29T10:15:16.000Z</time>
      </trkpt>
      <trkpt lat="44.50436" lon="0.66258">
        <ele>193.1</ele>
        <time>2017-01-29T10:15:17.000Z</time>
      </trkpt>
      <trkpt lat="44.50438" lon="0.66252">
        <ele>193</ele>
        <time>2017-01-29T10:15:18.000Z</time>
      </trkpt>
      <trkpt lat="44.5044" lon="0.66247">
        <ele>193</ele>
        <time>2017-01-29T10:15:19.000Z</time>
      </trkpt>
      <trkpt lat="44.50442" lon="0.66242">
        <ele>193.1</ele>
        <time>2017-01-29T10:15:20.000Z</time>
      </trkpt>
      <trkpt lat="44.50444" lon="0.66238">
        <ele>193.3</ele>
        <time>2017-01-29T10:15:21.000Z</time>
      </trkpt>
      <trkpt lat="44.50446" lon="0.66233">
        <ele>193.4</ele>
        <time>2017-01-29T10:15:22.000Z</time>
      </trkpt>
      <trkpt lat="44.50448" lon="0.66229">
        <ele>193.5</ele>
        <time>2017-01-29T10:15:23.000Z</time>
      </trkpt>
      <trkpt lat="44.5045" lon="0.66225">
        <ele>193.7</ele>
        <time>2017-01-29T10:15:24.000Z</time>
      </trkpt>
      <trkpt lat="44.50452" lon="0.66221">
        <ele>193.9</ele>
        <time>2017-01-29T10:15:25.000Z</time>
      </trkpt>
      <trkpt lat="44.50455" lon="0.66216">
        <ele>194</ele>
        <time>2017-01-29T10:15:26.000Z</time>
      </trkpt>
      <trkpt lat="44.50457" lon="0.66212">
        <ele>194.2</ele>
        <time>2017-01-29T10:15:27.000Z</time>
      </trkpt>
      <trkpt lat="44.50459" lon="0.66208">
        <ele>194.3</ele>
        <time>2017-01-29T10:15:28.000Z</time>
      </trkpt>
      <trkpt lat="44.50461" lon="0.66205">
        <ele>194.5</ele>
        <time>2017-01-29T10:15:29.000Z</time>
      </trkpt>
      <trkpt lat="44.50463" lon="0.66202">
        <ele>194.6</ele>
        <time>2017-01-29T10:15:30.000Z</time>
      </trkpt>
      <trkpt lat="44.50464" lon="0.66199">
        <ele>194.8</ele>
        <time>2017-01-29T10:15:31.000Z</time>
      </trkpt>
      <trkpt lat="44.50466" lon="0.66196">
        <ele>194.9</ele>
        <time>2017-01-29T10:15:32.000Z</time>
      </trkpt>
      <trkpt lat="44.50467" lon="0.66193">
        <ele>195</ele>
        <time>2017-01-29T10:15:33.000Z</time>
      </trkpt>
      <trkpt lat="44.50469" lon="0.66191">
        <ele>195.1</ele>
        <time>2017-01-29T10:15:34.000Z</time>
      </trkpt>
      <trkpt lat="44.5047" lon="0.66188">
        <ele>195.2</ele>
        <time>2017-01-29T10:15:35.000Z</time>
      </trkpt>
      <trkpt lat="44.50472" lon="0.66186">
        <ele>195.4</ele>
        <time>2017-01-29T10:15:36.000Z</time>
      </trkpt>
      <trkpt lat="44.50473" lon="0.66183">
        <ele>195.5</ele>
        <time>2017-01-29T10:15:37.000Z</time>
      </trkpt>
      <trkpt lat="44.50474" lon="0.66181">
        <ele>195.6</ele>
        <time>2017-01-29T10:15:38.000Z</time>
      </trkpt>
      <trkpt lat="44.50476" lon="0.66178">
        <ele>195.7</ele>
        <time>2017-01-29T10:15:39.000Z</time>
      </trkpt>
      <trkpt lat="44.50477" lon="0.66176">
        <ele>195.8</ele>
        <time>2017-01-29T10:15:40.000Z</time>
      </trkpt>
      <trkpt lat="44.50478" lon="0.66175">
        <ele>195.9</ele>
        <time>2017-01-29T10:15:41.000Z</time>
      </trkpt>
      <trkpt lat="44.50479" lon="0.66173">
        <ele>196.1</ele>
        <time>2017-01-29T10:15:42.000Z</time>
      </trkpt>
      <trkpt lat="44.5048" lon="0.66172">
        <ele>196.2</ele>
        <time>2017-01-29T10:15:43.000Z</time>
      </trkpt>
      <trkpt lat="44.50481" lon="0.66171">
        <ele>196.3</ele>
        <time>2017-01-29T10:15:44.000Z</time>
      </trkpt>
      <trkpt lat="44.50482" lon="0.66169">
        <ele>196.4</ele>
        <time>2017-01-29T10:15:45.000Z</time>
      </trkpt>
      <trkpt lat="44.50484" lon="0.66168">
        <ele>196.5</ele>
        <time>2017-01-29T10:15:46.000Z</time>
      </trkpt>
      <trkpt lat="44.50485" lon="0.66165">
        <ele>196.5</ele>
        <time>2017-01-29T10:15:47.000Z</time>
      </trkpt>
      <trkpt lat="44.50486" lon="0.66162">
        <ele>196.5</ele>
        <time>2017-01-29T10:15:48.000Z</time>
      </trkpt>
      <trkpt lat="44.50487" lon="0.66158">
        <ele>196.4</ele>
        <time>2017-01-29T10:15:49.000Z</time>
      </trkpt>
      <trkpt lat="44.50488" lon="0.66154">
        <ele>196.2</ele>
        <time>2017-01-29T10:15:50.000Z</time>
      </trkpt>
      <trkpt lat="44.50489" lon="0.66149">
        <ele>195.9</ele>
        <time>2017-01-29T10:15:51.000Z</time>
      </trkpt>
      <trkpt lat="44.5049" lon="0.66143">
        <ele>195.6</ele>
        <time>2017-01-29T10:15:52.000Z</time>
      </trkpt>
      <trkpt lat="44.50491" lon="0.66136">
        <ele>195.2</ele>
        <time>2017-01-29T10:15:53.000Z</time>
      </trkpt>
      <trkpt lat="44.50492" lon="0.66129">
        <ele>194.8</ele>
        <time>2017-01-29T10:15:54.000Z</time>
      </trkpt>
      <trkpt lat="44.50494" lon="0.66121">
        <ele>194.3</ele>
        <time>2017-01-29T10:15:55.000Z</time>
      </trkpt>
      <trkpt lat="44.50495" lon="0.66113">
        <ele>193.8</ele>
        <time>2017-01-29T10:15:56.000Z</time>
      </trkpt>
      <trkpt lat="44.50496" lon="0.66105">
        <ele>193.3</ele>
        <time>2017-01-29T10:15:57.000Z</time>
      </trkpt>
      <trkpt lat="44.50498" lon="0.66097">
        <ele>192.8</ele>
        <time>2017-01-29T10:15:58.000Z</time>
      </trkpt>
      <trkpt lat="44.50499" lon="0.66088">
        <ele>192.2</ele>
        <time>2017-01-29T10:15:59.000Z</time>
      </trkpt>
      <trkpt lat="44.505" lon="0.66078">
        <ele>191.5</ele>
        <time>2017-01-29T10:16:00.000Z</time>
      </trkpt>
      <trkpt lat="44.50502" lon="0.66069">
        <ele>190.6</ele>
        <time>2017-01-29T10:16:01.000Z</time>
      </trkpt>
      <trkpt lat="44.50503" lon="0.6606">
        <ele>189.9</ele>
        <time>2017-01-29T10:16:02.000Z</time>
      </trkpt>
      <trkpt lat="44.50505" lon="0.66053">
        <ele>189.5</ele>
        <time>2017-01-29T10:16:03.000Z</time>
      </trkpt>
      <trkpt lat="44.50507" lon="0.66048">
        <ele>189.4</ele>
        <time>2017-01-29T10:16:04.000Z</time>
      </trkpt>
      <trkpt lat="44.5051" lon="0.66044">
        <ele>189.6</ele>
        <time>2017-01-29T10:16:05.000Z</time>
      </trkpt>
      <trkpt lat="44.50513" lon="0.66042">
        <ele>190</ele>
        <time>2017-01-29T10:16:06.000Z</time>
      </trkpt>
      <trkpt lat="44.50516" lon="0.66041">
        <ele>190.6</ele>
        <time>2017-01-29T10:16:07.000Z</time>
      </trkpt>
      <trkpt lat="44.50519" lon="0.6604">
        <ele>191.2</ele>
        <time>2017-01-29T10:16:08.000Z</time>
      </trkpt>
      <trkpt lat="44.50522" lon="0.66039">
        <ele>191.6</ele>
        <time>2017-01-29T10:16:09.000Z</time>
      </trkpt>
      <trkpt lat="44.50524" lon="0.66038">
        <ele>191.9</ele>
        <time>2017-01-29T10:16:10.000Z</time>
      </trkpt>
      <trkpt lat="44.50526" lon="0.66036">
        <ele>192.1</ele>
        <time>2017-01-29T10:16:11.000Z</time>
      </trkpt>
      <trkpt lat="44.50527" lon="0.66034">
        <ele>192.3</ele>
        <time>2017-01-29T10:16:12.000Z</time>
      </trkpt>
      <trkpt lat="44.50529" lon="0.66032">
        <ele>192.5</ele>
        <time>2017-01-29T10:16:13.000Z</time>
      </trkpt>
      <trkpt lat="44.50531" lon="0.6603">
        <ele>192.6</ele>
        <time>2017-01-29T10:16:14.000Z</time>
      </trkpt>
      <trkpt lat="44.50532" lon="0.66028">
        <ele>192.8</ele>
        <time>2017-01-29T10:16:15.000Z</time>
      </trkpt>
      <trkpt lat="44.50534" lon="0.66026">
        <ele>192.9</ele>
        <time>2017-01-29T10:16:16.000Z</time>
      </trkpt>
      <trkpt lat="44.50536" lon="0.66023">
        <ele>193</ele>
        <time>2017-01-29T10:16:17.000Z</time>
      </trkpt>
      <trkpt lat="44.50538" lon="0.66021">
        <ele>193.1</ele>
        <time>2017-01-29T10:16:18.000Z</time>
      </trkpt>
      <trkpt lat="44.50539" lon="0.66018">
        <ele>193.2</ele>
        <time>2017-01-29T10:16:19.000Z</time>
      </trkpt>
      <trkpt lat="44.50541" lon="0.66015">
        <ele>193.3</ele>
        <time>2017-01-29T10:16:20.000Z</time>
      </trkpt>
      <trkpt lat="44.50543" lon="0.66013">
        <ele>193.4</ele>
        <time>2017-01-29T10:16:21.000Z</time>
      </trkpt>
      <trkpt lat="44.50546" lon="0.6601">
        <ele>193.5</ele>
        <time>2017-01-29T10:16:22.000Z</time>
      </trkpt>
      <trkpt lat="44.50548" lon="0.66006">
        <ele>193.7</ele>
        <time>2017-01-29T10:16:23.000Z</time>
      </trkpt>
      <trkpt lat="44.5055" lon="0.66003">
        <ele>193.9</ele>
        <time>2017-01-29T10:16:24.000Z</time>
      </trkpt>
      <trkpt lat="44.50553" lon="0.66">
        <ele>194</ele>
        <time>2017-01-29T10:16:25.000Z</time>
      </trkpt>
      <trkpt lat="44.50556" lon="0.65996">
        <ele>194.2</ele>
        <time>2017-01-29T10:16:26.000Z</time>
      </trkpt>
      <trkpt lat="44.50558" lon="0.65992">
        <ele>194.3</ele>
        <time>2017-01-29T10:16:27.000Z</time>
      </trkpt>
      <trkpt lat="44.50561" lon="0.65988">
        <ele>194.4</ele>
        <time>2017-01-29T10:16:28.000Z</time>
      </trkpt>
      <trkpt lat="44.50564" lon="0.65984">
        <ele>194.5</ele>
        <time>2017-01-29T10:16:29.000Z</time>
      </trkpt>
      <trkpt lat="44.50566" lon="0.6598">
        <ele>194.5</ele>
        <time>2017-01-29T10:16:30.000Z</time>
      </trkpt>
      <trkpt lat="44.50569" lon="0.65975">
        <ele>194.5</ele>
        <time>2017-01-29T10:16:31.000Z</time>
      </trkpt>
      <trkpt lat="44.50571" lon="0.65971">
        <ele>194.5</ele>
        <time>2017-01-29T10:16:32.000Z</time>
      </trkpt>
      <trkpt lat="44.50574" lon="0.65967">
        <ele>194.5</ele>
        <time>2017-01-29T10:16:33.000Z</time>
      </trkpt>
      <trkpt lat="44.50576" lon="0.65963">
        <ele>194.5</ele>
        <time>2017-01-29T10:16:34.000Z</time>
      </trkpt>
      <trkpt lat="44.50578" lon="0.65959">
        <ele>194.4</ele>
        <time>2017-01-29T10:16:35.000Z</time>
      </trkpt>
      <trkpt lat="44.5058" lon="0.65955">
        <ele>194.4</ele>
        <time>2017-01-29T10:16:36.000Z</time>
      </trkpt>
      <trkpt lat="44.50582" lon="0.65951">
        <ele>194.3</ele>
        <time>2017-01-29T10:16:37.000Z</time>
      </trkpt>
      <trkpt lat="44.50584" lon="0.65947">
        <ele>194.1</ele>
        <time>2017-01-29T10:16:38.000Z</time>
      </trkpt>
      <trkpt lat="44.50586" lon="0.65943">
        <ele>193.8</ele>
        <time>2017-01-29T10:16:39.000Z</time>
      </trkpt>
      <trkpt lat="44.50588" lon="0.65938">
        <ele>193.5</ele>
        <time>2017-01-29T10:16:40.000Z</time>
      </trkpt>
      <trkpt lat="44.50589" lon="0.65933">
        <ele>193.2</ele>
        <time>2017-01-29T10:16:41.000Z</time>
      </trkpt>
      <trkpt lat="44.50591" lon="0.65929">
        <ele>193.1</ele>
        <time>2017-01-29T10:16:42.000Z</time>
      </trkpt>
      <trkpt lat="44.50593" lon="0.65926">
        <ele>193.1</ele>
        <time>2017-01-29T10:16:43.000Z</time>
      </trkpt>
      <trkpt lat="44.50595" lon="0.65924">
        <ele>193.2</ele>
        <time>2017-01-29T10:16:44.000Z</time>
      </trkpt>
      <trkpt lat="44.50597" lon="0.65923">
        <ele>193.4</ele>
        <time>2017-01-29T10:16:45.000Z</time>
      </trkpt>
      <trkpt lat="44.50599" lon="0.65921">
        <ele>193.5</ele>
        <time>2017-01-29T10:16:46.000Z</time>
      </trkpt>
      <trkpt lat="44.50601" lon="0.65919">
        <ele>193.6</ele>
        <time>2017-01-29T10:16:47.000Z</time>
      </trkpt>
      <trkpt lat="44.50602" lon="0.65916">
        <ele>193.6</ele>
        <time>2017-01-29T10:16:48.000Z</time>
      </trkpt>
      <trkpt lat="44.50604" lon="0.65914">
        <ele>193.5</ele>
        <time>2017-01-29T10:16:49.000Z</time>
      </trkpt>
      <trkpt lat="44.50605" lon="0.65911">
        <ele>193.4</ele>
        <time>2017-01-29T10:16:50.000Z</time>
      </trkpt>
      <trkpt lat="44.50607" lon="0.65907">
        <ele>193.2</ele>
        <time>2017-01-29T10:16:51.000Z</time>
      </trkpt>
      <trkpt lat="44.50608" lon="0.65903">
        <ele>193</ele>
        <time>2017-01-29T10:16:52.000Z</time>
      </trkpt>
      <trkpt lat="44.50609" lon="0.65899">
        <ele>192.7</ele>
        <time>2017-01-29T10:16:53.000Z</time>
      </trkpt>
      <trkpt lat="44.5061" lon="0.65895">
        <ele>192.4</ele>
        <time>2017-01-29T10:16:54.000Z</time>
      </trkpt>
      <trkpt lat="44.50611" lon="0.65891">
        <ele>192.1</ele>
        <time>2017-01-29T10:16:55.000Z</time>
      </trkpt>
      <trkpt lat="44.50612" lon="0.65887">
        <ele>191.9</ele>
        <time>2017-01-29T10:16:56.000Z</time>
      </trkpt>
      <trkpt lat="44.50614" lon="0.65883">
        <ele>191.8</ele>
        <time>2017-01-29T10:16:57.000Z</time>
      </trkpt>
      <trkpt lat="44.50615" lon="0.6588">
        <ele>191.6</ele>
        <time>2017-01-29T10:16:58.000Z</time>
      </trkpt>
      <trkpt lat="44.50617" lon="0.65878">
        <ele>191.6</ele>
        <time>2017-01-29T10:16:59.000Z</time>
      </trkpt>
      <trkpt lat="44.50618" lon="0.65875">
        <ele>191.5</ele>
        <time>2017-01-29T10:17:00.000Z</time>
      </trkpt>
      <trkpt lat="44.50619" lon="0.65872">
        <ele>191.4</ele>
        <time>2017-01-29T10:17:01.000Z</time>
      </trkpt>
      <trkpt lat="44.50619" lon="0.6587">
        <ele>191.2</ele>
        <time>2017-01-29T10:17:02.000Z</time>
      </trkpt>
      <trkpt lat="44.5062" lon="0.65867">
        <ele>190.9</ele>
        <time>2017-01-29T10:17:03.000Z</time>
      </trkpt>
      <trkpt lat="44.5062" lon="0.65864">
        <ele>190.6</ele>
        <time>2017-01-29T10:17:04.000Z</time>
      </trkpt>
      <trkpt lat="44.5062" lon="0.65861">
        <ele>190.2</ele>
        <time>2017-01-29T10:17:05.000Z</time>
      </trkpt>
      <trkpt lat="44.5062" lon="0.65856">
        <ele>189.8</ele>
        <time>2017-01-29T10:17:06.000Z</time>
      </trkpt>
      <trkpt lat="44.50621" lon="0.65852">
        <ele>189.4</ele>
        <time>2017-01-29T10:17:07.000Z</time>
      </trkpt>
      <trkpt lat="44.50622" lon="0.65847">
        <ele>189</ele>
        <time>2017-01-29T10:17:08.000Z</time>
      </trkpt>
      <trkpt lat="44.50623" lon="0.65843">
        <ele>188.8</ele>
        <time>2017-01-29T10:17:09.000Z</time>
      </trkpt>
      <trkpt lat="44.50624" lon="0.65839">
        <ele>188.6</ele>
        <time>2017-01-29T10:17:10.000Z</time>
      </trkpt>
      <trkpt lat="44.50626" lon="0.65835">
        <ele>188.5</ele>
        <time>2017-01-29T10:17:11.000Z</time>
      </trkpt>
      <trkpt lat="44.50628" lon="0.65832">
        <ele>188.4</ele>
        <time>2017-01-29T10:17:12.000Z</time>
      </trkpt>
      <trkpt lat="44.5063" lon="0.65829">
        <ele>188.3</ele>
        <time>2017-01-29T10:17:13.000Z</time>
      </trkpt>
      <trkpt lat="44.50632" lon="0.65826">
        <ele>188.3</ele>
        <time>2017-01-29T10:17:14.000Z</time>
      </trkpt>
      <trkpt lat="44.50634" lon="0.65824">
        <ele>188.3</ele>
        <time>2017-01-29T10:17:15.000Z</time>
      </trkpt>
      <trkpt lat="44.50636" lon="0.65822">
        <ele>188.4</ele>
        <time>2017-01-29T10:17:16.000Z</time>
      </trkpt>
      <trkpt lat="44.50638" lon="0.6582">
        <ele>188.5</ele>
        <time>2017-01-29T10:17:17.000Z</time>
      </trkpt>
      <trkpt lat="44.5064" lon="0.65818">
        <ele>188.6</ele>
        <time>2017-01-29T10:17:18.000Z</time>
      </trkpt>
      <trkpt lat="44.50642" lon="0.65816">
        <ele>188.7</ele>
        <time>2017-01-29T10:17:19.000Z</time>
      </trkpt>
      <trkpt lat="44.50644" lon="0.65815">
        <ele>188.9</ele>
        <time>2017-01-29T10:17:20.000Z</time>
      </trkpt>
      <trkpt lat="44.50646" lon="0.65813">
        <ele>189.1</ele>
        <time>2017-01-29T10:17:21.000Z</time>
      </trkpt>
      <trkpt lat="44.50648" lon="0.65812">
        <ele>189.2</ele>
        <time>2017-01-29T10:17:22.000Z</time>
      </trkpt>
      <trkpt lat="44.5065" lon="0.6581">
        <ele>189.4</ele>
        <time>2017-01-29T10:17:23.000Z</time>
      </trkpt>
      <trkpt lat="44.50652" lon="0.65809">
        <ele>189.6</ele>
        <time>2017-01-29T10:17:24.000Z</time>
      </trkpt>
      <trkpt lat="44.50654" lon="0.65809">
        <ele>189.8</ele>
        <time>2017-01-29T10:17:25.000Z</time>
      </trkpt>
      <trkpt lat="44.50655" lon="0.65808">
        <ele>190</ele>
        <time>2017-01-29T10:17:26.000Z</time>
      </trkpt>
      <trkpt lat="44.50657" lon="0.65808">
        <ele>190.2</ele>
        <time>2017-01-29T10:17:27.000Z</time>
      </trkpt>
      <trkpt lat="44.50658" lon="0.65808">
        <ele>190.5</ele>
        <time>2017-01-29T10:17:28.000Z</time>
      </trkpt>
      <trkpt lat="44.5066" lon="0.65808">
        <ele>190.8</ele>
        <time>2017-01-29T10:17:29.000Z</time>
      </trkpt>
      <trkpt lat="44.50661" lon="0.65808">
        <ele>191.1</ele>
        <time>2017-01-29T10:17:30.000Z</time>
      </trkpt>
      <trkpt lat="44.50663" lon="0.65809">
        <ele>191.5</ele>
        <time>2017-01-29T10:17:31.000Z</time>
      </trkpt>
      <trkpt lat="44.50665" lon="0.65809">
        <ele>191.9</ele>
        <time>2017-01-29T10:17:32.000Z</time>
      </trkpt>
      <trkpt lat="44.50667" lon="0.65809">
        <ele>192.2</ele>
        <time>2017-01-29T10:17:33.000Z</time>
      </trkpt>
      <trkpt lat="44.50669" lon="0.65808">
        <ele>192.4</ele>
        <time>2017-01-29T10:17:34.000Z</time>
      </trkpt>
      <trkpt lat="44.5067" lon="0.65808">
        <ele>192.6</ele>
        <time>2017-01-29T10:17:35.000Z</time>
      </trkpt>
      <trkpt lat="44.50672" lon="0.65808">
        <ele>192.7</ele>
        <time>2017-01-29T10:17:36.000Z</time>
      </trkpt>
      <trkpt lat="44.50672" lon="0.65809">
        <ele>192.9</ele>
        <time>2017-01-29T10:17:37.000Z</time>
      </trkpt>
      <trkpt lat="44.50674" lon="0.65809">
        <ele>193</ele>
        <time>2017-01-29T10:17:38.000Z</time>
      </trkpt>
      <trkpt lat="44.50675" lon="0.65809">
        <ele>193.2</ele>
        <time>2017-01-29T10:17:39.000Z</time>
      </trkpt>
      <trkpt lat="44.50677" lon="0.65809">
        <ele>193.4</ele>
        <time>2017-01-29T10:17:40.000Z</time>
      </trkpt>
      <trkpt lat="44.50679" lon="0.65809">
        <ele>193.7</ele>
        <time>2017-01-29T10:17:41.000Z</time>
      </trkpt>
      <trkpt lat="44.5068" lon="0.6581">
        <ele>193.9</ele>
        <time>2017-01-29T10:17:42.000Z</time>
      </trkpt>
      <trkpt lat="44.50682" lon="0.6581">
        <ele>194.1</ele>
        <time>2017-01-29T10:17:43.000Z</time>
      </trkpt>
      <trkpt lat="44.50683" lon="0.6581">
        <ele>194.3</ele>
        <time>2017-01-29T10:17:44.000Z</time>
      </trkpt>
      <trkpt lat="44.50685" lon="0.6581">
        <ele>194.5</ele>
        <time>2017-01-29T10:17:45.000Z</time>
      </trkpt>
      <trkpt lat="44.50687" lon="0.6581">
        <ele>194.6</ele>
        <time>2017-01-29T10:17:46.000Z</time>
      </trkpt>
      <trkpt lat="44.50687" lon="0.6581">
        <ele>194.7</ele>
        <time>2017-01-29T10:17:47.000Z</time>
      </trkpt>
      <trkpt lat="44.50688" lon="0.6581">
        <ele>194.7</ele>
        <time>2017-01-29T10:17:48.000Z</time>
      </trkpt>
      <trkpt lat="44.50689" lon="0.6581">
        <ele>194.9</ele>
        <time>2017-01-29T10:17:49.000Z</time>
      </trkpt>
      <trkpt lat="44.50691" lon="0.6581">
        <ele>195.1</ele>
        <time>2017-01-29T10:17:50.000Z</time>
      </trkpt>
      <trkpt lat="44.50693" lon="0.6581">
        <ele>195.3</ele>
        <time>2017-01-29T10:17:51.000Z</time>
      </trkpt>
      <trkpt lat="44.50695" lon="0.65811">
        <ele>195.6</ele>
        <time>2017-01-29T10:17:52.000Z</time>
      </trkpt>
      <trkpt lat="44.50697" lon="0.65811">
        <ele>195.8</ele>
        <time>2017-01-29T10:17:53.000Z</time>
      </trkpt>
      <trkpt lat="44.50699" lon="0.65811">
        <ele>196</ele>
        <time>2017-01-29T10:17:54.000Z</time>
      </trkpt>
      <trkpt lat="44.507" lon="0.65811">
        <ele>196.2</ele>
        <time>2017-01-29T10:17:55.000Z</time>
      </trkpt>
      <trkpt lat="44.50702" lon="0.65811">
        <ele>196.4</ele>
        <time>2017-01-29T10:17:56.000Z</time>
      </trkpt>
      <trkpt lat="44.50704" lon="0.65811">
        <ele>196.5</ele>
        <time>2017-01-29T10:17:57.000Z</time>
      </trkpt>
      <trkpt lat="44.50705" lon="0.6581">
        <ele>196.7</ele>
        <time>2017-01-29T10:17:58.000Z</time>
      </trkpt>
      <trkpt lat="44.50707" lon="0.6581">
        <ele>196.8</ele>
        <time>2017-01-29T10:17:59.000Z</time>
      </trkpt>
      <trkpt lat="44.50708" lon="0.6581">
        <ele>197</ele>
        <time>2017-01-29T10:18:00.000Z</time>
      </trkpt>
      <trkpt lat="44.50709" lon="0.6581">
        <ele>197.1</ele>
        <time>2017-01-29T10:18:01.000Z</time>
      </trkpt>
      <trkpt lat="44.50711" lon="0.6581">
        <ele>197.2</ele>
        <time>2017-01-29T10:18:02.000Z</time>
      </trkpt>
      <trkpt lat="44.50712" lon="0.6581">
        <ele>197.3</ele>
        <time>2017-01-29T10:18:03.000Z</time>
      </trkpt>
      <trkpt lat="44.50713" lon="0.6581">
        <ele>197.4</ele>
        <time>2017-01-29T10:18:04.000Z</time>
      </trkpt>
      <trkpt lat="44.50715" lon="0.65809">
        <ele>197.5</ele>
        <time>2017-01-29T10:18:05.000Z</time>
      </trkpt>
      <trkpt lat="44.50716" lon="0.65809">
        <ele>197.6</ele>
        <time>2017-01-29T10:18:06.000Z</time>
      </trkpt>
      <trkpt lat="44.50718" lon="0.65809">
        <ele>197.8</ele>
        <time>2017-01-29T10:18:07.000Z</time>
      </trkpt>
      <trkpt lat="44.50719" lon="0.65809">
        <ele>197.9</ele>
        <time>2017-01-29T10:18:08.000Z</time>
      </trkpt>
      <trkpt lat="44.50721" lon="0.65808">
        <ele>198</ele>
        <time>2017-01-29T10:18:09.000Z</time>
      </trkpt>
      <trkpt lat="44.50722" lon="0.65808">
        <ele>198.1</ele>
        <time>2017-01-29T10:18:10.000Z</time>
      </trkpt>
      <trkpt lat="44.50724" lon="0.65808">
        <ele>198.2</ele>
        <time>2017-01-29T10:18:11.000Z</time>
      </trkpt>
      <trkpt lat="44.50724" lon="0.65808">
        <ele>198.3</ele>
        <time>2017-01-29T10:18:12.000Z</time>
      </trkpt>
      <trkpt lat="44.50725" lon="0.65808">
        <ele>198.4</ele>
        <time>2017-01-29T10:18:13.000Z</time>
      </trkpt>
      <trkpt lat="44.50725" lon="0.65808">
        <ele>198.5</ele>
        <time>2017-01-29T10:18:14.000Z</time>
      </trkpt>
      <trkpt lat="44.50726" lon="0.65808">
        <ele>198.5</ele>
        <time>2017-01-29T10:18:15.000Z</time>
      </trkpt>
      <trkpt lat="44.50726" lon="0.65808">
        <ele>198.5</ele>
        <time>2017-01-29T10:18:16.000Z</time>
      </trkpt>
      <trkpt lat="44.50729" lon="0.65808">
        <ele>198.8</ele>
        <time>2017-01-29T10:18:17.000Z</time>
      </trkpt>
      <trkpt lat="44.50731" lon="0.65807">
        <ele>198.9</ele>
        <time>2017-01-29T10:18:18.000Z</time>
      </trkpt>
      <trkpt lat="44.50732" lon="0.65807">
        <ele>199</ele>
        <time>2017-01-29T10:18:19.000Z</time>
      </trkpt>
      <trkpt lat="44.50733" lon="0.65807">
        <ele>199.1</ele>
        <time>2017-01-29T10:18:20.000Z</time>
      </trkpt>
      <trkpt lat="44.50734" lon="0.65807">
        <ele>199.1</ele>
        <time>2017-01-29T10:18:21.000Z</time>
      </trkpt>
      <trkpt lat="44.50734" lon="0.65807">
        <ele>199.2</ele>
        <time>2017-01-29T10:18:22.000Z</time>
      </trkpt>
      <trkpt lat="44.50735" lon="0.65807">
        <ele>199.2</ele>
        <time>2017-01-29T10:18:23.000Z</time>
      </trkpt>
      <trkpt lat="44.50736" lon="0.65807">
        <ele>199.3</ele>
        <time>2017-01-29T10:18:24.000Z</time>
      </trkpt>
      <trkpt lat="44.50737" lon="0.65806">
        <ele>199.4</ele>
        <time>2017-01-29T10:18:25.000Z</time>
      </trkpt>
      <trkpt lat="44.50739" lon="0.65806">
        <ele>199.5</ele>
        <time>2017-01-29T10:18:26.000Z</time>
      </trkpt>
      <trkpt lat="44.5074" lon="0.65806">
        <ele>199.6</ele>
        <time>2017-01-29T10:18:27.000Z</time>
      </trkpt>
      <trkpt lat="44.50742" lon="0.65806">
        <ele>199.8</ele>
        <time>2017-01-29T10:18:28.000Z</time>
      </trkpt>
      <trkpt lat="44.50744" lon="0.65805">
        <ele>199.9</ele>
        <time>2017-01-29T10:18:29.000Z</time>
      </trkpt>
      <trkpt lat="44.50745" lon="0.65805">
        <ele>200</ele>
        <time>2017-01-29T10:18:30.000Z</time>
      </trkpt>
      <trkpt lat="44.50746" lon="0.65805">
        <ele>200.2</ele>
        <time>2017-01-29T10:18:31.000Z</time>
      </trkpt>
      <trkpt lat="44.50748" lon="0.65805">
        <ele>200.3</ele>
        <time>2017-01-29T10:18:32.000Z</time>
      </trkpt>
      <trkpt lat="44.50749" lon="0.65805">
        <ele>200.4</ele>
        <time>2017-01-29T10:18:33.000Z</time>
      </trkpt>
      <trkpt lat="44.5075" lon="0.65805">
        <ele>200.5</ele>
        <time>2017-01-29T10:18:34.000Z</time>
      </trkpt>
      <trkpt lat="44.50751" lon="0.65805">
        <ele>200.7</ele>
        <time>2017-01-29T10:18:35.000Z</time>
      </trkpt>
      <trkpt lat="44.50753" lon="0.65805">
        <ele>200.9</ele>
        <time>2017-01-29T10:18:36.000Z</time>
      </trkpt>
      <trkpt lat="44.50754" lon="0.65805">
        <ele>201</ele>
        <time>2017-01-29T10:18:37.000Z</time>
      </trkpt>
      <trkpt lat="44.50755" lon="0.65805">
        <ele>201.2</ele>
        <time>2017-01-29T10:18:38.000Z</time>
      </trkpt>
      <trkpt lat="44.50756" lon="0.65805">
        <ele>201.3</ele>
        <time>2017-01-29T10:18:39.000Z</time>
      </trkpt>
      <trkpt lat="44.50757" lon="0.65805">
        <ele>201.4</ele>
        <time>2017-01-29T10:18:40.000Z</time>
      </trkpt>
      <trkpt lat="44.50758" lon="0.65805">
        <ele>201.6</ele>
        <time>2017-01-29T10:18:41.000Z</time>
      </trkpt>
      <trkpt lat="44.50758" lon="0.65805">
        <ele>201.6</ele>
        <time>2017-01-29T10:18:42.000Z</time>
      </trkpt>
      <trkpt lat="44.50759" lon="0.65805">
        <ele>201.7</ele>
        <time>2017-01-29T10:18:43.000Z</time>
      </trkpt>
      <trkpt lat="44.50759" lon="0.65805">
        <ele>201.7</ele>
        <time>2017-01-29T10:18:44.000Z</time>
      </trkpt>
      <trkpt lat="44.5076" lon="0.65805">
        <ele>201.8</ele>
        <time>2017-01-29T10:18:45.000Z</time>
      </trkpt>
      <trkpt lat="44.50761" lon="0.65804">
        <ele>201.9</ele>
        <time>2017-01-29T10:18:46.000Z</time>
      </trkpt>
      <trkpt lat="44.50762" lon="0.65804">
        <ele>202</ele>
        <time>2017-01-29T10:18:47.000Z</time>
      </trkpt>
      <trkpt lat="44.50764" lon="0.65804">
        <ele>202.2</ele>
        <time>2017-01-29T10:18:48.000Z</time>
      </trkpt>
      <trkpt lat="44.50766" lon="0.65804">
        <ele>202.4</ele>
        <time>2017-01-29T10:18:49.000Z</time>
      </trkpt>
      <trkpt lat="44.50767" lon="0.65803">
        <ele>202.6</ele>
        <time>2017-01-29T10:18:50.000Z</time>
      </trkpt>
      <trkpt lat="44.50768" lon="0.65803">
        <ele>202.7</ele>
        <time>2017-01-29T10:18:51.000Z</time>
      </trkpt>
      <trkpt lat="44.5077" lon="0.65803">
        <ele>202.8</ele>
        <time>2017-01-29T10:18:52.000Z</time>
      </trkpt>
      <trkpt lat="44.50771" lon="0.65803">
        <ele>203</ele>
        <time>2017-01-29T10:18:53.000Z</time>
      </trkpt>
      <trkpt lat="44.50772" lon="0.65803">
        <ele>203.2</ele>
        <time>2017-01-29T10:18:54.000Z</time>
      </trkpt>
      <trkpt lat="44.50773" lon="0.65803">
        <ele>203.4</ele>
        <time>2017-01-29T10:18:55.000Z</time>
      </trkpt>
      <trkpt lat="44.50774" lon="0.65803">
        <ele>203.5</ele>
        <time>2017-01-29T10:18:56.000Z</time>
      </trkpt>
      <trkpt lat="44.50775" lon="0.65804">
        <ele>203.7</ele>
        <time>2017-01-29T10:18:57.000Z</time>
      </trkpt>
      <trkpt lat="44.50776" lon="0.65804">
        <ele>203.8</ele>
        <time>2017-01-29T10:18:58.000Z</time>
      </trkpt>
      <trkpt lat="44.50776" lon="0.65804">
        <ele>203.9</ele>
        <time>2017-01-29T10:18:59.000Z</time>
      </trkpt>
      <trkpt lat="44.50778" lon="0.65804">
        <ele>204.1</ele>
        <time>2017-01-29T10:19:00.000Z</time>
      </trkpt>
      <trkpt lat="44.50779" lon="0.65804">
        <ele>204.2</ele>
        <time>2017-01-29T10:19:01.000Z</time>
      </trkpt>
      <trkpt lat="44.5078" lon="0.65804">
        <ele>204.4</ele>
        <time>2017-01-29T10:19:02.000Z</time>
      </trkpt>
      <trkpt lat="44.50781" lon="0.65804">
        <ele>204.5</ele>
        <time>2017-01-29T10:19:03.000Z</time>
      </trkpt>
      <trkpt lat="44.50782" lon="0.65804">
        <ele>204.7</ele>
        <time>2017-01-29T10:19:04.000Z</time>
      </trkpt>
      <trkpt lat="44.50783" lon="0.65804">
        <ele>204.9</ele>
        <time>2017-01-29T10:19:05.000Z</time>
      </trkpt>
      <trkpt lat="44.50785" lon="0.65804">
        <ele>205.1</ele>
        <time>2017-01-29T10:19:06.000Z</time>
      </trkpt>
      <trkpt lat="44.50786" lon="0.65804">
        <ele>205.2</ele>
        <time>2017-01-29T10:19:07.000Z</time>
      </trkpt>
      <trkpt lat="44.50787" lon="0.65804">
        <ele>205.4</ele>
        <time>2017-01-29T10:19:08.000Z</time>
      </trkpt>
      <trkpt lat="44.50788" lon="0.65804">
        <ele>205.6</ele>
        <time>2017-01-29T10:19:09.000Z</time>
      </trkpt>
      <trkpt lat="44.5079" lon="0.65805">
        <ele>205.8</ele>
        <time>2017-01-29T10:19:10.000Z</time>
      </trkpt>
      <trkpt lat="44.50791" lon="0.65805">
        <ele>205.9</ele>
        <time>2017-01-29T10:19:11.000Z</time>
      </trkpt>
      <trkpt lat="44.50792" lon="0.65805">
        <ele>206.1</ele>
        <time>2017-01-29T10:19:12.000Z</time>
      </trkpt>
      <trkpt lat="44.50793" lon="0.65805">
        <ele>206.3</ele>
        <time>2017-01-29T10:19:13.000Z</time>
      </trkpt>
      <trkpt lat="44.50795" lon="0.65805">
        <ele>206.5</ele>
        <time>2017-01-29T10:19:14.000Z</time>
      </trkpt>
      <trkpt lat="44.50796" lon="0.65805">
        <ele>206.6</ele>
        <time>2017-01-29T10:19:15.000Z</time>
      </trkpt>
      <trkpt lat="44.50797" lon="0.65805">
        <ele>206.8</ele>
        <time>2017-01-29T10:19:16.000Z</time>
      </trkpt>
      <trkpt lat="44.50798" lon="0.65805">
        <ele>207</ele>
        <time>2017-01-29T10:19:17.000Z</time>
      </trkpt>
      <trkpt lat="44.508" lon="0.65805">
        <ele>207.1</ele>
        <time>2017-01-29T10:19:18.000Z</time>
      </trkpt>
      <trkpt lat="44.50801" lon="0.65805">
        <ele>207.3</ele>
        <time>2017-01-29T10:19:19.000Z</time>
      </trkpt>
      <trkpt lat="44.50802" lon="0.65805">
        <ele>207.5</ele>
        <time>2017-01-29T10:19:20.000Z</time>
      </trkpt>
      <trkpt lat="44.50803" lon="0.65805">
        <ele>207.6</ele>
        <time>2017-01-29T10:19:21.000Z</time>
      </trkpt>
      <trkpt lat="44.50804" lon="0.65805">
        <ele>207.8</ele>
        <time>2017-01-29T10:19:22.000Z</time>
      </trkpt>
      <trkpt lat="44.50805" lon="0.65805">
        <ele>207.9</ele>
        <time>2017-01-29T10:19:23.000Z</time>
      </trkpt>
      <trkpt lat="44.50807" lon="0.65805">
        <ele>208.1</ele>
        <time>2017-01-29T10:19:24.000Z</time>
      </trkpt>
      <trkpt lat="44.50808" lon="0.65805">
        <ele>208.2</ele>
        <time>2017-01-29T10:19:25.000Z</time>
      </trkpt>
      <trkpt lat="44.50809" lon="0.65805">
        <ele>208.4</ele>
        <time>2017-01-29T10:19:26.000Z</time>
      </trkpt>
      <trkpt lat="44.5081" lon="0.65805">
        <ele>208.5</ele>
        <time>2017-01-29T10:19:27.000Z</time>
      </trkpt>
      <trkpt lat="44.50811" lon="0.65805">
        <ele>208.6</ele>
        <time>2017-01-29T10:19:28.000Z</time>
      </trkpt>
      <trkpt lat="44.50812" lon="0.65805">
        <ele>208.7</ele>
        <time>2017-01-29T10:19:29.000Z</time>
      </trkpt>
      <trkpt lat="44.50813" lon="0.65804">
        <ele>208.9</ele>
        <time>2017-01-29T10:19:30.000Z</time>
      </trkpt>
      <trkpt lat="44.50814" lon="0.65804">
        <ele>209</ele>
        <time>2017-01-29T10:19:31.000Z</time>
      </trkpt>
      <trkpt lat="44.50815" lon="0.65804">
        <ele>209.1</ele>
        <time>2017-01-29T10:19:32.000Z</time>
      </trkpt>
      <trkpt lat="44.50816" lon="0.65804">
        <ele>209.2</ele>
        <time>2017-01-29T10:19:33.000Z</time>
      </trkpt>
      <trkpt lat="44.50817" lon="0.65804">
        <ele>209.3</ele>
        <time>2017-01-29T10:19:34.000Z</time>
      </trkpt>
      <trkpt lat="44.50818" lon="0.65804">
        <ele>209.5</ele>
        <time>2017-01-29T10:19:35.000Z</time>
      </trkpt>
      <trkpt lat="44.50819" lon="0.65804">
        <ele>209.6</ele>
        <time>2017-01-29T10:19:36.000Z</time>
      </trkpt>
      <trkpt lat="44.5082" lon="0.65804">
        <ele>209.8</ele>
        <time>2017-01-29T10:19:37.000Z</time>
      </trkpt>
      <trkpt lat="44.50821" lon="0.65804">
        <ele>209.9</ele>
        <time>2017-01-29T10:19:38.000Z</time>
      </trkpt>
      <trkpt lat="44.50823" lon="0.65804">
        <ele>210.1</ele>
        <time>2017-01-29T10:19:39.000Z</time>
      </trkpt>
      <trkpt lat="44.50824" lon="0.65804">
        <ele>210.2</ele>
        <time>2017-01-29T10:19:40.000Z</time>
      </trkpt>
      <trkpt lat="44.50825" lon="0.65804">
        <ele>210.4</ele>
        <time>2017-01-29T10:19:41.000Z</time>
      </trkpt>
      <trkpt lat="44.50826" lon="0.65804">
        <ele>210.5</ele>
        <time>2017-01-29T10:19:42.000Z</time>
      </trkpt>
      <trkpt lat="44.50827" lon="0.65804">
        <ele>210.7</ele>
        <time>2017-01-29T10:19:43.000Z</time>
      </trkpt>
      <trkpt lat="44.50828" lon="0.65805">
        <ele>210.9</ele>
        <time>2017-01-29T10:19:44.000Z</time>
      </trkpt>
      <trkpt lat="44.50829" lon="0.65805">
        <ele>211</ele>
        <time>2017-01-29T10:19:45.000Z</time>
      </trkpt>
      <trkpt lat="44.5083" lon="0.65806">
        <ele>211.2</ele>
        <time>2017-01-29T10:19:46.000Z</time>
      </trkpt>
      <trkpt lat="44.50831" lon="0.65806">
        <ele>211.4</ele>
        <time>2017-01-29T10:19:47.000Z</time>
      </trkpt>
      <trkpt lat="44.50832" lon="0.65806">
        <ele>211.5</ele>
        <time>2017-01-29T10:19:48.000Z</time>
      </trkpt>
      <trkpt lat="44.50833" lon="0.65806">
        <ele>211.7</ele>
        <time>2017-01-29T10:19:49.000Z</time>
      </trkpt>
      <trkpt lat="44.50834" lon="0.65805">
        <ele>211.7</ele>
        <time>2017-01-29T10:19:50.000Z</time>
      </trkpt>
      <trkpt lat="44.50835" lon="0.65804">
        <ele>211.6</ele>
        <time>2017-01-29T10:19:51.000Z</time>
      </trkpt>
      <trkpt lat="44.50836" lon="0.65804">
        <ele>211.6</ele>
        <time>2017-01-29T10:19:52.000Z</time>
      </trkpt>
      <trkpt lat="44.50838" lon="0.65803">
        <ele>211.6</ele>
        <time>2017-01-29T10:19:53.000Z</time>
      </trkpt>
      <trkpt lat="44.50839" lon="0.65802">
        <ele>211.5</ele>
        <time>2017-01-29T10:19:54.000Z</time>
      </trkpt>
      <trkpt lat="44.50841" lon="0.65801">
        <ele>211.5</ele>
        <time>2017-01-29T10:19:55.000Z</time>
      </trkpt>
      <trkpt lat="44.50842" lon="0.658">
        <ele>211.5</ele>
        <time>2017-01-29T10:19:56.000Z</time>
      </trkpt>
      <trkpt lat="44.50843" lon="0.65799">
        <ele>211.5</ele>
        <time>2017-01-29T10:19:57.000Z</time>
      </trkpt>
      <trkpt lat="44.50845" lon="0.65798">
        <ele>211.4</ele>
        <time>2017-01-29T10:19:58.000Z</time>
      </trkpt>
      <trkpt lat="44.50846" lon="0.65797">
        <ele>211.4</ele>
        <time>2017-01-29T10:19:59.000Z</time>
      </trkpt>
      <trkpt lat="44.50847" lon="0.65796">
        <ele>211.4</ele>
        <time>2017-01-29T10:20:00.000Z</time>
      </trkpt>
      <trkpt lat="44.50849" lon="0.65794">
        <ele>211.3</ele>
        <time>2017-01-29T10:20:01.000Z</time>
      </trkpt>
      <trkpt lat="44.5085" lon="0.65793">
        <ele>211.3</ele>
        <time>2017-01-29T10:20:02.000Z</time>
      </trkpt>
      <trkpt lat="44.50851" lon="0.65792">
        <ele>211.2</ele>
        <time>2017-01-29T10:20:03.000Z</time>
      </trkpt>
      <trkpt lat="44.50852" lon="0.6579">
        <ele>211.2</ele>
        <time>2017-01-29T10:20:04.000Z</time>
      </trkpt>
      <trkpt lat="44.50854" lon="0.65788">
        <ele>211.2</ele>
        <time>2017-01-29T10:20:05.000Z</time>
      </trkpt>
      <trkpt lat="44.50855" lon="0.65787">
        <ele>211.1</ele>
        <time>2017-01-29T10:20:06.000Z</time>
      </trkpt>
      <trkpt lat="44.50856" lon="0.65785">
        <ele>211.1</ele>
        <time>2017-01-29T10:20:07.000Z</time>
      </trkpt>
      <trkpt lat="44.50858" lon="0.65783">
        <ele>211.1</ele>
        <time>2017-01-29T10:20:08.000Z</time>
      </trkpt>
      <trkpt lat="44.50859" lon="0.65782">
        <ele>211.1</ele>
        <time>2017-01-29T10:20:09.000Z</time>
      </trkpt>
      <trkpt lat="44.5086" lon="0.6578">
        <ele>211.1</ele>
        <time>2017-01-29T10:20:10.000Z</time>
      </trkpt>
      <trkpt lat="44.50862" lon="0.65778">
        <ele>211</ele>
        <time>2017-01-29T10:20:11.000Z</time>
      </trkpt>
      <trkpt lat="44.50863" lon="0.65776">
        <ele>211</ele>
        <time>2017-01-29T10:20:12.000Z</time>
      </trkpt>
      <trkpt lat="44.50864" lon="0.65774">
        <ele>211</ele>
        <time>2017-01-29T10:20:13.000Z</time>
      </trkpt>
      <trkpt lat="44.50865" lon="0.65773">
        <ele>211</ele>
        <time>2017-01-29T10:20:14.000Z</time>
      </trkpt>
      <trkpt lat="44.50867" lon="0.65771">
        <ele>211</ele>
        <time>2017-01-29T10:20:15.000Z</time>
      </trkpt>
      <trkpt lat="44.50868" lon="0.65769">
        <ele>211</ele>
        <time>2017-01-29T10:20:16.000Z</time>
      </trkpt>
      <trkpt lat="44.50869" lon="0.65767">
        <ele>211.1</ele>
        <time>2017-01-29T10:20:17.000Z</time>
      </trkpt>
      <trkpt lat="44.5087" lon="0.65765">
        <ele>211.1</ele>
        <time>2017-01-29T10:20:18.000Z</time>
      </trkpt>
      <trkpt lat="44.50871" lon="0.65763">
        <ele>211.1</ele>
        <time>2017-01-29T10:20:19.000Z</time>
      </trkpt>
      <trkpt lat="44.50872" lon="0.65761">
        <ele>211.1</ele>
        <time>2017-01-29T10:20:20.000Z</time>
      </trkpt>
      <trkpt lat="44.50873" lon="0.65759">
        <ele>211.1</ele>
        <time>2017-01-29T10:20:21.000Z</time>
      </trkpt>
      <trkpt lat="44.50875" lon="0.65757">
        <ele>211.2</ele>
        <time>2017-01-29T10:20:22.000Z</time>
      </trkpt>
      <trkpt lat="44.50876" lon="0.65755">
        <ele>211.2</ele>
        <time>2017-01-29T10:20:23.000Z</time>
      </trkpt>
      <trkpt lat="44.50877" lon="0.65753">
        <ele>211.3</ele>
        <time>2017-01-29T10:20:24.000Z</time>
      </trkpt>
      <trkpt lat="44.50879" lon="0.65751">
        <ele>211.4</ele>
        <time>2017-01-29T10:20:25.000Z</time>
      </trkpt>
      <trkpt lat="44.5088" lon="0.65749">
        <ele>211.4</ele>
        <time>2017-01-29T10:20:26.000Z</time>
      </trkpt>
      <trkpt lat="44.50881" lon="0.65747">
        <ele>211.3</ele>
        <time>2017-01-29T10:20:27.000Z</time>
      </trkpt>
      <trkpt lat="44.50882" lon="0.65745">
        <ele>211.2</ele>
        <time>2017-01-29T10:20:28.000Z</time>
      </trkpt>
      <trkpt lat="44.50883" lon="0.65744">
        <ele>211.2</ele>
        <time>2017-01-29T10:20:29.000Z</time>
      </trkpt>
      <trkpt lat="44.50884" lon="0.65742">
        <ele>211.1</ele>
        <time>2017-01-29T10:20:30.000Z</time>
      </trkpt>
      <trkpt lat="44.50885" lon="0.6574">
        <ele>211.1</ele>
        <time>2017-01-29T10:20:31.000Z</time>
      </trkpt>
      <trkpt lat="44.50886" lon="0.65738">
        <ele>211</ele>
        <time>2017-01-29T10:20:32.000Z</time>
      </trkpt>
      <trkpt lat="44.50887" lon="0.65737">
        <ele>211</ele>
        <time>2017-01-29T10:20:33.000Z</time>
      </trkpt>
      <trkpt lat="44.50888" lon="0.65735">
        <ele>210.9</ele>
        <time>2017-01-29T10:20:34.000Z</time>
      </trkpt>
      <trkpt lat="44.50889" lon="0.65733">
        <ele>210.8</ele>
        <time>2017-01-29T10:20:35.000Z</time>
      </trkpt>
      <trkpt lat="44.5089" lon="0.65731">
        <ele>210.8</ele>
        <time>2017-01-29T10:20:36.000Z</time>
      </trkpt>
      <trkpt lat="44.50891" lon="0.65729">
        <ele>210.7</ele>
        <time>2017-01-29T10:20:37.000Z</time>
      </trkpt>
      <trkpt lat="44.50892" lon="0.65727">
        <ele>210.7</ele>
        <time>2017-01-29T10:20:38.000Z</time>
      </trkpt>
      <trkpt lat="44.50893" lon="0.65726">
        <ele>210.7</ele>
        <time>2017-01-29T10:20:39.000Z</time>
      </trkpt>
      <trkpt lat="44.50894" lon="0.65723">
        <ele>210.6</ele>
        <time>2017-01-29T10:20:40.000Z</time>
      </trkpt>
      <trkpt lat="44.50896" lon="0.65721">
        <ele>210.7</ele>
        <time>2017-01-29T10:20:41.000Z</time>
      </trkpt>
      <trkpt lat="44.50897" lon="0.65719">
        <ele>210.7</ele>
        <time>2017-01-29T10:20:42.000Z</time>
      </trkpt>
      <trkpt lat="44.50899" lon="0.65717">
        <ele>210.8</ele>
        <time>2017-01-29T10:20:43.000Z</time>
      </trkpt>
      <trkpt lat="44.50901" lon="0.65716">
        <ele>210.9</ele>
        <time>2017-01-29T10:20:44.000Z</time>
      </trkpt>
      <trkpt lat="44.50902" lon="0.65715">
        <ele>211</ele>
        <time>2017-01-29T10:20:45.000Z</time>
      </trkpt>
      <trkpt lat="44.50903" lon="0.65715">
        <ele>211.1</ele>
        <time>2017-01-29T10:20:46.000Z</time>
      </trkpt>
      <trkpt lat="44.50904" lon="0.65714">
        <ele>211.2</ele>
        <time>2017-01-29T10:20:47.000Z</time>
      </trkpt>
      <trkpt lat="44.50905" lon="0.65713">
        <ele>211.2</ele>
        <time>2017-01-29T10:20:48.000Z</time>
      </trkpt>
      <trkpt lat="44.50905" lon="0.65713">
        <ele>211.2</ele>
        <time>2017-01-29T10:20:49.000Z</time>
      </trkpt>
      <trkpt lat="44.50905" lon="0.65713">
        <ele>211.2</ele>
        <time>2017-01-29T10:20:50.000Z</time>
      </trkpt>
      <trkpt lat="44.50905" lon="0.65713">
        <ele>211.2</ele>
        <time>2017-01-29T10:20:51.000Z</time>
      </trkpt>
      <trkpt lat="44.50905" lon="0.65713">
        <ele>211.2</ele>
        <time>2017-01-29T10:20:52.000Z</time>
      </trkpt>
      <trkpt lat="44.50905" lon="0.65713">
        <ele>211.2</ele>
        <time>2017-01-29T10:20:53.000Z</time>
      </trkpt>
      <trkpt lat="44.50905" lon="0.65713">
        <ele>211.2</ele>
        <time>2017-01-29T10:20:54.000Z</time>
      </trkpt>
      <trkpt lat="44.50905" lon="0.65713">
        <ele>211.2</ele>
        <time>2017-01-29T10:20:55.000Z</time>
      </trkpt>
      <trkpt lat="44.50905" lon="0.65713">
        <ele>211.2</ele>
        <time>2017-01-29T10:20:56.000Z</time>
      </trkpt>
      <trkpt lat="44.50905" lon="0.65713">
        <ele>211.2</ele>
        <time>2017-01-29T10:20:57.000Z</time>
      </trkpt>
      <trkpt lat="44.50905" lon="0.65712">
        <ele>211.2</ele>
        <time>2017-01-29T10:20:58.000Z</time>
      </trkpt>
      <trkpt lat="44.50906" lon="0.65712">
        <ele>211.2</ele>
        <time>2017-01-29T10:20:59.000Z</time>
      </trkpt>
      <trkpt lat="44.50906" lon="0.65712">
        <ele>211.3</ele>
        <time>2017-01-29T10:21:00.000Z</time>
      </trkpt>
      <trkpt lat="44.50907" lon="0.65712">
        <ele>211.4</ele>
        <time>2017-01-29T10:21:01.000Z</time>
      </trkpt>
      <trkpt lat="44.50909" lon="0.65712">
        <ele>211.6</ele>
        <time>2017-01-29T10:21:02.000Z</time>
      </trkpt>
      <trkpt lat="44.5091" lon="0.65713">
        <ele>211.9</ele>
        <time>2017-01-29T10:21:03.000Z</time>
      </trkpt>
      <trkpt lat="44.50912" lon="0.65714">
        <ele>212.1</ele>
        <time>2017-01-29T10:21:04.000Z</time>
      </trkpt>
      <trkpt lat="44.50913" lon="0.65715">
        <ele>212.4</ele>
        <time>2017-01-29T10:21:05.000Z</time>
      </trkpt>
      <trkpt lat="44.50915" lon="0.65717">
        <ele>212.7</ele>
        <time>2017-01-29T10:21:06.000Z</time>
      </trkpt>
      <trkpt lat="44.50917" lon="0.65718">
        <ele>213</ele>
        <time>2017-01-29T10:21:07.000Z</time>
      </trkpt>
      <trkpt lat="44.50918" lon="0.65719">
        <ele>213.2</ele>
        <time>2017-01-29T10:21:08.000Z</time>
      </trkpt>
      <trkpt lat="44.5092" lon="0.65719">
        <ele>213.3</ele>
        <time>2017-01-29T10:21:09.000Z</time>
      </trkpt>
      <trkpt lat="44.50922" lon="0.6572">
        <ele>213.4</ele>
        <time>2017-01-29T10:21:10.000Z</time>
      </trkpt>
      <trkpt lat="44.50923" lon="0.6572">
        <ele>213.5</ele>
        <time>2017-01-29T10:21:11.000Z</time>
      </trkpt>
      <trkpt lat="44.50924" lon="0.6572">
        <ele>213.5</ele>
        <time>2017-01-29T10:21:12.000Z</time>
      </trkpt>
      <trkpt lat="44.50924" lon="0.6572">
        <ele>213.6</ele>
        <time>2017-01-29T10:21:13.000Z</time>
      </trkpt>
      <trkpt lat="44.50924" lon="0.6572">
        <ele>213.6</ele>
        <time>2017-01-29T10:21:14.000Z</time>
      </trkpt>
      <trkpt lat="44.50924" lon="0.6572">
        <ele>213.6</ele>
        <time>2017-01-29T10:21:15.000Z</time>
      </trkpt>
      <trkpt lat="44.50924" lon="0.6572">
        <ele>213.6</ele>
        <time>2017-01-29T10:21:16.000Z</time>
      </trkpt>
      <trkpt lat="44.50924" lon="0.6572">
        <ele>213.6</ele>
        <time>2017-01-29T10:21:17.000Z</time>
      </trkpt>
      <trkpt lat="44.50924" lon="0.6572">
        <ele>213.6</ele>
        <time>2017-01-29T10:21:18.000Z</time>
      </trkpt>
      <trkpt lat="44.50924" lon="0.6572">
        <ele>213.6</ele>
        <time>2017-01-29T10:21:19.000Z</time>
      </trkpt>
      <trkpt lat="44.50924" lon="0.6572">
        <ele>213.6</ele>
        <time>2017-01-29T10:21:20.000Z</time>
      </trkpt>
      <trkpt lat="44.50924" lon="0.6572">
        <ele>213.6</ele>
        <time>2017-01-29T10:21:21.000Z</time>
      </trkpt>
      <trkpt lat="44.50924" lon="0.65721">
        <ele>213.6</ele>
        <time>2017-01-29T10:21:22.000Z</time>
      </trkpt>
      <trkpt lat="44.50925" lon="0.65721">
        <ele>213.6</ele>
        <time>2017-01-29T10:21:23.000Z</time>
      </trkpt>
      <trkpt lat="44.50926" lon="0.65721">
        <ele>213.7</ele>
        <time>2017-01-29T10:21:24.000Z</time>
      </trkpt>
      <trkpt lat="44.50928" lon="0.65722">
        <ele>213.8</ele>
        <time>2017-01-29T10:21:25.000Z</time>
      </trkpt>
      <trkpt lat="44.50929" lon="0.65722">
        <ele>213.9</ele>
        <time>2017-01-29T10:21:26.000Z</time>
      </trkpt>
      <trkpt lat="44.50931" lon="0.65723">
        <ele>214</ele>
        <time>2017-01-29T10:21:27.000Z</time>
      </trkpt>
      <trkpt lat="44.50933" lon="0.65724">
        <ele>214.1</ele>
        <time>2017-01-29T10:21:28.000Z</time>
      </trkpt>
      <trkpt lat="44.50934" lon="0.65725">
        <ele>214.2</ele>
        <time>2017-01-29T10:21:29.000Z</time>
      </trkpt>
      <trkpt lat="44.50936" lon="0.65727">
        <ele>214.4</ele>
        <time>2017-01-29T10:21:30.000Z</time>
      </trkpt>
      <trkpt lat="44.50937" lon="0.65729">
        <ele>214.5</ele>
        <time>2017-01-29T10:21:31.000Z</time>
      </trkpt>
      <trkpt lat="44.50938" lon="0.65732">
        <ele>214.7</ele>
        <time>2017-01-29T10:21:32.000Z</time>
      </trkpt>
      <trkpt lat="44.50939" lon="0.65734">
        <ele>214.8</ele>
        <time>2017-01-29T10:21:33.000Z</time>
      </trkpt>
      <trkpt lat="44.5094" lon="0.65737">
        <ele>215</ele>
        <time>2017-01-29T10:21:34.000Z</time>
      </trkpt>
      <trkpt lat="44.5094" lon="0.6574">
        <ele>215.1</ele>
        <time>2017-01-29T10:21:35.000Z</time>
      </trkpt>
      <trkpt lat="44.50941" lon="0.65743">
        <ele>215.3</ele>
        <time>2017-01-29T10:21:36.000Z</time>
      </trkpt>
      <trkpt lat="44.50942" lon="0.65747">
        <ele>215.5</ele>
        <time>2017-01-29T10:21:37.000Z</time>
      </trkpt>
      <trkpt lat="44.50942" lon="0.65752">
        <ele>215.5</ele>
        <time>2017-01-29T10:21:38.000Z</time>
      </trkpt>
      <trkpt lat="44.50942" lon="0.65757">
        <ele>215.3</ele>
        <time>2017-01-29T10:21:39.000Z</time>
      </trkpt>
      <trkpt lat="44.50943" lon="0.65763">
        <ele>215.1</ele>
        <time>2017-01-29T10:21:40.000Z</time>
      </trkpt>
      <trkpt lat="44.50943" lon="0.65768">
        <ele>214.9</ele>
        <time>2017-01-29T10:21:41.000Z</time>
      </trkpt>
      <trkpt lat="44.50944" lon="0.65774">
        <ele>214.7</ele>
        <time>2017-01-29T10:21:42.000Z</time>
      </trkpt>
      <trkpt lat="44.50945" lon="0.6578">
        <ele>214.5</ele>
        <time>2017-01-29T10:21:43.000Z</time>
      </trkpt>
      <trkpt lat="44.50946" lon="0.65786">
        <ele>214.2</ele>
        <time>2017-01-29T10:21:44.000Z</time>
      </trkpt>
      <trkpt lat="44.50947" lon="0.65792">
        <ele>214</ele>
        <time>2017-01-29T10:21:45.000Z</time>
      </trkpt>
      <trkpt lat="44.50948" lon="0.65798">
        <ele>213.8</ele>
        <time>2017-01-29T10:21:46.000Z</time>
      </trkpt>
      <trkpt lat="44.50949" lon="0.65804">
        <ele>213.5</ele>
        <time>2017-01-29T10:21:47.000Z</time>
      </trkpt>
      <trkpt lat="44.5095" lon="0.65809">
        <ele>213.2</ele>
        <time>2017-01-29T10:21:48.000Z</time>
      </trkpt>
      <trkpt lat="44.50951" lon="0.65815">
        <ele>213</ele>
        <time>2017-01-29T10:21:49.000Z</time>
      </trkpt>
      <trkpt lat="44.50952" lon="0.65821">
        <ele>212.7</ele>
        <time>2017-01-29T10:21:50.000Z</time>
      </trkpt>
      <trkpt lat="44.50953" lon="0.65827">
        <ele>212.4</ele>
        <time>2017-01-29T10:21:51.000Z</time>
      </trkpt>
      <trkpt lat="44.50954" lon="0.65833">
        <ele>212.1</ele>
        <time>2017-01-29T10:21:52.000Z</time>
      </trkpt>
      <trkpt lat="44.50954" lon="0.65839">
        <ele>211.9</ele>
        <time>2017-01-29T10:21:53.000Z</time>
      </trkpt>
      <trkpt lat="44.50955" lon="0.65845">
        <ele>211.7</ele>
        <time>2017-01-29T10:21:54.000Z</time>
      </trkpt>
      <trkpt lat="44.50956" lon="0.6585">
        <ele>211.5</ele>
        <time>2017-01-29T10:21:55.000Z</time>
      </trkpt>
      <trkpt lat="44.50957" lon="0.65856">
        <ele>211.4</ele>
        <time>2017-01-29T10:21:56.000Z</time>
      </trkpt>
      <trkpt lat="44.50958" lon="0.65862">
        <ele>211.2</ele>
        <time>2017-01-29T10:21:57.000Z</time>
      </trkpt>
      <trkpt lat="44.50958" lon="0.65868">
        <ele>211</ele>
        <time>2017-01-29T10:21:58.000Z</time>
      </trkpt>
      <trkpt lat="44.50959" lon="0.65873">
        <ele>210.8</ele>
        <time>2017-01-29T10:21:59.000Z</time>
      </trkpt>
      <trkpt lat="44.5096" lon="0.65879">
        <ele>210.6</ele>
        <time>2017-01-29T10:22:00.000Z</time>
      </trkpt>
      <trkpt lat="44.50961" lon="0.65884">
        <ele>210.4</ele>
        <time>2017-01-29T10:22:01.000Z</time>
      </trkpt>
      <trkpt lat="44.50962" lon="0.65889">
        <ele>210.2</ele>
        <time>2017-01-29T10:22:02.000Z</time>
      </trkpt>
      <trkpt lat="44.50963" lon="0.65895">
        <ele>210</ele>
        <time>2017-01-29T10:22:03.000Z</time>
      </trkpt>
      <trkpt lat="44.50964" lon="0.659">
        <ele>209.8</ele>
        <time>2017-01-29T10:22:04.000Z</time>
      </trkpt>
      <trkpt lat="44.50965" lon="0.65905">
        <ele>209.6</ele>
        <time>2017-01-29T10:22:05.000Z</time>
      </trkpt>
      <trkpt lat="44.50965" lon="0.65911">
        <ele>209.4</ele>
        <time>2017-01-29T10:22:06.000Z</time>
      </trkpt>
      <trkpt lat="44.50966" lon="0.65916">
        <ele>209.2</ele>
        <time>2017-01-29T10:22:07.000Z</time>
      </trkpt>
      <trkpt lat="44.50967" lon="0.65921">
        <ele>209.3</ele>
        <time>2017-01-29T10:22:08.000Z</time>
      </trkpt>
      <trkpt lat="44.50968" lon="0.65926">
        <ele>209.4</ele>
        <time>2017-01-29T10:22:09.000Z</time>
      </trkpt>
      <trkpt lat="44.50969" lon="0.65931">
        <ele>209.5</ele>
        <time>2017-01-29T10:22:10.000Z</time>
      </trkpt>
      <trkpt lat="44.50969" lon="0.65936">
        <ele>209.6</ele>
        <time>2017-01-29T10:22:11.000Z</time>
      </trkpt>
      <trkpt lat="44.5097" lon="0.65941">
        <ele>209.7</ele>
        <time>2017-01-29T10:22:12.000Z</time>
      </trkpt>
      <trkpt lat="44.50971" lon="0.65946">
        <ele>209.8</ele>
        <time>2017-01-29T10:22:13.000Z</time>
      </trkpt>
      <trkpt lat="44.50971" lon="0.65951">
        <ele>209.9</ele>
        <time>2017-01-29T10:22:14.000Z</time>
      </trkpt>
      <trkpt lat="44.50972" lon="0.65956">
        <ele>209.9</ele>
        <time>2017-01-29T10:22:15.000Z</time>
      </trkpt>
      <trkpt lat="44.50973" lon="0.65961">
        <ele>210</ele>
        <time>2017-01-29T10:22:16.000Z</time>
      </trkpt>
      <trkpt lat="44.50973" lon="0.65966">
        <ele>210.1</ele>
        <time>2017-01-29T10:22:17.000Z</time>
      </trkpt>
      <trkpt lat="44.50974" lon="0.65971">
        <ele>210.2</ele>
        <time>2017-01-29T10:22:18.000Z</time>
      </trkpt>
      <trkpt lat="44.50975" lon="0.65976">
        <ele>210.3</ele>
        <time>2017-01-29T10:22:19.000Z</time>
      </trkpt>
      <trkpt lat="44.50975" lon="0.65981">
        <ele>210.4</ele>
        <time>2017-01-29T10:22:20.000Z</time>
      </trkpt>
      <trkpt lat="44.50976" lon="0.65986">
        <ele>210.5</ele>
        <time>2017-01-29T10:22:21.000Z</time>
      </trkpt>
      <trkpt lat="44.50977" lon="0.65991">
        <ele>210.6</ele>
        <time>2017-01-29T10:22:22.000Z</time>
      </trkpt>
      <trkpt lat="44.50977" lon="0.65996">
        <ele>210.7</ele>
        <time>2017-01-29T10:22:23.000Z</time>
      </trkpt>
      <trkpt lat="44.50978" lon="0.66002">
        <ele>210.8</ele>
        <time>2017-01-29T10:22:24.000Z</time>
      </trkpt>
      <trkpt lat="44.50979" lon="0.66007">
        <ele>210.7</ele>
        <time>2017-01-29T10:22:25.000Z</time>
      </trkpt>
      <trkpt lat="44.5098" lon="0.66012">
        <ele>210.7</ele>
        <time>2017-01-29T10:22:26.000Z</time>
      </trkpt>
      <trkpt lat="44.50981" lon="0.66018">
        <ele>210.6</ele>
        <time>2017-01-29T10:22:27.000Z</time>
      </trkpt>
      <trkpt lat="44.50982" lon="0.66023">
        <ele>210.6</ele>
        <time>2017-01-29T10:22:28.000Z</time>
      </trkpt>
      <trkpt lat="44.50983" lon="0.66029">
        <ele>210.5</ele>
        <time>2017-01-29T10:22:29.000Z</time>
      </trkpt>
      <trkpt lat="44.50985" lon="0.66034">
        <ele>210.5</ele>
        <time>2017-01-29T10:22:30.000Z</time>
      </trkpt>
      <trkpt lat="44.50986" lon="0.66039">
        <ele>210.4</ele>
        <time>2017-01-29T10:22:31.000Z</time>
      </trkpt>
      <trkpt lat="44.50987" lon="0.66044">
        <ele>210.4</ele>
        <time>2017-01-29T10:22:32.000Z</time>
      </trkpt>
      <trkpt lat="44.50989" lon="0.66049">
        <ele>210.3</ele>
        <time>2017-01-29T10:22:33.000Z</time>
      </trkpt>
      <trkpt lat="44.5099" lon="0.66054">
        <ele>210.3</ele>
        <time>2017-01-29T10:22:34.000Z</time>
      </trkpt>
      <trkpt lat="44.50992" lon="0.66059">
        <ele>210.2</ele>
        <time>2017-01-29T10:22:35.000Z</time>
      </trkpt>
      <trkpt lat="44.50994" lon="0.66064">
        <ele>210.2</ele>
        <time>2017-01-29T10:22:36.000Z</time>
      </trkpt>
      <trkpt lat="44.50996" lon="0.66069">
        <ele>210.1</ele>
        <time>2017-01-29T10:22:37.000Z</time>
      </trkpt>
      <trkpt lat="44.50998" lon="0.66074">
        <ele>210.1</ele>
        <time>2017-01-29T10:22:38.000Z</time>
      </trkpt>
      <trkpt lat="44.50999" lon="0.66078">
        <ele>210</ele>
        <time>2017-01-29T10:22:39.000Z</time>
      </trkpt>
      <trkpt lat="44.51001" lon="0.66082">
        <ele>209.9</ele>
        <time>2017-01-29T10:22:40.000Z</time>
      </trkpt>
      <trkpt lat="44.51002" lon="0.66087">
        <ele>209.8</ele>
        <time>2017-01-29T10:22:41.000Z</time>
      </trkpt>
      <trkpt lat="44.51003" lon="0.66091">
        <ele>209.7</ele>
        <time>2017-01-29T10:22:42.000Z</time>
      </trkpt>
      <trkpt lat="44.51004" lon="0.66095">
        <ele>209.6</ele>
        <time>2017-01-29T10:22:43.000Z</time>
      </trkpt>
      <trkpt lat="44.51005" lon="0.66099">
        <ele>209.4</ele>
        <time>2017-01-29T10:22:44.000Z</time>
      </trkpt>
      <trkpt lat="44.51006" lon="0.66104">
        <ele>209.3</ele>
        <time>2017-01-29T10:22:45.000Z</time>
      </trkpt>
      <trkpt lat="44.51008" lon="0.66108">
        <ele>209.2</ele>
        <time>2017-01-29T10:22:46.000Z</time>
      </trkpt>
      <trkpt lat="44.51009" lon="0.66113">
        <ele>209</ele>
        <time>2017-01-29T10:22:47.000Z</time>
      </trkpt>
      <trkpt lat="44.5101" lon="0.66118">
        <ele>208.9</ele>
        <time>2017-01-29T10:22:48.000Z</time>
      </trkpt>
      <trkpt lat="44.51012" lon="0.66122">
        <ele>208.7</ele>
        <time>2017-01-29T10:22:49.000Z</time>
      </trkpt>
      <trkpt lat="44.51013" lon="0.66127">
        <ele>208.6</ele>
        <time>2017-01-29T10:22:50.000Z</time>
      </trkpt>
      <trkpt lat="44.51015" lon="0.66132">
        <ele>208.5</ele>
        <time>2017-01-29T10:22:51.000Z</time>
      </trkpt>
      <trkpt lat="44.51016" lon="0.66137">
        <ele>208.3</ele>
        <time>2017-01-29T10:22:52.000Z</time>
      </trkpt>
      <trkpt lat="44.51018" lon="0.66142">
        <ele>208.2</ele>
        <time>2017-01-29T10:22:53.000Z</time>
      </trkpt>
      <trkpt lat="44.51019" lon="0.66147">
        <ele>208</ele>
        <time>2017-01-29T10:22:54.000Z</time>
      </trkpt>
      <trkpt lat="44.51021" lon="0.66152">
        <ele>207.9</ele>
        <time>2017-01-29T10:22:55.000Z</time>
      </trkpt>
      <trkpt lat="44.51023" lon="0.66157">
        <ele>207.7</ele>
        <time>2017-01-29T10:22:56.000Z</time>
      </trkpt>
      <trkpt lat="44.51024" lon="0.66162">
        <ele>207.6</ele>
        <time>2017-01-29T10:22:57.000Z</time>
      </trkpt>
      <trkpt lat="44.51026" lon="0.66166">
        <ele>207.4</ele>
        <time>2017-01-29T10:22:58.000Z</time>
      </trkpt>
      <trkpt lat="44.51028" lon="0.66171">
        <ele>207.4</ele>
        <time>2017-01-29T10:22:59.000Z</time>
      </trkpt>
      <trkpt lat="44.5103" lon="0.66176">
        <ele>207.3</ele>
        <time>2017-01-29T10:23:00.000Z</time>
      </trkpt>
      <trkpt lat="44.51032" lon="0.66181">
        <ele>207.3</ele>
        <time>2017-01-29T10:23:01.000Z</time>
      </trkpt>
      <trkpt lat="44.51034" lon="0.66185">
        <ele>207.2</ele>
        <time>2017-01-29T10:23:02.000Z</time>
      </trkpt>
      <trkpt lat="44.51036" lon="0.6619">
        <ele>207.2</ele>
        <time>2017-01-29T10:23:03.000Z</time>
      </trkpt>
      <trkpt lat="44.51038" lon="0.66195">
        <ele>207.2</ele>
        <time>2017-01-29T10:23:04.000Z</time>
      </trkpt>
      <trkpt lat="44.5104" lon="0.66199">
        <ele>207.2</ele>
        <time>2017-01-29T10:23:05.000Z</time>
      </trkpt>
      <trkpt lat="44.51043" lon="0.66204">
        <ele>207.1</ele>
        <time>2017-01-29T10:23:06.000Z</time>
      </trkpt>
      <trkpt lat="44.51045" lon="0.66209">
        <ele>207.1</ele>
        <time>2017-01-29T10:23:07.000Z</time>
      </trkpt>
      <trkpt lat="44.51047" lon="0.66213">
        <ele>207.1</ele>
        <time>2017-01-29T10:23:08.000Z</time>
      </trkpt>
      <trkpt lat="44.51049" lon="0.66217">
        <ele>207.1</ele>
        <time>2017-01-29T10:23:09.000Z</time>
      </trkpt>
      <trkpt lat="44.51052" lon="0.66221">
        <ele>207.1</ele>
        <time>2017-01-29T10:23:10.000Z</time>
      </trkpt>
      <trkpt lat="44.51054" lon="0.66223">
        <ele>207.1</ele>
        <time>2017-01-29T10:23:11.000Z</time>
      </trkpt>
      <trkpt lat="44.51057" lon="0.66225">
        <ele>207</ele>
        <time>2017-01-29T10:23:12.000Z</time>
      </trkpt>
      <trkpt lat="44.5106" lon="0.66224">
        <ele>206.9</ele>
        <time>2017-01-29T10:23:13.000Z</time>
      </trkpt>
      <trkpt lat="44.51063" lon="0.66222">
        <ele>206.7</ele>
        <time>2017-01-29T10:23:14.000Z</time>
      </trkpt>
      <trkpt lat="44.51066" lon="0.66219">
        <ele>206.5</ele>
        <time>2017-01-29T10:23:15.000Z</time>
      </trkpt>
      <trkpt lat="44.51069" lon="0.66215">
        <ele>206.3</ele>
        <time>2017-01-29T10:23:16.000Z</time>
      </trkpt>
      <trkpt lat="44.51072" lon="0.66212">
        <ele>206.1</ele>
        <time>2017-01-29T10:23:17.000Z</time>
      </trkpt>
      <trkpt lat="44.51075" lon="0.66209">
        <ele>205.8</ele>
        <time>2017-01-29T10:23:18.000Z</time>
      </trkpt>
      <trkpt lat="44.51079" lon="0.66206">
        <ele>205.6</ele>
        <time>2017-01-29T10:23:19.000Z</time>
      </trkpt>
      <trkpt lat="44.51082" lon="0.66202">
        <ele>205.3</ele>
        <time>2017-01-29T10:23:20.000Z</time>
      </trkpt>
      <trkpt lat="44.51086" lon="0.66199">
        <ele>205.1</ele>
        <time>2017-01-29T10:23:21.000Z</time>
      </trkpt>
      <trkpt lat="44.51089" lon="0.66195">
        <ele>204.8</ele>
        <time>2017-01-29T10:23:22.000Z</time>
      </trkpt>
      <trkpt lat="44.51093" lon="0.66191">
        <ele>204.5</ele>
        <time>2017-01-29T10:23:23.000Z</time>
      </trkpt>
      <trkpt lat="44.51096" lon="0.66186">
        <ele>204.2</ele>
        <time>2017-01-29T10:23:24.000Z</time>
      </trkpt>
      <trkpt lat="44.511" lon="0.66182">
        <ele>203.9</ele>
        <time>2017-01-29T10:23:25.000Z</time>
      </trkpt>
      <trkpt lat="44.51102" lon="0.66178">
        <ele>203.6</ele>
        <time>2017-01-29T10:23:26.000Z</time>
      </trkpt>
      <trkpt lat="44.51105" lon="0.66173">
        <ele>203.3</ele>
        <time>2017-01-29T10:23:27.000Z</time>
      </trkpt>
      <trkpt lat="44.51107" lon="0.66169">
        <ele>203</ele>
        <time>2017-01-29T10:23:28.000Z</time>
      </trkpt>
      <trkpt lat="44.5111" lon="0.66165">
        <ele>202.7</ele>
        <time>2017-01-29T10:23:29.000Z</time>
      </trkpt>
      <trkpt lat="44.51112" lon="0.66161">
        <ele>202.3</ele>
        <time>2017-01-29T10:23:30.000Z</time>
      </trkpt>
      <trkpt lat="44.51113" lon="0.66157">
        <ele>202</ele>
        <time>2017-01-29T10:23:31.000Z</time>
      </trkpt>
      <trkpt lat="44.51115" lon="0.66153">
        <ele>201.7</ele>
        <time>2017-01-29T10:23:32.000Z</time>
      </trkpt>
      <trkpt lat="44.51117" lon="0.6615">
        <ele>201.4</ele>
        <time>2017-01-29T10:23:33.000Z</time>
      </trkpt>
      <trkpt lat="44.51118" lon="0.66147">
        <ele>201.2</ele>
        <time>2017-01-29T10:23:34.000Z</time>
      </trkpt>
      <trkpt lat="44.51119" lon="0.66145">
        <ele>200.9</ele>
        <time>2017-01-29T10:23:35.000Z</time>
      </trkpt>
      <trkpt lat="44.5112" lon="0.66143">
        <ele>200.8</ele>
        <time>2017-01-29T10:23:36.000Z</time>
      </trkpt>
      <trkpt lat="44.51121" lon="0.66142">
        <ele>200.6</ele>
        <time>2017-01-29T10:23:37.000Z</time>
      </trkpt>
      <trkpt lat="44.51121" lon="0.66142">
        <ele>200.5</ele>
        <time>2017-01-29T10:23:38.000Z</time>
      </trkpt>
      <trkpt lat="44.51122" lon="0.66141">
        <ele>200.5</ele>
        <time>2017-01-29T10:23:39.000Z</time>
      </trkpt>
      <trkpt lat="44.51122" lon="0.66141">
        <ele>200.4</ele>
        <time>2017-01-29T10:23:40.000Z</time>
      </trkpt>
      <trkpt lat="44.51122" lon="0.66141">
        <ele>200.4</ele>
        <time>2017-01-29T10:23:41.000Z</time>
      </trkpt>
      <trkpt lat="44.51122" lon="0.66141">
        <ele>200.4</ele>
        <time>2017-01-29T10:23:42.000Z</time>
      </trkpt>
      <trkpt lat="44.51122" lon="0.66141">
        <ele>200.4</ele>
        <time>2017-01-29T10:23:43.000Z</time>
      </trkpt>
      <trkpt lat="44.51122" lon="0.66141">
        <ele>200.4</ele>
        <time>2017-01-29T10:23:44.000Z</time>
      </trkpt>
      <trkpt lat="44.51122" lon="0.66141">
        <ele>200.4</ele>
        <time>2017-01-29T10:23:45.000Z</time>
      </trkpt>
      <trkpt lat="44.51122" lon="0.66141">
        <ele>200.4</ele>
        <time>2017-01-29T10:23:46.000Z</time>
      </trkpt>
      <trkpt lat="44.51122" lon="0.66141">
        <ele>200.4</ele>
        <time>2017-01-29T10:23:47.000Z</time>
      </trkpt>
      <trkpt lat="44.51122" lon="0.66141">
        <ele>200.4</ele>
        <time>2017-01-29T10:23:48.000Z</time>
      </trkpt>
      <trkpt lat="44.51122" lon="0.66141">
        <ele>200.4</ele>
        <time>2017-01-29T10:23:49.000Z</time>
      </trkpt>
      <trkpt lat="44.51122" lon="0.66141">
        <ele>200.4</ele>
        <time>2017-01-29T10:23:50.000Z</time>
      </trkpt>
      <trkpt lat="44.51122" lon="0.66141">
        <ele>200.4</ele>
        <time>2017-01-29T10:23:51.000Z</time>
      </trkpt>
      <trkpt lat="44.51122" lon="0.66141">
        <ele>200.4</ele>
        <time>2017-01-29T10:23:52.000Z</time>
      </trkpt>
      <trkpt lat="44.51122" lon="0.66141">
        <ele>200.4</ele>
        <time>2017-01-29T10:23:53.000Z</time>
      </trkpt>
      <trkpt lat="44.51122" lon="0.66141">
        <ele>200.4</ele>
        <time>2017-01-29T10:23:54.000Z</time>
      </trkpt>
      <trkpt lat="44.51122" lon="0.66141">
        <ele>200.4</ele>
        <time>2017-01-29T10:23:55.000Z</time>
      </trkpt>
      <trkpt lat="44.51122" lon="0.66141">
        <ele>200.4</ele>
        <time>2017-01-29T10:23:56.000Z</time>
      </trkpt>
      <trkpt lat="44.51122" lon="0.66141">
        <ele>200.4</ele>
        <time>2017-01-29T10:23:57.000Z</time>
      </trkpt>
      <trkpt lat="44.51122" lon="0.66141">
        <ele>200.4</ele>
        <time>2017-01-29T10:23:58.000Z</time>
      </trkpt>
      <trkpt lat="44.51122" lon="0.66141">
        <ele>200.4</ele>
        <time>2017-01-29T10:23:59.000Z</time>
      </trkpt>
      <trkpt lat="44.51122" lon="0.66141">
        <ele>200.4</ele>
        <time>2017-01-29T10:24:00.000Z</time>
      </trkpt>
      <trkpt lat="44.51122" lon="0.66141">
        <ele>200.4</ele>
        <time>2017-01-29T10:24:01.000Z</time>
      </trkpt>
      <trkpt lat="44.51122" lon="0.66141">
        <ele>200.4</ele>
        <time>2017-01-29T10:24:02.000Z</time>
      </trkpt>
      <trkpt lat="44.51122" lon="0.66141">
        <ele>200.4</ele>
        <time>2017-01-29T10:24:03.000Z</time>
      </trkpt>
      <trkpt lat="44.51122" lon="0.66141">
        <ele>200.4</ele>
        <time>2017-01-29T10:24:04.000Z</time>
      </trkpt>
      <trkpt lat="44.51122" lon="0.66141">
        <ele>200.4</ele>
        <time>2017-01-29T10:24:05.000Z</time>
      </trkpt>
      <trkpt lat="44.51122" lon="0.66141">
        <ele>200.4</ele>
        <time>2017-01-29T10:24:06.000Z</time>
      </trkpt>
      <trkpt lat="44.51122" lon="0.66141">
        <ele>200.4</ele>
        <time>2017-01-29T10:24:07.000Z</time>
      </trkpt>
      <trkpt lat="44.51122" lon="0.66141">
        <ele>200.4</ele>
        <time>2017-01-29T10:24:08.000Z</time>
      </trkpt>
      <trkpt lat="44.51122" lon="0.66141">
        <ele>200.4</ele>
        <time>2017-01-29T10:24:09.000Z</time>
      </trkpt>
      <trkpt lat="44.51122" lon="0.66141">
        <ele>200.4</ele>
        <time>2017-01-29T10:24:10.000Z</time>
      </trkpt>
      <trkpt lat="44.51122" lon="0.66141">
        <ele>200.4</ele>
        <time>2017-01-29T10:24:11.000Z</time>
      </trkpt>
      <trkpt lat="44.51122" lon="0.66141">
        <ele>200.4</ele>
        <time>2017-01-29T10:24:12.000Z</time>
      </trkpt>
      <trkpt lat="44.51122" lon="0.66141">
        <ele>200.4</ele>
        <time>2017-01-29T10:24:13.000Z</time>
      </trkpt>
      <trkpt lat="44.51122" lon="0.66141">
        <ele>200.4</ele>
        <time>2017-01-29T10:24:14.000Z</time>
      </trkpt>
      <trkpt lat="44.51122" lon="0.66141">
        <ele>200.4</ele>
        <time>2017-01-29T10:24:15.000Z</time>
      </trkpt>
      <trkpt lat="44.51122" lon="0.66141">
        <ele>200.4</ele>
        <time>2017-01-29T10:24:16.000Z</time>
      </trkpt>
      <trkpt lat="44.51122" lon="0.66141">
        <ele>200.4</ele>
        <time>2017-01-29T10:24:17.000Z</time>
      </trkpt>
      <trkpt lat="44.51122" lon="0.66141">
        <ele>200.4</ele>
        <time>2017-01-29T10:24:18.000Z</time>
      </trkpt>
      <trkpt lat="44.51122" lon="0.66141">
        <ele>200.4</ele>
        <time>2017-01-29T10:24:19.000Z</time>
      </trkpt>
      <trkpt lat="44.51122" lon="0.66141">
        <ele>200.4</ele>
        <time>2017-01-29T10:24:20.000Z</time>
      </trkpt>
      <trkpt lat="44.51122" lon="0.66141">
        <ele>200.4</ele>
        <time>2017-01-29T10:24:21.000Z</time>
      </trkpt>
      <trkpt lat="44.51122" lon="0.66141">
        <ele>200.4</ele>
        <time>2017-01-29T10:24:22.000Z</time>
      </trkpt>
      <trkpt lat="44.51122" lon="0.66141">
        <ele>200.4</ele>
        <time>2017-01-29T10:24:23.000Z</time>
      </trkpt>
      <trkpt lat="44.51122" lon="0.66141">
        <ele>200.4</ele>
        <time>2017-01-29T10:24:24.000Z</time>
      </trkpt>
      <trkpt lat="44.51122" lon="0.66141">
        <ele>200.4</ele>
        <time>2017-01-29T10:24:25.000Z</time>
      </trkpt>
      <trkpt lat="44.51122" lon="0.66141">
        <ele>200.4</ele>
        <time>2017-01-29T10:24:26.000Z</time>
      </trkpt>
      <trkpt lat="44.51122" lon="0.66141">
        <ele>200.4</ele>
        <time>2017-01-29T10:24:27.000Z</time>
      </trkpt>
      <trkpt lat="44.51122" lon="0.66141">
        <ele>200.4</ele>
        <time>2017-01-29T10:24:28.000Z</time>
      </trkpt>
      <trkpt lat="44.51122" lon="0.66141">
        <ele>200.4</ele>
        <time>2017-01-29T10:24:29.000Z</time>
      </trkpt>
      <trkpt lat="44.51122" lon="0.66141">
        <ele>200.4</ele>
        <time>2017-01-29T10:24:30.000Z</time>
      </trkpt>
      <trkpt lat="44.51122" lon="0.66141">
        <ele>200.4</ele>
        <time>2017-01-29T10:24:31.000Z</time>
      </trkpt>
      <trkpt lat="44.51122" lon="0.66141">
        <ele>200.4</ele>
        <time>2017-01-29T10:24:32.000Z</time>
      </trkpt>
      <trkpt lat="44.51122" lon="0.66141">
        <ele>200.4</ele>
        <time>2017-01-29T10:24:33.000Z</time>
      </trkpt>
      <trkpt lat="44.51122" lon="0.66141">
        <ele>200.4</ele>
        <time>2017-01-29T10:24:34.000Z</time>
      </trkpt>
      <trkpt lat="44.51122" lon="0.66141">
        <ele>200.4</ele>
        <time>2017-01-29T10:24:35.000Z</time>
      </trkpt>
      <trkpt lat="44.51122" lon="0.66141">
        <ele>200.4</ele>
        <time>2017-01-29T10:24:36.000Z</time>
      </trkpt>
      <trkpt lat="44.51122" lon="0.66141">
        <ele>200.4</ele>
        <time>2017-01-29T10:24:37.000Z</time>
      </trkpt>
      <trkpt lat="44.51122" lon="0.6614">
        <ele>200.4</ele>
        <time>2017-01-29T10:24:38.000Z</time>
      </trkpt>
      <trkpt lat="44.51122" lon="0.6614">
        <ele>200.4</ele>
        <time>2017-01-29T10:24:39.000Z</time>
      </trkpt>
      <trkpt lat="44.51122" lon="0.6614">
        <ele>200.4</ele>
        <time>2017-01-29T10:24:40.000Z</time>
      </trkpt>
      <trkpt lat="44.51122" lon="0.6614">
        <ele>200.3</ele>
        <time>2017-01-29T10:24:41.000Z</time>
      </trkpt>
      <trkpt lat="44.51123" lon="0.66137">
        <ele>200.1</ele>
        <time>2017-01-29T10:24:42.000Z</time>
      </trkpt>
      <trkpt lat="44.51124" lon="0.66135">
        <ele>199.9</ele>
        <time>2017-01-29T10:24:43.000Z</time>
      </trkpt>
      <trkpt lat="44.51124" lon="0.66133">
        <ele>199.6</ele>
        <time>2017-01-29T10:24:44.000Z</time>
      </trkpt>
      <trkpt lat="44.51125" lon="0.6613">
        <ele>199.3</ele>
        <time>2017-01-29T10:24:45.000Z</time>
      </trkpt>
      <trkpt lat="44.51125" lon="0.66128">
        <ele>199.2</ele>
        <time>2017-01-29T10:24:46.000Z</time>
      </trkpt>
      <trkpt lat="44.51125" lon="0.66127">
        <ele>199.2</ele>
        <time>2017-01-29T10:24:47.000Z</time>
      </trkpt>
      <trkpt lat="44.51125" lon="0.66126">
        <ele>199.2</ele>
        <time>2017-01-29T10:24:48.000Z</time>
      </trkpt>
      <trkpt lat="44.51124" lon="0.66126">
        <ele>199.1</ele>
        <time>2017-01-29T10:24:49.000Z</time>
      </trkpt>
      <trkpt lat="44.51124" lon="0.66126">
        <ele>199.1</ele>
        <time>2017-01-29T10:24:50.000Z</time>
      </trkpt>
      <trkpt lat="44.51124" lon="0.66126">
        <ele>199.1</ele>
        <time>2017-01-29T10:24:51.000Z</time>
      </trkpt>
      <trkpt lat="44.51124" lon="0.66126">
        <ele>199.2</ele>
        <time>2017-01-29T10:24:52.000Z</time>
      </trkpt>
      <trkpt lat="44.51124" lon="0.66126">
        <ele>199.1</ele>
        <time>2017-01-29T10:24:53.000Z</time>
      </trkpt>
      <trkpt lat="44.51124" lon="0.66126">
        <ele>199.1</ele>
        <time>2017-01-29T10:24:54.000Z</time>
      </trkpt>
      <trkpt lat="44.51124" lon="0.66125">
        <ele>199.1</ele>
        <time>2017-01-29T10:24:55.000Z</time>
      </trkpt>
      <trkpt lat="44.51124" lon="0.66125">
        <ele>199.1</ele>
        <time>2017-01-29T10:24:56.000Z</time>
      </trkpt>
      <trkpt lat="44.51124" lon="0.66125">
        <ele>199.1</ele>
        <time>2017-01-29T10:24:57.000Z</time>
      </trkpt>
      <trkpt lat="44.51124" lon="0.66125">
        <ele>199.1</ele>
        <time>2017-01-29T10:24:58.000Z</time>
      </trkpt>
      <trkpt lat="44.51124" lon="0.66125">
        <ele>199.1</ele>
        <time>2017-01-29T10:24:59.000Z</time>
      </trkpt>
      <trkpt lat="44.51124" lon="0.66124">
        <ele>199</ele>
        <time>2017-01-29T10:25:00.000Z</time>
      </trkpt>
      <trkpt lat="44.51124" lon="0.66122">
        <ele>198.9</ele>
        <time>2017-01-29T10:25:01.000Z</time>
      </trkpt>
      <trkpt lat="44.51124" lon="0.66119">
        <ele>198.7</ele>
        <time>2017-01-29T10:25:02.000Z</time>
      </trkpt>
      <trkpt lat="44.51124" lon="0.66115">
        <ele>198.4</ele>
        <time>2017-01-29T10:25:03.000Z</time>
      </trkpt>
      <trkpt lat="44.51125" lon="0.66111">
        <ele>198</ele>
        <time>2017-01-29T10:25:04.000Z</time>
      </trkpt>
      <trkpt lat="44.51125" lon="0.66106">
        <ele>197.6</ele>
        <time>2017-01-29T10:25:05.000Z</time>
      </trkpt>
      <trkpt lat="44.51126" lon="0.66101">
        <ele>197.1</ele>
        <time>2017-01-29T10:25:06.000Z</time>
      </trkpt>
      <trkpt lat="44.51126" lon="0.66096">
        <ele>196.7</ele>
        <time>2017-01-29T10:25:07.000Z</time>
      </trkpt>
      <trkpt lat="44.51126" lon="0.66091">
        <ele>196.3</ele>
        <time>2017-01-29T10:25:08.000Z</time>
      </trkpt>
      <trkpt lat="44.51126" lon="0.66086">
        <ele>196</ele>
        <time>2017-01-29T10:25:09.000Z</time>
      </trkpt>
      <trkpt lat="44.51126" lon="0.66081">
        <ele>195.7</ele>
        <time>2017-01-29T10:25:10.000Z</time>
      </trkpt>
      <trkpt lat="44.51124" lon="0.66077">
        <ele>195.7</ele>
        <time>2017-01-29T10:25:11.000Z</time>
      </trkpt>
      <trkpt lat="44.51123" lon="0.66073">
        <ele>195.8</ele>
        <time>2017-01-29T10:25:12.000Z</time>
      </trkpt>
      <trkpt lat="44.51121" lon="0.6607">
        <ele>195.9</ele>
        <time>2017-01-29T10:25:13.000Z</time>
      </trkpt>
      <trkpt lat="44.51119" lon="0.66067">
        <ele>196</ele>
        <time>2017-01-29T10:25:14.000Z</time>
      </trkpt>
      <trkpt lat="44.51118" lon="0.66064">
        <ele>196.1</ele>
        <time>2017-01-29T10:25:15.000Z</time>
      </trkpt>
      <trkpt lat="44.51117" lon="0.6606">
        <ele>196.1</ele>
        <time>2017-01-29T10:25:16.000Z</time>
      </trkpt>
      <trkpt lat="44.51117" lon="0.66055">
        <ele>195.9</ele>
        <time>2017-01-29T10:25:17.000Z</time>
      </trkpt>
      <trkpt lat="44.51117" lon="0.6605">
        <ele>195.5</ele>
        <time>2017-01-29T10:25:18.000Z</time>
      </trkpt>
      <trkpt lat="44.51116" lon="0.66043">
        <ele>195.2</ele>
        <time>2017-01-29T10:25:19.000Z</time>
      </trkpt>
      <trkpt lat="44.51116" lon="0.66036">
        <ele>194.8</ele>
        <time>2017-01-29T10:25:20.000Z</time>
      </trkpt>
      <trkpt lat="44.51116" lon="0.66029">
        <ele>194.5</ele>
        <time>2017-01-29T10:25:21.000Z</time>
      </trkpt>
      <trkpt lat="44.51115" lon="0.66022">
        <ele>194.2</ele>
        <time>2017-01-29T10:25:22.000Z</time>
      </trkpt>
      <trkpt lat="44.51115" lon="0.66015">
        <ele>193.8</ele>
        <time>2017-01-29T10:25:23.000Z</time>
      </trkpt>
      <trkpt lat="44.51115" lon="0.66009">
        <ele>193.4</ele>
        <time>2017-01-29T10:25:24.000Z</time>
      </trkpt>
      <trkpt lat="44.51116" lon="0.66003">
        <ele>192.9</ele>
        <time>2017-01-29T10:25:25.000Z</time>
      </trkpt>
      <trkpt lat="44.51116" lon="0.65997">
        <ele>192.4</ele>
        <time>2017-01-29T10:25:26.000Z</time>
      </trkpt>
      <trkpt lat="44.51117" lon="0.6599">
        <ele>191.9</ele>
        <time>2017-01-29T10:25:27.000Z</time>
      </trkpt>
      <trkpt lat="44.51117" lon="0.65984">
        <ele>191.4</ele>
        <time>2017-01-29T10:25:28.000Z</time>
      </trkpt>
      <trkpt lat="44.51117" lon="0.65977">
        <ele>191</ele>
        <time>2017-01-29T10:25:29.000Z</time>
      </trkpt>
      <trkpt lat="44.51117" lon="0.65972">
        <ele>190.6</ele>
        <time>2017-01-29T10:25:30.000Z</time>
      </trkpt>
      <trkpt lat="44.51117" lon="0.65969">
        <ele>190.5</ele>
        <time>2017-01-29T10:25:31.000Z</time>
      </trkpt>
      <trkpt lat="44.51117" lon="0.65966">
        <ele>190.5</ele>
        <time>2017-01-29T10:25:32.000Z</time>
      </trkpt>
      <trkpt lat="44.51116" lon="0.65963">
        <ele>190.5</ele>
        <time>2017-01-29T10:25:33.000Z</time>
      </trkpt>
      <trkpt lat="44.51116" lon="0.6596">
        <ele>190.4</ele>
        <time>2017-01-29T10:25:34.000Z</time>
      </trkpt>
      <trkpt lat="44.51116" lon="0.65955">
        <ele>190.3</ele>
        <time>2017-01-29T10:25:35.000Z</time>
      </trkpt>
      <trkpt lat="44.51115" lon="0.6595">
        <ele>190.1</ele>
        <time>2017-01-29T10:25:36.000Z</time>
      </trkpt>
      <trkpt lat="44.51115" lon="0.65944">
        <ele>189.8</ele>
        <time>2017-01-29T10:25:37.000Z</time>
      </trkpt>
      <trkpt lat="44.51115" lon="0.65937">
        <ele>189.5</ele>
        <time>2017-01-29T10:25:38.000Z</time>
      </trkpt>
      <trkpt lat="44.51115" lon="0.65929">
        <ele>189.2</ele>
        <time>2017-01-29T10:25:39.000Z</time>
      </trkpt>
      <trkpt lat="44.51114" lon="0.65921">
        <ele>188.8</ele>
        <time>2017-01-29T10:25:40.000Z</time>
      </trkpt>
      <trkpt lat="44.51114" lon="0.65913">
        <ele>188.4</ele>
        <time>2017-01-29T10:25:41.000Z</time>
      </trkpt>
      <trkpt lat="44.51114" lon="0.65905">
        <ele>187.9</ele>
        <time>2017-01-29T10:25:42.000Z</time>
      </trkpt>
      <trkpt lat="44.51113" lon="0.65896">
        <ele>187.4</ele>
        <time>2017-01-29T10:25:43.000Z</time>
      </trkpt>
      <trkpt lat="44.51113" lon="0.65888">
        <ele>186.9</ele>
        <time>2017-01-29T10:25:44.000Z</time>
      </trkpt>
      <trkpt lat="44.51112" lon="0.65881">
        <ele>186.6</ele>
        <time>2017-01-29T10:25:45.000Z</time>
      </trkpt>
      <trkpt lat="44.51112" lon="0.65874">
        <ele>186.3</ele>
        <time>2017-01-29T10:25:46.000Z</time>
      </trkpt>
      <trkpt lat="44.51111" lon="0.65868">
        <ele>186.1</ele>
        <time>2017-01-29T10:25:47.000Z</time>
      </trkpt>
      <trkpt lat="44.5111" lon="0.65862">
        <ele>186</ele>
        <time>2017-01-29T10:25:48.000Z</time>
      </trkpt>
      <trkpt lat="44.51108" lon="0.65856">
        <ele>186</ele>
        <time>2017-01-29T10:25:49.000Z</time>
      </trkpt>
      <trkpt lat="44.51107" lon="0.65851">
        <ele>186.2</ele>
        <time>2017-01-29T10:25:50.000Z</time>
      </trkpt>
      <trkpt lat="44.51105" lon="0.65846">
        <ele>186.5</ele>
        <time>2017-01-29T10:25:51.000Z</time>
      </trkpt>
      <trkpt lat="44.51103" lon="0.65842">
        <ele>186.8</ele>
        <time>2017-01-29T10:25:52.000Z</time>
      </trkpt>
      <trkpt lat="44.51101" lon="0.65838">
        <ele>187.1</ele>
        <time>2017-01-29T10:25:53.000Z</time>
      </trkpt>
      <trkpt lat="44.511" lon="0.65835">
        <ele>187.3</ele>
        <time>2017-01-29T10:25:54.000Z</time>
      </trkpt>
      <trkpt lat="44.511" lon="0.65833">
        <ele>187.4</ele>
        <time>2017-01-29T10:25:55.000Z</time>
      </trkpt>
      <trkpt lat="44.51099" lon="0.65831">
        <ele>187.5</ele>
        <time>2017-01-29T10:25:56.000Z</time>
      </trkpt>
      <trkpt lat="44.51099" lon="0.65828">
        <ele>187.4</ele>
        <time>2017-01-29T10:25:57.000Z</time>
      </trkpt>
      <trkpt lat="44.511" lon="0.65825">
        <ele>187.4</ele>
        <time>2017-01-29T10:25:58.000Z</time>
      </trkpt>
      <trkpt lat="44.511" lon="0.65822">
        <ele>187.3</ele>
        <time>2017-01-29T10:25:59.000Z</time>
      </trkpt>
      <trkpt lat="44.51099" lon="0.65819">
        <ele>187.5</ele>
        <time>2017-01-29T10:26:00.000Z</time>
      </trkpt>
      <trkpt lat="44.51099" lon="0.65816">
        <ele>187.7</ele>
        <time>2017-01-29T10:26:01.000Z</time>
      </trkpt>
      <trkpt lat="44.51098" lon="0.65813">
        <ele>187.9</ele>
        <time>2017-01-29T10:26:02.000Z</time>
      </trkpt>
      <trkpt lat="44.51098" lon="0.65811">
        <ele>188.1</ele>
        <time>2017-01-29T10:26:03.000Z</time>
      </trkpt>
      <trkpt lat="44.51097" lon="0.65808">
        <ele>188.3</ele>
        <time>2017-01-29T10:26:04.000Z</time>
      </trkpt>
      <trkpt lat="44.51097" lon="0.65804">
        <ele>188.5</ele>
        <time>2017-01-29T10:26:05.000Z</time>
      </trkpt>
      <trkpt lat="44.51096" lon="0.65798">
        <ele>188.8</ele>
        <time>2017-01-29T10:26:06.000Z</time>
      </trkpt>
      <trkpt lat="44.51095" lon="0.65793">
        <ele>189.2</ele>
        <time>2017-01-29T10:26:07.000Z</time>
      </trkpt>
      <trkpt lat="44.51094" lon="0.65787">
        <ele>189.7</ele>
        <time>2017-01-29T10:26:08.000Z</time>
      </trkpt>
      <trkpt lat="44.51092" lon="0.65782">
        <ele>190.2</ele>
        <time>2017-01-29T10:26:09.000Z</time>
      </trkpt>
      <trkpt lat="44.51091" lon="0.65778">
        <ele>190.8</ele>
        <time>2017-01-29T10:26:10.000Z</time>
      </trkpt>
      <trkpt lat="44.51089" lon="0.65774">
        <ele>191.4</ele>
        <time>2017-01-29T10:26:11.000Z</time>
      </trkpt>
      <trkpt lat="44.51088" lon="0.6577">
        <ele>191.9</ele>
        <time>2017-01-29T10:26:12.000Z</time>
      </trkpt>
      <trkpt lat="44.51088" lon="0.65766">
        <ele>192.2</ele>
        <time>2017-01-29T10:26:13.000Z</time>
      </trkpt>
      <trkpt lat="44.51088" lon="0.65761">
        <ele>192.2</ele>
        <time>2017-01-29T10:26:14.000Z</time>
      </trkpt>
      <trkpt lat="44.51088" lon="0.65757">
        <ele>192.2</ele>
        <time>2017-01-29T10:26:15.000Z</time>
      </trkpt>
      <trkpt lat="44.51089" lon="0.65752">
        <ele>191.9</ele>
        <time>2017-01-29T10:26:16.000Z</time>
      </trkpt>
      <trkpt lat="44.51089" lon="0.65747">
        <ele>191.7</ele>
        <time>2017-01-29T10:26:17.000Z</time>
      </trkpt>
      <trkpt lat="44.5109" lon="0.65743">
        <ele>191.6</ele>
        <time>2017-01-29T10:26:18.000Z</time>
      </trkpt>
      <trkpt lat="44.5109" lon="0.65739">
        <ele>191.6</ele>
        <time>2017-01-29T10:26:19.000Z</time>
      </trkpt>
      <trkpt lat="44.5109" lon="0.65736">
        <ele>191.7</ele>
        <time>2017-01-29T10:26:20.000Z</time>
      </trkpt>
      <trkpt lat="44.5109" lon="0.65733">
        <ele>192</ele>
        <time>2017-01-29T10:26:21.000Z</time>
      </trkpt>
      <trkpt lat="44.51089" lon="0.6573">
        <ele>192.3</ele>
        <time>2017-01-29T10:26:22.000Z</time>
      </trkpt>
      <trkpt lat="44.51088" lon="0.65728">
        <ele>192.7</ele>
        <time>2017-01-29T10:26:23.000Z</time>
      </trkpt>
      <trkpt lat="44.51087" lon="0.65725">
        <ele>193.1</ele>
        <time>2017-01-29T10:26:24.000Z</time>
      </trkpt>
      <trkpt lat="44.51087" lon="0.65723">
        <ele>193.4</ele>
        <time>2017-01-29T10:26:25.000Z</time>
      </trkpt>
      <trkpt lat="44.51086" lon="0.65721">
        <ele>193.7</ele>
        <time>2017-01-29T10:26:26.000Z</time>
      </trkpt>
      <trkpt lat="44.51086" lon="0.65718">
        <ele>193.9</ele>
        <time>2017-01-29T10:26:27.000Z</time>
      </trkpt>
      <trkpt lat="44.51086" lon="0.65715">
        <ele>194</ele>
        <time>2017-01-29T10:26:28.000Z</time>
      </trkpt>
      <trkpt lat="44.51086" lon="0.65713">
        <ele>194.1</ele>
        <time>2017-01-29T10:26:29.000Z</time>
      </trkpt>
      <trkpt lat="44.51086" lon="0.6571">
        <ele>194.1</ele>
        <time>2017-01-29T10:26:30.000Z</time>
      </trkpt>
      <trkpt lat="44.51086" lon="0.65708">
        <ele>194</ele>
        <time>2017-01-29T10:26:31.000Z</time>
      </trkpt>
      <trkpt lat="44.51086" lon="0.65705">
        <ele>194</ele>
        <time>2017-01-29T10:26:32.000Z</time>
      </trkpt>
      <trkpt lat="44.51087" lon="0.65703">
        <ele>193.9</ele>
        <time>2017-01-29T10:26:33.000Z</time>
      </trkpt>
      <trkpt lat="44.51087" lon="0.657">
        <ele>193.8</ele>
        <time>2017-01-29T10:26:34.000Z</time>
      </trkpt>
      <trkpt lat="44.51088" lon="0.65698">
        <ele>193.6</ele>
        <time>2017-01-29T10:26:35.000Z</time>
      </trkpt>
      <trkpt lat="44.51088" lon="0.65696">
        <ele>193.5</ele>
        <time>2017-01-29T10:26:36.000Z</time>
      </trkpt>
      <trkpt lat="44.51089" lon="0.65694">
        <ele>193.3</ele>
        <time>2017-01-29T10:26:37.000Z</time>
      </trkpt>
      <trkpt lat="44.51089" lon="0.65692">
        <ele>193.2</ele>
        <time>2017-01-29T10:26:38.000Z</time>
      </trkpt>
      <trkpt lat="44.51089" lon="0.65691">
        <ele>193.1</ele>
        <time>2017-01-29T10:26:39.000Z</time>
      </trkpt>
      <trkpt lat="44.5109" lon="0.6569">
        <ele>193.1</ele>
        <time>2017-01-29T10:26:40.000Z</time>
      </trkpt>
      <trkpt lat="44.5109" lon="0.6569">
        <ele>193.1</ele>
        <time>2017-01-29T10:26:41.000Z</time>
      </trkpt>
      <trkpt lat="44.5109" lon="0.6569">
        <ele>193.1</ele>
        <time>2017-01-29T10:26:42.000Z</time>
      </trkpt>
      <trkpt lat="44.5109" lon="0.6569">
        <ele>193.1</ele>
        <time>2017-01-29T10:26:43.000Z</time>
      </trkpt>
      <trkpt lat="44.5109" lon="0.6569">
        <ele>193.1</ele>
        <time>2017-01-29T10:26:44.000Z</time>
      </trkpt>
      <trkpt lat="44.5109" lon="0.6569">
        <ele>193</ele>
        <time>2017-01-29T10:26:45.000Z</time>
      </trkpt>
      <trkpt lat="44.5109" lon="0.65689">
        <ele>193</ele>
        <time>2017-01-29T10:26:46.000Z</time>
      </trkpt>
      <trkpt lat="44.5109" lon="0.65689">
        <ele>192.9</ele>
        <time>2017-01-29T10:26:47.000Z</time>
      </trkpt>
      <trkpt lat="44.5109" lon="0.65689">
        <ele>192.9</ele>
        <time>2017-01-29T10:26:48.000Z</time>
      </trkpt>
      <trkpt lat="44.5109" lon="0.65688">
        <ele>192.8</ele>
        <time>2017-01-29T10:26:49.000Z</time>
      </trkpt>
      <trkpt lat="44.51091" lon="0.65688">
        <ele>192.8</ele>
        <time>2017-01-29T10:26:50.000Z</time>
      </trkpt>
      <trkpt lat="44.51091" lon="0.65688">
        <ele>192.7</ele>
        <time>2017-01-29T10:26:51.000Z</time>
      </trkpt>
      <trkpt lat="44.51091" lon="0.65687">
        <ele>192.6</ele>
        <time>2017-01-29T10:26:52.000Z</time>
      </trkpt>
      <trkpt lat="44.51091" lon="0.65687">
        <ele>192.6</ele>
        <time>2017-01-29T10:26:53.000Z</time>
      </trkpt>
      <trkpt lat="44.51091" lon="0.65686">
        <ele>192.5</ele>
        <time>2017-01-29T10:26:54.000Z</time>
      </trkpt>
      <trkpt lat="44.51092" lon="0.65685">
        <ele>192.4</ele>
        <time>2017-01-29T10:26:55.000Z</time>
      </trkpt>
      <trkpt lat="44.51092" lon="0.65684">
        <ele>192.4</ele>
        <time>2017-01-29T10:26:56.000Z</time>
      </trkpt>
      <trkpt lat="44.51092" lon="0.65683">
        <ele>192.4</ele>
        <time>2017-01-29T10:26:57.000Z</time>
      </trkpt>
      <trkpt lat="44.51092" lon="0.65681">
        <ele>192.4</ele>
        <time>2017-01-29T10:26:58.000Z</time>
      </trkpt>
      <trkpt lat="44.51092" lon="0.6568">
        <ele>192.4</ele>
        <time>2017-01-29T10:26:59.000Z</time>
      </trkpt>
      <trkpt lat="44.51092" lon="0.65679">
        <ele>192.4</ele>
        <time>2017-01-29T10:27:00.000Z</time>
      </trkpt>
      <trkpt lat="44.51092" lon="0.65679">
        <ele>192.4</ele>
        <time>2017-01-29T10:27:01.000Z</time>
      </trkpt>
      <trkpt lat="44.51092" lon="0.65678">
        <ele>192.4</ele>
        <time>2017-01-29T10:27:02.000Z</time>
      </trkpt>
      <trkpt lat="44.51092" lon="0.65678">
        <ele>192.4</ele>
        <time>2017-01-29T10:27:03.000Z</time>
      </trkpt>
      <trkpt lat="44.51092" lon="0.65678">
        <ele>192.3</ele>
        <time>2017-01-29T10:27:04.000Z</time>
      </trkpt>
      <trkpt lat="44.51092" lon="0.65678">
        <ele>192.3</ele>
        <time>2017-01-29T10:27:05.000Z</time>
      </trkpt>
      <trkpt lat="44.51092" lon="0.65678">
        <ele>192.3</ele>
        <time>2017-01-29T10:27:06.000Z</time>
      </trkpt>
      <trkpt lat="44.51093" lon="0.65678">
        <ele>192.3</ele>
        <time>2017-01-29T10:27:07.000Z</time>
      </trkpt>
      <trkpt lat="44.51093" lon="0.65678">
        <ele>192.3</ele>
        <time>2017-01-29T10:27:08.000Z</time>
      </trkpt>
      <trkpt lat="44.51093" lon="0.65678">
        <ele>192.3</ele>
        <time>2017-01-29T10:27:09.000Z</time>
      </trkpt>
      <trkpt lat="44.51093" lon="0.65678">
        <ele>192.3</ele>
        <time>2017-01-29T10:27:10.000Z</time>
      </trkpt>
      <trkpt lat="44.51093" lon="0.65678">
        <ele>192.3</ele>
        <time>2017-01-29T10:27:11.000Z</time>
      </trkpt>
      <trkpt lat="44.51093" lon="0.65678">
        <ele>192.3</ele>
        <time>2017-01-29T10:27:12.000Z</time>
      </trkpt>
      <trkpt lat="44.51093" lon="0.65678">
        <ele>192.3</ele>
        <time>2017-01-29T10:27:13.000Z</time>
      </trkpt>
      <trkpt lat="44.51093" lon="0.65678">
        <ele>192.3</ele>
        <time>2017-01-29T10:27:14.000Z</time>
      </trkpt>
      <trkpt lat="44.51093" lon="0.65678">
        <ele>192.3</ele>
        <time>2017-01-29T10:27:15.000Z</time>
      </trkpt>
      <trkpt lat="44.51093" lon="0.65678">
        <ele>192.3</ele>
        <time>2017-01-29T10:27:16.000Z</time>
      </trkpt>
      <trkpt lat="44.51093" lon="0.65678">
        <ele>192.3</ele>
        <time>2017-01-29T10:27:17.000Z</time>
      </trkpt>
      <trkpt lat="44.51093" lon="0.65678">
        <ele>192.3</ele>
        <time>2017-01-29T10:27:18.000Z</time>
      </trkpt>
      <trkpt lat="44.51093" lon="0.65678">
        <ele>192.3</ele>
        <time>2017-01-29T10:27:19.000Z</time>
      </trkpt>
      <trkpt lat="44.51093" lon="0.65678">
        <ele>192.3</ele>
        <time>2017-01-29T10:27:20.000Z</time>
      </trkpt>
      <trkpt lat="44.51093" lon="0.65677">
        <ele>192.3</ele>
        <time>2017-01-29T10:27:21.000Z</time>
      </trkpt>
      <trkpt lat="44.51093" lon="0.65677">
        <ele>192.3</ele>
        <time>2017-01-29T10:27:22.000Z</time>
      </trkpt>
      <trkpt lat="44.51093" lon="0.65677">
        <ele>192.3</ele>
        <time>2017-01-29T10:27:23.000Z</time>
      </trkpt>
      <trkpt lat="44.51093" lon="0.65677">
        <ele>192.3</ele>
        <time>2017-01-29T10:27:24.000Z</time>
      </trkpt>
      <trkpt lat="44.51093" lon="0.65677">
        <ele>192.2</ele>
        <time>2017-01-29T10:27:25.000Z</time>
      </trkpt>
      <trkpt lat="44.51093" lon="0.65677">
        <ele>192.2</ele>
        <time>2017-01-29T10:27:26.000Z</time>
      </trkpt>
      <trkpt lat="44.51093" lon="0.65677">
        <ele>192.2</ele>
        <time>2017-01-29T10:27:27.000Z</time>
      </trkpt>
      <trkpt lat="44.51093" lon="0.65676">
        <ele>192.2</ele>
        <time>2017-01-29T10:27:28.000Z</time>
      </trkpt>
      <trkpt lat="44.51093" lon="0.65676">
        <ele>192.2</ele>
        <time>2017-01-29T10:27:29.000Z</time>
      </trkpt>
      <trkpt lat="44.51093" lon="0.65675">
        <ele>192.1</ele>
        <time>2017-01-29T10:27:30.000Z</time>
      </trkpt>
      <trkpt lat="44.51094" lon="0.65673">
        <ele>192</ele>
        <time>2017-01-29T10:27:31.000Z</time>
      </trkpt>
      <trkpt lat="44.51094" lon="0.65671">
        <ele>191.8</ele>
        <time>2017-01-29T10:27:32.000Z</time>
      </trkpt>
      <trkpt lat="44.51095" lon="0.6567">
        <ele>191.4</ele>
        <time>2017-01-29T10:27:33.000Z</time>
      </trkpt>
      <trkpt lat="44.51097" lon="0.65668">
        <ele>191.1</ele>
        <time>2017-01-29T10:27:34.000Z</time>
      </trkpt>
      <trkpt lat="44.51098" lon="0.65665">
        <ele>190.6</ele>
        <time>2017-01-29T10:27:35.000Z</time>
      </trkpt>
      <trkpt lat="44.51099" lon="0.65663">
        <ele>190.2</ele>
        <time>2017-01-29T10:27:36.000Z</time>
      </trkpt>
      <trkpt lat="44.51099" lon="0.6566">
        <ele>189.7</ele>
        <time>2017-01-29T10:27:37.000Z</time>
      </trkpt>
      <trkpt lat="44.511" lon="0.65658">
        <ele>189.3</ele>
        <time>2017-01-29T10:27:38.000Z</time>
      </trkpt>
      <trkpt lat="44.51101" lon="0.65655">
        <ele>188.8</ele>
        <time>2017-01-29T10:27:39.000Z</time>
      </trkpt>
      <trkpt lat="44.51102" lon="0.65651">
        <ele>188.3</ele>
        <time>2017-01-29T10:27:40.000Z</time>
      </trkpt>
      <trkpt lat="44.51103" lon="0.65648">
        <ele>187.9</ele>
        <time>2017-01-29T10:27:41.000Z</time>
      </trkpt>
      <trkpt lat="44.51104" lon="0.65645">
        <ele>187.4</ele>
        <time>2017-01-29T10:27:42.000Z</time>
      </trkpt>
      <trkpt lat="44.51105" lon="0.65642">
        <ele>186.9</ele>
        <time>2017-01-29T10:27:43.000Z</time>
      </trkpt>
      <trkpt lat="44.51106" lon="0.65639">
        <ele>186.5</ele>
        <time>2017-01-29T10:27:44.000Z</time>
      </trkpt>
      <trkpt lat="44.51107" lon="0.65636">
        <ele>185.9</ele>
        <time>2017-01-29T10:27:45.000Z</time>
      </trkpt>
      <trkpt lat="44.51108" lon="0.65634">
        <ele>185.5</ele>
        <time>2017-01-29T10:27:46.000Z</time>
      </trkpt>
      <trkpt lat="44.51109" lon="0.65632">
        <ele>185</ele>
        <time>2017-01-29T10:27:47.000Z</time>
      </trkpt>
      <trkpt lat="44.51111" lon="0.65631">
        <ele>184.4</ele>
        <time>2017-01-29T10:27:48.000Z</time>
      </trkpt>
      <trkpt lat="44.51113" lon="0.6563">
        <ele>183.7</ele>
        <time>2017-01-29T10:27:49.000Z</time>
      </trkpt>
      <trkpt lat="44.51114" lon="0.65629">
        <ele>183</ele>
        <time>2017-01-29T10:27:50.000Z</time>
      </trkpt>
      <trkpt lat="44.51116" lon="0.65627">
        <ele>182.3</ele>
        <time>2017-01-29T10:27:51.000Z</time>
      </trkpt>
      <trkpt lat="44.51118" lon="0.65625">
        <ele>181.8</ele>
        <time>2017-01-29T10:27:52.000Z</time>
      </trkpt>
      <trkpt lat="44.51119" lon="0.65621">
        <ele>181.3</ele>
        <time>2017-01-29T10:27:53.000Z</time>
      </trkpt>
      <trkpt lat="44.5112" lon="0.65617">
        <ele>180.8</ele>
        <time>2017-01-29T10:27:54.000Z</time>
      </trkpt>
      <trkpt lat="44.51121" lon="0.65612">
        <ele>180.3</ele>
        <time>2017-01-29T10:27:55.000Z</time>
      </trkpt>
      <trkpt lat="44.51122" lon="0.65607">
        <ele>179.7</ele>
        <time>2017-01-29T10:27:56.000Z</time>
      </trkpt>
      <trkpt lat="44.51123" lon="0.65601">
        <ele>179.3</ele>
        <time>2017-01-29T10:27:57.000Z</time>
      </trkpt>
      <trkpt lat="44.51123" lon="0.65595">
        <ele>179.1</ele>
        <time>2017-01-29T10:27:58.000Z</time>
      </trkpt>
      <trkpt lat="44.51122" lon="0.65589">
        <ele>179.1</ele>
        <time>2017-01-29T10:27:59.000Z</time>
      </trkpt>
      <trkpt lat="44.51121" lon="0.65584">
        <ele>179.4</ele>
        <time>2017-01-29T10:28:00.000Z</time>
      </trkpt>
      <trkpt lat="44.51119" lon="0.6558">
        <ele>179.6</ele>
        <time>2017-01-29T10:28:01.000Z</time>
      </trkpt>
      <trkpt lat="44.51117" lon="0.65576">
        <ele>179.9</ele>
        <time>2017-01-29T10:28:02.000Z</time>
      </trkpt>
      <trkpt lat="44.51114" lon="0.65574">
        <ele>180.4</ele>
        <time>2017-01-29T10:28:03.000Z</time>
      </trkpt>
      <trkpt lat="44.51112" lon="0.65571">
        <ele>180.8</ele>
        <time>2017-01-29T10:28:04.000Z</time>
      </trkpt>
      <trkpt lat="44.5111" lon="0.65568">
        <ele>181.2</ele>
        <time>2017-01-29T10:28:05.000Z</time>
      </trkpt>
      <trkpt lat="44.51108" lon="0.65566">
        <ele>181.6</ele>
        <time>2017-01-29T10:28:06.000Z</time>
      </trkpt>
      <trkpt lat="44.51106" lon="0.65563">
        <ele>182</ele>
        <time>2017-01-29T10:28:07.000Z</time>
      </trkpt>
      <trkpt lat="44.51104" lon="0.65561">
        <ele>182.3</ele>
        <time>2017-01-29T10:28:08.000Z</time>
      </trkpt>
      <trkpt lat="44.51102" lon="0.65559">
        <ele>182.7</ele>
        <time>2017-01-29T10:28:09.000Z</time>
      </trkpt>
      <trkpt lat="44.511" lon="0.65557">
        <ele>183</ele>
        <time>2017-01-29T10:28:10.000Z</time>
      </trkpt>
      <trkpt lat="44.51099" lon="0.65555">
        <ele>183.4</ele>
        <time>2017-01-29T10:28:11.000Z</time>
      </trkpt>
      <trkpt lat="44.51097" lon="0.65553">
        <ele>183.7</ele>
        <time>2017-01-29T10:28:12.000Z</time>
      </trkpt>
      <trkpt lat="44.51095" lon="0.65552">
        <ele>184</ele>
        <time>2017-01-29T10:28:13.000Z</time>
      </trkpt>
      <trkpt lat="44.51094" lon="0.6555">
        <ele>184.3</ele>
        <time>2017-01-29T10:28:14.000Z</time>
      </trkpt>
      <trkpt lat="44.51092" lon="0.65549">
        <ele>184.6</ele>
        <time>2017-01-29T10:28:15.000Z</time>
      </trkpt>
      <trkpt lat="44.51091" lon="0.65548">
        <ele>185</ele>
        <time>2017-01-29T10:28:16.000Z</time>
      </trkpt>
      <trkpt lat="44.51089" lon="0.65547">
        <ele>185.3</ele>
        <time>2017-01-29T10:28:17.000Z</time>
      </trkpt>
      <trkpt lat="44.51088" lon="0.65546">
        <ele>185.6</ele>
        <time>2017-01-29T10:28:18.000Z</time>
      </trkpt>
      <trkpt lat="44.51086" lon="0.65545">
        <ele>185.9</ele>
        <time>2017-01-29T10:28:19.000Z</time>
      </trkpt>
      <trkpt lat="44.51085" lon="0.65544">
        <ele>186.2</ele>
        <time>2017-01-29T10:28:20.000Z</time>
      </trkpt>
      <trkpt lat="44.51084" lon="0.65543">
        <ele>186.5</ele>
        <time>2017-01-29T10:28:21.000Z</time>
      </trkpt>
      <trkpt lat="44.51082" lon="0.65542">
        <ele>186.9</ele>
        <time>2017-01-29T10:28:22.000Z</time>
      </trkpt>
      <trkpt lat="44.51081" lon="0.65542">
        <ele>187.2</ele>
        <time>2017-01-29T10:28:23.000Z</time>
      </trkpt>
      <trkpt lat="44.5108" lon="0.65541">
        <ele>187.5</ele>
        <time>2017-01-29T10:28:24.000Z</time>
      </trkpt>
      <trkpt lat="44.51078" lon="0.6554">
        <ele>187.9</ele>
        <time>2017-01-29T10:28:25.000Z</time>
      </trkpt>
      <trkpt lat="44.51077" lon="0.65539">
        <ele>188.2</ele>
        <time>2017-01-29T10:28:26.000Z</time>
      </trkpt>
      <trkpt lat="44.51075" lon="0.65539">
        <ele>188.5</ele>
        <time>2017-01-29T10:28:27.000Z</time>
      </trkpt>
      <trkpt lat="44.51074" lon="0.65538">
        <ele>188.8</ele>
        <time>2017-01-29T10:28:28.000Z</time>
      </trkpt>
      <trkpt lat="44.51073" lon="0.65537">
        <ele>189.1</ele>
        <time>2017-01-29T10:28:29.000Z</time>
      </trkpt>
      <trkpt lat="44.51072" lon="0.65536">
        <ele>189.4</ele>
        <time>2017-01-29T10:28:30.000Z</time>
      </trkpt>
      <trkpt lat="44.5107" lon="0.65535">
        <ele>189.6</ele>
        <time>2017-01-29T10:28:31.000Z</time>
      </trkpt>
      <trkpt lat="44.51069" lon="0.65534">
        <ele>189.9</ele>
        <time>2017-01-29T10:28:32.000Z</time>
      </trkpt>
      <trkpt lat="44.51068" lon="0.65533">
        <ele>190.1</ele>
        <time>2017-01-29T10:28:33.000Z</time>
      </trkpt>
      <trkpt lat="44.51067" lon="0.65532">
        <ele>190.3</ele>
        <time>2017-01-29T10:28:34.000Z</time>
      </trkpt>
      <trkpt lat="44.51066" lon="0.6553">
        <ele>190.5</ele>
        <time>2017-01-29T10:28:35.000Z</time>
      </trkpt>
      <trkpt lat="44.51065" lon="0.65529">
        <ele>190.7</ele>
        <time>2017-01-29T10:28:36.000Z</time>
      </trkpt>
      <trkpt lat="44.51064" lon="0.65527">
        <ele>190.9</ele>
        <time>2017-01-29T10:28:37.000Z</time>
      </trkpt>
      <trkpt lat="44.51063" lon="0.65526">
        <ele>191</ele>
        <time>2017-01-29T10:28:38.000Z</time>
      </trkpt>
      <trkpt lat="44.51062" lon="0.65524">
        <ele>191.2</ele>
        <time>2017-01-29T10:28:39.000Z</time>
      </trkpt>
      <trkpt lat="44.51061" lon="0.65523">
        <ele>191.3</ele>
        <time>2017-01-29T10:28:40.000Z</time>
      </trkpt>
      <trkpt lat="44.51059" lon="0.65521">
        <ele>191.5</ele>
        <time>2017-01-29T10:28:41.000Z</time>
      </trkpt>
      <trkpt lat="44.51058" lon="0.65519">
        <ele>191.6</ele>
        <time>2017-01-29T10:28:42.000Z</time>
      </trkpt>
      <trkpt lat="44.51057" lon="0.65517">
        <ele>191.8</ele>
        <time>2017-01-29T10:28:43.000Z</time>
      </trkpt>
      <trkpt lat="44.51056" lon="0.65515">
        <ele>191.9</ele>
        <time>2017-01-29T10:28:44.000Z</time>
      </trkpt>
      <trkpt lat="44.51055" lon="0.65513">
        <ele>192</ele>
        <time>2017-01-29T10:28:45.000Z</time>
      </trkpt>
      <trkpt lat="44.51054" lon="0.65512">
        <ele>192.2</ele>
        <time>2017-01-29T10:28:46.000Z</time>
      </trkpt>
      <trkpt lat="44.51053" lon="0.6551">
        <ele>192.3</ele>
        <time>2017-01-29T10:28:47.000Z</time>
      </trkpt>
      <trkpt lat="44.51053" lon="0.65508">
        <ele>192.3</ele>
        <time>2017-01-29T10:28:48.000Z</time>
      </trkpt>
      <trkpt lat="44.51052" lon="0.65506">
        <ele>192.4</ele>
        <time>2017-01-29T10:28:49.000Z</time>
      </trkpt>
      <trkpt lat="44.51051" lon="0.65503">
        <ele>192.3</ele>
        <time>2017-01-29T10:28:50.000Z</time>
      </trkpt>
      <trkpt lat="44.51051" lon="0.65501">
        <ele>192.2</ele>
        <time>2017-01-29T10:28:51.000Z</time>
      </trkpt>
      <trkpt lat="44.51051" lon="0.65499">
        <ele>192.1</ele>
        <time>2017-01-29T10:28:52.000Z</time>
      </trkpt>
      <trkpt lat="44.51051" lon="0.65497">
        <ele>192</ele>
        <time>2017-01-29T10:28:53.000Z</time>
      </trkpt>
      <trkpt lat="44.5105" lon="0.65495">
        <ele>191.9</ele>
        <time>2017-01-29T10:28:54.000Z</time>
      </trkpt>
      <trkpt lat="44.51049" lon="0.65493">
        <ele>192</ele>
        <time>2017-01-29T10:28:55.000Z</time>
      </trkpt>
      <trkpt lat="44.51048" lon="0.65491">
        <ele>192.3</ele>
        <time>2017-01-29T10:28:56.000Z</time>
      </trkpt>
      <trkpt lat="44.51046" lon="0.65489">
        <ele>192.6</ele>
        <time>2017-01-29T10:28:57.000Z</time>
      </trkpt>
      <trkpt lat="44.51045" lon="0.65488">
        <ele>193</ele>
        <time>2017-01-29T10:28:58.000Z</time>
      </trkpt>
      <trkpt lat="44.51043" lon="0.65486">
        <ele>193.5</ele>
        <time>2017-01-29T10:28:59.000Z</time>
      </trkpt>
      <trkpt lat="44.51041" lon="0.65483">
        <ele>193.8</ele>
        <time>2017-01-29T10:29:00.000Z</time>
      </trkpt>
      <trkpt lat="44.5104" lon="0.6548">
        <ele>194</ele>
        <time>2017-01-29T10:29:01.000Z</time>
      </trkpt>
      <trkpt lat="44.51038" lon="0.65476">
        <ele>194.1</ele>
        <time>2017-01-29T10:29:02.000Z</time>
      </trkpt>
      <trkpt lat="44.51037" lon="0.65472">
        <ele>194</ele>
        <time>2017-01-29T10:29:03.000Z</time>
      </trkpt>
      <trkpt lat="44.51037" lon="0.65467">
        <ele>193.9</ele>
        <time>2017-01-29T10:29:04.000Z</time>
      </trkpt>
      <trkpt lat="44.51036" lon="0.65462">
        <ele>193.8</ele>
        <time>2017-01-29T10:29:05.000Z</time>
      </trkpt>
      <trkpt lat="44.51035" lon="0.65457">
        <ele>193.7</ele>
        <time>2017-01-29T10:29:06.000Z</time>
      </trkpt>
      <trkpt lat="44.51033" lon="0.65453">
        <ele>193.7</ele>
        <time>2017-01-29T10:29:07.000Z</time>
      </trkpt>
      <trkpt lat="44.51032" lon="0.65448">
        <ele>193.9</ele>
        <time>2017-01-29T10:29:08.000Z</time>
      </trkpt>
      <trkpt lat="44.5103" lon="0.65444">
        <ele>194.2</ele>
        <time>2017-01-29T10:29:09.000Z</time>
      </trkpt>
      <trkpt lat="44.51028" lon="0.65439">
        <ele>194.5</ele>
        <time>2017-01-29T10:29:10.000Z</time>
      </trkpt>
      <trkpt lat="44.51025" lon="0.65435">
        <ele>194.9</ele>
        <time>2017-01-29T10:29:11.000Z</time>
      </trkpt>
      <trkpt lat="44.51024" lon="0.65431">
        <ele>195.2</ele>
        <time>2017-01-29T10:29:12.000Z</time>
      </trkpt>
      <trkpt lat="44.51022" lon="0.65426">
        <ele>195.4</ele>
        <time>2017-01-29T10:29:13.000Z</time>
      </trkpt>
      <trkpt lat="44.51021" lon="0.65422">
        <ele>195.5</ele>
        <time>2017-01-29T10:29:14.000Z</time>
      </trkpt>
      <trkpt lat="44.5102" lon="0.65417">
        <ele>195.4</ele>
        <time>2017-01-29T10:29:15.000Z</time>
      </trkpt>
      <trkpt lat="44.51019" lon="0.65412">
        <ele>195.4</ele>
        <time>2017-01-29T10:29:16.000Z</time>
      </trkpt>
      <trkpt lat="44.51019" lon="0.65407">
        <ele>195.4</ele>
        <time>2017-01-29T10:29:17.000Z</time>
      </trkpt>
      <trkpt lat="44.51019" lon="0.65402">
        <ele>195.2</ele>
        <time>2017-01-29T10:29:18.000Z</time>
      </trkpt>
      <trkpt lat="44.5102" lon="0.65397">
        <ele>194.9</ele>
        <time>2017-01-29T10:29:19.000Z</time>
      </trkpt>
      <trkpt lat="44.51021" lon="0.65392">
        <ele>194.6</ele>
        <time>2017-01-29T10:29:20.000Z</time>
      </trkpt>
      <trkpt lat="44.51022" lon="0.65387">
        <ele>194.1</ele>
        <time>2017-01-29T10:29:21.000Z</time>
      </trkpt>
      <trkpt lat="44.51023" lon="0.65382">
        <ele>193.7</ele>
        <time>2017-01-29T10:29:22.000Z</time>
      </trkpt>
      <trkpt lat="44.51024" lon="0.65377">
        <ele>193.2</ele>
        <time>2017-01-29T10:29:23.000Z</time>
      </trkpt>
      <trkpt lat="44.51024" lon="0.65371">
        <ele>192.8</ele>
        <time>2017-01-29T10:29:24.000Z</time>
      </trkpt>
      <trkpt lat="44.51025" lon="0.65366">
        <ele>192.5</ele>
        <time>2017-01-29T10:29:25.000Z</time>
      </trkpt>
      <trkpt lat="44.51025" lon="0.6536">
        <ele>192.3</ele>
        <time>2017-01-29T10:29:26.000Z</time>
      </trkpt>
      <trkpt lat="44.51026" lon="0.65353">
        <ele>192</ele>
        <time>2017-01-29T10:29:27.000Z</time>
      </trkpt>
      <trkpt lat="44.51026" lon="0.65347">
        <ele>191.8</ele>
        <time>2017-01-29T10:29:28.000Z</time>
      </trkpt>
      <trkpt lat="44.51026" lon="0.6534">
        <ele>191.5</ele>
        <time>2017-01-29T10:29:29.000Z</time>
      </trkpt>
      <trkpt lat="44.51026" lon="0.65333">
        <ele>191.2</ele>
        <time>2017-01-29T10:29:30.000Z</time>
      </trkpt>
      <trkpt lat="44.51027" lon="0.65327">
        <ele>191.1</ele>
        <time>2017-01-29T10:29:31.000Z</time>
      </trkpt>
      <trkpt lat="44.51028" lon="0.6532">
        <ele>190.8</ele>
        <time>2017-01-29T10:29:32.000Z</time>
      </trkpt>
      <trkpt lat="44.51028" lon="0.65313">
        <ele>190.6</ele>
        <time>2017-01-29T10:29:33.000Z</time>
      </trkpt>
      <trkpt lat="44.51029" lon="0.65307">
        <ele>190.4</ele>
        <time>2017-01-29T10:29:34.000Z</time>
      </trkpt>
      <trkpt lat="44.51029" lon="0.65301">
        <ele>190.2</ele>
        <time>2017-01-29T10:29:35.000Z</time>
      </trkpt>
      <trkpt lat="44.51029" lon="0.65296">
        <ele>190.2</ele>
        <time>2017-01-29T10:29:36.000Z</time>
      </trkpt>
      <trkpt lat="44.51029" lon="0.65292">
        <ele>190.3</ele>
        <time>2017-01-29T10:29:37.000Z</time>
      </trkpt>
      <trkpt lat="44.51029" lon="0.65288">
        <ele>190.5</ele>
        <time>2017-01-29T10:29:38.000Z</time>
      </trkpt>
      <trkpt lat="44.51028" lon="0.65286">
        <ele>190.6</ele>
        <time>2017-01-29T10:29:39.000Z</time>
      </trkpt>
      <trkpt lat="44.51028" lon="0.65286">
        <ele>190.6</ele>
        <time>2017-01-29T10:29:40.000Z</time>
      </trkpt>
      <trkpt lat="44.51028" lon="0.65285">
        <ele>190.7</ele>
        <time>2017-01-29T10:29:41.000Z</time>
      </trkpt>
      <trkpt lat="44.51028" lon="0.65285">
        <ele>190.7</ele>
        <time>2017-01-29T10:29:42.000Z</time>
      </trkpt>
      <trkpt lat="44.51028" lon="0.65285">
        <ele>190.7</ele>
        <time>2017-01-29T10:29:43.000Z</time>
      </trkpt>
      <trkpt lat="44.51028" lon="0.65285">
        <ele>190.7</ele>
        <time>2017-01-29T10:29:44.000Z</time>
      </trkpt>
      <trkpt lat="44.51028" lon="0.65285">
        <ele>190.7</ele>
        <time>2017-01-29T10:29:45.000Z</time>
      </trkpt>
      <trkpt lat="44.51028" lon="0.65285">
        <ele>190.7</ele>
        <time>2017-01-29T10:29:46.000Z</time>
      </trkpt>
      <trkpt lat="44.51028" lon="0.65285">
        <ele>190.7</ele>
        <time>2017-01-29T10:29:47.000Z</time>
      </trkpt>
      <trkpt lat="44.51028" lon="0.65285">
        <ele>190.7</ele>
        <time>2017-01-29T10:29:48.000Z</time>
      </trkpt>
      <trkpt lat="44.51028" lon="0.65285">
        <ele>190.7</ele>
        <time>2017-01-29T10:29:49.000Z</time>
      </trkpt>
      <trkpt lat="44.51028" lon="0.65285">
        <ele>190.7</ele>
        <time>2017-01-29T10:29:50.000Z</time>
      </trkpt>
      <trkpt lat="44.51028" lon="0.65284">
        <ele>190.8</ele>
        <time>2017-01-29T10:29:51.000Z</time>
      </trkpt>
      <trkpt lat="44.51028" lon="0.65284">
        <ele>190.8</ele>
        <time>2017-01-29T10:29:52.000Z</time>
      </trkpt>
      <trkpt lat="44.51028" lon="0.65284">
        <ele>190.9</ele>
        <time>2017-01-29T10:29:53.000Z</time>
      </trkpt>
      <trkpt lat="44.51028" lon="0.65283">
        <ele>191</ele>
        <time>2017-01-29T10:29:54.000Z</time>
      </trkpt>
      <trkpt lat="44.51027" lon="0.65281">
        <ele>191.2</ele>
        <time>2017-01-29T10:29:55.000Z</time>
      </trkpt>
      <trkpt lat="44.51027" lon="0.65279">
        <ele>191.3</ele>
        <time>2017-01-29T10:29:56.000Z</time>
      </trkpt>
      <trkpt lat="44.51027" lon="0.65276">
        <ele>191.4</ele>
        <time>2017-01-29T10:29:57.000Z</time>
      </trkpt>
      <trkpt lat="44.51027" lon="0.65274">
        <ele>191.4</ele>
        <time>2017-01-29T10:29:58.000Z</time>
      </trkpt>
      <trkpt lat="44.51026" lon="0.65272">
        <ele>191.5</ele>
        <time>2017-01-29T10:29:59.000Z</time>
      </trkpt>
      <trkpt lat="44.51026" lon="0.65269">
        <ele>191.6</ele>
        <time>2017-01-29T10:30:00.000Z</time>
      </trkpt>
      <trkpt lat="44.51026" lon="0.65266">
        <ele>191.7</ele>
        <time>2017-01-29T10:30:01.000Z</time>
      </trkpt>
      <trkpt lat="44.51026" lon="0.65264">
        <ele>191.7</ele>
        <time>2017-01-29T10:30:02.000Z</time>
      </trkpt>
      <trkpt lat="44.51026" lon="0.65261">
        <ele>191.9</ele>
        <time>2017-01-29T10:30:03.000Z</time>
      </trkpt>
      <trkpt lat="44.51025" lon="0.65258">
        <ele>192</ele>
        <time>2017-01-29T10:30:04.000Z</time>
      </trkpt>
      <trkpt lat="44.51025" lon="0.65255">
        <ele>192.1</ele>
        <time>2017-01-29T10:30:05.000Z</time>
      </trkpt>
      <trkpt lat="44.51025" lon="0.65252">
        <ele>192.3</ele>
        <time>2017-01-29T10:30:06.000Z</time>
      </trkpt>
      <trkpt lat="44.51025" lon="0.65249">
        <ele>192.3</ele>
        <time>2017-01-29T10:30:07.000Z</time>
      </trkpt>
      <trkpt lat="44.51025" lon="0.65245">
        <ele>192.3</ele>
        <time>2017-01-29T10:30:08.000Z</time>
      </trkpt>
      <trkpt lat="44.51025" lon="0.65242">
        <ele>192.2</ele>
        <time>2017-01-29T10:30:09.000Z</time>
      </trkpt>
      <trkpt lat="44.51026" lon="0.65239">
        <ele>191.9</ele>
        <time>2017-01-29T10:30:10.000Z</time>
      </trkpt>
      <trkpt lat="44.51026" lon="0.65235">
        <ele>191.6</ele>
        <time>2017-01-29T10:30:11.000Z</time>
      </trkpt>
      <trkpt lat="44.51027" lon="0.65232">
        <ele>191.1</ele>
        <time>2017-01-29T10:30:12.000Z</time>
      </trkpt>
      <trkpt lat="44.51028" lon="0.65228">
        <ele>190.6</ele>
        <time>2017-01-29T10:30:13.000Z</time>
      </trkpt>
      <trkpt lat="44.5103" lon="0.65225">
        <ele>190.1</ele>
        <time>2017-01-29T10:30:14.000Z</time>
      </trkpt>
      <trkpt lat="44.51031" lon="0.65221">
        <ele>189.6</ele>
        <time>2017-01-29T10:30:15.000Z</time>
      </trkpt>
      <trkpt lat="44.51032" lon="0.65218">
        <ele>189.2</ele>
        <time>2017-01-29T10:30:16.000Z</time>
      </trkpt>
      <trkpt lat="44.51032" lon="0.65215">
        <ele>188.9</ele>
        <time>2017-01-29T10:30:17.000Z</time>
      </trkpt>
      <trkpt lat="44.51033" lon="0.65212">
        <ele>188.6</ele>
        <time>2017-01-29T10:30:18.000Z</time>
      </trkpt>
      <trkpt lat="44.51033" lon="0.65209">
        <ele>188.5</ele>
        <time>2017-01-29T10:30:19.000Z</time>
      </trkpt>
      <trkpt lat="44.51033" lon="0.65206">
        <ele>188.4</ele>
        <time>2017-01-29T10:30:20.000Z</time>
      </trkpt>
      <trkpt lat="44.51033" lon="0.65203">
        <ele>188.5</ele>
        <time>2017-01-29T10:30:21.000Z</time>
      </trkpt>
      <trkpt lat="44.51033" lon="0.652">
        <ele>188.5</ele>
        <time>2017-01-29T10:30:22.000Z</time>
      </trkpt>
      <trkpt lat="44.51033" lon="0.65198">
        <ele>188.6</ele>
        <time>2017-01-29T10:30:23.000Z</time>
      </trkpt>
      <trkpt lat="44.51033" lon="0.65195">
        <ele>188.7</ele>
        <time>2017-01-29T10:30:24.000Z</time>
      </trkpt>
      <trkpt lat="44.51032" lon="0.65192">
        <ele>188.8</ele>
        <time>2017-01-29T10:30:25.000Z</time>
      </trkpt>
      <trkpt lat="44.51032" lon="0.6519">
        <ele>188.9</ele>
        <time>2017-01-29T10:30:26.000Z</time>
      </trkpt>
      <trkpt lat="44.51032" lon="0.65187">
        <ele>189.1</ele>
        <time>2017-01-29T10:30:27.000Z</time>
      </trkpt>
      <trkpt lat="44.51032" lon="0.65184">
        <ele>189.1</ele>
        <time>2017-01-29T10:30:28.000Z</time>
      </trkpt>
      <trkpt lat="44.51031" lon="0.65182">
        <ele>189.2</ele>
        <time>2017-01-29T10:30:29.000Z</time>
      </trkpt>
      <trkpt lat="44.51031" lon="0.65179">
        <ele>189.2</ele>
        <time>2017-01-29T10:30:30.000Z</time>
      </trkpt>
      <trkpt lat="44.51031" lon="0.65176">
        <ele>189.2</ele>
        <time>2017-01-29T10:30:31.000Z</time>
      </trkpt>
      <trkpt lat="44.51031" lon="0.65174">
        <ele>189.2</ele>
        <time>2017-01-29T10:30:32.000Z</time>
      </trkpt>
      <trkpt lat="44.51031" lon="0.65171">
        <ele>189.2</ele>
        <time>2017-01-29T10:30:33.000Z</time>
      </trkpt>
      <trkpt lat="44.51031" lon="0.65168">
        <ele>189.2</ele>
        <time>2017-01-29T10:30:34.000Z</time>
      </trkpt>
      <trkpt lat="44.51031" lon="0.65166">
        <ele>189.2</ele>
        <time>2017-01-29T10:30:35.000Z</time>
      </trkpt>
      <trkpt lat="44.51031" lon="0.65163">
        <ele>189.4</ele>
        <time>2017-01-29T10:30:36.000Z</time>
      </trkpt>
      <trkpt lat="44.51031" lon="0.6516">
        <ele>189.5</ele>
        <time>2017-01-29T10:30:37.000Z</time>
      </trkpt>
      <trkpt lat="44.51031" lon="0.65158">
        <ele>189.6</ele>
        <time>2017-01-29T10:30:38.000Z</time>
      </trkpt>
      <trkpt lat="44.51031" lon="0.65155">
        <ele>189.8</ele>
        <time>2017-01-29T10:30:39.000Z</time>
      </trkpt>
      <trkpt lat="44.51031" lon="0.65153">
        <ele>189.9</ele>
        <time>2017-01-29T10:30:40.000Z</time>
      </trkpt>
      <trkpt lat="44.5103" lon="0.6515">
        <ele>190.1</ele>
        <time>2017-01-29T10:30:41.000Z</time>
      </trkpt>
      <trkpt lat="44.5103" lon="0.65148">
        <ele>190.3</ele>
        <time>2017-01-29T10:30:42.000Z</time>
      </trkpt>
      <trkpt lat="44.5103" lon="0.65145">
        <ele>190.5</ele>
        <time>2017-01-29T10:30:43.000Z</time>
      </trkpt>
      <trkpt lat="44.5103" lon="0.65141">
        <ele>190.7</ele>
        <time>2017-01-29T10:30:44.000Z</time>
      </trkpt>
      <trkpt lat="44.5103" lon="0.65137">
        <ele>190.7</ele>
        <time>2017-01-29T10:30:45.000Z</time>
      </trkpt>
      <trkpt lat="44.5103" lon="0.65133">
        <ele>190.8</ele>
        <time>2017-01-29T10:30:46.000Z</time>
      </trkpt>
      <trkpt lat="44.51031" lon="0.65129">
        <ele>190.7</ele>
        <time>2017-01-29T10:30:47.000Z</time>
      </trkpt>
      <trkpt lat="44.51031" lon="0.65125">
        <ele>190.7</ele>
        <time>2017-01-29T10:30:48.000Z</time>
      </trkpt>
      <trkpt lat="44.51032" lon="0.6512">
        <ele>190.6</ele>
        <time>2017-01-29T10:30:49.000Z</time>
      </trkpt>
      <trkpt lat="44.51032" lon="0.65116">
        <ele>190.6</ele>
        <time>2017-01-29T10:30:50.000Z</time>
      </trkpt>
      <trkpt lat="44.51032" lon="0.65112">
        <ele>190.6</ele>
        <time>2017-01-29T10:30:51.000Z</time>
      </trkpt>
      <trkpt lat="44.51033" lon="0.65108">
        <ele>190.6</ele>
        <time>2017-01-29T10:30:52.000Z</time>
      </trkpt>
      <trkpt lat="44.51033" lon="0.65105">
        <ele>190.7</ele>
        <time>2017-01-29T10:30:53.000Z</time>
      </trkpt>
      <trkpt lat="44.51033" lon="0.65102">
        <ele>190.8</ele>
        <time>2017-01-29T10:30:54.000Z</time>
      </trkpt>
      <trkpt lat="44.51033" lon="0.65099">
        <ele>190.9</ele>
        <time>2017-01-29T10:30:55.000Z</time>
      </trkpt>
      <trkpt lat="44.51033" lon="0.65096">
        <ele>191</ele>
        <time>2017-01-29T10:30:56.000Z</time>
      </trkpt>
      <trkpt lat="44.51033" lon="0.65093">
        <ele>191.1</ele>
        <time>2017-01-29T10:30:57.000Z</time>
      </trkpt>
      <trkpt lat="44.51033" lon="0.6509">
        <ele>191.2</ele>
        <time>2017-01-29T10:30:58.000Z</time>
      </trkpt>
      <trkpt lat="44.51033" lon="0.65088">
        <ele>191.3</ele>
        <time>2017-01-29T10:30:59.000Z</time>
      </trkpt>
      <trkpt lat="44.51033" lon="0.65085">
        <ele>191.5</ele>
        <time>2017-01-29T10:31:00.000Z</time>
      </trkpt>
      <trkpt lat="44.51032" lon="0.65083">
        <ele>191.6</ele>
        <time>2017-01-29T10:31:01.000Z</time>
      </trkpt>
      <trkpt lat="44.51032" lon="0.6508">
        <ele>191.9</ele>
        <time>2017-01-29T10:31:02.000Z</time>
      </trkpt>
      <trkpt lat="44.51032" lon="0.65077">
        <ele>192.2</ele>
        <time>2017-01-29T10:31:03.000Z</time>
      </trkpt>
      <trkpt lat="44.51032" lon="0.65074">
        <ele>192.5</ele>
        <time>2017-01-29T10:31:04.000Z</time>
      </trkpt>
      <trkpt lat="44.51033" lon="0.65071">
        <ele>192.7</ele>
        <time>2017-01-29T10:31:05.000Z</time>
      </trkpt>
      <trkpt lat="44.51033" lon="0.65068">
        <ele>193</ele>
        <time>2017-01-29T10:31:06.000Z</time>
      </trkpt>
      <trkpt lat="44.51033" lon="0.65065">
        <ele>193.2</ele>
        <time>2017-01-29T10:31:07.000Z</time>
      </trkpt>
      <trkpt lat="44.51033" lon="0.65062">
        <ele>193.5</ele>
        <time>2017-01-29T10:31:08.000Z</time>
      </trkpt>
      <trkpt lat="44.51033" lon="0.65059">
        <ele>193.7</ele>
        <time>2017-01-29T10:31:09.000Z</time>
      </trkpt>
      <trkpt lat="44.51033" lon="0.65056">
        <ele>194</ele>
        <time>2017-01-29T10:31:10.000Z</time>
      </trkpt>
      <trkpt lat="44.51034" lon="0.65053">
        <ele>194.2</ele>
        <time>2017-01-29T10:31:11.000Z</time>
      </trkpt>
      <trkpt lat="44.51034" lon="0.6505">
        <ele>194.4</ele>
        <time>2017-01-29T10:31:12.000Z</time>
      </trkpt>
      <trkpt lat="44.51034" lon="0.65047">
        <ele>194.6</ele>
        <time>2017-01-29T10:31:13.000Z</time>
      </trkpt>
      <trkpt lat="44.51034" lon="0.65045">
        <ele>194.9</ele>
        <time>2017-01-29T10:31:14.000Z</time>
      </trkpt>
      <trkpt lat="44.51034" lon="0.65042">
        <ele>195.1</ele>
        <time>2017-01-29T10:31:15.000Z</time>
      </trkpt>
      <trkpt lat="44.51034" lon="0.6504">
        <ele>195.3</ele>
        <time>2017-01-29T10:31:16.000Z</time>
      </trkpt>
      <trkpt lat="44.51034" lon="0.65037">
        <ele>195.5</ele>
        <time>2017-01-29T10:31:17.000Z</time>
      </trkpt>
      <trkpt lat="44.51035" lon="0.65035">
        <ele>195.7</ele>
        <time>2017-01-29T10:31:18.000Z</time>
      </trkpt>
      <trkpt lat="44.51035" lon="0.65033">
        <ele>195.9</ele>
        <time>2017-01-29T10:31:19.000Z</time>
      </trkpt>
      <trkpt lat="44.51035" lon="0.65031">
        <ele>196.1</ele>
        <time>2017-01-29T10:31:20.000Z</time>
      </trkpt>
      <trkpt lat="44.51035" lon="0.65029">
        <ele>196.3</ele>
        <time>2017-01-29T10:31:21.000Z</time>
      </trkpt>
      <trkpt lat="44.51035" lon="0.65027">
        <ele>196.5</ele>
        <time>2017-01-29T10:31:22.000Z</time>
      </trkpt>
      <trkpt lat="44.51035" lon="0.65025">
        <ele>196.6</ele>
        <time>2017-01-29T10:31:23.000Z</time>
      </trkpt>
      <trkpt lat="44.51035" lon="0.65023">
        <ele>196.8</ele>
        <time>2017-01-29T10:31:24.000Z</time>
      </trkpt>
      <trkpt lat="44.51035" lon="0.65021">
        <ele>197</ele>
        <time>2017-01-29T10:31:25.000Z</time>
      </trkpt>
      <trkpt lat="44.51035" lon="0.65019">
        <ele>197.2</ele>
        <time>2017-01-29T10:31:26.000Z</time>
      </trkpt>
      <trkpt lat="44.51035" lon="0.65018">
        <ele>197.4</ele>
        <time>2017-01-29T10:31:27.000Z</time>
      </trkpt>
      <trkpt lat="44.51035" lon="0.65016">
        <ele>197.5</ele>
        <time>2017-01-29T10:31:28.000Z</time>
      </trkpt>
      <trkpt lat="44.51035" lon="0.65014">
        <ele>197.7</ele>
        <time>2017-01-29T10:31:29.000Z</time>
      </trkpt>
      <trkpt lat="44.51035" lon="0.65012">
        <ele>197.9</ele>
        <time>2017-01-29T10:31:30.000Z</time>
      </trkpt>
      <trkpt lat="44.51035" lon="0.6501">
        <ele>198.1</ele>
        <time>2017-01-29T10:31:31.000Z</time>
      </trkpt>
      <trkpt lat="44.51035" lon="0.65008">
        <ele>198.3</ele>
        <time>2017-01-29T10:31:32.000Z</time>
      </trkpt>
      <trkpt lat="44.51035" lon="0.65007">
        <ele>198.4</ele>
        <time>2017-01-29T10:31:33.000Z</time>
      </trkpt>
      <trkpt lat="44.51035" lon="0.65005">
        <ele>198.6</ele>
        <time>2017-01-29T10:31:34.000Z</time>
      </trkpt>
      <trkpt lat="44.51035" lon="0.65003">
        <ele>198.8</ele>
        <time>2017-01-29T10:31:35.000Z</time>
      </trkpt>
      <trkpt lat="44.51035" lon="0.65001">
        <ele>199</ele>
        <time>2017-01-29T10:31:36.000Z</time>
      </trkpt>
      <trkpt lat="44.51035" lon="0.64999">
        <ele>199.1</ele>
        <time>2017-01-29T10:31:37.000Z</time>
      </trkpt>
      <trkpt lat="44.51035" lon="0.64997">
        <ele>199.2</ele>
        <time>2017-01-29T10:31:38.000Z</time>
      </trkpt>
      <trkpt lat="44.51036" lon="0.64995">
        <ele>199.2</ele>
        <time>2017-01-29T10:31:39.000Z</time>
      </trkpt>
      <trkpt lat="44.51036" lon="0.64993">
        <ele>199.3</ele>
        <time>2017-01-29T10:31:40.000Z</time>
      </trkpt>
      <trkpt lat="44.51036" lon="0.64992">
        <ele>199.4</ele>
        <time>2017-01-29T10:31:41.000Z</time>
      </trkpt>
      <trkpt lat="44.51036" lon="0.6499">
        <ele>199.4</ele>
        <time>2017-01-29T10:31:42.000Z</time>
      </trkpt>
      <trkpt lat="44.51036" lon="0.64988">
        <ele>199.5</ele>
        <time>2017-01-29T10:31:43.000Z</time>
      </trkpt>
      <trkpt lat="44.51036" lon="0.64987">
        <ele>199.5</ele>
        <time>2017-01-29T10:31:44.000Z</time>
      </trkpt>
      <trkpt lat="44.51036" lon="0.64985">
        <ele>199.6</ele>
        <time>2017-01-29T10:31:45.000Z</time>
      </trkpt>
      <trkpt lat="44.51037" lon="0.64983">
        <ele>199.6</ele>
        <time>2017-01-29T10:31:46.000Z</time>
      </trkpt>
      <trkpt lat="44.51037" lon="0.64982">
        <ele>199.6</ele>
        <time>2017-01-29T10:31:47.000Z</time>
      </trkpt>
      <trkpt lat="44.51037" lon="0.6498">
        <ele>199.7</ele>
        <time>2017-01-29T10:31:48.000Z</time>
      </trkpt>
      <trkpt lat="44.51037" lon="0.64978">
        <ele>199.7</ele>
        <time>2017-01-29T10:31:49.000Z</time>
      </trkpt>
      <trkpt lat="44.51038" lon="0.64977">
        <ele>199.7</ele>
        <time>2017-01-29T10:31:50.000Z</time>
      </trkpt>
      <trkpt lat="44.51038" lon="0.64975">
        <ele>199.7</ele>
        <time>2017-01-29T10:31:51.000Z</time>
      </trkpt>
      <trkpt lat="44.51038" lon="0.64973">
        <ele>199.7</ele>
        <time>2017-01-29T10:31:52.000Z</time>
      </trkpt>
      <trkpt lat="44.51039" lon="0.64972">
        <ele>199.7</ele>
        <time>2017-01-29T10:31:53.000Z</time>
      </trkpt>
      <trkpt lat="44.51039" lon="0.6497">
        <ele>199.7</ele>
        <time>2017-01-29T10:31:54.000Z</time>
      </trkpt>
      <trkpt lat="44.5104" lon="0.64968">
        <ele>199.7</ele>
        <time>2017-01-29T10:31:55.000Z</time>
      </trkpt>
      <trkpt lat="44.5104" lon="0.64966">
        <ele>199.7</ele>
        <time>2017-01-29T10:31:56.000Z</time>
      </trkpt>
      <trkpt lat="44.51041" lon="0.64964">
        <ele>199.7</ele>
        <time>2017-01-29T10:31:57.000Z</time>
      </trkpt>
      <trkpt lat="44.51041" lon="0.64963">
        <ele>199.6</ele>
        <time>2017-01-29T10:31:58.000Z</time>
      </trkpt>
      <trkpt lat="44.51042" lon="0.64961">
        <ele>199.6</ele>
        <time>2017-01-29T10:31:59.000Z</time>
      </trkpt>
      <trkpt lat="44.51043" lon="0.64959">
        <ele>199.5</ele>
        <time>2017-01-29T10:32:00.000Z</time>
      </trkpt>
      <trkpt lat="44.51043" lon="0.64957">
        <ele>199.4</ele>
        <time>2017-01-29T10:32:01.000Z</time>
      </trkpt>
      <trkpt lat="44.51044" lon="0.64955">
        <ele>199.3</ele>
        <time>2017-01-29T10:32:02.000Z</time>
      </trkpt>
      <trkpt lat="44.51045" lon="0.64953">
        <ele>199.2</ele>
        <time>2017-01-29T10:32:03.000Z</time>
      </trkpt>
      <trkpt lat="44.51046" lon="0.64951">
        <ele>199.1</ele>
        <time>2017-01-29T10:32:04.000Z</time>
      </trkpt>
      <trkpt lat="44.51047" lon="0.64949">
        <ele>199</ele>
        <time>2017-01-29T10:32:05.000Z</time>
      </trkpt>
      <trkpt lat="44.51048" lon="0.64947">
        <ele>198.9</ele>
        <time>2017-01-29T10:32:06.000Z</time>
      </trkpt>
      <trkpt lat="44.51049" lon="0.64944">
        <ele>198.8</ele>
        <time>2017-01-29T10:32:07.000Z</time>
      </trkpt>
      <trkpt lat="44.51049" lon="0.64942">
        <ele>198.7</ele>
        <time>2017-01-29T10:32:08.000Z</time>
      </trkpt>
      <trkpt lat="44.5105" lon="0.6494">
        <ele>198.6</ele>
        <time>2017-01-29T10:32:09.000Z</time>
      </trkpt>
      <trkpt lat="44.51051" lon="0.64938">
        <ele>198.5</ele>
        <time>2017-01-29T10:32:10.000Z</time>
      </trkpt>
      <trkpt lat="44.51052" lon="0.64936">
        <ele>198.4</ele>
        <time>2017-01-29T10:32:11.000Z</time>
      </trkpt>
      <trkpt lat="44.51053" lon="0.64933">
        <ele>198.4</ele>
        <time>2017-01-29T10:32:12.000Z</time>
      </trkpt>
      <trkpt lat="44.51054" lon="0.64931">
        <ele>198.3</ele>
        <time>2017-01-29T10:32:13.000Z</time>
      </trkpt>
      <trkpt lat="44.51055" lon="0.64929">
        <ele>198.2</ele>
        <time>2017-01-29T10:32:14.000Z</time>
      </trkpt>
      <trkpt lat="44.51056" lon="0.64926">
        <ele>198.2</ele>
        <time>2017-01-29T10:32:15.000Z</time>
      </trkpt>
      <trkpt lat="44.51057" lon="0.64924">
        <ele>198.1</ele>
        <time>2017-01-29T10:32:16.000Z</time>
      </trkpt>
      <trkpt lat="44.51058" lon="0.64921">
        <ele>198.1</ele>
        <time>2017-01-29T10:32:17.000Z</time>
      </trkpt>
      <trkpt lat="44.51059" lon="0.64919">
        <ele>198.1</ele>
        <time>2017-01-29T10:32:18.000Z</time>
      </trkpt>
      <trkpt lat="44.51059" lon="0.64917">
        <ele>198.1</ele>
        <time>2017-01-29T10:32:19.000Z</time>
      </trkpt>
      <trkpt lat="44.5106" lon="0.64915">
        <ele>198.1</ele>
        <time>2017-01-29T10:32:20.000Z</time>
      </trkpt>
      <trkpt lat="44.51061" lon="0.64912">
        <ele>198.1</ele>
        <time>2017-01-29T10:32:21.000Z</time>
      </trkpt>
      <trkpt lat="44.51062" lon="0.6491">
        <ele>198.1</ele>
        <time>2017-01-29T10:32:22.000Z</time>
      </trkpt>
      <trkpt lat="44.51062" lon="0.64908">
        <ele>198.1</ele>
        <time>2017-01-29T10:32:23.000Z</time>
      </trkpt>
      <trkpt lat="44.51063" lon="0.64906">
        <ele>198.1</ele>
        <time>2017-01-29T10:32:24.000Z</time>
      </trkpt>
      <trkpt lat="44.51063" lon="0.64904">
        <ele>198.1</ele>
        <time>2017-01-29T10:32:25.000Z</time>
      </trkpt>
      <trkpt lat="44.51064" lon="0.64902">
        <ele>198.1</ele>
        <time>2017-01-29T10:32:26.000Z</time>
      </trkpt>
      <trkpt lat="44.51065" lon="0.649">
        <ele>198.2</ele>
        <time>2017-01-29T10:32:27.000Z</time>
      </trkpt>
      <trkpt lat="44.51065" lon="0.64898">
        <ele>198.2</ele>
        <time>2017-01-29T10:32:28.000Z</time>
      </trkpt>
      <trkpt lat="44.51066" lon="0.64896">
        <ele>198.2</ele>
        <time>2017-01-29T10:32:29.000Z</time>
      </trkpt>
      <trkpt lat="44.51067" lon="0.64894">
        <ele>198.2</ele>
        <time>2017-01-29T10:32:30.000Z</time>
      </trkpt>
      <trkpt lat="44.51068" lon="0.64892">
        <ele>198.3</ele>
        <time>2017-01-29T10:32:31.000Z</time>
      </trkpt>
      <trkpt lat="44.51069" lon="0.64889">
        <ele>198.3</ele>
        <time>2017-01-29T10:32:32.000Z</time>
      </trkpt>
      <trkpt lat="44.5107" lon="0.64887">
        <ele>198.3</ele>
        <time>2017-01-29T10:32:33.000Z</time>
      </trkpt>
      <trkpt lat="44.5107" lon="0.64884">
        <ele>198.4</ele>
        <time>2017-01-29T10:32:34.000Z</time>
      </trkpt>
      <trkpt lat="44.51071" lon="0.64881">
        <ele>198.4</ele>
        <time>2017-01-29T10:32:35.000Z</time>
      </trkpt>
      <trkpt lat="44.51072" lon="0.64879">
        <ele>198.5</ele>
        <time>2017-01-29T10:32:36.000Z</time>
      </trkpt>
      <trkpt lat="44.51073" lon="0.64876">
        <ele>198.5</ele>
        <time>2017-01-29T10:32:37.000Z</time>
      </trkpt>
      <trkpt lat="44.51074" lon="0.64874">
        <ele>198.6</ele>
        <time>2017-01-29T10:32:38.000Z</time>
      </trkpt>
      <trkpt lat="44.51075" lon="0.64872">
        <ele>198.7</ele>
        <time>2017-01-29T10:32:39.000Z</time>
      </trkpt>
      <trkpt lat="44.51076" lon="0.64869">
        <ele>198.7</ele>
        <time>2017-01-29T10:32:40.000Z</time>
      </trkpt>
      <trkpt lat="44.51076" lon="0.64867">
        <ele>198.8</ele>
        <time>2017-01-29T10:32:41.000Z</time>
      </trkpt>
      <trkpt lat="44.51077" lon="0.64864">
        <ele>198.9</ele>
        <time>2017-01-29T10:32:42.000Z</time>
      </trkpt>
      <trkpt lat="44.51078" lon="0.64862">
        <ele>199</ele>
        <time>2017-01-29T10:32:43.000Z</time>
      </trkpt>
      <trkpt lat="44.51079" lon="0.6486">
        <ele>199</ele>
        <time>2017-01-29T10:32:44.000Z</time>
      </trkpt>
      <trkpt lat="44.5108" lon="0.64857">
        <ele>199.1</ele>
        <time>2017-01-29T10:32:45.000Z</time>
      </trkpt>
      <trkpt lat="44.51081" lon="0.64855">
        <ele>199.2</ele>
        <time>2017-01-29T10:32:46.000Z</time>
      </trkpt>
      <trkpt lat="44.51082" lon="0.64852">
        <ele>199.3</ele>
        <time>2017-01-29T10:32:47.000Z</time>
      </trkpt>
      <trkpt lat="44.51083" lon="0.6485">
        <ele>199.3</ele>
        <time>2017-01-29T10:32:48.000Z</time>
      </trkpt>
      <trkpt lat="44.51084" lon="0.64848">
        <ele>199.4</ele>
        <time>2017-01-29T10:32:49.000Z</time>
      </trkpt>
      <trkpt lat="44.51084" lon="0.64846">
        <ele>199.4</ele>
        <time>2017-01-29T10:32:50.000Z</time>
      </trkpt>
      <trkpt lat="44.51085" lon="0.64844">
        <ele>199.4</ele>
        <time>2017-01-29T10:32:51.000Z</time>
      </trkpt>
      <trkpt lat="44.51086" lon="0.64842">
        <ele>199.3</ele>
        <time>2017-01-29T10:32:52.000Z</time>
      </trkpt>
      <trkpt lat="44.51087" lon="0.6484">
        <ele>199.3</ele>
        <time>2017-01-29T10:32:53.000Z</time>
      </trkpt>
      <trkpt lat="44.51088" lon="0.64838">
        <ele>199.2</ele>
        <time>2017-01-29T10:32:54.000Z</time>
      </trkpt>
      <trkpt lat="44.51089" lon="0.64837">
        <ele>199.1</ele>
        <time>2017-01-29T10:32:55.000Z</time>
      </trkpt>
      <trkpt lat="44.51091" lon="0.64835">
        <ele>198.9</ele>
        <time>2017-01-29T10:32:56.000Z</time>
      </trkpt>
      <trkpt lat="44.51092" lon="0.64834">
        <ele>198.7</ele>
        <time>2017-01-29T10:32:57.000Z</time>
      </trkpt>
      <trkpt lat="44.51093" lon="0.64832">
        <ele>198.5</ele>
        <time>2017-01-29T10:32:58.000Z</time>
      </trkpt>
      <trkpt lat="44.51095" lon="0.64831">
        <ele>198.2</ele>
        <time>2017-01-29T10:32:59.000Z</time>
      </trkpt>
      <trkpt lat="44.51097" lon="0.64829">
        <ele>197.9</ele>
        <time>2017-01-29T10:33:00.000Z</time>
      </trkpt>
      <trkpt lat="44.51099" lon="0.64828">
        <ele>197.5</ele>
        <time>2017-01-29T10:33:01.000Z</time>
      </trkpt>
      <trkpt lat="44.51101" lon="0.64826">
        <ele>197.2</ele>
        <time>2017-01-29T10:33:02.000Z</time>
      </trkpt>
      <trkpt lat="44.51103" lon="0.64824">
        <ele>196.9</ele>
        <time>2017-01-29T10:33:03.000Z</time>
      </trkpt>
      <trkpt lat="44.51105" lon="0.64822">
        <ele>196.5</ele>
        <time>2017-01-29T10:33:04.000Z</time>
      </trkpt>
      <trkpt lat="44.51107" lon="0.64819">
        <ele>196.2</ele>
        <time>2017-01-29T10:33:05.000Z</time>
      </trkpt>
      <trkpt lat="44.51109" lon="0.64817">
        <ele>196</ele>
        <time>2017-01-29T10:33:06.000Z</time>
      </trkpt>
      <trkpt lat="44.5111" lon="0.64814">
        <ele>195.7</ele>
        <time>2017-01-29T10:33:07.000Z</time>
      </trkpt>
      <trkpt lat="44.51112" lon="0.64811">
        <ele>195.5</ele>
        <time>2017-01-29T10:33:08.000Z</time>
      </trkpt>
      <trkpt lat="44.51114" lon="0.64808">
        <ele>195.4</ele>
        <time>2017-01-29T10:33:09.000Z</time>
      </trkpt>
      <trkpt lat="44.51116" lon="0.64804">
        <ele>195.2</ele>
        <time>2017-01-29T10:33:10.000Z</time>
      </trkpt>
      <trkpt lat="44.51118" lon="0.64801">
        <ele>195.1</ele>
        <time>2017-01-29T10:33:11.000Z</time>
      </trkpt>
      <trkpt lat="44.51119" lon="0.64797">
        <ele>194.9</ele>
        <time>2017-01-29T10:33:12.000Z</time>
      </trkpt>
      <trkpt lat="44.51121" lon="0.64794">
        <ele>194.9</ele>
        <time>2017-01-29T10:33:13.000Z</time>
      </trkpt>
      <trkpt lat="44.51123" lon="0.6479">
        <ele>194.8</ele>
        <time>2017-01-29T10:33:14.000Z</time>
      </trkpt>
      <trkpt lat="44.51124" lon="0.64787">
        <ele>194.8</ele>
        <time>2017-01-29T10:33:15.000Z</time>
      </trkpt>
      <trkpt lat="44.51125" lon="0.64783">
        <ele>194.8</ele>
        <time>2017-01-29T10:33:16.000Z</time>
      </trkpt>
      <trkpt lat="44.51126" lon="0.6478">
        <ele>194.8</ele>
        <time>2017-01-29T10:33:17.000Z</time>
      </trkpt>
      <trkpt lat="44.51127" lon="0.64776">
        <ele>194.9</ele>
        <time>2017-01-29T10:33:18.000Z</time>
      </trkpt>
      <trkpt lat="44.51128" lon="0.64773">
        <ele>194.9</ele>
        <time>2017-01-29T10:33:19.000Z</time>
      </trkpt>
      <trkpt lat="44.51129" lon="0.64771">
        <ele>194.9</ele>
        <time>2017-01-29T10:33:20.000Z</time>
      </trkpt>
      <trkpt lat="44.5113" lon="0.64768">
        <ele>194.9</ele>
        <time>2017-01-29T10:33:21.000Z</time>
      </trkpt>
      <trkpt lat="44.51131" lon="0.64766">
        <ele>194.9</ele>
        <time>2017-01-29T10:33:22.000Z</time>
      </trkpt>
      <trkpt lat="44.51131" lon="0.64764">
        <ele>195</ele>
        <time>2017-01-29T10:33:23.000Z</time>
      </trkpt>
      <trkpt lat="44.51132" lon="0.64763">
        <ele>194.9</ele>
        <time>2017-01-29T10:33:24.000Z</time>
      </trkpt>
      <trkpt lat="44.51133" lon="0.64762">
        <ele>194.9</ele>
        <time>2017-01-29T10:33:25.000Z</time>
      </trkpt>
      <trkpt lat="44.51133" lon="0.6476">
        <ele>194.9</ele>
        <time>2017-01-29T10:33:26.000Z</time>
      </trkpt>
      <trkpt lat="44.51134" lon="0.64759">
        <ele>194.8</ele>
        <time>2017-01-29T10:33:27.000Z</time>
      </trkpt>
      <trkpt lat="44.51135" lon="0.64757">
        <ele>194.8</ele>
        <time>2017-01-29T10:33:28.000Z</time>
      </trkpt>
      <trkpt lat="44.51136" lon="0.64755">
        <ele>194.7</ele>
        <time>2017-01-29T10:33:29.000Z</time>
      </trkpt>
      <trkpt lat="44.51137" lon="0.64753">
        <ele>194.6</ele>
        <time>2017-01-29T10:33:30.000Z</time>
      </trkpt>
      <trkpt lat="44.51138" lon="0.64751">
        <ele>194.5</ele>
        <time>2017-01-29T10:33:31.000Z</time>
      </trkpt>
      <trkpt lat="44.51139" lon="0.64749">
        <ele>194.4</ele>
        <time>2017-01-29T10:33:32.000Z</time>
      </trkpt>
      <trkpt lat="44.5114" lon="0.64747">
        <ele>194.1</ele>
        <time>2017-01-29T10:33:33.000Z</time>
      </trkpt>
      <trkpt lat="44.51142" lon="0.64745">
        <ele>193.8</ele>
        <time>2017-01-29T10:33:34.000Z</time>
      </trkpt>
      <trkpt lat="44.51143" lon="0.64744">
        <ele>193.5</ele>
        <time>2017-01-29T10:33:35.000Z</time>
      </trkpt>
      <trkpt lat="44.51145" lon="0.64742">
        <ele>193.1</ele>
        <time>2017-01-29T10:33:36.000Z</time>
      </trkpt>
      <trkpt lat="44.51147" lon="0.64741">
        <ele>192.6</ele>
        <time>2017-01-29T10:33:37.000Z</time>
      </trkpt>
      <trkpt lat="44.5115" lon="0.6474">
        <ele>192.1</ele>
        <time>2017-01-29T10:33:38.000Z</time>
      </trkpt>
      <trkpt lat="44.51152" lon="0.64739">
        <ele>191.5</ele>
        <time>2017-01-29T10:33:39.000Z</time>
      </trkpt>
      <trkpt lat="44.51155" lon="0.64738">
        <ele>190.7</ele>
        <time>2017-01-29T10:33:40.000Z</time>
      </trkpt>
      <trkpt lat="44.51158" lon="0.64738">
        <ele>190</ele>
        <time>2017-01-29T10:33:41.000Z</time>
      </trkpt>
      <trkpt lat="44.51161" lon="0.64737">
        <ele>189.3</ele>
        <time>2017-01-29T10:33:42.000Z</time>
      </trkpt>
      <trkpt lat="44.51163" lon="0.64736">
        <ele>188.7</ele>
        <time>2017-01-29T10:33:43.000Z</time>
      </trkpt>
      <trkpt lat="44.51165" lon="0.64736">
        <ele>188.2</ele>
        <time>2017-01-29T10:33:44.000Z</time>
      </trkpt>
      <trkpt lat="44.51167" lon="0.64736">
        <ele>187.9</ele>
        <time>2017-01-29T10:33:45.000Z</time>
      </trkpt>
      <trkpt lat="44.51168" lon="0.64735">
        <ele>187.7</ele>
        <time>2017-01-29T10:33:46.000Z</time>
      </trkpt>
      <trkpt lat="44.51168" lon="0.64735">
        <ele>187.6</ele>
        <time>2017-01-29T10:33:47.000Z</time>
      </trkpt>
      <trkpt lat="44.51168" lon="0.64735">
        <ele>187.6</ele>
        <time>2017-01-29T10:33:48.000Z</time>
      </trkpt>
      <trkpt lat="44.51168" lon="0.64735">
        <ele>187.6</ele>
        <time>2017-01-29T10:33:49.000Z</time>
      </trkpt>
      <trkpt lat="44.51168" lon="0.64735">
        <ele>187.6</ele>
        <time>2017-01-29T10:33:50.000Z</time>
      </trkpt>
      <trkpt lat="44.51168" lon="0.64735">
        <ele>187.6</ele>
        <time>2017-01-29T10:33:51.000Z</time>
      </trkpt>
      <trkpt lat="44.51168" lon="0.64735">
        <ele>187.6</ele>
        <time>2017-01-29T10:33:52.000Z</time>
      </trkpt>
      <trkpt lat="44.51168" lon="0.64735">
        <ele>187.6</ele>
        <time>2017-01-29T10:33:53.000Z</time>
      </trkpt>
      <trkpt lat="44.51168" lon="0.64735">
        <ele>187.6</ele>
        <time>2017-01-29T10:33:54.000Z</time>
      </trkpt>
      <trkpt lat="44.51168" lon="0.64735">
        <ele>187.5</ele>
        <time>2017-01-29T10:33:55.000Z</time>
      </trkpt>
      <trkpt lat="44.51168" lon="0.64735">
        <ele>187.5</ele>
        <time>2017-01-29T10:33:56.000Z</time>
      </trkpt>
      <trkpt lat="44.51168" lon="0.64735">
        <ele>187.5</ele>
        <time>2017-01-29T10:33:57.000Z</time>
      </trkpt>
      <trkpt lat="44.51169" lon="0.64735">
        <ele>187.5</ele>
        <time>2017-01-29T10:33:58.000Z</time>
      </trkpt>
      <trkpt lat="44.51169" lon="0.64735">
        <ele>187.5</ele>
        <time>2017-01-29T10:33:59.000Z</time>
      </trkpt>
      <trkpt lat="44.51169" lon="0.64735">
        <ele>187.5</ele>
        <time>2017-01-29T10:34:00.000Z</time>
      </trkpt>
      <trkpt lat="44.51168" lon="0.64735">
        <ele>187.5</ele>
        <time>2017-01-29T10:34:01.000Z</time>
      </trkpt>
      <trkpt lat="44.51169" lon="0.64735">
        <ele>187.5</ele>
        <time>2017-01-29T10:34:02.000Z</time>
      </trkpt>
      <trkpt lat="44.51169" lon="0.64735">
        <ele>187.4</ele>
        <time>2017-01-29T10:34:03.000Z</time>
      </trkpt>
      <trkpt lat="44.5117" lon="0.64735">
        <ele>187.2</ele>
        <time>2017-01-29T10:34:04.000Z</time>
      </trkpt>
      <trkpt lat="44.51173" lon="0.64736">
        <ele>186.6</ele>
        <time>2017-01-29T10:34:05.000Z</time>
      </trkpt>
      <trkpt lat="44.51176" lon="0.64736">
        <ele>185.9</ele>
        <time>2017-01-29T10:34:06.000Z</time>
      </trkpt>
      <trkpt lat="44.5118" lon="0.64737">
        <ele>185.1</ele>
        <time>2017-01-29T10:34:07.000Z</time>
      </trkpt>
      <trkpt lat="44.51184" lon="0.64737">
        <ele>184.1</ele>
        <time>2017-01-29T10:34:08.000Z</time>
      </trkpt>
      <trkpt lat="44.51189" lon="0.64738">
        <ele>183.1</ele>
        <time>2017-01-29T10:34:09.000Z</time>
      </trkpt>
      <trkpt lat="44.51194" lon="0.64738">
        <ele>181.9</ele>
        <time>2017-01-29T10:34:10.000Z</time>
      </trkpt>
      <trkpt lat="44.51201" lon="0.64739">
        <ele>180.6</ele>
        <time>2017-01-29T10:34:11.000Z</time>
      </trkpt>
      <trkpt lat="44.51207" lon="0.64739">
        <ele>179.2</ele>
        <time>2017-01-29T10:34:12.000Z</time>
      </trkpt>
      <trkpt lat="44.51215" lon="0.64739">
        <ele>177.6</ele>
        <time>2017-01-29T10:34:13.000Z</time>
      </trkpt>
      <trkpt lat="44.51223" lon="0.64739">
        <ele>176</ele>
        <time>2017-01-29T10:34:14.000Z</time>
      </trkpt>
      <trkpt lat="44.51231" lon="0.64739">
        <ele>174.3</ele>
        <time>2017-01-29T10:34:15.000Z</time>
      </trkpt>
      <trkpt lat="44.51239" lon="0.64738">
        <ele>172.6</ele>
        <time>2017-01-29T10:34:16.000Z</time>
      </trkpt>
      <trkpt lat="44.51247" lon="0.64738">
        <ele>170.9</ele>
        <time>2017-01-29T10:34:17.000Z</time>
      </trkpt>
      <trkpt lat="44.51256" lon="0.64738">
        <ele>169.6</ele>
        <time>2017-01-29T10:34:18.000Z</time>
      </trkpt>
      <trkpt lat="44.51264" lon="0.64738">
        <ele>168.5</ele>
        <time>2017-01-29T10:34:19.000Z</time>
      </trkpt>
      <trkpt lat="44.51273" lon="0.64738">
        <ele>167.4</ele>
        <time>2017-01-29T10:34:20.000Z</time>
      </trkpt>
      <trkpt lat="44.51282" lon="0.64738">
        <ele>166.3</ele>
        <time>2017-01-29T10:34:21.000Z</time>
      </trkpt>
      <trkpt lat="44.51291" lon="0.64739">
        <ele>165.2</ele>
        <time>2017-01-29T10:34:22.000Z</time>
      </trkpt>
      <trkpt lat="44.513" lon="0.64739">
        <ele>164.1</ele>
        <time>2017-01-29T10:34:23.000Z</time>
      </trkpt>
      <trkpt lat="44.51309" lon="0.64738">
        <ele>163</ele>
        <time>2017-01-29T10:34:24.000Z</time>
      </trkpt>
      <trkpt lat="44.51317" lon="0.64738">
        <ele>162.1</ele>
        <time>2017-01-29T10:34:25.000Z</time>
      </trkpt>
      <trkpt lat="44.51324" lon="0.64738">
        <ele>161.2</ele>
        <time>2017-01-29T10:34:26.000Z</time>
      </trkpt>
      <trkpt lat="44.5133" lon="0.64738">
        <ele>160.4</ele>
        <time>2017-01-29T10:34:27.000Z</time>
      </trkpt>
      <trkpt lat="44.51335" lon="0.64737">
        <ele>159.8</ele>
        <time>2017-01-29T10:34:28.000Z</time>
      </trkpt>
      <trkpt lat="44.5134" lon="0.64737">
        <ele>159.4</ele>
        <time>2017-01-29T10:34:29.000Z</time>
      </trkpt>
      <trkpt lat="44.51344" lon="0.64737">
        <ele>159</ele>
        <time>2017-01-29T10:34:30.000Z</time>
      </trkpt>
      <trkpt lat="44.51348" lon="0.64736">
        <ele>158.7</ele>
        <time>2017-01-29T10:34:31.000Z</time>
      </trkpt>
      <trkpt lat="44.51352" lon="0.64735">
        <ele>158.3</ele>
        <time>2017-01-29T10:34:32.000Z</time>
      </trkpt>
      <trkpt lat="44.51356" lon="0.64735">
        <ele>158</ele>
        <time>2017-01-29T10:34:33.000Z</time>
      </trkpt>
      <trkpt lat="44.51358" lon="0.64734">
        <ele>157.8</ele>
        <time>2017-01-29T10:34:34.000Z</time>
      </trkpt>
      <trkpt lat="44.51361" lon="0.64735">
        <ele>157.6</ele>
        <time>2017-01-29T10:34:35.000Z</time>
      </trkpt>
      <trkpt lat="44.51362" lon="0.64735">
        <ele>157.4</ele>
        <time>2017-01-29T10:34:36.000Z</time>
      </trkpt>
      <trkpt lat="44.51365" lon="0.64736">
        <ele>157.3</ele>
        <time>2017-01-29T10:34:37.000Z</time>
      </trkpt>
      <trkpt lat="44.51367" lon="0.64737">
        <ele>157</ele>
        <time>2017-01-29T10:34:38.000Z</time>
      </trkpt>
      <trkpt lat="44.5137" lon="0.64737">
        <ele>156.8</ele>
        <time>2017-01-29T10:34:39.000Z</time>
      </trkpt>
      <trkpt lat="44.51374" lon="0.64737">
        <ele>156.4</ele>
        <time>2017-01-29T10:34:40.000Z</time>
      </trkpt>
      <trkpt lat="44.51378" lon="0.64736">
        <ele>156.1</ele>
        <time>2017-01-29T10:34:41.000Z</time>
      </trkpt>
      <trkpt lat="44.51381" lon="0.64734">
        <ele>155.8</ele>
        <time>2017-01-29T10:34:42.000Z</time>
      </trkpt>
      <trkpt lat="44.51385" lon="0.64731">
        <ele>155.4</ele>
        <time>2017-01-29T10:34:43.000Z</time>
      </trkpt>
      <trkpt lat="44.51387" lon="0.64728">
        <ele>155.1</ele>
        <time>2017-01-29T10:34:44.000Z</time>
      </trkpt>
      <trkpt lat="44.51388" lon="0.64723">
        <ele>154.9</ele>
        <time>2017-01-29T10:34:45.000Z</time>
      </trkpt>
      <trkpt lat="44.51388" lon="0.64718">
        <ele>154.9</ele>
        <time>2017-01-29T10:34:46.000Z</time>
      </trkpt>
      <trkpt lat="44.51386" lon="0.64712">
        <ele>155</ele>
        <time>2017-01-29T10:34:47.000Z</time>
      </trkpt>
      <trkpt lat="44.51383" lon="0.64706">
        <ele>155.2</ele>
        <time>2017-01-29T10:34:48.000Z</time>
      </trkpt>
      <trkpt lat="44.51381" lon="0.647">
        <ele>155.3</ele>
        <time>2017-01-29T10:34:49.000Z</time>
      </trkpt>
      <trkpt lat="44.51379" lon="0.64693">
        <ele>155.4</ele>
        <time>2017-01-29T10:34:50.000Z</time>
      </trkpt>
      <trkpt lat="44.5138" lon="0.64687">
        <ele>155.3</ele>
        <time>2017-01-29T10:34:51.000Z</time>
      </trkpt>
      <trkpt lat="44.51382" lon="0.6468">
        <ele>154.9</ele>
        <time>2017-01-29T10:34:52.000Z</time>
      </trkpt>
      <trkpt lat="44.51386" lon="0.64674">
        <ele>154.4</ele>
        <time>2017-01-29T10:34:53.000Z</time>
      </trkpt>
      <trkpt lat="44.51391" lon="0.6467">
        <ele>153.8</ele>
        <time>2017-01-29T10:34:54.000Z</time>
      </trkpt>
      <trkpt lat="44.51398" lon="0.64669">
        <ele>153.1</ele>
        <time>2017-01-29T10:34:55.000Z</time>
      </trkpt>
      <trkpt lat="44.51404" lon="0.64671">
        <ele>152.4</ele>
        <time>2017-01-29T10:34:56.000Z</time>
      </trkpt>
      <trkpt lat="44.51411" lon="0.64674">
        <ele>151.8</ele>
        <time>2017-01-29T10:34:57.000Z</time>
      </trkpt>
      <trkpt lat="44.51417" lon="0.64678">
        <ele>151.2</ele>
        <time>2017-01-29T10:34:58.000Z</time>
      </trkpt>
      <trkpt lat="44.51423" lon="0.64682">
        <ele>150.8</ele>
        <time>2017-01-29T10:34:59.000Z</time>
      </trkpt>
      <trkpt lat="44.51428" lon="0.64687">
        <ele>150.4</ele>
        <time>2017-01-29T10:35:00.000Z</time>
      </trkpt>
      <trkpt lat="44.51432" lon="0.64693">
        <ele>150.2</ele>
        <time>2017-01-29T10:35:01.000Z</time>
      </trkpt>
      <trkpt lat="44.51436" lon="0.64698">
        <ele>150</ele>
        <time>2017-01-29T10:35:02.000Z</time>
      </trkpt>
      <trkpt lat="44.51439" lon="0.64703">
        <ele>149.8</ele>
        <time>2017-01-29T10:35:03.000Z</time>
      </trkpt>
      <trkpt lat="44.51442" lon="0.64709">
        <ele>149.7</ele>
        <time>2017-01-29T10:35:04.000Z</time>
      </trkpt>
      <trkpt lat="44.51445" lon="0.64714">
        <ele>149.7</ele>
        <time>2017-01-29T10:35:05.000Z</time>
      </trkpt>
      <trkpt lat="44.51447" lon="0.64719">
        <ele>149.6</ele>
        <time>2017-01-29T10:35:06.000Z</time>
      </trkpt>
      <trkpt lat="44.5145" lon="0.64724">
        <ele>149.5</ele>
        <time>2017-01-29T10:35:07.000Z</time>
      </trkpt>
      <trkpt lat="44.51452" lon="0.64729">
        <ele>149.4</ele>
        <time>2017-01-29T10:35:08.000Z</time>
      </trkpt>
      <trkpt lat="44.51455" lon="0.64733">
        <ele>149.3</ele>
        <time>2017-01-29T10:35:09.000Z</time>
      </trkpt>
      <trkpt lat="44.51457" lon="0.64737">
        <ele>149.2</ele>
        <time>2017-01-29T10:35:10.000Z</time>
      </trkpt>
      <trkpt lat="44.51461" lon="0.64739">
        <ele>149</ele>
        <time>2017-01-29T10:35:11.000Z</time>
      </trkpt>
      <trkpt lat="44.51465" lon="0.6474">
        <ele>148.7</ele>
        <time>2017-01-29T10:35:12.000Z</time>
      </trkpt>
      <trkpt lat="44.5147" lon="0.6474">
        <ele>148.2</ele>
        <time>2017-01-29T10:35:13.000Z</time>
      </trkpt>
      <trkpt lat="44.51475" lon="0.64739">
        <ele>147.7</ele>
        <time>2017-01-29T10:35:14.000Z</time>
      </trkpt>
      <trkpt lat="44.51481" lon="0.64738">
        <ele>147.2</ele>
        <time>2017-01-29T10:35:15.000Z</time>
      </trkpt>
      <trkpt lat="44.51488" lon="0.64737">
        <ele>146.6</ele>
        <time>2017-01-29T10:35:16.000Z</time>
      </trkpt>
      <trkpt lat="44.51495" lon="0.64737">
        <ele>146</ele>
        <time>2017-01-29T10:35:17.000Z</time>
      </trkpt>
      <trkpt lat="44.51502" lon="0.64736">
        <ele>145.3</ele>
        <time>2017-01-29T10:35:18.000Z</time>
      </trkpt>
      <trkpt lat="44.5151" lon="0.64736">
        <ele>144.6</ele>
        <time>2017-01-29T10:35:19.000Z</time>
      </trkpt>
      <trkpt lat="44.51518" lon="0.64735">
        <ele>143.9</ele>
        <time>2017-01-29T10:35:20.000Z</time>
      </trkpt>
      <trkpt lat="44.51526" lon="0.64735">
        <ele>143.2</ele>
        <time>2017-01-29T10:35:21.000Z</time>
      </trkpt>
      <trkpt lat="44.51534" lon="0.64735">
        <ele>142.4</ele>
        <time>2017-01-29T10:35:22.000Z</time>
      </trkpt>
      <trkpt lat="44.51543" lon="0.64735">
        <ele>141.7</ele>
        <time>2017-01-29T10:35:23.000Z</time>
      </trkpt>
      <trkpt lat="44.51551" lon="0.64736">
        <ele>140.9</ele>
        <time>2017-01-29T10:35:24.000Z</time>
      </trkpt>
      <trkpt lat="44.51561" lon="0.64737">
        <ele>140.1</ele>
        <time>2017-01-29T10:35:25.000Z</time>
      </trkpt>
      <trkpt lat="44.5157" lon="0.64739">
        <ele>139.2</ele>
        <time>2017-01-29T10:35:26.000Z</time>
      </trkpt>
      <trkpt lat="44.5158" lon="0.64742">
        <ele>138.3</ele>
        <time>2017-01-29T10:35:27.000Z</time>
      </trkpt>
      <trkpt lat="44.5159" lon="0.64744">
        <ele>137.5</ele>
        <time>2017-01-29T10:35:28.000Z</time>
      </trkpt>
      <trkpt lat="44.516" lon="0.64747">
        <ele>136.6</ele>
        <time>2017-01-29T10:35:29.000Z</time>
      </trkpt>
      <trkpt lat="44.5161" lon="0.6475">
        <ele>135.7</ele>
        <time>2017-01-29T10:35:30.000Z</time>
      </trkpt>
      <trkpt lat="44.51621" lon="0.64754">
        <ele>134.8</ele>
        <time>2017-01-29T10:35:31.000Z</time>
      </trkpt>
      <trkpt lat="44.51632" lon="0.64757">
        <ele>133.8</ele>
        <time>2017-01-29T10:35:32.000Z</time>
      </trkpt>
      <trkpt lat="44.51643" lon="0.64761">
        <ele>132.8</ele>
        <time>2017-01-29T10:35:33.000Z</time>
      </trkpt>
      <trkpt lat="44.51654" lon="0.64765">
        <ele>131.9</ele>
        <time>2017-01-29T10:35:34.000Z</time>
      </trkpt>
      <trkpt lat="44.51665" lon="0.64768">
        <ele>130.9</ele>
        <time>2017-01-29T10:35:35.000Z</time>
      </trkpt>
      <trkpt lat="44.51676" lon="0.64772">
        <ele>130.8</ele>
        <time>2017-01-29T10:35:36.000Z</time>
      </trkpt>
      <trkpt lat="44.51687" lon="0.64775">
        <ele>130.9</ele>
        <time>2017-01-29T10:35:37.000Z</time>
      </trkpt>
      <trkpt lat="44.51699" lon="0.64776">
        <ele>131</ele>
        <time>2017-01-29T10:35:38.000Z</time>
      </trkpt>
      <trkpt lat="44.5171" lon="0.64776">
        <ele>131</ele>
        <time>2017-01-29T10:35:39.000Z</time>
      </trkpt>
      <trkpt lat="44.51722" lon="0.64775">
        <ele>131.2</ele>
        <time>2017-01-29T10:35:40.000Z</time>
      </trkpt>
      <trkpt lat="44.51733" lon="0.64772">
        <ele>131.3</ele>
        <time>2017-01-29T10:35:41.000Z</time>
      </trkpt>
      <trkpt lat="44.51743" lon="0.64768">
        <ele>131.5</ele>
        <time>2017-01-29T10:35:42.000Z</time>
      </trkpt>
      <trkpt lat="44.51754" lon="0.64765">
        <ele>131.6</ele>
        <time>2017-01-29T10:35:43.000Z</time>
      </trkpt>
      <trkpt lat="44.51763" lon="0.64762">
        <ele>131.5</ele>
        <time>2017-01-29T10:35:44.000Z</time>
      </trkpt>
      <trkpt lat="44.51773" lon="0.6476">
        <ele>131.3</ele>
        <time>2017-01-29T10:35:45.000Z</time>
      </trkpt>
      <trkpt lat="44.51782" lon="0.64756">
        <ele>131.2</ele>
        <time>2017-01-29T10:35:46.000Z</time>
      </trkpt>
      <trkpt lat="44.5179" lon="0.64751">
        <ele>131.1</ele>
        <time>2017-01-29T10:35:47.000Z</time>
      </trkpt>
      <trkpt lat="44.51797" lon="0.64745">
        <ele>131</ele>
        <time>2017-01-29T10:35:48.000Z</time>
      </trkpt>
      <trkpt lat="44.51804" lon="0.64739">
        <ele>131.1</ele>
        <time>2017-01-29T10:35:49.000Z</time>
      </trkpt>
      <trkpt lat="44.51811" lon="0.64733">
        <ele>131.1</ele>
        <time>2017-01-29T10:35:50.000Z</time>
      </trkpt>
      <trkpt lat="44.51817" lon="0.64727">
        <ele>131</ele>
        <time>2017-01-29T10:35:51.000Z</time>
      </trkpt>
      <trkpt lat="44.51823" lon="0.64722">
        <ele>131</ele>
        <time>2017-01-29T10:35:52.000Z</time>
      </trkpt>
      <trkpt lat="44.51829" lon="0.64715">
        <ele>131</ele>
        <time>2017-01-29T10:35:53.000Z</time>
      </trkpt>
      <trkpt lat="44.51832" lon="0.64708">
        <ele>131</ele>
        <time>2017-01-29T10:35:54.000Z</time>
      </trkpt>
      <trkpt lat="44.51834" lon="0.647">
        <ele>131.3</ele>
        <time>2017-01-29T10:35:55.000Z</time>
      </trkpt>
      <trkpt lat="44.51834" lon="0.64692">
        <ele>131.5</ele>
        <time>2017-01-29T10:35:56.000Z</time>
      </trkpt>
      <trkpt lat="44.51834" lon="0.64683">
        <ele>131.7</ele>
        <time>2017-01-29T10:35:57.000Z</time>
      </trkpt>
      <trkpt lat="44.51835" lon="0.64673">
        <ele>131.9</ele>
        <time>2017-01-29T10:35:58.000Z</time>
      </trkpt>
      <trkpt lat="44.51835" lon="0.64663">
        <ele>132.2</ele>
        <time>2017-01-29T10:35:59.000Z</time>
      </trkpt>
      <trkpt lat="44.51835" lon="0.64653">
        <ele>132.6</ele>
        <time>2017-01-29T10:36:00.000Z</time>
      </trkpt>
      <trkpt lat="44.51835" lon="0.64642">
        <ele>133</ele>
        <time>2017-01-29T10:36:01.000Z</time>
      </trkpt>
      <trkpt lat="44.51835" lon="0.64632">
        <ele>133.4</ele>
        <time>2017-01-29T10:36:02.000Z</time>
      </trkpt>
      <trkpt lat="44.51835" lon="0.6462">
        <ele>133.8</ele>
        <time>2017-01-29T10:36:03.000Z</time>
      </trkpt>
      <trkpt lat="44.51835" lon="0.64609">
        <ele>134.2</ele>
        <time>2017-01-29T10:36:04.000Z</time>
      </trkpt>
      <trkpt lat="44.51836" lon="0.64598">
        <ele>134.6</ele>
        <time>2017-01-29T10:36:05.000Z</time>
      </trkpt>
      <trkpt lat="44.51836" lon="0.64587">
        <ele>135</ele>
        <time>2017-01-29T10:36:06.000Z</time>
      </trkpt>
      <trkpt lat="44.51836" lon="0.64576">
        <ele>135.2</ele>
        <time>2017-01-29T10:36:07.000Z</time>
      </trkpt>
      <trkpt lat="44.51836" lon="0.64566">
        <ele>135.2</ele>
        <time>2017-01-29T10:36:08.000Z</time>
      </trkpt>
      <trkpt lat="44.51836" lon="0.64556">
        <ele>135.2</ele>
        <time>2017-01-29T10:36:09.000Z</time>
      </trkpt>
      <trkpt lat="44.51837" lon="0.64546">
        <ele>135.2</ele>
        <time>2017-01-29T10:36:10.000Z</time>
      </trkpt>
      <trkpt lat="44.51837" lon="0.64537">
        <ele>135.2</ele>
        <time>2017-01-29T10:36:11.000Z</time>
      </trkpt>
      <trkpt lat="44.51837" lon="0.64529">
        <ele>135.3</ele>
        <time>2017-01-29T10:36:12.000Z</time>
      </trkpt>
      <trkpt lat="44.51837" lon="0.64521">
        <ele>135.3</ele>
        <time>2017-01-29T10:36:13.000Z</time>
      </trkpt>
      <trkpt lat="44.51837" lon="0.64513">
        <ele>135.3</ele>
        <time>2017-01-29T10:36:14.000Z</time>
      </trkpt>
      <trkpt lat="44.51837" lon="0.64505">
        <ele>135.3</ele>
        <time>2017-01-29T10:36:15.000Z</time>
      </trkpt>
      <trkpt lat="44.51837" lon="0.64498">
        <ele>135.2</ele>
        <time>2017-01-29T10:36:16.000Z</time>
      </trkpt>
      <trkpt lat="44.51837" lon="0.64491">
        <ele>135.2</ele>
        <time>2017-01-29T10:36:17.000Z</time>
      </trkpt>
      <trkpt lat="44.51837" lon="0.64484">
        <ele>135.1</ele>
        <time>2017-01-29T10:36:18.000Z</time>
      </trkpt>
      <trkpt lat="44.51837" lon="0.64477">
        <ele>135</ele>
        <time>2017-01-29T10:36:19.000Z</time>
      </trkpt>
      <trkpt lat="44.51837" lon="0.6447">
        <ele>134.9</ele>
        <time>2017-01-29T10:36:20.000Z</time>
      </trkpt>
      <trkpt lat="44.51838" lon="0.64464">
        <ele>134.8</ele>
        <time>2017-01-29T10:36:21.000Z</time>
      </trkpt>
      <trkpt lat="44.51838" lon="0.64457">
        <ele>134.7</ele>
        <time>2017-01-29T10:36:22.000Z</time>
      </trkpt>
      <trkpt lat="44.51838" lon="0.64451">
        <ele>134.7</ele>
        <time>2017-01-29T10:36:23.000Z</time>
      </trkpt>
      <trkpt lat="44.51838" lon="0.64445">
        <ele>134.6</ele>
        <time>2017-01-29T10:36:24.000Z</time>
      </trkpt>
      <trkpt lat="44.51838" lon="0.64438">
        <ele>134.5</ele>
        <time>2017-01-29T10:36:25.000Z</time>
      </trkpt>
      <trkpt lat="44.51839" lon="0.64431">
        <ele>134.5</ele>
        <time>2017-01-29T10:36:26.000Z</time>
      </trkpt>
      <trkpt lat="44.51839" lon="0.64425">
        <ele>134.4</ele>
        <time>2017-01-29T10:36:27.000Z</time>
      </trkpt>
      <trkpt lat="44.5184" lon="0.64418">
        <ele>134.3</ele>
        <time>2017-01-29T10:36:28.000Z</time>
      </trkpt>
      <trkpt lat="44.51841" lon="0.64412">
        <ele>134.5</ele>
        <time>2017-01-29T10:36:29.000Z</time>
      </trkpt>
      <trkpt lat="44.51842" lon="0.64407">
        <ele>134.7</ele>
        <time>2017-01-29T10:36:30.000Z</time>
      </trkpt>
      <trkpt lat="44.51843" lon="0.64401">
        <ele>135</ele>
        <time>2017-01-29T10:36:31.000Z</time>
      </trkpt>
      <trkpt lat="44.51844" lon="0.64396">
        <ele>135.2</ele>
        <time>2017-01-29T10:36:32.000Z</time>
      </trkpt>
      <trkpt lat="44.51846" lon="0.64391">
        <ele>135.4</ele>
        <time>2017-01-29T10:36:33.000Z</time>
      </trkpt>
      <trkpt lat="44.51847" lon="0.64386">
        <ele>135.6</ele>
        <time>2017-01-29T10:36:34.000Z</time>
      </trkpt>
      <trkpt lat="44.51849" lon="0.64381">
        <ele>135.8</ele>
        <time>2017-01-29T10:36:35.000Z</time>
      </trkpt>
      <trkpt lat="44.51851" lon="0.64377">
        <ele>136</ele>
        <time>2017-01-29T10:36:36.000Z</time>
      </trkpt>
      <trkpt lat="44.51852" lon="0.64373">
        <ele>136.1</ele>
        <time>2017-01-29T10:36:37.000Z</time>
      </trkpt>
      <trkpt lat="44.51854" lon="0.64368">
        <ele>136.3</ele>
        <time>2017-01-29T10:36:38.000Z</time>
      </trkpt>
      <trkpt lat="44.51856" lon="0.64364">
        <ele>136.5</ele>
        <time>2017-01-29T10:36:39.000Z</time>
      </trkpt>
      <trkpt lat="44.51858" lon="0.6436">
        <ele>136.6</ele>
        <time>2017-01-29T10:36:40.000Z</time>
      </trkpt>
      <trkpt lat="44.5186" lon="0.64356">
        <ele>136.8</ele>
        <time>2017-01-29T10:36:41.000Z</time>
      </trkpt>
      <trkpt lat="44.51862" lon="0.64352">
        <ele>136.9</ele>
        <time>2017-01-29T10:36:42.000Z</time>
      </trkpt>
      <trkpt lat="44.51864" lon="0.64348">
        <ele>137</ele>
        <time>2017-01-29T10:36:43.000Z</time>
      </trkpt>
      <trkpt lat="44.51866" lon="0.64344">
        <ele>137.2</ele>
        <time>2017-01-29T10:36:44.000Z</time>
      </trkpt>
      <trkpt lat="44.51868" lon="0.6434">
        <ele>137.3</ele>
        <time>2017-01-29T10:36:45.000Z</time>
      </trkpt>
      <trkpt lat="44.5187" lon="0.64336">
        <ele>137.4</ele>
        <time>2017-01-29T10:36:46.000Z</time>
      </trkpt>
      <trkpt lat="44.51872" lon="0.64332">
        <ele>137.5</ele>
        <time>2017-01-29T10:36:47.000Z</time>
      </trkpt>
      <trkpt lat="44.51874" lon="0.64328">
        <ele>137.7</ele>
        <time>2017-01-29T10:36:48.000Z</time>
      </trkpt>
      <trkpt lat="44.51876" lon="0.64324">
        <ele>137.8</ele>
        <time>2017-01-29T10:36:49.000Z</time>
      </trkpt>
      <trkpt lat="44.51878" lon="0.6432">
        <ele>138</ele>
        <time>2017-01-29T10:36:50.000Z</time>
      </trkpt>
      <trkpt lat="44.5188" lon="0.64316">
        <ele>138.2</ele>
        <time>2017-01-29T10:36:51.000Z</time>
      </trkpt>
      <trkpt lat="44.51882" lon="0.64312">
        <ele>138.3</ele>
        <time>2017-01-29T10:36:52.000Z</time>
      </trkpt>
      <trkpt lat="44.51883" lon="0.64308">
        <ele>138.5</ele>
        <time>2017-01-29T10:36:53.000Z</time>
      </trkpt>
      <trkpt lat="44.51885" lon="0.64304">
        <ele>138.7</ele>
        <time>2017-01-29T10:36:54.000Z</time>
      </trkpt>
      <trkpt lat="44.51887" lon="0.643">
        <ele>138.8</ele>
        <time>2017-01-29T10:36:55.000Z</time>
      </trkpt>
      <trkpt lat="44.51889" lon="0.64297">
        <ele>139</ele>
        <time>2017-01-29T10:36:56.000Z</time>
      </trkpt>
      <trkpt lat="44.51891" lon="0.64293">
        <ele>139.2</ele>
        <time>2017-01-29T10:36:57.000Z</time>
      </trkpt>
      <trkpt lat="44.51893" lon="0.64289">
        <ele>139.3</ele>
        <time>2017-01-29T10:36:58.000Z</time>
      </trkpt>
      <trkpt lat="44.51894" lon="0.64285">
        <ele>139.5</ele>
        <time>2017-01-29T10:36:59.000Z</time>
      </trkpt>
      <trkpt lat="44.51896" lon="0.64281">
        <ele>139.6</ele>
        <time>2017-01-29T10:37:00.000Z</time>
      </trkpt>
      <trkpt lat="44.51898" lon="0.64277">
        <ele>139.8</ele>
        <time>2017-01-29T10:37:01.000Z</time>
      </trkpt>
      <trkpt lat="44.519" lon="0.64274">
        <ele>139.9</ele>
        <time>2017-01-29T10:37:02.000Z</time>
      </trkpt>
      <trkpt lat="44.51902" lon="0.6427">
        <ele>140.1</ele>
        <time>2017-01-29T10:37:03.000Z</time>
      </trkpt>
      <trkpt lat="44.51903" lon="0.64267">
        <ele>140.2</ele>
        <time>2017-01-29T10:37:04.000Z</time>
      </trkpt>
      <trkpt lat="44.51905" lon="0.64263">
        <ele>140.4</ele>
        <time>2017-01-29T10:37:05.000Z</time>
      </trkpt>
      <trkpt lat="44.51907" lon="0.6426">
        <ele>140.5</ele>
        <time>2017-01-29T10:37:06.000Z</time>
      </trkpt>
      <trkpt lat="44.51908" lon="0.64257">
        <ele>140.7</ele>
        <time>2017-01-29T10:37:07.000Z</time>
      </trkpt>
      <trkpt lat="44.51909" lon="0.64254">
        <ele>140.8</ele>
        <time>2017-01-29T10:37:08.000Z</time>
      </trkpt>
      <trkpt lat="44.5191" lon="0.64251">
        <ele>140.9</ele>
        <time>2017-01-29T10:37:09.000Z</time>
      </trkpt>
      <trkpt lat="44.51912" lon="0.64248">
        <ele>141</ele>
        <time>2017-01-29T10:37:10.000Z</time>
      </trkpt>
      <trkpt lat="44.51913" lon="0.64245">
        <ele>141.1</ele>
        <time>2017-01-29T10:37:11.000Z</time>
      </trkpt>
      <trkpt lat="44.51914" lon="0.64243">
        <ele>141.2</ele>
        <time>2017-01-29T10:37:12.000Z</time>
      </trkpt>
      <trkpt lat="44.51915" lon="0.64241">
        <ele>141.3</ele>
        <time>2017-01-29T10:37:13.000Z</time>
      </trkpt>
      <trkpt lat="44.51917" lon="0.64239">
        <ele>141.4</ele>
        <time>2017-01-29T10:37:14.000Z</time>
      </trkpt>
      <trkpt lat="44.51919" lon="0.64236">
        <ele>141.6</ele>
        <time>2017-01-29T10:37:15.000Z</time>
      </trkpt>
      <trkpt lat="44.5192" lon="0.64233">
        <ele>141.8</ele>
        <time>2017-01-29T10:37:16.000Z</time>
      </trkpt>
      <trkpt lat="44.51921" lon="0.64229">
        <ele>141.9</ele>
        <time>2017-01-29T10:37:17.000Z</time>
      </trkpt>
      <trkpt lat="44.51922" lon="0.64226">
        <ele>142.1</ele>
        <time>2017-01-29T10:37:18.000Z</time>
      </trkpt>
      <trkpt lat="44.51924" lon="0.64223">
        <ele>142.3</ele>
        <time>2017-01-29T10:37:19.000Z</time>
      </trkpt>
      <trkpt lat="44.51926" lon="0.6422">
        <ele>142.5</ele>
        <time>2017-01-29T10:37:20.000Z</time>
      </trkpt>
      <trkpt lat="44.51928" lon="0.64217">
        <ele>142.7</ele>
        <time>2017-01-29T10:37:21.000Z</time>
      </trkpt>
      <trkpt lat="44.5193" lon="0.64214">
        <ele>142.9</ele>
        <time>2017-01-29T10:37:22.000Z</time>
      </trkpt>
      <trkpt lat="44.51931" lon="0.6421">
        <ele>143</ele>
        <time>2017-01-29T10:37:23.000Z</time>
      </trkpt>
      <trkpt lat="44.51933" lon="0.64207">
        <ele>143.2</ele>
        <time>2017-01-29T10:37:24.000Z</time>
      </trkpt>
      <trkpt lat="44.51934" lon="0.64203">
        <ele>143.4</ele>
        <time>2017-01-29T10:37:25.000Z</time>
      </trkpt>
      <trkpt lat="44.51936" lon="0.642">
        <ele>143.6</ele>
        <time>2017-01-29T10:37:26.000Z</time>
      </trkpt>
      <trkpt lat="44.51938" lon="0.64196">
        <ele>143.8</ele>
        <time>2017-01-29T10:37:27.000Z</time>
      </trkpt>
      <trkpt lat="44.51939" lon="0.64193">
        <ele>144</ele>
        <time>2017-01-29T10:37:28.000Z</time>
      </trkpt>
      <trkpt lat="44.51941" lon="0.64189">
        <ele>144.1</ele>
        <time>2017-01-29T10:37:29.000Z</time>
      </trkpt>
      <trkpt lat="44.51943" lon="0.64186">
        <ele>144.3</ele>
        <time>2017-01-29T10:37:30.000Z</time>
      </trkpt>
      <trkpt lat="44.51944" lon="0.64182">
        <ele>144.5</ele>
        <time>2017-01-29T10:37:31.000Z</time>
      </trkpt>
      <trkpt lat="44.51946" lon="0.64179">
        <ele>144.7</ele>
        <time>2017-01-29T10:37:32.000Z</time>
      </trkpt>
      <trkpt lat="44.51948" lon="0.64175">
        <ele>144.8</ele>
        <time>2017-01-29T10:37:33.000Z</time>
      </trkpt>
      <trkpt lat="44.51949" lon="0.64172">
        <ele>145</ele>
        <time>2017-01-29T10:37:34.000Z</time>
      </trkpt>
      <trkpt lat="44.51951" lon="0.64168">
        <ele>145.2</ele>
        <time>2017-01-29T10:37:35.000Z</time>
      </trkpt>
      <trkpt lat="44.51953" lon="0.64165">
        <ele>145.3</ele>
        <time>2017-01-29T10:37:36.000Z</time>
      </trkpt>
      <trkpt lat="44.51954" lon="0.64161">
        <ele>145.4</ele>
        <time>2017-01-29T10:37:37.000Z</time>
      </trkpt>
      <trkpt lat="44.51956" lon="0.64158">
        <ele>145.4</ele>
        <time>2017-01-29T10:37:38.000Z</time>
      </trkpt>
      <trkpt lat="44.51958" lon="0.64154">
        <ele>145.5</ele>
        <time>2017-01-29T10:37:39.000Z</time>
      </trkpt>
      <trkpt lat="44.51959" lon="0.64151">
        <ele>145.5</ele>
        <time>2017-01-29T10:37:40.000Z</time>
      </trkpt>
      <trkpt lat="44.51961" lon="0.64147">
        <ele>145.6</ele>
        <time>2017-01-29T10:37:41.000Z</time>
      </trkpt>
      <trkpt lat="44.51963" lon="0.64144">
        <ele>145.6</ele>
        <time>2017-01-29T10:37:42.000Z</time>
      </trkpt>
      <trkpt lat="44.51965" lon="0.6414">
        <ele>145.6</ele>
        <time>2017-01-29T10:37:43.000Z</time>
      </trkpt>
      <trkpt lat="44.51966" lon="0.64137">
        <ele>145.7</ele>
        <time>2017-01-29T10:37:44.000Z</time>
      </trkpt>
      <trkpt lat="44.51968" lon="0.64134">
        <ele>145.7</ele>
        <time>2017-01-29T10:37:45.000Z</time>
      </trkpt>
      <trkpt lat="44.5197" lon="0.64131">
        <ele>145.7</ele>
        <time>2017-01-29T10:37:46.000Z</time>
      </trkpt>
      <trkpt lat="44.51972" lon="0.64128">
        <ele>145.7</ele>
        <time>2017-01-29T10:37:47.000Z</time>
      </trkpt>
      <trkpt lat="44.51974" lon="0.64125">
        <ele>145.7</ele>
        <time>2017-01-29T10:37:48.000Z</time>
      </trkpt>
      <trkpt lat="44.51976" lon="0.64122">
        <ele>145.7</ele>
        <time>2017-01-29T10:37:49.000Z</time>
      </trkpt>
      <trkpt lat="44.51978" lon="0.64119">
        <ele>145.7</ele>
        <time>2017-01-29T10:37:50.000Z</time>
      </trkpt>
      <trkpt lat="44.5198" lon="0.64116">
        <ele>145.6</ele>
        <time>2017-01-29T10:37:51.000Z</time>
      </trkpt>
      <trkpt lat="44.51982" lon="0.64114">
        <ele>145.6</ele>
        <time>2017-01-29T10:37:52.000Z</time>
      </trkpt>
      <trkpt lat="44.51984" lon="0.64111">
        <ele>145.6</ele>
        <time>2017-01-29T10:37:53.000Z</time>
      </trkpt>
      <trkpt lat="44.51987" lon="0.64108">
        <ele>145.6</ele>
        <time>2017-01-29T10:37:54.000Z</time>
      </trkpt>
      <trkpt lat="44.51989" lon="0.64106">
        <ele>145.5</ele>
        <time>2017-01-29T10:37:55.000Z</time>
      </trkpt>
      <trkpt lat="44.51992" lon="0.64103">
        <ele>145.5</ele>
        <time>2017-01-29T10:37:56.000Z</time>
      </trkpt>
      <trkpt lat="44.51994" lon="0.64101">
        <ele>145.4</ele>
        <time>2017-01-29T10:37:57.000Z</time>
      </trkpt>
      <trkpt lat="44.51997" lon="0.64098">
        <ele>145.4</ele>
        <time>2017-01-29T10:37:58.000Z</time>
      </trkpt>
      <trkpt lat="44.52" lon="0.64095">
        <ele>145.3</ele>
        <time>2017-01-29T10:37:59.000Z</time>
      </trkpt>
      <trkpt lat="44.52003" lon="0.64092">
        <ele>145</ele>
        <time>2017-01-29T10:38:00.000Z</time>
      </trkpt>
      <trkpt lat="44.52007" lon="0.64089">
        <ele>144.7</ele>
        <time>2017-01-29T10:38:01.000Z</time>
      </trkpt>
      <trkpt lat="44.5201" lon="0.64086">
        <ele>144.5</ele>
        <time>2017-01-29T10:38:02.000Z</time>
      </trkpt>
      <trkpt lat="44.52014" lon="0.64082">
        <ele>144.2</ele>
        <time>2017-01-29T10:38:03.000Z</time>
      </trkpt>
      <trkpt lat="44.52017" lon="0.64079">
        <ele>144</ele>
        <time>2017-01-29T10:38:04.000Z</time>
      </trkpt>
      <trkpt lat="44.52021" lon="0.64075">
        <ele>143.8</ele>
        <time>2017-01-29T10:38:05.000Z</time>
      </trkpt>
      <trkpt lat="44.52025" lon="0.64072">
        <ele>143.5</ele>
        <time>2017-01-29T10:38:06.000Z</time>
      </trkpt>
      <trkpt lat="44.52029" lon="0.64068">
        <ele>143.3</ele>
        <time>2017-01-29T10:38:07.000Z</time>
      </trkpt>
      <trkpt lat="44.52033" lon="0.64064">
        <ele>143.1</ele>
        <time>2017-01-29T10:38:08.000Z</time>
      </trkpt>
      <trkpt lat="44.52037" lon="0.64061">
        <ele>142.9</ele>
        <time>2017-01-29T10:38:09.000Z</time>
      </trkpt>
      <trkpt lat="44.52042" lon="0.64057">
        <ele>142.7</ele>
        <time>2017-01-29T10:38:10.000Z</time>
      </trkpt>
      <trkpt lat="44.52046" lon="0.64053">
        <ele>142.4</ele>
        <time>2017-01-29T10:38:11.000Z</time>
      </trkpt>
      <trkpt lat="44.5205" lon="0.6405">
        <ele>142.2</ele>
        <time>2017-01-29T10:38:12.000Z</time>
      </trkpt>
      <trkpt lat="44.52055" lon="0.64046">
        <ele>142</ele>
        <time>2017-01-29T10:38:13.000Z</time>
      </trkpt>
      <trkpt lat="44.5206" lon="0.64043">
        <ele>141.8</ele>
        <time>2017-01-29T10:38:14.000Z</time>
      </trkpt>
      <trkpt lat="44.52065" lon="0.6404">
        <ele>141.5</ele>
        <time>2017-01-29T10:38:15.000Z</time>
      </trkpt>
      <trkpt lat="44.52071" lon="0.64036">
        <ele>141.2</ele>
        <time>2017-01-29T10:38:16.000Z</time>
      </trkpt>
      <trkpt lat="44.52077" lon="0.64034">
        <ele>140.9</ele>
        <time>2017-01-29T10:38:17.000Z</time>
      </trkpt>
      <trkpt lat="44.52084" lon="0.64031">
        <ele>140.6</ele>
        <time>2017-01-29T10:38:18.000Z</time>
      </trkpt>
      <trkpt lat="44.52092" lon="0.64029">
        <ele>140.1</ele>
        <time>2017-01-29T10:38:19.000Z</time>
      </trkpt>
      <trkpt lat="44.52099" lon="0.64027">
        <ele>139.7</ele>
        <time>2017-01-29T10:38:20.000Z</time>
      </trkpt>
      <trkpt lat="44.52107" lon="0.64026">
        <ele>139.2</ele>
        <time>2017-01-29T10:38:21.000Z</time>
      </trkpt>
      <trkpt lat="44.52114" lon="0.64025">
        <ele>138.7</ele>
        <time>2017-01-29T10:38:22.000Z</time>
      </trkpt>
      <trkpt lat="44.52121" lon="0.64024">
        <ele>138.2</ele>
        <time>2017-01-29T10:38:23.000Z</time>
      </trkpt>
      <trkpt lat="44.52128" lon="0.64024">
        <ele>137.8</ele>
        <time>2017-01-29T10:38:24.000Z</time>
      </trkpt>
      <trkpt lat="44.52134" lon="0.64024">
        <ele>137.4</ele>
        <time>2017-01-29T10:38:25.000Z</time>
      </trkpt>
      <trkpt lat="44.52139" lon="0.64023">
        <ele>137.1</ele>
        <time>2017-01-29T10:38:26.000Z</time>
      </trkpt>
      <trkpt lat="44.52144" lon="0.64022">
        <ele>136.7</ele>
        <time>2017-01-29T10:38:27.000Z</time>
      </trkpt>
      <trkpt lat="44.52149" lon="0.64018">
        <ele>136.4</ele>
        <time>2017-01-29T10:38:28.000Z</time>
      </trkpt>
      <trkpt lat="44.52152" lon="0.64012">
        <ele>136.2</ele>
        <time>2017-01-29T10:38:29.000Z</time>
      </trkpt>
      <trkpt lat="44.52153" lon="0.64004">
        <ele>136</ele>
        <time>2017-01-29T10:38:30.000Z</time>
      </trkpt>
      <trkpt lat="44.52154" lon="0.63997">
        <ele>135.9</ele>
        <time>2017-01-29T10:38:31.000Z</time>
      </trkpt>
      <trkpt lat="44.52155" lon="0.63989">
        <ele>135.9</ele>
        <time>2017-01-29T10:38:32.000Z</time>
      </trkpt>
      <trkpt lat="44.52156" lon="0.63982">
        <ele>135.8</ele>
        <time>2017-01-29T10:38:33.000Z</time>
      </trkpt>
      <trkpt lat="44.52158" lon="0.63975">
        <ele>135.7</ele>
        <time>2017-01-29T10:38:34.000Z</time>
      </trkpt>
      <trkpt lat="44.52159" lon="0.63968">
        <ele>135.6</ele>
        <time>2017-01-29T10:38:35.000Z</time>
      </trkpt>
      <trkpt lat="44.5216" lon="0.63961">
        <ele>135.5</ele>
        <time>2017-01-29T10:38:36.000Z</time>
      </trkpt>
      <trkpt lat="44.52161" lon="0.63954">
        <ele>135.4</ele>
        <time>2017-01-29T10:38:37.000Z</time>
      </trkpt>
      <trkpt lat="44.52162" lon="0.63947">
        <ele>135.4</ele>
        <time>2017-01-29T10:38:38.000Z</time>
      </trkpt>
      <trkpt lat="44.52163" lon="0.6394">
        <ele>135.3</ele>
        <time>2017-01-29T10:38:39.000Z</time>
      </trkpt>
      <trkpt lat="44.52164" lon="0.63933">
        <ele>135.2</ele>
        <time>2017-01-29T10:38:40.000Z</time>
      </trkpt>
      <trkpt lat="44.52165" lon="0.63927">
        <ele>135.1</ele>
        <time>2017-01-29T10:38:41.000Z</time>
      </trkpt>
      <trkpt lat="44.52166" lon="0.6392">
        <ele>135</ele>
        <time>2017-01-29T10:38:42.000Z</time>
      </trkpt>
      <trkpt lat="44.52168" lon="0.63913">
        <ele>134.8</ele>
        <time>2017-01-29T10:38:43.000Z</time>
      </trkpt>
      <trkpt lat="44.52169" lon="0.63905">
        <ele>134.5</ele>
        <time>2017-01-29T10:38:44.000Z</time>
      </trkpt>
      <trkpt lat="44.5217" lon="0.63898">
        <ele>134.2</ele>
        <time>2017-01-29T10:38:45.000Z</time>
      </trkpt>
      <trkpt lat="44.52172" lon="0.63889">
        <ele>133.8</ele>
        <time>2017-01-29T10:38:46.000Z</time>
      </trkpt>
      <trkpt lat="44.52173" lon="0.63881">
        <ele>133.5</ele>
        <time>2017-01-29T10:38:47.000Z</time>
      </trkpt>
      <trkpt lat="44.52175" lon="0.63871">
        <ele>133.1</ele>
        <time>2017-01-29T10:38:48.000Z</time>
      </trkpt>
      <trkpt lat="44.52176" lon="0.63861">
        <ele>132.6</ele>
        <time>2017-01-29T10:38:49.000Z</time>
      </trkpt>
      <trkpt lat="44.52178" lon="0.63851">
        <ele>132.2</ele>
        <time>2017-01-29T10:38:50.000Z</time>
      </trkpt>
      <trkpt lat="44.5218" lon="0.63839">
        <ele>131.7</ele>
        <time>2017-01-29T10:38:51.000Z</time>
      </trkpt>
      <trkpt lat="44.52182" lon="0.63828">
        <ele>131.4</ele>
        <time>2017-01-29T10:38:52.000Z</time>
      </trkpt>
      <trkpt lat="44.52184" lon="0.63815">
        <ele>131.2</ele>
        <time>2017-01-29T10:38:53.000Z</time>
      </trkpt>
      <trkpt lat="44.52186" lon="0.63802">
        <ele>131</ele>
        <time>2017-01-29T10:38:54.000Z</time>
      </trkpt>
      <trkpt lat="44.52189" lon="0.63789">
        <ele>130.8</ele>
        <time>2017-01-29T10:38:55.000Z</time>
      </trkpt>
      <trkpt lat="44.52191" lon="0.63775">
        <ele>130.6</ele>
        <time>2017-01-29T10:38:56.000Z</time>
      </trkpt>
      <trkpt lat="44.52193" lon="0.63761">
        <ele>130.5</ele>
        <time>2017-01-29T10:38:57.000Z</time>
      </trkpt>
      <trkpt lat="44.52195" lon="0.63748">
        <ele>130.4</ele>
        <time>2017-01-29T10:38:58.000Z</time>
      </trkpt>
      <trkpt lat="44.52197" lon="0.63736">
        <ele>131.3</ele>
        <time>2017-01-29T10:38:59.000Z</time>
      </trkpt>
      <trkpt lat="44.52199" lon="0.63726">
        <ele>132.1</ele>
        <time>2017-01-29T10:39:00.000Z</time>
      </trkpt>
      <trkpt lat="44.52201" lon="0.63716">
        <ele>132.8</ele>
        <time>2017-01-29T10:39:01.000Z</time>
      </trkpt>
      <trkpt lat="44.52202" lon="0.63708">
        <ele>133.5</ele>
        <time>2017-01-29T10:39:02.000Z</time>
      </trkpt>
      <trkpt lat="44.52204" lon="0.637">
        <ele>134.1</ele>
        <time>2017-01-29T10:39:03.000Z</time>
      </trkpt>
      <trkpt lat="44.52205" lon="0.63693">
        <ele>134.7</ele>
        <time>2017-01-29T10:39:04.000Z</time>
      </trkpt>
      <trkpt lat="44.52206" lon="0.63686">
        <ele>135.3</ele>
        <time>2017-01-29T10:39:05.000Z</time>
      </trkpt>
      <trkpt lat="44.52207" lon="0.6368">
        <ele>135.9</ele>
        <time>2017-01-29T10:39:06.000Z</time>
      </trkpt>
      <trkpt lat="44.52208" lon="0.63674">
        <ele>136.4</ele>
        <time>2017-01-29T10:39:07.000Z</time>
      </trkpt>
      <trkpt lat="44.52209" lon="0.63668">
        <ele>137</ele>
        <time>2017-01-29T10:39:08.000Z</time>
      </trkpt>
      <trkpt lat="44.52211" lon="0.63662">
        <ele>137.5</ele>
        <time>2017-01-29T10:39:09.000Z</time>
      </trkpt>
      <trkpt lat="44.52212" lon="0.63656">
        <ele>138.1</ele>
        <time>2017-01-29T10:39:10.000Z</time>
      </trkpt>
      <trkpt lat="44.52213" lon="0.6365">
        <ele>138.8</ele>
        <time>2017-01-29T10:39:11.000Z</time>
      </trkpt>
      <trkpt lat="44.52215" lon="0.63644">
        <ele>139.4</ele>
        <time>2017-01-29T10:39:12.000Z</time>
      </trkpt>
      <trkpt lat="44.52216" lon="0.63638">
        <ele>139.9</ele>
        <time>2017-01-29T10:39:13.000Z</time>
      </trkpt>
      <trkpt lat="44.52217" lon="0.63633">
        <ele>140.5</ele>
        <time>2017-01-29T10:39:14.000Z</time>
      </trkpt>
      <trkpt lat="44.52217" lon="0.63628">
        <ele>140.9</ele>
        <time>2017-01-29T10:39:15.000Z</time>
      </trkpt>
      <trkpt lat="44.52218" lon="0.63624">
        <ele>141.4</ele>
        <time>2017-01-29T10:39:16.000Z</time>
      </trkpt>
      <trkpt lat="44.52219" lon="0.6362">
        <ele>141.7</ele>
        <time>2017-01-29T10:39:17.000Z</time>
      </trkpt>
      <trkpt lat="44.52219" lon="0.63617">
        <ele>142.1</ele>
        <time>2017-01-29T10:39:18.000Z</time>
      </trkpt>
      <trkpt lat="44.5222" lon="0.63614">
        <ele>142.4</ele>
        <time>2017-01-29T10:39:19.000Z</time>
      </trkpt>
      <trkpt lat="44.5222" lon="0.63611">
        <ele>142.7</ele>
        <time>2017-01-29T10:39:20.000Z</time>
      </trkpt>
      <trkpt lat="44.52221" lon="0.63608">
        <ele>143</ele>
        <time>2017-01-29T10:39:21.000Z</time>
      </trkpt>
      <trkpt lat="44.52221" lon="0.63605">
        <ele>143.3</ele>
        <time>2017-01-29T10:39:22.000Z</time>
      </trkpt>
      <trkpt lat="44.52222" lon="0.63602">
        <ele>143.6</ele>
        <time>2017-01-29T10:39:23.000Z</time>
      </trkpt>
      <trkpt lat="44.52222" lon="0.63599">
        <ele>143.9</ele>
        <time>2017-01-29T10:39:24.000Z</time>
      </trkpt>
      <trkpt lat="44.52223" lon="0.63596">
        <ele>144.2</ele>
        <time>2017-01-29T10:39:25.000Z</time>
      </trkpt>
      <trkpt lat="44.52223" lon="0.63594">
        <ele>144.4</ele>
        <time>2017-01-29T10:39:26.000Z</time>
      </trkpt>
      <trkpt lat="44.52223" lon="0.63591">
        <ele>144.7</ele>
        <time>2017-01-29T10:39:27.000Z</time>
      </trkpt>
      <trkpt lat="44.52224" lon="0.63589">
        <ele>144.9</ele>
        <time>2017-01-29T10:39:28.000Z</time>
      </trkpt>
      <trkpt lat="44.52224" lon="0.63587">
        <ele>145.1</ele>
        <time>2017-01-29T10:39:29.000Z</time>
      </trkpt>
      <trkpt lat="44.52224" lon="0.63585">
        <ele>145.3</ele>
        <time>2017-01-29T10:39:30.000Z</time>
      </trkpt>
      <trkpt lat="44.52225" lon="0.63583">
        <ele>145.5</ele>
        <time>2017-01-29T10:39:31.000Z</time>
      </trkpt>
      <trkpt lat="44.52225" lon="0.6358">
        <ele>145.6</ele>
        <time>2017-01-29T10:39:32.000Z</time>
      </trkpt>
      <trkpt lat="44.52226" lon="0.63578">
        <ele>145.6</ele>
        <time>2017-01-29T10:39:33.000Z</time>
      </trkpt>
      <trkpt lat="44.52226" lon="0.63575">
        <ele>145.7</ele>
        <time>2017-01-29T10:39:34.000Z</time>
      </trkpt>
      <trkpt lat="44.52227" lon="0.63573">
        <ele>145.8</ele>
        <time>2017-01-29T10:39:35.000Z</time>
      </trkpt>
      <trkpt lat="44.52227" lon="0.6357">
        <ele>145.9</ele>
        <time>2017-01-29T10:39:36.000Z</time>
      </trkpt>
      <trkpt lat="44.52228" lon="0.63567">
        <ele>145.9</ele>
        <time>2017-01-29T10:39:37.000Z</time>
      </trkpt>
      <trkpt lat="44.52228" lon="0.63564">
        <ele>146</ele>
        <time>2017-01-29T10:39:38.000Z</time>
      </trkpt>
      <trkpt lat="44.52228" lon="0.63562">
        <ele>146</ele>
        <time>2017-01-29T10:39:39.000Z</time>
      </trkpt>
      <trkpt lat="44.52228" lon="0.63559">
        <ele>146.1</ele>
        <time>2017-01-29T10:39:40.000Z</time>
      </trkpt>
      <trkpt lat="44.52228" lon="0.63556">
        <ele>146.1</ele>
        <time>2017-01-29T10:39:41.000Z</time>
      </trkpt>
      <trkpt lat="44.52227" lon="0.63553">
        <ele>146.1</ele>
        <time>2017-01-29T10:39:42.000Z</time>
      </trkpt>
      <trkpt lat="44.52227" lon="0.63551">
        <ele>146.1</ele>
        <time>2017-01-29T10:39:43.000Z</time>
      </trkpt>
      <trkpt lat="44.52226" lon="0.63548">
        <ele>146.2</ele>
        <time>2017-01-29T10:39:44.000Z</time>
      </trkpt>
      <trkpt lat="44.52225" lon="0.63545">
        <ele>146.2</ele>
        <time>2017-01-29T10:39:45.000Z</time>
      </trkpt>
      <trkpt lat="44.52224" lon="0.63543">
        <ele>146.2</ele>
        <time>2017-01-29T10:39:46.000Z</time>
      </trkpt>
      <trkpt lat="44.52223" lon="0.6354">
        <ele>146.2</ele>
        <time>2017-01-29T10:39:47.000Z</time>
      </trkpt>
      <trkpt lat="44.52221" lon="0.63538">
        <ele>146.2</ele>
        <time>2017-01-29T10:39:48.000Z</time>
      </trkpt>
      <trkpt lat="44.5222" lon="0.63535">
        <ele>146.2</ele>
        <time>2017-01-29T10:39:49.000Z</time>
      </trkpt>
      <trkpt lat="44.52218" lon="0.63533">
        <ele>146.3</ele>
        <time>2017-01-29T10:39:50.000Z</time>
      </trkpt>
      <trkpt lat="44.52217" lon="0.6353">
        <ele>146.3</ele>
        <time>2017-01-29T10:39:51.000Z</time>
      </trkpt>
      <trkpt lat="44.52215" lon="0.63528">
        <ele>146.3</ele>
        <time>2017-01-29T10:39:52.000Z</time>
      </trkpt>
      <trkpt lat="44.52213" lon="0.63525">
        <ele>146.3</ele>
        <time>2017-01-29T10:39:53.000Z</time>
      </trkpt>
      <trkpt lat="44.52211" lon="0.63523">
        <ele>146.4</ele>
        <time>2017-01-29T10:39:54.000Z</time>
      </trkpt>
      <trkpt lat="44.52209" lon="0.6352">
        <ele>146.4</ele>
        <time>2017-01-29T10:39:55.000Z</time>
      </trkpt>
      <trkpt lat="44.52207" lon="0.63518">
        <ele>146.4</ele>
        <time>2017-01-29T10:39:56.000Z</time>
      </trkpt>
      <trkpt lat="44.52205" lon="0.63516">
        <ele>146.5</ele>
        <time>2017-01-29T10:39:57.000Z</time>
      </trkpt>
      <trkpt lat="44.52203" lon="0.63513">
        <ele>146.6</ele>
        <time>2017-01-29T10:39:58.000Z</time>
      </trkpt>
      <trkpt lat="44.52201" lon="0.63511">
        <ele>146.6</ele>
        <time>2017-01-29T10:39:59.000Z</time>
      </trkpt>
      <trkpt lat="44.52199" lon="0.63509">
        <ele>146.7</ele>
        <time>2017-01-29T10:40:00.000Z</time>
      </trkpt>
      <trkpt lat="44.52197" lon="0.63507">
        <ele>146.7</ele>
        <time>2017-01-29T10:40:01.000Z</time>
      </trkpt>
      <trkpt lat="44.52195" lon="0.63505">
        <ele>146.8</ele>
        <time>2017-01-29T10:40:02.000Z</time>
      </trkpt>
      <trkpt lat="44.52192" lon="0.63503">
        <ele>146.9</ele>
        <time>2017-01-29T10:40:03.000Z</time>
      </trkpt>
      <trkpt lat="44.5219" lon="0.63501">
        <ele>147</ele>
        <time>2017-01-29T10:40:04.000Z</time>
      </trkpt>
      <trkpt lat="44.52188" lon="0.63499">
        <ele>147</ele>
        <time>2017-01-29T10:40:05.000Z</time>
      </trkpt>
      <trkpt lat="44.52185" lon="0.63497">
        <ele>147</ele>
        <time>2017-01-29T10:40:06.000Z</time>
      </trkpt>
      <trkpt lat="44.52183" lon="0.63496">
        <ele>147</ele>
        <time>2017-01-29T10:40:07.000Z</time>
      </trkpt>
      <trkpt lat="44.52181" lon="0.63495">
        <ele>147</ele>
        <time>2017-01-29T10:40:08.000Z</time>
      </trkpt>
      <trkpt lat="44.52178" lon="0.63494">
        <ele>147</ele>
        <time>2017-01-29T10:40:09.000Z</time>
      </trkpt>
      <trkpt lat="44.52176" lon="0.63493">
        <ele>147</ele>
        <time>2017-01-29T10:40:10.000Z</time>
      </trkpt>
      <trkpt lat="44.52174" lon="0.63491">
        <ele>147.1</ele>
        <time>2017-01-29T10:40:11.000Z</time>
      </trkpt>
      <trkpt lat="44.52171" lon="0.6349">
        <ele>147.1</ele>
        <time>2017-01-29T10:40:12.000Z</time>
      </trkpt>
      <trkpt lat="44.52169" lon="0.63489">
        <ele>147.1</ele>
        <time>2017-01-29T10:40:13.000Z</time>
      </trkpt>
      <trkpt lat="44.52167" lon="0.63488">
        <ele>147.1</ele>
        <time>2017-01-29T10:40:14.000Z</time>
      </trkpt>
      <trkpt lat="44.52164" lon="0.63487">
        <ele>147.1</ele>
        <time>2017-01-29T10:40:15.000Z</time>
      </trkpt>
      <trkpt lat="44.52162" lon="0.63487">
        <ele>147</ele>
        <time>2017-01-29T10:40:16.000Z</time>
      </trkpt>
      <trkpt lat="44.52159" lon="0.63486">
        <ele>146.9</ele>
        <time>2017-01-29T10:40:17.000Z</time>
      </trkpt>
      <trkpt lat="44.52157" lon="0.63485">
        <ele>146.9</ele>
        <time>2017-01-29T10:40:18.000Z</time>
      </trkpt>
      <trkpt lat="44.52154" lon="0.63485">
        <ele>146.8</ele>
        <time>2017-01-29T10:40:19.000Z</time>
      </trkpt>
      <trkpt lat="44.52152" lon="0.63484">
        <ele>146.7</ele>
        <time>2017-01-29T10:40:20.000Z</time>
      </trkpt>
      <trkpt lat="44.5215" lon="0.63483">
        <ele>146.7</ele>
        <time>2017-01-29T10:40:21.000Z</time>
      </trkpt>
      <trkpt lat="44.52148" lon="0.63482">
        <ele>146.6</ele>
        <time>2017-01-29T10:40:22.000Z</time>
      </trkpt>
      <trkpt lat="44.52146" lon="0.6348">
        <ele>146.6</ele>
        <time>2017-01-29T10:40:23.000Z</time>
      </trkpt>
      <trkpt lat="44.52144" lon="0.63479">
        <ele>146.6</ele>
        <time>2017-01-29T10:40:24.000Z</time>
      </trkpt>
      <trkpt lat="44.52142" lon="0.63478">
        <ele>146.6</ele>
        <time>2017-01-29T10:40:25.000Z</time>
      </trkpt>
      <trkpt lat="44.5214" lon="0.63477">
        <ele>146.5</ele>
        <time>2017-01-29T10:40:26.000Z</time>
      </trkpt>
      <trkpt lat="44.52139" lon="0.63477">
        <ele>146.5</ele>
        <time>2017-01-29T10:40:27.000Z</time>
      </trkpt>
      <trkpt lat="44.52138" lon="0.63476">
        <ele>146.5</ele>
        <time>2017-01-29T10:40:28.000Z</time>
      </trkpt>
      <trkpt lat="44.52138" lon="0.63476">
        <ele>146.5</ele>
        <time>2017-01-29T10:40:29.000Z</time>
      </trkpt>
      <trkpt lat="44.52138" lon="0.63476">
        <ele>146.5</ele>
        <time>2017-01-29T10:40:30.000Z</time>
      </trkpt>
      <trkpt lat="44.52138" lon="0.63476">
        <ele>146.5</ele>
        <time>2017-01-29T10:40:31.000Z</time>
      </trkpt>
      <trkpt lat="44.52138" lon="0.63476">
        <ele>146.5</ele>
        <time>2017-01-29T10:40:32.000Z</time>
      </trkpt>
      <trkpt lat="44.52138" lon="0.63476">
        <ele>146.5</ele>
        <time>2017-01-29T10:40:33.000Z</time>
      </trkpt>
      <trkpt lat="44.52138" lon="0.63476">
        <ele>146.5</ele>
        <time>2017-01-29T10:40:34.000Z</time>
      </trkpt>
      <trkpt lat="44.52138" lon="0.63476">
        <ele>146.5</ele>
        <time>2017-01-29T10:40:35.000Z</time>
      </trkpt>
      <trkpt lat="44.52138" lon="0.63476">
        <ele>146.5</ele>
        <time>2017-01-29T10:40:36.000Z</time>
      </trkpt>
      <trkpt lat="44.52138" lon="0.63476">
        <ele>146.5</ele>
        <time>2017-01-29T10:40:37.000Z</time>
      </trkpt>
      <trkpt lat="44.52138" lon="0.63476">
        <ele>146.5</ele>
        <time>2017-01-29T10:40:38.000Z</time>
      </trkpt>
      <trkpt lat="44.52138" lon="0.63476">
        <ele>146.5</ele>
        <time>2017-01-29T10:40:39.000Z</time>
      </trkpt>
      <trkpt lat="44.52138" lon="0.63476">
        <ele>146.5</ele>
        <time>2017-01-29T10:40:40.000Z</time>
      </trkpt>
      <trkpt lat="44.52138" lon="0.63476">
        <ele>146.5</ele>
        <time>2017-01-29T10:40:41.000Z</time>
      </trkpt>
      <trkpt lat="44.52138" lon="0.63476">
        <ele>146.5</ele>
        <time>2017-01-29T10:40:42.000Z</time>
      </trkpt>
      <trkpt lat="44.52138" lon="0.63476">
        <ele>146.5</ele>
        <time>2017-01-29T10:40:43.000Z</time>
      </trkpt>
      <trkpt lat="44.52138" lon="0.63476">
        <ele>146.5</ele>
        <time>2017-01-29T10:40:44.000Z</time>
      </trkpt>
      <trkpt lat="44.52138" lon="0.63476">
        <ele>146.5</ele>
        <time>2017-01-29T10:40:45.000Z</time>
      </trkpt>
      <trkpt lat="44.52138" lon="0.63476">
        <ele>146.5</ele>
        <time>2017-01-29T10:40:46.000Z</time>
      </trkpt>
      <trkpt lat="44.52138" lon="0.63476">
        <ele>146.5</ele>
        <time>2017-01-29T10:40:47.000Z</time>
      </trkpt>
      <trkpt lat="44.52138" lon="0.63476">
        <ele>146.5</ele>
        <time>2017-01-29T10:40:48.000Z</time>
      </trkpt>
      <trkpt lat="44.52138" lon="0.63476">
        <ele>146.5</ele>
        <time>2017-01-29T10:40:49.000Z</time>
      </trkpt>
      <trkpt lat="44.52138" lon="0.63476">
        <ele>146.5</ele>
        <time>2017-01-29T10:40:50.000Z</time>
      </trkpt>
      <trkpt lat="44.52138" lon="0.63476">
        <ele>146.5</ele>
        <time>2017-01-29T10:40:51.000Z</time>
      </trkpt>
      <trkpt lat="44.52138" lon="0.63476">
        <ele>146.5</ele>
        <time>2017-01-29T10:40:52.000Z</time>
      </trkpt>
      <trkpt lat="44.52138" lon="0.63476">
        <ele>146.5</ele>
        <time>2017-01-29T10:40:53.000Z</time>
      </trkpt>
      <trkpt lat="44.52138" lon="0.63476">
        <ele>146.5</ele>
        <time>2017-01-29T10:40:54.000Z</time>
      </trkpt>
      <trkpt lat="44.52138" lon="0.63476">
        <ele>146.5</ele>
        <time>2017-01-29T10:40:55.000Z</time>
      </trkpt>
      <trkpt lat="44.52138" lon="0.63476">
        <ele>146.5</ele>
        <time>2017-01-29T10:40:56.000Z</time>
      </trkpt>
      <trkpt lat="44.52138" lon="0.63476">
        <ele>146.5</ele>
        <time>2017-01-29T10:40:57.000Z</time>
      </trkpt>
      <trkpt lat="44.52138" lon="0.63476">
        <ele>146.5</ele>
        <time>2017-01-29T10:40:58.000Z</time>
      </trkpt>
      <trkpt lat="44.52138" lon="0.63476">
        <ele>146.5</ele>
        <time>2017-01-29T10:40:59.000Z</time>
      </trkpt>
      <trkpt lat="44.52138" lon="0.63476">
        <ele>146.5</ele>
        <time>2017-01-29T10:41:00.000Z</time>
      </trkpt>
      <trkpt lat="44.52138" lon="0.63476">
        <ele>146.5</ele>
        <time>2017-01-29T10:41:01.000Z</time>
      </trkpt>
      <trkpt lat="44.52138" lon="0.63476">
        <ele>146.5</ele>
        <time>2017-01-29T10:41:02.000Z</time>
      </trkpt>
      <trkpt lat="44.52138" lon="0.63476">
        <ele>146.5</ele>
        <time>2017-01-29T10:41:03.000Z</time>
      </trkpt>
      <trkpt lat="44.52138" lon="0.63476">
        <ele>146.5</ele>
        <time>2017-01-29T10:41:04.000Z</time>
      </trkpt>
      <trkpt lat="44.52138" lon="0.63476">
        <ele>146.5</ele>
        <time>2017-01-29T10:41:05.000Z</time>
      </trkpt>
      <trkpt lat="44.52138" lon="0.63476">
        <ele>146.5</ele>
        <time>2017-01-29T10:41:06.000Z</time>
      </trkpt>
      <trkpt lat="44.52138" lon="0.63476">
        <ele>146.5</ele>
        <time>2017-01-29T10:41:07.000Z</time>
      </trkpt>
      <trkpt lat="44.52138" lon="0.63476">
        <ele>146.5</ele>
        <time>2017-01-29T10:41:08.000Z</time>
      </trkpt>
      <trkpt lat="44.52138" lon="0.63476">
        <ele>146.5</ele>
        <time>2017-01-29T10:41:09.000Z</time>
      </trkpt>
      <trkpt lat="44.52138" lon="0.63476">
        <ele>146.5</ele>
        <time>2017-01-29T10:41:10.000Z</time>
      </trkpt>
      <trkpt lat="44.52138" lon="0.63476">
        <ele>146.5</ele>
        <time>2017-01-29T10:41:11.000Z</time>
      </trkpt>
      <trkpt lat="44.52138" lon="0.63476">
        <ele>146.5</ele>
        <time>2017-01-29T10:41:12.000Z</time>
      </trkpt>
      <trkpt lat="44.52138" lon="0.63476">
        <ele>146.5</ele>
        <time>2017-01-29T10:41:13.000Z</time>
      </trkpt>
      <trkpt lat="44.52138" lon="0.63476">
        <ele>146.5</ele>
        <time>2017-01-29T10:41:14.000Z</time>
      </trkpt>
      <trkpt lat="44.52138" lon="0.63476">
        <ele>146.5</ele>
        <time>2017-01-29T10:41:15.000Z</time>
      </trkpt>
      <trkpt lat="44.52138" lon="0.63476">
        <ele>146.5</ele>
        <time>2017-01-29T10:41:16.000Z</time>
      </trkpt>
      <trkpt lat="44.52138" lon="0.63476">
        <ele>146.5</ele>
        <time>2017-01-29T10:41:17.000Z</time>
      </trkpt>
      <trkpt lat="44.52138" lon="0.63476">
        <ele>146.5</ele>
        <time>2017-01-29T10:41:18.000Z</time>
      </trkpt>
      <trkpt lat="44.52138" lon="0.63476">
        <ele>146.5</ele>
        <time>2017-01-29T10:41:19.000Z</time>
      </trkpt>
      <trkpt lat="44.52138" lon="0.63476">
        <ele>146.5</ele>
        <time>2017-01-29T10:41:20.000Z</time>
      </trkpt>
      <trkpt lat="44.52138" lon="0.63476">
        <ele>146.5</ele>
        <time>2017-01-29T10:41:21.000Z</time>
      </trkpt>
      <trkpt lat="44.52138" lon="0.63476">
        <ele>146.5</ele>
        <time>2017-01-29T10:41:22.000Z</time>
      </trkpt>
      <trkpt lat="44.52138" lon="0.63476">
        <ele>146.5</ele>
        <time>2017-01-29T10:41:23.000Z</time>
      </trkpt>
      <trkpt lat="44.52138" lon="0.63476">
        <ele>146.5</ele>
        <time>2017-01-29T10:41:24.000Z</time>
      </trkpt>
      <trkpt lat="44.52138" lon="0.63476">
        <ele>146.5</ele>
        <time>2017-01-29T10:41:25.000Z</time>
      </trkpt>
      <trkpt lat="44.52138" lon="0.63476">
        <ele>146.5</ele>
        <time>2017-01-29T10:41:26.000Z</time>
      </trkpt>
      <trkpt lat="44.52138" lon="0.63476">
        <ele>146.5</ele>
        <time>2017-01-29T10:41:27.000Z</time>
      </trkpt>
      <trkpt lat="44.52138" lon="0.63476">
        <ele>146.5</ele>
        <time>2017-01-29T10:41:28.000Z</time>
      </trkpt>
      <trkpt lat="44.52138" lon="0.63476">
        <ele>146.5</ele>
        <time>2017-01-29T10:41:29.000Z</time>
      </trkpt>
      <trkpt lat="44.52138" lon="0.63476">
        <ele>146.5</ele>
        <time>2017-01-29T10:41:30.000Z</time>
      </trkpt>
      <trkpt lat="44.52138" lon="0.63476">
        <ele>146.5</ele>
        <time>2017-01-29T10:41:31.000Z</time>
      </trkpt>
      <trkpt lat="44.52138" lon="0.63476">
        <ele>146.5</ele>
        <time>2017-01-29T10:41:32.000Z</time>
      </trkpt>
      <trkpt lat="44.52138" lon="0.63476">
        <ele>146.5</ele>
        <time>2017-01-29T10:41:33.000Z</time>
      </trkpt>
      <trkpt lat="44.52138" lon="0.63476">
        <ele>146.5</ele>
        <time>2017-01-29T10:41:34.000Z</time>
      </trkpt>
      <trkpt lat="44.52138" lon="0.63476">
        <ele>146.5</ele>
        <time>2017-01-29T10:41:35.000Z</time>
      </trkpt>
      <trkpt lat="44.52138" lon="0.63476">
        <ele>146.5</ele>
        <time>2017-01-29T10:41:36.000Z</time>
      </trkpt>
      <trkpt lat="44.52138" lon="0.63476">
        <ele>146.5</ele>
        <time>2017-01-29T10:41:37.000Z</time>
      </trkpt>
      <trkpt lat="44.52138" lon="0.63476">
        <ele>146.5</ele>
        <time>2017-01-29T10:41:38.000Z</time>
      </trkpt>
      <trkpt lat="44.52138" lon="0.63476">
        <ele>146.5</ele>
        <time>2017-01-29T10:41:39.000Z</time>
      </trkpt>
      <trkpt lat="44.52138" lon="0.63476">
        <ele>146.5</ele>
        <time>2017-01-29T10:41:40.000Z</time>
      </trkpt>
      <trkpt lat="44.52138" lon="0.63476">
        <ele>146.5</ele>
        <time>2017-01-29T10:41:41.000Z</time>
      </trkpt>
      <trkpt lat="44.52138" lon="0.63476">
        <ele>146.5</ele>
        <time>2017-01-29T10:41:42.000Z</time>
      </trkpt>
      <trkpt lat="44.52138" lon="0.63476">
        <ele>146.5</ele>
        <time>2017-01-29T10:41:43.000Z</time>
      </trkpt>
      <trkpt lat="44.52138" lon="0.63476">
        <ele>146.5</ele>
        <time>2017-01-29T10:41:44.000Z</time>
      </trkpt>
      <trkpt lat="44.52138" lon="0.63476">
        <ele>146.5</ele>
        <time>2017-01-29T10:41:45.000Z</time>
      </trkpt>
      <trkpt lat="44.52138" lon="0.63476">
        <ele>146.5</ele>
        <time>2017-01-29T10:41:46.000Z</time>
      </trkpt>
      <trkpt lat="44.52138" lon="0.63476">
        <ele>146.5</ele>
        <time>2017-01-29T10:41:47.000Z</time>
      </trkpt>
      <trkpt lat="44.52138" lon="0.63476">
        <ele>146.5</ele>
        <time>2017-01-29T10:41:48.000Z</time>
      </trkpt>
      <trkpt lat="44.52138" lon="0.63476">
        <ele>146.5</ele>
        <time>2017-01-29T10:41:49.000Z</time>
      </trkpt>
      <trkpt lat="44.52138" lon="0.63476">
        <ele>146.5</ele>
        <time>2017-01-29T10:41:50.000Z</time>
      </trkpt>
      <trkpt lat="44.52138" lon="0.63476">
        <ele>146.5</ele>
        <time>2017-01-29T10:41:51.000Z</time>
      </trkpt>
      <trkpt lat="44.52138" lon="0.63476">
        <ele>146.5</ele>
        <time>2017-01-29T10:41:52.000Z</time>
      </trkpt>
      <trkpt lat="44.52138" lon="0.63476">
        <ele>146.5</ele>
        <time>2017-01-29T10:41:53.000Z</time>
      </trkpt>
      <trkpt lat="44.52138" lon="0.63476">
        <ele>146.5</ele>
        <time>2017-01-29T10:41:54.000Z</time>
      </trkpt>
      <trkpt lat="44.52138" lon="0.63476">
        <ele>146.5</ele>
        <time>2017-01-29T10:41:55.000Z</time>
      </trkpt>
      <trkpt lat="44.52138" lon="0.63476">
        <ele>146.5</ele>
        <time>2017-01-29T10:41:56.000Z</time>
      </trkpt>
      <trkpt lat="44.52138" lon="0.63476">
        <ele>146.5</ele>
        <time>2017-01-29T10:41:57.000Z</time>
      </trkpt>
      <trkpt lat="44.52138" lon="0.63476">
        <ele>146.5</ele>
        <time>2017-01-29T10:41:58.000Z</time>
      </trkpt>
      <trkpt lat="44.52138" lon="0.63476">
        <ele>146.5</ele>
        <time>2017-01-29T10:41:59.000Z</time>
      </trkpt>
      <trkpt lat="44.52138" lon="0.63476">
        <ele>146.5</ele>
        <time>2017-01-29T10:42:00.000Z</time>
      </trkpt>
      <trkpt lat="44.52138" lon="0.63476">
        <ele>146.5</ele>
        <time>2017-01-29T10:42:01.000Z</time>
      </trkpt>
      <trkpt lat="44.52138" lon="0.63476">
        <ele>146.5</ele>
        <time>2017-01-29T10:42:02.000Z</time>
      </trkpt>
      <trkpt lat="44.52138" lon="0.63476">
        <ele>146.5</ele>
        <time>2017-01-29T10:42:03.000Z</time>
      </trkpt>
      <trkpt lat="44.52138" lon="0.63476">
        <ele>146.5</ele>
        <time>2017-01-29T10:42:04.000Z</time>
      </trkpt>
      <trkpt lat="44.52138" lon="0.63476">
        <ele>146.5</ele>
        <time>2017-01-29T10:42:05.000Z</time>
      </trkpt>
      <trkpt lat="44.52138" lon="0.63476">
        <ele>146.5</ele>
        <time>2017-01-29T10:42:06.000Z</time>
      </trkpt>
      <trkpt lat="44.52138" lon="0.63476">
        <ele>146.5</ele>
        <time>2017-01-29T10:42:07.000Z</time>
      </trkpt>
      <trkpt lat="44.52138" lon="0.63476">
        <ele>146.5</ele>
        <time>2017-01-29T10:42:08.000Z</time>
      </trkpt>
      <trkpt lat="44.52138" lon="0.63476">
        <ele>146.5</ele>
        <time>2017-01-29T10:42:09.000Z</time>
      </trkpt>
      <trkpt lat="44.52138" lon="0.63476">
        <ele>146.5</ele>
        <time>2017-01-29T10:42:10.000Z</time>
      </trkpt>
      <trkpt lat="44.52138" lon="0.63476">
        <ele>146.5</ele>
        <time>2017-01-29T10:42:11.000Z</time>
      </trkpt>
      <trkpt lat="44.52138" lon="0.63476">
        <ele>146.5</ele>
        <time>2017-01-29T10:42:12.000Z</time>
      </trkpt>
      <trkpt lat="44.52138" lon="0.63476">
        <ele>146.5</ele>
        <time>2017-01-29T10:42:13.000Z</time>
      </trkpt>
      <trkpt lat="44.52138" lon="0.63476">
        <ele>146.5</ele>
        <time>2017-01-29T10:42:14.000Z</time>
      </trkpt>
      <trkpt lat="44.52138" lon="0.63476">
        <ele>146.5</ele>
        <time>2017-01-29T10:42:15.000Z</time>
      </trkpt>
      <trkpt lat="44.52138" lon="0.63476">
        <ele>146.5</ele>
        <time>2017-01-29T10:42:16.000Z</time>
      </trkpt>
      <trkpt lat="44.52138" lon="0.63476">
        <ele>146.5</ele>
        <time>2017-01-29T10:42:17.000Z</time>
      </trkpt>
      <trkpt lat="44.52138" lon="0.63476">
        <ele>146.5</ele>
        <time>2017-01-29T10:42:18.000Z</time>
      </trkpt>
      <trkpt lat="44.52138" lon="0.63476">
        <ele>146.5</ele>
        <time>2017-01-29T10:42:19.000Z</time>
      </trkpt>
      <trkpt lat="44.52138" lon="0.63476">
        <ele>146.5</ele>
        <time>2017-01-29T10:42:20.000Z</time>
      </trkpt>
      <trkpt lat="44.52138" lon="0.63476">
        <ele>146.5</ele>
        <time>2017-01-29T10:42:21.000Z</time>
      </trkpt>
      <trkpt lat="44.52138" lon="0.63476">
        <ele>146.5</ele>
        <time>2017-01-29T10:42:22.000Z</time>
      </trkpt>
      <trkpt lat="44.52138" lon="0.63476">
        <ele>146.5</ele>
        <time>2017-01-29T10:42:23.000Z</time>
      </trkpt>
      <trkpt lat="44.52138" lon="0.63476">
        <ele>146.5</ele>
        <time>2017-01-29T10:42:24.000Z</time>
      </trkpt>
      <trkpt lat="44.52138" lon="0.63476">
        <ele>146.5</ele>
        <time>2017-01-29T10:42:25.000Z</time>
      </trkpt>
      <trkpt lat="44.52138" lon="0.63476">
        <ele>146.5</ele>
        <time>2017-01-29T10:42:26.000Z</time>
      </trkpt>
      <trkpt lat="44.52138" lon="0.63476">
        <ele>146.5</ele>
        <time>2017-01-29T10:42:27.000Z</time>
      </trkpt>
      <trkpt lat="44.52138" lon="0.63476">
        <ele>146.5</ele>
        <time>2017-01-29T10:42:28.000Z</time>
      </trkpt>
      <trkpt lat="44.52138" lon="0.63476">
        <ele>146.5</ele>
        <time>2017-01-29T10:42:29.000Z</time>
      </trkpt>
      <trkpt lat="44.52138" lon="0.63476">
        <ele>146.5</ele>
        <time>2017-01-29T10:42:30.000Z</time>
      </trkpt>
      <trkpt lat="44.52138" lon="0.63476">
        <ele>146.5</ele>
        <time>2017-01-29T10:42:31.000Z</time>
      </trkpt>
      <trkpt lat="44.52138" lon="0.63476">
        <ele>146.5</ele>
        <time>2017-01-29T10:42:32.000Z</time>
      </trkpt>
      <trkpt lat="44.52138" lon="0.63476">
        <ele>146.5</ele>
        <time>2017-01-29T10:42:33.000Z</time>
      </trkpt>
      <trkpt lat="44.52138" lon="0.63476">
        <ele>146.5</ele>
        <time>2017-01-29T10:42:34.000Z</time>
      </trkpt>
      <trkpt lat="44.52138" lon="0.63476">
        <ele>146.5</ele>
        <time>2017-01-29T10:42:35.000Z</time>
      </trkpt>
      <trkpt lat="44.52138" lon="0.63476">
        <ele>146.5</ele>
        <time>2017-01-29T10:42:36.000Z</time>
      </trkpt>
      <trkpt lat="44.52138" lon="0.63476">
        <ele>146.5</ele>
        <time>2017-01-29T10:42:37.000Z</time>
      </trkpt>
      <trkpt lat="44.52138" lon="0.63476">
        <ele>146.5</ele>
        <time>2017-01-29T10:42:38.000Z</time>
      </trkpt>
      <trkpt lat="44.52138" lon="0.63476">
        <ele>146.5</ele>
        <time>2017-01-29T10:42:39.000Z</time>
      </trkpt>
      <trkpt lat="44.52138" lon="0.63476">
        <ele>146.5</ele>
        <time>2017-01-29T10:42:40.000Z</time>
      </trkpt>
      <trkpt lat="44.52138" lon="0.63476">
        <ele>146.5</ele>
        <time>2017-01-29T10:42:41.000Z</time>
      </trkpt>
      <trkpt lat="44.52138" lon="0.63476">
        <ele>146.5</ele>
        <time>2017-01-29T10:42:42.000Z</time>
      </trkpt>
      <trkpt lat="44.52138" lon="0.63476">
        <ele>146.5</ele>
        <time>2017-01-29T10:42:43.000Z</time>
      </trkpt>
      <trkpt lat="44.52138" lon="0.63476">
        <ele>146.5</ele>
        <time>2017-01-29T10:42:44.000Z</time>
      </trkpt>
      <trkpt lat="44.52138" lon="0.63476">
        <ele>146.5</ele>
        <time>2017-01-29T10:42:45.000Z</time>
      </trkpt>
      <trkpt lat="44.52138" lon="0.63476">
        <ele>146.5</ele>
        <time>2017-01-29T10:42:46.000Z</time>
      </trkpt>
      <trkpt lat="44.52138" lon="0.63476">
        <ele>146.5</ele>
        <time>2017-01-29T10:42:47.000Z</time>
      </trkpt>
      <trkpt lat="44.52138" lon="0.63476">
        <ele>146.5</ele>
        <time>2017-01-29T10:42:48.000Z</time>
      </trkpt>
      <trkpt lat="44.52138" lon="0.63476">
        <ele>146.5</ele>
        <time>2017-01-29T10:42:49.000Z</time>
      </trkpt>
      <trkpt lat="44.52138" lon="0.63476">
        <ele>146.5</ele>
        <time>2017-01-29T10:42:50.000Z</time>
      </trkpt>
      <trkpt lat="44.52138" lon="0.63476">
        <ele>146.5</ele>
        <time>2017-01-29T10:42:51.000Z</time>
      </trkpt>
      <trkpt lat="44.52138" lon="0.63476">
        <ele>146.5</ele>
        <time>2017-01-29T10:42:52.000Z</time>
      </trkpt>
      <trkpt lat="44.52138" lon="0.63476">
        <ele>146.5</ele>
        <time>2017-01-29T10:42:53.000Z</time>
      </trkpt>
      <trkpt lat="44.52138" lon="0.63476">
        <ele>146.5</ele>
        <time>2017-01-29T10:42:54.000Z</time>
      </trkpt>
      <trkpt lat="44.52138" lon="0.63476">
        <ele>146.5</ele>
        <time>2017-01-29T10:42:55.000Z</time>
      </trkpt>
      <trkpt lat="44.52138" lon="0.63476">
        <ele>146.5</ele>
        <time>2017-01-29T10:42:56.000Z</time>
      </trkpt>
      <trkpt lat="44.52138" lon="0.63476">
        <ele>146.5</ele>
        <time>2017-01-29T10:42:57.000Z</time>
      </trkpt>
      <trkpt lat="44.52138" lon="0.63476">
        <ele>146.5</ele>
        <time>2017-01-29T10:42:58.000Z</time>
      </trkpt>
      <trkpt lat="44.52138" lon="0.63476">
        <ele>146.5</ele>
        <time>2017-01-29T10:42:59.000Z</time>
      </trkpt>
      <trkpt lat="44.52138" lon="0.63476">
        <ele>146.5</ele>
        <time>2017-01-29T10:43:00.000Z</time>
      </trkpt>
      <trkpt lat="44.52138" lon="0.63476">
        <ele>146.5</ele>
        <time>2017-01-29T10:43:01.000Z</time>
      </trkpt>
      <trkpt lat="44.52138" lon="0.63476">
        <ele>146.5</ele>
        <time>2017-01-29T10:43:02.000Z</time>
      </trkpt>
      <trkpt lat="44.52138" lon="0.63476">
        <ele>146.5</ele>
        <time>2017-01-29T10:43:03.000Z</time>
      </trkpt>
      <trkpt lat="44.52138" lon="0.63476">
        <ele>146.5</ele>
        <time>2017-01-29T10:43:04.000Z</time>
      </trkpt>
      <trkpt lat="44.52138" lon="0.63476">
        <ele>146.5</ele>
        <time>2017-01-29T10:43:05.000Z</time>
      </trkpt>
      <trkpt lat="44.52138" lon="0.63476">
        <ele>146.5</ele>
        <time>2017-01-29T10:43:06.000Z</time>
      </trkpt>
      <trkpt lat="44.52138" lon="0.63476">
        <ele>146.5</ele>
        <time>2017-01-29T10:43:07.000Z</time>
      </trkpt>
      <trkpt lat="44.52138" lon="0.63476">
        <ele>146.5</ele>
        <time>2017-01-29T10:43:08.000Z</time>
      </trkpt>
      <trkpt lat="44.52138" lon="0.63476">
        <ele>146.5</ele>
        <time>2017-01-29T10:43:09.000Z</time>
      </trkpt>
      <trkpt lat="44.52138" lon="0.63476">
        <ele>146.5</ele>
        <time>2017-01-29T10:43:10.000Z</time>
      </trkpt>
      <trkpt lat="44.52138" lon="0.63476">
        <ele>146.5</ele>
        <time>2017-01-29T10:43:11.000Z</time>
      </trkpt>
      <trkpt lat="44.52138" lon="0.63476">
        <ele>146.5</ele>
        <time>2017-01-29T10:43:12.000Z</time>
      </trkpt>
      <trkpt lat="44.52138" lon="0.63476">
        <ele>146.5</ele>
        <time>2017-01-29T10:43:13.000Z</time>
      </trkpt>
      <trkpt lat="44.52138" lon="0.63476">
        <ele>146.5</ele>
        <time>2017-01-29T10:43:14.000Z</time>
      </trkpt>
      <trkpt lat="44.52138" lon="0.63476">
        <ele>146.5</ele>
        <time>2017-01-29T10:43:15.000Z</time>
      </trkpt>
      <trkpt lat="44.52138" lon="0.63476">
        <ele>146.5</ele>
        <time>2017-01-29T10:43:16.000Z</time>
      </trkpt>
      <trkpt lat="44.52138" lon="0.63476">
        <ele>146.5</ele>
        <time>2017-01-29T10:43:17.000Z</time>
      </trkpt>
      <trkpt lat="44.52138" lon="0.63476">
        <ele>146.5</ele>
        <time>2017-01-29T10:43:18.000Z</time>
      </trkpt>
      <trkpt lat="44.52138" lon="0.63476">
        <ele>146.5</ele>
        <time>2017-01-29T10:43:19.000Z</time>
      </trkpt>
      <trkpt lat="44.52138" lon="0.63476">
        <ele>146.5</ele>
        <time>2017-01-29T10:43:20.000Z</time>
      </trkpt>
      <trkpt lat="44.52138" lon="0.63476">
        <ele>146.5</ele>
        <time>2017-01-29T10:43:21.000Z</time>
      </trkpt>
      <trkpt lat="44.52138" lon="0.63476">
        <ele>146.5</ele>
        <time>2017-01-29T10:43:22.000Z</time>
      </trkpt>
      <trkpt lat="44.52138" lon="0.63476">
        <ele>146.5</ele>
        <time>2017-01-29T10:43:23.000Z</time>
      </trkpt>
      <trkpt lat="44.52138" lon="0.63476">
        <ele>146.5</ele>
        <time>2017-01-29T10:43:24.000Z</time>
      </trkpt>
      <trkpt lat="44.52138" lon="0.63476">
        <ele>146.5</ele>
        <time>2017-01-29T10:43:25.000Z</time>
      </trkpt>
      <trkpt lat="44.52138" lon="0.63476">
        <ele>146.5</ele>
        <time>2017-01-29T10:43:26.000Z</time>
      </trkpt>
      <trkpt lat="44.52138" lon="0.63476">
        <ele>146.5</ele>
        <time>2017-01-29T10:43:27.000Z</time>
      </trkpt>
      <trkpt lat="44.52138" lon="0.63476">
        <ele>146.5</ele>
        <time>2017-01-29T10:43:28.000Z</time>
      </trkpt>
      <trkpt lat="44.52138" lon="0.63476">
        <ele>146.5</ele>
        <time>2017-01-29T10:43:29.000Z</time>
      </trkpt>
      <trkpt lat="44.52138" lon="0.63476">
        <ele>146.5</ele>
        <time>2017-01-29T10:43:30.000Z</time>
      </trkpt>
      <trkpt lat="44.52138" lon="0.63476">
        <ele>146.5</ele>
        <time>2017-01-29T10:43:31.000Z</time>
      </trkpt>
      <trkpt lat="44.52138" lon="0.63476">
        <ele>146.5</ele>
        <time>2017-01-29T10:43:32.000Z</time>
      </trkpt>
      <trkpt lat="44.52138" lon="0.63476">
        <ele>146.5</ele>
        <time>2017-01-29T10:43:33.000Z</time>
      </trkpt>
      <trkpt lat="44.52138" lon="0.63476">
        <ele>146.5</ele>
        <time>2017-01-29T10:43:34.000Z</time>
      </trkpt>
      <trkpt lat="44.52138" lon="0.63476">
        <ele>146.5</ele>
        <time>2017-01-29T10:43:35.000Z</time>
      </trkpt>
      <trkpt lat="44.52138" lon="0.63476">
        <ele>146.5</ele>
        <time>2017-01-29T10:43:36.000Z</time>
      </trkpt>
      <trkpt lat="44.52138" lon="0.63476">
        <ele>146.5</ele>
        <time>2017-01-29T10:43:37.000Z</time>
      </trkpt>
      <trkpt lat="44.52138" lon="0.63476">
        <ele>146.5</ele>
        <time>2017-01-29T10:43:38.000Z</time>
      </trkpt>
      <trkpt lat="44.52138" lon="0.63476">
        <ele>146.5</ele>
        <time>2017-01-29T10:43:39.000Z</time>
      </trkpt>
      <trkpt lat="44.52138" lon="0.63476">
        <ele>146.5</ele>
        <time>2017-01-29T10:43:40.000Z</time>
      </trkpt>
      <trkpt lat="44.52138" lon="0.63476">
        <ele>146.5</ele>
        <time>2017-01-29T10:43:41.000Z</time>
      </trkpt>
      <trkpt lat="44.52138" lon="0.63476">
        <ele>146.5</ele>
        <time>2017-01-29T10:43:42.000Z</time>
      </trkpt>
      <trkpt lat="44.52138" lon="0.63476">
        <ele>146.5</ele>
        <time>2017-01-29T10:43:43.000Z</time>
      </trkpt>
      <trkpt lat="44.52138" lon="0.63476">
        <ele>146.5</ele>
        <time>2017-01-29T10:43:44.000Z</time>
      </trkpt>
      <trkpt lat="44.52138" lon="0.63476">
        <ele>146.5</ele>
        <time>2017-01-29T10:43:45.000Z</time>
      </trkpt>
      <trkpt lat="44.52138" lon="0.63476">
        <ele>146.5</ele>
        <time>2017-01-29T10:43:46.000Z</time>
      </trkpt>
      <trkpt lat="44.52138" lon="0.63476">
        <ele>146.5</ele>
        <time>2017-01-29T10:43:47.000Z</time>
      </trkpt>
      <trkpt lat="44.52138" lon="0.63476">
        <ele>146.5</ele>
        <time>2017-01-29T10:43:48.000Z</time>
      </trkpt>
      <trkpt lat="44.52138" lon="0.63476">
        <ele>146.5</ele>
        <time>2017-01-29T10:43:49.000Z</time>
      </trkpt>
      <trkpt lat="44.52138" lon="0.63476">
        <ele>146.5</ele>
        <time>2017-01-29T10:43:50.000Z</time>
      </trkpt>
      <trkpt lat="44.52138" lon="0.63476">
        <ele>146.5</ele>
        <time>2017-01-29T10:43:51.000Z</time>
      </trkpt>
      <trkpt lat="44.52138" lon="0.63476">
        <ele>146.5</ele>
        <time>2017-01-29T10:43:52.000Z</time>
      </trkpt>
      <trkpt lat="44.52138" lon="0.63476">
        <ele>146.5</ele>
        <time>2017-01-29T10:43:53.000Z</time>
      </trkpt>
      <trkpt lat="44.52138" lon="0.63476">
        <ele>146.5</ele>
        <time>2017-01-29T10:43:54.000Z</time>
      </trkpt>
      <trkpt lat="44.52138" lon="0.63476">
        <ele>146.5</ele>
        <time>2017-01-29T10:43:55.000Z</time>
      </trkpt>
      <trkpt lat="44.52138" lon="0.63476">
        <ele>146.5</ele>
        <time>2017-01-29T10:43:56.000Z</time>
      </trkpt>
      <trkpt lat="44.52138" lon="0.63476">
        <ele>146.5</ele>
        <time>2017-01-29T10:43:57.000Z</time>
      </trkpt>
      <trkpt lat="44.52138" lon="0.63476">
        <ele>146.5</ele>
        <time>2017-01-29T10:43:58.000Z</time>
      </trkpt>
      <trkpt lat="44.52138" lon="0.63476">
        <ele>146.5</ele>
        <time>2017-01-29T10:43:59.000Z</time>
      </trkpt>
      <trkpt lat="44.52138" lon="0.63476">
        <ele>146.5</ele>
        <time>2017-01-29T10:44:00.000Z</time>
      </trkpt>
      <trkpt lat="44.52138" lon="0.63476">
        <ele>146.5</ele>
        <time>2017-01-29T10:44:01.000Z</time>
      </trkpt>
      <trkpt lat="44.52138" lon="0.63476">
        <ele>146.5</ele>
        <time>2017-01-29T10:44:02.000Z</time>
      </trkpt>
      <trkpt lat="44.52138" lon="0.63476">
        <ele>146.5</ele>
        <time>2017-01-29T10:44:03.000Z</time>
      </trkpt>
      <trkpt lat="44.52138" lon="0.63476">
        <ele>146.5</ele>
        <time>2017-01-29T10:44:04.000Z</time>
      </trkpt>
      <trkpt lat="44.52138" lon="0.63476">
        <ele>146.5</ele>
        <time>2017-01-29T10:44:05.000Z</time>
      </trkpt>
      <trkpt lat="44.52138" lon="0.63476">
        <ele>146.5</ele>
        <time>2017-01-29T10:44:06.000Z</time>
      </trkpt>
      <trkpt lat="44.52138" lon="0.63476">
        <ele>146.5</ele>
        <time>2017-01-29T10:44:07.000Z</time>
      </trkpt>
      <trkpt lat="44.52138" lon="0.63476">
        <ele>146.5</ele>
        <time>2017-01-29T10:44:08.000Z</time>
      </trkpt>
      <trkpt lat="44.52138" lon="0.63476">
        <ele>146.5</ele>
        <time>2017-01-29T10:44:09.000Z</time>
      </trkpt>
      <trkpt lat="44.52138" lon="0.63476">
        <ele>146.5</ele>
        <time>2017-01-29T10:44:10.000Z</time>
      </trkpt>
      <trkpt lat="44.52138" lon="0.63476">
        <ele>146.5</ele>
        <time>2017-01-29T10:44:11.000Z</time>
      </trkpt>
      <trkpt lat="44.52138" lon="0.63476">
        <ele>146.5</ele>
        <time>2017-01-29T10:44:12.000Z</time>
      </trkpt>
      <trkpt lat="44.52138" lon="0.63476">
        <ele>146.5</ele>
        <time>2017-01-29T10:44:13.000Z</time>
      </trkpt>
      <trkpt lat="44.52138" lon="0.63476">
        <ele>146.5</ele>
        <time>2017-01-29T10:44:14.000Z</time>
      </trkpt>
      <trkpt lat="44.52138" lon="0.63476">
        <ele>146.5</ele>
        <time>2017-01-29T10:44:15.000Z</time>
      </trkpt>
      <trkpt lat="44.52138" lon="0.63476">
        <ele>146.5</ele>
        <time>2017-01-29T10:44:16.000Z</time>
      </trkpt>
      <trkpt lat="44.52138" lon="0.63476">
        <ele>146.5</ele>
        <time>2017-01-29T10:44:17.000Z</time>
      </trkpt>
      <trkpt lat="44.52138" lon="0.63476">
        <ele>146.5</ele>
        <time>2017-01-29T10:44:18.000Z</time>
      </trkpt>
      <trkpt lat="44.52138" lon="0.63476">
        <ele>146.5</ele>
        <time>2017-01-29T10:44:19.000Z</time>
      </trkpt>
      <trkpt lat="44.52138" lon="0.63476">
        <ele>146.5</ele>
        <time>2017-01-29T10:44:20.000Z</time>
      </trkpt>
      <trkpt lat="44.52138" lon="0.63476">
        <ele>146.5</ele>
        <time>2017-01-29T10:44:21.000Z</time>
      </trkpt>
      <trkpt lat="44.52138" lon="0.63476">
        <ele>146.5</ele>
        <time>2017-01-29T10:44:22.000Z</time>
      </trkpt>
      <trkpt lat="44.52138" lon="0.63476">
        <ele>146.5</ele>
        <time>2017-01-29T10:44:23.000Z</time>
      </trkpt>
      <trkpt lat="44.52138" lon="0.63476">
        <ele>146.5</ele>
        <time>2017-01-29T10:44:24.000Z</time>
      </trkpt>
      <trkpt lat="44.52138" lon="0.63476">
        <ele>146.5</ele>
        <time>2017-01-29T10:44:25.000Z</time>
      </trkpt>
      <trkpt lat="44.52138" lon="0.63476">
        <ele>146.5</ele>
        <time>2017-01-29T10:44:26.000Z</time>
      </trkpt>
      <trkpt lat="44.52138" lon="0.63476">
        <ele>146.5</ele>
        <time>2017-01-29T10:44:27.000Z</time>
      </trkpt>
      <trkpt lat="44.52138" lon="0.63476">
        <ele>146.5</ele>
        <time>2017-01-29T10:44:28.000Z</time>
      </trkpt>
      <trkpt lat="44.52138" lon="0.63476">
        <ele>146.5</ele>
        <time>2017-01-29T10:44:29.000Z</time>
      </trkpt>
      <trkpt lat="44.52138" lon="0.63476">
        <ele>146.5</ele>
        <time>2017-01-29T10:44:30.000Z</time>
      </trkpt>
      <trkpt lat="44.52138" lon="0.63476">
        <ele>146.5</ele>
        <time>2017-01-29T10:44:31.000Z</time>
      </trkpt>
      <trkpt lat="44.52138" lon="0.63476">
        <ele>146.5</ele>
        <time>2017-01-29T10:44:32.000Z</time>
      </trkpt>
      <trkpt lat="44.52138" lon="0.63476">
        <ele>146.5</ele>
        <time>2017-01-29T10:44:33.000Z</time>
      </trkpt>
      <trkpt lat="44.52138" lon="0.63476">
        <ele>146.5</ele>
        <time>2017-01-29T10:44:34.000Z</time>
      </trkpt>
      <trkpt lat="44.52138" lon="0.63476">
        <ele>146.5</ele>
        <time>2017-01-29T10:44:35.000Z</time>
      </trkpt>
      <trkpt lat="44.52138" lon="0.63476">
        <ele>146.5</ele>
        <time>2017-01-29T10:44:36.000Z</time>
      </trkpt>
      <trkpt lat="44.52138" lon="0.63476">
        <ele>146.5</ele>
        <time>2017-01-29T10:44:37.000Z</time>
      </trkpt>
      <trkpt lat="44.52138" lon="0.63476">
        <ele>146.5</ele>
        <time>2017-01-29T10:44:38.000Z</time>
      </trkpt>
      <trkpt lat="44.52138" lon="0.63476">
        <ele>146.5</ele>
        <time>2017-01-29T10:44:39.000Z</time>
      </trkpt>
      <trkpt lat="44.52138" lon="0.63476">
        <ele>146.5</ele>
        <time>2017-01-29T10:44:40.000Z</time>
      </trkpt>
      <trkpt lat="44.52138" lon="0.63476">
        <ele>146.5</ele>
        <time>2017-01-29T10:44:41.000Z</time>
      </trkpt>
      <trkpt lat="44.52138" lon="0.63476">
        <ele>146.5</ele>
        <time>2017-01-29T10:44:42.000Z</time>
      </trkpt>
      <trkpt lat="44.52138" lon="0.63476">
        <ele>146.5</ele>
        <time>2017-01-29T10:44:43.000Z</time>
      </trkpt>
      <trkpt lat="44.52138" lon="0.63476">
        <ele>146.5</ele>
        <time>2017-01-29T10:44:44.000Z</time>
      </trkpt>
      <trkpt lat="44.52138" lon="0.63476">
        <ele>146.5</ele>
        <time>2017-01-29T10:44:45.000Z</time>
      </trkpt>
      <trkpt lat="44.52138" lon="0.63476">
        <ele>146.5</ele>
        <time>2017-01-29T10:44:46.000Z</time>
      </trkpt>
      <trkpt lat="44.52138" lon="0.63476">
        <ele>146.5</ele>
        <time>2017-01-29T10:44:47.000Z</time>
      </trkpt>
      <trkpt lat="44.52138" lon="0.63476">
        <ele>146.5</ele>
        <time>2017-01-29T10:44:48.000Z</time>
      </trkpt>
      <trkpt lat="44.52138" lon="0.63476">
        <ele>146.5</ele>
        <time>2017-01-29T10:44:49.000Z</time>
      </trkpt>
      <trkpt lat="44.52138" lon="0.63476">
        <ele>146.5</ele>
        <time>2017-01-29T10:44:50.000Z</time>
      </trkpt>
      <trkpt lat="44.52138" lon="0.63476">
        <ele>146.5</ele>
        <time>2017-01-29T10:44:51.000Z</time>
      </trkpt>
      <trkpt lat="44.52138" lon="0.63476">
        <ele>146.5</ele>
        <time>2017-01-29T10:44:52.000Z</time>
      </trkpt>
      <trkpt lat="44.52138" lon="0.63476">
        <ele>146.5</ele>
        <time>2017-01-29T10:44:53.000Z</time>
      </trkpt>
      <trkpt lat="44.52138" lon="0.63476">
        <ele>146.5</ele>
        <time>2017-01-29T10:44:54.000Z</time>
      </trkpt>
      <trkpt lat="44.52138" lon="0.63476">
        <ele>146.5</ele>
        <time>2017-01-29T10:44:55.000Z</time>
      </trkpt>
      <trkpt lat="44.52138" lon="0.63476">
        <ele>146.5</ele>
        <time>2017-01-29T10:44:56.000Z</time>
      </trkpt>
      <trkpt lat="44.52138" lon="0.63476">
        <ele>146.5</ele>
        <time>2017-01-29T10:44:57.000Z</time>
      </trkpt>
      <trkpt lat="44.52138" lon="0.63476">
        <ele>146.5</ele>
        <time>2017-01-29T10:44:58.000Z</time>
      </trkpt>
      <trkpt lat="44.52138" lon="0.63476">
        <ele>146.5</ele>
        <time>2017-01-29T10:44:59.000Z</time>
      </trkpt>
      <trkpt lat="44.52138" lon="0.63476">
        <ele>146.5</ele>
        <time>2017-01-29T10:45:00.000Z</time>
      </trkpt>
      <trkpt lat="44.52138" lon="0.63476">
        <ele>146.5</ele>
        <time>2017-01-29T10:45:01.000Z</time>
      </trkpt>
      <trkpt lat="44.52138" lon="0.63476">
        <ele>146.5</ele>
        <time>2017-01-29T10:45:02.000Z</time>
      </trkpt>
      <trkpt lat="44.52138" lon="0.63476">
        <ele>146.5</ele>
        <time>2017-01-29T10:45:03.000Z</time>
      </trkpt>
      <trkpt lat="44.52138" lon="0.63476">
        <ele>146.5</ele>
        <time>2017-01-29T10:45:04.000Z</time>
      </trkpt>
      <trkpt lat="44.52138" lon="0.63476">
        <ele>146.5</ele>
        <time>2017-01-29T10:45:05.000Z</time>
      </trkpt>
      <trkpt lat="44.52138" lon="0.63476">
        <ele>146.5</ele>
        <time>2017-01-29T10:45:06.000Z</time>
      </trkpt>
      <trkpt lat="44.52138" lon="0.63476">
        <ele>146.5</ele>
        <time>2017-01-29T10:45:07.000Z</time>
      </trkpt>
      <trkpt lat="44.52138" lon="0.63476">
        <ele>146.5</ele>
        <time>2017-01-29T10:45:08.000Z</time>
      </trkpt>
      <trkpt lat="44.52138" lon="0.63476">
        <ele>146.5</ele>
        <time>2017-01-29T10:45:09.000Z</time>
      </trkpt>
      <trkpt lat="44.52138" lon="0.63476">
        <ele>146.5</ele>
        <time>2017-01-29T10:45:10.000Z</time>
      </trkpt>
      <trkpt lat="44.52138" lon="0.63476">
        <ele>146.5</ele>
        <time>2017-01-29T10:45:11.000Z</time>
      </trkpt>
      <trkpt lat="44.52138" lon="0.63476">
        <ele>146.5</ele>
        <time>2017-01-29T10:45:12.000Z</time>
      </trkpt>
      <trkpt lat="44.52138" lon="0.63476">
        <ele>146.5</ele>
        <time>2017-01-29T10:45:13.000Z</time>
      </trkpt>
      <trkpt lat="44.52138" lon="0.63476">
        <ele>146.5</ele>
        <time>2017-01-29T10:45:14.000Z</time>
      </trkpt>
      <trkpt lat="44.52138" lon="0.63476">
        <ele>146.5</ele>
        <time>2017-01-29T10:45:15.000Z</time>
      </trkpt>
      <trkpt lat="44.52138" lon="0.63476">
        <ele>146.5</ele>
        <time>2017-01-29T10:45:16.000Z</time>
      </trkpt>
      <trkpt lat="44.52138" lon="0.63476">
        <ele>146.5</ele>
        <time>2017-01-29T10:45:17.000Z</time>
      </trkpt>
      <trkpt lat="44.52138" lon="0.63476">
        <ele>146.5</ele>
        <time>2017-01-29T10:45:18.000Z</time>
      </trkpt>
      <trkpt lat="44.52138" lon="0.63476">
        <ele>146.5</ele>
        <time>2017-01-29T10:45:19.000Z</time>
      </trkpt>
      <trkpt lat="44.52138" lon="0.63476">
        <ele>146.5</ele>
        <time>2017-01-29T10:45:20.000Z</time>
      </trkpt>
      <trkpt lat="44.52138" lon="0.63476">
        <ele>146.5</ele>
        <time>2017-01-29T10:45:21.000Z</time>
      </trkpt>
      <trkpt lat="44.52138" lon="0.63476">
        <ele>146.5</ele>
        <time>2017-01-29T10:45:22.000Z</time>
      </trkpt>
      <trkpt lat="44.52138" lon="0.63476">
        <ele>146.5</ele>
        <time>2017-01-29T10:45:23.000Z</time>
      </trkpt>
      <trkpt lat="44.52138" lon="0.63476">
        <ele>146.5</ele>
        <time>2017-01-29T10:45:24.000Z</time>
      </trkpt>
      <trkpt lat="44.52138" lon="0.63476">
        <ele>146.5</ele>
        <time>2017-01-29T10:45:25.000Z</time>
      </trkpt>
      <trkpt lat="44.52138" lon="0.63476">
        <ele>146.5</ele>
        <time>2017-01-29T10:45:26.000Z</time>
      </trkpt>
      <trkpt lat="44.52138" lon="0.63476">
        <ele>146.5</ele>
        <time>2017-01-29T10:45:27.000Z</time>
      </trkpt>
      <trkpt lat="44.52138" lon="0.63476">
        <ele>146.5</ele>
        <time>2017-01-29T10:45:28.000Z</time>
      </trkpt>
      <trkpt lat="44.52138" lon="0.63476">
        <ele>146.5</ele>
        <time>2017-01-29T10:45:29.000Z</time>
      </trkpt>
      <trkpt lat="44.52138" lon="0.63476">
        <ele>146.5</ele>
        <time>2017-01-29T10:45:30.000Z</time>
      </trkpt>
      <trkpt lat="44.52138" lon="0.63476">
        <ele>146.5</ele>
        <time>2017-01-29T10:45:31.000Z</time>
      </trkpt>
      <trkpt lat="44.52138" lon="0.63476">
        <ele>146.5</ele>
        <time>2017-01-29T10:45:32.000Z</time>
      </trkpt>
      <trkpt lat="44.52138" lon="0.63476">
        <ele>146.5</ele>
        <time>2017-01-29T10:45:33.000Z</time>
      </trkpt>
      <trkpt lat="44.52138" lon="0.63476">
        <ele>146.5</ele>
        <time>2017-01-29T10:45:34.000Z</time>
      </trkpt>
      <trkpt lat="44.52138" lon="0.63476">
        <ele>146.5</ele>
        <time>2017-01-29T10:45:35.000Z</time>
      </trkpt>
      <trkpt lat="44.52138" lon="0.63476">
        <ele>146.5</ele>
        <time>2017-01-29T10:45:36.000Z</time>
      </trkpt>
      <trkpt lat="44.52138" lon="0.63476">
        <ele>146.5</ele>
        <time>2017-01-29T10:45:37.000Z</time>
      </trkpt>
      <trkpt lat="44.52138" lon="0.63476">
        <ele>146.5</ele>
        <time>2017-01-29T10:45:38.000Z</time>
      </trkpt>
      <trkpt lat="44.52138" lon="0.63476">
        <ele>146.5</ele>
        <time>2017-01-29T10:45:39.000Z</time>
      </trkpt>
      <trkpt lat="44.52138" lon="0.63476">
        <ele>146.5</ele>
        <time>2017-01-29T10:45:40.000Z</time>
      </trkpt>
      <trkpt lat="44.52138" lon="0.63476">
        <ele>146.5</ele>
        <time>2017-01-29T10:45:41.000Z</time>
      </trkpt>
      <trkpt lat="44.52138" lon="0.63476">
        <ele>146.5</ele>
        <time>2017-01-29T10:45:42.000Z</time>
      </trkpt>
      <trkpt lat="44.52138" lon="0.63476">
        <ele>146.5</ele>
        <time>2017-01-29T10:45:43.000Z</time>
      </trkpt>
      <trkpt lat="44.52138" lon="0.63476">
        <ele>146.5</ele>
        <time>2017-01-29T10:45:44.000Z</time>
      </trkpt>
      <trkpt lat="44.52138" lon="0.63476">
        <ele>146.5</ele>
        <time>2017-01-29T10:45:45.000Z</time>
      </trkpt>
      <trkpt lat="44.52138" lon="0.63476">
        <ele>146.5</ele>
        <time>2017-01-29T10:45:46.000Z</time>
      </trkpt>
      <trkpt lat="44.52138" lon="0.63476">
        <ele>146.5</ele>
        <time>2017-01-29T10:45:47.000Z</time>
      </trkpt>
      <trkpt lat="44.52138" lon="0.63476">
        <ele>146.5</ele>
        <time>2017-01-29T10:45:48.000Z</time>
      </trkpt>
      <trkpt lat="44.52138" lon="0.63476">
        <ele>146.5</ele>
        <time>2017-01-29T10:45:49.000Z</time>
      </trkpt>
      <trkpt lat="44.52138" lon="0.63476">
        <ele>146.5</ele>
        <time>2017-01-29T10:45:50.000Z</time>
      </trkpt>
      <trkpt lat="44.52138" lon="0.63476">
        <ele>146.5</ele>
        <time>2017-01-29T10:45:51.000Z</time>
      </trkpt>
      <trkpt lat="44.52138" lon="0.63476">
        <ele>146.5</ele>
        <time>2017-01-29T10:45:52.000Z</time>
      </trkpt>
      <trkpt lat="44.52138" lon="0.63476">
        <ele>146.5</ele>
        <time>2017-01-29T10:45:53.000Z</time>
      </trkpt>
      <trkpt lat="44.52138" lon="0.63476">
        <ele>146.5</ele>
        <time>2017-01-29T10:45:54.000Z</time>
      </trkpt>
      <trkpt lat="44.52138" lon="0.63476">
        <ele>146.5</ele>
        <time>2017-01-29T10:45:55.000Z</time>
      </trkpt>
      <trkpt lat="44.52138" lon="0.63476">
        <ele>146.5</ele>
        <time>2017-01-29T10:45:56.000Z</time>
      </trkpt>
      <trkpt lat="44.52138" lon="0.63476">
        <ele>146.5</ele>
        <time>2017-01-29T10:45:57.000Z</time>
      </trkpt>
      <trkpt lat="44.52138" lon="0.63476">
        <ele>146.5</ele>
        <time>2017-01-29T10:45:58.000Z</time>
      </trkpt>
      <trkpt lat="44.52138" lon="0.63476">
        <ele>146.5</ele>
        <time>2017-01-29T10:45:59.000Z</time>
      </trkpt>
      <trkpt lat="44.52138" lon="0.63476">
        <ele>146.5</ele>
        <time>2017-01-29T10:46:00.000Z</time>
      </trkpt>
      <trkpt lat="44.52138" lon="0.63476">
        <ele>146.5</ele>
        <time>2017-01-29T10:46:01.000Z</time>
      </trkpt>
      <trkpt lat="44.52138" lon="0.63476">
        <ele>146.5</ele>
        <time>2017-01-29T10:46:02.000Z</time>
      </trkpt>
      <trkpt lat="44.52138" lon="0.63476">
        <ele>146.5</ele>
        <time>2017-01-29T10:46:03.000Z</time>
      </trkpt>
      <trkpt lat="44.52138" lon="0.63476">
        <ele>146.5</ele>
        <time>2017-01-29T10:46:04.000Z</time>
      </trkpt>
      <trkpt lat="44.52138" lon="0.63476">
        <ele>146.5</ele>
        <time>2017-01-29T10:46:05.000Z</time>
      </trkpt>
      <trkpt lat="44.52138" lon="0.63476">
        <ele>146.5</ele>
        <time>2017-01-29T10:46:06.000Z</time>
      </trkpt>
      <trkpt lat="44.52138" lon="0.63476">
        <ele>146.5</ele>
        <time>2017-01-29T10:46:07.000Z</time>
      </trkpt>
      <trkpt lat="44.52138" lon="0.63476">
        <ele>146.5</ele>
        <time>2017-01-29T10:46:08.000Z</time>
      </trkpt>
      <trkpt lat="44.52138" lon="0.63476">
        <ele>146.5</ele>
        <time>2017-01-29T10:46:09.000Z</time>
      </trkpt>
      <trkpt lat="44.52138" lon="0.63476">
        <ele>146.5</ele>
        <time>2017-01-29T10:46:10.000Z</time>
      </trkpt>
      <trkpt lat="44.52138" lon="0.63476">
        <ele>146.5</ele>
        <time>2017-01-29T10:46:11.000Z</time>
      </trkpt>
      <trkpt lat="44.52138" lon="0.63476">
        <ele>146.5</ele>
        <time>2017-01-29T10:46:12.000Z</time>
      </trkpt>
      <trkpt lat="44.52138" lon="0.63476">
        <ele>146.5</ele>
        <time>2017-01-29T10:46:13.000Z</time>
      </trkpt>
      <trkpt lat="44.52139" lon="0.63477">
        <ele>146.5</ele>
        <time>2017-01-29T10:46:14.000Z</time>
      </trkpt>
      <trkpt lat="44.52139" lon="0.63478">
        <ele>146.5</ele>
        <time>2017-01-29T10:46:15.000Z</time>
      </trkpt>
      <trkpt lat="44.52139" lon="0.63479">
        <ele>146.4</ele>
        <time>2017-01-29T10:46:16.000Z</time>
      </trkpt>
      <trkpt lat="44.5214" lon="0.63481">
        <ele>146.4</ele>
        <time>2017-01-29T10:46:17.000Z</time>
      </trkpt>
      <trkpt lat="44.52142" lon="0.63481">
        <ele>146.5</ele>
        <time>2017-01-29T10:46:18.000Z</time>
      </trkpt>
      <trkpt lat="44.52144" lon="0.63481">
        <ele>146.5</ele>
        <time>2017-01-29T10:46:19.000Z</time>
      </trkpt>
      <trkpt lat="44.52146" lon="0.63481">
        <ele>146.6</ele>
        <time>2017-01-29T10:46:20.000Z</time>
      </trkpt>
      <trkpt lat="44.52149" lon="0.63482">
        <ele>146.7</ele>
        <time>2017-01-29T10:46:21.000Z</time>
      </trkpt>
      <trkpt lat="44.52152" lon="0.63483">
        <ele>146.7</ele>
        <time>2017-01-29T10:46:22.000Z</time>
      </trkpt>
      <trkpt lat="44.52156" lon="0.63484">
        <ele>146.8</ele>
        <time>2017-01-29T10:46:23.000Z</time>
      </trkpt>
      <trkpt lat="44.5216" lon="0.63485">
        <ele>147</ele>
        <time>2017-01-29T10:46:24.000Z</time>
      </trkpt>
      <trkpt lat="44.52164" lon="0.63487">
        <ele>147.1</ele>
        <time>2017-01-29T10:46:25.000Z</time>
      </trkpt>
      <trkpt lat="44.52169" lon="0.63488">
        <ele>147.1</ele>
        <time>2017-01-29T10:46:26.000Z</time>
      </trkpt>
      <trkpt lat="44.52174" lon="0.6349">
        <ele>147.1</ele>
        <time>2017-01-29T10:46:27.000Z</time>
      </trkpt>
      <trkpt lat="44.52179" lon="0.63492">
        <ele>147</ele>
        <time>2017-01-29T10:46:28.000Z</time>
      </trkpt>
      <trkpt lat="44.52185" lon="0.63496">
        <ele>147</ele>
        <time>2017-01-29T10:46:29.000Z</time>
      </trkpt>
      <trkpt lat="44.5219" lon="0.63499">
        <ele>147</ele>
        <time>2017-01-29T10:46:30.000Z</time>
      </trkpt>
      <trkpt lat="44.52196" lon="0.63504">
        <ele>146.9</ele>
        <time>2017-01-29T10:46:31.000Z</time>
      </trkpt>
      <trkpt lat="44.52202" lon="0.63508">
        <ele>146.7</ele>
        <time>2017-01-29T10:46:32.000Z</time>
      </trkpt>
      <trkpt lat="44.52207" lon="0.63513">
        <ele>146.6</ele>
        <time>2017-01-29T10:46:33.000Z</time>
      </trkpt>
      <trkpt lat="44.52212" lon="0.63517">
        <ele>146.5</ele>
        <time>2017-01-29T10:46:34.000Z</time>
      </trkpt>
      <trkpt lat="44.52216" lon="0.6352">
        <ele>146.5</ele>
        <time>2017-01-29T10:46:35.000Z</time>
      </trkpt>
      <trkpt lat="44.52219" lon="0.63522">
        <ele>146.5</ele>
        <time>2017-01-29T10:46:36.000Z</time>
      </trkpt>
      <trkpt lat="44.52223" lon="0.63522">
        <ele>146.6</ele>
        <time>2017-01-29T10:46:37.000Z</time>
      </trkpt>
      <trkpt lat="44.52227" lon="0.63521">
        <ele>146.6</ele>
        <time>2017-01-29T10:46:38.000Z</time>
      </trkpt>
      <trkpt lat="44.52231" lon="0.63519">
        <ele>146.7</ele>
        <time>2017-01-29T10:46:39.000Z</time>
      </trkpt>
      <trkpt lat="44.52235" lon="0.63515">
        <ele>146.8</ele>
        <time>2017-01-29T10:46:40.000Z</time>
      </trkpt>
      <trkpt lat="44.52239" lon="0.63509">
        <ele>146.9</ele>
        <time>2017-01-29T10:46:41.000Z</time>
      </trkpt>
      <trkpt lat="44.52243" lon="0.63502">
        <ele>147</ele>
        <time>2017-01-29T10:46:42.000Z</time>
      </trkpt>
      <trkpt lat="44.52247" lon="0.63495">
        <ele>146.7</ele>
        <time>2017-01-29T10:46:43.000Z</time>
      </trkpt>
      <trkpt lat="44.5225" lon="0.63488">
        <ele>146.2</ele>
        <time>2017-01-29T10:46:44.000Z</time>
      </trkpt>
      <trkpt lat="44.52254" lon="0.6348">
        <ele>145.3</ele>
        <time>2017-01-29T10:46:45.000Z</time>
      </trkpt>
      <trkpt lat="44.52257" lon="0.63472">
        <ele>144.4</ele>
        <time>2017-01-29T10:46:46.000Z</time>
      </trkpt>
      <trkpt lat="44.52259" lon="0.63463">
        <ele>143.6</ele>
        <time>2017-01-29T10:46:47.000Z</time>
      </trkpt>
      <trkpt lat="44.52261" lon="0.63453">
        <ele>142.8</ele>
        <time>2017-01-29T10:46:48.000Z</time>
      </trkpt>
      <trkpt lat="44.52261" lon="0.63443">
        <ele>142.1</ele>
        <time>2017-01-29T10:46:49.000Z</time>
      </trkpt>
      <trkpt lat="44.52262" lon="0.63432">
        <ele>141.5</ele>
        <time>2017-01-29T10:46:50.000Z</time>
      </trkpt>
      <trkpt lat="44.52262" lon="0.63421">
        <ele>140.8</ele>
        <time>2017-01-29T10:46:51.000Z</time>
      </trkpt>
      <trkpt lat="44.52262" lon="0.6341">
        <ele>140.2</ele>
        <time>2017-01-29T10:46:52.000Z</time>
      </trkpt>
      <trkpt lat="44.52261" lon="0.63398">
        <ele>139.7</ele>
        <time>2017-01-29T10:46:53.000Z</time>
      </trkpt>
      <trkpt lat="44.52261" lon="0.63387">
        <ele>139.2</ele>
        <time>2017-01-29T10:46:54.000Z</time>
      </trkpt>
      <trkpt lat="44.5226" lon="0.63377">
        <ele>138.7</ele>
        <time>2017-01-29T10:46:55.000Z</time>
      </trkpt>
      <trkpt lat="44.5226" lon="0.63366">
        <ele>138.1</ele>
        <time>2017-01-29T10:46:56.000Z</time>
      </trkpt>
      <trkpt lat="44.5226" lon="0.63357">
        <ele>137.7</ele>
        <time>2017-01-29T10:46:57.000Z</time>
      </trkpt>
      <trkpt lat="44.52259" lon="0.63347">
        <ele>137.2</ele>
        <time>2017-01-29T10:46:58.000Z</time>
      </trkpt>
      <trkpt lat="44.52259" lon="0.63339">
        <ele>136.7</ele>
        <time>2017-01-29T10:46:59.000Z</time>
      </trkpt>
      <trkpt lat="44.5226" lon="0.6333">
        <ele>136.3</ele>
        <time>2017-01-29T10:47:00.000Z</time>
      </trkpt>
      <trkpt lat="44.5226" lon="0.63322">
        <ele>136.1</ele>
        <time>2017-01-29T10:47:01.000Z</time>
      </trkpt>
      <trkpt lat="44.52262" lon="0.63314">
        <ele>135.7</ele>
        <time>2017-01-29T10:47:02.000Z</time>
      </trkpt>
      <trkpt lat="44.52266" lon="0.63307">
        <ele>135.4</ele>
        <time>2017-01-29T10:47:03.000Z</time>
      </trkpt>
      <trkpt lat="44.52272" lon="0.63302">
        <ele>135.1</ele>
        <time>2017-01-29T10:47:04.000Z</time>
      </trkpt>
      <trkpt lat="44.52279" lon="0.63299">
        <ele>134.7</ele>
        <time>2017-01-29T10:47:05.000Z</time>
      </trkpt>
      <trkpt lat="44.52286" lon="0.63297">
        <ele>134.5</ele>
        <time>2017-01-29T10:47:06.000Z</time>
      </trkpt>
      <trkpt lat="44.52294" lon="0.63296">
        <ele>134.2</ele>
        <time>2017-01-29T10:47:07.000Z</time>
      </trkpt>
      <trkpt lat="44.52301" lon="0.63296">
        <ele>134</ele>
        <time>2017-01-29T10:47:08.000Z</time>
      </trkpt>
      <trkpt lat="44.52307" lon="0.63295">
        <ele>133.8</ele>
        <time>2017-01-29T10:47:09.000Z</time>
      </trkpt>
      <trkpt lat="44.52313" lon="0.63293">
        <ele>133.6</ele>
        <time>2017-01-29T10:47:10.000Z</time>
      </trkpt>
      <trkpt lat="44.52318" lon="0.6329">
        <ele>133.5</ele>
        <time>2017-01-29T10:47:11.000Z</time>
      </trkpt>
      <trkpt lat="44.52323" lon="0.63287">
        <ele>133.4</ele>
        <time>2017-01-29T10:47:12.000Z</time>
      </trkpt>
      <trkpt lat="44.52328" lon="0.63283">
        <ele>133.3</ele>
        <time>2017-01-29T10:47:13.000Z</time>
      </trkpt>
      <trkpt lat="44.52332" lon="0.63278">
        <ele>133.3</ele>
        <time>2017-01-29T10:47:14.000Z</time>
      </trkpt>
      <trkpt lat="44.52336" lon="0.63274">
        <ele>133.7</ele>
        <time>2017-01-29T10:47:15.000Z</time>
      </trkpt>
      <trkpt lat="44.5234" lon="0.6327">
        <ele>134.1</ele>
        <time>2017-01-29T10:47:16.000Z</time>
      </trkpt>
      <trkpt lat="44.52343" lon="0.63266">
        <ele>134.4</ele>
        <time>2017-01-29T10:47:17.000Z</time>
      </trkpt>
      <trkpt lat="44.52347" lon="0.63263">
        <ele>134.8</ele>
        <time>2017-01-29T10:47:18.000Z</time>
      </trkpt>
      <trkpt lat="44.5235" lon="0.63259">
        <ele>135.1</ele>
        <time>2017-01-29T10:47:19.000Z</time>
      </trkpt>
      <trkpt lat="44.52353" lon="0.63256">
        <ele>135.5</ele>
        <time>2017-01-29T10:47:20.000Z</time>
      </trkpt>
      <trkpt lat="44.52356" lon="0.63253">
        <ele>135.8</ele>
        <time>2017-01-29T10:47:21.000Z</time>
      </trkpt>
      <trkpt lat="44.52359" lon="0.6325">
        <ele>136.1</ele>
        <time>2017-01-29T10:47:22.000Z</time>
      </trkpt>
      <trkpt lat="44.52362" lon="0.63247">
        <ele>136.6</ele>
        <time>2017-01-29T10:47:23.000Z</time>
      </trkpt>
      <trkpt lat="44.52365" lon="0.63244">
        <ele>137</ele>
        <time>2017-01-29T10:47:24.000Z</time>
      </trkpt>
      <trkpt lat="44.52368" lon="0.63242">
        <ele>137.4</ele>
        <time>2017-01-29T10:47:25.000Z</time>
      </trkpt>
      <trkpt lat="44.5237" lon="0.6324">
        <ele>137.8</ele>
        <time>2017-01-29T10:47:26.000Z</time>
      </trkpt>
      <trkpt lat="44.52372" lon="0.63238">
        <ele>138.1</ele>
        <time>2017-01-29T10:47:27.000Z</time>
      </trkpt>
      <trkpt lat="44.52374" lon="0.63236">
        <ele>138.3</ele>
        <time>2017-01-29T10:47:28.000Z</time>
      </trkpt>
      <trkpt lat="44.52376" lon="0.63235">
        <ele>138.5</ele>
        <time>2017-01-29T10:47:29.000Z</time>
      </trkpt>
      <trkpt lat="44.52377" lon="0.63234">
        <ele>138.7</ele>
        <time>2017-01-29T10:47:30.000Z</time>
      </trkpt>
      <trkpt lat="44.52378" lon="0.63233">
        <ele>138.9</ele>
        <time>2017-01-29T10:47:31.000Z</time>
      </trkpt>
      <trkpt lat="44.52379" lon="0.63232">
        <ele>139.1</ele>
        <time>2017-01-29T10:47:32.000Z</time>
      </trkpt>
      <trkpt lat="44.5238" lon="0.63231">
        <ele>139.2</ele>
        <time>2017-01-29T10:47:33.000Z</time>
      </trkpt>
      <trkpt lat="44.52382" lon="0.6323">
        <ele>139.4</ele>
        <time>2017-01-29T10:47:34.000Z</time>
      </trkpt>
      <trkpt lat="44.52383" lon="0.63229">
        <ele>139.6</ele>
        <time>2017-01-29T10:47:35.000Z</time>
      </trkpt>
      <trkpt lat="44.52384" lon="0.63227">
        <ele>139.8</ele>
        <time>2017-01-29T10:47:36.000Z</time>
      </trkpt>
      <trkpt lat="44.52385" lon="0.63226">
        <ele>140</ele>
        <time>2017-01-29T10:47:37.000Z</time>
      </trkpt>
      <trkpt lat="44.52386" lon="0.63225">
        <ele>140.2</ele>
        <time>2017-01-29T10:47:38.000Z</time>
      </trkpt>
      <trkpt lat="44.52388" lon="0.63224">
        <ele>140.4</ele>
        <time>2017-01-29T10:47:39.000Z</time>
      </trkpt>
      <trkpt lat="44.52389" lon="0.63222">
        <ele>140.6</ele>
        <time>2017-01-29T10:47:40.000Z</time>
      </trkpt>
      <trkpt lat="44.5239" lon="0.63221">
        <ele>140.8</ele>
        <time>2017-01-29T10:47:41.000Z</time>
      </trkpt>
      <trkpt lat="44.52392" lon="0.6322">
        <ele>141</ele>
        <time>2017-01-29T10:47:42.000Z</time>
      </trkpt>
      <trkpt lat="44.52393" lon="0.63218">
        <ele>141.2</ele>
        <time>2017-01-29T10:47:43.000Z</time>
      </trkpt>
      <trkpt lat="44.52394" lon="0.63217">
        <ele>141.4</ele>
        <time>2017-01-29T10:47:44.000Z</time>
      </trkpt>
      <trkpt lat="44.52396" lon="0.63215">
        <ele>141.6</ele>
        <time>2017-01-29T10:47:45.000Z</time>
      </trkpt>
      <trkpt lat="44.52397" lon="0.63214">
        <ele>141.8</ele>
        <time>2017-01-29T10:47:46.000Z</time>
      </trkpt>
      <trkpt lat="44.52398" lon="0.63213">
        <ele>142</ele>
        <time>2017-01-29T10:47:47.000Z</time>
      </trkpt>
      <trkpt lat="44.52399" lon="0.63211">
        <ele>142.2</ele>
        <time>2017-01-29T10:47:48.000Z</time>
      </trkpt>
      <trkpt lat="44.52401" lon="0.6321">
        <ele>142.5</ele>
        <time>2017-01-29T10:47:49.000Z</time>
      </trkpt>
      <trkpt lat="44.52402" lon="0.63209">
        <ele>142.7</ele>
        <time>2017-01-29T10:47:50.000Z</time>
      </trkpt>
      <trkpt lat="44.52403" lon="0.63207">
        <ele>142.9</ele>
        <time>2017-01-29T10:47:51.000Z</time>
      </trkpt>
      <trkpt lat="44.52404" lon="0.63206">
        <ele>143.1</ele>
        <time>2017-01-29T10:47:52.000Z</time>
      </trkpt>
      <trkpt lat="44.52406" lon="0.63205">
        <ele>143.3</ele>
        <time>2017-01-29T10:47:53.000Z</time>
      </trkpt>
      <trkpt lat="44.52407" lon="0.63203">
        <ele>143.5</ele>
        <time>2017-01-29T10:47:54.000Z</time>
      </trkpt>
      <trkpt lat="44.52408" lon="0.63202">
        <ele>143.7</ele>
        <time>2017-01-29T10:47:55.000Z</time>
      </trkpt>
      <trkpt lat="44.52409" lon="0.63201">
        <ele>143.8</ele>
        <time>2017-01-29T10:47:56.000Z</time>
      </trkpt>
      <trkpt lat="44.5241" lon="0.632">
        <ele>144</ele>
        <time>2017-01-29T10:47:57.000Z</time>
      </trkpt>
      <trkpt lat="44.52411" lon="0.63198">
        <ele>144.2</ele>
        <time>2017-01-29T10:47:58.000Z</time>
      </trkpt>
      <trkpt lat="44.52412" lon="0.63197">
        <ele>144.4</ele>
        <time>2017-01-29T10:47:59.000Z</time>
      </trkpt>
      <trkpt lat="44.52414" lon="0.63196">
        <ele>144.6</ele>
        <time>2017-01-29T10:48:00.000Z</time>
      </trkpt>
      <trkpt lat="44.52415" lon="0.63195">
        <ele>144.8</ele>
        <time>2017-01-29T10:48:01.000Z</time>
      </trkpt>
      <trkpt lat="44.52416" lon="0.63194">
        <ele>145</ele>
        <time>2017-01-29T10:48:02.000Z</time>
      </trkpt>
      <trkpt lat="44.52417" lon="0.63192">
        <ele>145.2</ele>
        <time>2017-01-29T10:48:03.000Z</time>
      </trkpt>
      <trkpt lat="44.52418" lon="0.63191">
        <ele>145.4</ele>
        <time>2017-01-29T10:48:04.000Z</time>
      </trkpt>
      <trkpt lat="44.52419" lon="0.6319">
        <ele>145.7</ele>
        <time>2017-01-29T10:48:05.000Z</time>
      </trkpt>
      <trkpt lat="44.5242" lon="0.63189">
        <ele>146</ele>
        <time>2017-01-29T10:48:06.000Z</time>
      </trkpt>
      <trkpt lat="44.52421" lon="0.63188">
        <ele>146.2</ele>
        <time>2017-01-29T10:48:07.000Z</time>
      </trkpt>
      <trkpt lat="44.52422" lon="0.63186">
        <ele>146.5</ele>
        <time>2017-01-29T10:48:08.000Z</time>
      </trkpt>
      <trkpt lat="44.52423" lon="0.63185">
        <ele>146.7</ele>
        <time>2017-01-29T10:48:09.000Z</time>
      </trkpt>
      <trkpt lat="44.52424" lon="0.63184">
        <ele>147</ele>
        <time>2017-01-29T10:48:10.000Z</time>
      </trkpt>
      <trkpt lat="44.52425" lon="0.63183">
        <ele>147.3</ele>
        <time>2017-01-29T10:48:11.000Z</time>
      </trkpt>
      <trkpt lat="44.52426" lon="0.63182">
        <ele>147.5</ele>
        <time>2017-01-29T10:48:12.000Z</time>
      </trkpt>
      <trkpt lat="44.52427" lon="0.6318">
        <ele>147.7</ele>
        <time>2017-01-29T10:48:13.000Z</time>
      </trkpt>
      <trkpt lat="44.52428" lon="0.63179">
        <ele>148</ele>
        <time>2017-01-29T10:48:14.000Z</time>
      </trkpt>
      <trkpt lat="44.52429" lon="0.63178">
        <ele>148.3</ele>
        <time>2017-01-29T10:48:15.000Z</time>
      </trkpt>
      <trkpt lat="44.5243" lon="0.63177">
        <ele>148.5</ele>
        <time>2017-01-29T10:48:16.000Z</time>
      </trkpt>
      <trkpt lat="44.52431" lon="0.63175">
        <ele>148.8</ele>
        <time>2017-01-29T10:48:17.000Z</time>
      </trkpt>
      <trkpt lat="44.52432" lon="0.63174">
        <ele>149</ele>
        <time>2017-01-29T10:48:18.000Z</time>
      </trkpt>
      <trkpt lat="44.52433" lon="0.63173">
        <ele>149.2</ele>
        <time>2017-01-29T10:48:19.000Z</time>
      </trkpt>
      <trkpt lat="44.52435" lon="0.63172">
        <ele>149.5</ele>
        <time>2017-01-29T10:48:20.000Z</time>
      </trkpt>
      <trkpt lat="44.52436" lon="0.63171">
        <ele>149.7</ele>
        <time>2017-01-29T10:48:21.000Z</time>
      </trkpt>
      <trkpt lat="44.52436" lon="0.6317">
        <ele>149.9</ele>
        <time>2017-01-29T10:48:22.000Z</time>
      </trkpt>
      <trkpt lat="44.52437" lon="0.63169">
        <ele>150</ele>
        <time>2017-01-29T10:48:23.000Z</time>
      </trkpt>
      <trkpt lat="44.52437" lon="0.63168">
        <ele>150.1</ele>
        <time>2017-01-29T10:48:24.000Z</time>
      </trkpt>
      <trkpt lat="44.52438" lon="0.63168">
        <ele>150.2</ele>
        <time>2017-01-29T10:48:25.000Z</time>
      </trkpt>
      <trkpt lat="44.52438" lon="0.63167">
        <ele>150.4</ele>
        <time>2017-01-29T10:48:26.000Z</time>
      </trkpt>
      <trkpt lat="44.52439" lon="0.63166">
        <ele>150.6</ele>
        <time>2017-01-29T10:48:27.000Z</time>
      </trkpt>
      <trkpt lat="44.5244" lon="0.63164">
        <ele>150.8</ele>
        <time>2017-01-29T10:48:28.000Z</time>
      </trkpt>
      <trkpt lat="44.52441" lon="0.63163">
        <ele>151</ele>
        <time>2017-01-29T10:48:29.000Z</time>
      </trkpt>
      <trkpt lat="44.52442" lon="0.63163">
        <ele>151.2</ele>
        <time>2017-01-29T10:48:30.000Z</time>
      </trkpt>
      <trkpt lat="44.52443" lon="0.63162">
        <ele>151.5</ele>
        <time>2017-01-29T10:48:31.000Z</time>
      </trkpt>
      <trkpt lat="44.52444" lon="0.63161">
        <ele>151.7</ele>
        <time>2017-01-29T10:48:32.000Z</time>
      </trkpt>
      <trkpt lat="44.52445" lon="0.6316">
        <ele>151.9</ele>
        <time>2017-01-29T10:48:33.000Z</time>
      </trkpt>
      <trkpt lat="44.52446" lon="0.63159">
        <ele>152.1</ele>
        <time>2017-01-29T10:48:34.000Z</time>
      </trkpt>
      <trkpt lat="44.52447" lon="0.63158">
        <ele>152.3</ele>
        <time>2017-01-29T10:48:35.000Z</time>
      </trkpt>
      <trkpt lat="44.52448" lon="0.63157">
        <ele>152.5</ele>
        <time>2017-01-29T10:48:36.000Z</time>
      </trkpt>
      <trkpt lat="44.52449" lon="0.63157">
        <ele>152.7</ele>
        <time>2017-01-29T10:48:37.000Z</time>
      </trkpt>
      <trkpt lat="44.5245" lon="0.63156">
        <ele>153</ele>
        <time>2017-01-29T10:48:38.000Z</time>
      </trkpt>
      <trkpt lat="44.52451" lon="0.63155">
        <ele>153.2</ele>
        <time>2017-01-29T10:48:39.000Z</time>
      </trkpt>
      <trkpt lat="44.52452" lon="0.63154">
        <ele>153.4</ele>
        <time>2017-01-29T10:48:40.000Z</time>
      </trkpt>
      <trkpt lat="44.52453" lon="0.63153">
        <ele>153.6</ele>
        <time>2017-01-29T10:48:41.000Z</time>
      </trkpt>
      <trkpt lat="44.52454" lon="0.63152">
        <ele>153.8</ele>
        <time>2017-01-29T10:48:42.000Z</time>
      </trkpt>
      <trkpt lat="44.52455" lon="0.63151">
        <ele>154.1</ele>
        <time>2017-01-29T10:48:43.000Z</time>
      </trkpt>
      <trkpt lat="44.52457" lon="0.6315">
        <ele>154.3</ele>
        <time>2017-01-29T10:48:44.000Z</time>
      </trkpt>
      <trkpt lat="44.52458" lon="0.63149">
        <ele>154.5</ele>
        <time>2017-01-29T10:48:45.000Z</time>
      </trkpt>
      <trkpt lat="44.52459" lon="0.63148">
        <ele>154.7</ele>
        <time>2017-01-29T10:48:46.000Z</time>
      </trkpt>
      <trkpt lat="44.5246" lon="0.63147">
        <ele>155</ele>
        <time>2017-01-29T10:48:47.000Z</time>
      </trkpt>
      <trkpt lat="44.52461" lon="0.63146">
        <ele>155.2</ele>
        <time>2017-01-29T10:48:48.000Z</time>
      </trkpt>
      <trkpt lat="44.52462" lon="0.63145">
        <ele>155.4</ele>
        <time>2017-01-29T10:48:49.000Z</time>
      </trkpt>
      <trkpt lat="44.52463" lon="0.63144">
        <ele>155.6</ele>
        <time>2017-01-29T10:48:50.000Z</time>
      </trkpt>
      <trkpt lat="44.52464" lon="0.63143">
        <ele>155.9</ele>
        <time>2017-01-29T10:48:51.000Z</time>
      </trkpt>
      <trkpt lat="44.52465" lon="0.63142">
        <ele>156.1</ele>
        <time>2017-01-29T10:48:52.000Z</time>
      </trkpt>
      <trkpt lat="44.52466" lon="0.63142">
        <ele>156.3</ele>
        <time>2017-01-29T10:48:53.000Z</time>
      </trkpt>
      <trkpt lat="44.52466" lon="0.63141">
        <ele>156.5</ele>
        <time>2017-01-29T10:48:54.000Z</time>
      </trkpt>
      <trkpt lat="44.52467" lon="0.6314">
        <ele>156.7</ele>
        <time>2017-01-29T10:48:55.000Z</time>
      </trkpt>
      <trkpt lat="44.52468" lon="0.63139">
        <ele>157</ele>
        <time>2017-01-29T10:48:56.000Z</time>
      </trkpt>
      <trkpt lat="44.52469" lon="0.63138">
        <ele>157.2</ele>
        <time>2017-01-29T10:48:57.000Z</time>
      </trkpt>
      <trkpt lat="44.5247" lon="0.63137">
        <ele>157.4</ele>
        <time>2017-01-29T10:48:58.000Z</time>
      </trkpt>
      <trkpt lat="44.52471" lon="0.63136">
        <ele>157.6</ele>
        <time>2017-01-29T10:48:59.000Z</time>
      </trkpt>
      <trkpt lat="44.52472" lon="0.63135">
        <ele>157.8</ele>
        <time>2017-01-29T10:49:00.000Z</time>
      </trkpt>
      <trkpt lat="44.52473" lon="0.63134">
        <ele>158</ele>
        <time>2017-01-29T10:49:01.000Z</time>
      </trkpt>
      <trkpt lat="44.52474" lon="0.63133">
        <ele>158.2</ele>
        <time>2017-01-29T10:49:02.000Z</time>
      </trkpt>
      <trkpt lat="44.52475" lon="0.63133">
        <ele>158.5</ele>
        <time>2017-01-29T10:49:03.000Z</time>
      </trkpt>
      <trkpt lat="44.52476" lon="0.63132">
        <ele>158.7</ele>
        <time>2017-01-29T10:49:04.000Z</time>
      </trkpt>
      <trkpt lat="44.52477" lon="0.63131">
        <ele>158.9</ele>
        <time>2017-01-29T10:49:05.000Z</time>
      </trkpt>
      <trkpt lat="44.52478" lon="0.6313">
        <ele>159.1</ele>
        <time>2017-01-29T10:49:06.000Z</time>
      </trkpt>
      <trkpt lat="44.52479" lon="0.6313">
        <ele>159.3</ele>
        <time>2017-01-29T10:49:07.000Z</time>
      </trkpt>
      <trkpt lat="44.5248" lon="0.63129">
        <ele>159.5</ele>
        <time>2017-01-29T10:49:08.000Z</time>
      </trkpt>
      <trkpt lat="44.52481" lon="0.63128">
        <ele>159.8</ele>
        <time>2017-01-29T10:49:09.000Z</time>
      </trkpt>
      <trkpt lat="44.52482" lon="0.63128">
        <ele>159.9</ele>
        <time>2017-01-29T10:49:10.000Z</time>
      </trkpt>
      <trkpt lat="44.52483" lon="0.63128">
        <ele>160.1</ele>
        <time>2017-01-29T10:49:11.000Z</time>
      </trkpt>
      <trkpt lat="44.52484" lon="0.63127">
        <ele>160.2</ele>
        <time>2017-01-29T10:49:12.000Z</time>
      </trkpt>
      <trkpt lat="44.52484" lon="0.63127">
        <ele>160.3</ele>
        <time>2017-01-29T10:49:13.000Z</time>
      </trkpt>
      <trkpt lat="44.52484" lon="0.63127">
        <ele>160.3</ele>
        <time>2017-01-29T10:49:14.000Z</time>
      </trkpt>
      <trkpt lat="44.52485" lon="0.63127">
        <ele>160.4</ele>
        <time>2017-01-29T10:49:15.000Z</time>
      </trkpt>
      <trkpt lat="44.52486" lon="0.63126">
        <ele>160.6</ele>
        <time>2017-01-29T10:49:16.000Z</time>
      </trkpt>
      <trkpt lat="44.52487" lon="0.63126">
        <ele>160.7</ele>
        <time>2017-01-29T10:49:17.000Z</time>
      </trkpt>
      <trkpt lat="44.52488" lon="0.63126">
        <ele>160.9</ele>
        <time>2017-01-29T10:49:18.000Z</time>
      </trkpt>
      <trkpt lat="44.52488" lon="0.63126">
        <ele>161</ele>
        <time>2017-01-29T10:49:19.000Z</time>
      </trkpt>
      <trkpt lat="44.5249" lon="0.63126">
        <ele>161.3</ele>
        <time>2017-01-29T10:49:20.000Z</time>
      </trkpt>
      <trkpt lat="44.52491" lon="0.63125">
        <ele>161.5</ele>
        <time>2017-01-29T10:49:21.000Z</time>
      </trkpt>
      <trkpt lat="44.52492" lon="0.63125">
        <ele>161.7</ele>
        <time>2017-01-29T10:49:22.000Z</time>
      </trkpt>
      <trkpt lat="44.52493" lon="0.63125">
        <ele>161.8</ele>
        <time>2017-01-29T10:49:23.000Z</time>
      </trkpt>
      <trkpt lat="44.52494" lon="0.63125">
        <ele>161.9</ele>
        <time>2017-01-29T10:49:24.000Z</time>
      </trkpt>
      <trkpt lat="44.52494" lon="0.63126">
        <ele>162</ele>
        <time>2017-01-29T10:49:25.000Z</time>
      </trkpt>
      <trkpt lat="44.52495" lon="0.63126">
        <ele>162.1</ele>
        <time>2017-01-29T10:49:26.000Z</time>
      </trkpt>
      <trkpt lat="44.52495" lon="0.63126">
        <ele>162.2</ele>
        <time>2017-01-29T10:49:27.000Z</time>
      </trkpt>
      <trkpt lat="44.52496" lon="0.63126">
        <ele>162.3</ele>
        <time>2017-01-29T10:49:28.000Z</time>
      </trkpt>
      <trkpt lat="44.52496" lon="0.63126">
        <ele>162.4</ele>
        <time>2017-01-29T10:49:29.000Z</time>
      </trkpt>
      <trkpt lat="44.52497" lon="0.63126">
        <ele>162.5</ele>
        <time>2017-01-29T10:49:30.000Z</time>
      </trkpt>
      <trkpt lat="44.52498" lon="0.63126">
        <ele>162.6</ele>
        <time>2017-01-29T10:49:31.000Z</time>
      </trkpt>
      <trkpt lat="44.52499" lon="0.63126">
        <ele>162.8</ele>
        <time>2017-01-29T10:49:32.000Z</time>
      </trkpt>
      <trkpt lat="44.52501" lon="0.63126">
        <ele>163.1</ele>
        <time>2017-01-29T10:49:33.000Z</time>
      </trkpt>
      <trkpt lat="44.52503" lon="0.63127">
        <ele>163.4</ele>
        <time>2017-01-29T10:49:34.000Z</time>
      </trkpt>
      <trkpt lat="44.52504" lon="0.63127">
        <ele>163.6</ele>
        <time>2017-01-29T10:49:35.000Z</time>
      </trkpt>
      <trkpt lat="44.52505" lon="0.63127">
        <ele>163.8</ele>
        <time>2017-01-29T10:49:36.000Z</time>
      </trkpt>
      <trkpt lat="44.52505" lon="0.63127">
        <ele>163.9</ele>
        <time>2017-01-29T10:49:37.000Z</time>
      </trkpt>
      <trkpt lat="44.52506" lon="0.63127">
        <ele>164</ele>
        <time>2017-01-29T10:49:38.000Z</time>
      </trkpt>
      <trkpt lat="44.52506" lon="0.63128">
        <ele>164</ele>
        <time>2017-01-29T10:49:39.000Z</time>
      </trkpt>
      <trkpt lat="44.52507" lon="0.63128">
        <ele>164.1</ele>
        <time>2017-01-29T10:49:40.000Z</time>
      </trkpt>
      <trkpt lat="44.52507" lon="0.63128">
        <ele>164.2</ele>
        <time>2017-01-29T10:49:41.000Z</time>
      </trkpt>
      <trkpt lat="44.52509" lon="0.63128">
        <ele>164.5</ele>
        <time>2017-01-29T10:49:42.000Z</time>
      </trkpt>
      <trkpt lat="44.52511" lon="0.63129">
        <ele>164.9</ele>
        <time>2017-01-29T10:49:43.000Z</time>
      </trkpt>
      <trkpt lat="44.52513" lon="0.63129">
        <ele>165.3</ele>
        <time>2017-01-29T10:49:44.000Z</time>
      </trkpt>
      <trkpt lat="44.52515" lon="0.63129">
        <ele>165.6</ele>
        <time>2017-01-29T10:49:45.000Z</time>
      </trkpt>
      <trkpt lat="44.52516" lon="0.6313">
        <ele>165.8</ele>
        <time>2017-01-29T10:49:46.000Z</time>
      </trkpt>
      <trkpt lat="44.52517" lon="0.6313">
        <ele>166</ele>
        <time>2017-01-29T10:49:47.000Z</time>
      </trkpt>
      <trkpt lat="44.52518" lon="0.6313">
        <ele>166.3</ele>
        <time>2017-01-29T10:49:48.000Z</time>
      </trkpt>
      <trkpt lat="44.5252" lon="0.6313">
        <ele>166.5</ele>
        <time>2017-01-29T10:49:49.000Z</time>
      </trkpt>
      <trkpt lat="44.52521" lon="0.6313">
        <ele>166.7</ele>
        <time>2017-01-29T10:49:50.000Z</time>
      </trkpt>
      <trkpt lat="44.52522" lon="0.63131">
        <ele>166.9</ele>
        <time>2017-01-29T10:49:51.000Z</time>
      </trkpt>
      <trkpt lat="44.52523" lon="0.63131">
        <ele>167.1</ele>
        <time>2017-01-29T10:49:52.000Z</time>
      </trkpt>
      <trkpt lat="44.52524" lon="0.63131">
        <ele>167.3</ele>
        <time>2017-01-29T10:49:53.000Z</time>
      </trkpt>
      <trkpt lat="44.52525" lon="0.63132">
        <ele>167.4</ele>
        <time>2017-01-29T10:49:54.000Z</time>
      </trkpt>
      <trkpt lat="44.52526" lon="0.63132">
        <ele>167.6</ele>
        <time>2017-01-29T10:49:55.000Z</time>
      </trkpt>
      <trkpt lat="44.52527" lon="0.63132">
        <ele>167.7</ele>
        <time>2017-01-29T10:49:56.000Z</time>
      </trkpt>
      <trkpt lat="44.52527" lon="0.63132">
        <ele>167.8</ele>
        <time>2017-01-29T10:49:57.000Z</time>
      </trkpt>
      <trkpt lat="44.52527" lon="0.63132">
        <ele>167.8</ele>
        <time>2017-01-29T10:49:58.000Z</time>
      </trkpt>
      <trkpt lat="44.52528" lon="0.63132">
        <ele>167.9</ele>
        <time>2017-01-29T10:49:59.000Z</time>
      </trkpt>
      <trkpt lat="44.52528" lon="0.63132">
        <ele>167.9</ele>
        <time>2017-01-29T10:50:00.000Z</time>
      </trkpt>
      <trkpt lat="44.52528" lon="0.63133">
        <ele>168</ele>
        <time>2017-01-29T10:50:01.000Z</time>
      </trkpt>
      <trkpt lat="44.52529" lon="0.63133">
        <ele>168</ele>
        <time>2017-01-29T10:50:02.000Z</time>
      </trkpt>
      <trkpt lat="44.52529" lon="0.63133">
        <ele>168.1</ele>
        <time>2017-01-29T10:50:03.000Z</time>
      </trkpt>
      <trkpt lat="44.52529" lon="0.63133">
        <ele>168.1</ele>
        <time>2017-01-29T10:50:04.000Z</time>
      </trkpt>
      <trkpt lat="44.5253" lon="0.63133">
        <ele>168.2</ele>
        <time>2017-01-29T10:50:05.000Z</time>
      </trkpt>
      <trkpt lat="44.5253" lon="0.63133">
        <ele>168.2</ele>
        <time>2017-01-29T10:50:06.000Z</time>
      </trkpt>
      <trkpt lat="44.5253" lon="0.63133">
        <ele>168.3</ele>
        <time>2017-01-29T10:50:07.000Z</time>
      </trkpt>
      <trkpt lat="44.52532" lon="0.63133">
        <ele>168.5</ele>
        <time>2017-01-29T10:50:08.000Z</time>
      </trkpt>
      <trkpt lat="44.52533" lon="0.63133">
        <ele>168.7</ele>
        <time>2017-01-29T10:50:09.000Z</time>
      </trkpt>
      <trkpt lat="44.52533" lon="0.63134">
        <ele>168.9</ele>
        <time>2017-01-29T10:50:10.000Z</time>
      </trkpt>
      <trkpt lat="44.52534" lon="0.63134">
        <ele>169</ele>
        <time>2017-01-29T10:50:11.000Z</time>
      </trkpt>
      <trkpt lat="44.52535" lon="0.63134">
        <ele>169.1</ele>
        <time>2017-01-29T10:50:12.000Z</time>
      </trkpt>
      <trkpt lat="44.52535" lon="0.63134">
        <ele>169.2</ele>
        <time>2017-01-29T10:50:13.000Z</time>
      </trkpt>
      <trkpt lat="44.52535" lon="0.63134">
        <ele>169.2</ele>
        <time>2017-01-29T10:50:14.000Z</time>
      </trkpt>
      <trkpt lat="44.52536" lon="0.63134">
        <ele>169.3</ele>
        <time>2017-01-29T10:50:15.000Z</time>
      </trkpt>
      <trkpt lat="44.52536" lon="0.63134">
        <ele>169.4</ele>
        <time>2017-01-29T10:50:16.000Z</time>
      </trkpt>
      <trkpt lat="44.52536" lon="0.63134">
        <ele>169.4</ele>
        <time>2017-01-29T10:50:17.000Z</time>
      </trkpt>
      <trkpt lat="44.52537" lon="0.63134">
        <ele>169.5</ele>
        <time>2017-01-29T10:50:18.000Z</time>
      </trkpt>
      <trkpt lat="44.52537" lon="0.63134">
        <ele>169.5</ele>
        <time>2017-01-29T10:50:19.000Z</time>
      </trkpt>
      <trkpt lat="44.52537" lon="0.63134">
        <ele>169.6</ele>
        <time>2017-01-29T10:50:20.000Z</time>
      </trkpt>
      <trkpt lat="44.52537" lon="0.63134">
        <ele>169.6</ele>
        <time>2017-01-29T10:50:21.000Z</time>
      </trkpt>
      <trkpt lat="44.52538" lon="0.63134">
        <ele>169.7</ele>
        <time>2017-01-29T10:50:22.000Z</time>
      </trkpt>
      <trkpt lat="44.52538" lon="0.63134">
        <ele>169.7</ele>
        <time>2017-01-29T10:50:23.000Z</time>
      </trkpt>
      <trkpt lat="44.52538" lon="0.63134">
        <ele>169.7</ele>
        <time>2017-01-29T10:50:24.000Z</time>
      </trkpt>
      <trkpt lat="44.52539" lon="0.63134">
        <ele>169.8</ele>
        <time>2017-01-29T10:50:25.000Z</time>
      </trkpt>
      <trkpt lat="44.52539" lon="0.63135">
        <ele>169.8</ele>
        <time>2017-01-29T10:50:26.000Z</time>
      </trkpt>
      <trkpt lat="44.52539" lon="0.63135">
        <ele>169.9</ele>
        <time>2017-01-29T10:50:27.000Z</time>
      </trkpt>
      <trkpt lat="44.52539" lon="0.63135">
        <ele>169.9</ele>
        <time>2017-01-29T10:50:28.000Z</time>
      </trkpt>
      <trkpt lat="44.5254" lon="0.63135">
        <ele>170</ele>
        <time>2017-01-29T10:50:29.000Z</time>
      </trkpt>
      <trkpt lat="44.5254" lon="0.63135">
        <ele>170</ele>
        <time>2017-01-29T10:50:30.000Z</time>
      </trkpt>
      <trkpt lat="44.5254" lon="0.63135">
        <ele>170.1</ele>
        <time>2017-01-29T10:50:31.000Z</time>
      </trkpt>
      <trkpt lat="44.52541" lon="0.63135">
        <ele>170.1</ele>
        <time>2017-01-29T10:50:32.000Z</time>
      </trkpt>
      <trkpt lat="44.52541" lon="0.63135">
        <ele>170.2</ele>
        <time>2017-01-29T10:50:33.000Z</time>
      </trkpt>
      <trkpt lat="44.52541" lon="0.63135">
        <ele>170.2</ele>
        <time>2017-01-29T10:50:34.000Z</time>
      </trkpt>
      <trkpt lat="44.52541" lon="0.63135">
        <ele>170.3</ele>
        <time>2017-01-29T10:50:35.000Z</time>
      </trkpt>
      <trkpt lat="44.52542" lon="0.63135">
        <ele>170.4</ele>
        <time>2017-01-29T10:50:36.000Z</time>
      </trkpt>
      <trkpt lat="44.52543" lon="0.63135">
        <ele>170.5</ele>
        <time>2017-01-29T10:50:37.000Z</time>
      </trkpt>
      <trkpt lat="44.52544" lon="0.63136">
        <ele>170.7</ele>
        <time>2017-01-29T10:50:38.000Z</time>
      </trkpt>
      <trkpt lat="44.52545" lon="0.63136">
        <ele>170.8</ele>
        <time>2017-01-29T10:50:39.000Z</time>
      </trkpt>
      <trkpt lat="44.52546" lon="0.63137">
        <ele>171</ele>
        <time>2017-01-29T10:50:40.000Z</time>
      </trkpt>
      <trkpt lat="44.52546" lon="0.63137">
        <ele>171.1</ele>
        <time>2017-01-29T10:50:41.000Z</time>
      </trkpt>
      <trkpt lat="44.52547" lon="0.63137">
        <ele>171.2</ele>
        <time>2017-01-29T10:50:42.000Z</time>
      </trkpt>
      <trkpt lat="44.52547" lon="0.63137">
        <ele>171.3</ele>
        <time>2017-01-29T10:50:43.000Z</time>
      </trkpt>
      <trkpt lat="44.52548" lon="0.63137">
        <ele>171.3</ele>
        <time>2017-01-29T10:50:44.000Z</time>
      </trkpt>
      <trkpt lat="44.52548" lon="0.63137">
        <ele>171.3</ele>
        <time>2017-01-29T10:50:45.000Z</time>
      </trkpt>
      <trkpt lat="44.52548" lon="0.63137">
        <ele>171.4</ele>
        <time>2017-01-29T10:50:46.000Z</time>
      </trkpt>
      <trkpt lat="44.52548" lon="0.63137">
        <ele>171.4</ele>
        <time>2017-01-29T10:50:47.000Z</time>
      </trkpt>
      <trkpt lat="44.52548" lon="0.63137">
        <ele>171.4</ele>
        <time>2017-01-29T10:50:48.000Z</time>
      </trkpt>
      <trkpt lat="44.52548" lon="0.63137">
        <ele>171.4</ele>
        <time>2017-01-29T10:50:49.000Z</time>
      </trkpt>
      <trkpt lat="44.52548" lon="0.63137">
        <ele>171.4</ele>
        <time>2017-01-29T10:50:50.000Z</time>
      </trkpt>
      <trkpt lat="44.52548" lon="0.63137">
        <ele>171.4</ele>
        <time>2017-01-29T10:50:51.000Z</time>
      </trkpt>
      <trkpt lat="44.52549" lon="0.63138">
        <ele>171.5</ele>
        <time>2017-01-29T10:50:52.000Z</time>
      </trkpt>
      <trkpt lat="44.52549" lon="0.63138">
        <ele>171.5</ele>
        <time>2017-01-29T10:50:53.000Z</time>
      </trkpt>
      <trkpt lat="44.52549" lon="0.63138">
        <ele>171.5</ele>
        <time>2017-01-29T10:50:54.000Z</time>
      </trkpt>
      <trkpt lat="44.52549" lon="0.63138">
        <ele>171.6</ele>
        <time>2017-01-29T10:50:55.000Z</time>
      </trkpt>
      <trkpt lat="44.52549" lon="0.63138">
        <ele>171.6</ele>
        <time>2017-01-29T10:50:56.000Z</time>
      </trkpt>
      <trkpt lat="44.52549" lon="0.63138">
        <ele>171.6</ele>
        <time>2017-01-29T10:50:57.000Z</time>
      </trkpt>
      <trkpt lat="44.52549" lon="0.63138">
        <ele>171.6</ele>
        <time>2017-01-29T10:50:58.000Z</time>
      </trkpt>
      <trkpt lat="44.5255" lon="0.63138">
        <ele>171.6</ele>
        <time>2017-01-29T10:50:59.000Z</time>
      </trkpt>
      <trkpt lat="44.5255" lon="0.63138">
        <ele>171.7</ele>
        <time>2017-01-29T10:51:00.000Z</time>
      </trkpt>
      <trkpt lat="44.5255" lon="0.63138">
        <ele>171.7</ele>
        <time>2017-01-29T10:51:01.000Z</time>
      </trkpt>
      <trkpt lat="44.52551" lon="0.63138">
        <ele>171.9</ele>
        <time>2017-01-29T10:51:02.000Z</time>
      </trkpt>
      <trkpt lat="44.52552" lon="0.63138">
        <ele>172.1</ele>
        <time>2017-01-29T10:51:03.000Z</time>
      </trkpt>
      <trkpt lat="44.52555" lon="0.63138">
        <ele>172.6</ele>
        <time>2017-01-29T10:51:04.000Z</time>
      </trkpt>
      <trkpt lat="44.52557" lon="0.63138">
        <ele>172.9</ele>
        <time>2017-01-29T10:51:05.000Z</time>
      </trkpt>
      <trkpt lat="44.52558" lon="0.63139">
        <ele>173.3</ele>
        <time>2017-01-29T10:51:06.000Z</time>
      </trkpt>
      <trkpt lat="44.5256" lon="0.63138">
        <ele>173.6</ele>
        <time>2017-01-29T10:51:07.000Z</time>
      </trkpt>
      <trkpt lat="44.52562" lon="0.63138">
        <ele>173.9</ele>
        <time>2017-01-29T10:51:08.000Z</time>
      </trkpt>
      <trkpt lat="44.52563" lon="0.63138">
        <ele>174.2</ele>
        <time>2017-01-29T10:51:09.000Z</time>
      </trkpt>
      <trkpt lat="44.52565" lon="0.63138">
        <ele>174.5</ele>
        <time>2017-01-29T10:51:10.000Z</time>
      </trkpt>
      <trkpt lat="44.52566" lon="0.63139">
        <ele>174.7</ele>
        <time>2017-01-29T10:51:11.000Z</time>
      </trkpt>
      <trkpt lat="44.52567" lon="0.63139">
        <ele>174.9</ele>
        <time>2017-01-29T10:51:12.000Z</time>
      </trkpt>
      <trkpt lat="44.52568" lon="0.63138">
        <ele>175.1</ele>
        <time>2017-01-29T10:51:13.000Z</time>
      </trkpt>
      <trkpt lat="44.52569" lon="0.63138">
        <ele>175.4</ele>
        <time>2017-01-29T10:51:14.000Z</time>
      </trkpt>
      <trkpt lat="44.5257" lon="0.63138">
        <ele>175.6</ele>
        <time>2017-01-29T10:51:15.000Z</time>
      </trkpt>
      <trkpt lat="44.52571" lon="0.63138">
        <ele>175.8</ele>
        <time>2017-01-29T10:51:16.000Z</time>
      </trkpt>
      <trkpt lat="44.52572" lon="0.63138">
        <ele>175.9</ele>
        <time>2017-01-29T10:51:17.000Z</time>
      </trkpt>
      <trkpt lat="44.52573" lon="0.63138">
        <ele>176.1</ele>
        <time>2017-01-29T10:51:18.000Z</time>
      </trkpt>
      <trkpt lat="44.52574" lon="0.63137">
        <ele>176.4</ele>
        <time>2017-01-29T10:51:19.000Z</time>
      </trkpt>
      <trkpt lat="44.52575" lon="0.63137">
        <ele>176.7</ele>
        <time>2017-01-29T10:51:20.000Z</time>
      </trkpt>
      <trkpt lat="44.52577" lon="0.63136">
        <ele>177</ele>
        <time>2017-01-29T10:51:21.000Z</time>
      </trkpt>
      <trkpt lat="44.52578" lon="0.63136">
        <ele>177.3</ele>
        <time>2017-01-29T10:51:22.000Z</time>
      </trkpt>
      <trkpt lat="44.52579" lon="0.63135">
        <ele>177.6</ele>
        <time>2017-01-29T10:51:23.000Z</time>
      </trkpt>
      <trkpt lat="44.5258" lon="0.63134">
        <ele>177.8</ele>
        <time>2017-01-29T10:51:24.000Z</time>
      </trkpt>
      <trkpt lat="44.52581" lon="0.63133">
        <ele>178.1</ele>
        <time>2017-01-29T10:51:25.000Z</time>
      </trkpt>
      <trkpt lat="44.52582" lon="0.63132">
        <ele>178.4</ele>
        <time>2017-01-29T10:51:26.000Z</time>
      </trkpt>
      <trkpt lat="44.52583" lon="0.63132">
        <ele>178.7</ele>
        <time>2017-01-29T10:51:27.000Z</time>
      </trkpt>
      <trkpt lat="44.52584" lon="0.63131">
        <ele>178.8</ele>
        <time>2017-01-29T10:51:28.000Z</time>
      </trkpt>
      <trkpt lat="44.52585" lon="0.6313">
        <ele>178.7</ele>
        <time>2017-01-29T10:51:29.000Z</time>
      </trkpt>
      <trkpt lat="44.52586" lon="0.63129">
        <ele>178.7</ele>
        <time>2017-01-29T10:51:30.000Z</time>
      </trkpt>
      <trkpt lat="44.52587" lon="0.63128">
        <ele>178.7</ele>
        <time>2017-01-29T10:51:31.000Z</time>
      </trkpt>
      <trkpt lat="44.52588" lon="0.63127">
        <ele>178.6</ele>
        <time>2017-01-29T10:51:32.000Z</time>
      </trkpt>
      <trkpt lat="44.52589" lon="0.63127">
        <ele>178.6</ele>
        <time>2017-01-29T10:51:33.000Z</time>
      </trkpt>
      <trkpt lat="44.52589" lon="0.63126">
        <ele>178.6</ele>
        <time>2017-01-29T10:51:34.000Z</time>
      </trkpt>
      <trkpt lat="44.5259" lon="0.63126">
        <ele>178.6</ele>
        <time>2017-01-29T10:51:35.000Z</time>
      </trkpt>
      <trkpt lat="44.5259" lon="0.63125">
        <ele>178.6</ele>
        <time>2017-01-29T10:51:36.000Z</time>
      </trkpt>
      <trkpt lat="44.52591" lon="0.63125">
        <ele>178.5</ele>
        <time>2017-01-29T10:51:37.000Z</time>
      </trkpt>
      <trkpt lat="44.52591" lon="0.63124">
        <ele>178.5</ele>
        <time>2017-01-29T10:51:38.000Z</time>
      </trkpt>
      <trkpt lat="44.52592" lon="0.63123">
        <ele>178.5</ele>
        <time>2017-01-29T10:51:39.000Z</time>
      </trkpt>
      <trkpt lat="44.52593" lon="0.63122">
        <ele>178.5</ele>
        <time>2017-01-29T10:51:40.000Z</time>
      </trkpt>
      <trkpt lat="44.52594" lon="0.63121">
        <ele>178.5</ele>
        <time>2017-01-29T10:51:41.000Z</time>
      </trkpt>
      <trkpt lat="44.52595" lon="0.63119">
        <ele>178.5</ele>
        <time>2017-01-29T10:51:42.000Z</time>
      </trkpt>
      <trkpt lat="44.52596" lon="0.63118">
        <ele>178.4</ele>
        <time>2017-01-29T10:51:43.000Z</time>
      </trkpt>
      <trkpt lat="44.52597" lon="0.63117">
        <ele>178.3</ele>
        <time>2017-01-29T10:51:44.000Z</time>
      </trkpt>
      <trkpt lat="44.52598" lon="0.63116">
        <ele>178.2</ele>
        <time>2017-01-29T10:51:45.000Z</time>
      </trkpt>
      <trkpt lat="44.52599" lon="0.63115">
        <ele>178.2</ele>
        <time>2017-01-29T10:51:46.000Z</time>
      </trkpt>
      <trkpt lat="44.526" lon="0.63114">
        <ele>178.2</ele>
        <time>2017-01-29T10:51:47.000Z</time>
      </trkpt>
      <trkpt lat="44.52601" lon="0.63113">
        <ele>178.1</ele>
        <time>2017-01-29T10:51:48.000Z</time>
      </trkpt>
      <trkpt lat="44.52601" lon="0.63113">
        <ele>178.1</ele>
        <time>2017-01-29T10:51:49.000Z</time>
      </trkpt>
      <trkpt lat="44.52602" lon="0.63111">
        <ele>178.2</ele>
        <time>2017-01-29T10:51:50.000Z</time>
      </trkpt>
      <trkpt lat="44.52602" lon="0.6311">
        <ele>178.2</ele>
        <time>2017-01-29T10:51:51.000Z</time>
      </trkpt>
      <trkpt lat="44.52603" lon="0.63108">
        <ele>178.2</ele>
        <time>2017-01-29T10:51:52.000Z</time>
      </trkpt>
      <trkpt lat="44.52603" lon="0.63105">
        <ele>178.4</ele>
        <time>2017-01-29T10:51:53.000Z</time>
      </trkpt>
      <trkpt lat="44.52604" lon="0.63103">
        <ele>178.5</ele>
        <time>2017-01-29T10:51:54.000Z</time>
      </trkpt>
      <trkpt lat="44.52604" lon="0.63101">
        <ele>178.7</ele>
        <time>2017-01-29T10:51:55.000Z</time>
      </trkpt>
      <trkpt lat="44.52604" lon="0.63098">
        <ele>178.8</ele>
        <time>2017-01-29T10:51:56.000Z</time>
      </trkpt>
      <trkpt lat="44.52605" lon="0.63096">
        <ele>178.8</ele>
        <time>2017-01-29T10:51:57.000Z</time>
      </trkpt>
      <trkpt lat="44.52605" lon="0.63094">
        <ele>178.9</ele>
        <time>2017-01-29T10:51:58.000Z</time>
      </trkpt>
      <trkpt lat="44.52606" lon="0.63092">
        <ele>179</ele>
        <time>2017-01-29T10:51:59.000Z</time>
      </trkpt>
      <trkpt lat="44.52606" lon="0.63091">
        <ele>179</ele>
        <time>2017-01-29T10:52:00.000Z</time>
      </trkpt>
      <trkpt lat="44.52607" lon="0.63089">
        <ele>179.1</ele>
        <time>2017-01-29T10:52:01.000Z</time>
      </trkpt>
      <trkpt lat="44.52607" lon="0.63088">
        <ele>179.1</ele>
        <time>2017-01-29T10:52:02.000Z</time>
      </trkpt>
      <trkpt lat="44.52607" lon="0.63087">
        <ele>179.1</ele>
        <time>2017-01-29T10:52:03.000Z</time>
      </trkpt>
      <trkpt lat="44.52608" lon="0.63086">
        <ele>179.1</ele>
        <time>2017-01-29T10:52:04.000Z</time>
      </trkpt>
      <trkpt lat="44.52608" lon="0.63085">
        <ele>179.1</ele>
        <time>2017-01-29T10:52:05.000Z</time>
      </trkpt>
      <trkpt lat="44.52608" lon="0.63085">
        <ele>179.1</ele>
        <time>2017-01-29T10:52:06.000Z</time>
      </trkpt>
      <trkpt lat="44.52608" lon="0.63084">
        <ele>179.1</ele>
        <time>2017-01-29T10:52:07.000Z</time>
      </trkpt>
      <trkpt lat="44.52608" lon="0.63084">
        <ele>179.1</ele>
        <time>2017-01-29T10:52:08.000Z</time>
      </trkpt>
      <trkpt lat="44.52608" lon="0.63084">
        <ele>179.1</ele>
        <time>2017-01-29T10:52:09.000Z</time>
      </trkpt>
      <trkpt lat="44.52608" lon="0.63084">
        <ele>179.1</ele>
        <time>2017-01-29T10:52:10.000Z</time>
      </trkpt>
      <trkpt lat="44.52608" lon="0.63084">
        <ele>179.1</ele>
        <time>2017-01-29T10:52:11.000Z</time>
      </trkpt>
      <trkpt lat="44.52609" lon="0.63084">
        <ele>179.1</ele>
        <time>2017-01-29T10:52:12.000Z</time>
      </trkpt>
      <trkpt lat="44.52609" lon="0.63084">
        <ele>179.1</ele>
        <time>2017-01-29T10:52:13.000Z</time>
      </trkpt>
      <trkpt lat="44.52609" lon="0.63084">
        <ele>179.1</ele>
        <time>2017-01-29T10:52:14.000Z</time>
      </trkpt>
      <trkpt lat="44.52609" lon="0.63084">
        <ele>179.1</ele>
        <time>2017-01-29T10:52:15.000Z</time>
      </trkpt>
      <trkpt lat="44.52609" lon="0.63084">
        <ele>179.1</ele>
        <time>2017-01-29T10:52:16.000Z</time>
      </trkpt>
      <trkpt lat="44.52609" lon="0.63083">
        <ele>179.1</ele>
        <time>2017-01-29T10:52:17.000Z</time>
      </trkpt>
      <trkpt lat="44.52609" lon="0.63083">
        <ele>179.1</ele>
        <time>2017-01-29T10:52:18.000Z</time>
      </trkpt>
      <trkpt lat="44.52609" lon="0.63083">
        <ele>179.1</ele>
        <time>2017-01-29T10:52:19.000Z</time>
      </trkpt>
      <trkpt lat="44.52609" lon="0.63083">
        <ele>179.1</ele>
        <time>2017-01-29T10:52:20.000Z</time>
      </trkpt>
      <trkpt lat="44.52609" lon="0.63082">
        <ele>179.1</ele>
        <time>2017-01-29T10:52:21.000Z</time>
      </trkpt>
      <trkpt lat="44.5261" lon="0.6308">
        <ele>179.2</ele>
        <time>2017-01-29T10:52:22.000Z</time>
      </trkpt>
      <trkpt lat="44.5261" lon="0.63078">
        <ele>179.3</ele>
        <time>2017-01-29T10:52:23.000Z</time>
      </trkpt>
      <trkpt lat="44.52611" lon="0.63076">
        <ele>179.3</ele>
        <time>2017-01-29T10:52:24.000Z</time>
      </trkpt>
      <trkpt lat="44.52612" lon="0.63074">
        <ele>179.4</ele>
        <time>2017-01-29T10:52:25.000Z</time>
      </trkpt>
      <trkpt lat="44.52613" lon="0.63071">
        <ele>179.4</ele>
        <time>2017-01-29T10:52:26.000Z</time>
      </trkpt>
      <trkpt lat="44.52614" lon="0.63068">
        <ele>179.4</ele>
        <time>2017-01-29T10:52:27.000Z</time>
      </trkpt>
      <trkpt lat="44.52615" lon="0.63066">
        <ele>179.4</ele>
        <time>2017-01-29T10:52:28.000Z</time>
      </trkpt>
      <trkpt lat="44.52616" lon="0.63063">
        <ele>179.5</ele>
        <time>2017-01-29T10:52:29.000Z</time>
      </trkpt>
      <trkpt lat="44.52617" lon="0.63061">
        <ele>179.5</ele>
        <time>2017-01-29T10:52:30.000Z</time>
      </trkpt>
      <trkpt lat="44.52618" lon="0.63059">
        <ele>179.5</ele>
        <time>2017-01-29T10:52:31.000Z</time>
      </trkpt>
      <trkpt lat="44.52619" lon="0.63056">
        <ele>179.6</ele>
        <time>2017-01-29T10:52:32.000Z</time>
      </trkpt>
      <trkpt lat="44.52619" lon="0.63054">
        <ele>179.6</ele>
        <time>2017-01-29T10:52:33.000Z</time>
      </trkpt>
      <trkpt lat="44.5262" lon="0.63052">
        <ele>179.6</ele>
        <time>2017-01-29T10:52:34.000Z</time>
      </trkpt>
      <trkpt lat="44.52621" lon="0.6305">
        <ele>179.7</ele>
        <time>2017-01-29T10:52:35.000Z</time>
      </trkpt>
      <trkpt lat="44.52622" lon="0.63047">
        <ele>179.7</ele>
        <time>2017-01-29T10:52:36.000Z</time>
      </trkpt>
      <trkpt lat="44.52622" lon="0.63045">
        <ele>179.7</ele>
        <time>2017-01-29T10:52:37.000Z</time>
      </trkpt>
      <trkpt lat="44.52623" lon="0.63043">
        <ele>179.8</ele>
        <time>2017-01-29T10:52:38.000Z</time>
      </trkpt>
      <trkpt lat="44.52624" lon="0.63041">
        <ele>179.8</ele>
        <time>2017-01-29T10:52:39.000Z</time>
      </trkpt>
      <trkpt lat="44.52625" lon="0.63039">
        <ele>179.8</ele>
        <time>2017-01-29T10:52:40.000Z</time>
      </trkpt>
      <trkpt lat="44.52626" lon="0.63036">
        <ele>179.9</ele>
        <time>2017-01-29T10:52:41.000Z</time>
      </trkpt>
      <trkpt lat="44.52626" lon="0.63034">
        <ele>179.9</ele>
        <time>2017-01-29T10:52:42.000Z</time>
      </trkpt>
      <trkpt lat="44.52627" lon="0.63032">
        <ele>179.9</ele>
        <time>2017-01-29T10:52:43.000Z</time>
      </trkpt>
      <trkpt lat="44.52628" lon="0.63029">
        <ele>179.9</ele>
        <time>2017-01-29T10:52:44.000Z</time>
      </trkpt>
      <trkpt lat="44.52629" lon="0.63027">
        <ele>179.9</ele>
        <time>2017-01-29T10:52:45.000Z</time>
      </trkpt>
      <trkpt lat="44.5263" lon="0.63025">
        <ele>180</ele>
        <time>2017-01-29T10:52:46.000Z</time>
      </trkpt>
      <trkpt lat="44.5263" lon="0.63022">
        <ele>180</ele>
        <time>2017-01-29T10:52:47.000Z</time>
      </trkpt>
      <trkpt lat="44.52631" lon="0.6302">
        <ele>180</ele>
        <time>2017-01-29T10:52:48.000Z</time>
      </trkpt>
      <trkpt lat="44.52632" lon="0.63017">
        <ele>180</ele>
        <time>2017-01-29T10:52:49.000Z</time>
      </trkpt>
      <trkpt lat="44.52633" lon="0.63015">
        <ele>180.1</ele>
        <time>2017-01-29T10:52:50.000Z</time>
      </trkpt>
      <trkpt lat="44.52634" lon="0.63013">
        <ele>180.1</ele>
        <time>2017-01-29T10:52:51.000Z</time>
      </trkpt>
      <trkpt lat="44.52635" lon="0.6301">
        <ele>180.1</ele>
        <time>2017-01-29T10:52:52.000Z</time>
      </trkpt>
      <trkpt lat="44.52636" lon="0.63008">
        <ele>180.1</ele>
        <time>2017-01-29T10:52:53.000Z</time>
      </trkpt>
      <trkpt lat="44.52636" lon="0.63006">
        <ele>180.1</ele>
        <time>2017-01-29T10:52:54.000Z</time>
      </trkpt>
      <trkpt lat="44.52637" lon="0.63004">
        <ele>180.1</ele>
        <time>2017-01-29T10:52:55.000Z</time>
      </trkpt>
      <trkpt lat="44.52638" lon="0.63002">
        <ele>180.1</ele>
        <time>2017-01-29T10:52:56.000Z</time>
      </trkpt>
      <trkpt lat="44.52639" lon="0.63">
        <ele>180.1</ele>
        <time>2017-01-29T10:52:57.000Z</time>
      </trkpt>
      <trkpt lat="44.52639" lon="0.62998">
        <ele>180.2</ele>
        <time>2017-01-29T10:52:58.000Z</time>
      </trkpt>
      <trkpt lat="44.5264" lon="0.62995">
        <ele>180.4</ele>
        <time>2017-01-29T10:52:59.000Z</time>
      </trkpt>
      <trkpt lat="44.52641" lon="0.62992">
        <ele>180.6</ele>
        <time>2017-01-29T10:53:00.000Z</time>
      </trkpt>
      <trkpt lat="44.52642" lon="0.6299">
        <ele>180.7</ele>
        <time>2017-01-29T10:53:01.000Z</time>
      </trkpt>
      <trkpt lat="44.52643" lon="0.62987">
        <ele>180.9</ele>
        <time>2017-01-29T10:53:02.000Z</time>
      </trkpt>
      <trkpt lat="44.52645" lon="0.62984">
        <ele>181</ele>
        <time>2017-01-29T10:53:03.000Z</time>
      </trkpt>
      <trkpt lat="44.52646" lon="0.62982">
        <ele>181.1</ele>
        <time>2017-01-29T10:53:04.000Z</time>
      </trkpt>
      <trkpt lat="44.52647" lon="0.62979">
        <ele>181.2</ele>
        <time>2017-01-29T10:53:05.000Z</time>
      </trkpt>
      <trkpt lat="44.52648" lon="0.62977">
        <ele>181.3</ele>
        <time>2017-01-29T10:53:06.000Z</time>
      </trkpt>
      <trkpt lat="44.52649" lon="0.62975">
        <ele>181.4</ele>
        <time>2017-01-29T10:53:07.000Z</time>
      </trkpt>
      <trkpt lat="44.52651" lon="0.62972">
        <ele>181.4</ele>
        <time>2017-01-29T10:53:08.000Z</time>
      </trkpt>
      <trkpt lat="44.52652" lon="0.6297">
        <ele>181.5</ele>
        <time>2017-01-29T10:53:09.000Z</time>
      </trkpt>
      <trkpt lat="44.52653" lon="0.62968">
        <ele>181.7</ele>
        <time>2017-01-29T10:53:10.000Z</time>
      </trkpt>
      <trkpt lat="44.52654" lon="0.62965">
        <ele>181.8</ele>
        <time>2017-01-29T10:53:11.000Z</time>
      </trkpt>
      <trkpt lat="44.52655" lon="0.62962">
        <ele>182</ele>
        <time>2017-01-29T10:53:12.000Z</time>
      </trkpt>
      <trkpt lat="44.52656" lon="0.6296">
        <ele>182.2</ele>
        <time>2017-01-29T10:53:13.000Z</time>
      </trkpt>
      <trkpt lat="44.52657" lon="0.62957">
        <ele>182.4</ele>
        <time>2017-01-29T10:53:14.000Z</time>
      </trkpt>
      <trkpt lat="44.52658" lon="0.62953">
        <ele>182.5</ele>
        <time>2017-01-29T10:53:15.000Z</time>
      </trkpt>
      <trkpt lat="44.5266" lon="0.6295">
        <ele>182.7</ele>
        <time>2017-01-29T10:53:16.000Z</time>
      </trkpt>
      <trkpt lat="44.52661" lon="0.62946">
        <ele>182.9</ele>
        <time>2017-01-29T10:53:17.000Z</time>
      </trkpt>
      <trkpt lat="44.52663" lon="0.62942">
        <ele>183.1</ele>
        <time>2017-01-29T10:53:18.000Z</time>
      </trkpt>
      <trkpt lat="44.52665" lon="0.62938">
        <ele>183.4</ele>
        <time>2017-01-29T10:53:19.000Z</time>
      </trkpt>
      <trkpt lat="44.52666" lon="0.62933">
        <ele>183.7</ele>
        <time>2017-01-29T10:53:20.000Z</time>
      </trkpt>
      <trkpt lat="44.52668" lon="0.62928">
        <ele>183.9</ele>
        <time>2017-01-29T10:53:21.000Z</time>
      </trkpt>
      <trkpt lat="44.5267" lon="0.62923">
        <ele>184.1</ele>
        <time>2017-01-29T10:53:22.000Z</time>
      </trkpt>
      <trkpt lat="44.52672" lon="0.62917">
        <ele>184.3</ele>
        <time>2017-01-29T10:53:23.000Z</time>
      </trkpt>
      <trkpt lat="44.52674" lon="0.62911">
        <ele>184.5</ele>
        <time>2017-01-29T10:53:24.000Z</time>
      </trkpt>
      <trkpt lat="44.52676" lon="0.62905">
        <ele>184.8</ele>
        <time>2017-01-29T10:53:25.000Z</time>
      </trkpt>
      <trkpt lat="44.52678" lon="0.62899">
        <ele>185</ele>
        <time>2017-01-29T10:53:26.000Z</time>
      </trkpt>
      <trkpt lat="44.5268" lon="0.62893">
        <ele>185.3</ele>
        <time>2017-01-29T10:53:27.000Z</time>
      </trkpt>
      <trkpt lat="44.52682" lon="0.62886">
        <ele>185.6</ele>
        <time>2017-01-29T10:53:28.000Z</time>
      </trkpt>
      <trkpt lat="44.52684" lon="0.6288">
        <ele>185.8</ele>
        <time>2017-01-29T10:53:29.000Z</time>
      </trkpt>
      <trkpt lat="44.52686" lon="0.62874">
        <ele>186</ele>
        <time>2017-01-29T10:53:30.000Z</time>
      </trkpt>
      <trkpt lat="44.52688" lon="0.62868">
        <ele>186.2</ele>
        <time>2017-01-29T10:53:31.000Z</time>
      </trkpt>
      <trkpt lat="44.5269" lon="0.62862">
        <ele>186.4</ele>
        <time>2017-01-29T10:53:32.000Z</time>
      </trkpt>
      <trkpt lat="44.52692" lon="0.62857">
        <ele>186.5</ele>
        <time>2017-01-29T10:53:33.000Z</time>
      </trkpt>
      <trkpt lat="44.52694" lon="0.62852">
        <ele>186.3</ele>
        <time>2017-01-29T10:53:34.000Z</time>
      </trkpt>
      <trkpt lat="44.52698" lon="0.62849">
        <ele>185.6</ele>
        <time>2017-01-29T10:53:35.000Z</time>
      </trkpt>
      <trkpt lat="44.52702" lon="0.62848">
        <ele>184.3</ele>
        <time>2017-01-29T10:53:36.000Z</time>
      </trkpt>
      <trkpt lat="44.52708" lon="0.62848">
        <ele>182.5</ele>
        <time>2017-01-29T10:53:37.000Z</time>
      </trkpt>
      <trkpt lat="44.52714" lon="0.62851">
        <ele>180.1</ele>
        <time>2017-01-29T10:53:38.000Z</time>
      </trkpt>
      <trkpt lat="44.5272" lon="0.62856">
        <ele>177.4</ele>
        <time>2017-01-29T10:53:39.000Z</time>
      </trkpt>
      <trkpt lat="44.52728" lon="0.62863">
        <ele>174.3</ele>
        <time>2017-01-29T10:53:40.000Z</time>
      </trkpt>
      <trkpt lat="44.52735" lon="0.62871">
        <ele>171</ele>
        <time>2017-01-29T10:53:41.000Z</time>
      </trkpt>
      <trkpt lat="44.52744" lon="0.6288">
        <ele>167.5</ele>
        <time>2017-01-29T10:53:42.000Z</time>
      </trkpt>
      <trkpt lat="44.52753" lon="0.6289">
        <ele>164.3</ele>
        <time>2017-01-29T10:53:43.000Z</time>
      </trkpt>
      <trkpt lat="44.52762" lon="0.62899">
        <ele>162.5</ele>
        <time>2017-01-29T10:53:44.000Z</time>
      </trkpt>
      <trkpt lat="44.52772" lon="0.62909">
        <ele>160.8</ele>
        <time>2017-01-29T10:53:45.000Z</time>
      </trkpt>
      <trkpt lat="44.52782" lon="0.62918">
        <ele>159.2</ele>
        <time>2017-01-29T10:53:46.000Z</time>
      </trkpt>
      <trkpt lat="44.52792" lon="0.62928">
        <ele>157.9</ele>
        <time>2017-01-29T10:53:47.000Z</time>
      </trkpt>
      <trkpt lat="44.52801" lon="0.62938">
        <ele>156.6</ele>
        <time>2017-01-29T10:53:48.000Z</time>
      </trkpt>
      <trkpt lat="44.52809" lon="0.62948">
        <ele>155.4</ele>
        <time>2017-01-29T10:53:49.000Z</time>
      </trkpt>
      <trkpt lat="44.52817" lon="0.62957">
        <ele>154.4</ele>
        <time>2017-01-29T10:53:50.000Z</time>
      </trkpt>
      <trkpt lat="44.52824" lon="0.62962">
        <ele>153.5</ele>
        <time>2017-01-29T10:53:51.000Z</time>
      </trkpt>
      <trkpt lat="44.5283" lon="0.62961">
        <ele>153.1</ele>
        <time>2017-01-29T10:53:52.000Z</time>
      </trkpt>
      <trkpt lat="44.52836" lon="0.62958">
        <ele>152.9</ele>
        <time>2017-01-29T10:53:53.000Z</time>
      </trkpt>
      <trkpt lat="44.52841" lon="0.62954">
        <ele>152.8</ele>
        <time>2017-01-29T10:53:54.000Z</time>
      </trkpt>
      <trkpt lat="44.52847" lon="0.62952">
        <ele>152.6</ele>
        <time>2017-01-29T10:53:55.000Z</time>
      </trkpt>
      <trkpt lat="44.52853" lon="0.62949">
        <ele>152.4</ele>
        <time>2017-01-29T10:53:56.000Z</time>
      </trkpt>
      <trkpt lat="44.52859" lon="0.62946">
        <ele>152.3</ele>
        <time>2017-01-29T10:53:57.000Z</time>
      </trkpt>
      <trkpt lat="44.52864" lon="0.62944">
        <ele>152.1</ele>
        <time>2017-01-29T10:53:58.000Z</time>
      </trkpt>
      <trkpt lat="44.5287" lon="0.62943">
        <ele>151.9</ele>
        <time>2017-01-29T10:53:59.000Z</time>
      </trkpt>
      <trkpt lat="44.52875" lon="0.62943">
        <ele>151.6</ele>
        <time>2017-01-29T10:54:00.000Z</time>
      </trkpt>
      <trkpt lat="44.5288" lon="0.62946">
        <ele>151.2</ele>
        <time>2017-01-29T10:54:01.000Z</time>
      </trkpt>
      <trkpt lat="44.52885" lon="0.62949">
        <ele>150.7</ele>
        <time>2017-01-29T10:54:02.000Z</time>
      </trkpt>
      <trkpt lat="44.5289" lon="0.62955">
        <ele>150.2</ele>
        <time>2017-01-29T10:54:03.000Z</time>
      </trkpt>
      <trkpt lat="44.52895" lon="0.62961">
        <ele>149.6</ele>
        <time>2017-01-29T10:54:04.000Z</time>
      </trkpt>
      <trkpt lat="44.529" lon="0.62967">
        <ele>148.9</ele>
        <time>2017-01-29T10:54:05.000Z</time>
      </trkpt>
      <trkpt lat="44.52905" lon="0.62973">
        <ele>148.3</ele>
        <time>2017-01-29T10:54:06.000Z</time>
      </trkpt>
      <trkpt lat="44.5291" lon="0.62979">
        <ele>147.7</ele>
        <time>2017-01-29T10:54:07.000Z</time>
      </trkpt>
      <trkpt lat="44.52915" lon="0.62985">
        <ele>147</ele>
        <time>2017-01-29T10:54:08.000Z</time>
      </trkpt>
      <trkpt lat="44.5292" lon="0.6299">
        <ele>146.5</ele>
        <time>2017-01-29T10:54:09.000Z</time>
      </trkpt>
      <trkpt lat="44.52925" lon="0.62996">
        <ele>146.1</ele>
        <time>2017-01-29T10:54:10.000Z</time>
      </trkpt>
      <trkpt lat="44.52931" lon="0.63002">
        <ele>145.8</ele>
        <time>2017-01-29T10:54:11.000Z</time>
      </trkpt>
      <trkpt lat="44.52936" lon="0.63008">
        <ele>145.5</ele>
        <time>2017-01-29T10:54:12.000Z</time>
      </trkpt>
      <trkpt lat="44.52941" lon="0.63011">
        <ele>145.4</ele>
        <time>2017-01-29T10:54:13.000Z</time>
      </trkpt>
      <trkpt lat="44.52946" lon="0.63012">
        <ele>145.3</ele>
        <time>2017-01-29T10:54:14.000Z</time>
      </trkpt>
      <trkpt lat="44.52951" lon="0.6301">
        <ele>145.3</ele>
        <time>2017-01-29T10:54:15.000Z</time>
      </trkpt>
      <trkpt lat="44.52956" lon="0.63006">
        <ele>145.3</ele>
        <time>2017-01-29T10:54:16.000Z</time>
      </trkpt>
      <trkpt lat="44.5296" lon="0.63002">
        <ele>145.4</ele>
        <time>2017-01-29T10:54:17.000Z</time>
      </trkpt>
      <trkpt lat="44.52964" lon="0.62998">
        <ele>145.6</ele>
        <time>2017-01-29T10:54:18.000Z</time>
      </trkpt>
      <trkpt lat="44.52968" lon="0.62994">
        <ele>145.9</ele>
        <time>2017-01-29T10:54:19.000Z</time>
      </trkpt>
      <trkpt lat="44.52972" lon="0.6299">
        <ele>146.1</ele>
        <time>2017-01-29T10:54:20.000Z</time>
      </trkpt>
      <trkpt lat="44.52976" lon="0.62987">
        <ele>146.3</ele>
        <time>2017-01-29T10:54:21.000Z</time>
      </trkpt>
      <trkpt lat="44.5298" lon="0.62984">
        <ele>146.5</ele>
        <time>2017-01-29T10:54:22.000Z</time>
      </trkpt>
      <trkpt lat="44.52984" lon="0.62981">
        <ele>146.7</ele>
        <time>2017-01-29T10:54:23.000Z</time>
      </trkpt>
      <trkpt lat="44.52988" lon="0.62978">
        <ele>147</ele>
        <time>2017-01-29T10:54:24.000Z</time>
      </trkpt>
      <trkpt lat="44.52991" lon="0.62974">
        <ele>147.2</ele>
        <time>2017-01-29T10:54:25.000Z</time>
      </trkpt>
      <trkpt lat="44.52995" lon="0.62971">
        <ele>147.4</ele>
        <time>2017-01-29T10:54:26.000Z</time>
      </trkpt>
      <trkpt lat="44.52999" lon="0.62968">
        <ele>147.7</ele>
        <time>2017-01-29T10:54:27.000Z</time>
      </trkpt>
      <trkpt lat="44.53002" lon="0.62965">
        <ele>148.1</ele>
        <time>2017-01-29T10:54:28.000Z</time>
      </trkpt>
      <trkpt lat="44.53005" lon="0.62961">
        <ele>148.5</ele>
        <time>2017-01-29T10:54:29.000Z</time>
      </trkpt>
      <trkpt lat="44.53009" lon="0.62958">
        <ele>148.9</ele>
        <time>2017-01-29T10:54:30.000Z</time>
      </trkpt>
      <trkpt lat="44.53012" lon="0.62955">
        <ele>149.3</ele>
        <time>2017-01-29T10:54:31.000Z</time>
      </trkpt>
      <trkpt lat="44.53015" lon="0.62951">
        <ele>149.7</ele>
        <time>2017-01-29T10:54:32.000Z</time>
      </trkpt>
      <trkpt lat="44.53018" lon="0.62948">
        <ele>150</ele>
        <time>2017-01-29T10:54:33.000Z</time>
      </trkpt>
      <trkpt lat="44.53021" lon="0.62945">
        <ele>150.4</ele>
        <time>2017-01-29T10:54:34.000Z</time>
      </trkpt>
      <trkpt lat="44.53023" lon="0.62942">
        <ele>150.7</ele>
        <time>2017-01-29T10:54:35.000Z</time>
      </trkpt>
      <trkpt lat="44.53026" lon="0.62939">
        <ele>151</ele>
        <time>2017-01-29T10:54:36.000Z</time>
      </trkpt>
      <trkpt lat="44.53028" lon="0.62936">
        <ele>151.3</ele>
        <time>2017-01-29T10:54:37.000Z</time>
      </trkpt>
      <trkpt lat="44.53031" lon="0.62933">
        <ele>151.6</ele>
        <time>2017-01-29T10:54:38.000Z</time>
      </trkpt>
      <trkpt lat="44.53033" lon="0.6293">
        <ele>151.9</ele>
        <time>2017-01-29T10:54:39.000Z</time>
      </trkpt>
      <trkpt lat="44.53035" lon="0.62927">
        <ele>152.1</ele>
        <time>2017-01-29T10:54:40.000Z</time>
      </trkpt>
      <trkpt lat="44.53037" lon="0.62924">
        <ele>152.4</ele>
        <time>2017-01-29T10:54:41.000Z</time>
      </trkpt>
      <trkpt lat="44.53039" lon="0.62921">
        <ele>152.6</ele>
        <time>2017-01-29T10:54:42.000Z</time>
      </trkpt>
      <trkpt lat="44.53041" lon="0.62918">
        <ele>152.9</ele>
        <time>2017-01-29T10:54:43.000Z</time>
      </trkpt>
      <trkpt lat="44.53043" lon="0.62915">
        <ele>153.1</ele>
        <time>2017-01-29T10:54:44.000Z</time>
      </trkpt>
      <trkpt lat="44.53045" lon="0.62912">
        <ele>153.3</ele>
        <time>2017-01-29T10:54:45.000Z</time>
      </trkpt>
      <trkpt lat="44.53047" lon="0.62909">
        <ele>153.4</ele>
        <time>2017-01-29T10:54:46.000Z</time>
      </trkpt>
      <trkpt lat="44.53048" lon="0.62906">
        <ele>153.6</ele>
        <time>2017-01-29T10:54:47.000Z</time>
      </trkpt>
      <trkpt lat="44.5305" lon="0.62903">
        <ele>153.8</ele>
        <time>2017-01-29T10:54:48.000Z</time>
      </trkpt>
      <trkpt lat="44.53052" lon="0.629">
        <ele>153.9</ele>
        <time>2017-01-29T10:54:49.000Z</time>
      </trkpt>
      <trkpt lat="44.53054" lon="0.62896">
        <ele>154.1</ele>
        <time>2017-01-29T10:54:50.000Z</time>
      </trkpt>
      <trkpt lat="44.53055" lon="0.62893">
        <ele>154.3</ele>
        <time>2017-01-29T10:54:51.000Z</time>
      </trkpt>
      <trkpt lat="44.53057" lon="0.6289">
        <ele>154.4</ele>
        <time>2017-01-29T10:54:52.000Z</time>
      </trkpt>
      <trkpt lat="44.53059" lon="0.62886">
        <ele>154.6</ele>
        <time>2017-01-29T10:54:53.000Z</time>
      </trkpt>
      <trkpt lat="44.53061" lon="0.62883">
        <ele>154.8</ele>
        <time>2017-01-29T10:54:54.000Z</time>
      </trkpt>
      <trkpt lat="44.53062" lon="0.6288">
        <ele>154.9</ele>
        <time>2017-01-29T10:54:55.000Z</time>
      </trkpt>
      <trkpt lat="44.53064" lon="0.62876">
        <ele>155.1</ele>
        <time>2017-01-29T10:54:56.000Z</time>
      </trkpt>
      <trkpt lat="44.53066" lon="0.62873">
        <ele>155.3</ele>
        <time>2017-01-29T10:54:57.000Z</time>
      </trkpt>
      <trkpt lat="44.53068" lon="0.6287">
        <ele>155.4</ele>
        <time>2017-01-29T10:54:58.000Z</time>
      </trkpt>
      <trkpt lat="44.53069" lon="0.62867">
        <ele>155.6</ele>
        <time>2017-01-29T10:54:59.000Z</time>
      </trkpt>
      <trkpt lat="44.53071" lon="0.62863">
        <ele>155.7</ele>
        <time>2017-01-29T10:55:00.000Z</time>
      </trkpt>
      <trkpt lat="44.53073" lon="0.6286">
        <ele>155.9</ele>
        <time>2017-01-29T10:55:01.000Z</time>
      </trkpt>
      <trkpt lat="44.53075" lon="0.62857">
        <ele>156</ele>
        <time>2017-01-29T10:55:02.000Z</time>
      </trkpt>
      <trkpt lat="44.53076" lon="0.62854">
        <ele>156.1</ele>
        <time>2017-01-29T10:55:03.000Z</time>
      </trkpt>
      <trkpt lat="44.53078" lon="0.62851">
        <ele>156.3</ele>
        <time>2017-01-29T10:55:04.000Z</time>
      </trkpt>
      <trkpt lat="44.5308" lon="0.62848">
        <ele>156.4</ele>
        <time>2017-01-29T10:55:05.000Z</time>
      </trkpt>
      <trkpt lat="44.53082" lon="0.62845">
        <ele>156.6</ele>
        <time>2017-01-29T10:55:06.000Z</time>
      </trkpt>
      <trkpt lat="44.53084" lon="0.62842">
        <ele>156.7</ele>
        <time>2017-01-29T10:55:07.000Z</time>
      </trkpt>
      <trkpt lat="44.53085" lon="0.62838">
        <ele>156.7</ele>
        <time>2017-01-29T10:55:08.000Z</time>
      </trkpt>
      <trkpt lat="44.53087" lon="0.62835">
        <ele>156.6</ele>
        <time>2017-01-29T10:55:09.000Z</time>
      </trkpt>
      <trkpt lat="44.53089" lon="0.62832">
        <ele>156.6</ele>
        <time>2017-01-29T10:55:10.000Z</time>
      </trkpt>
      <trkpt lat="44.53091" lon="0.62829">
        <ele>156.6</ele>
        <time>2017-01-29T10:55:11.000Z</time>
      </trkpt>
      <trkpt lat="44.53093" lon="0.62825">
        <ele>156.7</ele>
        <time>2017-01-29T10:55:12.000Z</time>
      </trkpt>
      <trkpt lat="44.53095" lon="0.62822">
        <ele>156.7</ele>
        <time>2017-01-29T10:55:13.000Z</time>
      </trkpt>
      <trkpt lat="44.53098" lon="0.62818">
        <ele>156.7</ele>
        <time>2017-01-29T10:55:14.000Z</time>
      </trkpt>
      <trkpt lat="44.531" lon="0.62815">
        <ele>156.7</ele>
        <time>2017-01-29T10:55:15.000Z</time>
      </trkpt>
      <trkpt lat="44.53102" lon="0.62811">
        <ele>156.6</ele>
        <time>2017-01-29T10:55:16.000Z</time>
      </trkpt>
      <trkpt lat="44.53104" lon="0.62808">
        <ele>156.6</ele>
        <time>2017-01-29T10:55:17.000Z</time>
      </trkpt>
      <trkpt lat="44.53107" lon="0.62804">
        <ele>156.6</ele>
        <time>2017-01-29T10:55:18.000Z</time>
      </trkpt>
      <trkpt lat="44.53109" lon="0.62801">
        <ele>156.6</ele>
        <time>2017-01-29T10:55:19.000Z</time>
      </trkpt>
      <trkpt lat="44.53112" lon="0.62797">
        <ele>156.6</ele>
        <time>2017-01-29T10:55:20.000Z</time>
      </trkpt>
      <trkpt lat="44.53114" lon="0.62794">
        <ele>156.5</ele>
        <time>2017-01-29T10:55:21.000Z</time>
      </trkpt>
      <trkpt lat="44.53117" lon="0.6279">
        <ele>156.5</ele>
        <time>2017-01-29T10:55:22.000Z</time>
      </trkpt>
      <trkpt lat="44.53119" lon="0.62786">
        <ele>156.4</ele>
        <time>2017-01-29T10:55:23.000Z</time>
      </trkpt>
      <trkpt lat="44.53122" lon="0.62783">
        <ele>156.4</ele>
        <time>2017-01-29T10:55:24.000Z</time>
      </trkpt>
      <trkpt lat="44.53125" lon="0.62779">
        <ele>156.3</ele>
        <time>2017-01-29T10:55:25.000Z</time>
      </trkpt>
      <trkpt lat="44.53128" lon="0.62775">
        <ele>156.2</ele>
        <time>2017-01-29T10:55:26.000Z</time>
      </trkpt>
      <trkpt lat="44.53131" lon="0.62771">
        <ele>156.2</ele>
        <time>2017-01-29T10:55:27.000Z</time>
      </trkpt>
      <trkpt lat="44.53134" lon="0.62766">
        <ele>156.1</ele>
        <time>2017-01-29T10:55:28.000Z</time>
      </trkpt>
      <trkpt lat="44.53137" lon="0.62762">
        <ele>156.1</ele>
        <time>2017-01-29T10:55:29.000Z</time>
      </trkpt>
      <trkpt lat="44.5314" lon="0.62757">
        <ele>156</ele>
        <time>2017-01-29T10:55:30.000Z</time>
      </trkpt>
      <trkpt lat="44.53143" lon="0.62753">
        <ele>155.9</ele>
        <time>2017-01-29T10:55:31.000Z</time>
      </trkpt>
      <trkpt lat="44.53146" lon="0.62748">
        <ele>155.9</ele>
        <time>2017-01-29T10:55:32.000Z</time>
      </trkpt>
      <trkpt lat="44.53149" lon="0.62744">
        <ele>155.9</ele>
        <time>2017-01-29T10:55:33.000Z</time>
      </trkpt>
      <trkpt lat="44.53152" lon="0.6274">
        <ele>155.8</ele>
        <time>2017-01-29T10:55:34.000Z</time>
      </trkpt>
      <trkpt lat="44.53155" lon="0.62736">
        <ele>155.8</ele>
        <time>2017-01-29T10:55:35.000Z</time>
      </trkpt>
      <trkpt lat="44.53158" lon="0.62732">
        <ele>155.8</ele>
        <time>2017-01-29T10:55:36.000Z</time>
      </trkpt>
      <trkpt lat="44.53161" lon="0.62728">
        <ele>155.8</ele>
        <time>2017-01-29T10:55:37.000Z</time>
      </trkpt>
      <trkpt lat="44.53164" lon="0.62724">
        <ele>155.8</ele>
        <time>2017-01-29T10:55:38.000Z</time>
      </trkpt>
      <trkpt lat="44.53167" lon="0.6272">
        <ele>155.8</ele>
        <time>2017-01-29T10:55:39.000Z</time>
      </trkpt>
      <trkpt lat="44.5317" lon="0.62715">
        <ele>156.1</ele>
        <time>2017-01-29T10:55:40.000Z</time>
      </trkpt>
      <trkpt lat="44.53173" lon="0.62711">
        <ele>156.3</ele>
        <time>2017-01-29T10:55:41.000Z</time>
      </trkpt>
      <trkpt lat="44.53175" lon="0.62707">
        <ele>156.6</ele>
        <time>2017-01-29T10:55:42.000Z</time>
      </trkpt>
      <trkpt lat="44.53179" lon="0.62703">
        <ele>156.8</ele>
        <time>2017-01-29T10:55:43.000Z</time>
      </trkpt>
      <trkpt lat="44.53182" lon="0.62699">
        <ele>157</ele>
        <time>2017-01-29T10:55:44.000Z</time>
      </trkpt>
      <trkpt lat="44.53185" lon="0.62695">
        <ele>157.2</ele>
        <time>2017-01-29T10:55:45.000Z</time>
      </trkpt>
      <trkpt lat="44.53189" lon="0.62692">
        <ele>157.4</ele>
        <time>2017-01-29T10:55:46.000Z</time>
      </trkpt>
      <trkpt lat="44.53192" lon="0.62688">
        <ele>157.7</ele>
        <time>2017-01-29T10:55:47.000Z</time>
      </trkpt>
      <trkpt lat="44.53195" lon="0.62684">
        <ele>157.9</ele>
        <time>2017-01-29T10:55:48.000Z</time>
      </trkpt>
      <trkpt lat="44.53197" lon="0.62679">
        <ele>158.2</ele>
        <time>2017-01-29T10:55:49.000Z</time>
      </trkpt>
      <trkpt lat="44.532" lon="0.62675">
        <ele>158.4</ele>
        <time>2017-01-29T10:55:50.000Z</time>
      </trkpt>
      <trkpt lat="44.53203" lon="0.62671">
        <ele>158.7</ele>
        <time>2017-01-29T10:55:51.000Z</time>
      </trkpt>
      <trkpt lat="44.53206" lon="0.62667">
        <ele>159</ele>
        <time>2017-01-29T10:55:52.000Z</time>
      </trkpt>
      <trkpt lat="44.53209" lon="0.62664">
        <ele>159.3</ele>
        <time>2017-01-29T10:55:53.000Z</time>
      </trkpt>
      <trkpt lat="44.53212" lon="0.6266">
        <ele>159.7</ele>
        <time>2017-01-29T10:55:54.000Z</time>
      </trkpt>
      <trkpt lat="44.53215" lon="0.62657">
        <ele>160</ele>
        <time>2017-01-29T10:55:55.000Z</time>
      </trkpt>
      <trkpt lat="44.53218" lon="0.62653">
        <ele>160.4</ele>
        <time>2017-01-29T10:55:56.000Z</time>
      </trkpt>
      <trkpt lat="44.5322" lon="0.6265">
        <ele>160.7</ele>
        <time>2017-01-29T10:55:57.000Z</time>
      </trkpt>
      <trkpt lat="44.53222" lon="0.62646">
        <ele>161</ele>
        <time>2017-01-29T10:55:58.000Z</time>
      </trkpt>
      <trkpt lat="44.53224" lon="0.62643">
        <ele>161.4</ele>
        <time>2017-01-29T10:55:59.000Z</time>
      </trkpt>
      <trkpt lat="44.53226" lon="0.6264">
        <ele>161.7</ele>
        <time>2017-01-29T10:56:00.000Z</time>
      </trkpt>
      <trkpt lat="44.53228" lon="0.62637">
        <ele>161.9</ele>
        <time>2017-01-29T10:56:01.000Z</time>
      </trkpt>
      <trkpt lat="44.53229" lon="0.62634">
        <ele>162.2</ele>
        <time>2017-01-29T10:56:02.000Z</time>
      </trkpt>
      <trkpt lat="44.53231" lon="0.62632">
        <ele>162.4</ele>
        <time>2017-01-29T10:56:03.000Z</time>
      </trkpt>
      <trkpt lat="44.53233" lon="0.6263">
        <ele>162.6</ele>
        <time>2017-01-29T10:56:04.000Z</time>
      </trkpt>
      <trkpt lat="44.53235" lon="0.62628">
        <ele>162.8</ele>
        <time>2017-01-29T10:56:05.000Z</time>
      </trkpt>
      <trkpt lat="44.53237" lon="0.62626">
        <ele>163</ele>
        <time>2017-01-29T10:56:06.000Z</time>
      </trkpt>
      <trkpt lat="44.53239" lon="0.62624">
        <ele>163.2</ele>
        <time>2017-01-29T10:56:07.000Z</time>
      </trkpt>
      <trkpt lat="44.53241" lon="0.62622">
        <ele>163.4</ele>
        <time>2017-01-29T10:56:08.000Z</time>
      </trkpt>
      <trkpt lat="44.53243" lon="0.62619">
        <ele>163.6</ele>
        <time>2017-01-29T10:56:09.000Z</time>
      </trkpt>
      <trkpt lat="44.53245" lon="0.62617">
        <ele>163.8</ele>
        <time>2017-01-29T10:56:10.000Z</time>
      </trkpt>
      <trkpt lat="44.53246" lon="0.62614">
        <ele>164.1</ele>
        <time>2017-01-29T10:56:11.000Z</time>
      </trkpt>
      <trkpt lat="44.53248" lon="0.62612">
        <ele>164.3</ele>
        <time>2017-01-29T10:56:12.000Z</time>
      </trkpt>
      <trkpt lat="44.5325" lon="0.62609">
        <ele>164.5</ele>
        <time>2017-01-29T10:56:13.000Z</time>
      </trkpt>
      <trkpt lat="44.53252" lon="0.62607">
        <ele>164.8</ele>
        <time>2017-01-29T10:56:14.000Z</time>
      </trkpt>
      <trkpt lat="44.53253" lon="0.62604">
        <ele>165</ele>
        <time>2017-01-29T10:56:15.000Z</time>
      </trkpt>
      <trkpt lat="44.53255" lon="0.62602">
        <ele>165.3</ele>
        <time>2017-01-29T10:56:16.000Z</time>
      </trkpt>
      <trkpt lat="44.53256" lon="0.626">
        <ele>165.5</ele>
        <time>2017-01-29T10:56:17.000Z</time>
      </trkpt>
      <trkpt lat="44.53257" lon="0.62597">
        <ele>165.8</ele>
        <time>2017-01-29T10:56:18.000Z</time>
      </trkpt>
      <trkpt lat="44.53258" lon="0.62594">
        <ele>166</ele>
        <time>2017-01-29T10:56:19.000Z</time>
      </trkpt>
      <trkpt lat="44.53259" lon="0.62592">
        <ele>166.3</ele>
        <time>2017-01-29T10:56:20.000Z</time>
      </trkpt>
      <trkpt lat="44.53261" lon="0.6259">
        <ele>166.5</ele>
        <time>2017-01-29T10:56:21.000Z</time>
      </trkpt>
      <trkpt lat="44.53262" lon="0.62588">
        <ele>166.7</ele>
        <time>2017-01-29T10:56:22.000Z</time>
      </trkpt>
      <trkpt lat="44.53264" lon="0.62586">
        <ele>166.9</ele>
        <time>2017-01-29T10:56:23.000Z</time>
      </trkpt>
      <trkpt lat="44.53266" lon="0.62585">
        <ele>167.1</ele>
        <time>2017-01-29T10:56:24.000Z</time>
      </trkpt>
      <trkpt lat="44.53268" lon="0.62583">
        <ele>167.2</ele>
        <time>2017-01-29T10:56:25.000Z</time>
      </trkpt>
      <trkpt lat="44.5327" lon="0.62582">
        <ele>167.3</ele>
        <time>2017-01-29T10:56:26.000Z</time>
      </trkpt>
      <trkpt lat="44.53272" lon="0.62581">
        <ele>167.3</ele>
        <time>2017-01-29T10:56:27.000Z</time>
      </trkpt>
      <trkpt lat="44.53274" lon="0.6258">
        <ele>167.4</ele>
        <time>2017-01-29T10:56:28.000Z</time>
      </trkpt>
      <trkpt lat="44.53275" lon="0.62579">
        <ele>167.5</ele>
        <time>2017-01-29T10:56:29.000Z</time>
      </trkpt>
      <trkpt lat="44.53277" lon="0.62579">
        <ele>167.5</ele>
        <time>2017-01-29T10:56:30.000Z</time>
      </trkpt>
      <trkpt lat="44.53279" lon="0.62579">
        <ele>167.5</ele>
        <time>2017-01-29T10:56:31.000Z</time>
      </trkpt>
      <trkpt lat="44.5328" lon="0.6258">
        <ele>167.5</ele>
        <time>2017-01-29T10:56:32.000Z</time>
      </trkpt>
      <trkpt lat="44.53282" lon="0.62581">
        <ele>167.5</ele>
        <time>2017-01-29T10:56:33.000Z</time>
      </trkpt>
      <trkpt lat="44.53284" lon="0.62582">
        <ele>167.4</ele>
        <time>2017-01-29T10:56:34.000Z</time>
      </trkpt>
      <trkpt lat="44.53286" lon="0.62584">
        <ele>167.3</ele>
        <time>2017-01-29T10:56:35.000Z</time>
      </trkpt>
      <trkpt lat="44.53288" lon="0.62587">
        <ele>167.1</ele>
        <time>2017-01-29T10:56:36.000Z</time>
      </trkpt>
      <trkpt lat="44.5329" lon="0.6259">
        <ele>166.8</ele>
        <time>2017-01-29T10:56:37.000Z</time>
      </trkpt>
      <trkpt lat="44.53293" lon="0.62594">
        <ele>166.5</ele>
        <time>2017-01-29T10:56:38.000Z</time>
      </trkpt>
      <trkpt lat="44.53296" lon="0.62599">
        <ele>166.1</ele>
        <time>2017-01-29T10:56:39.000Z</time>
      </trkpt>
      <trkpt lat="44.53299" lon="0.62604">
        <ele>165.6</ele>
        <time>2017-01-29T10:56:40.000Z</time>
      </trkpt>
      <trkpt lat="44.53303" lon="0.6261">
        <ele>165</ele>
        <time>2017-01-29T10:56:41.000Z</time>
      </trkpt>
      <trkpt lat="44.53307" lon="0.62617">
        <ele>164.4</ele>
        <time>2017-01-29T10:56:42.000Z</time>
      </trkpt>
      <trkpt lat="44.53311" lon="0.62625">
        <ele>163.8</ele>
        <time>2017-01-29T10:56:43.000Z</time>
      </trkpt>
      <trkpt lat="44.53316" lon="0.62632">
        <ele>163.1</ele>
        <time>2017-01-29T10:56:44.000Z</time>
      </trkpt>
      <trkpt lat="44.53322" lon="0.62638">
        <ele>162.6</ele>
        <time>2017-01-29T10:56:45.000Z</time>
      </trkpt>
      <trkpt lat="44.53329" lon="0.62643">
        <ele>162.3</ele>
        <time>2017-01-29T10:56:46.000Z</time>
      </trkpt>
      <trkpt lat="44.53337" lon="0.62646">
        <ele>161.9</ele>
        <time>2017-01-29T10:56:47.000Z</time>
      </trkpt>
      <trkpt lat="44.53344" lon="0.62648">
        <ele>161.5</ele>
        <time>2017-01-29T10:56:48.000Z</time>
      </trkpt>
      <trkpt lat="44.53352" lon="0.62651">
        <ele>161</ele>
        <time>2017-01-29T10:56:49.000Z</time>
      </trkpt>
      <trkpt lat="44.5336" lon="0.62654">
        <ele>160.5</ele>
        <time>2017-01-29T10:56:50.000Z</time>
      </trkpt>
      <trkpt lat="44.53367" lon="0.62658">
        <ele>160</ele>
        <time>2017-01-29T10:56:51.000Z</time>
      </trkpt>
      <trkpt lat="44.53375" lon="0.62662">
        <ele>159.4</ele>
        <time>2017-01-29T10:56:52.000Z</time>
      </trkpt>
      <trkpt lat="44.53383" lon="0.62667">
        <ele>158.8</ele>
        <time>2017-01-29T10:56:53.000Z</time>
      </trkpt>
      <trkpt lat="44.5339" lon="0.62671">
        <ele>158.4</ele>
        <time>2017-01-29T10:56:54.000Z</time>
      </trkpt>
      <trkpt lat="44.53397" lon="0.62675">
        <ele>158</ele>
        <time>2017-01-29T10:56:55.000Z</time>
      </trkpt>
      <trkpt lat="44.53404" lon="0.62678">
        <ele>157.7</ele>
        <time>2017-01-29T10:56:56.000Z</time>
      </trkpt>
      <trkpt lat="44.53411" lon="0.62681">
        <ele>157.4</ele>
        <time>2017-01-29T10:56:57.000Z</time>
      </trkpt>
      <trkpt lat="44.53418" lon="0.62683">
        <ele>157.2</ele>
        <time>2017-01-29T10:56:58.000Z</time>
      </trkpt>
      <trkpt lat="44.53424" lon="0.62684">
        <ele>157.3</ele>
        <time>2017-01-29T10:56:59.000Z</time>
      </trkpt>
      <trkpt lat="44.53431" lon="0.62685">
        <ele>157.4</ele>
        <time>2017-01-29T10:57:00.000Z</time>
      </trkpt>
      <trkpt lat="44.53437" lon="0.62684">
        <ele>157.6</ele>
        <time>2017-01-29T10:57:01.000Z</time>
      </trkpt>
      <trkpt lat="44.53443" lon="0.62683">
        <ele>157.8</ele>
        <time>2017-01-29T10:57:02.000Z</time>
      </trkpt>
      <trkpt lat="44.53448" lon="0.62681">
        <ele>158</ele>
        <time>2017-01-29T10:57:03.000Z</time>
      </trkpt>
      <trkpt lat="44.53454" lon="0.62678">
        <ele>158.3</ele>
        <time>2017-01-29T10:57:04.000Z</time>
      </trkpt>
      <trkpt lat="44.53459" lon="0.62675">
        <ele>158.6</ele>
        <time>2017-01-29T10:57:05.000Z</time>
      </trkpt>
      <trkpt lat="44.53464" lon="0.62671">
        <ele>158.9</ele>
        <time>2017-01-29T10:57:06.000Z</time>
      </trkpt>
      <trkpt lat="44.53468" lon="0.62667">
        <ele>159.2</ele>
        <time>2017-01-29T10:57:07.000Z</time>
      </trkpt>
      <trkpt lat="44.53472" lon="0.62664">
        <ele>159.5</ele>
        <time>2017-01-29T10:57:08.000Z</time>
      </trkpt>
      <trkpt lat="44.53476" lon="0.6266">
        <ele>159.9</ele>
        <time>2017-01-29T10:57:09.000Z</time>
      </trkpt>
      <trkpt lat="44.5348" lon="0.62656">
        <ele>160.2</ele>
        <time>2017-01-29T10:57:10.000Z</time>
      </trkpt>
      <trkpt lat="44.53484" lon="0.62653">
        <ele>160.5</ele>
        <time>2017-01-29T10:57:11.000Z</time>
      </trkpt>
      <trkpt lat="44.53488" lon="0.6265">
        <ele>160.8</ele>
        <time>2017-01-29T10:57:12.000Z</time>
      </trkpt>
      <trkpt lat="44.53492" lon="0.62648">
        <ele>161</ele>
        <time>2017-01-29T10:57:13.000Z</time>
      </trkpt>
      <trkpt lat="44.53495" lon="0.62645">
        <ele>161.2</ele>
        <time>2017-01-29T10:57:14.000Z</time>
      </trkpt>
      <trkpt lat="44.53499" lon="0.62643">
        <ele>161.4</ele>
        <time>2017-01-29T10:57:15.000Z</time>
      </trkpt>
      <trkpt lat="44.53502" lon="0.6264">
        <ele>161.6</ele>
        <time>2017-01-29T10:57:16.000Z</time>
      </trkpt>
      <trkpt lat="44.53505" lon="0.62637">
        <ele>161.7</ele>
        <time>2017-01-29T10:57:17.000Z</time>
      </trkpt>
      <trkpt lat="44.53508" lon="0.62634">
        <ele>161.9</ele>
        <time>2017-01-29T10:57:18.000Z</time>
      </trkpt>
      <trkpt lat="44.5351" lon="0.6263">
        <ele>162.1</ele>
        <time>2017-01-29T10:57:19.000Z</time>
      </trkpt>
      <trkpt lat="44.53512" lon="0.62626">
        <ele>162.3</ele>
        <time>2017-01-29T10:57:20.000Z</time>
      </trkpt>
      <trkpt lat="44.53513" lon="0.62623">
        <ele>162.5</ele>
        <time>2017-01-29T10:57:21.000Z</time>
      </trkpt>
      <trkpt lat="44.53515" lon="0.62619">
        <ele>162.6</ele>
        <time>2017-01-29T10:57:22.000Z</time>
      </trkpt>
      <trkpt lat="44.53517" lon="0.62617">
        <ele>162.8</ele>
        <time>2017-01-29T10:57:23.000Z</time>
      </trkpt>
      <trkpt lat="44.53519" lon="0.62613">
        <ele>162.9</ele>
        <time>2017-01-29T10:57:24.000Z</time>
      </trkpt>
      <trkpt lat="44.53521" lon="0.62609">
        <ele>163.1</ele>
        <time>2017-01-29T10:57:25.000Z</time>
      </trkpt>
      <trkpt lat="44.53522" lon="0.62605">
        <ele>163.3</ele>
        <time>2017-01-29T10:57:26.000Z</time>
      </trkpt>
      <trkpt lat="44.53522" lon="0.626">
        <ele>163.6</ele>
        <time>2017-01-29T10:57:27.000Z</time>
      </trkpt>
      <trkpt lat="44.53523" lon="0.62596">
        <ele>163.8</ele>
        <time>2017-01-29T10:57:28.000Z</time>
      </trkpt>
      <trkpt lat="44.53524" lon="0.62591">
        <ele>164</ele>
        <time>2017-01-29T10:57:29.000Z</time>
      </trkpt>
      <trkpt lat="44.53526" lon="0.62587">
        <ele>164.2</ele>
        <time>2017-01-29T10:57:30.000Z</time>
      </trkpt>
      <trkpt lat="44.53527" lon="0.62583">
        <ele>164.4</ele>
        <time>2017-01-29T10:57:31.000Z</time>
      </trkpt>
      <trkpt lat="44.53529" lon="0.62579">
        <ele>164.7</ele>
        <time>2017-01-29T10:57:32.000Z</time>
      </trkpt>
      <trkpt lat="44.53531" lon="0.62575">
        <ele>164.9</ele>
        <time>2017-01-29T10:57:33.000Z</time>
      </trkpt>
      <trkpt lat="44.53533" lon="0.62571">
        <ele>165.1</ele>
        <time>2017-01-29T10:57:34.000Z</time>
      </trkpt>
      <trkpt lat="44.53534" lon="0.62566">
        <ele>165.4</ele>
        <time>2017-01-29T10:57:35.000Z</time>
      </trkpt>
      <trkpt lat="44.53536" lon="0.62562">
        <ele>165.6</ele>
        <time>2017-01-29T10:57:36.000Z</time>
      </trkpt>
      <trkpt lat="44.53538" lon="0.62558">
        <ele>165.8</ele>
        <time>2017-01-29T10:57:37.000Z</time>
      </trkpt>
      <trkpt lat="44.53539" lon="0.62554">
        <ele>166</ele>
        <time>2017-01-29T10:57:38.000Z</time>
      </trkpt>
      <trkpt lat="44.53541" lon="0.6255">
        <ele>166.2</ele>
        <time>2017-01-29T10:57:39.000Z</time>
      </trkpt>
      <trkpt lat="44.53543" lon="0.62547">
        <ele>166.4</ele>
        <time>2017-01-29T10:57:40.000Z</time>
      </trkpt>
      <trkpt lat="44.53544" lon="0.62544">
        <ele>166.5</ele>
        <time>2017-01-29T10:57:41.000Z</time>
      </trkpt>
      <trkpt lat="44.53546" lon="0.62542">
        <ele>166.5</ele>
        <time>2017-01-29T10:57:42.000Z</time>
      </trkpt>
      <trkpt lat="44.53548" lon="0.6254">
        <ele>166.5</ele>
        <time>2017-01-29T10:57:43.000Z</time>
      </trkpt>
      <trkpt lat="44.5355" lon="0.6254">
        <ele>166.4</ele>
        <time>2017-01-29T10:57:44.000Z</time>
      </trkpt>
      <trkpt lat="44.53552" lon="0.6254">
        <ele>166.3</ele>
        <time>2017-01-29T10:57:45.000Z</time>
      </trkpt>
      <trkpt lat="44.53554" lon="0.6254">
        <ele>166.2</ele>
        <time>2017-01-29T10:57:46.000Z</time>
      </trkpt>
      <trkpt lat="44.53555" lon="0.62541">
        <ele>166.1</ele>
        <time>2017-01-29T10:57:47.000Z</time>
      </trkpt>
      <trkpt lat="44.53556" lon="0.62541">
        <ele>166</ele>
        <time>2017-01-29T10:57:48.000Z</time>
      </trkpt>
      <trkpt lat="44.53557" lon="0.62541">
        <ele>166</ele>
        <time>2017-01-29T10:57:49.000Z</time>
      </trkpt>
      <trkpt lat="44.53558" lon="0.6254">
        <ele>165.9</ele>
        <time>2017-01-29T10:57:50.000Z</time>
      </trkpt>
      <trkpt lat="44.5356" lon="0.62539">
        <ele>165.9</ele>
        <time>2017-01-29T10:57:51.000Z</time>
      </trkpt>
      <trkpt lat="44.53561" lon="0.62537">
        <ele>165.9</ele>
        <time>2017-01-29T10:57:52.000Z</time>
      </trkpt>
      <trkpt lat="44.53563" lon="0.62536">
        <ele>165.9</ele>
        <time>2017-01-29T10:57:53.000Z</time>
      </trkpt>
      <trkpt lat="44.53564" lon="0.62534">
        <ele>165.9</ele>
        <time>2017-01-29T10:57:54.000Z</time>
      </trkpt>
      <trkpt lat="44.53564" lon="0.62534">
        <ele>165.9</ele>
        <time>2017-01-29T10:57:55.000Z</time>
      </trkpt>
      <trkpt lat="44.53564" lon="0.62533">
        <ele>166</ele>
        <time>2017-01-29T10:57:56.000Z</time>
      </trkpt>
      <trkpt lat="44.53565" lon="0.62533">
        <ele>166</ele>
        <time>2017-01-29T10:57:57.000Z</time>
      </trkpt>
      <trkpt lat="44.53566" lon="0.62531">
        <ele>166</ele>
        <time>2017-01-29T10:57:58.000Z</time>
      </trkpt>
      <trkpt lat="44.53567" lon="0.62529">
        <ele>166</ele>
        <time>2017-01-29T10:57:59.000Z</time>
      </trkpt>
      <trkpt lat="44.53569" lon="0.62526">
        <ele>166</ele>
        <time>2017-01-29T10:58:00.000Z</time>
      </trkpt>
      <trkpt lat="44.53571" lon="0.62523">
        <ele>166</ele>
        <time>2017-01-29T10:58:01.000Z</time>
      </trkpt>
      <trkpt lat="44.53572" lon="0.62521">
        <ele>166</ele>
        <time>2017-01-29T10:58:02.000Z</time>
      </trkpt>
      <trkpt lat="44.53573" lon="0.62519">
        <ele>166</ele>
        <time>2017-01-29T10:58:03.000Z</time>
      </trkpt>
      <trkpt lat="44.53574" lon="0.62518">
        <ele>166</ele>
        <time>2017-01-29T10:58:04.000Z</time>
      </trkpt>
      <trkpt lat="44.53574" lon="0.62519">
        <ele>166</ele>
        <time>2017-01-29T10:58:05.000Z</time>
      </trkpt>
      <trkpt lat="44.53574" lon="0.62519">
        <ele>166</ele>
        <time>2017-01-29T10:58:06.000Z</time>
      </trkpt>
      <trkpt lat="44.53574" lon="0.62518">
        <ele>166</ele>
        <time>2017-01-29T10:58:07.000Z</time>
      </trkpt>
      <trkpt lat="44.53574" lon="0.62517">
        <ele>166</ele>
        <time>2017-01-29T10:58:08.000Z</time>
      </trkpt>
      <trkpt lat="44.53576" lon="0.62516">
        <ele>166</ele>
        <time>2017-01-29T10:58:09.000Z</time>
      </trkpt>
      <trkpt lat="44.53578" lon="0.62515">
        <ele>165.9</ele>
        <time>2017-01-29T10:58:10.000Z</time>
      </trkpt>
      <trkpt lat="44.5358" lon="0.62515">
        <ele>165.7</ele>
        <time>2017-01-29T10:58:11.000Z</time>
      </trkpt>
      <trkpt lat="44.53584" lon="0.62516">
        <ele>165.4</ele>
        <time>2017-01-29T10:58:12.000Z</time>
      </trkpt>
      <trkpt lat="44.53587" lon="0.62518">
        <ele>165</ele>
        <time>2017-01-29T10:58:13.000Z</time>
      </trkpt>
      <trkpt lat="44.5359" lon="0.6252">
        <ele>164.6</ele>
        <time>2017-01-29T10:58:14.000Z</time>
      </trkpt>
      <trkpt lat="44.53594" lon="0.6252">
        <ele>164.4</ele>
        <time>2017-01-29T10:58:15.000Z</time>
      </trkpt>
      <trkpt lat="44.53596" lon="0.62519">
        <ele>164.2</ele>
        <time>2017-01-29T10:58:16.000Z</time>
      </trkpt>
      <trkpt lat="44.53599" lon="0.62516">
        <ele>164</ele>
        <time>2017-01-29T10:58:17.000Z</time>
      </trkpt>
      <trkpt lat="44.536" lon="0.62512">
        <ele>164</ele>
        <time>2017-01-29T10:58:18.000Z</time>
      </trkpt>
      <trkpt lat="44.53602" lon="0.62509">
        <ele>163.9</ele>
        <time>2017-01-29T10:58:19.000Z</time>
      </trkpt>
      <trkpt lat="44.53604" lon="0.62505">
        <ele>163.9</ele>
        <time>2017-01-29T10:58:20.000Z</time>
      </trkpt>
      <trkpt lat="44.53605" lon="0.62501">
        <ele>163.9</ele>
        <time>2017-01-29T10:58:21.000Z</time>
      </trkpt>
      <trkpt lat="44.53607" lon="0.62498">
        <ele>163.9</ele>
        <time>2017-01-29T10:58:22.000Z</time>
      </trkpt>
      <trkpt lat="44.53609" lon="0.62495">
        <ele>163.9</ele>
        <time>2017-01-29T10:58:23.000Z</time>
      </trkpt>
      <trkpt lat="44.53611" lon="0.62492">
        <ele>163.9</ele>
        <time>2017-01-29T10:58:24.000Z</time>
      </trkpt>
      <trkpt lat="44.53613" lon="0.62489">
        <ele>163.9</ele>
        <time>2017-01-29T10:58:25.000Z</time>
      </trkpt>
      <trkpt lat="44.53616" lon="0.62487">
        <ele>163.8</ele>
        <time>2017-01-29T10:58:26.000Z</time>
      </trkpt>
      <trkpt lat="44.53618" lon="0.62484">
        <ele>163.7</ele>
        <time>2017-01-29T10:58:27.000Z</time>
      </trkpt>
      <trkpt lat="44.53621" lon="0.62482">
        <ele>163.5</ele>
        <time>2017-01-29T10:58:28.000Z</time>
      </trkpt>
      <trkpt lat="44.53625" lon="0.6248">
        <ele>163.4</ele>
        <time>2017-01-29T10:58:29.000Z</time>
      </trkpt>
      <trkpt lat="44.53627" lon="0.62477">
        <ele>163.3</ele>
        <time>2017-01-29T10:58:30.000Z</time>
      </trkpt>
      <trkpt lat="44.5363" lon="0.62475">
        <ele>163.1</ele>
        <time>2017-01-29T10:58:31.000Z</time>
      </trkpt>
      <trkpt lat="44.53633" lon="0.62473">
        <ele>163.1</ele>
        <time>2017-01-29T10:58:32.000Z</time>
      </trkpt>
      <trkpt lat="44.53635" lon="0.62471">
        <ele>163</ele>
        <time>2017-01-29T10:58:33.000Z</time>
      </trkpt>
      <trkpt lat="44.53636" lon="0.62469">
        <ele>163</ele>
        <time>2017-01-29T10:58:34.000Z</time>
      </trkpt>
      <trkpt lat="44.53636" lon="0.62467">
        <ele>163.1</ele>
        <time>2017-01-29T10:58:35.000Z</time>
      </trkpt>
      <trkpt lat="44.53636" lon="0.62465">
        <ele>163.3</ele>
        <time>2017-01-29T10:58:36.000Z</time>
      </trkpt>
      <trkpt lat="44.53635" lon="0.62463">
        <ele>163.6</ele>
        <time>2017-01-29T10:58:37.000Z</time>
      </trkpt>
    </trkseg>
  </trk>
</gpx>